<?xml version="1.0" encoding="UTF-8" standalone="no" ?>
<gpx xmlns="http://www.topografix.com/GPX/1/1" xmlns:xsi="http://www.w3.org/2001/XMLSchema-instance" xsi:schemaLocation="http://www.topografix.com/GPX/1/1 http://www.topografix.com/GPX/1/1/gpx.xsd" version="1.1" creator="VisuGPX - https://www.visugpx.com">
  <metadata>
    <name>Bizous/ Cardeilhac (A/R)</name>
  </metadata>
  <trk>
    <name><![CDATA[Bizous/ Cardeilhac (A/R)_1]]></name>
    <trkseg>
      <trkpt lat="43.0668" lon="0.44064">
        <ele>487</ele>
        <time>2025-12-29T09:27:26Z</time>
      </trkpt>
      <trkpt lat="43.06683" lon="0.44066">
        <ele>487</ele>
        <time>2025-12-29T09:27:27Z</time>
      </trkpt>
      <trkpt lat="43.06686" lon="0.44068">
        <ele>487</ele>
        <time>2025-12-29T09:27:28Z</time>
      </trkpt>
      <trkpt lat="43.06689" lon="0.4407">
        <ele>487</ele>
        <time>2025-12-29T09:27:29Z</time>
      </trkpt>
      <trkpt lat="43.06692" lon="0.44072">
        <ele>487</ele>
        <time>2025-12-29T09:27:30Z</time>
      </trkpt>
      <trkpt lat="43.06695" lon="0.44075">
        <ele>487</ele>
        <time>2025-12-29T09:27:31Z</time>
      </trkpt>
      <trkpt lat="43.06699" lon="0.44077">
        <ele>486</ele>
        <time>2025-12-29T09:27:32Z</time>
      </trkpt>
      <trkpt lat="43.06702" lon="0.4408">
        <ele>486.4</ele>
        <time>2025-12-29T09:27:33Z</time>
      </trkpt>
      <trkpt lat="43.06705" lon="0.44083">
        <ele>486.4</ele>
        <time>2025-12-29T09:27:34Z</time>
      </trkpt>
      <trkpt lat="43.06709" lon="0.44086">
        <ele>486.4</ele>
        <time>2025-12-29T09:27:35Z</time>
      </trkpt>
      <trkpt lat="43.06712" lon="0.4409">
        <ele>486.4</ele>
        <time>2025-12-29T09:27:36Z</time>
      </trkpt>
      <trkpt lat="43.06715" lon="0.44093">
        <ele>486</ele>
        <time>2025-12-29T09:27:37Z</time>
      </trkpt>
      <trkpt lat="43.06718" lon="0.44097">
        <ele>486</ele>
        <time>2025-12-29T09:27:38Z</time>
      </trkpt>
      <trkpt lat="43.0672" lon="0.44101">
        <ele>486</ele>
        <time>2025-12-29T09:27:39Z</time>
      </trkpt>
      <trkpt lat="43.06723" lon="0.44105">
        <ele>486.6</ele>
        <time>2025-12-29T09:27:40Z</time>
      </trkpt>
      <trkpt lat="43.06726" lon="0.44109">
        <ele>486</ele>
        <time>2025-12-29T09:27:41Z</time>
      </trkpt>
      <trkpt lat="43.06728" lon="0.44112">
        <ele>486</ele>
        <time>2025-12-29T09:27:42Z</time>
      </trkpt>
      <trkpt lat="43.06731" lon="0.44116">
        <ele>486</ele>
        <time>2025-12-29T09:27:43Z</time>
      </trkpt>
      <trkpt lat="43.06734" lon="0.4412">
        <ele>486.4</ele>
        <time>2025-12-29T09:27:44Z</time>
      </trkpt>
      <trkpt lat="43.06736" lon="0.44124">
        <ele>486.4</ele>
        <time>2025-12-29T09:27:45Z</time>
      </trkpt>
      <trkpt lat="43.06739" lon="0.44127">
        <ele>486.4</ele>
        <time>2025-12-29T09:27:46Z</time>
      </trkpt>
      <trkpt lat="43.06741" lon="0.44131">
        <ele>486.4</ele>
        <time>2025-12-29T09:27:47Z</time>
      </trkpt>
      <trkpt lat="43.06744" lon="0.44135">
        <ele>486.4</ele>
        <time>2025-12-29T09:27:48Z</time>
      </trkpt>
      <trkpt lat="43.06747" lon="0.44138">
        <ele>486.2</ele>
        <time>2025-12-29T09:27:49Z</time>
      </trkpt>
      <trkpt lat="43.06749" lon="0.44141">
        <ele>486.2</ele>
        <time>2025-12-29T09:27:50Z</time>
      </trkpt>
      <trkpt lat="43.06751" lon="0.44145">
        <ele>486.2</ele>
        <time>2025-12-29T09:27:51Z</time>
      </trkpt>
      <trkpt lat="43.06754" lon="0.44148">
        <ele>486.2</ele>
        <time>2025-12-29T09:27:52Z</time>
      </trkpt>
      <trkpt lat="43.06757" lon="0.44151">
        <ele>486.2</ele>
        <time>2025-12-29T09:27:53Z</time>
      </trkpt>
      <trkpt lat="43.06759" lon="0.44154">
        <ele>485.6</ele>
        <time>2025-12-29T09:27:54Z</time>
      </trkpt>
      <trkpt lat="43.06762" lon="0.44158">
        <ele>485.6</ele>
        <time>2025-12-29T09:27:55Z</time>
      </trkpt>
      <trkpt lat="43.06765" lon="0.44161">
        <ele>485.6</ele>
        <time>2025-12-29T09:27:56Z</time>
      </trkpt>
      <trkpt lat="43.06768" lon="0.44165">
        <ele>486.4</ele>
        <time>2025-12-29T09:27:57Z</time>
      </trkpt>
      <trkpt lat="43.0677" lon="0.44168">
        <ele>486.2</ele>
        <time>2025-12-29T09:27:58Z</time>
      </trkpt>
      <trkpt lat="43.06773" lon="0.44171">
        <ele>486.2</ele>
        <time>2025-12-29T09:27:59Z</time>
      </trkpt>
      <trkpt lat="43.06775" lon="0.44174">
        <ele>486.2</ele>
        <time>2025-12-29T09:28:00Z</time>
      </trkpt>
      <trkpt lat="43.06778" lon="0.44177">
        <ele>486.2</ele>
        <time>2025-12-29T09:28:01Z</time>
      </trkpt>
      <trkpt lat="43.0678" lon="0.4418">
        <ele>486.6</ele>
        <time>2025-12-29T09:28:02Z</time>
      </trkpt>
      <trkpt lat="43.06783" lon="0.44183">
        <ele>486.6</ele>
        <time>2025-12-29T09:28:03Z</time>
      </trkpt>
      <trkpt lat="43.06786" lon="0.44185">
        <ele>486.6</ele>
        <time>2025-12-29T09:28:04Z</time>
      </trkpt>
      <trkpt lat="43.06789" lon="0.44187">
        <ele>486.4</ele>
        <time>2025-12-29T09:28:05Z</time>
      </trkpt>
      <trkpt lat="43.06792" lon="0.44189">
        <ele>487.4</ele>
        <time>2025-12-29T09:28:06Z</time>
      </trkpt>
      <trkpt lat="43.06796" lon="0.44191">
        <ele>487.4</ele>
        <time>2025-12-29T09:28:07Z</time>
      </trkpt>
      <trkpt lat="43.06799" lon="0.44193">
        <ele>487.4</ele>
        <time>2025-12-29T09:28:08Z</time>
      </trkpt>
      <trkpt lat="43.06803" lon="0.44195">
        <ele>486.4</ele>
        <time>2025-12-29T09:28:09Z</time>
      </trkpt>
      <trkpt lat="43.06806" lon="0.44196">
        <ele>485.6</ele>
        <time>2025-12-29T09:28:10Z</time>
      </trkpt>
      <trkpt lat="43.0681" lon="0.44198">
        <ele>485.6</ele>
        <time>2025-12-29T09:28:11Z</time>
      </trkpt>
      <trkpt lat="43.06814" lon="0.442">
        <ele>485.6</ele>
        <time>2025-12-29T09:28:12Z</time>
      </trkpt>
      <trkpt lat="43.06818" lon="0.44201">
        <ele>485.8</ele>
        <time>2025-12-29T09:28:13Z</time>
      </trkpt>
      <trkpt lat="43.06822" lon="0.44202">
        <ele>486.2</ele>
        <time>2025-12-29T09:28:14Z</time>
      </trkpt>
      <trkpt lat="43.06826" lon="0.44203">
        <ele>486.2</ele>
        <time>2025-12-29T09:28:15Z</time>
      </trkpt>
      <trkpt lat="43.0683" lon="0.44203">
        <ele>486.2</ele>
        <time>2025-12-29T09:28:16Z</time>
      </trkpt>
      <trkpt lat="43.06834" lon="0.44203">
        <ele>486.2</ele>
        <time>2025-12-29T09:28:17Z</time>
      </trkpt>
      <trkpt lat="43.06838" lon="0.44203">
        <ele>484.8</ele>
        <time>2025-12-29T09:28:18Z</time>
      </trkpt>
      <trkpt lat="43.06842" lon="0.44203">
        <ele>484.8</ele>
        <time>2025-12-29T09:28:19Z</time>
      </trkpt>
      <trkpt lat="43.06846" lon="0.44204">
        <ele>484.8</ele>
        <time>2025-12-29T09:28:20Z</time>
      </trkpt>
      <trkpt lat="43.0685" lon="0.44205">
        <ele>485.8</ele>
        <time>2025-12-29T09:28:21Z</time>
      </trkpt>
      <trkpt lat="43.06854" lon="0.44205">
        <ele>486</ele>
        <time>2025-12-29T09:28:22Z</time>
      </trkpt>
      <trkpt lat="43.06858" lon="0.44206">
        <ele>486</ele>
        <time>2025-12-29T09:28:23Z</time>
      </trkpt>
      <trkpt lat="43.06862" lon="0.44207">
        <ele>486</ele>
        <time>2025-12-29T09:28:24Z</time>
      </trkpt>
      <trkpt lat="43.06866" lon="0.44208">
        <ele>486.8</ele>
        <time>2025-12-29T09:28:25Z</time>
      </trkpt>
      <trkpt lat="43.0687" lon="0.44209">
        <ele>486.4</ele>
        <time>2025-12-29T09:28:26Z</time>
      </trkpt>
      <trkpt lat="43.06874" lon="0.4421">
        <ele>486.4</ele>
        <time>2025-12-29T09:28:27Z</time>
      </trkpt>
      <trkpt lat="43.06877" lon="0.44212">
        <ele>486.4</ele>
        <time>2025-12-29T09:28:28Z</time>
      </trkpt>
      <trkpt lat="43.06881" lon="0.44212">
        <ele>486.2</ele>
        <time>2025-12-29T09:28:29Z</time>
      </trkpt>
      <trkpt lat="43.06884" lon="0.44211">
        <ele>486.2</ele>
        <time>2025-12-29T09:28:30Z</time>
      </trkpt>
      <trkpt lat="43.06887" lon="0.4421">
        <ele>486.2</ele>
        <time>2025-12-29T09:28:31Z</time>
      </trkpt>
      <trkpt lat="43.0689" lon="0.44207">
        <ele>486.2</ele>
        <time>2025-12-29T09:28:32Z</time>
      </trkpt>
      <trkpt lat="43.06893" lon="0.44205">
        <ele>486.2</ele>
        <time>2025-12-29T09:28:33Z</time>
      </trkpt>
      <trkpt lat="43.06896" lon="0.44203">
        <ele>486.8</ele>
        <time>2025-12-29T09:28:34Z</time>
      </trkpt>
      <trkpt lat="43.06899" lon="0.44201">
        <ele>486.8</ele>
        <time>2025-12-29T09:28:35Z</time>
      </trkpt>
      <trkpt lat="43.06903" lon="0.44201">
        <ele>486.8</ele>
        <time>2025-12-29T09:28:36Z</time>
      </trkpt>
      <trkpt lat="43.06906" lon="0.44202">
        <ele>486.8</ele>
        <time>2025-12-29T09:28:37Z</time>
      </trkpt>
      <trkpt lat="43.06909" lon="0.44203">
        <ele>486.2</ele>
        <time>2025-12-29T09:28:38Z</time>
      </trkpt>
      <trkpt lat="43.06913" lon="0.44204">
        <ele>486.2</ele>
        <time>2025-12-29T09:28:39Z</time>
      </trkpt>
      <trkpt lat="43.06916" lon="0.44205">
        <ele>486.2</ele>
        <time>2025-12-29T09:28:40Z</time>
      </trkpt>
      <trkpt lat="43.06919" lon="0.44206">
        <ele>486.2</ele>
        <time>2025-12-29T09:28:41Z</time>
      </trkpt>
      <trkpt lat="43.06923" lon="0.44207">
        <ele>486</ele>
        <time>2025-12-29T09:28:42Z</time>
      </trkpt>
      <trkpt lat="43.06926" lon="0.44208">
        <ele>486</ele>
        <time>2025-12-29T09:28:43Z</time>
      </trkpt>
      <trkpt lat="43.06929" lon="0.4421">
        <ele>486</ele>
        <time>2025-12-29T09:28:44Z</time>
      </trkpt>
      <trkpt lat="43.06932" lon="0.44212">
        <ele>486</ele>
        <time>2025-12-29T09:28:45Z</time>
      </trkpt>
      <trkpt lat="43.06935" lon="0.44214">
        <ele>485.8</ele>
        <time>2025-12-29T09:28:46Z</time>
      </trkpt>
      <trkpt lat="43.06937" lon="0.44215">
        <ele>485.8</ele>
        <time>2025-12-29T09:28:47Z</time>
      </trkpt>
      <trkpt lat="43.0694" lon="0.44215">
        <ele>485.8</ele>
        <time>2025-12-29T09:28:48Z</time>
      </trkpt>
      <trkpt lat="43.06943" lon="0.44214">
        <ele>485.8</ele>
        <time>2025-12-29T09:28:49Z</time>
      </trkpt>
      <trkpt lat="43.06946" lon="0.44212">
        <ele>485.8</ele>
        <time>2025-12-29T09:28:50Z</time>
      </trkpt>
      <trkpt lat="43.06949" lon="0.4421">
        <ele>485.8</ele>
        <time>2025-12-29T09:28:51Z</time>
      </trkpt>
      <trkpt lat="43.06951" lon="0.44208">
        <ele>485.8</ele>
        <time>2025-12-29T09:28:52Z</time>
      </trkpt>
      <trkpt lat="43.06954" lon="0.44205">
        <ele>485.8</ele>
        <time>2025-12-29T09:28:53Z</time>
      </trkpt>
      <trkpt lat="43.06957" lon="0.44203">
        <ele>486</ele>
        <time>2025-12-29T09:28:54Z</time>
      </trkpt>
      <trkpt lat="43.06959" lon="0.442">
        <ele>486</ele>
        <time>2025-12-29T09:28:55Z</time>
      </trkpt>
      <trkpt lat="43.06962" lon="0.44197">
        <ele>486</ele>
        <time>2025-12-29T09:28:56Z</time>
      </trkpt>
      <trkpt lat="43.06965" lon="0.44195">
        <ele>486</ele>
        <time>2025-12-29T09:28:57Z</time>
      </trkpt>
      <trkpt lat="43.06967" lon="0.44193">
        <ele>485.4</ele>
        <time>2025-12-29T09:28:58Z</time>
      </trkpt>
      <trkpt lat="43.0697" lon="0.4419">
        <ele>485.4</ele>
        <time>2025-12-29T09:28:59Z</time>
      </trkpt>
      <trkpt lat="43.06973" lon="0.44187">
        <ele>485.4</ele>
        <time>2025-12-29T09:29:00Z</time>
      </trkpt>
      <trkpt lat="43.06976" lon="0.44184">
        <ele>486</ele>
        <time>2025-12-29T09:29:01Z</time>
      </trkpt>
      <trkpt lat="43.06978" lon="0.44182">
        <ele>486.4</ele>
        <time>2025-12-29T09:29:02Z</time>
      </trkpt>
      <trkpt lat="43.06981" lon="0.44179">
        <ele>486.4</ele>
        <time>2025-12-29T09:29:03Z</time>
      </trkpt>
      <trkpt lat="43.06984" lon="0.44176">
        <ele>486.4</ele>
        <time>2025-12-29T09:29:04Z</time>
      </trkpt>
      <trkpt lat="43.06987" lon="0.44173">
        <ele>485.6</ele>
        <time>2025-12-29T09:29:05Z</time>
      </trkpt>
      <trkpt lat="43.06989" lon="0.4417">
        <ele>486.4</ele>
        <time>2025-12-29T09:29:06Z</time>
      </trkpt>
      <trkpt lat="43.06992" lon="0.44167">
        <ele>486.4</ele>
        <time>2025-12-29T09:29:07Z</time>
      </trkpt>
      <trkpt lat="43.06995" lon="0.44164">
        <ele>486.4</ele>
        <time>2025-12-29T09:29:08Z</time>
      </trkpt>
      <trkpt lat="43.06998" lon="0.44162">
        <ele>486.4</ele>
        <time>2025-12-29T09:29:09Z</time>
      </trkpt>
      <trkpt lat="43.07001" lon="0.44159">
        <ele>486.2</ele>
        <time>2025-12-29T09:29:10Z</time>
      </trkpt>
      <trkpt lat="43.07004" lon="0.44156">
        <ele>486.2</ele>
        <time>2025-12-29T09:29:11Z</time>
      </trkpt>
      <trkpt lat="43.07007" lon="0.44153">
        <ele>486.2</ele>
        <time>2025-12-29T09:29:12Z</time>
      </trkpt>
      <trkpt lat="43.07009" lon="0.44151">
        <ele>486.2</ele>
        <time>2025-12-29T09:29:13Z</time>
      </trkpt>
      <trkpt lat="43.07012" lon="0.44148">
        <ele>486.2</ele>
        <time>2025-12-29T09:29:14Z</time>
      </trkpt>
      <trkpt lat="43.07015" lon="0.44145">
        <ele>486.2</ele>
        <time>2025-12-29T09:29:15Z</time>
      </trkpt>
      <trkpt lat="43.07018" lon="0.44142">
        <ele>486.2</ele>
        <time>2025-12-29T09:29:16Z</time>
      </trkpt>
      <trkpt lat="43.0702" lon="0.44139">
        <ele>487.2</ele>
        <time>2025-12-29T09:29:17Z</time>
      </trkpt>
      <trkpt lat="43.07023" lon="0.44137">
        <ele>486.8</ele>
        <time>2025-12-29T09:29:18Z</time>
      </trkpt>
      <trkpt lat="43.07026" lon="0.44135">
        <ele>486.8</ele>
        <time>2025-12-29T09:29:19Z</time>
      </trkpt>
      <trkpt lat="43.07028" lon="0.44133">
        <ele>486.8</ele>
        <time>2025-12-29T09:29:20Z</time>
      </trkpt>
      <trkpt lat="43.07031" lon="0.4413">
        <ele>487.4</ele>
        <time>2025-12-29T09:29:21Z</time>
      </trkpt>
      <trkpt lat="43.07034" lon="0.44128">
        <ele>487.6</ele>
        <time>2025-12-29T09:29:22Z</time>
      </trkpt>
      <trkpt lat="43.07036" lon="0.44125">
        <ele>487.6</ele>
        <time>2025-12-29T09:29:23Z</time>
      </trkpt>
      <trkpt lat="43.07039" lon="0.44122">
        <ele>487.6</ele>
        <time>2025-12-29T09:29:24Z</time>
      </trkpt>
      <trkpt lat="43.07041" lon="0.44119">
        <ele>487.6</ele>
        <time>2025-12-29T09:29:25Z</time>
      </trkpt>
      <trkpt lat="43.07044" lon="0.44117">
        <ele>487.8</ele>
        <time>2025-12-29T09:29:26Z</time>
      </trkpt>
      <trkpt lat="43.07046" lon="0.44114">
        <ele>487.8</ele>
        <time>2025-12-29T09:29:27Z</time>
      </trkpt>
      <trkpt lat="43.07049" lon="0.44111">
        <ele>487.8</ele>
        <time>2025-12-29T09:29:28Z</time>
      </trkpt>
      <trkpt lat="43.07052" lon="0.44109">
        <ele>488.2</ele>
        <time>2025-12-29T09:29:29Z</time>
      </trkpt>
      <trkpt lat="43.07055" lon="0.44107">
        <ele>488.6</ele>
        <time>2025-12-29T09:29:30Z</time>
      </trkpt>
      <trkpt lat="43.07058" lon="0.44105">
        <ele>488.6</ele>
        <time>2025-12-29T09:29:31Z</time>
      </trkpt>
      <trkpt lat="43.07061" lon="0.44103">
        <ele>488.6</ele>
        <time>2025-12-29T09:29:32Z</time>
      </trkpt>
      <trkpt lat="43.07063" lon="0.44101">
        <ele>488.6</ele>
        <time>2025-12-29T09:29:33Z</time>
      </trkpt>
      <trkpt lat="43.07066" lon="0.44099">
        <ele>489.2</ele>
        <time>2025-12-29T09:29:34Z</time>
      </trkpt>
      <trkpt lat="43.07069" lon="0.44097">
        <ele>489.2</ele>
        <time>2025-12-29T09:29:35Z</time>
      </trkpt>
      <trkpt lat="43.07072" lon="0.44095">
        <ele>489.2</ele>
        <time>2025-12-29T09:29:36Z</time>
      </trkpt>
      <trkpt lat="43.07074" lon="0.44094">
        <ele>489.2</ele>
        <time>2025-12-29T09:29:37Z</time>
      </trkpt>
      <trkpt lat="43.07077" lon="0.44092">
        <ele>489.2</ele>
        <time>2025-12-29T09:29:38Z</time>
      </trkpt>
      <trkpt lat="43.0708" lon="0.4409">
        <ele>489.2</ele>
        <time>2025-12-29T09:29:39Z</time>
      </trkpt>
      <trkpt lat="43.07082" lon="0.44089">
        <ele>489.2</ele>
        <time>2025-12-29T09:29:40Z</time>
      </trkpt>
      <trkpt lat="43.07085" lon="0.44087">
        <ele>489.2</ele>
        <time>2025-12-29T09:29:41Z</time>
      </trkpt>
      <trkpt lat="43.07088" lon="0.44086">
        <ele>489.8</ele>
        <time>2025-12-29T09:29:42Z</time>
      </trkpt>
      <trkpt lat="43.0709" lon="0.44085">
        <ele>489.8</ele>
        <time>2025-12-29T09:29:43Z</time>
      </trkpt>
      <trkpt lat="43.07093" lon="0.44084">
        <ele>489.8</ele>
        <time>2025-12-29T09:29:44Z</time>
      </trkpt>
      <trkpt lat="43.07096" lon="0.44082">
        <ele>489.8</ele>
        <time>2025-12-29T09:29:45Z</time>
      </trkpt>
      <trkpt lat="43.07099" lon="0.44081">
        <ele>489.8</ele>
        <time>2025-12-29T09:29:46Z</time>
      </trkpt>
      <trkpt lat="43.07102" lon="0.4408">
        <ele>489.8</ele>
        <time>2025-12-29T09:29:47Z</time>
      </trkpt>
      <trkpt lat="43.07105" lon="0.44079">
        <ele>489.8</ele>
        <time>2025-12-29T09:29:48Z</time>
      </trkpt>
      <trkpt lat="43.07108" lon="0.44078">
        <ele>489.8</ele>
        <time>2025-12-29T09:29:49Z</time>
      </trkpt>
      <trkpt lat="43.07111" lon="0.44077">
        <ele>490.6</ele>
        <time>2025-12-29T09:29:50Z</time>
      </trkpt>
      <trkpt lat="43.07114" lon="0.44076">
        <ele>490.6</ele>
        <time>2025-12-29T09:29:51Z</time>
      </trkpt>
      <trkpt lat="43.07118" lon="0.44075">
        <ele>490.6</ele>
        <time>2025-12-29T09:29:52Z</time>
      </trkpt>
      <trkpt lat="43.07121" lon="0.44073">
        <ele>490</ele>
        <time>2025-12-29T09:29:53Z</time>
      </trkpt>
      <trkpt lat="43.07124" lon="0.44072">
        <ele>490.2</ele>
        <time>2025-12-29T09:29:54Z</time>
      </trkpt>
      <trkpt lat="43.07128" lon="0.44071">
        <ele>490.2</ele>
        <time>2025-12-29T09:29:55Z</time>
      </trkpt>
      <trkpt lat="43.07131" lon="0.4407">
        <ele>490.2</ele>
        <time>2025-12-29T09:29:56Z</time>
      </trkpt>
      <trkpt lat="43.07134" lon="0.44068">
        <ele>490.2</ele>
        <time>2025-12-29T09:29:57Z</time>
      </trkpt>
      <trkpt lat="43.07138" lon="0.44067">
        <ele>490</ele>
        <time>2025-12-29T09:29:58Z</time>
      </trkpt>
      <trkpt lat="43.07142" lon="0.44065">
        <ele>490</ele>
        <time>2025-12-29T09:29:59Z</time>
      </trkpt>
      <trkpt lat="43.07146" lon="0.44064">
        <ele>490</ele>
        <time>2025-12-29T09:30:00Z</time>
      </trkpt>
      <trkpt lat="43.0715" lon="0.44062">
        <ele>490</ele>
        <time>2025-12-29T09:30:01Z</time>
      </trkpt>
      <trkpt lat="43.07154" lon="0.4406">
        <ele>489.2</ele>
        <time>2025-12-29T09:30:02Z</time>
      </trkpt>
      <trkpt lat="43.07158" lon="0.44058">
        <ele>489.2</ele>
        <time>2025-12-29T09:30:03Z</time>
      </trkpt>
      <trkpt lat="43.07163" lon="0.44056">
        <ele>489.2</ele>
        <time>2025-12-29T09:30:04Z</time>
      </trkpt>
      <trkpt lat="43.07168" lon="0.44054">
        <ele>488.2</ele>
        <time>2025-12-29T09:30:05Z</time>
      </trkpt>
      <trkpt lat="43.07174" lon="0.44051">
        <ele>488</ele>
        <time>2025-12-29T09:30:06Z</time>
      </trkpt>
      <trkpt lat="43.07179" lon="0.44049">
        <ele>488</ele>
        <time>2025-12-29T09:30:07Z</time>
      </trkpt>
      <trkpt lat="43.07184" lon="0.44047">
        <ele>488</ele>
        <time>2025-12-29T09:30:08Z</time>
      </trkpt>
      <trkpt lat="43.07189" lon="0.44045">
        <ele>488</ele>
        <time>2025-12-29T09:30:09Z</time>
      </trkpt>
      <trkpt lat="43.07193" lon="0.44043">
        <ele>488</ele>
        <time>2025-12-29T09:30:10Z</time>
      </trkpt>
      <trkpt lat="43.07198" lon="0.4404">
        <ele>488</ele>
        <time>2025-12-29T09:30:11Z</time>
      </trkpt>
      <trkpt lat="43.07203" lon="0.44038">
        <ele>488</ele>
        <time>2025-12-29T09:30:12Z</time>
      </trkpt>
      <trkpt lat="43.07207" lon="0.44036">
        <ele>488</ele>
        <time>2025-12-29T09:30:13Z</time>
      </trkpt>
      <trkpt lat="43.07212" lon="0.44034">
        <ele>488.2</ele>
        <time>2025-12-29T09:30:14Z</time>
      </trkpt>
      <trkpt lat="43.07216" lon="0.44032">
        <ele>488.2</ele>
        <time>2025-12-29T09:30:15Z</time>
      </trkpt>
      <trkpt lat="43.0722" lon="0.44031">
        <ele>488.2</ele>
        <time>2025-12-29T09:30:16Z</time>
      </trkpt>
      <trkpt lat="43.07224" lon="0.44029">
        <ele>488.2</ele>
        <time>2025-12-29T09:30:17Z</time>
      </trkpt>
      <trkpt lat="43.07228" lon="0.44027">
        <ele>488.8</ele>
        <time>2025-12-29T09:30:18Z</time>
      </trkpt>
      <trkpt lat="43.07232" lon="0.44026">
        <ele>488.8</ele>
        <time>2025-12-29T09:30:19Z</time>
      </trkpt>
      <trkpt lat="43.07236" lon="0.44024">
        <ele>488.8</ele>
        <time>2025-12-29T09:30:20Z</time>
      </trkpt>
      <trkpt lat="43.0724" lon="0.44022">
        <ele>488.8</ele>
        <time>2025-12-29T09:30:21Z</time>
      </trkpt>
      <trkpt lat="43.07243" lon="0.44021">
        <ele>488.4</ele>
        <time>2025-12-29T09:30:22Z</time>
      </trkpt>
      <trkpt lat="43.07247" lon="0.44019">
        <ele>488.4</ele>
        <time>2025-12-29T09:30:23Z</time>
      </trkpt>
      <trkpt lat="43.07251" lon="0.44017">
        <ele>488.4</ele>
        <time>2025-12-29T09:30:24Z</time>
      </trkpt>
      <trkpt lat="43.07254" lon="0.44016">
        <ele>489.2</ele>
        <time>2025-12-29T09:30:25Z</time>
      </trkpt>
      <trkpt lat="43.07258" lon="0.44014">
        <ele>489.4</ele>
        <time>2025-12-29T09:30:26Z</time>
      </trkpt>
      <trkpt lat="43.07261" lon="0.44013">
        <ele>489.4</ele>
        <time>2025-12-29T09:30:27Z</time>
      </trkpt>
      <trkpt lat="43.07265" lon="0.44011">
        <ele>489.4</ele>
        <time>2025-12-29T09:30:28Z</time>
      </trkpt>
      <trkpt lat="43.07269" lon="0.4401">
        <ele>489</ele>
        <time>2025-12-29T09:30:29Z</time>
      </trkpt>
      <trkpt lat="43.07272" lon="0.44009">
        <ele>488.8</ele>
        <time>2025-12-29T09:30:30Z</time>
      </trkpt>
      <trkpt lat="43.07276" lon="0.44007">
        <ele>488.8</ele>
        <time>2025-12-29T09:30:31Z</time>
      </trkpt>
      <trkpt lat="43.0728" lon="0.44006">
        <ele>488.8</ele>
        <time>2025-12-29T09:30:32Z</time>
      </trkpt>
      <trkpt lat="43.07284" lon="0.44006">
        <ele>488.8</ele>
        <time>2025-12-29T09:30:33Z</time>
      </trkpt>
      <trkpt lat="43.07287" lon="0.44005">
        <ele>489.4</ele>
        <time>2025-12-29T09:30:34Z</time>
      </trkpt>
      <trkpt lat="43.07291" lon="0.44005">
        <ele>489.4</ele>
        <time>2025-12-29T09:30:35Z</time>
      </trkpt>
      <trkpt lat="43.07294" lon="0.44005">
        <ele>489.4</ele>
        <time>2025-12-29T09:30:36Z</time>
      </trkpt>
      <trkpt lat="43.07298" lon="0.44005">
        <ele>489.4</ele>
        <time>2025-12-29T09:30:37Z</time>
      </trkpt>
      <trkpt lat="43.07301" lon="0.44005">
        <ele>489.4</ele>
        <time>2025-12-29T09:30:38Z</time>
      </trkpt>
      <trkpt lat="43.07304" lon="0.44006">
        <ele>489.4</ele>
        <time>2025-12-29T09:30:39Z</time>
      </trkpt>
      <trkpt lat="43.07308" lon="0.44007">
        <ele>489.4</ele>
        <time>2025-12-29T09:30:40Z</time>
      </trkpt>
      <trkpt lat="43.07312" lon="0.44008">
        <ele>489.8</ele>
        <time>2025-12-29T09:30:41Z</time>
      </trkpt>
      <trkpt lat="43.07315" lon="0.44009">
        <ele>489.8</ele>
        <time>2025-12-29T09:30:42Z</time>
      </trkpt>
      <trkpt lat="43.07319" lon="0.4401">
        <ele>489.8</ele>
        <time>2025-12-29T09:30:43Z</time>
      </trkpt>
      <trkpt lat="43.07323" lon="0.4401">
        <ele>489.8</ele>
        <time>2025-12-29T09:30:44Z</time>
      </trkpt>
      <trkpt lat="43.07326" lon="0.44011">
        <ele>489.8</ele>
        <time>2025-12-29T09:30:45Z</time>
      </trkpt>
      <trkpt lat="43.0733" lon="0.44012">
        <ele>489.8</ele>
        <time>2025-12-29T09:30:46Z</time>
      </trkpt>
      <trkpt lat="43.07334" lon="0.44013">
        <ele>489.8</ele>
        <time>2025-12-29T09:30:47Z</time>
      </trkpt>
      <trkpt lat="43.07337" lon="0.44013">
        <ele>489.8</ele>
        <time>2025-12-29T09:30:48Z</time>
      </trkpt>
      <trkpt lat="43.07341" lon="0.44014">
        <ele>489.8</ele>
        <time>2025-12-29T09:30:49Z</time>
      </trkpt>
      <trkpt lat="43.07345" lon="0.44015">
        <ele>490.4</ele>
        <time>2025-12-29T09:30:50Z</time>
      </trkpt>
      <trkpt lat="43.07348" lon="0.44015">
        <ele>490.4</ele>
        <time>2025-12-29T09:30:51Z</time>
      </trkpt>
      <trkpt lat="43.07351" lon="0.44016">
        <ele>490.4</ele>
        <time>2025-12-29T09:30:52Z</time>
      </trkpt>
      <trkpt lat="43.07355" lon="0.44017">
        <ele>490.4</ele>
        <time>2025-12-29T09:30:53Z</time>
      </trkpt>
      <trkpt lat="43.07358" lon="0.44017">
        <ele>490</ele>
        <time>2025-12-29T09:30:54Z</time>
      </trkpt>
      <trkpt lat="43.07362" lon="0.44018">
        <ele>490</ele>
        <time>2025-12-29T09:30:55Z</time>
      </trkpt>
      <trkpt lat="43.07365" lon="0.44018">
        <ele>490</ele>
        <time>2025-12-29T09:30:56Z</time>
      </trkpt>
      <trkpt lat="43.07368" lon="0.44019">
        <ele>490</ele>
        <time>2025-12-29T09:30:57Z</time>
      </trkpt>
      <trkpt lat="43.07372" lon="0.44019">
        <ele>490.8</ele>
        <time>2025-12-29T09:30:58Z</time>
      </trkpt>
      <trkpt lat="43.07375" lon="0.44019">
        <ele>490.8</ele>
        <time>2025-12-29T09:30:59Z</time>
      </trkpt>
      <trkpt lat="43.07379" lon="0.4402">
        <ele>490.8</ele>
        <time>2025-12-29T09:31:00Z</time>
      </trkpt>
      <trkpt lat="43.07382" lon="0.4402">
        <ele>491.2</ele>
        <time>2025-12-29T09:31:01Z</time>
      </trkpt>
      <trkpt lat="43.07386" lon="0.4402">
        <ele>491.2</ele>
        <time>2025-12-29T09:31:02Z</time>
      </trkpt>
      <trkpt lat="43.07389" lon="0.44021">
        <ele>491.2</ele>
        <time>2025-12-29T09:31:03Z</time>
      </trkpt>
      <trkpt lat="43.07393" lon="0.44021">
        <ele>491.2</ele>
        <time>2025-12-29T09:31:04Z</time>
      </trkpt>
      <trkpt lat="43.07396" lon="0.44021">
        <ele>491.2</ele>
        <time>2025-12-29T09:31:05Z</time>
      </trkpt>
      <trkpt lat="43.07399" lon="0.44021">
        <ele>491.4</ele>
        <time>2025-12-29T09:31:06Z</time>
      </trkpt>
      <trkpt lat="43.07403" lon="0.44021">
        <ele>491.4</ele>
        <time>2025-12-29T09:31:07Z</time>
      </trkpt>
      <trkpt lat="43.07406" lon="0.44022">
        <ele>491.4</ele>
        <time>2025-12-29T09:31:08Z</time>
      </trkpt>
      <trkpt lat="43.07409" lon="0.44022">
        <ele>491.6</ele>
        <time>2025-12-29T09:31:09Z</time>
      </trkpt>
      <trkpt lat="43.07412" lon="0.44022">
        <ele>491.6</ele>
        <time>2025-12-29T09:31:10Z</time>
      </trkpt>
      <trkpt lat="43.07416" lon="0.44022">
        <ele>491.6</ele>
        <time>2025-12-29T09:31:11Z</time>
      </trkpt>
      <trkpt lat="43.07419" lon="0.44022">
        <ele>491.6</ele>
        <time>2025-12-29T09:31:12Z</time>
      </trkpt>
      <trkpt lat="43.07423" lon="0.44023">
        <ele>491.6</ele>
        <time>2025-12-29T09:31:13Z</time>
      </trkpt>
      <trkpt lat="43.07426" lon="0.44023">
        <ele>492.2</ele>
        <time>2025-12-29T09:31:14Z</time>
      </trkpt>
      <trkpt lat="43.07429" lon="0.44023">
        <ele>492.2</ele>
        <time>2025-12-29T09:31:15Z</time>
      </trkpt>
      <trkpt lat="43.07433" lon="0.44023">
        <ele>492.2</ele>
        <time>2025-12-29T09:31:16Z</time>
      </trkpt>
      <trkpt lat="43.07436" lon="0.44023">
        <ele>492.2</ele>
        <time>2025-12-29T09:31:17Z</time>
      </trkpt>
      <trkpt lat="43.07439" lon="0.44022">
        <ele>493</ele>
        <time>2025-12-29T09:31:18Z</time>
      </trkpt>
      <trkpt lat="43.07442" lon="0.44023">
        <ele>493</ele>
        <time>2025-12-29T09:31:19Z</time>
      </trkpt>
      <trkpt lat="43.07445" lon="0.44022">
        <ele>493</ele>
        <time>2025-12-29T09:31:20Z</time>
      </trkpt>
      <trkpt lat="43.07447" lon="0.44022">
        <ele>492</ele>
        <time>2025-12-29T09:31:21Z</time>
      </trkpt>
      <trkpt lat="43.07449" lon="0.44021">
        <ele>493</ele>
        <time>2025-12-29T09:31:22Z</time>
      </trkpt>
      <trkpt lat="43.0745" lon="0.4402">
        <ele>493</ele>
        <time>2025-12-29T09:31:23Z</time>
      </trkpt>
      <trkpt lat="43.0745" lon="0.4402">
        <ele>493</ele>
        <time>2025-12-29T09:31:24Z</time>
      </trkpt>
      <trkpt lat="43.0745" lon="0.4402">
        <ele>493</ele>
        <time>2025-12-29T09:31:25Z</time>
      </trkpt>
      <trkpt lat="43.07455" lon="0.44019">
        <ele>493.2</ele>
        <time>2025-12-29T09:31:33Z</time>
      </trkpt>
      <trkpt lat="43.07457" lon="0.44018">
        <ele>493.2</ele>
        <time>2025-12-29T09:31:34Z</time>
      </trkpt>
      <trkpt lat="43.07459" lon="0.44016">
        <ele>493.2</ele>
        <time>2025-12-29T09:31:35Z</time>
      </trkpt>
      <trkpt lat="43.0746" lon="0.44014">
        <ele>493.2</ele>
        <time>2025-12-29T09:31:36Z</time>
      </trkpt>
      <trkpt lat="43.07462" lon="0.44012">
        <ele>493.6</ele>
        <time>2025-12-29T09:31:37Z</time>
      </trkpt>
      <trkpt lat="43.07464" lon="0.4401">
        <ele>493.2</ele>
        <time>2025-12-29T09:31:38Z</time>
      </trkpt>
      <trkpt lat="43.07466" lon="0.44007">
        <ele>493.2</ele>
        <time>2025-12-29T09:31:39Z</time>
      </trkpt>
      <trkpt lat="43.07467" lon="0.44004">
        <ele>493.2</ele>
        <time>2025-12-29T09:31:40Z</time>
      </trkpt>
      <trkpt lat="43.07469" lon="0.44">
        <ele>492.4</ele>
        <time>2025-12-29T09:31:41Z</time>
      </trkpt>
      <trkpt lat="43.07471" lon="0.43997">
        <ele>493</ele>
        <time>2025-12-29T09:31:42Z</time>
      </trkpt>
      <trkpt lat="43.07473" lon="0.43994">
        <ele>493</ele>
        <time>2025-12-29T09:31:43Z</time>
      </trkpt>
      <trkpt lat="43.07476" lon="0.43991">
        <ele>493</ele>
        <time>2025-12-29T09:31:44Z</time>
      </trkpt>
      <trkpt lat="43.07478" lon="0.43988">
        <ele>494</ele>
        <time>2025-12-29T09:31:45Z</time>
      </trkpt>
      <trkpt lat="43.0748" lon="0.43985">
        <ele>492.4</ele>
        <time>2025-12-29T09:31:46Z</time>
      </trkpt>
      <trkpt lat="43.07483" lon="0.43981">
        <ele>492.4</ele>
        <time>2025-12-29T09:31:47Z</time>
      </trkpt>
      <trkpt lat="43.07485" lon="0.43978">
        <ele>492.4</ele>
        <time>2025-12-29T09:31:48Z</time>
      </trkpt>
      <trkpt lat="43.07487" lon="0.43975">
        <ele>493.2</ele>
        <time>2025-12-29T09:31:49Z</time>
      </trkpt>
      <trkpt lat="43.0749" lon="0.43971">
        <ele>493</ele>
        <time>2025-12-29T09:31:50Z</time>
      </trkpt>
      <trkpt lat="43.07492" lon="0.43968">
        <ele>493</ele>
        <time>2025-12-29T09:31:51Z</time>
      </trkpt>
      <trkpt lat="43.07495" lon="0.43965">
        <ele>493</ele>
        <time>2025-12-29T09:31:52Z</time>
      </trkpt>
      <trkpt lat="43.07497" lon="0.43961">
        <ele>493.2</ele>
        <time>2025-12-29T09:31:53Z</time>
      </trkpt>
      <trkpt lat="43.07499" lon="0.43957">
        <ele>493.6</ele>
        <time>2025-12-29T09:31:54Z</time>
      </trkpt>
      <trkpt lat="43.07501" lon="0.43954">
        <ele>493.6</ele>
        <time>2025-12-29T09:31:55Z</time>
      </trkpt>
      <trkpt lat="43.07503" lon="0.4395">
        <ele>493.6</ele>
        <time>2025-12-29T09:31:56Z</time>
      </trkpt>
      <trkpt lat="43.07505" lon="0.43947">
        <ele>493.6</ele>
        <time>2025-12-29T09:31:57Z</time>
      </trkpt>
      <trkpt lat="43.07507" lon="0.43943">
        <ele>494.2</ele>
        <time>2025-12-29T09:31:58Z</time>
      </trkpt>
      <trkpt lat="43.0751" lon="0.4394">
        <ele>494.2</ele>
        <time>2025-12-29T09:31:59Z</time>
      </trkpt>
      <trkpt lat="43.07511" lon="0.43936">
        <ele>494.2</ele>
        <time>2025-12-29T09:32:00Z</time>
      </trkpt>
      <trkpt lat="43.07513" lon="0.43931">
        <ele>494.2</ele>
        <time>2025-12-29T09:32:01Z</time>
      </trkpt>
      <trkpt lat="43.07515" lon="0.43927">
        <ele>493.8</ele>
        <time>2025-12-29T09:32:02Z</time>
      </trkpt>
      <trkpt lat="43.07517" lon="0.43923">
        <ele>493.8</ele>
        <time>2025-12-29T09:32:03Z</time>
      </trkpt>
      <trkpt lat="43.07519" lon="0.43919">
        <ele>493.8</ele>
        <time>2025-12-29T09:32:04Z</time>
      </trkpt>
      <trkpt lat="43.07521" lon="0.43915">
        <ele>493.8</ele>
        <time>2025-12-29T09:32:05Z</time>
      </trkpt>
      <trkpt lat="43.07523" lon="0.43911">
        <ele>493.6</ele>
        <time>2025-12-29T09:32:06Z</time>
      </trkpt>
      <trkpt lat="43.07525" lon="0.43907">
        <ele>493.6</ele>
        <time>2025-12-29T09:32:07Z</time>
      </trkpt>
      <trkpt lat="43.07527" lon="0.43902">
        <ele>493.6</ele>
        <time>2025-12-29T09:32:08Z</time>
      </trkpt>
      <trkpt lat="43.07529" lon="0.43898">
        <ele>494.4</ele>
        <time>2025-12-29T09:32:09Z</time>
      </trkpt>
      <trkpt lat="43.07531" lon="0.43894">
        <ele>493.8</ele>
        <time>2025-12-29T09:32:10Z</time>
      </trkpt>
      <trkpt lat="43.07533" lon="0.4389">
        <ele>493.8</ele>
        <time>2025-12-29T09:32:11Z</time>
      </trkpt>
      <trkpt lat="43.07535" lon="0.43885">
        <ele>493.8</ele>
        <time>2025-12-29T09:32:12Z</time>
      </trkpt>
      <trkpt lat="43.07537" lon="0.43881">
        <ele>493.8</ele>
        <time>2025-12-29T09:32:13Z</time>
      </trkpt>
      <trkpt lat="43.07539" lon="0.43877">
        <ele>493.8</ele>
        <time>2025-12-29T09:32:14Z</time>
      </trkpt>
      <trkpt lat="43.07541" lon="0.43872">
        <ele>493.8</ele>
        <time>2025-12-29T09:32:15Z</time>
      </trkpt>
      <trkpt lat="43.07542" lon="0.43868">
        <ele>493.8</ele>
        <time>2025-12-29T09:32:16Z</time>
      </trkpt>
      <trkpt lat="43.07544" lon="0.43864">
        <ele>494.2</ele>
        <time>2025-12-29T09:32:17Z</time>
      </trkpt>
      <trkpt lat="43.07546" lon="0.4386">
        <ele>494.6</ele>
        <time>2025-12-29T09:32:18Z</time>
      </trkpt>
      <trkpt lat="43.07548" lon="0.43856">
        <ele>494.6</ele>
        <time>2025-12-29T09:32:19Z</time>
      </trkpt>
      <trkpt lat="43.0755" lon="0.43852">
        <ele>494.6</ele>
        <time>2025-12-29T09:32:20Z</time>
      </trkpt>
      <trkpt lat="43.07551" lon="0.43848">
        <ele>494.6</ele>
        <time>2025-12-29T09:32:21Z</time>
      </trkpt>
      <trkpt lat="43.07552" lon="0.43844">
        <ele>494.8</ele>
        <time>2025-12-29T09:32:22Z</time>
      </trkpt>
      <trkpt lat="43.07553" lon="0.43839">
        <ele>494.8</ele>
        <time>2025-12-29T09:32:23Z</time>
      </trkpt>
      <trkpt lat="43.07554" lon="0.43834">
        <ele>494.8</ele>
        <time>2025-12-29T09:32:24Z</time>
      </trkpt>
      <trkpt lat="43.07554" lon="0.43829">
        <ele>494.8</ele>
        <time>2025-12-29T09:32:25Z</time>
      </trkpt>
      <trkpt lat="43.07555" lon="0.43825">
        <ele>494.8</ele>
        <time>2025-12-29T09:32:26Z</time>
      </trkpt>
      <trkpt lat="43.07556" lon="0.4382">
        <ele>494.8</ele>
        <time>2025-12-29T09:32:27Z</time>
      </trkpt>
      <trkpt lat="43.07556" lon="0.43815">
        <ele>494.8</ele>
        <time>2025-12-29T09:32:28Z</time>
      </trkpt>
      <trkpt lat="43.07557" lon="0.4381">
        <ele>494.8</ele>
        <time>2025-12-29T09:32:29Z</time>
      </trkpt>
      <trkpt lat="43.07558" lon="0.43805">
        <ele>494.8</ele>
        <time>2025-12-29T09:32:30Z</time>
      </trkpt>
      <trkpt lat="43.07559" lon="0.43801">
        <ele>494.8</ele>
        <time>2025-12-29T09:32:31Z</time>
      </trkpt>
      <trkpt lat="43.0756" lon="0.43796">
        <ele>494.8</ele>
        <time>2025-12-29T09:32:32Z</time>
      </trkpt>
      <trkpt lat="43.07561" lon="0.43791">
        <ele>494.8</ele>
        <time>2025-12-29T09:32:33Z</time>
      </trkpt>
      <trkpt lat="43.07562" lon="0.43786">
        <ele>495.4</ele>
        <time>2025-12-29T09:32:34Z</time>
      </trkpt>
      <trkpt lat="43.07564" lon="0.43781">
        <ele>495.4</ele>
        <time>2025-12-29T09:32:35Z</time>
      </trkpt>
      <trkpt lat="43.07565" lon="0.43776">
        <ele>495.4</ele>
        <time>2025-12-29T09:32:36Z</time>
      </trkpt>
      <trkpt lat="43.07566" lon="0.43771">
        <ele>495.4</ele>
        <time>2025-12-29T09:32:37Z</time>
      </trkpt>
      <trkpt lat="43.07567" lon="0.43767">
        <ele>495.6</ele>
        <time>2025-12-29T09:32:38Z</time>
      </trkpt>
      <trkpt lat="43.07568" lon="0.43762">
        <ele>495.6</ele>
        <time>2025-12-29T09:32:39Z</time>
      </trkpt>
      <trkpt lat="43.07569" lon="0.43757">
        <ele>495.6</ele>
        <time>2025-12-29T09:32:40Z</time>
      </trkpt>
      <trkpt lat="43.0757" lon="0.43752">
        <ele>495.6</ele>
        <time>2025-12-29T09:32:41Z</time>
      </trkpt>
      <trkpt lat="43.07571" lon="0.43748">
        <ele>496</ele>
        <time>2025-12-29T09:32:42Z</time>
      </trkpt>
      <trkpt lat="43.07572" lon="0.43743">
        <ele>496</ele>
        <time>2025-12-29T09:32:43Z</time>
      </trkpt>
      <trkpt lat="43.07573" lon="0.43739">
        <ele>496</ele>
        <time>2025-12-29T09:32:44Z</time>
      </trkpt>
      <trkpt lat="43.07574" lon="0.43734">
        <ele>496</ele>
        <time>2025-12-29T09:32:45Z</time>
      </trkpt>
      <trkpt lat="43.07575" lon="0.4373">
        <ele>496.8</ele>
        <time>2025-12-29T09:32:46Z</time>
      </trkpt>
      <trkpt lat="43.07576" lon="0.43726">
        <ele>496.8</ele>
        <time>2025-12-29T09:32:47Z</time>
      </trkpt>
      <trkpt lat="43.07577" lon="0.43721">
        <ele>496.8</ele>
        <time>2025-12-29T09:32:48Z</time>
      </trkpt>
      <trkpt lat="43.07577" lon="0.43716">
        <ele>496.8</ele>
        <time>2025-12-29T09:32:49Z</time>
      </trkpt>
      <trkpt lat="43.07578" lon="0.43712">
        <ele>497.4</ele>
        <time>2025-12-29T09:32:50Z</time>
      </trkpt>
      <trkpt lat="43.07579" lon="0.43708">
        <ele>497.4</ele>
        <time>2025-12-29T09:32:51Z</time>
      </trkpt>
      <trkpt lat="43.0758" lon="0.43703">
        <ele>497.4</ele>
        <time>2025-12-29T09:32:52Z</time>
      </trkpt>
      <trkpt lat="43.07581" lon="0.43699">
        <ele>497.4</ele>
        <time>2025-12-29T09:32:53Z</time>
      </trkpt>
      <trkpt lat="43.07582" lon="0.43695">
        <ele>498.2</ele>
        <time>2025-12-29T09:32:54Z</time>
      </trkpt>
      <trkpt lat="43.07583" lon="0.43691">
        <ele>498.2</ele>
        <time>2025-12-29T09:32:55Z</time>
      </trkpt>
      <trkpt lat="43.07584" lon="0.43687">
        <ele>498.2</ele>
        <time>2025-12-29T09:32:56Z</time>
      </trkpt>
      <trkpt lat="43.07585" lon="0.43682">
        <ele>498.2</ele>
        <time>2025-12-29T09:32:57Z</time>
      </trkpt>
      <trkpt lat="43.07586" lon="0.43678">
        <ele>498.4</ele>
        <time>2025-12-29T09:32:58Z</time>
      </trkpt>
      <trkpt lat="43.07587" lon="0.43674">
        <ele>498.4</ele>
        <time>2025-12-29T09:32:59Z</time>
      </trkpt>
      <trkpt lat="43.07587" lon="0.4367">
        <ele>498.4</ele>
        <time>2025-12-29T09:33:00Z</time>
      </trkpt>
      <trkpt lat="43.07588" lon="0.43666">
        <ele>499.2</ele>
        <time>2025-12-29T09:33:01Z</time>
      </trkpt>
      <trkpt lat="43.07589" lon="0.43663">
        <ele>499.2</ele>
        <time>2025-12-29T09:33:02Z</time>
      </trkpt>
      <trkpt lat="43.07589" lon="0.43659">
        <ele>499.2</ele>
        <time>2025-12-29T09:33:03Z</time>
      </trkpt>
      <trkpt lat="43.0759" lon="0.43655">
        <ele>499.2</ele>
        <time>2025-12-29T09:33:04Z</time>
      </trkpt>
      <trkpt lat="43.0759" lon="0.43651">
        <ele>500</ele>
        <time>2025-12-29T09:33:05Z</time>
      </trkpt>
      <trkpt lat="43.07591" lon="0.43647">
        <ele>499.8</ele>
        <time>2025-12-29T09:33:06Z</time>
      </trkpt>
      <trkpt lat="43.07592" lon="0.43643">
        <ele>499.8</ele>
        <time>2025-12-29T09:33:07Z</time>
      </trkpt>
      <trkpt lat="43.07593" lon="0.43639">
        <ele>499.8</ele>
        <time>2025-12-29T09:33:08Z</time>
      </trkpt>
      <trkpt lat="43.07594" lon="0.43636">
        <ele>499.8</ele>
        <time>2025-12-29T09:33:09Z</time>
      </trkpt>
      <trkpt lat="43.07595" lon="0.43632">
        <ele>500.6</ele>
        <time>2025-12-29T09:33:10Z</time>
      </trkpt>
      <trkpt lat="43.07596" lon="0.43627">
        <ele>500.6</ele>
        <time>2025-12-29T09:33:11Z</time>
      </trkpt>
      <trkpt lat="43.07597" lon="0.43623">
        <ele>500.6</ele>
        <time>2025-12-29T09:33:12Z</time>
      </trkpt>
      <trkpt lat="43.07598" lon="0.43619">
        <ele>500.6</ele>
        <time>2025-12-29T09:33:13Z</time>
      </trkpt>
      <trkpt lat="43.07599" lon="0.43615">
        <ele>501.4</ele>
        <time>2025-12-29T09:33:14Z</time>
      </trkpt>
      <trkpt lat="43.07601" lon="0.43611">
        <ele>501.4</ele>
        <time>2025-12-29T09:33:15Z</time>
      </trkpt>
      <trkpt lat="43.07602" lon="0.43607">
        <ele>501.4</ele>
        <time>2025-12-29T09:33:16Z</time>
      </trkpt>
      <trkpt lat="43.07603" lon="0.43603">
        <ele>501.6</ele>
        <time>2025-12-29T09:33:17Z</time>
      </trkpt>
      <trkpt lat="43.07603" lon="0.43599">
        <ele>501.8</ele>
        <time>2025-12-29T09:33:18Z</time>
      </trkpt>
      <trkpt lat="43.07604" lon="0.43595">
        <ele>501.8</ele>
        <time>2025-12-29T09:33:19Z</time>
      </trkpt>
      <trkpt lat="43.07605" lon="0.43591">
        <ele>501.8</ele>
        <time>2025-12-29T09:33:20Z</time>
      </trkpt>
      <trkpt lat="43.07605" lon="0.43587">
        <ele>501.8</ele>
        <time>2025-12-29T09:33:21Z</time>
      </trkpt>
      <trkpt lat="43.07606" lon="0.43583">
        <ele>502.2</ele>
        <time>2025-12-29T09:33:22Z</time>
      </trkpt>
      <trkpt lat="43.07607" lon="0.4358">
        <ele>502.2</ele>
        <time>2025-12-29T09:33:23Z</time>
      </trkpt>
      <trkpt lat="43.07608" lon="0.43576">
        <ele>502.2</ele>
        <time>2025-12-29T09:33:24Z</time>
      </trkpt>
      <trkpt lat="43.07608" lon="0.43572">
        <ele>502.2</ele>
        <time>2025-12-29T09:33:25Z</time>
      </trkpt>
      <trkpt lat="43.07609" lon="0.43568">
        <ele>502.8</ele>
        <time>2025-12-29T09:33:26Z</time>
      </trkpt>
      <trkpt lat="43.0761" lon="0.43565">
        <ele>502.8</ele>
        <time>2025-12-29T09:33:27Z</time>
      </trkpt>
      <trkpt lat="43.07611" lon="0.43561">
        <ele>502.8</ele>
        <time>2025-12-29T09:33:28Z</time>
      </trkpt>
      <trkpt lat="43.07612" lon="0.43558">
        <ele>502.8</ele>
        <time>2025-12-29T09:33:29Z</time>
      </trkpt>
      <trkpt lat="43.07613" lon="0.43554">
        <ele>503.4</ele>
        <time>2025-12-29T09:33:30Z</time>
      </trkpt>
      <trkpt lat="43.07614" lon="0.4355">
        <ele>503.4</ele>
        <time>2025-12-29T09:33:31Z</time>
      </trkpt>
      <trkpt lat="43.07616" lon="0.43547">
        <ele>503.4</ele>
        <time>2025-12-29T09:33:32Z</time>
      </trkpt>
      <trkpt lat="43.07617" lon="0.43543">
        <ele>503.4</ele>
        <time>2025-12-29T09:33:33Z</time>
      </trkpt>
      <trkpt lat="43.07618" lon="0.4354">
        <ele>504.2</ele>
        <time>2025-12-29T09:33:34Z</time>
      </trkpt>
      <trkpt lat="43.07619" lon="0.43536">
        <ele>504.2</ele>
        <time>2025-12-29T09:33:35Z</time>
      </trkpt>
      <trkpt lat="43.07619" lon="0.43532">
        <ele>504.2</ele>
        <time>2025-12-29T09:33:36Z</time>
      </trkpt>
      <trkpt lat="43.0762" lon="0.43528">
        <ele>504.2</ele>
        <time>2025-12-29T09:33:37Z</time>
      </trkpt>
      <trkpt lat="43.07621" lon="0.43524">
        <ele>504.4</ele>
        <time>2025-12-29T09:33:38Z</time>
      </trkpt>
      <trkpt lat="43.07622" lon="0.43521">
        <ele>504.4</ele>
        <time>2025-12-29T09:33:39Z</time>
      </trkpt>
      <trkpt lat="43.07622" lon="0.43517">
        <ele>504.4</ele>
        <time>2025-12-29T09:33:40Z</time>
      </trkpt>
      <trkpt lat="43.07623" lon="0.43514">
        <ele>504.6</ele>
        <time>2025-12-29T09:33:41Z</time>
      </trkpt>
      <trkpt lat="43.07624" lon="0.43511">
        <ele>505.4</ele>
        <time>2025-12-29T09:33:42Z</time>
      </trkpt>
      <trkpt lat="43.07624" lon="0.43508">
        <ele>505.4</ele>
        <time>2025-12-29T09:33:43Z</time>
      </trkpt>
      <trkpt lat="43.07625" lon="0.43504">
        <ele>505.4</ele>
        <time>2025-12-29T09:33:44Z</time>
      </trkpt>
      <trkpt lat="43.07626" lon="0.43501">
        <ele>505.4</ele>
        <time>2025-12-29T09:33:45Z</time>
      </trkpt>
      <trkpt lat="43.07627" lon="0.43498">
        <ele>506</ele>
        <time>2025-12-29T09:33:46Z</time>
      </trkpt>
      <trkpt lat="43.07628" lon="0.43495">
        <ele>506</ele>
        <time>2025-12-29T09:33:47Z</time>
      </trkpt>
      <trkpt lat="43.07629" lon="0.43492">
        <ele>506</ele>
        <time>2025-12-29T09:33:48Z</time>
      </trkpt>
      <trkpt lat="43.0763" lon="0.43488">
        <ele>506.6</ele>
        <time>2025-12-29T09:33:49Z</time>
      </trkpt>
      <trkpt lat="43.07631" lon="0.43486">
        <ele>506.6</ele>
        <time>2025-12-29T09:33:50Z</time>
      </trkpt>
      <trkpt lat="43.07632" lon="0.43483">
        <ele>506.6</ele>
        <time>2025-12-29T09:33:51Z</time>
      </trkpt>
      <trkpt lat="43.07634" lon="0.43481">
        <ele>506.6</ele>
        <time>2025-12-29T09:33:52Z</time>
      </trkpt>
      <trkpt lat="43.07635" lon="0.43479">
        <ele>507</ele>
        <time>2025-12-29T09:33:53Z</time>
      </trkpt>
      <trkpt lat="43.07637" lon="0.43479">
        <ele>507.6</ele>
        <time>2025-12-29T09:33:54Z</time>
      </trkpt>
      <trkpt lat="43.07639" lon="0.43481">
        <ele>507.6</ele>
        <time>2025-12-29T09:33:55Z</time>
      </trkpt>
      <trkpt lat="43.0764" lon="0.43483">
        <ele>507.6</ele>
        <time>2025-12-29T09:33:56Z</time>
      </trkpt>
      <trkpt lat="43.0764" lon="0.43486">
        <ele>508</ele>
        <time>2025-12-29T09:33:57Z</time>
      </trkpt>
      <trkpt lat="43.0764" lon="0.43488">
        <ele>508</ele>
        <time>2025-12-29T09:33:58Z</time>
      </trkpt>
      <trkpt lat="43.0764" lon="0.43491">
        <ele>508</ele>
        <time>2025-12-29T09:33:59Z</time>
      </trkpt>
      <trkpt lat="43.0764" lon="0.43494">
        <ele>508</ele>
        <time>2025-12-29T09:34:00Z</time>
      </trkpt>
      <trkpt lat="43.0764" lon="0.43497">
        <ele>508.6</ele>
        <time>2025-12-29T09:34:01Z</time>
      </trkpt>
      <trkpt lat="43.07641" lon="0.435">
        <ele>508.8</ele>
        <time>2025-12-29T09:34:02Z</time>
      </trkpt>
      <trkpt lat="43.07641" lon="0.43502">
        <ele>508.8</ele>
        <time>2025-12-29T09:34:03Z</time>
      </trkpt>
      <trkpt lat="43.07642" lon="0.43505">
        <ele>508.8</ele>
        <time>2025-12-29T09:34:04Z</time>
      </trkpt>
      <trkpt lat="43.07642" lon="0.43508">
        <ele>509.8</ele>
        <time>2025-12-29T09:34:05Z</time>
      </trkpt>
      <trkpt lat="43.07643" lon="0.43511">
        <ele>510.2</ele>
        <time>2025-12-29T09:34:06Z</time>
      </trkpt>
      <trkpt lat="43.07643" lon="0.43513">
        <ele>510.2</ele>
        <time>2025-12-29T09:34:07Z</time>
      </trkpt>
      <trkpt lat="43.07644" lon="0.43516">
        <ele>510.2</ele>
        <time>2025-12-29T09:34:08Z</time>
      </trkpt>
      <trkpt lat="43.07645" lon="0.43518">
        <ele>510.2</ele>
        <time>2025-12-29T09:34:09Z</time>
      </trkpt>
      <trkpt lat="43.07646" lon="0.4352">
        <ele>510.2</ele>
        <time>2025-12-29T09:34:10Z</time>
      </trkpt>
      <trkpt lat="43.07646" lon="0.43522">
        <ele>510.2</ele>
        <time>2025-12-29T09:34:11Z</time>
      </trkpt>
      <trkpt lat="43.07647" lon="0.43525">
        <ele>510.2</ele>
        <time>2025-12-29T09:34:12Z</time>
      </trkpt>
      <trkpt lat="43.07648" lon="0.43527">
        <ele>511.2</ele>
        <time>2025-12-29T09:34:13Z</time>
      </trkpt>
      <trkpt lat="43.07648" lon="0.43529">
        <ele>511</ele>
        <time>2025-12-29T09:34:14Z</time>
      </trkpt>
      <trkpt lat="43.07649" lon="0.43532">
        <ele>511</ele>
        <time>2025-12-29T09:34:15Z</time>
      </trkpt>
      <trkpt lat="43.0765" lon="0.43534">
        <ele>511</ele>
        <time>2025-12-29T09:34:16Z</time>
      </trkpt>
      <trkpt lat="43.07651" lon="0.43537">
        <ele>511.8</ele>
        <time>2025-12-29T09:34:17Z</time>
      </trkpt>
      <trkpt lat="43.07651" lon="0.43539">
        <ele>512</ele>
        <time>2025-12-29T09:34:18Z</time>
      </trkpt>
      <trkpt lat="43.07652" lon="0.43542">
        <ele>512</ele>
        <time>2025-12-29T09:34:19Z</time>
      </trkpt>
      <trkpt lat="43.07653" lon="0.43545">
        <ele>512</ele>
        <time>2025-12-29T09:34:20Z</time>
      </trkpt>
      <trkpt lat="43.07654" lon="0.43547">
        <ele>512.6</ele>
        <time>2025-12-29T09:34:21Z</time>
      </trkpt>
      <trkpt lat="43.07655" lon="0.43549">
        <ele>512.8</ele>
        <time>2025-12-29T09:34:22Z</time>
      </trkpt>
      <trkpt lat="43.07655" lon="0.43552">
        <ele>512.8</ele>
        <time>2025-12-29T09:34:23Z</time>
      </trkpt>
      <trkpt lat="43.07656" lon="0.43554">
        <ele>512.8</ele>
        <time>2025-12-29T09:34:24Z</time>
      </trkpt>
      <trkpt lat="43.07657" lon="0.43557">
        <ele>512.8</ele>
        <time>2025-12-29T09:34:25Z</time>
      </trkpt>
      <trkpt lat="43.07658" lon="0.43559">
        <ele>513.4</ele>
        <time>2025-12-29T09:34:26Z</time>
      </trkpt>
      <trkpt lat="43.07659" lon="0.43562">
        <ele>513.4</ele>
        <time>2025-12-29T09:34:27Z</time>
      </trkpt>
      <trkpt lat="43.07659" lon="0.43564">
        <ele>513.4</ele>
        <time>2025-12-29T09:34:28Z</time>
      </trkpt>
      <trkpt lat="43.0766" lon="0.43567">
        <ele>513.4</ele>
        <time>2025-12-29T09:34:29Z</time>
      </trkpt>
      <trkpt lat="43.07661" lon="0.43569">
        <ele>514.8</ele>
        <time>2025-12-29T09:34:30Z</time>
      </trkpt>
      <trkpt lat="43.07662" lon="0.43571">
        <ele>514.8</ele>
        <time>2025-12-29T09:34:31Z</time>
      </trkpt>
      <trkpt lat="43.07663" lon="0.43574">
        <ele>514.8</ele>
        <time>2025-12-29T09:34:32Z</time>
      </trkpt>
      <trkpt lat="43.07664" lon="0.43576">
        <ele>514.6</ele>
        <time>2025-12-29T09:34:33Z</time>
      </trkpt>
      <trkpt lat="43.07664" lon="0.43578">
        <ele>514.8</ele>
        <time>2025-12-29T09:34:34Z</time>
      </trkpt>
      <trkpt lat="43.07665" lon="0.43581">
        <ele>514.8</ele>
        <time>2025-12-29T09:34:35Z</time>
      </trkpt>
      <trkpt lat="43.07666" lon="0.43584">
        <ele>514.8</ele>
        <time>2025-12-29T09:34:36Z</time>
      </trkpt>
      <trkpt lat="43.07666" lon="0.43586">
        <ele>515.4</ele>
        <time>2025-12-29T09:34:37Z</time>
      </trkpt>
      <trkpt lat="43.07667" lon="0.43589">
        <ele>515.6</ele>
        <time>2025-12-29T09:34:38Z</time>
      </trkpt>
      <trkpt lat="43.07668" lon="0.43591">
        <ele>515.6</ele>
        <time>2025-12-29T09:34:39Z</time>
      </trkpt>
      <trkpt lat="43.07669" lon="0.43593">
        <ele>515.6</ele>
        <time>2025-12-29T09:34:40Z</time>
      </trkpt>
      <trkpt lat="43.0767" lon="0.43596">
        <ele>516.6</ele>
        <time>2025-12-29T09:34:41Z</time>
      </trkpt>
      <trkpt lat="43.0767" lon="0.43598">
        <ele>516.2</ele>
        <time>2025-12-29T09:34:42Z</time>
      </trkpt>
      <trkpt lat="43.07671" lon="0.436">
        <ele>516.2</ele>
        <time>2025-12-29T09:34:43Z</time>
      </trkpt>
      <trkpt lat="43.07672" lon="0.43602">
        <ele>516.2</ele>
        <time>2025-12-29T09:34:44Z</time>
      </trkpt>
      <trkpt lat="43.07673" lon="0.43605">
        <ele>516.2</ele>
        <time>2025-12-29T09:34:45Z</time>
      </trkpt>
      <trkpt lat="43.07674" lon="0.43607">
        <ele>517.6</ele>
        <time>2025-12-29T09:34:46Z</time>
      </trkpt>
      <trkpt lat="43.07675" lon="0.43609">
        <ele>517.6</ele>
        <time>2025-12-29T09:34:47Z</time>
      </trkpt>
      <trkpt lat="43.07675" lon="0.43612">
        <ele>517.6</ele>
        <time>2025-12-29T09:34:48Z</time>
      </trkpt>
      <trkpt lat="43.07676" lon="0.43615">
        <ele>517.2</ele>
        <time>2025-12-29T09:34:49Z</time>
      </trkpt>
      <trkpt lat="43.07676" lon="0.43617">
        <ele>518</ele>
        <time>2025-12-29T09:34:50Z</time>
      </trkpt>
      <trkpt lat="43.07677" lon="0.43619">
        <ele>518</ele>
        <time>2025-12-29T09:34:51Z</time>
      </trkpt>
      <trkpt lat="43.07678" lon="0.4362">
        <ele>518</ele>
        <time>2025-12-29T09:34:52Z</time>
      </trkpt>
      <trkpt lat="43.07679" lon="0.43622">
        <ele>518</ele>
        <time>2025-12-29T09:34:53Z</time>
      </trkpt>
      <trkpt lat="43.0768" lon="0.43624">
        <ele>518.4</ele>
        <time>2025-12-29T09:34:54Z</time>
      </trkpt>
      <trkpt lat="43.0768" lon="0.43626">
        <ele>518.4</ele>
        <time>2025-12-29T09:34:55Z</time>
      </trkpt>
      <trkpt lat="43.07681" lon="0.43628">
        <ele>518.4</ele>
        <time>2025-12-29T09:34:56Z</time>
      </trkpt>
      <trkpt lat="43.07681" lon="0.43631">
        <ele>518.4</ele>
        <time>2025-12-29T09:34:57Z</time>
      </trkpt>
      <trkpt lat="43.07682" lon="0.43633">
        <ele>518.8</ele>
        <time>2025-12-29T09:34:58Z</time>
      </trkpt>
      <trkpt lat="43.07683" lon="0.43635">
        <ele>518.8</ele>
        <time>2025-12-29T09:34:59Z</time>
      </trkpt>
      <trkpt lat="43.07684" lon="0.43637">
        <ele>518.8</ele>
        <time>2025-12-29T09:35:00Z</time>
      </trkpt>
      <trkpt lat="43.07684" lon="0.43639">
        <ele>518.8</ele>
        <time>2025-12-29T09:35:01Z</time>
      </trkpt>
      <trkpt lat="43.07684" lon="0.43642">
        <ele>519.2</ele>
        <time>2025-12-29T09:35:02Z</time>
      </trkpt>
      <trkpt lat="43.07685" lon="0.43644">
        <ele>519.2</ele>
        <time>2025-12-29T09:35:03Z</time>
      </trkpt>
      <trkpt lat="43.07685" lon="0.43647">
        <ele>519.2</ele>
        <time>2025-12-29T09:35:04Z</time>
      </trkpt>
      <trkpt lat="43.07685" lon="0.43649">
        <ele>520</ele>
        <time>2025-12-29T09:35:05Z</time>
      </trkpt>
      <trkpt lat="43.07686" lon="0.43651">
        <ele>519.4</ele>
        <time>2025-12-29T09:35:06Z</time>
      </trkpt>
      <trkpt lat="43.07686" lon="0.43653">
        <ele>519.4</ele>
        <time>2025-12-29T09:35:07Z</time>
      </trkpt>
      <trkpt lat="43.07686" lon="0.43655">
        <ele>519.4</ele>
        <time>2025-12-29T09:35:08Z</time>
      </trkpt>
      <trkpt lat="43.07686" lon="0.43657">
        <ele>520.2</ele>
        <time>2025-12-29T09:35:09Z</time>
      </trkpt>
      <trkpt lat="43.07686" lon="0.43659">
        <ele>521</ele>
        <time>2025-12-29T09:35:10Z</time>
      </trkpt>
      <trkpt lat="43.07686" lon="0.43662">
        <ele>521</ele>
        <time>2025-12-29T09:35:11Z</time>
      </trkpt>
      <trkpt lat="43.07686" lon="0.43664">
        <ele>521</ele>
        <time>2025-12-29T09:35:12Z</time>
      </trkpt>
      <trkpt lat="43.07687" lon="0.43666">
        <ele>521</ele>
        <time>2025-12-29T09:35:13Z</time>
      </trkpt>
      <trkpt lat="43.07687" lon="0.43669">
        <ele>521</ele>
        <time>2025-12-29T09:35:14Z</time>
      </trkpt>
      <trkpt lat="43.07687" lon="0.43672">
        <ele>521</ele>
        <time>2025-12-29T09:35:15Z</time>
      </trkpt>
      <trkpt lat="43.07687" lon="0.43674">
        <ele>521</ele>
        <time>2025-12-29T09:35:16Z</time>
      </trkpt>
      <trkpt lat="43.07687" lon="0.43676">
        <ele>521.2</ele>
        <time>2025-12-29T09:35:17Z</time>
      </trkpt>
      <trkpt lat="43.07687" lon="0.43678">
        <ele>521.4</ele>
        <time>2025-12-29T09:35:18Z</time>
      </trkpt>
      <trkpt lat="43.07687" lon="0.43681">
        <ele>521.4</ele>
        <time>2025-12-29T09:35:19Z</time>
      </trkpt>
      <trkpt lat="43.07687" lon="0.43683">
        <ele>521.4</ele>
        <time>2025-12-29T09:35:20Z</time>
      </trkpt>
      <trkpt lat="43.07687" lon="0.43685">
        <ele>522.4</ele>
        <time>2025-12-29T09:35:21Z</time>
      </trkpt>
      <trkpt lat="43.07688" lon="0.43687">
        <ele>522.6</ele>
        <time>2025-12-29T09:35:22Z</time>
      </trkpt>
      <trkpt lat="43.07688" lon="0.4369">
        <ele>522.6</ele>
        <time>2025-12-29T09:35:23Z</time>
      </trkpt>
      <trkpt lat="43.07689" lon="0.43693">
        <ele>522.6</ele>
        <time>2025-12-29T09:35:24Z</time>
      </trkpt>
      <trkpt lat="43.07689" lon="0.43696">
        <ele>522.6</ele>
        <time>2025-12-29T09:35:25Z</time>
      </trkpt>
      <trkpt lat="43.07689" lon="0.43698">
        <ele>523.2</ele>
        <time>2025-12-29T09:35:26Z</time>
      </trkpt>
      <trkpt lat="43.07689" lon="0.437">
        <ele>523.2</ele>
        <time>2025-12-29T09:35:27Z</time>
      </trkpt>
      <trkpt lat="43.0769" lon="0.43702">
        <ele>523.2</ele>
        <time>2025-12-29T09:35:28Z</time>
      </trkpt>
      <trkpt lat="43.0769" lon="0.43705">
        <ele>523.2</ele>
        <time>2025-12-29T09:35:29Z</time>
      </trkpt>
      <trkpt lat="43.0769" lon="0.43708">
        <ele>523.4</ele>
        <time>2025-12-29T09:35:30Z</time>
      </trkpt>
      <trkpt lat="43.07691" lon="0.4371">
        <ele>523.4</ele>
        <time>2025-12-29T09:35:31Z</time>
      </trkpt>
      <trkpt lat="43.07691" lon="0.43713">
        <ele>523.4</ele>
        <time>2025-12-29T09:35:32Z</time>
      </trkpt>
      <trkpt lat="43.07691" lon="0.43716">
        <ele>523.4</ele>
        <time>2025-12-29T09:35:33Z</time>
      </trkpt>
      <trkpt lat="43.07692" lon="0.43718">
        <ele>524.4</ele>
        <time>2025-12-29T09:35:34Z</time>
      </trkpt>
      <trkpt lat="43.07693" lon="0.43721">
        <ele>524.4</ele>
        <time>2025-12-29T09:35:35Z</time>
      </trkpt>
      <trkpt lat="43.07693" lon="0.43724">
        <ele>524.4</ele>
        <time>2025-12-29T09:35:36Z</time>
      </trkpt>
      <trkpt lat="43.07694" lon="0.43727">
        <ele>524.4</ele>
        <time>2025-12-29T09:35:37Z</time>
      </trkpt>
      <trkpt lat="43.07695" lon="0.4373">
        <ele>524.4</ele>
        <time>2025-12-29T09:35:38Z</time>
      </trkpt>
      <trkpt lat="43.07695" lon="0.43732">
        <ele>524.4</ele>
        <time>2025-12-29T09:35:39Z</time>
      </trkpt>
      <trkpt lat="43.07696" lon="0.43735">
        <ele>524.4</ele>
        <time>2025-12-29T09:35:40Z</time>
      </trkpt>
      <trkpt lat="43.07696" lon="0.43737">
        <ele>525.4</ele>
        <time>2025-12-29T09:35:41Z</time>
      </trkpt>
      <trkpt lat="43.07697" lon="0.4374">
        <ele>525.2</ele>
        <time>2025-12-29T09:35:42Z</time>
      </trkpt>
      <trkpt lat="43.07698" lon="0.43742">
        <ele>525.2</ele>
        <time>2025-12-29T09:35:43Z</time>
      </trkpt>
      <trkpt lat="43.07698" lon="0.43745">
        <ele>525.2</ele>
        <time>2025-12-29T09:35:44Z</time>
      </trkpt>
      <trkpt lat="43.07699" lon="0.43748">
        <ele>525.8</ele>
        <time>2025-12-29T09:35:45Z</time>
      </trkpt>
      <trkpt lat="43.07699" lon="0.4375">
        <ele>525.6</ele>
        <time>2025-12-29T09:35:46Z</time>
      </trkpt>
      <trkpt lat="43.077" lon="0.43753">
        <ele>525.6</ele>
        <time>2025-12-29T09:35:47Z</time>
      </trkpt>
      <trkpt lat="43.07701" lon="0.43756">
        <ele>525.6</ele>
        <time>2025-12-29T09:35:48Z</time>
      </trkpt>
      <trkpt lat="43.07701" lon="0.43758">
        <ele>526.2</ele>
        <time>2025-12-29T09:35:49Z</time>
      </trkpt>
      <trkpt lat="43.07702" lon="0.4376">
        <ele>526.4</ele>
        <time>2025-12-29T09:35:50Z</time>
      </trkpt>
      <trkpt lat="43.07703" lon="0.43763">
        <ele>526.4</ele>
        <time>2025-12-29T09:35:51Z</time>
      </trkpt>
      <trkpt lat="43.07703" lon="0.43765">
        <ele>526.4</ele>
        <time>2025-12-29T09:35:52Z</time>
      </trkpt>
      <trkpt lat="43.07705" lon="0.43767">
        <ele>527.4</ele>
        <time>2025-12-29T09:35:53Z</time>
      </trkpt>
      <trkpt lat="43.07706" lon="0.43769">
        <ele>527.2</ele>
        <time>2025-12-29T09:35:54Z</time>
      </trkpt>
      <trkpt lat="43.07707" lon="0.43771">
        <ele>527.2</ele>
        <time>2025-12-29T09:35:55Z</time>
      </trkpt>
      <trkpt lat="43.07709" lon="0.43773">
        <ele>527.2</ele>
        <time>2025-12-29T09:35:56Z</time>
      </trkpt>
      <trkpt lat="43.0771" lon="0.43775">
        <ele>527.2</ele>
        <time>2025-12-29T09:35:57Z</time>
      </trkpt>
      <trkpt lat="43.07712" lon="0.43777">
        <ele>527.6</ele>
        <time>2025-12-29T09:35:58Z</time>
      </trkpt>
      <trkpt lat="43.07713" lon="0.4378">
        <ele>527.6</ele>
        <time>2025-12-29T09:35:59Z</time>
      </trkpt>
      <trkpt lat="43.07714" lon="0.43782">
        <ele>527.6</ele>
        <time>2025-12-29T09:36:00Z</time>
      </trkpt>
      <trkpt lat="43.07716" lon="0.43784">
        <ele>527.6</ele>
        <time>2025-12-29T09:36:01Z</time>
      </trkpt>
      <trkpt lat="43.07717" lon="0.43786">
        <ele>528</ele>
        <time>2025-12-29T09:36:02Z</time>
      </trkpt>
      <trkpt lat="43.07719" lon="0.43788">
        <ele>528</ele>
        <time>2025-12-29T09:36:03Z</time>
      </trkpt>
      <trkpt lat="43.0772" lon="0.4379">
        <ele>528</ele>
        <time>2025-12-29T09:36:04Z</time>
      </trkpt>
      <trkpt lat="43.07722" lon="0.43791">
        <ele>527.8</ele>
        <time>2025-12-29T09:36:05Z</time>
      </trkpt>
      <trkpt lat="43.07723" lon="0.43793">
        <ele>528</ele>
        <time>2025-12-29T09:36:06Z</time>
      </trkpt>
      <trkpt lat="43.07725" lon="0.43794">
        <ele>528</ele>
        <time>2025-12-29T09:36:07Z</time>
      </trkpt>
      <trkpt lat="43.07726" lon="0.43796">
        <ele>528</ele>
        <time>2025-12-29T09:36:08Z</time>
      </trkpt>
      <trkpt lat="43.07728" lon="0.43797">
        <ele>528</ele>
        <time>2025-12-29T09:36:09Z</time>
      </trkpt>
      <trkpt lat="43.07729" lon="0.43799">
        <ele>528.6</ele>
        <time>2025-12-29T09:36:10Z</time>
      </trkpt>
      <trkpt lat="43.0773" lon="0.43801">
        <ele>528.6</ele>
        <time>2025-12-29T09:36:11Z</time>
      </trkpt>
      <trkpt lat="43.07732" lon="0.43802">
        <ele>528.6</ele>
        <time>2025-12-29T09:36:12Z</time>
      </trkpt>
      <trkpt lat="43.07733" lon="0.43804">
        <ele>529.6</ele>
        <time>2025-12-29T09:36:13Z</time>
      </trkpt>
      <trkpt lat="43.07735" lon="0.43806">
        <ele>529.4</ele>
        <time>2025-12-29T09:36:14Z</time>
      </trkpt>
      <trkpt lat="43.07736" lon="0.43807">
        <ele>529.4</ele>
        <time>2025-12-29T09:36:15Z</time>
      </trkpt>
      <trkpt lat="43.07738" lon="0.43809">
        <ele>529.4</ele>
        <time>2025-12-29T09:36:16Z</time>
      </trkpt>
      <trkpt lat="43.07739" lon="0.4381">
        <ele>530</ele>
        <time>2025-12-29T09:36:17Z</time>
      </trkpt>
      <trkpt lat="43.0774" lon="0.43812">
        <ele>530.4</ele>
        <time>2025-12-29T09:36:18Z</time>
      </trkpt>
      <trkpt lat="43.07741" lon="0.43813">
        <ele>530.4</ele>
        <time>2025-12-29T09:36:19Z</time>
      </trkpt>
      <trkpt lat="43.07743" lon="0.43814">
        <ele>530.4</ele>
        <time>2025-12-29T09:36:20Z</time>
      </trkpt>
      <trkpt lat="43.07744" lon="0.43816">
        <ele>531</ele>
        <time>2025-12-29T09:36:21Z</time>
      </trkpt>
      <trkpt lat="43.07745" lon="0.43817">
        <ele>531.4</ele>
        <time>2025-12-29T09:36:22Z</time>
      </trkpt>
      <trkpt lat="43.07747" lon="0.43819">
        <ele>531.4</ele>
        <time>2025-12-29T09:36:23Z</time>
      </trkpt>
      <trkpt lat="43.07748" lon="0.4382">
        <ele>531.4</ele>
        <time>2025-12-29T09:36:24Z</time>
      </trkpt>
      <trkpt lat="43.07749" lon="0.43821">
        <ele>531.4</ele>
        <time>2025-12-29T09:36:25Z</time>
      </trkpt>
      <trkpt lat="43.07751" lon="0.43822">
        <ele>532.6</ele>
        <time>2025-12-29T09:36:26Z</time>
      </trkpt>
      <trkpt lat="43.07753" lon="0.43823">
        <ele>532.6</ele>
        <time>2025-12-29T09:36:27Z</time>
      </trkpt>
      <trkpt lat="43.07754" lon="0.43824">
        <ele>532.6</ele>
        <time>2025-12-29T09:36:28Z</time>
      </trkpt>
      <trkpt lat="43.07755" lon="0.43826">
        <ele>532.6</ele>
        <time>2025-12-29T09:36:29Z</time>
      </trkpt>
      <trkpt lat="43.07756" lon="0.43827">
        <ele>532.8</ele>
        <time>2025-12-29T09:36:30Z</time>
      </trkpt>
      <trkpt lat="43.07758" lon="0.43829">
        <ele>532.8</ele>
        <time>2025-12-29T09:36:31Z</time>
      </trkpt>
      <trkpt lat="43.07759" lon="0.4383">
        <ele>532.8</ele>
        <time>2025-12-29T09:36:32Z</time>
      </trkpt>
      <trkpt lat="43.07761" lon="0.43831">
        <ele>533.2</ele>
        <time>2025-12-29T09:36:33Z</time>
      </trkpt>
      <trkpt lat="43.07762" lon="0.43832">
        <ele>533.6</ele>
        <time>2025-12-29T09:36:34Z</time>
      </trkpt>
      <trkpt lat="43.07764" lon="0.43833">
        <ele>533.6</ele>
        <time>2025-12-29T09:36:35Z</time>
      </trkpt>
      <trkpt lat="43.07765" lon="0.43835">
        <ele>533.6</ele>
        <time>2025-12-29T09:36:36Z</time>
      </trkpt>
      <trkpt lat="43.07767" lon="0.43836">
        <ele>533.6</ele>
        <time>2025-12-29T09:36:37Z</time>
      </trkpt>
      <trkpt lat="43.07768" lon="0.43837">
        <ele>534.2</ele>
        <time>2025-12-29T09:36:38Z</time>
      </trkpt>
      <trkpt lat="43.0777" lon="0.43838">
        <ele>534.2</ele>
        <time>2025-12-29T09:36:39Z</time>
      </trkpt>
      <trkpt lat="43.07771" lon="0.43839">
        <ele>534.2</ele>
        <time>2025-12-29T09:36:40Z</time>
      </trkpt>
      <trkpt lat="43.07773" lon="0.4384">
        <ele>534.2</ele>
        <time>2025-12-29T09:36:41Z</time>
      </trkpt>
      <trkpt lat="43.07774" lon="0.43841">
        <ele>534.8</ele>
        <time>2025-12-29T09:36:42Z</time>
      </trkpt>
      <trkpt lat="43.07775" lon="0.43841">
        <ele>534.8</ele>
        <time>2025-12-29T09:36:43Z</time>
      </trkpt>
      <trkpt lat="43.07777" lon="0.43842">
        <ele>534.8</ele>
        <time>2025-12-29T09:36:44Z</time>
      </trkpt>
      <trkpt lat="43.07779" lon="0.43843">
        <ele>534.8</ele>
        <time>2025-12-29T09:36:45Z</time>
      </trkpt>
      <trkpt lat="43.0778" lon="0.43844">
        <ele>535</ele>
        <time>2025-12-29T09:36:46Z</time>
      </trkpt>
      <trkpt lat="43.07782" lon="0.43845">
        <ele>535</ele>
        <time>2025-12-29T09:36:47Z</time>
      </trkpt>
      <trkpt lat="43.07783" lon="0.43845">
        <ele>535</ele>
        <time>2025-12-29T09:36:48Z</time>
      </trkpt>
      <trkpt lat="43.07785" lon="0.43845">
        <ele>535.6</ele>
        <time>2025-12-29T09:36:49Z</time>
      </trkpt>
      <trkpt lat="43.07787" lon="0.43846">
        <ele>535.8</ele>
        <time>2025-12-29T09:36:50Z</time>
      </trkpt>
      <trkpt lat="43.07788" lon="0.43846">
        <ele>535.8</ele>
        <time>2025-12-29T09:36:51Z</time>
      </trkpt>
      <trkpt lat="43.0779" lon="0.43846">
        <ele>535.8</ele>
        <time>2025-12-29T09:36:52Z</time>
      </trkpt>
      <trkpt lat="43.07792" lon="0.43847">
        <ele>535.8</ele>
        <time>2025-12-29T09:36:53Z</time>
      </trkpt>
      <trkpt lat="43.07793" lon="0.43847">
        <ele>536</ele>
        <time>2025-12-29T09:36:54Z</time>
      </trkpt>
      <trkpt lat="43.07795" lon="0.43847">
        <ele>536</ele>
        <time>2025-12-29T09:36:55Z</time>
      </trkpt>
      <trkpt lat="43.07797" lon="0.43847">
        <ele>536</ele>
        <time>2025-12-29T09:36:56Z</time>
      </trkpt>
      <trkpt lat="43.07799" lon="0.43847">
        <ele>536</ele>
        <time>2025-12-29T09:36:57Z</time>
      </trkpt>
      <trkpt lat="43.078" lon="0.43848">
        <ele>536</ele>
        <time>2025-12-29T09:36:58Z</time>
      </trkpt>
      <trkpt lat="43.07802" lon="0.43848">
        <ele>536</ele>
        <time>2025-12-29T09:36:59Z</time>
      </trkpt>
      <trkpt lat="43.07804" lon="0.43848">
        <ele>536</ele>
        <time>2025-12-29T09:37:00Z</time>
      </trkpt>
      <trkpt lat="43.07806" lon="0.43849">
        <ele>536</ele>
        <time>2025-12-29T09:37:01Z</time>
      </trkpt>
      <trkpt lat="43.07808" lon="0.43849">
        <ele>536.2</ele>
        <time>2025-12-29T09:37:02Z</time>
      </trkpt>
      <trkpt lat="43.0781" lon="0.43849">
        <ele>536.2</ele>
        <time>2025-12-29T09:37:03Z</time>
      </trkpt>
      <trkpt lat="43.07813" lon="0.43849">
        <ele>536.2</ele>
        <time>2025-12-29T09:37:04Z</time>
      </trkpt>
      <trkpt lat="43.07815" lon="0.43849">
        <ele>536.4</ele>
        <time>2025-12-29T09:37:05Z</time>
      </trkpt>
      <trkpt lat="43.07817" lon="0.43849">
        <ele>536.6</ele>
        <time>2025-12-29T09:37:06Z</time>
      </trkpt>
      <trkpt lat="43.07819" lon="0.43849">
        <ele>536.6</ele>
        <time>2025-12-29T09:37:07Z</time>
      </trkpt>
      <trkpt lat="43.07822" lon="0.43849">
        <ele>536.6</ele>
        <time>2025-12-29T09:37:08Z</time>
      </trkpt>
      <trkpt lat="43.07824" lon="0.43849">
        <ele>536.8</ele>
        <time>2025-12-29T09:37:09Z</time>
      </trkpt>
      <trkpt lat="43.07827" lon="0.43849">
        <ele>536.6</ele>
        <time>2025-12-29T09:37:10Z</time>
      </trkpt>
      <trkpt lat="43.07829" lon="0.43849">
        <ele>536.6</ele>
        <time>2025-12-29T09:37:11Z</time>
      </trkpt>
      <trkpt lat="43.07832" lon="0.43849">
        <ele>536.6</ele>
        <time>2025-12-29T09:37:12Z</time>
      </trkpt>
      <trkpt lat="43.07834" lon="0.43849">
        <ele>537</ele>
        <time>2025-12-29T09:37:13Z</time>
      </trkpt>
      <trkpt lat="43.07837" lon="0.43849">
        <ele>537</ele>
        <time>2025-12-29T09:37:14Z</time>
      </trkpt>
      <trkpt lat="43.0784" lon="0.43849">
        <ele>537</ele>
        <time>2025-12-29T09:37:15Z</time>
      </trkpt>
      <trkpt lat="43.07842" lon="0.43848">
        <ele>537</ele>
        <time>2025-12-29T09:37:16Z</time>
      </trkpt>
      <trkpt lat="43.07844" lon="0.43848">
        <ele>537</ele>
        <time>2025-12-29T09:37:17Z</time>
      </trkpt>
      <trkpt lat="43.07847" lon="0.43846">
        <ele>536.6</ele>
        <time>2025-12-29T09:37:18Z</time>
      </trkpt>
      <trkpt lat="43.07849" lon="0.43845">
        <ele>536.6</ele>
        <time>2025-12-29T09:37:19Z</time>
      </trkpt>
      <trkpt lat="43.07851" lon="0.43843">
        <ele>536.6</ele>
        <time>2025-12-29T09:37:20Z</time>
      </trkpt>
      <trkpt lat="43.07853" lon="0.43841">
        <ele>536.6</ele>
        <time>2025-12-29T09:37:21Z</time>
      </trkpt>
      <trkpt lat="43.07855" lon="0.43839">
        <ele>536.8</ele>
        <time>2025-12-29T09:37:22Z</time>
      </trkpt>
      <trkpt lat="43.07857" lon="0.43837">
        <ele>536.8</ele>
        <time>2025-12-29T09:37:23Z</time>
      </trkpt>
      <trkpt lat="43.07859" lon="0.43835">
        <ele>536.8</ele>
        <time>2025-12-29T09:37:24Z</time>
      </trkpt>
      <trkpt lat="43.07861" lon="0.43832">
        <ele>536.8</ele>
        <time>2025-12-29T09:37:25Z</time>
      </trkpt>
      <trkpt lat="43.07863" lon="0.4383">
        <ele>537.4</ele>
        <time>2025-12-29T09:37:26Z</time>
      </trkpt>
      <trkpt lat="43.07865" lon="0.43827">
        <ele>537.4</ele>
        <time>2025-12-29T09:37:27Z</time>
      </trkpt>
      <trkpt lat="43.07867" lon="0.43825">
        <ele>537.4</ele>
        <time>2025-12-29T09:37:28Z</time>
      </trkpt>
      <trkpt lat="43.07869" lon="0.43824">
        <ele>537.4</ele>
        <time>2025-12-29T09:37:29Z</time>
      </trkpt>
      <trkpt lat="43.07872" lon="0.43823">
        <ele>537.4</ele>
        <time>2025-12-29T09:37:30Z</time>
      </trkpt>
      <trkpt lat="43.07874" lon="0.43822">
        <ele>537.4</ele>
        <time>2025-12-29T09:37:31Z</time>
      </trkpt>
      <trkpt lat="43.07877" lon="0.43822">
        <ele>537.4</ele>
        <time>2025-12-29T09:37:32Z</time>
      </trkpt>
      <trkpt lat="43.07879" lon="0.43822">
        <ele>537.4</ele>
        <time>2025-12-29T09:37:33Z</time>
      </trkpt>
      <trkpt lat="43.07882" lon="0.43823">
        <ele>537.8</ele>
        <time>2025-12-29T09:37:34Z</time>
      </trkpt>
      <trkpt lat="43.07884" lon="0.43824">
        <ele>537.8</ele>
        <time>2025-12-29T09:37:35Z</time>
      </trkpt>
      <trkpt lat="43.07886" lon="0.43826">
        <ele>537.8</ele>
        <time>2025-12-29T09:37:36Z</time>
      </trkpt>
      <trkpt lat="43.07888" lon="0.43828">
        <ele>538</ele>
        <time>2025-12-29T09:37:37Z</time>
      </trkpt>
      <trkpt lat="43.07891" lon="0.4383">
        <ele>537.2</ele>
        <time>2025-12-29T09:37:38Z</time>
      </trkpt>
      <trkpt lat="43.07892" lon="0.43832">
        <ele>537.2</ele>
        <time>2025-12-29T09:37:39Z</time>
      </trkpt>
      <trkpt lat="43.07894" lon="0.43834">
        <ele>537.2</ele>
        <time>2025-12-29T09:37:40Z</time>
      </trkpt>
      <trkpt lat="43.07895" lon="0.43836">
        <ele>537.2</ele>
        <time>2025-12-29T09:37:41Z</time>
      </trkpt>
      <trkpt lat="43.07897" lon="0.43838">
        <ele>538.8</ele>
        <time>2025-12-29T09:37:42Z</time>
      </trkpt>
      <trkpt lat="43.07898" lon="0.4384">
        <ele>538.8</ele>
        <time>2025-12-29T09:37:43Z</time>
      </trkpt>
      <trkpt lat="43.07899" lon="0.43841">
        <ele>538.8</ele>
        <time>2025-12-29T09:37:44Z</time>
      </trkpt>
      <trkpt lat="43.07901" lon="0.43843">
        <ele>538.4</ele>
        <time>2025-12-29T09:37:45Z</time>
      </trkpt>
      <trkpt lat="43.07903" lon="0.43845">
        <ele>538.8</ele>
        <time>2025-12-29T09:37:46Z</time>
      </trkpt>
      <trkpt lat="43.07905" lon="0.43847">
        <ele>538.8</ele>
        <time>2025-12-29T09:37:47Z</time>
      </trkpt>
      <trkpt lat="43.07907" lon="0.43849">
        <ele>538.8</ele>
        <time>2025-12-29T09:37:48Z</time>
      </trkpt>
      <trkpt lat="43.07909" lon="0.43851">
        <ele>538.8</ele>
        <time>2025-12-29T09:37:49Z</time>
      </trkpt>
      <trkpt lat="43.07911" lon="0.43853">
        <ele>538.4</ele>
        <time>2025-12-29T09:37:50Z</time>
      </trkpt>
      <trkpt lat="43.07912" lon="0.43855">
        <ele>538.4</ele>
        <time>2025-12-29T09:37:51Z</time>
      </trkpt>
      <trkpt lat="43.07914" lon="0.43857">
        <ele>538.4</ele>
        <time>2025-12-29T09:37:52Z</time>
      </trkpt>
      <trkpt lat="43.07916" lon="0.43859">
        <ele>539.4</ele>
        <time>2025-12-29T09:37:53Z</time>
      </trkpt>
      <trkpt lat="43.07918" lon="0.43861">
        <ele>539.2</ele>
        <time>2025-12-29T09:37:54Z</time>
      </trkpt>
      <trkpt lat="43.0792" lon="0.43863">
        <ele>539.2</ele>
        <time>2025-12-29T09:37:55Z</time>
      </trkpt>
      <trkpt lat="43.07921" lon="0.43865">
        <ele>539.2</ele>
        <time>2025-12-29T09:37:56Z</time>
      </trkpt>
      <trkpt lat="43.07923" lon="0.43867">
        <ele>539.8</ele>
        <time>2025-12-29T09:37:57Z</time>
      </trkpt>
      <trkpt lat="43.07925" lon="0.43869">
        <ele>539.8</ele>
        <time>2025-12-29T09:37:58Z</time>
      </trkpt>
      <trkpt lat="43.07927" lon="0.4387">
        <ele>539.8</ele>
        <time>2025-12-29T09:37:59Z</time>
      </trkpt>
      <trkpt lat="43.07929" lon="0.43872">
        <ele>539.8</ele>
        <time>2025-12-29T09:38:00Z</time>
      </trkpt>
      <trkpt lat="43.07931" lon="0.43874">
        <ele>540.8</ele>
        <time>2025-12-29T09:38:01Z</time>
      </trkpt>
      <trkpt lat="43.07933" lon="0.43875">
        <ele>540.8</ele>
        <time>2025-12-29T09:38:02Z</time>
      </trkpt>
      <trkpt lat="43.07935" lon="0.43877">
        <ele>540.8</ele>
        <time>2025-12-29T09:38:03Z</time>
      </trkpt>
      <trkpt lat="43.07937" lon="0.43879">
        <ele>540.8</ele>
        <time>2025-12-29T09:38:04Z</time>
      </trkpt>
      <trkpt lat="43.07939" lon="0.4388">
        <ele>540.8</ele>
        <time>2025-12-29T09:38:05Z</time>
      </trkpt>
      <trkpt lat="43.07941" lon="0.43882">
        <ele>541</ele>
        <time>2025-12-29T09:38:06Z</time>
      </trkpt>
      <trkpt lat="43.07943" lon="0.43883">
        <ele>541</ele>
        <time>2025-12-29T09:38:07Z</time>
      </trkpt>
      <trkpt lat="43.07945" lon="0.43885">
        <ele>541</ele>
        <time>2025-12-29T09:38:08Z</time>
      </trkpt>
      <trkpt lat="43.07947" lon="0.43886">
        <ele>542</ele>
        <time>2025-12-29T09:38:09Z</time>
      </trkpt>
      <trkpt lat="43.07949" lon="0.43887">
        <ele>541.4</ele>
        <time>2025-12-29T09:38:10Z</time>
      </trkpt>
      <trkpt lat="43.07952" lon="0.43889">
        <ele>541.4</ele>
        <time>2025-12-29T09:38:11Z</time>
      </trkpt>
      <trkpt lat="43.07954" lon="0.4389">
        <ele>541.4</ele>
        <time>2025-12-29T09:38:12Z</time>
      </trkpt>
      <trkpt lat="43.07956" lon="0.43891">
        <ele>542.4</ele>
        <time>2025-12-29T09:38:13Z</time>
      </trkpt>
      <trkpt lat="43.07958" lon="0.43892">
        <ele>541.8</ele>
        <time>2025-12-29T09:38:14Z</time>
      </trkpt>
      <trkpt lat="43.07961" lon="0.43893">
        <ele>541.8</ele>
        <time>2025-12-29T09:38:15Z</time>
      </trkpt>
      <trkpt lat="43.07963" lon="0.43894">
        <ele>541.8</ele>
        <time>2025-12-29T09:38:16Z</time>
      </trkpt>
      <trkpt lat="43.07966" lon="0.43894">
        <ele>542.4</ele>
        <time>2025-12-29T09:38:17Z</time>
      </trkpt>
      <trkpt lat="43.07968" lon="0.43895">
        <ele>542</ele>
        <time>2025-12-29T09:38:18Z</time>
      </trkpt>
      <trkpt lat="43.07971" lon="0.43895">
        <ele>542</ele>
        <time>2025-12-29T09:38:19Z</time>
      </trkpt>
      <trkpt lat="43.07973" lon="0.43896">
        <ele>542</ele>
        <time>2025-12-29T09:38:20Z</time>
      </trkpt>
      <trkpt lat="43.07976" lon="0.43897">
        <ele>543</ele>
        <time>2025-12-29T09:38:21Z</time>
      </trkpt>
      <trkpt lat="43.07979" lon="0.43897">
        <ele>542.4</ele>
        <time>2025-12-29T09:38:22Z</time>
      </trkpt>
      <trkpt lat="43.07981" lon="0.43898">
        <ele>542.4</ele>
        <time>2025-12-29T09:38:23Z</time>
      </trkpt>
      <trkpt lat="43.07984" lon="0.43898">
        <ele>542.4</ele>
        <time>2025-12-29T09:38:24Z</time>
      </trkpt>
      <trkpt lat="43.07987" lon="0.43899">
        <ele>542.4</ele>
        <time>2025-12-29T09:38:25Z</time>
      </trkpt>
      <trkpt lat="43.0799" lon="0.43899">
        <ele>542.4</ele>
        <time>2025-12-29T09:38:26Z</time>
      </trkpt>
      <trkpt lat="43.07992" lon="0.439">
        <ele>542.4</ele>
        <time>2025-12-29T09:38:27Z</time>
      </trkpt>
      <trkpt lat="43.07995" lon="0.439">
        <ele>542.4</ele>
        <time>2025-12-29T09:38:28Z</time>
      </trkpt>
      <trkpt lat="43.07998" lon="0.43901">
        <ele>543</ele>
        <time>2025-12-29T09:38:29Z</time>
      </trkpt>
      <trkpt lat="43.08" lon="0.43902">
        <ele>542.8</ele>
        <time>2025-12-29T09:38:30Z</time>
      </trkpt>
      <trkpt lat="43.08003" lon="0.43903">
        <ele>542.8</ele>
        <time>2025-12-29T09:38:31Z</time>
      </trkpt>
      <trkpt lat="43.08006" lon="0.43904">
        <ele>542.8</ele>
        <time>2025-12-29T09:38:32Z</time>
      </trkpt>
      <trkpt lat="43.0801" lon="0.43905">
        <ele>542.8</ele>
        <time>2025-12-29T09:38:33Z</time>
      </trkpt>
      <trkpt lat="43.08013" lon="0.43905">
        <ele>543.2</ele>
        <time>2025-12-29T09:38:34Z</time>
      </trkpt>
      <trkpt lat="43.08016" lon="0.43906">
        <ele>543.2</ele>
        <time>2025-12-29T09:38:35Z</time>
      </trkpt>
      <trkpt lat="43.08019" lon="0.43907">
        <ele>543.2</ele>
        <time>2025-12-29T09:38:36Z</time>
      </trkpt>
      <trkpt lat="43.08022" lon="0.43908">
        <ele>543.2</ele>
        <time>2025-12-29T09:38:37Z</time>
      </trkpt>
      <trkpt lat="43.08024" lon="0.43908">
        <ele>543.2</ele>
        <time>2025-12-29T09:38:38Z</time>
      </trkpt>
      <trkpt lat="43.08027" lon="0.43909">
        <ele>543.2</ele>
        <time>2025-12-29T09:38:39Z</time>
      </trkpt>
      <trkpt lat="43.08031" lon="0.4391">
        <ele>543.2</ele>
        <time>2025-12-29T09:38:40Z</time>
      </trkpt>
      <trkpt lat="43.08034" lon="0.4391">
        <ele>543.2</ele>
        <time>2025-12-29T09:38:41Z</time>
      </trkpt>
      <trkpt lat="43.08037" lon="0.43911">
        <ele>543.6</ele>
        <time>2025-12-29T09:38:42Z</time>
      </trkpt>
      <trkpt lat="43.08041" lon="0.43912">
        <ele>543.6</ele>
        <time>2025-12-29T09:38:43Z</time>
      </trkpt>
      <trkpt lat="43.08044" lon="0.43913">
        <ele>543.6</ele>
        <time>2025-12-29T09:38:44Z</time>
      </trkpt>
      <trkpt lat="43.08047" lon="0.43914">
        <ele>543.4</ele>
        <time>2025-12-29T09:38:45Z</time>
      </trkpt>
      <trkpt lat="43.08051" lon="0.43914">
        <ele>543.4</ele>
        <time>2025-12-29T09:38:46Z</time>
      </trkpt>
      <trkpt lat="43.08054" lon="0.43915">
        <ele>543.4</ele>
        <time>2025-12-29T09:38:47Z</time>
      </trkpt>
      <trkpt lat="43.08057" lon="0.43916">
        <ele>543.4</ele>
        <time>2025-12-29T09:38:48Z</time>
      </trkpt>
      <trkpt lat="43.0806" lon="0.43916">
        <ele>543.4</ele>
        <time>2025-12-29T09:38:49Z</time>
      </trkpt>
      <trkpt lat="43.08063" lon="0.43917">
        <ele>543</ele>
        <time>2025-12-29T09:38:50Z</time>
      </trkpt>
      <trkpt lat="43.08066" lon="0.43918">
        <ele>543</ele>
        <time>2025-12-29T09:38:51Z</time>
      </trkpt>
      <trkpt lat="43.0807" lon="0.43919">
        <ele>543</ele>
        <time>2025-12-29T09:38:52Z</time>
      </trkpt>
      <trkpt lat="43.08073" lon="0.4392">
        <ele>543</ele>
        <time>2025-12-29T09:38:53Z</time>
      </trkpt>
      <trkpt lat="43.08076" lon="0.4392">
        <ele>543.4</ele>
        <time>2025-12-29T09:38:54Z</time>
      </trkpt>
      <trkpt lat="43.0808" lon="0.43921">
        <ele>543.4</ele>
        <time>2025-12-29T09:38:55Z</time>
      </trkpt>
      <trkpt lat="43.08083" lon="0.43922">
        <ele>543.4</ele>
        <time>2025-12-29T09:38:56Z</time>
      </trkpt>
      <trkpt lat="43.08087" lon="0.43923">
        <ele>542.8</ele>
        <time>2025-12-29T09:38:57Z</time>
      </trkpt>
      <trkpt lat="43.0809" lon="0.43924">
        <ele>543.2</ele>
        <time>2025-12-29T09:38:58Z</time>
      </trkpt>
      <trkpt lat="43.08093" lon="0.43925">
        <ele>543.2</ele>
        <time>2025-12-29T09:38:59Z</time>
      </trkpt>
      <trkpt lat="43.08097" lon="0.43926">
        <ele>543.2</ele>
        <time>2025-12-29T09:39:00Z</time>
      </trkpt>
      <trkpt lat="43.081" lon="0.43927">
        <ele>543.2</ele>
        <time>2025-12-29T09:39:01Z</time>
      </trkpt>
      <trkpt lat="43.08103" lon="0.43928">
        <ele>543.4</ele>
        <time>2025-12-29T09:39:02Z</time>
      </trkpt>
      <trkpt lat="43.08107" lon="0.43929">
        <ele>543.4</ele>
        <time>2025-12-29T09:39:03Z</time>
      </trkpt>
      <trkpt lat="43.0811" lon="0.4393">
        <ele>543.4</ele>
        <time>2025-12-29T09:39:04Z</time>
      </trkpt>
      <trkpt lat="43.08114" lon="0.43932">
        <ele>543.4</ele>
        <time>2025-12-29T09:39:05Z</time>
      </trkpt>
      <trkpt lat="43.08117" lon="0.43932">
        <ele>543.4</ele>
        <time>2025-12-29T09:39:06Z</time>
      </trkpt>
      <trkpt lat="43.0812" lon="0.43933">
        <ele>543.4</ele>
        <time>2025-12-29T09:39:07Z</time>
      </trkpt>
      <trkpt lat="43.08124" lon="0.43934">
        <ele>543.4</ele>
        <time>2025-12-29T09:39:08Z</time>
      </trkpt>
      <trkpt lat="43.08127" lon="0.43935">
        <ele>543.4</ele>
        <time>2025-12-29T09:39:09Z</time>
      </trkpt>
      <trkpt lat="43.0813" lon="0.43936">
        <ele>543.2</ele>
        <time>2025-12-29T09:39:10Z</time>
      </trkpt>
      <trkpt lat="43.08134" lon="0.43937">
        <ele>543.2</ele>
        <time>2025-12-29T09:39:11Z</time>
      </trkpt>
      <trkpt lat="43.08137" lon="0.43938">
        <ele>543.2</ele>
        <time>2025-12-29T09:39:12Z</time>
      </trkpt>
      <trkpt lat="43.0814" lon="0.43938">
        <ele>543.4</ele>
        <time>2025-12-29T09:39:13Z</time>
      </trkpt>
      <trkpt lat="43.08144" lon="0.43939">
        <ele>544.2</ele>
        <time>2025-12-29T09:39:14Z</time>
      </trkpt>
      <trkpt lat="43.08147" lon="0.4394">
        <ele>544.2</ele>
        <time>2025-12-29T09:39:15Z</time>
      </trkpt>
      <trkpt lat="43.0815" lon="0.43941">
        <ele>544.2</ele>
        <time>2025-12-29T09:39:16Z</time>
      </trkpt>
      <trkpt lat="43.08153" lon="0.43942">
        <ele>544.2</ele>
        <time>2025-12-29T09:39:17Z</time>
      </trkpt>
      <trkpt lat="43.08157" lon="0.43943">
        <ele>544</ele>
        <time>2025-12-29T09:39:18Z</time>
      </trkpt>
      <trkpt lat="43.0816" lon="0.43944">
        <ele>544</ele>
        <time>2025-12-29T09:39:19Z</time>
      </trkpt>
      <trkpt lat="43.08164" lon="0.43945">
        <ele>544</ele>
        <time>2025-12-29T09:39:20Z</time>
      </trkpt>
      <trkpt lat="43.08167" lon="0.43946">
        <ele>544</ele>
        <time>2025-12-29T09:39:21Z</time>
      </trkpt>
      <trkpt lat="43.0817" lon="0.43947">
        <ele>544.6</ele>
        <time>2025-12-29T09:39:22Z</time>
      </trkpt>
      <trkpt lat="43.08174" lon="0.43948">
        <ele>544.6</ele>
        <time>2025-12-29T09:39:23Z</time>
      </trkpt>
      <trkpt lat="43.08177" lon="0.43948">
        <ele>544.6</ele>
        <time>2025-12-29T09:39:24Z</time>
      </trkpt>
      <trkpt lat="43.0818" lon="0.43949">
        <ele>544.6</ele>
        <time>2025-12-29T09:39:25Z</time>
      </trkpt>
      <trkpt lat="43.08184" lon="0.4395">
        <ele>543.4</ele>
        <time>2025-12-29T09:39:26Z</time>
      </trkpt>
      <trkpt lat="43.08188" lon="0.43951">
        <ele>543.4</ele>
        <time>2025-12-29T09:39:27Z</time>
      </trkpt>
      <trkpt lat="43.08191" lon="0.43952">
        <ele>543.4</ele>
        <time>2025-12-29T09:39:28Z</time>
      </trkpt>
      <trkpt lat="43.08195" lon="0.43952">
        <ele>544.2</ele>
        <time>2025-12-29T09:39:29Z</time>
      </trkpt>
      <trkpt lat="43.08198" lon="0.43953">
        <ele>545.2</ele>
        <time>2025-12-29T09:39:30Z</time>
      </trkpt>
      <trkpt lat="43.08202" lon="0.43954">
        <ele>545.2</ele>
        <time>2025-12-29T09:39:31Z</time>
      </trkpt>
      <trkpt lat="43.08205" lon="0.43955">
        <ele>545.2</ele>
        <time>2025-12-29T09:39:32Z</time>
      </trkpt>
      <trkpt lat="43.08209" lon="0.43956">
        <ele>544.2</ele>
        <time>2025-12-29T09:39:33Z</time>
      </trkpt>
      <trkpt lat="43.08213" lon="0.43956">
        <ele>544.8</ele>
        <time>2025-12-29T09:39:34Z</time>
      </trkpt>
      <trkpt lat="43.08216" lon="0.43957">
        <ele>544.8</ele>
        <time>2025-12-29T09:39:35Z</time>
      </trkpt>
      <trkpt lat="43.0822" lon="0.43957">
        <ele>544.8</ele>
        <time>2025-12-29T09:39:36Z</time>
      </trkpt>
      <trkpt lat="43.08223" lon="0.43958">
        <ele>544.8</ele>
        <time>2025-12-29T09:39:37Z</time>
      </trkpt>
      <trkpt lat="43.08227" lon="0.43959">
        <ele>544.2</ele>
        <time>2025-12-29T09:39:38Z</time>
      </trkpt>
      <trkpt lat="43.08231" lon="0.43959">
        <ele>544.2</ele>
        <time>2025-12-29T09:39:39Z</time>
      </trkpt>
      <trkpt lat="43.08235" lon="0.4396">
        <ele>544.2</ele>
        <time>2025-12-29T09:39:40Z</time>
      </trkpt>
      <trkpt lat="43.08239" lon="0.4396">
        <ele>544.8</ele>
        <time>2025-12-29T09:39:41Z</time>
      </trkpt>
      <trkpt lat="43.08242" lon="0.43961">
        <ele>544.8</ele>
        <time>2025-12-29T09:39:42Z</time>
      </trkpt>
      <trkpt lat="43.08246" lon="0.43961">
        <ele>544.8</ele>
        <time>2025-12-29T09:39:43Z</time>
      </trkpt>
      <trkpt lat="43.0825" lon="0.43962">
        <ele>544.8</ele>
        <time>2025-12-29T09:39:44Z</time>
      </trkpt>
      <trkpt lat="43.08253" lon="0.43962">
        <ele>544.8</ele>
        <time>2025-12-29T09:39:45Z</time>
      </trkpt>
      <trkpt lat="43.08257" lon="0.43963">
        <ele>544.6</ele>
        <time>2025-12-29T09:39:46Z</time>
      </trkpt>
      <trkpt lat="43.08261" lon="0.43963">
        <ele>544.6</ele>
        <time>2025-12-29T09:39:47Z</time>
      </trkpt>
      <trkpt lat="43.08265" lon="0.43964">
        <ele>544.6</ele>
        <time>2025-12-29T09:39:48Z</time>
      </trkpt>
      <trkpt lat="43.08269" lon="0.43964">
        <ele>544.6</ele>
        <time>2025-12-29T09:39:49Z</time>
      </trkpt>
      <trkpt lat="43.08273" lon="0.43965">
        <ele>544.4</ele>
        <time>2025-12-29T09:39:50Z</time>
      </trkpt>
      <trkpt lat="43.08277" lon="0.43965">
        <ele>544.4</ele>
        <time>2025-12-29T09:39:51Z</time>
      </trkpt>
      <trkpt lat="43.08281" lon="0.43966">
        <ele>544.4</ele>
        <time>2025-12-29T09:39:52Z</time>
      </trkpt>
      <trkpt lat="43.08285" lon="0.43966">
        <ele>544.4</ele>
        <time>2025-12-29T09:39:53Z</time>
      </trkpt>
      <trkpt lat="43.08289" lon="0.43967">
        <ele>544.2</ele>
        <time>2025-12-29T09:39:54Z</time>
      </trkpt>
      <trkpt lat="43.08293" lon="0.43967">
        <ele>544.2</ele>
        <time>2025-12-29T09:39:55Z</time>
      </trkpt>
      <trkpt lat="43.08297" lon="0.43968">
        <ele>544.2</ele>
        <time>2025-12-29T09:39:56Z</time>
      </trkpt>
      <trkpt lat="43.08301" lon="0.43968">
        <ele>544.2</ele>
        <time>2025-12-29T09:39:57Z</time>
      </trkpt>
      <trkpt lat="43.08305" lon="0.43968">
        <ele>544.6</ele>
        <time>2025-12-29T09:39:58Z</time>
      </trkpt>
      <trkpt lat="43.08309" lon="0.43969">
        <ele>544.6</ele>
        <time>2025-12-29T09:39:59Z</time>
      </trkpt>
      <trkpt lat="43.08313" lon="0.43969">
        <ele>544.6</ele>
        <time>2025-12-29T09:40:00Z</time>
      </trkpt>
      <trkpt lat="43.08316" lon="0.4397">
        <ele>544</ele>
        <time>2025-12-29T09:40:01Z</time>
      </trkpt>
      <trkpt lat="43.0832" lon="0.4397">
        <ele>543.8</ele>
        <time>2025-12-29T09:40:02Z</time>
      </trkpt>
      <trkpt lat="43.08324" lon="0.4397">
        <ele>543.8</ele>
        <time>2025-12-29T09:40:03Z</time>
      </trkpt>
      <trkpt lat="43.08328" lon="0.43971">
        <ele>543.8</ele>
        <time>2025-12-29T09:40:04Z</time>
      </trkpt>
      <trkpt lat="43.08332" lon="0.43971">
        <ele>543.8</ele>
        <time>2025-12-29T09:40:05Z</time>
      </trkpt>
      <trkpt lat="43.08336" lon="0.43971">
        <ele>544</ele>
        <time>2025-12-29T09:40:06Z</time>
      </trkpt>
      <trkpt lat="43.0834" lon="0.43972">
        <ele>544</ele>
        <time>2025-12-29T09:40:07Z</time>
      </trkpt>
      <trkpt lat="43.08344" lon="0.43972">
        <ele>544</ele>
        <time>2025-12-29T09:40:08Z</time>
      </trkpt>
      <trkpt lat="43.08348" lon="0.43972">
        <ele>544</ele>
        <time>2025-12-29T09:40:09Z</time>
      </trkpt>
      <trkpt lat="43.08352" lon="0.43973">
        <ele>543.4</ele>
        <time>2025-12-29T09:40:10Z</time>
      </trkpt>
      <trkpt lat="43.08356" lon="0.43973">
        <ele>543.4</ele>
        <time>2025-12-29T09:40:11Z</time>
      </trkpt>
      <trkpt lat="43.0836" lon="0.43973">
        <ele>543.4</ele>
        <time>2025-12-29T09:40:12Z</time>
      </trkpt>
      <trkpt lat="43.08364" lon="0.43974">
        <ele>542.8</ele>
        <time>2025-12-29T09:40:13Z</time>
      </trkpt>
      <trkpt lat="43.08368" lon="0.43974">
        <ele>542.4</ele>
        <time>2025-12-29T09:40:14Z</time>
      </trkpt>
      <trkpt lat="43.08372" lon="0.43975">
        <ele>542.4</ele>
        <time>2025-12-29T09:40:15Z</time>
      </trkpt>
      <trkpt lat="43.08376" lon="0.43975">
        <ele>542.4</ele>
        <time>2025-12-29T09:40:16Z</time>
      </trkpt>
      <trkpt lat="43.0838" lon="0.43975">
        <ele>543</ele>
        <time>2025-12-29T09:40:17Z</time>
      </trkpt>
      <trkpt lat="43.08385" lon="0.43975">
        <ele>543.2</ele>
        <time>2025-12-29T09:40:18Z</time>
      </trkpt>
      <trkpt lat="43.08389" lon="0.43976">
        <ele>543.2</ele>
        <time>2025-12-29T09:40:19Z</time>
      </trkpt>
      <trkpt lat="43.08394" lon="0.43976">
        <ele>543.2</ele>
        <time>2025-12-29T09:40:20Z</time>
      </trkpt>
      <trkpt lat="43.08399" lon="0.43977">
        <ele>542.4</ele>
        <time>2025-12-29T09:40:21Z</time>
      </trkpt>
      <trkpt lat="43.08404" lon="0.43977">
        <ele>541.4</ele>
        <time>2025-12-29T09:40:22Z</time>
      </trkpt>
      <trkpt lat="43.08409" lon="0.43978">
        <ele>541.4</ele>
        <time>2025-12-29T09:40:23Z</time>
      </trkpt>
      <trkpt lat="43.08414" lon="0.43978">
        <ele>541.4</ele>
        <time>2025-12-29T09:40:24Z</time>
      </trkpt>
      <trkpt lat="43.0842" lon="0.43979">
        <ele>541.4</ele>
        <time>2025-12-29T09:40:25Z</time>
      </trkpt>
      <trkpt lat="43.08425" lon="0.43979">
        <ele>541.2</ele>
        <time>2025-12-29T09:40:26Z</time>
      </trkpt>
      <trkpt lat="43.08431" lon="0.4398">
        <ele>541.2</ele>
        <time>2025-12-29T09:40:27Z</time>
      </trkpt>
      <trkpt lat="43.08436" lon="0.4398">
        <ele>541.2</ele>
        <time>2025-12-29T09:40:28Z</time>
      </trkpt>
      <trkpt lat="43.08442" lon="0.4398">
        <ele>540.2</ele>
        <time>2025-12-29T09:40:29Z</time>
      </trkpt>
      <trkpt lat="43.08448" lon="0.43981">
        <ele>540.4</ele>
        <time>2025-12-29T09:40:30Z</time>
      </trkpt>
      <trkpt lat="43.08454" lon="0.43982">
        <ele>540.4</ele>
        <time>2025-12-29T09:40:31Z</time>
      </trkpt>
      <trkpt lat="43.0846" lon="0.43982">
        <ele>540.4</ele>
        <time>2025-12-29T09:40:32Z</time>
      </trkpt>
      <trkpt lat="43.08466" lon="0.43983">
        <ele>539.4</ele>
        <time>2025-12-29T09:40:33Z</time>
      </trkpt>
      <trkpt lat="43.08472" lon="0.43983">
        <ele>538</ele>
        <time>2025-12-29T09:40:34Z</time>
      </trkpt>
      <trkpt lat="43.08478" lon="0.43984">
        <ele>538</ele>
        <time>2025-12-29T09:40:35Z</time>
      </trkpt>
      <trkpt lat="43.08483" lon="0.43984">
        <ele>538</ele>
        <time>2025-12-29T09:40:36Z</time>
      </trkpt>
      <trkpt lat="43.08489" lon="0.43985">
        <ele>538.6</ele>
        <time>2025-12-29T09:40:37Z</time>
      </trkpt>
      <trkpt lat="43.08495" lon="0.43985">
        <ele>538.6</ele>
        <time>2025-12-29T09:40:38Z</time>
      </trkpt>
      <trkpt lat="43.085" lon="0.43985">
        <ele>538.6</ele>
        <time>2025-12-29T09:40:39Z</time>
      </trkpt>
      <trkpt lat="43.08506" lon="0.43986">
        <ele>538.6</ele>
        <time>2025-12-29T09:40:40Z</time>
      </trkpt>
      <trkpt lat="43.08511" lon="0.43986">
        <ele>538.6</ele>
        <time>2025-12-29T09:40:41Z</time>
      </trkpt>
      <trkpt lat="43.08516" lon="0.43987">
        <ele>538.8</ele>
        <time>2025-12-29T09:40:42Z</time>
      </trkpt>
      <trkpt lat="43.08522" lon="0.43988">
        <ele>538.8</ele>
        <time>2025-12-29T09:40:43Z</time>
      </trkpt>
      <trkpt lat="43.08527" lon="0.43988">
        <ele>538.8</ele>
        <time>2025-12-29T09:40:44Z</time>
      </trkpt>
      <trkpt lat="43.08532" lon="0.43989">
        <ele>538.8</ele>
        <time>2025-12-29T09:40:45Z</time>
      </trkpt>
      <trkpt lat="43.08537" lon="0.43989">
        <ele>538.8</ele>
        <time>2025-12-29T09:40:46Z</time>
      </trkpt>
      <trkpt lat="43.08542" lon="0.4399">
        <ele>538.8</ele>
        <time>2025-12-29T09:40:47Z</time>
      </trkpt>
      <trkpt lat="43.08547" lon="0.4399">
        <ele>538.8</ele>
        <time>2025-12-29T09:40:48Z</time>
      </trkpt>
      <trkpt lat="43.08551" lon="0.4399">
        <ele>538.8</ele>
        <time>2025-12-29T09:40:49Z</time>
      </trkpt>
      <trkpt lat="43.08556" lon="0.43991">
        <ele>538.4</ele>
        <time>2025-12-29T09:40:50Z</time>
      </trkpt>
      <trkpt lat="43.0856" lon="0.43991">
        <ele>538.4</ele>
        <time>2025-12-29T09:40:51Z</time>
      </trkpt>
      <trkpt lat="43.08564" lon="0.43992">
        <ele>538.4</ele>
        <time>2025-12-29T09:40:52Z</time>
      </trkpt>
      <trkpt lat="43.08569" lon="0.43992">
        <ele>538.6</ele>
        <time>2025-12-29T09:40:53Z</time>
      </trkpt>
      <trkpt lat="43.08573" lon="0.43993">
        <ele>539.2</ele>
        <time>2025-12-29T09:40:54Z</time>
      </trkpt>
      <trkpt lat="43.08578" lon="0.43993">
        <ele>539.2</ele>
        <time>2025-12-29T09:40:55Z</time>
      </trkpt>
      <trkpt lat="43.08582" lon="0.43994">
        <ele>539.2</ele>
        <time>2025-12-29T09:40:56Z</time>
      </trkpt>
      <trkpt lat="43.08586" lon="0.43994">
        <ele>539.2</ele>
        <time>2025-12-29T09:40:57Z</time>
      </trkpt>
      <trkpt lat="43.0859" lon="0.43995">
        <ele>538.6</ele>
        <time>2025-12-29T09:40:58Z</time>
      </trkpt>
      <trkpt lat="43.08594" lon="0.43995">
        <ele>538.6</ele>
        <time>2025-12-29T09:40:59Z</time>
      </trkpt>
      <trkpt lat="43.08598" lon="0.43995">
        <ele>538.6</ele>
        <time>2025-12-29T09:41:00Z</time>
      </trkpt>
      <trkpt lat="43.08602" lon="0.43996">
        <ele>538.8</ele>
        <time>2025-12-29T09:41:01Z</time>
      </trkpt>
      <trkpt lat="43.08606" lon="0.43996">
        <ele>539</ele>
        <time>2025-12-29T09:41:02Z</time>
      </trkpt>
      <trkpt lat="43.0861" lon="0.43997">
        <ele>539</ele>
        <time>2025-12-29T09:41:03Z</time>
      </trkpt>
      <trkpt lat="43.08615" lon="0.43997">
        <ele>539</ele>
        <time>2025-12-29T09:41:04Z</time>
      </trkpt>
      <trkpt lat="43.08619" lon="0.43997">
        <ele>539.4</ele>
        <time>2025-12-29T09:41:05Z</time>
      </trkpt>
      <trkpt lat="43.08623" lon="0.43998">
        <ele>539.2</ele>
        <time>2025-12-29T09:41:06Z</time>
      </trkpt>
      <trkpt lat="43.08627" lon="0.43998">
        <ele>539.2</ele>
        <time>2025-12-29T09:41:07Z</time>
      </trkpt>
      <trkpt lat="43.08631" lon="0.43999">
        <ele>539.2</ele>
        <time>2025-12-29T09:41:08Z</time>
      </trkpt>
      <trkpt lat="43.08636" lon="0.44">
        <ele>539.2</ele>
        <time>2025-12-29T09:41:09Z</time>
      </trkpt>
      <trkpt lat="43.0864" lon="0.44">
        <ele>539</ele>
        <time>2025-12-29T09:41:10Z</time>
      </trkpt>
      <trkpt lat="43.08645" lon="0.44001">
        <ele>539</ele>
        <time>2025-12-29T09:41:11Z</time>
      </trkpt>
      <trkpt lat="43.08649" lon="0.44001">
        <ele>539</ele>
        <time>2025-12-29T09:41:12Z</time>
      </trkpt>
      <trkpt lat="43.08654" lon="0.44002">
        <ele>539</ele>
        <time>2025-12-29T09:41:13Z</time>
      </trkpt>
      <trkpt lat="43.08658" lon="0.44002">
        <ele>539</ele>
        <time>2025-12-29T09:41:14Z</time>
      </trkpt>
      <trkpt lat="43.08663" lon="0.44003">
        <ele>539</ele>
        <time>2025-12-29T09:41:15Z</time>
      </trkpt>
      <trkpt lat="43.08668" lon="0.44003">
        <ele>539</ele>
        <time>2025-12-29T09:41:16Z</time>
      </trkpt>
      <trkpt lat="43.08672" lon="0.44004">
        <ele>539</ele>
        <time>2025-12-29T09:41:17Z</time>
      </trkpt>
      <trkpt lat="43.08677" lon="0.44005">
        <ele>537.8</ele>
        <time>2025-12-29T09:41:18Z</time>
      </trkpt>
      <trkpt lat="43.08682" lon="0.44005">
        <ele>537.8</ele>
        <time>2025-12-29T09:41:19Z</time>
      </trkpt>
      <trkpt lat="43.08687" lon="0.44006">
        <ele>537.8</ele>
        <time>2025-12-29T09:41:20Z</time>
      </trkpt>
      <trkpt lat="43.08692" lon="0.44007">
        <ele>537.8</ele>
        <time>2025-12-29T09:41:21Z</time>
      </trkpt>
      <trkpt lat="43.08697" lon="0.44007">
        <ele>538.4</ele>
        <time>2025-12-29T09:41:22Z</time>
      </trkpt>
      <trkpt lat="43.08702" lon="0.44008">
        <ele>538.4</ele>
        <time>2025-12-29T09:41:23Z</time>
      </trkpt>
      <trkpt lat="43.08707" lon="0.44009">
        <ele>538.4</ele>
        <time>2025-12-29T09:41:24Z</time>
      </trkpt>
      <trkpt lat="43.08712" lon="0.44009">
        <ele>537.4</ele>
        <time>2025-12-29T09:41:25Z</time>
      </trkpt>
      <trkpt lat="43.08717" lon="0.4401">
        <ele>537.6</ele>
        <time>2025-12-29T09:41:26Z</time>
      </trkpt>
      <trkpt lat="43.08722" lon="0.4401">
        <ele>537.6</ele>
        <time>2025-12-29T09:41:27Z</time>
      </trkpt>
      <trkpt lat="43.08727" lon="0.4401">
        <ele>537.6</ele>
        <time>2025-12-29T09:41:28Z</time>
      </trkpt>
      <trkpt lat="43.08733" lon="0.44011">
        <ele>537.6</ele>
        <time>2025-12-29T09:41:29Z</time>
      </trkpt>
      <trkpt lat="43.08738" lon="0.44012">
        <ele>537.6</ele>
        <time>2025-12-29T09:41:30Z</time>
      </trkpt>
      <trkpt lat="43.08743" lon="0.44012">
        <ele>537.6</ele>
        <time>2025-12-29T09:41:31Z</time>
      </trkpt>
      <trkpt lat="43.08748" lon="0.44013">
        <ele>537.6</ele>
        <time>2025-12-29T09:41:32Z</time>
      </trkpt>
      <trkpt lat="43.08754" lon="0.44013">
        <ele>536.6</ele>
        <time>2025-12-29T09:41:33Z</time>
      </trkpt>
      <trkpt lat="43.08759" lon="0.44014">
        <ele>536.2</ele>
        <time>2025-12-29T09:41:34Z</time>
      </trkpt>
      <trkpt lat="43.08764" lon="0.44015">
        <ele>536.2</ele>
        <time>2025-12-29T09:41:35Z</time>
      </trkpt>
      <trkpt lat="43.0877" lon="0.44016">
        <ele>536.2</ele>
        <time>2025-12-29T09:41:36Z</time>
      </trkpt>
      <trkpt lat="43.08775" lon="0.44017">
        <ele>536.2</ele>
        <time>2025-12-29T09:41:37Z</time>
      </trkpt>
      <trkpt lat="43.08781" lon="0.44017">
        <ele>535.6</ele>
        <time>2025-12-29T09:41:38Z</time>
      </trkpt>
      <trkpt lat="43.08786" lon="0.44018">
        <ele>535.6</ele>
        <time>2025-12-29T09:41:39Z</time>
      </trkpt>
      <trkpt lat="43.08792" lon="0.44018">
        <ele>535.6</ele>
        <time>2025-12-29T09:41:40Z</time>
      </trkpt>
      <trkpt lat="43.08798" lon="0.44019">
        <ele>535.6</ele>
        <time>2025-12-29T09:41:41Z</time>
      </trkpt>
      <trkpt lat="43.08804" lon="0.44019">
        <ele>535.4</ele>
        <time>2025-12-29T09:41:42Z</time>
      </trkpt>
      <trkpt lat="43.0881" lon="0.4402">
        <ele>535.4</ele>
        <time>2025-12-29T09:41:43Z</time>
      </trkpt>
      <trkpt lat="43.08816" lon="0.44021">
        <ele>535.4</ele>
        <time>2025-12-29T09:41:44Z</time>
      </trkpt>
      <trkpt lat="43.08822" lon="0.44021">
        <ele>535.4</ele>
        <time>2025-12-29T09:41:45Z</time>
      </trkpt>
      <trkpt lat="43.08828" lon="0.44022">
        <ele>534.6</ele>
        <time>2025-12-29T09:41:46Z</time>
      </trkpt>
      <trkpt lat="43.08834" lon="0.44023">
        <ele>534.6</ele>
        <time>2025-12-29T09:41:47Z</time>
      </trkpt>
      <trkpt lat="43.08839" lon="0.44024">
        <ele>534.6</ele>
        <time>2025-12-29T09:41:48Z</time>
      </trkpt>
      <trkpt lat="43.08845" lon="0.44025">
        <ele>534.8</ele>
        <time>2025-12-29T09:41:49Z</time>
      </trkpt>
      <trkpt lat="43.08851" lon="0.44026">
        <ele>535.2</ele>
        <time>2025-12-29T09:41:50Z</time>
      </trkpt>
      <trkpt lat="43.08856" lon="0.44027">
        <ele>535.2</ele>
        <time>2025-12-29T09:41:51Z</time>
      </trkpt>
      <trkpt lat="43.08862" lon="0.44028">
        <ele>535.2</ele>
        <time>2025-12-29T09:41:52Z</time>
      </trkpt>
      <trkpt lat="43.08867" lon="0.44028">
        <ele>535.2</ele>
        <time>2025-12-29T09:41:53Z</time>
      </trkpt>
      <trkpt lat="43.08872" lon="0.44029">
        <ele>534.8</ele>
        <time>2025-12-29T09:41:54Z</time>
      </trkpt>
      <trkpt lat="43.08877" lon="0.44029">
        <ele>534.8</ele>
        <time>2025-12-29T09:41:55Z</time>
      </trkpt>
      <trkpt lat="43.08882" lon="0.4403">
        <ele>534.8</ele>
        <time>2025-12-29T09:41:56Z</time>
      </trkpt>
      <trkpt lat="43.08887" lon="0.4403">
        <ele>535.8</ele>
        <time>2025-12-29T09:41:57Z</time>
      </trkpt>
      <trkpt lat="43.08892" lon="0.44031">
        <ele>536</ele>
        <time>2025-12-29T09:41:58Z</time>
      </trkpt>
      <trkpt lat="43.08897" lon="0.44031">
        <ele>536</ele>
        <time>2025-12-29T09:41:59Z</time>
      </trkpt>
      <trkpt lat="43.08901" lon="0.44032">
        <ele>536</ele>
        <time>2025-12-29T09:42:00Z</time>
      </trkpt>
      <trkpt lat="43.08906" lon="0.44033">
        <ele>536</ele>
        <time>2025-12-29T09:42:01Z</time>
      </trkpt>
      <trkpt lat="43.08911" lon="0.44033">
        <ele>536.2</ele>
        <time>2025-12-29T09:42:02Z</time>
      </trkpt>
      <trkpt lat="43.08915" lon="0.44034">
        <ele>536.2</ele>
        <time>2025-12-29T09:42:03Z</time>
      </trkpt>
      <trkpt lat="43.0892" lon="0.44034">
        <ele>536.2</ele>
        <time>2025-12-29T09:42:04Z</time>
      </trkpt>
      <trkpt lat="43.08924" lon="0.44035">
        <ele>536.2</ele>
        <time>2025-12-29T09:42:05Z</time>
      </trkpt>
      <trkpt lat="43.08928" lon="0.44035">
        <ele>536.8</ele>
        <time>2025-12-29T09:42:06Z</time>
      </trkpt>
      <trkpt lat="43.08933" lon="0.44036">
        <ele>536.8</ele>
        <time>2025-12-29T09:42:07Z</time>
      </trkpt>
      <trkpt lat="43.08937" lon="0.44036">
        <ele>536.8</ele>
        <time>2025-12-29T09:42:08Z</time>
      </trkpt>
      <trkpt lat="43.08941" lon="0.44036">
        <ele>537.8</ele>
        <time>2025-12-29T09:42:09Z</time>
      </trkpt>
      <trkpt lat="43.08946" lon="0.44037">
        <ele>537.8</ele>
        <time>2025-12-29T09:42:10Z</time>
      </trkpt>
      <trkpt lat="43.0895" lon="0.44037">
        <ele>537.8</ele>
        <time>2025-12-29T09:42:11Z</time>
      </trkpt>
      <trkpt lat="43.08954" lon="0.44038">
        <ele>537.8</ele>
        <time>2025-12-29T09:42:12Z</time>
      </trkpt>
      <trkpt lat="43.08958" lon="0.44038">
        <ele>537.8</ele>
        <time>2025-12-29T09:42:13Z</time>
      </trkpt>
      <trkpt lat="43.08962" lon="0.44039">
        <ele>538.2</ele>
        <time>2025-12-29T09:42:14Z</time>
      </trkpt>
      <trkpt lat="43.08966" lon="0.44039">
        <ele>538.2</ele>
        <time>2025-12-29T09:42:15Z</time>
      </trkpt>
      <trkpt lat="43.0897" lon="0.4404">
        <ele>538.2</ele>
        <time>2025-12-29T09:42:16Z</time>
      </trkpt>
      <trkpt lat="43.08975" lon="0.4404">
        <ele>538.2</ele>
        <time>2025-12-29T09:42:17Z</time>
      </trkpt>
      <trkpt lat="43.08979" lon="0.4404">
        <ele>538.2</ele>
        <time>2025-12-29T09:42:18Z</time>
      </trkpt>
      <trkpt lat="43.08983" lon="0.44041">
        <ele>538.2</ele>
        <time>2025-12-29T09:42:19Z</time>
      </trkpt>
      <trkpt lat="43.08987" lon="0.44041">
        <ele>538.2</ele>
        <time>2025-12-29T09:42:20Z</time>
      </trkpt>
      <trkpt lat="43.08991" lon="0.44041">
        <ele>538.2</ele>
        <time>2025-12-29T09:42:21Z</time>
      </trkpt>
      <trkpt lat="43.08995" lon="0.44042">
        <ele>538.6</ele>
        <time>2025-12-29T09:42:22Z</time>
      </trkpt>
      <trkpt lat="43.08999" lon="0.44042">
        <ele>538.6</ele>
        <time>2025-12-29T09:42:23Z</time>
      </trkpt>
      <trkpt lat="43.09003" lon="0.44043">
        <ele>538.6</ele>
        <time>2025-12-29T09:42:24Z</time>
      </trkpt>
      <trkpt lat="43.09007" lon="0.44043">
        <ele>539.4</ele>
        <time>2025-12-29T09:42:25Z</time>
      </trkpt>
      <trkpt lat="43.0901" lon="0.44044">
        <ele>539.6</ele>
        <time>2025-12-29T09:42:26Z</time>
      </trkpt>
      <trkpt lat="43.09014" lon="0.44044">
        <ele>539.6</ele>
        <time>2025-12-29T09:42:27Z</time>
      </trkpt>
      <trkpt lat="43.09018" lon="0.44044">
        <ele>539.6</ele>
        <time>2025-12-29T09:42:28Z</time>
      </trkpt>
      <trkpt lat="43.09022" lon="0.44045">
        <ele>539.6</ele>
        <time>2025-12-29T09:42:29Z</time>
      </trkpt>
      <trkpt lat="43.09026" lon="0.44046">
        <ele>538.6</ele>
        <time>2025-12-29T09:42:30Z</time>
      </trkpt>
      <trkpt lat="43.0903" lon="0.44046">
        <ele>538.6</ele>
        <time>2025-12-29T09:42:31Z</time>
      </trkpt>
      <trkpt lat="43.09034" lon="0.44047">
        <ele>538.6</ele>
        <time>2025-12-29T09:42:32Z</time>
      </trkpt>
      <trkpt lat="43.09037" lon="0.44047">
        <ele>539.6</ele>
        <time>2025-12-29T09:42:33Z</time>
      </trkpt>
      <trkpt lat="43.09041" lon="0.44048">
        <ele>539.4</ele>
        <time>2025-12-29T09:42:34Z</time>
      </trkpt>
      <trkpt lat="43.09045" lon="0.44048">
        <ele>539.4</ele>
        <time>2025-12-29T09:42:35Z</time>
      </trkpt>
      <trkpt lat="43.09049" lon="0.44049">
        <ele>539.4</ele>
        <time>2025-12-29T09:42:36Z</time>
      </trkpt>
      <trkpt lat="43.09052" lon="0.44049">
        <ele>540.4</ele>
        <time>2025-12-29T09:42:37Z</time>
      </trkpt>
      <trkpt lat="43.09056" lon="0.4405">
        <ele>540.6</ele>
        <time>2025-12-29T09:42:38Z</time>
      </trkpt>
      <trkpt lat="43.0906" lon="0.4405">
        <ele>540.6</ele>
        <time>2025-12-29T09:42:39Z</time>
      </trkpt>
      <trkpt lat="43.09063" lon="0.44051">
        <ele>540.6</ele>
        <time>2025-12-29T09:42:40Z</time>
      </trkpt>
      <trkpt lat="43.09067" lon="0.44051">
        <ele>540.6</ele>
        <time>2025-12-29T09:42:41Z</time>
      </trkpt>
      <trkpt lat="43.09071" lon="0.44052">
        <ele>540.8</ele>
        <time>2025-12-29T09:42:42Z</time>
      </trkpt>
      <trkpt lat="43.09075" lon="0.44052">
        <ele>540.8</ele>
        <time>2025-12-29T09:42:43Z</time>
      </trkpt>
      <trkpt lat="43.09078" lon="0.44053">
        <ele>540.8</ele>
        <time>2025-12-29T09:42:44Z</time>
      </trkpt>
      <trkpt lat="43.09082" lon="0.44053">
        <ele>540.8</ele>
        <time>2025-12-29T09:42:45Z</time>
      </trkpt>
      <trkpt lat="43.09086" lon="0.44054">
        <ele>541.6</ele>
        <time>2025-12-29T09:42:46Z</time>
      </trkpt>
      <trkpt lat="43.0909" lon="0.44054">
        <ele>541.6</ele>
        <time>2025-12-29T09:42:47Z</time>
      </trkpt>
      <trkpt lat="43.09093" lon="0.44055">
        <ele>541.6</ele>
        <time>2025-12-29T09:42:48Z</time>
      </trkpt>
      <trkpt lat="43.09097" lon="0.44055">
        <ele>540.8</ele>
        <time>2025-12-29T09:42:49Z</time>
      </trkpt>
      <trkpt lat="43.09101" lon="0.44056">
        <ele>541.4</ele>
        <time>2025-12-29T09:42:50Z</time>
      </trkpt>
      <trkpt lat="43.09105" lon="0.44056">
        <ele>541.4</ele>
        <time>2025-12-29T09:42:51Z</time>
      </trkpt>
      <trkpt lat="43.09109" lon="0.44057">
        <ele>541.4</ele>
        <time>2025-12-29T09:42:52Z</time>
      </trkpt>
      <trkpt lat="43.09113" lon="0.44057">
        <ele>541.4</ele>
        <time>2025-12-29T09:42:53Z</time>
      </trkpt>
      <trkpt lat="43.09117" lon="0.44058">
        <ele>541</ele>
        <time>2025-12-29T09:42:54Z</time>
      </trkpt>
      <trkpt lat="43.09121" lon="0.44058">
        <ele>541</ele>
        <time>2025-12-29T09:42:55Z</time>
      </trkpt>
      <trkpt lat="43.09125" lon="0.44059">
        <ele>541</ele>
        <time>2025-12-29T09:42:56Z</time>
      </trkpt>
      <trkpt lat="43.09129" lon="0.44059">
        <ele>541.6</ele>
        <time>2025-12-29T09:42:57Z</time>
      </trkpt>
      <trkpt lat="43.09132" lon="0.44059">
        <ele>541.2</ele>
        <time>2025-12-29T09:42:58Z</time>
      </trkpt>
      <trkpt lat="43.09136" lon="0.4406">
        <ele>541.2</ele>
        <time>2025-12-29T09:42:59Z</time>
      </trkpt>
      <trkpt lat="43.0914" lon="0.4406">
        <ele>541.2</ele>
        <time>2025-12-29T09:43:00Z</time>
      </trkpt>
      <trkpt lat="43.09144" lon="0.44061">
        <ele>541.6</ele>
        <time>2025-12-29T09:43:01Z</time>
      </trkpt>
      <trkpt lat="43.09148" lon="0.44061">
        <ele>541.8</ele>
        <time>2025-12-29T09:43:02Z</time>
      </trkpt>
      <trkpt lat="43.09152" lon="0.44062">
        <ele>541.8</ele>
        <time>2025-12-29T09:43:03Z</time>
      </trkpt>
      <trkpt lat="43.09156" lon="0.44062">
        <ele>541.8</ele>
        <time>2025-12-29T09:43:04Z</time>
      </trkpt>
      <trkpt lat="43.09159" lon="0.44063">
        <ele>542.6</ele>
        <time>2025-12-29T09:43:05Z</time>
      </trkpt>
      <trkpt lat="43.09163" lon="0.44063">
        <ele>542.2</ele>
        <time>2025-12-29T09:43:06Z</time>
      </trkpt>
      <trkpt lat="43.09167" lon="0.44064">
        <ele>542.2</ele>
        <time>2025-12-29T09:43:07Z</time>
      </trkpt>
      <trkpt lat="43.09171" lon="0.44064">
        <ele>542.2</ele>
        <time>2025-12-29T09:43:08Z</time>
      </trkpt>
      <trkpt lat="43.09175" lon="0.44065">
        <ele>542.2</ele>
        <time>2025-12-29T09:43:09Z</time>
      </trkpt>
      <trkpt lat="43.09178" lon="0.44065">
        <ele>542.2</ele>
        <time>2025-12-29T09:43:10Z</time>
      </trkpt>
      <trkpt lat="43.09182" lon="0.44066">
        <ele>542.2</ele>
        <time>2025-12-29T09:43:11Z</time>
      </trkpt>
      <trkpt lat="43.09186" lon="0.44066">
        <ele>542.2</ele>
        <time>2025-12-29T09:43:12Z</time>
      </trkpt>
      <trkpt lat="43.0919" lon="0.44067">
        <ele>543</ele>
        <time>2025-12-29T09:43:13Z</time>
      </trkpt>
      <trkpt lat="43.09194" lon="0.44067">
        <ele>542.6</ele>
        <time>2025-12-29T09:43:14Z</time>
      </trkpt>
      <trkpt lat="43.09197" lon="0.44067">
        <ele>542.6</ele>
        <time>2025-12-29T09:43:15Z</time>
      </trkpt>
      <trkpt lat="43.09201" lon="0.44068">
        <ele>542.6</ele>
        <time>2025-12-29T09:43:16Z</time>
      </trkpt>
      <trkpt lat="43.09205" lon="0.44068">
        <ele>542.6</ele>
        <time>2025-12-29T09:43:17Z</time>
      </trkpt>
      <trkpt lat="43.09209" lon="0.44069">
        <ele>543.2</ele>
        <time>2025-12-29T09:43:18Z</time>
      </trkpt>
      <trkpt lat="43.09213" lon="0.44069">
        <ele>543.2</ele>
        <time>2025-12-29T09:43:19Z</time>
      </trkpt>
      <trkpt lat="43.09216" lon="0.4407">
        <ele>543.2</ele>
        <time>2025-12-29T09:43:20Z</time>
      </trkpt>
      <trkpt lat="43.0922" lon="0.4407">
        <ele>543.2</ele>
        <time>2025-12-29T09:43:21Z</time>
      </trkpt>
      <trkpt lat="43.09225" lon="0.4407">
        <ele>543</ele>
        <time>2025-12-29T09:43:22Z</time>
      </trkpt>
      <trkpt lat="43.09229" lon="0.44071">
        <ele>543</ele>
        <time>2025-12-29T09:43:23Z</time>
      </trkpt>
      <trkpt lat="43.09233" lon="0.44071">
        <ele>543</ele>
        <time>2025-12-29T09:43:24Z</time>
      </trkpt>
      <trkpt lat="43.09237" lon="0.44072">
        <ele>543</ele>
        <time>2025-12-29T09:43:25Z</time>
      </trkpt>
      <trkpt lat="43.09241" lon="0.44073">
        <ele>542.8</ele>
        <time>2025-12-29T09:43:26Z</time>
      </trkpt>
      <trkpt lat="43.09245" lon="0.44073">
        <ele>542.8</ele>
        <time>2025-12-29T09:43:27Z</time>
      </trkpt>
      <trkpt lat="43.09249" lon="0.44074">
        <ele>542.8</ele>
        <time>2025-12-29T09:43:28Z</time>
      </trkpt>
      <trkpt lat="43.09253" lon="0.44074">
        <ele>543.2</ele>
        <time>2025-12-29T09:43:29Z</time>
      </trkpt>
      <trkpt lat="43.09258" lon="0.44075">
        <ele>542.6</ele>
        <time>2025-12-29T09:43:30Z</time>
      </trkpt>
      <trkpt lat="43.09262" lon="0.44076">
        <ele>542.6</ele>
        <time>2025-12-29T09:43:31Z</time>
      </trkpt>
      <trkpt lat="43.09266" lon="0.44076">
        <ele>542.6</ele>
        <time>2025-12-29T09:43:32Z</time>
      </trkpt>
      <trkpt lat="43.0927" lon="0.44076">
        <ele>542.8</ele>
        <time>2025-12-29T09:43:33Z</time>
      </trkpt>
      <trkpt lat="43.09274" lon="0.44077">
        <ele>542.6</ele>
        <time>2025-12-29T09:43:34Z</time>
      </trkpt>
      <trkpt lat="43.09278" lon="0.44077">
        <ele>542.6</ele>
        <time>2025-12-29T09:43:35Z</time>
      </trkpt>
      <trkpt lat="43.09283" lon="0.44078">
        <ele>542.6</ele>
        <time>2025-12-29T09:43:36Z</time>
      </trkpt>
      <trkpt lat="43.09287" lon="0.44078">
        <ele>542.6</ele>
        <time>2025-12-29T09:43:37Z</time>
      </trkpt>
      <trkpt lat="43.09291" lon="0.44079">
        <ele>542.2</ele>
        <time>2025-12-29T09:43:38Z</time>
      </trkpt>
      <trkpt lat="43.09295" lon="0.44079">
        <ele>542.2</ele>
        <time>2025-12-29T09:43:39Z</time>
      </trkpt>
      <trkpt lat="43.093" lon="0.44079">
        <ele>542.2</ele>
        <time>2025-12-29T09:43:40Z</time>
      </trkpt>
      <trkpt lat="43.09304" lon="0.4408">
        <ele>542.6</ele>
        <time>2025-12-29T09:43:41Z</time>
      </trkpt>
      <trkpt lat="43.09309" lon="0.44081">
        <ele>542</ele>
        <time>2025-12-29T09:43:42Z</time>
      </trkpt>
      <trkpt lat="43.09313" lon="0.44081">
        <ele>542</ele>
        <time>2025-12-29T09:43:43Z</time>
      </trkpt>
      <trkpt lat="43.09318" lon="0.44082">
        <ele>542</ele>
        <time>2025-12-29T09:43:44Z</time>
      </trkpt>
      <trkpt lat="43.09322" lon="0.44083">
        <ele>542</ele>
        <time>2025-12-29T09:43:45Z</time>
      </trkpt>
      <trkpt lat="43.09327" lon="0.44083">
        <ele>541.6</ele>
        <time>2025-12-29T09:43:46Z</time>
      </trkpt>
      <trkpt lat="43.09332" lon="0.44084">
        <ele>541.6</ele>
        <time>2025-12-29T09:43:47Z</time>
      </trkpt>
      <trkpt lat="43.09336" lon="0.44084">
        <ele>541.6</ele>
        <time>2025-12-29T09:43:48Z</time>
      </trkpt>
      <trkpt lat="43.09341" lon="0.44085">
        <ele>542</ele>
        <time>2025-12-29T09:43:49Z</time>
      </trkpt>
      <trkpt lat="43.09346" lon="0.44085">
        <ele>541.6</ele>
        <time>2025-12-29T09:43:50Z</time>
      </trkpt>
      <trkpt lat="43.09351" lon="0.44086">
        <ele>541.6</ele>
        <time>2025-12-29T09:43:51Z</time>
      </trkpt>
      <trkpt lat="43.09355" lon="0.44087">
        <ele>541.6</ele>
        <time>2025-12-29T09:43:52Z</time>
      </trkpt>
      <trkpt lat="43.0936" lon="0.44087">
        <ele>541.6</ele>
        <time>2025-12-29T09:43:53Z</time>
      </trkpt>
      <trkpt lat="43.09365" lon="0.44088">
        <ele>541</ele>
        <time>2025-12-29T09:43:54Z</time>
      </trkpt>
      <trkpt lat="43.0937" lon="0.44088">
        <ele>541</ele>
        <time>2025-12-29T09:43:55Z</time>
      </trkpt>
      <trkpt lat="43.09375" lon="0.44089">
        <ele>541</ele>
        <time>2025-12-29T09:43:56Z</time>
      </trkpt>
      <trkpt lat="43.0938" lon="0.44089">
        <ele>541</ele>
        <time>2025-12-29T09:43:57Z</time>
      </trkpt>
      <trkpt lat="43.09385" lon="0.4409">
        <ele>540.8</ele>
        <time>2025-12-29T09:43:58Z</time>
      </trkpt>
      <trkpt lat="43.0939" lon="0.4409">
        <ele>540.8</ele>
        <time>2025-12-29T09:43:59Z</time>
      </trkpt>
      <trkpt lat="43.09395" lon="0.44091">
        <ele>540.8</ele>
        <time>2025-12-29T09:44:00Z</time>
      </trkpt>
      <trkpt lat="43.094" lon="0.44092">
        <ele>540.8</ele>
        <time>2025-12-29T09:44:01Z</time>
      </trkpt>
      <trkpt lat="43.09405" lon="0.44093">
        <ele>540.6</ele>
        <time>2025-12-29T09:44:02Z</time>
      </trkpt>
      <trkpt lat="43.09411" lon="0.44093">
        <ele>540.6</ele>
        <time>2025-12-29T09:44:03Z</time>
      </trkpt>
      <trkpt lat="43.09416" lon="0.44094">
        <ele>540.6</ele>
        <time>2025-12-29T09:44:04Z</time>
      </trkpt>
      <trkpt lat="43.09422" lon="0.44095">
        <ele>539.6</ele>
        <time>2025-12-29T09:44:05Z</time>
      </trkpt>
      <trkpt lat="43.09428" lon="0.44096">
        <ele>538.8</ele>
        <time>2025-12-29T09:44:06Z</time>
      </trkpt>
      <trkpt lat="43.09433" lon="0.44097">
        <ele>538.8</ele>
        <time>2025-12-29T09:44:07Z</time>
      </trkpt>
      <trkpt lat="43.09438" lon="0.44097">
        <ele>538.8</ele>
        <time>2025-12-29T09:44:08Z</time>
      </trkpt>
      <trkpt lat="43.09444" lon="0.44098">
        <ele>539.8</ele>
        <time>2025-12-29T09:44:09Z</time>
      </trkpt>
      <trkpt lat="43.09449" lon="0.44098">
        <ele>538.8</ele>
        <time>2025-12-29T09:44:10Z</time>
      </trkpt>
      <trkpt lat="43.09454" lon="0.44099">
        <ele>538.8</ele>
        <time>2025-12-29T09:44:11Z</time>
      </trkpt>
      <trkpt lat="43.09459" lon="0.441">
        <ele>538.8</ele>
        <time>2025-12-29T09:44:12Z</time>
      </trkpt>
      <trkpt lat="43.09464" lon="0.441">
        <ele>538.2</ele>
        <time>2025-12-29T09:44:13Z</time>
      </trkpt>
      <trkpt lat="43.09468" lon="0.44101">
        <ele>539.6</ele>
        <time>2025-12-29T09:44:14Z</time>
      </trkpt>
      <trkpt lat="43.09473" lon="0.44102">
        <ele>539.6</ele>
        <time>2025-12-29T09:44:15Z</time>
      </trkpt>
      <trkpt lat="43.09478" lon="0.44102">
        <ele>539.6</ele>
        <time>2025-12-29T09:44:16Z</time>
      </trkpt>
      <trkpt lat="43.09482" lon="0.44102">
        <ele>539</ele>
        <time>2025-12-29T09:44:17Z</time>
      </trkpt>
      <trkpt lat="43.09486" lon="0.44103">
        <ele>539.6</ele>
        <time>2025-12-29T09:44:18Z</time>
      </trkpt>
      <trkpt lat="43.0949" lon="0.44103">
        <ele>539.6</ele>
        <time>2025-12-29T09:44:19Z</time>
      </trkpt>
      <trkpt lat="43.09495" lon="0.44103">
        <ele>539.6</ele>
        <time>2025-12-29T09:44:20Z</time>
      </trkpt>
      <trkpt lat="43.09499" lon="0.44103">
        <ele>539.8</ele>
        <time>2025-12-29T09:44:21Z</time>
      </trkpt>
      <trkpt lat="43.09503" lon="0.44104">
        <ele>539.8</ele>
        <time>2025-12-29T09:44:22Z</time>
      </trkpt>
      <trkpt lat="43.09507" lon="0.44103">
        <ele>539.8</ele>
        <time>2025-12-29T09:44:23Z</time>
      </trkpt>
      <trkpt lat="43.09511" lon="0.44103">
        <ele>539.8</ele>
        <time>2025-12-29T09:44:24Z</time>
      </trkpt>
      <trkpt lat="43.09516" lon="0.44104">
        <ele>539.8</ele>
        <time>2025-12-29T09:44:25Z</time>
      </trkpt>
      <trkpt lat="43.0952" lon="0.44104">
        <ele>539.8</ele>
        <time>2025-12-29T09:44:26Z</time>
      </trkpt>
      <trkpt lat="43.09524" lon="0.44105">
        <ele>539.8</ele>
        <time>2025-12-29T09:44:27Z</time>
      </trkpt>
      <trkpt lat="43.09527" lon="0.44107">
        <ele>539.8</ele>
        <time>2025-12-29T09:44:28Z</time>
      </trkpt>
      <trkpt lat="43.09531" lon="0.44107">
        <ele>540.8</ele>
        <time>2025-12-29T09:44:29Z</time>
      </trkpt>
      <trkpt lat="43.09536" lon="0.44108">
        <ele>540.4</ele>
        <time>2025-12-29T09:44:30Z</time>
      </trkpt>
      <trkpt lat="43.09541" lon="0.44108">
        <ele>540.4</ele>
        <time>2025-12-29T09:44:31Z</time>
      </trkpt>
      <trkpt lat="43.09545" lon="0.44108">
        <ele>540.4</ele>
        <time>2025-12-29T09:44:32Z</time>
      </trkpt>
      <trkpt lat="43.09549" lon="0.44108">
        <ele>540.4</ele>
        <time>2025-12-29T09:44:33Z</time>
      </trkpt>
      <trkpt lat="43.09553" lon="0.44109">
        <ele>540.4</ele>
        <time>2025-12-29T09:44:34Z</time>
      </trkpt>
      <trkpt lat="43.09557" lon="0.44109">
        <ele>540.4</ele>
        <time>2025-12-29T09:44:35Z</time>
      </trkpt>
      <trkpt lat="43.0956" lon="0.4411">
        <ele>540.4</ele>
        <time>2025-12-29T09:44:36Z</time>
      </trkpt>
      <trkpt lat="43.09564" lon="0.44111">
        <ele>540.4</ele>
        <time>2025-12-29T09:44:37Z</time>
      </trkpt>
      <trkpt lat="43.09568" lon="0.44112">
        <ele>539.2</ele>
        <time>2025-12-29T09:44:38Z</time>
      </trkpt>
      <trkpt lat="43.09573" lon="0.44113">
        <ele>539.2</ele>
        <time>2025-12-29T09:44:39Z</time>
      </trkpt>
      <trkpt lat="43.09578" lon="0.44114">
        <ele>539.2</ele>
        <time>2025-12-29T09:44:40Z</time>
      </trkpt>
      <trkpt lat="43.09583" lon="0.44114">
        <ele>540</ele>
        <time>2025-12-29T09:44:41Z</time>
      </trkpt>
      <trkpt lat="43.09588" lon="0.44115">
        <ele>540</ele>
        <time>2025-12-29T09:44:42Z</time>
      </trkpt>
      <trkpt lat="43.09593" lon="0.44115">
        <ele>540</ele>
        <time>2025-12-29T09:44:43Z</time>
      </trkpt>
      <trkpt lat="43.09598" lon="0.44115">
        <ele>540</ele>
        <time>2025-12-29T09:44:44Z</time>
      </trkpt>
      <trkpt lat="43.09603" lon="0.44115">
        <ele>540</ele>
        <time>2025-12-29T09:44:45Z</time>
      </trkpt>
      <trkpt lat="43.09608" lon="0.44116">
        <ele>540.2</ele>
        <time>2025-12-29T09:44:46Z</time>
      </trkpt>
      <trkpt lat="43.09613" lon="0.44116">
        <ele>540.2</ele>
        <time>2025-12-29T09:44:47Z</time>
      </trkpt>
      <trkpt lat="43.09618" lon="0.44117">
        <ele>540.2</ele>
        <time>2025-12-29T09:44:48Z</time>
      </trkpt>
      <trkpt lat="43.09622" lon="0.44117">
        <ele>540.2</ele>
        <time>2025-12-29T09:44:49Z</time>
      </trkpt>
      <trkpt lat="43.09626" lon="0.44118">
        <ele>540.4</ele>
        <time>2025-12-29T09:44:50Z</time>
      </trkpt>
      <trkpt lat="43.09629" lon="0.44119">
        <ele>540.4</ele>
        <time>2025-12-29T09:44:51Z</time>
      </trkpt>
      <trkpt lat="43.09634" lon="0.44119">
        <ele>540.4</ele>
        <time>2025-12-29T09:44:52Z</time>
      </trkpt>
      <trkpt lat="43.09638" lon="0.4412">
        <ele>540.4</ele>
        <time>2025-12-29T09:44:53Z</time>
      </trkpt>
      <trkpt lat="43.09642" lon="0.4412">
        <ele>540.8</ele>
        <time>2025-12-29T09:44:54Z</time>
      </trkpt>
      <trkpt lat="43.09646" lon="0.44121">
        <ele>540.8</ele>
        <time>2025-12-29T09:44:55Z</time>
      </trkpt>
      <trkpt lat="43.0965" lon="0.44121">
        <ele>540.8</ele>
        <time>2025-12-29T09:44:56Z</time>
      </trkpt>
      <trkpt lat="43.09655" lon="0.44122">
        <ele>540.8</ele>
        <time>2025-12-29T09:44:57Z</time>
      </trkpt>
      <trkpt lat="43.09659" lon="0.44123">
        <ele>540.8</ele>
        <time>2025-12-29T09:44:58Z</time>
      </trkpt>
      <trkpt lat="43.09664" lon="0.44123">
        <ele>540.8</ele>
        <time>2025-12-29T09:44:59Z</time>
      </trkpt>
      <trkpt lat="43.09668" lon="0.44124">
        <ele>540.8</ele>
        <time>2025-12-29T09:45:00Z</time>
      </trkpt>
      <trkpt lat="43.09672" lon="0.44124">
        <ele>541.6</ele>
        <time>2025-12-29T09:45:01Z</time>
      </trkpt>
      <trkpt lat="43.09675" lon="0.44125">
        <ele>542.2</ele>
        <time>2025-12-29T09:45:02Z</time>
      </trkpt>
      <trkpt lat="43.09679" lon="0.44126">
        <ele>542.2</ele>
        <time>2025-12-29T09:45:03Z</time>
      </trkpt>
      <trkpt lat="43.09683" lon="0.44126">
        <ele>542.2</ele>
        <time>2025-12-29T09:45:04Z</time>
      </trkpt>
      <trkpt lat="43.09687" lon="0.44127">
        <ele>541.2</ele>
        <time>2025-12-29T09:45:05Z</time>
      </trkpt>
      <trkpt lat="43.0969" lon="0.44128">
        <ele>541</ele>
        <time>2025-12-29T09:45:06Z</time>
      </trkpt>
      <trkpt lat="43.09694" lon="0.44128">
        <ele>541</ele>
        <time>2025-12-29T09:45:07Z</time>
      </trkpt>
      <trkpt lat="43.09697" lon="0.44129">
        <ele>541</ele>
        <time>2025-12-29T09:45:08Z</time>
      </trkpt>
      <trkpt lat="43.09701" lon="0.4413">
        <ele>542</ele>
        <time>2025-12-29T09:45:09Z</time>
      </trkpt>
      <trkpt lat="43.09705" lon="0.44132">
        <ele>542.2</ele>
        <time>2025-12-29T09:45:10Z</time>
      </trkpt>
      <trkpt lat="43.09708" lon="0.44133">
        <ele>542.2</ele>
        <time>2025-12-29T09:45:11Z</time>
      </trkpt>
      <trkpt lat="43.09711" lon="0.44135">
        <ele>542.2</ele>
        <time>2025-12-29T09:45:12Z</time>
      </trkpt>
      <trkpt lat="43.09714" lon="0.44137">
        <ele>542.2</ele>
        <time>2025-12-29T09:45:13Z</time>
      </trkpt>
      <trkpt lat="43.09718" lon="0.44138">
        <ele>542.4</ele>
        <time>2025-12-29T09:45:14Z</time>
      </trkpt>
      <trkpt lat="43.09721" lon="0.4414">
        <ele>542.4</ele>
        <time>2025-12-29T09:45:15Z</time>
      </trkpt>
      <trkpt lat="43.09723" lon="0.44141">
        <ele>542.4</ele>
        <time>2025-12-29T09:45:16Z</time>
      </trkpt>
      <trkpt lat="43.09726" lon="0.44142">
        <ele>543.4</ele>
        <time>2025-12-29T09:45:17Z</time>
      </trkpt>
      <trkpt lat="43.09729" lon="0.44144">
        <ele>544</ele>
        <time>2025-12-29T09:45:18Z</time>
      </trkpt>
      <trkpt lat="43.09732" lon="0.44145">
        <ele>544</ele>
        <time>2025-12-29T09:45:19Z</time>
      </trkpt>
      <trkpt lat="43.09735" lon="0.44146">
        <ele>544</ele>
        <time>2025-12-29T09:45:20Z</time>
      </trkpt>
      <trkpt lat="43.09736" lon="0.44148">
        <ele>544</ele>
        <time>2025-12-29T09:45:21Z</time>
      </trkpt>
      <trkpt lat="43.09739" lon="0.4415">
        <ele>544.6</ele>
        <time>2025-12-29T09:45:22Z</time>
      </trkpt>
      <trkpt lat="43.09741" lon="0.44151">
        <ele>544.6</ele>
        <time>2025-12-29T09:45:23Z</time>
      </trkpt>
      <trkpt lat="43.09743" lon="0.44153">
        <ele>544.6</ele>
        <time>2025-12-29T09:45:24Z</time>
      </trkpt>
      <trkpt lat="43.09746" lon="0.44155">
        <ele>544.8</ele>
        <time>2025-12-29T09:45:25Z</time>
      </trkpt>
      <trkpt lat="43.09748" lon="0.44156">
        <ele>545.4</ele>
        <time>2025-12-29T09:45:26Z</time>
      </trkpt>
      <trkpt lat="43.09751" lon="0.44158">
        <ele>545.4</ele>
        <time>2025-12-29T09:45:27Z</time>
      </trkpt>
      <trkpt lat="43.09753" lon="0.44159">
        <ele>545.4</ele>
        <time>2025-12-29T09:45:28Z</time>
      </trkpt>
      <trkpt lat="43.09756" lon="0.44161">
        <ele>545.4</ele>
        <time>2025-12-29T09:45:29Z</time>
      </trkpt>
      <trkpt lat="43.09758" lon="0.44163">
        <ele>546.6</ele>
        <time>2025-12-29T09:45:30Z</time>
      </trkpt>
      <trkpt lat="43.09761" lon="0.44165">
        <ele>546.6</ele>
        <time>2025-12-29T09:45:31Z</time>
      </trkpt>
      <trkpt lat="43.09763" lon="0.44166">
        <ele>546.6</ele>
        <time>2025-12-29T09:45:32Z</time>
      </trkpt>
      <trkpt lat="43.09766" lon="0.44168">
        <ele>546.6</ele>
        <time>2025-12-29T09:45:33Z</time>
      </trkpt>
      <trkpt lat="43.09768" lon="0.44169">
        <ele>546.6</ele>
        <time>2025-12-29T09:45:34Z</time>
      </trkpt>
      <trkpt lat="43.0977" lon="0.44171">
        <ele>546.6</ele>
        <time>2025-12-29T09:45:35Z</time>
      </trkpt>
      <trkpt lat="43.09772" lon="0.44171">
        <ele>546.6</ele>
        <time>2025-12-29T09:45:36Z</time>
      </trkpt>
      <trkpt lat="43.09774" lon="0.44173">
        <ele>546.8</ele>
        <time>2025-12-29T09:45:37Z</time>
      </trkpt>
      <trkpt lat="43.09777" lon="0.44174">
        <ele>547.4</ele>
        <time>2025-12-29T09:45:38Z</time>
      </trkpt>
      <trkpt lat="43.09779" lon="0.44175">
        <ele>547.4</ele>
        <time>2025-12-29T09:45:39Z</time>
      </trkpt>
      <trkpt lat="43.09781" lon="0.44176">
        <ele>547.4</ele>
        <time>2025-12-29T09:45:40Z</time>
      </trkpt>
      <trkpt lat="43.09783" lon="0.44178">
        <ele>548.2</ele>
        <time>2025-12-29T09:45:41Z</time>
      </trkpt>
      <trkpt lat="43.09785" lon="0.44179">
        <ele>547.8</ele>
        <time>2025-12-29T09:45:42Z</time>
      </trkpt>
      <trkpt lat="43.09788" lon="0.44181">
        <ele>547.8</ele>
        <time>2025-12-29T09:45:43Z</time>
      </trkpt>
      <trkpt lat="43.0979" lon="0.44181">
        <ele>547.8</ele>
        <time>2025-12-29T09:45:44Z</time>
      </trkpt>
      <trkpt lat="43.09792" lon="0.44183">
        <ele>548.6</ele>
        <time>2025-12-29T09:45:45Z</time>
      </trkpt>
      <trkpt lat="43.09794" lon="0.44184">
        <ele>549.4</ele>
        <time>2025-12-29T09:45:46Z</time>
      </trkpt>
      <trkpt lat="43.09796" lon="0.44184">
        <ele>549.4</ele>
        <time>2025-12-29T09:45:47Z</time>
      </trkpt>
      <trkpt lat="43.09799" lon="0.44185">
        <ele>549.4</ele>
        <time>2025-12-29T09:45:48Z</time>
      </trkpt>
      <trkpt lat="43.09801" lon="0.44186">
        <ele>549.4</ele>
        <time>2025-12-29T09:45:49Z</time>
      </trkpt>
      <trkpt lat="43.09804" lon="0.44186">
        <ele>549.8</ele>
        <time>2025-12-29T09:45:50Z</time>
      </trkpt>
      <trkpt lat="43.09806" lon="0.44187">
        <ele>549.8</ele>
        <time>2025-12-29T09:45:51Z</time>
      </trkpt>
      <trkpt lat="43.09808" lon="0.44187">
        <ele>549.8</ele>
        <time>2025-12-29T09:45:52Z</time>
      </trkpt>
      <trkpt lat="43.09811" lon="0.44187">
        <ele>550.8</ele>
        <time>2025-12-29T09:45:53Z</time>
      </trkpt>
      <trkpt lat="43.09814" lon="0.44187">
        <ele>550.6</ele>
        <time>2025-12-29T09:45:54Z</time>
      </trkpt>
      <trkpt lat="43.09816" lon="0.44187">
        <ele>550.6</ele>
        <time>2025-12-29T09:45:55Z</time>
      </trkpt>
      <trkpt lat="43.09819" lon="0.44187">
        <ele>550.6</ele>
        <time>2025-12-29T09:45:56Z</time>
      </trkpt>
      <trkpt lat="43.09821" lon="0.44187">
        <ele>550.6</ele>
        <time>2025-12-29T09:45:57Z</time>
      </trkpt>
      <trkpt lat="43.09823" lon="0.44186">
        <ele>551.4</ele>
        <time>2025-12-29T09:45:58Z</time>
      </trkpt>
      <trkpt lat="43.09826" lon="0.44185">
        <ele>551.4</ele>
        <time>2025-12-29T09:45:59Z</time>
      </trkpt>
      <trkpt lat="43.09828" lon="0.44184">
        <ele>551.4</ele>
        <time>2025-12-29T09:46:00Z</time>
      </trkpt>
      <trkpt lat="43.0983" lon="0.44183">
        <ele>551.4</ele>
        <time>2025-12-29T09:46:01Z</time>
      </trkpt>
      <trkpt lat="43.09833" lon="0.44183">
        <ele>551.4</ele>
        <time>2025-12-29T09:46:02Z</time>
      </trkpt>
      <trkpt lat="43.09835" lon="0.44181">
        <ele>551.4</ele>
        <time>2025-12-29T09:46:03Z</time>
      </trkpt>
      <trkpt lat="43.09836" lon="0.4418">
        <ele>551.4</ele>
        <time>2025-12-29T09:46:04Z</time>
      </trkpt>
      <trkpt lat="43.09838" lon="0.44179">
        <ele>551.4</ele>
        <time>2025-12-29T09:46:05Z</time>
      </trkpt>
      <trkpt lat="43.0984" lon="0.44177">
        <ele>552.6</ele>
        <time>2025-12-29T09:46:06Z</time>
      </trkpt>
      <trkpt lat="43.09842" lon="0.44175">
        <ele>552.6</ele>
        <time>2025-12-29T09:46:07Z</time>
      </trkpt>
      <trkpt lat="43.09843" lon="0.44173">
        <ele>552.6</ele>
        <time>2025-12-29T09:46:08Z</time>
      </trkpt>
      <trkpt lat="43.09845" lon="0.44171">
        <ele>553.4</ele>
        <time>2025-12-29T09:46:09Z</time>
      </trkpt>
      <trkpt lat="43.09847" lon="0.44169">
        <ele>553.6</ele>
        <time>2025-12-29T09:46:10Z</time>
      </trkpt>
      <trkpt lat="43.09848" lon="0.44166">
        <ele>553.6</ele>
        <time>2025-12-29T09:46:11Z</time>
      </trkpt>
      <trkpt lat="43.0985" lon="0.44164">
        <ele>553.6</ele>
        <time>2025-12-29T09:46:12Z</time>
      </trkpt>
      <trkpt lat="43.09852" lon="0.44161">
        <ele>553.6</ele>
        <time>2025-12-29T09:46:13Z</time>
      </trkpt>
      <trkpt lat="43.09853" lon="0.44159">
        <ele>553.6</ele>
        <time>2025-12-29T09:46:14Z</time>
      </trkpt>
      <trkpt lat="43.09854" lon="0.44156">
        <ele>553.6</ele>
        <time>2025-12-29T09:46:15Z</time>
      </trkpt>
      <trkpt lat="43.09855" lon="0.44154">
        <ele>553.6</ele>
        <time>2025-12-29T09:46:16Z</time>
      </trkpt>
      <trkpt lat="43.09856" lon="0.44152">
        <ele>553.8</ele>
        <time>2025-12-29T09:46:17Z</time>
      </trkpt>
      <trkpt lat="43.09857" lon="0.4415">
        <ele>554.2</ele>
        <time>2025-12-29T09:46:18Z</time>
      </trkpt>
      <trkpt lat="43.09858" lon="0.44147">
        <ele>554.2</ele>
        <time>2025-12-29T09:46:19Z</time>
      </trkpt>
      <trkpt lat="43.09859" lon="0.44144">
        <ele>554.2</ele>
        <time>2025-12-29T09:46:20Z</time>
      </trkpt>
      <trkpt lat="43.09859" lon="0.44141">
        <ele>554.2</ele>
        <time>2025-12-29T09:46:21Z</time>
      </trkpt>
      <trkpt lat="43.0986" lon="0.44138">
        <ele>554.8</ele>
        <time>2025-12-29T09:46:22Z</time>
      </trkpt>
      <trkpt lat="43.09861" lon="0.44135">
        <ele>554.8</ele>
        <time>2025-12-29T09:46:23Z</time>
      </trkpt>
      <trkpt lat="43.09861" lon="0.44132">
        <ele>554.8</ele>
        <time>2025-12-29T09:46:24Z</time>
      </trkpt>
      <trkpt lat="43.09862" lon="0.4413">
        <ele>554.8</ele>
        <time>2025-12-29T09:46:25Z</time>
      </trkpt>
      <trkpt lat="43.09863" lon="0.44127">
        <ele>555.6</ele>
        <time>2025-12-29T09:46:26Z</time>
      </trkpt>
      <trkpt lat="43.09864" lon="0.44124">
        <ele>555.6</ele>
        <time>2025-12-29T09:46:27Z</time>
      </trkpt>
      <trkpt lat="43.09864" lon="0.44121">
        <ele>555.6</ele>
        <time>2025-12-29T09:46:28Z</time>
      </trkpt>
      <trkpt lat="43.09864" lon="0.44118">
        <ele>556.4</ele>
        <time>2025-12-29T09:46:29Z</time>
      </trkpt>
      <trkpt lat="43.09865" lon="0.44116">
        <ele>556.2</ele>
        <time>2025-12-29T09:46:30Z</time>
      </trkpt>
      <trkpt lat="43.09866" lon="0.44115">
        <ele>556.2</ele>
        <time>2025-12-29T09:46:31Z</time>
      </trkpt>
      <trkpt lat="43.09866" lon="0.44112">
        <ele>556.2</ele>
        <time>2025-12-29T09:46:32Z</time>
      </trkpt>
      <trkpt lat="43.09866" lon="0.44108">
        <ele>556.8</ele>
        <time>2025-12-29T09:46:33Z</time>
      </trkpt>
      <trkpt lat="43.09867" lon="0.44105">
        <ele>557</ele>
        <time>2025-12-29T09:46:34Z</time>
      </trkpt>
      <trkpt lat="43.09868" lon="0.44103">
        <ele>557</ele>
        <time>2025-12-29T09:46:35Z</time>
      </trkpt>
      <trkpt lat="43.09869" lon="0.441">
        <ele>557</ele>
        <time>2025-12-29T09:46:36Z</time>
      </trkpt>
      <trkpt lat="43.09869" lon="0.44097">
        <ele>557</ele>
        <time>2025-12-29T09:46:37Z</time>
      </trkpt>
      <trkpt lat="43.0987" lon="0.44096">
        <ele>557.4</ele>
        <time>2025-12-29T09:46:38Z</time>
      </trkpt>
      <trkpt lat="43.0987" lon="0.44093">
        <ele>557.4</ele>
        <time>2025-12-29T09:46:39Z</time>
      </trkpt>
      <trkpt lat="43.09871" lon="0.44089">
        <ele>557.4</ele>
        <time>2025-12-29T09:46:40Z</time>
      </trkpt>
      <trkpt lat="43.09871" lon="0.44086">
        <ele>558</ele>
        <time>2025-12-29T09:46:41Z</time>
      </trkpt>
      <trkpt lat="43.09872" lon="0.44083">
        <ele>558</ele>
        <time>2025-12-29T09:46:42Z</time>
      </trkpt>
      <trkpt lat="43.09872" lon="0.44082">
        <ele>558</ele>
        <time>2025-12-29T09:46:43Z</time>
      </trkpt>
      <trkpt lat="43.09872" lon="0.44078">
        <ele>558</ele>
        <time>2025-12-29T09:46:44Z</time>
      </trkpt>
      <trkpt lat="43.09872" lon="0.44075">
        <ele>558.2</ele>
        <time>2025-12-29T09:46:45Z</time>
      </trkpt>
      <trkpt lat="43.09872" lon="0.44072">
        <ele>558.4</ele>
        <time>2025-12-29T09:46:46Z</time>
      </trkpt>
      <trkpt lat="43.09872" lon="0.44069">
        <ele>558.4</ele>
        <time>2025-12-29T09:46:47Z</time>
      </trkpt>
      <trkpt lat="43.09872" lon="0.44065">
        <ele>558.4</ele>
        <time>2025-12-29T09:46:48Z</time>
      </trkpt>
      <trkpt lat="43.09871" lon="0.44061">
        <ele>558.4</ele>
        <time>2025-12-29T09:46:49Z</time>
      </trkpt>
      <trkpt lat="43.09871" lon="0.44058">
        <ele>558.8</ele>
        <time>2025-12-29T09:46:50Z</time>
      </trkpt>
      <trkpt lat="43.09871" lon="0.44054">
        <ele>558.8</ele>
        <time>2025-12-29T09:46:51Z</time>
      </trkpt>
      <trkpt lat="43.09871" lon="0.4405">
        <ele>558.8</ele>
        <time>2025-12-29T09:46:52Z</time>
      </trkpt>
      <trkpt lat="43.0987" lon="0.44047">
        <ele>559.8</ele>
        <time>2025-12-29T09:46:53Z</time>
      </trkpt>
      <trkpt lat="43.0987" lon="0.44043">
        <ele>559.8</ele>
        <time>2025-12-29T09:46:54Z</time>
      </trkpt>
      <trkpt lat="43.0987" lon="0.4404">
        <ele>559.8</ele>
        <time>2025-12-29T09:46:55Z</time>
      </trkpt>
      <trkpt lat="43.0987" lon="0.44036">
        <ele>559.8</ele>
        <time>2025-12-29T09:46:56Z</time>
      </trkpt>
      <trkpt lat="43.0987" lon="0.44032">
        <ele>559.8</ele>
        <time>2025-12-29T09:46:57Z</time>
      </trkpt>
      <trkpt lat="43.0987" lon="0.44028">
        <ele>560.6</ele>
        <time>2025-12-29T09:46:58Z</time>
      </trkpt>
      <trkpt lat="43.0987" lon="0.44025">
        <ele>560.6</ele>
        <time>2025-12-29T09:46:59Z</time>
      </trkpt>
      <trkpt lat="43.09869" lon="0.44022">
        <ele>560.6</ele>
        <time>2025-12-29T09:47:00Z</time>
      </trkpt>
      <trkpt lat="43.09869" lon="0.44019">
        <ele>560.6</ele>
        <time>2025-12-29T09:47:01Z</time>
      </trkpt>
      <trkpt lat="43.09868" lon="0.44016">
        <ele>561.2</ele>
        <time>2025-12-29T09:47:02Z</time>
      </trkpt>
      <trkpt lat="43.09867" lon="0.44012">
        <ele>561.2</ele>
        <time>2025-12-29T09:47:03Z</time>
      </trkpt>
      <trkpt lat="43.09867" lon="0.44009">
        <ele>561.2</ele>
        <time>2025-12-29T09:47:04Z</time>
      </trkpt>
      <trkpt lat="43.09866" lon="0.44006">
        <ele>561.2</ele>
        <time>2025-12-29T09:47:05Z</time>
      </trkpt>
      <trkpt lat="43.09866" lon="0.44002">
        <ele>561</ele>
        <time>2025-12-29T09:47:06Z</time>
      </trkpt>
      <trkpt lat="43.09866" lon="0.43999">
        <ele>561</ele>
        <time>2025-12-29T09:47:07Z</time>
      </trkpt>
      <trkpt lat="43.09866" lon="0.43996">
        <ele>561</ele>
        <time>2025-12-29T09:47:08Z</time>
      </trkpt>
      <trkpt lat="43.09866" lon="0.43993">
        <ele>561.4</ele>
        <time>2025-12-29T09:47:09Z</time>
      </trkpt>
      <trkpt lat="43.09865" lon="0.4399">
        <ele>562.2</ele>
        <time>2025-12-29T09:47:10Z</time>
      </trkpt>
      <trkpt lat="43.09865" lon="0.43987">
        <ele>562.2</ele>
        <time>2025-12-29T09:47:11Z</time>
      </trkpt>
      <trkpt lat="43.09864" lon="0.43984">
        <ele>562.2</ele>
        <time>2025-12-29T09:47:12Z</time>
      </trkpt>
      <trkpt lat="43.09863" lon="0.4398">
        <ele>562.2</ele>
        <time>2025-12-29T09:47:13Z</time>
      </trkpt>
      <trkpt lat="43.09863" lon="0.43977">
        <ele>562.4</ele>
        <time>2025-12-29T09:47:14Z</time>
      </trkpt>
      <trkpt lat="43.09862" lon="0.43974">
        <ele>562.4</ele>
        <time>2025-12-29T09:47:15Z</time>
      </trkpt>
      <trkpt lat="43.09862" lon="0.43971">
        <ele>562.4</ele>
        <time>2025-12-29T09:47:16Z</time>
      </trkpt>
      <trkpt lat="43.09861" lon="0.43967">
        <ele>562.4</ele>
        <time>2025-12-29T09:47:17Z</time>
      </trkpt>
      <trkpt lat="43.0986" lon="0.43965">
        <ele>563</ele>
        <time>2025-12-29T09:47:18Z</time>
      </trkpt>
      <trkpt lat="43.09859" lon="0.43962">
        <ele>563</ele>
        <time>2025-12-29T09:47:19Z</time>
      </trkpt>
      <trkpt lat="43.09859" lon="0.4396">
        <ele>563</ele>
        <time>2025-12-29T09:47:20Z</time>
      </trkpt>
      <trkpt lat="43.09859" lon="0.43957">
        <ele>563</ele>
        <time>2025-12-29T09:47:21Z</time>
      </trkpt>
      <trkpt lat="43.09858" lon="0.43954">
        <ele>563.4</ele>
        <time>2025-12-29T09:47:22Z</time>
      </trkpt>
      <trkpt lat="43.09858" lon="0.43951">
        <ele>563.4</ele>
        <time>2025-12-29T09:47:23Z</time>
      </trkpt>
      <trkpt lat="43.09858" lon="0.43949">
        <ele>563.4</ele>
        <time>2025-12-29T09:47:24Z</time>
      </trkpt>
      <trkpt lat="43.09857" lon="0.43946">
        <ele>564.4</ele>
        <time>2025-12-29T09:47:25Z</time>
      </trkpt>
      <trkpt lat="43.09857" lon="0.43944">
        <ele>563.8</ele>
        <time>2025-12-29T09:47:26Z</time>
      </trkpt>
      <trkpt lat="43.09857" lon="0.43941">
        <ele>563.8</ele>
        <time>2025-12-29T09:47:27Z</time>
      </trkpt>
      <trkpt lat="43.09856" lon="0.43938">
        <ele>563.8</ele>
        <time>2025-12-29T09:47:28Z</time>
      </trkpt>
      <trkpt lat="43.09855" lon="0.43934">
        <ele>563.8</ele>
        <time>2025-12-29T09:47:29Z</time>
      </trkpt>
      <trkpt lat="43.09854" lon="0.4393">
        <ele>564.6</ele>
        <time>2025-12-29T09:47:30Z</time>
      </trkpt>
      <trkpt lat="43.09853" lon="0.43926">
        <ele>564.6</ele>
        <time>2025-12-29T09:47:31Z</time>
      </trkpt>
      <trkpt lat="43.09853" lon="0.43924">
        <ele>564.6</ele>
        <time>2025-12-29T09:47:32Z</time>
      </trkpt>
      <trkpt lat="43.09852" lon="0.43921">
        <ele>565.2</ele>
        <time>2025-12-29T09:47:33Z</time>
      </trkpt>
      <trkpt lat="43.09852" lon="0.43918">
        <ele>565.2</ele>
        <time>2025-12-29T09:47:34Z</time>
      </trkpt>
      <trkpt lat="43.09851" lon="0.43915">
        <ele>565.2</ele>
        <time>2025-12-29T09:47:35Z</time>
      </trkpt>
      <trkpt lat="43.0985" lon="0.43912">
        <ele>565.2</ele>
        <time>2025-12-29T09:47:36Z</time>
      </trkpt>
      <trkpt lat="43.09849" lon="0.43908">
        <ele>566</ele>
        <time>2025-12-29T09:47:37Z</time>
      </trkpt>
      <trkpt lat="43.09848" lon="0.43905">
        <ele>565.8</ele>
        <time>2025-12-29T09:47:38Z</time>
      </trkpt>
      <trkpt lat="43.09848" lon="0.43901">
        <ele>565.8</ele>
        <time>2025-12-29T09:47:39Z</time>
      </trkpt>
      <trkpt lat="43.09848" lon="0.43898">
        <ele>565.8</ele>
        <time>2025-12-29T09:47:40Z</time>
      </trkpt>
      <trkpt lat="43.09848" lon="0.43895">
        <ele>566.2</ele>
        <time>2025-12-29T09:47:41Z</time>
      </trkpt>
      <trkpt lat="43.09847" lon="0.43892">
        <ele>566</ele>
        <time>2025-12-29T09:47:42Z</time>
      </trkpt>
      <trkpt lat="43.09846" lon="0.4389">
        <ele>566</ele>
        <time>2025-12-29T09:47:43Z</time>
      </trkpt>
      <trkpt lat="43.09846" lon="0.43887">
        <ele>566</ele>
        <time>2025-12-29T09:47:44Z</time>
      </trkpt>
      <trkpt lat="43.09846" lon="0.43883">
        <ele>566.4</ele>
        <time>2025-12-29T09:47:45Z</time>
      </trkpt>
      <trkpt lat="43.09848" lon="0.4388">
        <ele>566.8</ele>
        <time>2025-12-29T09:47:46Z</time>
      </trkpt>
      <trkpt lat="43.09849" lon="0.43878">
        <ele>566.8</ele>
        <time>2025-12-29T09:47:47Z</time>
      </trkpt>
      <trkpt lat="43.09849" lon="0.43875">
        <ele>566.8</ele>
        <time>2025-12-29T09:47:48Z</time>
      </trkpt>
      <trkpt lat="43.0985" lon="0.43872">
        <ele>567.6</ele>
        <time>2025-12-29T09:47:49Z</time>
      </trkpt>
      <trkpt lat="43.09851" lon="0.43869">
        <ele>567.4</ele>
        <time>2025-12-29T09:47:50Z</time>
      </trkpt>
      <trkpt lat="43.09853" lon="0.43866">
        <ele>567.4</ele>
        <time>2025-12-29T09:47:51Z</time>
      </trkpt>
      <trkpt lat="43.09854" lon="0.43863">
        <ele>567.4</ele>
        <time>2025-12-29T09:47:52Z</time>
      </trkpt>
      <trkpt lat="43.09855" lon="0.4386">
        <ele>567.4</ele>
        <time>2025-12-29T09:47:53Z</time>
      </trkpt>
      <trkpt lat="43.09856" lon="0.43857">
        <ele>568.6</ele>
        <time>2025-12-29T09:47:54Z</time>
      </trkpt>
      <trkpt lat="43.09858" lon="0.43854">
        <ele>568.6</ele>
        <time>2025-12-29T09:47:55Z</time>
      </trkpt>
      <trkpt lat="43.09859" lon="0.43851">
        <ele>568.6</ele>
        <time>2025-12-29T09:47:56Z</time>
      </trkpt>
      <trkpt lat="43.0986" lon="0.43849">
        <ele>568.4</ele>
        <time>2025-12-29T09:47:57Z</time>
      </trkpt>
      <trkpt lat="43.09862" lon="0.43846">
        <ele>569.2</ele>
        <time>2025-12-29T09:47:58Z</time>
      </trkpt>
      <trkpt lat="43.09864" lon="0.43844">
        <ele>569.2</ele>
        <time>2025-12-29T09:47:59Z</time>
      </trkpt>
      <trkpt lat="43.09866" lon="0.43843">
        <ele>569.2</ele>
        <time>2025-12-29T09:48:00Z</time>
      </trkpt>
      <trkpt lat="43.09868" lon="0.43842">
        <ele>569.2</ele>
        <time>2025-12-29T09:48:01Z</time>
      </trkpt>
      <trkpt lat="43.0987" lon="0.43841">
        <ele>569.6</ele>
        <time>2025-12-29T09:48:02Z</time>
      </trkpt>
      <trkpt lat="43.09872" lon="0.4384">
        <ele>569.6</ele>
        <time>2025-12-29T09:48:03Z</time>
      </trkpt>
      <trkpt lat="43.09874" lon="0.4384">
        <ele>569.6</ele>
        <time>2025-12-29T09:48:04Z</time>
      </trkpt>
      <trkpt lat="43.09876" lon="0.4384">
        <ele>570</ele>
        <time>2025-12-29T09:48:05Z</time>
      </trkpt>
      <trkpt lat="43.09878" lon="0.4384">
        <ele>570.6</ele>
        <time>2025-12-29T09:48:06Z</time>
      </trkpt>
      <trkpt lat="43.0988" lon="0.4384">
        <ele>570.6</ele>
        <time>2025-12-29T09:48:07Z</time>
      </trkpt>
      <trkpt lat="43.09882" lon="0.4384">
        <ele>570.6</ele>
        <time>2025-12-29T09:48:08Z</time>
      </trkpt>
      <trkpt lat="43.09884" lon="0.43841">
        <ele>570.6</ele>
        <time>2025-12-29T09:48:09Z</time>
      </trkpt>
      <trkpt lat="43.09886" lon="0.43842">
        <ele>570.2</ele>
        <time>2025-12-29T09:48:10Z</time>
      </trkpt>
      <trkpt lat="43.09888" lon="0.43843">
        <ele>570.2</ele>
        <time>2025-12-29T09:48:11Z</time>
      </trkpt>
      <trkpt lat="43.0989" lon="0.43844">
        <ele>570.2</ele>
        <time>2025-12-29T09:48:12Z</time>
      </trkpt>
      <trkpt lat="43.09891" lon="0.43845">
        <ele>571.2</ele>
        <time>2025-12-29T09:48:13Z</time>
      </trkpt>
      <trkpt lat="43.09893" lon="0.43846">
        <ele>571.6</ele>
        <time>2025-12-29T09:48:14Z</time>
      </trkpt>
      <trkpt lat="43.09894" lon="0.43848">
        <ele>571.6</ele>
        <time>2025-12-29T09:48:15Z</time>
      </trkpt>
      <trkpt lat="43.09896" lon="0.4385">
        <ele>571.6</ele>
        <time>2025-12-29T09:48:16Z</time>
      </trkpt>
      <trkpt lat="43.09897" lon="0.43851">
        <ele>572.6</ele>
        <time>2025-12-29T09:48:17Z</time>
      </trkpt>
      <trkpt lat="43.09898" lon="0.43853">
        <ele>572.4</ele>
        <time>2025-12-29T09:48:18Z</time>
      </trkpt>
      <trkpt lat="43.09899" lon="0.43855">
        <ele>572.4</ele>
        <time>2025-12-29T09:48:19Z</time>
      </trkpt>
      <trkpt lat="43.099" lon="0.43857">
        <ele>572.4</ele>
        <time>2025-12-29T09:48:20Z</time>
      </trkpt>
      <trkpt lat="43.09901" lon="0.4386">
        <ele>573.4</ele>
        <time>2025-12-29T09:48:21Z</time>
      </trkpt>
      <trkpt lat="43.09902" lon="0.43862">
        <ele>573.6</ele>
        <time>2025-12-29T09:48:22Z</time>
      </trkpt>
      <trkpt lat="43.09903" lon="0.43865">
        <ele>573.6</ele>
        <time>2025-12-29T09:48:23Z</time>
      </trkpt>
      <trkpt lat="43.09904" lon="0.43867">
        <ele>573.6</ele>
        <time>2025-12-29T09:48:24Z</time>
      </trkpt>
      <trkpt lat="43.09904" lon="0.43869">
        <ele>573.6</ele>
        <time>2025-12-29T09:48:25Z</time>
      </trkpt>
      <trkpt lat="43.09905" lon="0.43872">
        <ele>573.6</ele>
        <time>2025-12-29T09:48:26Z</time>
      </trkpt>
      <trkpt lat="43.09906" lon="0.43874">
        <ele>573.6</ele>
        <time>2025-12-29T09:48:27Z</time>
      </trkpt>
      <trkpt lat="43.09906" lon="0.43877">
        <ele>573.6</ele>
        <time>2025-12-29T09:48:28Z</time>
      </trkpt>
      <trkpt lat="43.09907" lon="0.4388">
        <ele>574</ele>
        <time>2025-12-29T09:48:29Z</time>
      </trkpt>
      <trkpt lat="43.09907" lon="0.43882">
        <ele>574.2</ele>
        <time>2025-12-29T09:48:30Z</time>
      </trkpt>
      <trkpt lat="43.09908" lon="0.43885">
        <ele>574.2</ele>
        <time>2025-12-29T09:48:31Z</time>
      </trkpt>
      <trkpt lat="43.09908" lon="0.43888">
        <ele>574.2</ele>
        <time>2025-12-29T09:48:32Z</time>
      </trkpt>
      <trkpt lat="43.09908" lon="0.4389">
        <ele>574.8</ele>
        <time>2025-12-29T09:48:33Z</time>
      </trkpt>
      <trkpt lat="43.09909" lon="0.43893">
        <ele>575.4</ele>
        <time>2025-12-29T09:48:34Z</time>
      </trkpt>
      <trkpt lat="43.09909" lon="0.43895">
        <ele>575.4</ele>
        <time>2025-12-29T09:48:35Z</time>
      </trkpt>
      <trkpt lat="43.0991" lon="0.43898">
        <ele>575.4</ele>
        <time>2025-12-29T09:48:36Z</time>
      </trkpt>
      <trkpt lat="43.0991" lon="0.43901">
        <ele>575.4</ele>
        <time>2025-12-29T09:48:37Z</time>
      </trkpt>
      <trkpt lat="43.09911" lon="0.43904">
        <ele>575.2</ele>
        <time>2025-12-29T09:48:38Z</time>
      </trkpt>
      <trkpt lat="43.09911" lon="0.43907">
        <ele>575.2</ele>
        <time>2025-12-29T09:48:39Z</time>
      </trkpt>
      <trkpt lat="43.09911" lon="0.43909">
        <ele>575.2</ele>
        <time>2025-12-29T09:48:40Z</time>
      </trkpt>
      <trkpt lat="43.09912" lon="0.43912">
        <ele>575.2</ele>
        <time>2025-12-29T09:48:41Z</time>
      </trkpt>
      <trkpt lat="43.09912" lon="0.43915">
        <ele>575.8</ele>
        <time>2025-12-29T09:48:42Z</time>
      </trkpt>
      <trkpt lat="43.09913" lon="0.43918">
        <ele>575.8</ele>
        <time>2025-12-29T09:48:43Z</time>
      </trkpt>
      <trkpt lat="43.09913" lon="0.4392">
        <ele>575.8</ele>
        <time>2025-12-29T09:48:44Z</time>
      </trkpt>
      <trkpt lat="43.09914" lon="0.43923">
        <ele>576.6</ele>
        <time>2025-12-29T09:48:45Z</time>
      </trkpt>
      <trkpt lat="43.09914" lon="0.43926">
        <ele>576.4</ele>
        <time>2025-12-29T09:48:46Z</time>
      </trkpt>
      <trkpt lat="43.09914" lon="0.43928">
        <ele>576.4</ele>
        <time>2025-12-29T09:48:47Z</time>
      </trkpt>
      <trkpt lat="43.09915" lon="0.43931">
        <ele>576.4</ele>
        <time>2025-12-29T09:48:48Z</time>
      </trkpt>
      <trkpt lat="43.09915" lon="0.43934">
        <ele>576.4</ele>
        <time>2025-12-29T09:48:49Z</time>
      </trkpt>
      <trkpt lat="43.09916" lon="0.43937">
        <ele>577</ele>
        <time>2025-12-29T09:48:50Z</time>
      </trkpt>
      <trkpt lat="43.09916" lon="0.4394">
        <ele>577</ele>
        <time>2025-12-29T09:48:51Z</time>
      </trkpt>
      <trkpt lat="43.09917" lon="0.43942">
        <ele>577</ele>
        <time>2025-12-29T09:48:52Z</time>
      </trkpt>
      <trkpt lat="43.09917" lon="0.43945">
        <ele>577</ele>
        <time>2025-12-29T09:48:53Z</time>
      </trkpt>
      <trkpt lat="43.09918" lon="0.43948">
        <ele>578.2</ele>
        <time>2025-12-29T09:48:54Z</time>
      </trkpt>
      <trkpt lat="43.09919" lon="0.43951">
        <ele>578.2</ele>
        <time>2025-12-29T09:48:55Z</time>
      </trkpt>
      <trkpt lat="43.09919" lon="0.43954">
        <ele>578.2</ele>
        <time>2025-12-29T09:48:56Z</time>
      </trkpt>
      <trkpt lat="43.0992" lon="0.43956">
        <ele>578.2</ele>
        <time>2025-12-29T09:48:57Z</time>
      </trkpt>
      <trkpt lat="43.09921" lon="0.43959">
        <ele>578.8</ele>
        <time>2025-12-29T09:48:58Z</time>
      </trkpt>
      <trkpt lat="43.09922" lon="0.43962">
        <ele>578.8</ele>
        <time>2025-12-29T09:48:59Z</time>
      </trkpt>
      <trkpt lat="43.09923" lon="0.43964">
        <ele>578.8</ele>
        <time>2025-12-29T09:49:00Z</time>
      </trkpt>
      <trkpt lat="43.09924" lon="0.43967">
        <ele>578.8</ele>
        <time>2025-12-29T09:49:01Z</time>
      </trkpt>
      <trkpt lat="43.09925" lon="0.43969">
        <ele>579</ele>
        <time>2025-12-29T09:49:02Z</time>
      </trkpt>
      <trkpt lat="43.09926" lon="0.43972">
        <ele>579</ele>
        <time>2025-12-29T09:49:03Z</time>
      </trkpt>
      <trkpt lat="43.09927" lon="0.43974">
        <ele>579</ele>
        <time>2025-12-29T09:49:04Z</time>
      </trkpt>
      <trkpt lat="43.09928" lon="0.43977">
        <ele>579.8</ele>
        <time>2025-12-29T09:49:05Z</time>
      </trkpt>
      <trkpt lat="43.09929" lon="0.43979">
        <ele>580</ele>
        <time>2025-12-29T09:49:06Z</time>
      </trkpt>
      <trkpt lat="43.0993" lon="0.43982">
        <ele>580</ele>
        <time>2025-12-29T09:49:07Z</time>
      </trkpt>
      <trkpt lat="43.09931" lon="0.43985">
        <ele>580</ele>
        <time>2025-12-29T09:49:08Z</time>
      </trkpt>
      <trkpt lat="43.09932" lon="0.43987">
        <ele>580</ele>
        <time>2025-12-29T09:49:09Z</time>
      </trkpt>
      <trkpt lat="43.09933" lon="0.4399">
        <ele>580.2</ele>
        <time>2025-12-29T09:49:10Z</time>
      </trkpt>
      <trkpt lat="43.09935" lon="0.43992">
        <ele>580.2</ele>
        <time>2025-12-29T09:49:11Z</time>
      </trkpt>
      <trkpt lat="43.09936" lon="0.43995">
        <ele>580.2</ele>
        <time>2025-12-29T09:49:12Z</time>
      </trkpt>
      <trkpt lat="43.09937" lon="0.43997">
        <ele>580.6</ele>
        <time>2025-12-29T09:49:13Z</time>
      </trkpt>
      <trkpt lat="43.09939" lon="0.43999">
        <ele>581</ele>
        <time>2025-12-29T09:49:14Z</time>
      </trkpt>
      <trkpt lat="43.0994" lon="0.44002">
        <ele>581</ele>
        <time>2025-12-29T09:49:15Z</time>
      </trkpt>
      <trkpt lat="43.09941" lon="0.44004">
        <ele>581</ele>
        <time>2025-12-29T09:49:16Z</time>
      </trkpt>
      <trkpt lat="43.09942" lon="0.44006">
        <ele>581.8</ele>
        <time>2025-12-29T09:49:17Z</time>
      </trkpt>
      <trkpt lat="43.09943" lon="0.44008">
        <ele>581.8</ele>
        <time>2025-12-29T09:49:18Z</time>
      </trkpt>
      <trkpt lat="43.09945" lon="0.4401">
        <ele>581.8</ele>
        <time>2025-12-29T09:49:19Z</time>
      </trkpt>
      <trkpt lat="43.09947" lon="0.44012">
        <ele>581.8</ele>
        <time>2025-12-29T09:49:20Z</time>
      </trkpt>
      <trkpt lat="43.09948" lon="0.44015">
        <ele>581.8</ele>
        <time>2025-12-29T09:49:21Z</time>
      </trkpt>
      <trkpt lat="43.0995" lon="0.44017">
        <ele>580.4</ele>
        <time>2025-12-29T09:49:22Z</time>
      </trkpt>
      <trkpt lat="43.09951" lon="0.4402">
        <ele>580.4</ele>
        <time>2025-12-29T09:49:23Z</time>
      </trkpt>
      <trkpt lat="43.09953" lon="0.44023">
        <ele>580.4</ele>
        <time>2025-12-29T09:49:24Z</time>
      </trkpt>
      <trkpt lat="43.09954" lon="0.44026">
        <ele>581.2</ele>
        <time>2025-12-29T09:49:25Z</time>
      </trkpt>
      <trkpt lat="43.09956" lon="0.4403">
        <ele>581.2</ele>
        <time>2025-12-29T09:49:26Z</time>
      </trkpt>
      <trkpt lat="43.09957" lon="0.44034">
        <ele>581.2</ele>
        <time>2025-12-29T09:49:27Z</time>
      </trkpt>
      <trkpt lat="43.09958" lon="0.44038">
        <ele>581.2</ele>
        <time>2025-12-29T09:49:28Z</time>
      </trkpt>
      <trkpt lat="43.09959" lon="0.44042">
        <ele>581.2</ele>
        <time>2025-12-29T09:49:29Z</time>
      </trkpt>
      <trkpt lat="43.0996" lon="0.44046">
        <ele>581</ele>
        <time>2025-12-29T09:49:30Z</time>
      </trkpt>
      <trkpt lat="43.09961" lon="0.4405">
        <ele>581</ele>
        <time>2025-12-29T09:49:31Z</time>
      </trkpt>
      <trkpt lat="43.09961" lon="0.44054">
        <ele>581</ele>
        <time>2025-12-29T09:49:32Z</time>
      </trkpt>
      <trkpt lat="43.09962" lon="0.44058">
        <ele>581</ele>
        <time>2025-12-29T09:49:33Z</time>
      </trkpt>
      <trkpt lat="43.09962" lon="0.44062">
        <ele>581.4</ele>
        <time>2025-12-29T09:49:34Z</time>
      </trkpt>
      <trkpt lat="43.09962" lon="0.44066">
        <ele>581.4</ele>
        <time>2025-12-29T09:49:35Z</time>
      </trkpt>
      <trkpt lat="43.09962" lon="0.44071">
        <ele>581.4</ele>
        <time>2025-12-29T09:49:36Z</time>
      </trkpt>
      <trkpt lat="43.09962" lon="0.44075">
        <ele>581.4</ele>
        <time>2025-12-29T09:49:37Z</time>
      </trkpt>
      <trkpt lat="43.09962" lon="0.44079">
        <ele>581.8</ele>
        <time>2025-12-29T09:49:38Z</time>
      </trkpt>
      <trkpt lat="43.09962" lon="0.44084">
        <ele>581.8</ele>
        <time>2025-12-29T09:49:39Z</time>
      </trkpt>
      <trkpt lat="43.09962" lon="0.44089">
        <ele>581.8</ele>
        <time>2025-12-29T09:49:40Z</time>
      </trkpt>
      <trkpt lat="43.09962" lon="0.44093">
        <ele>581.8</ele>
        <time>2025-12-29T09:49:41Z</time>
      </trkpt>
      <trkpt lat="43.09962" lon="0.44097">
        <ele>581.6</ele>
        <time>2025-12-29T09:49:42Z</time>
      </trkpt>
      <trkpt lat="43.09963" lon="0.44102">
        <ele>581.6</ele>
        <time>2025-12-29T09:49:43Z</time>
      </trkpt>
      <trkpt lat="43.09963" lon="0.44106">
        <ele>581.6</ele>
        <time>2025-12-29T09:49:44Z</time>
      </trkpt>
      <trkpt lat="43.09963" lon="0.44111">
        <ele>581.6</ele>
        <time>2025-12-29T09:49:45Z</time>
      </trkpt>
      <trkpt lat="43.09963" lon="0.44115">
        <ele>582.4</ele>
        <time>2025-12-29T09:49:46Z</time>
      </trkpt>
      <trkpt lat="43.09964" lon="0.4412">
        <ele>582.4</ele>
        <time>2025-12-29T09:49:47Z</time>
      </trkpt>
      <trkpt lat="43.09964" lon="0.44124">
        <ele>582.4</ele>
        <time>2025-12-29T09:49:48Z</time>
      </trkpt>
      <trkpt lat="43.09965" lon="0.44128">
        <ele>582.4</ele>
        <time>2025-12-29T09:49:49Z</time>
      </trkpt>
      <trkpt lat="43.09965" lon="0.44132">
        <ele>582.4</ele>
        <time>2025-12-29T09:49:50Z</time>
      </trkpt>
      <trkpt lat="43.09966" lon="0.44136">
        <ele>582.4</ele>
        <time>2025-12-29T09:49:51Z</time>
      </trkpt>
      <trkpt lat="43.09967" lon="0.4414">
        <ele>582.4</ele>
        <time>2025-12-29T09:49:52Z</time>
      </trkpt>
      <trkpt lat="43.09969" lon="0.44144">
        <ele>582.4</ele>
        <time>2025-12-29T09:49:53Z</time>
      </trkpt>
      <trkpt lat="43.0997" lon="0.44148">
        <ele>582.8</ele>
        <time>2025-12-29T09:49:54Z</time>
      </trkpt>
      <trkpt lat="43.09971" lon="0.44151">
        <ele>582.8</ele>
        <time>2025-12-29T09:49:55Z</time>
      </trkpt>
      <trkpt lat="43.09973" lon="0.44155">
        <ele>582.8</ele>
        <time>2025-12-29T09:49:56Z</time>
      </trkpt>
      <trkpt lat="43.09975" lon="0.44158">
        <ele>583.4</ele>
        <time>2025-12-29T09:49:57Z</time>
      </trkpt>
      <trkpt lat="43.09976" lon="0.44161">
        <ele>583.4</ele>
        <time>2025-12-29T09:49:58Z</time>
      </trkpt>
      <trkpt lat="43.09978" lon="0.44164">
        <ele>583.4</ele>
        <time>2025-12-29T09:49:59Z</time>
      </trkpt>
      <trkpt lat="43.0998" lon="0.44167">
        <ele>583.4</ele>
        <time>2025-12-29T09:50:00Z</time>
      </trkpt>
      <trkpt lat="43.09982" lon="0.44169">
        <ele>583.6</ele>
        <time>2025-12-29T09:50:01Z</time>
      </trkpt>
      <trkpt lat="43.09984" lon="0.44172">
        <ele>584.8</ele>
        <time>2025-12-29T09:50:02Z</time>
      </trkpt>
      <trkpt lat="43.09987" lon="0.44174">
        <ele>584.8</ele>
        <time>2025-12-29T09:50:03Z</time>
      </trkpt>
      <trkpt lat="43.09989" lon="0.44175">
        <ele>584.8</ele>
        <time>2025-12-29T09:50:04Z</time>
      </trkpt>
      <trkpt lat="43.09992" lon="0.44177">
        <ele>584.8</ele>
        <time>2025-12-29T09:50:05Z</time>
      </trkpt>
      <trkpt lat="43.09994" lon="0.44179">
        <ele>585</ele>
        <time>2025-12-29T09:50:06Z</time>
      </trkpt>
      <trkpt lat="43.09996" lon="0.44181">
        <ele>585</ele>
        <time>2025-12-29T09:50:07Z</time>
      </trkpt>
      <trkpt lat="43.09999" lon="0.44182">
        <ele>585</ele>
        <time>2025-12-29T09:50:08Z</time>
      </trkpt>
      <trkpt lat="43.10002" lon="0.44183">
        <ele>585.2</ele>
        <time>2025-12-29T09:50:09Z</time>
      </trkpt>
      <trkpt lat="43.10004" lon="0.44184">
        <ele>585.6</ele>
        <time>2025-12-29T09:50:10Z</time>
      </trkpt>
      <trkpt lat="43.10007" lon="0.44184">
        <ele>585.6</ele>
        <time>2025-12-29T09:50:11Z</time>
      </trkpt>
      <trkpt lat="43.1001" lon="0.44185">
        <ele>585.6</ele>
        <time>2025-12-29T09:50:12Z</time>
      </trkpt>
      <trkpt lat="43.10012" lon="0.44186">
        <ele>586.6</ele>
        <time>2025-12-29T09:50:13Z</time>
      </trkpt>
      <trkpt lat="43.10015" lon="0.44187">
        <ele>586.6</ele>
        <time>2025-12-29T09:50:14Z</time>
      </trkpt>
      <trkpt lat="43.10018" lon="0.44187">
        <ele>586.6</ele>
        <time>2025-12-29T09:50:15Z</time>
      </trkpt>
      <trkpt lat="43.1002" lon="0.44188">
        <ele>586.6</ele>
        <time>2025-12-29T09:50:16Z</time>
      </trkpt>
      <trkpt lat="43.10023" lon="0.44188">
        <ele>587.2</ele>
        <time>2025-12-29T09:50:17Z</time>
      </trkpt>
      <trkpt lat="43.10025" lon="0.44188">
        <ele>588</ele>
        <time>2025-12-29T09:50:18Z</time>
      </trkpt>
      <trkpt lat="43.10028" lon="0.44188">
        <ele>588</ele>
        <time>2025-12-29T09:50:19Z</time>
      </trkpt>
      <trkpt lat="43.10031" lon="0.44188">
        <ele>588</ele>
        <time>2025-12-29T09:50:20Z</time>
      </trkpt>
      <trkpt lat="43.10033" lon="0.44188">
        <ele>588</ele>
        <time>2025-12-29T09:50:21Z</time>
      </trkpt>
      <trkpt lat="43.10036" lon="0.44188">
        <ele>587.8</ele>
        <time>2025-12-29T09:50:22Z</time>
      </trkpt>
      <trkpt lat="43.10039" lon="0.44187">
        <ele>587.8</ele>
        <time>2025-12-29T09:50:23Z</time>
      </trkpt>
      <trkpt lat="43.10041" lon="0.44187">
        <ele>587.8</ele>
        <time>2025-12-29T09:50:24Z</time>
      </trkpt>
      <trkpt lat="43.10044" lon="0.44187">
        <ele>587.8</ele>
        <time>2025-12-29T09:50:25Z</time>
      </trkpt>
      <trkpt lat="43.10046" lon="0.44187">
        <ele>588.8</ele>
        <time>2025-12-29T09:50:26Z</time>
      </trkpt>
      <trkpt lat="43.10049" lon="0.44187">
        <ele>588.8</ele>
        <time>2025-12-29T09:50:27Z</time>
      </trkpt>
      <trkpt lat="43.10051" lon="0.44186">
        <ele>588.8</ele>
        <time>2025-12-29T09:50:28Z</time>
      </trkpt>
      <trkpt lat="43.10054" lon="0.44186">
        <ele>588.6</ele>
        <time>2025-12-29T09:50:29Z</time>
      </trkpt>
      <trkpt lat="43.10056" lon="0.44186">
        <ele>588.4</ele>
        <time>2025-12-29T09:50:30Z</time>
      </trkpt>
      <trkpt lat="43.10059" lon="0.44186">
        <ele>588.4</ele>
        <time>2025-12-29T09:50:31Z</time>
      </trkpt>
      <trkpt lat="43.10062" lon="0.44185">
        <ele>588.4</ele>
        <time>2025-12-29T09:50:32Z</time>
      </trkpt>
      <trkpt lat="43.10065" lon="0.44185">
        <ele>588.8</ele>
        <time>2025-12-29T09:50:33Z</time>
      </trkpt>
      <trkpt lat="43.10067" lon="0.44184">
        <ele>589.2</ele>
        <time>2025-12-29T09:50:34Z</time>
      </trkpt>
      <trkpt lat="43.1007" lon="0.44183">
        <ele>589.2</ele>
        <time>2025-12-29T09:50:35Z</time>
      </trkpt>
      <trkpt lat="43.10073" lon="0.44183">
        <ele>589.2</ele>
        <time>2025-12-29T09:50:36Z</time>
      </trkpt>
      <trkpt lat="43.10075" lon="0.44182">
        <ele>589.2</ele>
        <time>2025-12-29T09:50:37Z</time>
      </trkpt>
      <trkpt lat="43.10078" lon="0.44181">
        <ele>589.4</ele>
        <time>2025-12-29T09:50:38Z</time>
      </trkpt>
      <trkpt lat="43.1008" lon="0.4418">
        <ele>589.4</ele>
        <time>2025-12-29T09:50:39Z</time>
      </trkpt>
      <trkpt lat="43.10083" lon="0.44179">
        <ele>589.4</ele>
        <time>2025-12-29T09:50:40Z</time>
      </trkpt>
      <trkpt lat="43.10085" lon="0.44178">
        <ele>589.6</ele>
        <time>2025-12-29T09:50:41Z</time>
      </trkpt>
      <trkpt lat="43.10088" lon="0.44178">
        <ele>589.8</ele>
        <time>2025-12-29T09:50:42Z</time>
      </trkpt>
      <trkpt lat="43.1009" lon="0.44177">
        <ele>589.8</ele>
        <time>2025-12-29T09:50:43Z</time>
      </trkpt>
      <trkpt lat="43.10092" lon="0.44176">
        <ele>589.8</ele>
        <time>2025-12-29T09:50:44Z</time>
      </trkpt>
      <trkpt lat="43.10095" lon="0.44176">
        <ele>589.2</ele>
        <time>2025-12-29T09:50:45Z</time>
      </trkpt>
      <trkpt lat="43.10097" lon="0.44175">
        <ele>589.8</ele>
        <time>2025-12-29T09:50:46Z</time>
      </trkpt>
      <trkpt lat="43.10099" lon="0.44174">
        <ele>589.8</ele>
        <time>2025-12-29T09:50:47Z</time>
      </trkpt>
      <trkpt lat="43.10102" lon="0.44174">
        <ele>589.8</ele>
        <time>2025-12-29T09:50:48Z</time>
      </trkpt>
      <trkpt lat="43.10105" lon="0.44173">
        <ele>589.8</ele>
        <time>2025-12-29T09:50:49Z</time>
      </trkpt>
      <trkpt lat="43.10108" lon="0.44172">
        <ele>590</ele>
        <time>2025-12-29T09:50:50Z</time>
      </trkpt>
      <trkpt lat="43.10111" lon="0.44171">
        <ele>590</ele>
        <time>2025-12-29T09:50:51Z</time>
      </trkpt>
      <trkpt lat="43.10114" lon="0.44171">
        <ele>590</ele>
        <time>2025-12-29T09:50:52Z</time>
      </trkpt>
      <trkpt lat="43.10118" lon="0.4417">
        <ele>589.4</ele>
        <time>2025-12-29T09:50:53Z</time>
      </trkpt>
      <trkpt lat="43.10121" lon="0.44169">
        <ele>590</ele>
        <time>2025-12-29T09:50:54Z</time>
      </trkpt>
      <trkpt lat="43.10123" lon="0.44168">
        <ele>590</ele>
        <time>2025-12-29T09:50:55Z</time>
      </trkpt>
      <trkpt lat="43.10126" lon="0.44167">
        <ele>590</ele>
        <time>2025-12-29T09:50:56Z</time>
      </trkpt>
      <trkpt lat="43.10129" lon="0.44166">
        <ele>589.8</ele>
        <time>2025-12-29T09:50:57Z</time>
      </trkpt>
      <trkpt lat="43.10132" lon="0.44166">
        <ele>589.8</ele>
        <time>2025-12-29T09:50:58Z</time>
      </trkpt>
      <trkpt lat="43.10135" lon="0.44165">
        <ele>589.8</ele>
        <time>2025-12-29T09:50:59Z</time>
      </trkpt>
      <trkpt lat="43.10138" lon="0.44165">
        <ele>589.8</ele>
        <time>2025-12-29T09:51:00Z</time>
      </trkpt>
      <trkpt lat="43.10141" lon="0.44164">
        <ele>589.8</ele>
        <time>2025-12-29T09:51:01Z</time>
      </trkpt>
      <trkpt lat="43.10144" lon="0.44163">
        <ele>589.4</ele>
        <time>2025-12-29T09:51:02Z</time>
      </trkpt>
      <trkpt lat="43.10147" lon="0.44163">
        <ele>589.4</ele>
        <time>2025-12-29T09:51:03Z</time>
      </trkpt>
      <trkpt lat="43.1015" lon="0.44162">
        <ele>589.4</ele>
        <time>2025-12-29T09:51:04Z</time>
      </trkpt>
      <trkpt lat="43.10153" lon="0.44162">
        <ele>589.4</ele>
        <time>2025-12-29T09:51:05Z</time>
      </trkpt>
      <trkpt lat="43.10156" lon="0.44162">
        <ele>590.2</ele>
        <time>2025-12-29T09:51:06Z</time>
      </trkpt>
      <trkpt lat="43.10159" lon="0.44161">
        <ele>590.2</ele>
        <time>2025-12-29T09:51:07Z</time>
      </trkpt>
      <trkpt lat="43.10162" lon="0.4416">
        <ele>590.2</ele>
        <time>2025-12-29T09:51:08Z</time>
      </trkpt>
      <trkpt lat="43.10165" lon="0.44159">
        <ele>590.2</ele>
        <time>2025-12-29T09:51:09Z</time>
      </trkpt>
      <trkpt lat="43.10169" lon="0.44158">
        <ele>590</ele>
        <time>2025-12-29T09:51:10Z</time>
      </trkpt>
      <trkpt lat="43.10172" lon="0.44156">
        <ele>590</ele>
        <time>2025-12-29T09:51:11Z</time>
      </trkpt>
      <trkpt lat="43.10175" lon="0.44155">
        <ele>590</ele>
        <time>2025-12-29T09:51:12Z</time>
      </trkpt>
      <trkpt lat="43.10178" lon="0.44153">
        <ele>590</ele>
        <time>2025-12-29T09:51:13Z</time>
      </trkpt>
      <trkpt lat="43.10182" lon="0.44152">
        <ele>589.6</ele>
        <time>2025-12-29T09:51:14Z</time>
      </trkpt>
      <trkpt lat="43.10186" lon="0.44151">
        <ele>589.6</ele>
        <time>2025-12-29T09:51:15Z</time>
      </trkpt>
      <trkpt lat="43.10189" lon="0.4415">
        <ele>589.6</ele>
        <time>2025-12-29T09:51:16Z</time>
      </trkpt>
      <trkpt lat="43.10193" lon="0.4415">
        <ele>589.6</ele>
        <time>2025-12-29T09:51:17Z</time>
      </trkpt>
      <trkpt lat="43.10196" lon="0.4415">
        <ele>590</ele>
        <time>2025-12-29T09:51:18Z</time>
      </trkpt>
      <trkpt lat="43.102" lon="0.44149">
        <ele>590</ele>
        <time>2025-12-29T09:51:19Z</time>
      </trkpt>
      <trkpt lat="43.10203" lon="0.44149">
        <ele>590</ele>
        <time>2025-12-29T09:51:20Z</time>
      </trkpt>
      <trkpt lat="43.10206" lon="0.44149">
        <ele>590.2</ele>
        <time>2025-12-29T09:51:21Z</time>
      </trkpt>
      <trkpt lat="43.1021" lon="0.44148">
        <ele>590.6</ele>
        <time>2025-12-29T09:51:22Z</time>
      </trkpt>
      <trkpt lat="43.10214" lon="0.44148">
        <ele>590.6</ele>
        <time>2025-12-29T09:51:23Z</time>
      </trkpt>
      <trkpt lat="43.10217" lon="0.44147">
        <ele>590.6</ele>
        <time>2025-12-29T09:51:24Z</time>
      </trkpt>
      <trkpt lat="43.10221" lon="0.44147">
        <ele>589.6</ele>
        <time>2025-12-29T09:51:25Z</time>
      </trkpt>
      <trkpt lat="43.10225" lon="0.44146">
        <ele>589.6</ele>
        <time>2025-12-29T09:51:26Z</time>
      </trkpt>
      <trkpt lat="43.10228" lon="0.44145">
        <ele>589.6</ele>
        <time>2025-12-29T09:51:27Z</time>
      </trkpt>
      <trkpt lat="43.10232" lon="0.44145">
        <ele>589.6</ele>
        <time>2025-12-29T09:51:28Z</time>
      </trkpt>
      <trkpt lat="43.10235" lon="0.44144">
        <ele>590.2</ele>
        <time>2025-12-29T09:51:29Z</time>
      </trkpt>
      <trkpt lat="43.10239" lon="0.44143">
        <ele>589.6</ele>
        <time>2025-12-29T09:51:30Z</time>
      </trkpt>
      <trkpt lat="43.10242" lon="0.44143">
        <ele>589.6</ele>
        <time>2025-12-29T09:51:31Z</time>
      </trkpt>
      <trkpt lat="43.10246" lon="0.44142">
        <ele>589.6</ele>
        <time>2025-12-29T09:51:32Z</time>
      </trkpt>
      <trkpt lat="43.10249" lon="0.44141">
        <ele>590.4</ele>
        <time>2025-12-29T09:51:33Z</time>
      </trkpt>
      <trkpt lat="43.10252" lon="0.44141">
        <ele>590.6</ele>
        <time>2025-12-29T09:51:34Z</time>
      </trkpt>
      <trkpt lat="43.10256" lon="0.4414">
        <ele>590.6</ele>
        <time>2025-12-29T09:51:35Z</time>
      </trkpt>
      <trkpt lat="43.10259" lon="0.44139">
        <ele>590.6</ele>
        <time>2025-12-29T09:51:36Z</time>
      </trkpt>
      <trkpt lat="43.10263" lon="0.44138">
        <ele>590.6</ele>
        <time>2025-12-29T09:51:37Z</time>
      </trkpt>
      <trkpt lat="43.10266" lon="0.44137">
        <ele>590.2</ele>
        <time>2025-12-29T09:51:38Z</time>
      </trkpt>
      <trkpt lat="43.10269" lon="0.44137">
        <ele>590.2</ele>
        <time>2025-12-29T09:51:39Z</time>
      </trkpt>
      <trkpt lat="43.10272" lon="0.44136">
        <ele>590.2</ele>
        <time>2025-12-29T09:51:40Z</time>
      </trkpt>
      <trkpt lat="43.10276" lon="0.44136">
        <ele>591</ele>
        <time>2025-12-29T09:51:41Z</time>
      </trkpt>
      <trkpt lat="43.10279" lon="0.44135">
        <ele>591.6</ele>
        <time>2025-12-29T09:51:42Z</time>
      </trkpt>
      <trkpt lat="43.10282" lon="0.44134">
        <ele>591.6</ele>
        <time>2025-12-29T09:51:43Z</time>
      </trkpt>
      <trkpt lat="43.10285" lon="0.44134">
        <ele>591.6</ele>
        <time>2025-12-29T09:51:44Z</time>
      </trkpt>
      <trkpt lat="43.10288" lon="0.44133">
        <ele>591.6</ele>
        <time>2025-12-29T09:51:45Z</time>
      </trkpt>
      <trkpt lat="43.10291" lon="0.44133">
        <ele>592.4</ele>
        <time>2025-12-29T09:51:46Z</time>
      </trkpt>
      <trkpt lat="43.10294" lon="0.44132">
        <ele>592.4</ele>
        <time>2025-12-29T09:51:47Z</time>
      </trkpt>
      <trkpt lat="43.10297" lon="0.44132">
        <ele>592.4</ele>
        <time>2025-12-29T09:51:48Z</time>
      </trkpt>
      <trkpt lat="43.103" lon="0.44131">
        <ele>592.4</ele>
        <time>2025-12-29T09:51:49Z</time>
      </trkpt>
      <trkpt lat="43.10303" lon="0.44131">
        <ele>593</ele>
        <time>2025-12-29T09:51:50Z</time>
      </trkpt>
      <trkpt lat="43.10307" lon="0.4413">
        <ele>593</ele>
        <time>2025-12-29T09:51:51Z</time>
      </trkpt>
      <trkpt lat="43.1031" lon="0.44129">
        <ele>593</ele>
        <time>2025-12-29T09:51:52Z</time>
      </trkpt>
      <trkpt lat="43.10313" lon="0.44129">
        <ele>593</ele>
        <time>2025-12-29T09:51:53Z</time>
      </trkpt>
      <trkpt lat="43.10316" lon="0.44128">
        <ele>592.2</ele>
        <time>2025-12-29T09:51:54Z</time>
      </trkpt>
      <trkpt lat="43.10319" lon="0.44128">
        <ele>592.2</ele>
        <time>2025-12-29T09:51:55Z</time>
      </trkpt>
      <trkpt lat="43.10322" lon="0.44127">
        <ele>592.2</ele>
        <time>2025-12-29T09:51:56Z</time>
      </trkpt>
      <trkpt lat="43.10325" lon="0.44126">
        <ele>592.2</ele>
        <time>2025-12-29T09:51:57Z</time>
      </trkpt>
      <trkpt lat="43.10328" lon="0.44126">
        <ele>593</ele>
        <time>2025-12-29T09:51:58Z</time>
      </trkpt>
      <trkpt lat="43.1033" lon="0.44125">
        <ele>593</ele>
        <time>2025-12-29T09:51:59Z</time>
      </trkpt>
      <trkpt lat="43.10333" lon="0.44124">
        <ele>593</ele>
        <time>2025-12-29T09:52:00Z</time>
      </trkpt>
      <trkpt lat="43.10336" lon="0.44124">
        <ele>593.4</ele>
        <time>2025-12-29T09:52:01Z</time>
      </trkpt>
      <trkpt lat="43.10339" lon="0.44124">
        <ele>593.4</ele>
        <time>2025-12-29T09:52:02Z</time>
      </trkpt>
      <trkpt lat="43.10342" lon="0.44123">
        <ele>593.4</ele>
        <time>2025-12-29T09:52:03Z</time>
      </trkpt>
      <trkpt lat="43.10345" lon="0.44123">
        <ele>593.4</ele>
        <time>2025-12-29T09:52:04Z</time>
      </trkpt>
      <trkpt lat="43.10348" lon="0.44122">
        <ele>593.4</ele>
        <time>2025-12-29T09:52:05Z</time>
      </trkpt>
      <trkpt lat="43.1035" lon="0.44121">
        <ele>594.4</ele>
        <time>2025-12-29T09:52:06Z</time>
      </trkpt>
      <trkpt lat="43.10353" lon="0.44121">
        <ele>594.4</ele>
        <time>2025-12-29T09:52:07Z</time>
      </trkpt>
      <trkpt lat="43.10356" lon="0.4412">
        <ele>594.4</ele>
        <time>2025-12-29T09:52:08Z</time>
      </trkpt>
      <trkpt lat="43.10359" lon="0.44119">
        <ele>595</ele>
        <time>2025-12-29T09:52:09Z</time>
      </trkpt>
      <trkpt lat="43.10361" lon="0.44119">
        <ele>594.4</ele>
        <time>2025-12-29T09:52:10Z</time>
      </trkpt>
      <trkpt lat="43.10364" lon="0.44118">
        <ele>594.4</ele>
        <time>2025-12-29T09:52:11Z</time>
      </trkpt>
      <trkpt lat="43.10367" lon="0.44117">
        <ele>594.4</ele>
        <time>2025-12-29T09:52:12Z</time>
      </trkpt>
      <trkpt lat="43.1037" lon="0.44117">
        <ele>594.4</ele>
        <time>2025-12-29T09:52:13Z</time>
      </trkpt>
      <trkpt lat="43.10372" lon="0.44116">
        <ele>595</ele>
        <time>2025-12-29T09:52:14Z</time>
      </trkpt>
      <trkpt lat="43.10375" lon="0.44116">
        <ele>595</ele>
        <time>2025-12-29T09:52:15Z</time>
      </trkpt>
      <trkpt lat="43.10378" lon="0.44115">
        <ele>595</ele>
        <time>2025-12-29T09:52:16Z</time>
      </trkpt>
      <trkpt lat="43.10381" lon="0.44115">
        <ele>596</ele>
        <time>2025-12-29T09:52:17Z</time>
      </trkpt>
      <trkpt lat="43.10384" lon="0.44114">
        <ele>596.6</ele>
        <time>2025-12-29T09:52:18Z</time>
      </trkpt>
      <trkpt lat="43.10387" lon="0.44114">
        <ele>596.6</ele>
        <time>2025-12-29T09:52:19Z</time>
      </trkpt>
      <trkpt lat="43.10389" lon="0.44113">
        <ele>596.6</ele>
        <time>2025-12-29T09:52:20Z</time>
      </trkpt>
      <trkpt lat="43.10392" lon="0.44112">
        <ele>596.6</ele>
        <time>2025-12-29T09:52:21Z</time>
      </trkpt>
      <trkpt lat="43.10395" lon="0.44112">
        <ele>596</ele>
        <time>2025-12-29T09:52:22Z</time>
      </trkpt>
      <trkpt lat="43.10398" lon="0.44112">
        <ele>596</ele>
        <time>2025-12-29T09:52:23Z</time>
      </trkpt>
      <trkpt lat="43.10401" lon="0.44111">
        <ele>596</ele>
        <time>2025-12-29T09:52:24Z</time>
      </trkpt>
      <trkpt lat="43.10404" lon="0.44111">
        <ele>596</ele>
        <time>2025-12-29T09:52:25Z</time>
      </trkpt>
      <trkpt lat="43.10407" lon="0.4411">
        <ele>597</ele>
        <time>2025-12-29T09:52:26Z</time>
      </trkpt>
      <trkpt lat="43.10409" lon="0.44109">
        <ele>597</ele>
        <time>2025-12-29T09:52:27Z</time>
      </trkpt>
      <trkpt lat="43.10412" lon="0.44109">
        <ele>597</ele>
        <time>2025-12-29T09:52:28Z</time>
      </trkpt>
      <trkpt lat="43.10415" lon="0.44108">
        <ele>597.6</ele>
        <time>2025-12-29T09:52:29Z</time>
      </trkpt>
      <trkpt lat="43.10418" lon="0.44108">
        <ele>598</ele>
        <time>2025-12-29T09:52:30Z</time>
      </trkpt>
      <trkpt lat="43.10421" lon="0.44107">
        <ele>598</ele>
        <time>2025-12-29T09:52:31Z</time>
      </trkpt>
      <trkpt lat="43.10424" lon="0.44107">
        <ele>598</ele>
        <time>2025-12-29T09:52:32Z</time>
      </trkpt>
      <trkpt lat="43.10427" lon="0.44106">
        <ele>597.8</ele>
        <time>2025-12-29T09:52:33Z</time>
      </trkpt>
      <trkpt lat="43.1043" lon="0.44106">
        <ele>597.2</ele>
        <time>2025-12-29T09:52:34Z</time>
      </trkpt>
      <trkpt lat="43.10433" lon="0.44105">
        <ele>597.2</ele>
        <time>2025-12-29T09:52:35Z</time>
      </trkpt>
      <trkpt lat="43.10436" lon="0.44104">
        <ele>597.2</ele>
        <time>2025-12-29T09:52:36Z</time>
      </trkpt>
      <trkpt lat="43.10438" lon="0.44103">
        <ele>597.8</ele>
        <time>2025-12-29T09:52:37Z</time>
      </trkpt>
      <trkpt lat="43.10441" lon="0.44102">
        <ele>597.8</ele>
        <time>2025-12-29T09:52:38Z</time>
      </trkpt>
      <trkpt lat="43.10444" lon="0.44102">
        <ele>597.8</ele>
        <time>2025-12-29T09:52:39Z</time>
      </trkpt>
      <trkpt lat="43.10447" lon="0.44101">
        <ele>597.8</ele>
        <time>2025-12-29T09:52:40Z</time>
      </trkpt>
      <trkpt lat="43.1045" lon="0.44101">
        <ele>597.8</ele>
        <time>2025-12-29T09:52:41Z</time>
      </trkpt>
      <trkpt lat="43.10453" lon="0.441">
        <ele>598.4</ele>
        <time>2025-12-29T09:52:42Z</time>
      </trkpt>
      <trkpt lat="43.10456" lon="0.44099">
        <ele>598.4</ele>
        <time>2025-12-29T09:52:43Z</time>
      </trkpt>
      <trkpt lat="43.10459" lon="0.44099">
        <ele>598.4</ele>
        <time>2025-12-29T09:52:44Z</time>
      </trkpt>
      <trkpt lat="43.10462" lon="0.44098">
        <ele>598.4</ele>
        <time>2025-12-29T09:52:45Z</time>
      </trkpt>
      <trkpt lat="43.10465" lon="0.44098">
        <ele>598.2</ele>
        <time>2025-12-29T09:52:46Z</time>
      </trkpt>
      <trkpt lat="43.10467" lon="0.44097">
        <ele>598.2</ele>
        <time>2025-12-29T09:52:47Z</time>
      </trkpt>
      <trkpt lat="43.1047" lon="0.44097">
        <ele>598.2</ele>
        <time>2025-12-29T09:52:48Z</time>
      </trkpt>
      <trkpt lat="43.10473" lon="0.44096">
        <ele>599.2</ele>
        <time>2025-12-29T09:52:49Z</time>
      </trkpt>
      <trkpt lat="43.10476" lon="0.44096">
        <ele>599.2</ele>
        <time>2025-12-29T09:52:50Z</time>
      </trkpt>
      <trkpt lat="43.1048" lon="0.44095">
        <ele>599.2</ele>
        <time>2025-12-29T09:52:51Z</time>
      </trkpt>
      <trkpt lat="43.10483" lon="0.44094">
        <ele>599.2</ele>
        <time>2025-12-29T09:52:52Z</time>
      </trkpt>
      <trkpt lat="43.10486" lon="0.44093">
        <ele>599.4</ele>
        <time>2025-12-29T09:52:53Z</time>
      </trkpt>
      <trkpt lat="43.10489" lon="0.44092">
        <ele>600.2</ele>
        <time>2025-12-29T09:52:54Z</time>
      </trkpt>
      <trkpt lat="43.10493" lon="0.44092">
        <ele>600.2</ele>
        <time>2025-12-29T09:52:55Z</time>
      </trkpt>
      <trkpt lat="43.10496" lon="0.44091">
        <ele>600.2</ele>
        <time>2025-12-29T09:52:56Z</time>
      </trkpt>
      <trkpt lat="43.10499" lon="0.44091">
        <ele>600.2</ele>
        <time>2025-12-29T09:52:57Z</time>
      </trkpt>
      <trkpt lat="43.10502" lon="0.4409">
        <ele>600.4</ele>
        <time>2025-12-29T09:52:58Z</time>
      </trkpt>
      <trkpt lat="43.10506" lon="0.44089">
        <ele>600.4</ele>
        <time>2025-12-29T09:52:59Z</time>
      </trkpt>
      <trkpt lat="43.10509" lon="0.44089">
        <ele>600.4</ele>
        <time>2025-12-29T09:53:00Z</time>
      </trkpt>
      <trkpt lat="43.10513" lon="0.44088">
        <ele>601</ele>
        <time>2025-12-29T09:53:01Z</time>
      </trkpt>
      <trkpt lat="43.10516" lon="0.44087">
        <ele>602.2</ele>
        <time>2025-12-29T09:53:02Z</time>
      </trkpt>
      <trkpt lat="43.10519" lon="0.44087">
        <ele>602.2</ele>
        <time>2025-12-29T09:53:03Z</time>
      </trkpt>
      <trkpt lat="43.10523" lon="0.44086">
        <ele>602.2</ele>
        <time>2025-12-29T09:53:04Z</time>
      </trkpt>
      <trkpt lat="43.10526" lon="0.44086">
        <ele>602.2</ele>
        <time>2025-12-29T09:53:05Z</time>
      </trkpt>
      <trkpt lat="43.10529" lon="0.44085">
        <ele>602</ele>
        <time>2025-12-29T09:53:06Z</time>
      </trkpt>
      <trkpt lat="43.10533" lon="0.44085">
        <ele>602</ele>
        <time>2025-12-29T09:53:07Z</time>
      </trkpt>
      <trkpt lat="43.10536" lon="0.44084">
        <ele>602</ele>
        <time>2025-12-29T09:53:08Z</time>
      </trkpt>
      <trkpt lat="43.10539" lon="0.44083">
        <ele>603</ele>
        <time>2025-12-29T09:53:09Z</time>
      </trkpt>
      <trkpt lat="43.10542" lon="0.44082">
        <ele>604.2</ele>
        <time>2025-12-29T09:53:10Z</time>
      </trkpt>
      <trkpt lat="43.10546" lon="0.44082">
        <ele>604.2</ele>
        <time>2025-12-29T09:53:11Z</time>
      </trkpt>
      <trkpt lat="43.10549" lon="0.44081">
        <ele>604.2</ele>
        <time>2025-12-29T09:53:12Z</time>
      </trkpt>
      <trkpt lat="43.10552" lon="0.4408">
        <ele>604.2</ele>
        <time>2025-12-29T09:53:13Z</time>
      </trkpt>
      <trkpt lat="43.10555" lon="0.4408">
        <ele>604.6</ele>
        <time>2025-12-29T09:53:14Z</time>
      </trkpt>
      <trkpt lat="43.10559" lon="0.44079">
        <ele>604.6</ele>
        <time>2025-12-29T09:53:15Z</time>
      </trkpt>
      <trkpt lat="43.10563" lon="0.44079">
        <ele>604.6</ele>
        <time>2025-12-29T09:53:16Z</time>
      </trkpt>
      <trkpt lat="43.10566" lon="0.44078">
        <ele>604.6</ele>
        <time>2025-12-29T09:53:17Z</time>
      </trkpt>
      <trkpt lat="43.10569" lon="0.44077">
        <ele>605.4</ele>
        <time>2025-12-29T09:53:18Z</time>
      </trkpt>
      <trkpt lat="43.10573" lon="0.44077">
        <ele>605.4</ele>
        <time>2025-12-29T09:53:19Z</time>
      </trkpt>
      <trkpt lat="43.10576" lon="0.44076">
        <ele>605.4</ele>
        <time>2025-12-29T09:53:20Z</time>
      </trkpt>
      <trkpt lat="43.10579" lon="0.44076">
        <ele>605.4</ele>
        <time>2025-12-29T09:53:21Z</time>
      </trkpt>
      <trkpt lat="43.10582" lon="0.44075">
        <ele>606.2</ele>
        <time>2025-12-29T09:53:22Z</time>
      </trkpt>
      <trkpt lat="43.10585" lon="0.44075">
        <ele>606.2</ele>
        <time>2025-12-29T09:53:23Z</time>
      </trkpt>
      <trkpt lat="43.10589" lon="0.44075">
        <ele>606.2</ele>
        <time>2025-12-29T09:53:24Z</time>
      </trkpt>
      <trkpt lat="43.10592" lon="0.44074">
        <ele>606.2</ele>
        <time>2025-12-29T09:53:25Z</time>
      </trkpt>
      <trkpt lat="43.10594" lon="0.44072">
        <ele>606.6</ele>
        <time>2025-12-29T09:53:26Z</time>
      </trkpt>
      <trkpt lat="43.10598" lon="0.44072">
        <ele>606.6</ele>
        <time>2025-12-29T09:53:27Z</time>
      </trkpt>
      <trkpt lat="43.10601" lon="0.44072">
        <ele>606.6</ele>
        <time>2025-12-29T09:53:28Z</time>
      </trkpt>
      <trkpt lat="43.10604" lon="0.44071">
        <ele>606.4</ele>
        <time>2025-12-29T09:53:29Z</time>
      </trkpt>
      <trkpt lat="43.10608" lon="0.4407">
        <ele>606.8</ele>
        <time>2025-12-29T09:53:30Z</time>
      </trkpt>
      <trkpt lat="43.10611" lon="0.44069">
        <ele>606.8</ele>
        <time>2025-12-29T09:53:31Z</time>
      </trkpt>
      <trkpt lat="43.10615" lon="0.44068">
        <ele>606.8</ele>
        <time>2025-12-29T09:53:32Z</time>
      </trkpt>
      <trkpt lat="43.10619" lon="0.44067">
        <ele>606.8</ele>
        <time>2025-12-29T09:53:33Z</time>
      </trkpt>
      <trkpt lat="43.10622" lon="0.44066">
        <ele>607.2</ele>
        <time>2025-12-29T09:53:34Z</time>
      </trkpt>
      <trkpt lat="43.10626" lon="0.44065">
        <ele>607.2</ele>
        <time>2025-12-29T09:53:35Z</time>
      </trkpt>
      <trkpt lat="43.1063" lon="0.44065">
        <ele>607.2</ele>
        <time>2025-12-29T09:53:36Z</time>
      </trkpt>
      <trkpt lat="43.10633" lon="0.44064">
        <ele>606.6</ele>
        <time>2025-12-29T09:53:37Z</time>
      </trkpt>
      <trkpt lat="43.10638" lon="0.44063">
        <ele>606.2</ele>
        <time>2025-12-29T09:53:38Z</time>
      </trkpt>
      <trkpt lat="43.10642" lon="0.44062">
        <ele>606.2</ele>
        <time>2025-12-29T09:53:39Z</time>
      </trkpt>
      <trkpt lat="43.10646" lon="0.44061">
        <ele>606.2</ele>
        <time>2025-12-29T09:53:40Z</time>
      </trkpt>
      <trkpt lat="43.1065" lon="0.4406">
        <ele>606.2</ele>
        <time>2025-12-29T09:53:41Z</time>
      </trkpt>
      <trkpt lat="43.10654" lon="0.44059">
        <ele>606.8</ele>
        <time>2025-12-29T09:53:42Z</time>
      </trkpt>
      <trkpt lat="43.10658" lon="0.44058">
        <ele>606.8</ele>
        <time>2025-12-29T09:53:43Z</time>
      </trkpt>
      <trkpt lat="43.10663" lon="0.44057">
        <ele>606.8</ele>
        <time>2025-12-29T09:53:44Z</time>
      </trkpt>
      <trkpt lat="43.10667" lon="0.44057">
        <ele>605.8</ele>
        <time>2025-12-29T09:53:45Z</time>
      </trkpt>
      <trkpt lat="43.10671" lon="0.44056">
        <ele>605.6</ele>
        <time>2025-12-29T09:53:46Z</time>
      </trkpt>
      <trkpt lat="43.10676" lon="0.44056">
        <ele>605.6</ele>
        <time>2025-12-29T09:53:47Z</time>
      </trkpt>
      <trkpt lat="43.10681" lon="0.44055">
        <ele>605.6</ele>
        <time>2025-12-29T09:53:48Z</time>
      </trkpt>
      <trkpt lat="43.10686" lon="0.44053">
        <ele>605.8</ele>
        <time>2025-12-29T09:53:49Z</time>
      </trkpt>
      <trkpt lat="43.10691" lon="0.44052">
        <ele>605.6</ele>
        <time>2025-12-29T09:53:50Z</time>
      </trkpt>
      <trkpt lat="43.10696" lon="0.44051">
        <ele>605.6</ele>
        <time>2025-12-29T09:53:51Z</time>
      </trkpt>
      <trkpt lat="43.10702" lon="0.4405">
        <ele>605.6</ele>
        <time>2025-12-29T09:53:52Z</time>
      </trkpt>
      <trkpt lat="43.10708" lon="0.44049">
        <ele>604.6</ele>
        <time>2025-12-29T09:53:53Z</time>
      </trkpt>
      <trkpt lat="43.10714" lon="0.44047">
        <ele>604</ele>
        <time>2025-12-29T09:53:54Z</time>
      </trkpt>
      <trkpt lat="43.1072" lon="0.44046">
        <ele>604</ele>
        <time>2025-12-29T09:53:55Z</time>
      </trkpt>
      <trkpt lat="43.10727" lon="0.44044">
        <ele>604</ele>
        <time>2025-12-29T09:53:56Z</time>
      </trkpt>
      <trkpt lat="43.10734" lon="0.44042">
        <ele>603</ele>
        <time>2025-12-29T09:53:57Z</time>
      </trkpt>
      <trkpt lat="43.10741" lon="0.4404">
        <ele>601.2</ele>
        <time>2025-12-29T09:53:58Z</time>
      </trkpt>
      <trkpt lat="43.10748" lon="0.44037">
        <ele>601.2</ele>
        <time>2025-12-29T09:53:59Z</time>
      </trkpt>
      <trkpt lat="43.10755" lon="0.44034">
        <ele>601.2</ele>
        <time>2025-12-29T09:54:00Z</time>
      </trkpt>
      <trkpt lat="43.10762" lon="0.4403">
        <ele>601.2</ele>
        <time>2025-12-29T09:54:01Z</time>
      </trkpt>
      <trkpt lat="43.10769" lon="0.44027">
        <ele>598.4</ele>
        <time>2025-12-29T09:54:02Z</time>
      </trkpt>
      <trkpt lat="43.10775" lon="0.44023">
        <ele>598.4</ele>
        <time>2025-12-29T09:54:03Z</time>
      </trkpt>
      <trkpt lat="43.1078" lon="0.44021">
        <ele>598.4</ele>
        <time>2025-12-29T09:54:04Z</time>
      </trkpt>
      <trkpt lat="43.10785" lon="0.44021">
        <ele>598.4</ele>
        <time>2025-12-29T09:54:05Z</time>
      </trkpt>
      <trkpt lat="43.1079" lon="0.44024">
        <ele>598</ele>
        <time>2025-12-29T09:54:06Z</time>
      </trkpt>
      <trkpt lat="43.10794" lon="0.44029">
        <ele>598</ele>
        <time>2025-12-29T09:54:07Z</time>
      </trkpt>
      <trkpt lat="43.10796" lon="0.44035">
        <ele>598</ele>
        <time>2025-12-29T09:54:08Z</time>
      </trkpt>
      <trkpt lat="43.10799" lon="0.4404">
        <ele>598</ele>
        <time>2025-12-29T09:54:09Z</time>
      </trkpt>
      <trkpt lat="43.10801" lon="0.44046">
        <ele>599</ele>
        <time>2025-12-29T09:54:10Z</time>
      </trkpt>
      <trkpt lat="43.10803" lon="0.44051">
        <ele>599</ele>
        <time>2025-12-29T09:54:11Z</time>
      </trkpt>
      <trkpt lat="43.10805" lon="0.44057">
        <ele>599</ele>
        <time>2025-12-29T09:54:12Z</time>
      </trkpt>
      <trkpt lat="43.10807" lon="0.44063">
        <ele>599</ele>
        <time>2025-12-29T09:54:13Z</time>
      </trkpt>
      <trkpt lat="43.1081" lon="0.44068">
        <ele>598.6</ele>
        <time>2025-12-29T09:54:14Z</time>
      </trkpt>
      <trkpt lat="43.10812" lon="0.44074">
        <ele>598.6</ele>
        <time>2025-12-29T09:54:15Z</time>
      </trkpt>
      <trkpt lat="43.10814" lon="0.4408">
        <ele>598.6</ele>
        <time>2025-12-29T09:54:16Z</time>
      </trkpt>
      <trkpt lat="43.10816" lon="0.44086">
        <ele>598.8</ele>
        <time>2025-12-29T09:54:17Z</time>
      </trkpt>
      <trkpt lat="43.10819" lon="0.44092">
        <ele>598.6</ele>
        <time>2025-12-29T09:54:18Z</time>
      </trkpt>
      <trkpt lat="43.10821" lon="0.44098">
        <ele>598.6</ele>
        <time>2025-12-29T09:54:19Z</time>
      </trkpt>
      <trkpt lat="43.10823" lon="0.44104">
        <ele>598.6</ele>
        <time>2025-12-29T09:54:20Z</time>
      </trkpt>
      <trkpt lat="43.10826" lon="0.44109">
        <ele>598.6</ele>
        <time>2025-12-29T09:54:21Z</time>
      </trkpt>
      <trkpt lat="43.10828" lon="0.44115">
        <ele>599.2</ele>
        <time>2025-12-29T09:54:22Z</time>
      </trkpt>
      <trkpt lat="43.1083" lon="0.44121">
        <ele>599.2</ele>
        <time>2025-12-29T09:54:23Z</time>
      </trkpt>
      <trkpt lat="43.10832" lon="0.44127">
        <ele>599.2</ele>
        <time>2025-12-29T09:54:24Z</time>
      </trkpt>
      <trkpt lat="43.10834" lon="0.44133">
        <ele>598.4</ele>
        <time>2025-12-29T09:54:25Z</time>
      </trkpt>
      <trkpt lat="43.10836" lon="0.44139">
        <ele>599.2</ele>
        <time>2025-12-29T09:54:26Z</time>
      </trkpt>
      <trkpt lat="43.10838" lon="0.44146">
        <ele>599.2</ele>
        <time>2025-12-29T09:54:27Z</time>
      </trkpt>
      <trkpt lat="43.1084" lon="0.44152">
        <ele>599.2</ele>
        <time>2025-12-29T09:54:28Z</time>
      </trkpt>
      <trkpt lat="43.10842" lon="0.44158">
        <ele>598.4</ele>
        <time>2025-12-29T09:54:29Z</time>
      </trkpt>
      <trkpt lat="43.10844" lon="0.44165">
        <ele>598.2</ele>
        <time>2025-12-29T09:54:30Z</time>
      </trkpt>
      <trkpt lat="43.10847" lon="0.44171">
        <ele>598.2</ele>
        <time>2025-12-29T09:54:31Z</time>
      </trkpt>
      <trkpt lat="43.10849" lon="0.44178">
        <ele>598.2</ele>
        <time>2025-12-29T09:54:32Z</time>
      </trkpt>
      <trkpt lat="43.10851" lon="0.44184">
        <ele>597.6</ele>
        <time>2025-12-29T09:54:33Z</time>
      </trkpt>
      <trkpt lat="43.10853" lon="0.44191">
        <ele>598.2</ele>
        <time>2025-12-29T09:54:34Z</time>
      </trkpt>
      <trkpt lat="43.10855" lon="0.44197">
        <ele>598.2</ele>
        <time>2025-12-29T09:54:35Z</time>
      </trkpt>
      <trkpt lat="43.10857" lon="0.44203">
        <ele>598.2</ele>
        <time>2025-12-29T09:54:36Z</time>
      </trkpt>
      <trkpt lat="43.1086" lon="0.44209">
        <ele>597.4</ele>
        <time>2025-12-29T09:54:37Z</time>
      </trkpt>
      <trkpt lat="43.10862" lon="0.44215">
        <ele>598</ele>
        <time>2025-12-29T09:54:38Z</time>
      </trkpt>
      <trkpt lat="43.10864" lon="0.44221">
        <ele>598</ele>
        <time>2025-12-29T09:54:39Z</time>
      </trkpt>
      <trkpt lat="43.10866" lon="0.44227">
        <ele>598</ele>
        <time>2025-12-29T09:54:40Z</time>
      </trkpt>
      <trkpt lat="43.10868" lon="0.44233">
        <ele>597.8</ele>
        <time>2025-12-29T09:54:41Z</time>
      </trkpt>
      <trkpt lat="43.1087" lon="0.44239">
        <ele>597.8</ele>
        <time>2025-12-29T09:54:42Z</time>
      </trkpt>
      <trkpt lat="43.10872" lon="0.44246">
        <ele>597.8</ele>
        <time>2025-12-29T09:54:43Z</time>
      </trkpt>
      <trkpt lat="43.10874" lon="0.44252">
        <ele>597.8</ele>
        <time>2025-12-29T09:54:44Z</time>
      </trkpt>
      <trkpt lat="43.10876" lon="0.44258">
        <ele>596.8</ele>
        <time>2025-12-29T09:54:45Z</time>
      </trkpt>
      <trkpt lat="43.10878" lon="0.44264">
        <ele>597.2</ele>
        <time>2025-12-29T09:54:46Z</time>
      </trkpt>
      <trkpt lat="43.10881" lon="0.44271">
        <ele>597.2</ele>
        <time>2025-12-29T09:54:47Z</time>
      </trkpt>
      <trkpt lat="43.10883" lon="0.44277">
        <ele>597.2</ele>
        <time>2025-12-29T09:54:48Z</time>
      </trkpt>
      <trkpt lat="43.10885" lon="0.44283">
        <ele>597.2</ele>
        <time>2025-12-29T09:54:49Z</time>
      </trkpt>
      <trkpt lat="43.10887" lon="0.44289">
        <ele>597.2</ele>
        <time>2025-12-29T09:54:50Z</time>
      </trkpt>
      <trkpt lat="43.10889" lon="0.44295">
        <ele>597.2</ele>
        <time>2025-12-29T09:54:51Z</time>
      </trkpt>
      <trkpt lat="43.10892" lon="0.44301">
        <ele>597.2</ele>
        <time>2025-12-29T09:54:52Z</time>
      </trkpt>
      <trkpt lat="43.10894" lon="0.44308">
        <ele>596.4</ele>
        <time>2025-12-29T09:54:53Z</time>
      </trkpt>
      <trkpt lat="43.10896" lon="0.44314">
        <ele>596.6</ele>
        <time>2025-12-29T09:54:54Z</time>
      </trkpt>
      <trkpt lat="43.10898" lon="0.4432">
        <ele>596.6</ele>
        <time>2025-12-29T09:54:55Z</time>
      </trkpt>
      <trkpt lat="43.109" lon="0.44326">
        <ele>596.6</ele>
        <time>2025-12-29T09:54:56Z</time>
      </trkpt>
      <trkpt lat="43.10902" lon="0.44332">
        <ele>596.6</ele>
        <time>2025-12-29T09:54:57Z</time>
      </trkpt>
      <trkpt lat="43.10904" lon="0.44339">
        <ele>596</ele>
        <time>2025-12-29T09:54:58Z</time>
      </trkpt>
      <trkpt lat="43.10906" lon="0.44345">
        <ele>596</ele>
        <time>2025-12-29T09:54:59Z</time>
      </trkpt>
      <trkpt lat="43.10909" lon="0.44351">
        <ele>596</ele>
        <time>2025-12-29T09:55:00Z</time>
      </trkpt>
      <trkpt lat="43.10911" lon="0.44358">
        <ele>595.8</ele>
        <time>2025-12-29T09:55:01Z</time>
      </trkpt>
      <trkpt lat="43.10913" lon="0.44364">
        <ele>595.6</ele>
        <time>2025-12-29T09:55:02Z</time>
      </trkpt>
      <trkpt lat="43.10915" lon="0.44371">
        <ele>595.6</ele>
        <time>2025-12-29T09:55:03Z</time>
      </trkpt>
      <trkpt lat="43.10917" lon="0.44377">
        <ele>595.6</ele>
        <time>2025-12-29T09:55:04Z</time>
      </trkpt>
      <trkpt lat="43.10919" lon="0.44383">
        <ele>595</ele>
        <time>2025-12-29T09:55:05Z</time>
      </trkpt>
      <trkpt lat="43.10921" lon="0.44389">
        <ele>595</ele>
        <time>2025-12-29T09:55:06Z</time>
      </trkpt>
      <trkpt lat="43.10923" lon="0.44395">
        <ele>595</ele>
        <time>2025-12-29T09:55:07Z</time>
      </trkpt>
      <trkpt lat="43.10925" lon="0.444">
        <ele>595</ele>
        <time>2025-12-29T09:55:08Z</time>
      </trkpt>
      <trkpt lat="43.10927" lon="0.44406">
        <ele>595.2</ele>
        <time>2025-12-29T09:55:09Z</time>
      </trkpt>
      <trkpt lat="43.10929" lon="0.4441">
        <ele>595.6</ele>
        <time>2025-12-29T09:55:10Z</time>
      </trkpt>
      <trkpt lat="43.10931" lon="0.44414">
        <ele>595.6</ele>
        <time>2025-12-29T09:55:11Z</time>
      </trkpt>
      <trkpt lat="43.10932" lon="0.44416">
        <ele>595.6</ele>
        <time>2025-12-29T09:55:12Z</time>
      </trkpt>
      <trkpt lat="43.10933" lon="0.44418">
        <ele>596.4</ele>
        <time>2025-12-29T09:55:13Z</time>
      </trkpt>
      <trkpt lat="43.10934" lon="0.44419">
        <ele>596.6</ele>
        <time>2025-12-29T09:55:14Z</time>
      </trkpt>
      <trkpt lat="43.10934" lon="0.44419">
        <ele>596.6</ele>
        <time>2025-12-29T09:55:15Z</time>
      </trkpt>
      <trkpt lat="43.10934" lon="0.44419">
        <ele>596.6</ele>
        <time>2025-12-29T09:55:16Z</time>
      </trkpt>
      <trkpt lat="43.10934" lon="0.44419">
        <ele>597</ele>
        <time>2025-12-29T09:55:17Z</time>
      </trkpt>
      <trkpt lat="43.10938" lon="0.44424">
        <ele>596.4</ele>
        <time>2025-12-29T09:55:21Z</time>
      </trkpt>
      <trkpt lat="43.10939" lon="0.44426">
        <ele>596.6</ele>
        <time>2025-12-29T09:55:22Z</time>
      </trkpt>
      <trkpt lat="43.10941" lon="0.44428">
        <ele>596.6</ele>
        <time>2025-12-29T09:55:23Z</time>
      </trkpt>
      <trkpt lat="43.10943" lon="0.44431">
        <ele>596.6</ele>
        <time>2025-12-29T09:55:24Z</time>
      </trkpt>
      <trkpt lat="43.10945" lon="0.44433">
        <ele>596.6</ele>
        <time>2025-12-29T09:55:25Z</time>
      </trkpt>
      <trkpt lat="43.10947" lon="0.44436">
        <ele>595.6</ele>
        <time>2025-12-29T09:55:26Z</time>
      </trkpt>
      <trkpt lat="43.10949" lon="0.44441">
        <ele>595.6</ele>
        <time>2025-12-29T09:55:27Z</time>
      </trkpt>
      <trkpt lat="43.10951" lon="0.44447">
        <ele>595.6</ele>
        <time>2025-12-29T09:55:28Z</time>
      </trkpt>
      <trkpt lat="43.10953" lon="0.44453">
        <ele>595.6</ele>
        <time>2025-12-29T09:55:29Z</time>
      </trkpt>
      <trkpt lat="43.10955" lon="0.44459">
        <ele>594.6</ele>
        <time>2025-12-29T09:55:30Z</time>
      </trkpt>
      <trkpt lat="43.10957" lon="0.44465">
        <ele>594.6</ele>
        <time>2025-12-29T09:55:31Z</time>
      </trkpt>
      <trkpt lat="43.10959" lon="0.44471">
        <ele>594.6</ele>
        <time>2025-12-29T09:55:32Z</time>
      </trkpt>
      <trkpt lat="43.1096" lon="0.44477">
        <ele>594.6</ele>
        <time>2025-12-29T09:55:33Z</time>
      </trkpt>
      <trkpt lat="43.10962" lon="0.44483">
        <ele>595</ele>
        <time>2025-12-29T09:55:34Z</time>
      </trkpt>
      <trkpt lat="43.10964" lon="0.44489">
        <ele>595</ele>
        <time>2025-12-29T09:55:35Z</time>
      </trkpt>
      <trkpt lat="43.10965" lon="0.44496">
        <ele>595</ele>
        <time>2025-12-29T09:55:36Z</time>
      </trkpt>
      <trkpt lat="43.10967" lon="0.44502">
        <ele>595</ele>
        <time>2025-12-29T09:55:37Z</time>
      </trkpt>
      <trkpt lat="43.10969" lon="0.44509">
        <ele>594</ele>
        <time>2025-12-29T09:55:38Z</time>
      </trkpt>
      <trkpt lat="43.10971" lon="0.44515">
        <ele>594</ele>
        <time>2025-12-29T09:55:39Z</time>
      </trkpt>
      <trkpt lat="43.10973" lon="0.44522">
        <ele>594</ele>
        <time>2025-12-29T09:55:40Z</time>
      </trkpt>
      <trkpt lat="43.10975" lon="0.44528">
        <ele>594</ele>
        <time>2025-12-29T09:55:41Z</time>
      </trkpt>
      <trkpt lat="43.10977" lon="0.44534">
        <ele>594.2</ele>
        <time>2025-12-29T09:55:42Z</time>
      </trkpt>
      <trkpt lat="43.10978" lon="0.4454">
        <ele>594.2</ele>
        <time>2025-12-29T09:55:43Z</time>
      </trkpt>
      <trkpt lat="43.1098" lon="0.44546">
        <ele>594.2</ele>
        <time>2025-12-29T09:55:44Z</time>
      </trkpt>
      <trkpt lat="43.10981" lon="0.44552">
        <ele>594.2</ele>
        <time>2025-12-29T09:55:45Z</time>
      </trkpt>
      <trkpt lat="43.10983" lon="0.44558">
        <ele>594.4</ele>
        <time>2025-12-29T09:55:46Z</time>
      </trkpt>
      <trkpt lat="43.10984" lon="0.44563">
        <ele>594.4</ele>
        <time>2025-12-29T09:55:47Z</time>
      </trkpt>
      <trkpt lat="43.10986" lon="0.44569">
        <ele>594.4</ele>
        <time>2025-12-29T09:55:48Z</time>
      </trkpt>
      <trkpt lat="43.10987" lon="0.44574">
        <ele>594.4</ele>
        <time>2025-12-29T09:55:49Z</time>
      </trkpt>
      <trkpt lat="43.10989" lon="0.44579">
        <ele>593.2</ele>
        <time>2025-12-29T09:55:50Z</time>
      </trkpt>
      <trkpt lat="43.1099" lon="0.44584">
        <ele>593.2</ele>
        <time>2025-12-29T09:55:51Z</time>
      </trkpt>
      <trkpt lat="43.10992" lon="0.44589">
        <ele>593.2</ele>
        <time>2025-12-29T09:55:52Z</time>
      </trkpt>
      <trkpt lat="43.10993" lon="0.44593">
        <ele>593.6</ele>
        <time>2025-12-29T09:55:53Z</time>
      </trkpt>
      <trkpt lat="43.10994" lon="0.44597">
        <ele>594.2</ele>
        <time>2025-12-29T09:55:54Z</time>
      </trkpt>
      <trkpt lat="43.10995" lon="0.44601">
        <ele>594.2</ele>
        <time>2025-12-29T09:55:55Z</time>
      </trkpt>
      <trkpt lat="43.10996" lon="0.44606">
        <ele>594.2</ele>
        <time>2025-12-29T09:55:56Z</time>
      </trkpt>
      <trkpt lat="43.10997" lon="0.4461">
        <ele>594.2</ele>
        <time>2025-12-29T09:55:57Z</time>
      </trkpt>
      <trkpt lat="43.10998" lon="0.44615">
        <ele>595</ele>
        <time>2025-12-29T09:55:58Z</time>
      </trkpt>
      <trkpt lat="43.11" lon="0.4462">
        <ele>595</ele>
        <time>2025-12-29T09:55:59Z</time>
      </trkpt>
      <trkpt lat="43.11001" lon="0.44626">
        <ele>595</ele>
        <time>2025-12-29T09:56:00Z</time>
      </trkpt>
      <trkpt lat="43.11003" lon="0.44631">
        <ele>594.4</ele>
        <time>2025-12-29T09:56:01Z</time>
      </trkpt>
      <trkpt lat="43.11004" lon="0.44637">
        <ele>593.2</ele>
        <time>2025-12-29T09:56:02Z</time>
      </trkpt>
      <trkpt lat="43.11006" lon="0.44642">
        <ele>593.2</ele>
        <time>2025-12-29T09:56:03Z</time>
      </trkpt>
      <trkpt lat="43.11007" lon="0.44648">
        <ele>593.2</ele>
        <time>2025-12-29T09:56:04Z</time>
      </trkpt>
      <trkpt lat="43.11009" lon="0.44654">
        <ele>593.4</ele>
        <time>2025-12-29T09:56:05Z</time>
      </trkpt>
      <trkpt lat="43.11011" lon="0.4466">
        <ele>594.2</ele>
        <time>2025-12-29T09:56:06Z</time>
      </trkpt>
      <trkpt lat="43.11012" lon="0.44666">
        <ele>594.2</ele>
        <time>2025-12-29T09:56:07Z</time>
      </trkpt>
      <trkpt lat="43.11014" lon="0.44672">
        <ele>594.2</ele>
        <time>2025-12-29T09:56:08Z</time>
      </trkpt>
      <trkpt lat="43.11016" lon="0.44678">
        <ele>594.2</ele>
        <time>2025-12-29T09:56:09Z</time>
      </trkpt>
      <trkpt lat="43.11017" lon="0.44684">
        <ele>594</ele>
        <time>2025-12-29T09:56:10Z</time>
      </trkpt>
      <trkpt lat="43.11019" lon="0.4469">
        <ele>594</ele>
        <time>2025-12-29T09:56:11Z</time>
      </trkpt>
      <trkpt lat="43.11021" lon="0.44695">
        <ele>594</ele>
        <time>2025-12-29T09:56:12Z</time>
      </trkpt>
      <trkpt lat="43.11022" lon="0.44701">
        <ele>594.2</ele>
        <time>2025-12-29T09:56:13Z</time>
      </trkpt>
      <trkpt lat="43.11024" lon="0.44706">
        <ele>594.4</ele>
        <time>2025-12-29T09:56:14Z</time>
      </trkpt>
      <trkpt lat="43.11026" lon="0.44711">
        <ele>594.4</ele>
        <time>2025-12-29T09:56:15Z</time>
      </trkpt>
      <trkpt lat="43.11027" lon="0.44717">
        <ele>594.4</ele>
        <time>2025-12-29T09:56:16Z</time>
      </trkpt>
      <trkpt lat="43.11029" lon="0.44722">
        <ele>594</ele>
        <time>2025-12-29T09:56:17Z</time>
      </trkpt>
      <trkpt lat="43.11031" lon="0.44727">
        <ele>595</ele>
        <time>2025-12-29T09:56:18Z</time>
      </trkpt>
      <trkpt lat="43.11033" lon="0.44732">
        <ele>595</ele>
        <time>2025-12-29T09:56:19Z</time>
      </trkpt>
      <trkpt lat="43.11034" lon="0.44737">
        <ele>595</ele>
        <time>2025-12-29T09:56:20Z</time>
      </trkpt>
      <trkpt lat="43.11036" lon="0.44742">
        <ele>595</ele>
        <time>2025-12-29T09:56:21Z</time>
      </trkpt>
      <trkpt lat="43.11038" lon="0.44748">
        <ele>594.2</ele>
        <time>2025-12-29T09:56:22Z</time>
      </trkpt>
      <trkpt lat="43.1104" lon="0.44753">
        <ele>594.2</ele>
        <time>2025-12-29T09:56:23Z</time>
      </trkpt>
      <trkpt lat="43.11043" lon="0.44759">
        <ele>594.2</ele>
        <time>2025-12-29T09:56:24Z</time>
      </trkpt>
      <trkpt lat="43.11044" lon="0.44764">
        <ele>595</ele>
        <time>2025-12-29T09:56:25Z</time>
      </trkpt>
      <trkpt lat="43.11047" lon="0.44771">
        <ele>593.8</ele>
        <time>2025-12-29T09:56:26Z</time>
      </trkpt>
      <trkpt lat="43.11049" lon="0.44777">
        <ele>593.8</ele>
        <time>2025-12-29T09:56:27Z</time>
      </trkpt>
      <trkpt lat="43.11051" lon="0.44784">
        <ele>593.8</ele>
        <time>2025-12-29T09:56:28Z</time>
      </trkpt>
      <trkpt lat="43.11054" lon="0.44791">
        <ele>593.8</ele>
        <time>2025-12-29T09:56:29Z</time>
      </trkpt>
      <trkpt lat="43.11057" lon="0.44799">
        <ele>592.6</ele>
        <time>2025-12-29T09:56:30Z</time>
      </trkpt>
      <trkpt lat="43.1106" lon="0.44806">
        <ele>592.6</ele>
        <time>2025-12-29T09:56:31Z</time>
      </trkpt>
      <trkpt lat="43.11062" lon="0.44814">
        <ele>592.6</ele>
        <time>2025-12-29T09:56:32Z</time>
      </trkpt>
      <trkpt lat="43.11065" lon="0.44822">
        <ele>592</ele>
        <time>2025-12-29T09:56:33Z</time>
      </trkpt>
      <trkpt lat="43.11068" lon="0.44829">
        <ele>591.2</ele>
        <time>2025-12-29T09:56:34Z</time>
      </trkpt>
      <trkpt lat="43.11071" lon="0.44837">
        <ele>591.2</ele>
        <time>2025-12-29T09:56:35Z</time>
      </trkpt>
      <trkpt lat="43.11074" lon="0.44845">
        <ele>591.2</ele>
        <time>2025-12-29T09:56:36Z</time>
      </trkpt>
      <trkpt lat="43.11076" lon="0.44853">
        <ele>591.6</ele>
        <time>2025-12-29T09:56:37Z</time>
      </trkpt>
      <trkpt lat="43.11079" lon="0.4486">
        <ele>591.8</ele>
        <time>2025-12-29T09:56:38Z</time>
      </trkpt>
      <trkpt lat="43.11081" lon="0.44868">
        <ele>591.8</ele>
        <time>2025-12-29T09:56:39Z</time>
      </trkpt>
      <trkpt lat="43.11084" lon="0.44875">
        <ele>591.8</ele>
        <time>2025-12-29T09:56:40Z</time>
      </trkpt>
      <trkpt lat="43.11086" lon="0.44882">
        <ele>590.8</ele>
        <time>2025-12-29T09:56:41Z</time>
      </trkpt>
      <trkpt lat="43.11089" lon="0.44889">
        <ele>590.2</ele>
        <time>2025-12-29T09:56:42Z</time>
      </trkpt>
      <trkpt lat="43.11091" lon="0.44896">
        <ele>590.2</ele>
        <time>2025-12-29T09:56:43Z</time>
      </trkpt>
      <trkpt lat="43.11094" lon="0.44903">
        <ele>590.2</ele>
        <time>2025-12-29T09:56:44Z</time>
      </trkpt>
      <trkpt lat="43.11096" lon="0.4491">
        <ele>590.8</ele>
        <time>2025-12-29T09:56:45Z</time>
      </trkpt>
      <trkpt lat="43.11098" lon="0.44917">
        <ele>591.2</ele>
        <time>2025-12-29T09:56:46Z</time>
      </trkpt>
      <trkpt lat="43.11101" lon="0.44924">
        <ele>591.2</ele>
        <time>2025-12-29T09:56:47Z</time>
      </trkpt>
      <trkpt lat="43.11103" lon="0.44931">
        <ele>591.2</ele>
        <time>2025-12-29T09:56:48Z</time>
      </trkpt>
      <trkpt lat="43.11105" lon="0.44938">
        <ele>591.2</ele>
        <time>2025-12-29T09:56:49Z</time>
      </trkpt>
      <trkpt lat="43.11108" lon="0.44945">
        <ele>591</ele>
        <time>2025-12-29T09:56:50Z</time>
      </trkpt>
      <trkpt lat="43.1111" lon="0.44952">
        <ele>591</ele>
        <time>2025-12-29T09:56:51Z</time>
      </trkpt>
      <trkpt lat="43.11113" lon="0.4496">
        <ele>591</ele>
        <time>2025-12-29T09:56:52Z</time>
      </trkpt>
      <trkpt lat="43.11116" lon="0.44967">
        <ele>591</ele>
        <time>2025-12-29T09:56:53Z</time>
      </trkpt>
      <trkpt lat="43.11118" lon="0.44974">
        <ele>589.8</ele>
        <time>2025-12-29T09:56:54Z</time>
      </trkpt>
      <trkpt lat="43.11121" lon="0.44981">
        <ele>589.8</ele>
        <time>2025-12-29T09:56:55Z</time>
      </trkpt>
      <trkpt lat="43.11124" lon="0.44989">
        <ele>589.8</ele>
        <time>2025-12-29T09:56:56Z</time>
      </trkpt>
      <trkpt lat="43.11126" lon="0.44996">
        <ele>590</ele>
        <time>2025-12-29T09:56:57Z</time>
      </trkpt>
      <trkpt lat="43.11129" lon="0.45003">
        <ele>590</ele>
        <time>2025-12-29T09:56:58Z</time>
      </trkpt>
      <trkpt lat="43.11132" lon="0.45011">
        <ele>590</ele>
        <time>2025-12-29T09:56:59Z</time>
      </trkpt>
      <trkpt lat="43.11134" lon="0.45018">
        <ele>590</ele>
        <time>2025-12-29T09:57:00Z</time>
      </trkpt>
      <trkpt lat="43.11137" lon="0.45025">
        <ele>590.6</ele>
        <time>2025-12-29T09:57:01Z</time>
      </trkpt>
      <trkpt lat="43.1114" lon="0.45032">
        <ele>590.6</ele>
        <time>2025-12-29T09:57:02Z</time>
      </trkpt>
      <trkpt lat="43.11142" lon="0.4504">
        <ele>590.6</ele>
        <time>2025-12-29T09:57:03Z</time>
      </trkpt>
      <trkpt lat="43.11145" lon="0.45046">
        <ele>590.6</ele>
        <time>2025-12-29T09:57:04Z</time>
      </trkpt>
      <trkpt lat="43.11147" lon="0.45053">
        <ele>589.6</ele>
        <time>2025-12-29T09:57:05Z</time>
      </trkpt>
      <trkpt lat="43.1115" lon="0.4506">
        <ele>589.6</ele>
        <time>2025-12-29T09:57:06Z</time>
      </trkpt>
      <trkpt lat="43.11152" lon="0.45066">
        <ele>589.6</ele>
        <time>2025-12-29T09:57:07Z</time>
      </trkpt>
      <trkpt lat="43.11154" lon="0.45073">
        <ele>589.6</ele>
        <time>2025-12-29T09:57:08Z</time>
      </trkpt>
      <trkpt lat="43.11157" lon="0.4508">
        <ele>590.6</ele>
        <time>2025-12-29T09:57:09Z</time>
      </trkpt>
      <trkpt lat="43.11159" lon="0.45086">
        <ele>590.2</ele>
        <time>2025-12-29T09:57:10Z</time>
      </trkpt>
      <trkpt lat="43.11162" lon="0.45092">
        <ele>590.2</ele>
        <time>2025-12-29T09:57:11Z</time>
      </trkpt>
      <trkpt lat="43.11164" lon="0.45099">
        <ele>590.2</ele>
        <time>2025-12-29T09:57:12Z</time>
      </trkpt>
      <trkpt lat="43.11167" lon="0.45105">
        <ele>590.2</ele>
        <time>2025-12-29T09:57:13Z</time>
      </trkpt>
      <trkpt lat="43.1117" lon="0.45111">
        <ele>590.4</ele>
        <time>2025-12-29T09:57:14Z</time>
      </trkpt>
      <trkpt lat="43.11173" lon="0.45117">
        <ele>590.4</ele>
        <time>2025-12-29T09:57:15Z</time>
      </trkpt>
      <trkpt lat="43.11175" lon="0.45123">
        <ele>590.4</ele>
        <time>2025-12-29T09:57:16Z</time>
      </trkpt>
      <trkpt lat="43.11178" lon="0.45129">
        <ele>590.4</ele>
        <time>2025-12-29T09:57:17Z</time>
      </trkpt>
      <trkpt lat="43.11181" lon="0.45135">
        <ele>590.8</ele>
        <time>2025-12-29T09:57:18Z</time>
      </trkpt>
      <trkpt lat="43.11184" lon="0.45141">
        <ele>590.8</ele>
        <time>2025-12-29T09:57:19Z</time>
      </trkpt>
      <trkpt lat="43.11186" lon="0.45146">
        <ele>590.8</ele>
        <time>2025-12-29T09:57:20Z</time>
      </trkpt>
      <trkpt lat="43.11188" lon="0.45152">
        <ele>590.6</ele>
        <time>2025-12-29T09:57:21Z</time>
      </trkpt>
      <trkpt lat="43.1119" lon="0.45158">
        <ele>590.6</ele>
        <time>2025-12-29T09:57:22Z</time>
      </trkpt>
      <trkpt lat="43.11193" lon="0.45164">
        <ele>590.6</ele>
        <time>2025-12-29T09:57:23Z</time>
      </trkpt>
      <trkpt lat="43.11195" lon="0.4517">
        <ele>590.6</ele>
        <time>2025-12-29T09:57:24Z</time>
      </trkpt>
      <trkpt lat="43.11197" lon="0.45176">
        <ele>590.6</ele>
        <time>2025-12-29T09:57:25Z</time>
      </trkpt>
      <trkpt lat="43.112" lon="0.45183">
        <ele>590.2</ele>
        <time>2025-12-29T09:57:26Z</time>
      </trkpt>
      <trkpt lat="43.11203" lon="0.45189">
        <ele>590.2</ele>
        <time>2025-12-29T09:57:27Z</time>
      </trkpt>
      <trkpt lat="43.11205" lon="0.45195">
        <ele>590.2</ele>
        <time>2025-12-29T09:57:28Z</time>
      </trkpt>
      <trkpt lat="43.11208" lon="0.45201">
        <ele>590.2</ele>
        <time>2025-12-29T09:57:29Z</time>
      </trkpt>
      <trkpt lat="43.11211" lon="0.45208">
        <ele>590.6</ele>
        <time>2025-12-29T09:57:30Z</time>
      </trkpt>
      <trkpt lat="43.11214" lon="0.45215">
        <ele>590.6</ele>
        <time>2025-12-29T09:57:31Z</time>
      </trkpt>
      <trkpt lat="43.11217" lon="0.45221">
        <ele>590.6</ele>
        <time>2025-12-29T09:57:32Z</time>
      </trkpt>
      <trkpt lat="43.1122" lon="0.45228">
        <ele>589.6</ele>
        <time>2025-12-29T09:57:33Z</time>
      </trkpt>
      <trkpt lat="43.11223" lon="0.45235">
        <ele>589</ele>
        <time>2025-12-29T09:57:34Z</time>
      </trkpt>
      <trkpt lat="43.11226" lon="0.45242">
        <ele>589</ele>
        <time>2025-12-29T09:57:35Z</time>
      </trkpt>
      <trkpt lat="43.11229" lon="0.45249">
        <ele>589</ele>
        <time>2025-12-29T09:57:36Z</time>
      </trkpt>
      <trkpt lat="43.11232" lon="0.45255">
        <ele>588</ele>
        <time>2025-12-29T09:57:37Z</time>
      </trkpt>
      <trkpt lat="43.11236" lon="0.45262">
        <ele>589</ele>
        <time>2025-12-29T09:57:38Z</time>
      </trkpt>
      <trkpt lat="43.11239" lon="0.45269">
        <ele>589</ele>
        <time>2025-12-29T09:57:39Z</time>
      </trkpt>
      <trkpt lat="43.11242" lon="0.45275">
        <ele>589</ele>
        <time>2025-12-29T09:57:40Z</time>
      </trkpt>
      <trkpt lat="43.11246" lon="0.45282">
        <ele>588</ele>
        <time>2025-12-29T09:57:41Z</time>
      </trkpt>
      <trkpt lat="43.11249" lon="0.45289">
        <ele>588.2</ele>
        <time>2025-12-29T09:57:42Z</time>
      </trkpt>
      <trkpt lat="43.11253" lon="0.45295">
        <ele>588.2</ele>
        <time>2025-12-29T09:57:43Z</time>
      </trkpt>
      <trkpt lat="43.11256" lon="0.45302">
        <ele>588.2</ele>
        <time>2025-12-29T09:57:44Z</time>
      </trkpt>
      <trkpt lat="43.11259" lon="0.45309">
        <ele>587.6</ele>
        <time>2025-12-29T09:57:45Z</time>
      </trkpt>
      <trkpt lat="43.11262" lon="0.45315">
        <ele>587.2</ele>
        <time>2025-12-29T09:57:46Z</time>
      </trkpt>
      <trkpt lat="43.11265" lon="0.45322">
        <ele>587.2</ele>
        <time>2025-12-29T09:57:47Z</time>
      </trkpt>
      <trkpt lat="43.11269" lon="0.45329">
        <ele>587.2</ele>
        <time>2025-12-29T09:57:48Z</time>
      </trkpt>
      <trkpt lat="43.11271" lon="0.45336">
        <ele>587.2</ele>
        <time>2025-12-29T09:57:49Z</time>
      </trkpt>
      <trkpt lat="43.11275" lon="0.45343">
        <ele>587.2</ele>
        <time>2025-12-29T09:57:50Z</time>
      </trkpt>
      <trkpt lat="43.11278" lon="0.45349">
        <ele>587.2</ele>
        <time>2025-12-29T09:57:51Z</time>
      </trkpt>
      <trkpt lat="43.11281" lon="0.45356">
        <ele>587.2</ele>
        <time>2025-12-29T09:57:52Z</time>
      </trkpt>
      <trkpt lat="43.11284" lon="0.45363">
        <ele>586.6</ele>
        <time>2025-12-29T09:57:53Z</time>
      </trkpt>
      <trkpt lat="43.11287" lon="0.45369">
        <ele>586</ele>
        <time>2025-12-29T09:57:54Z</time>
      </trkpt>
      <trkpt lat="43.1129" lon="0.45376">
        <ele>586</ele>
        <time>2025-12-29T09:57:55Z</time>
      </trkpt>
      <trkpt lat="43.11294" lon="0.45383">
        <ele>586</ele>
        <time>2025-12-29T09:57:56Z</time>
      </trkpt>
      <trkpt lat="43.11297" lon="0.45389">
        <ele>586</ele>
        <time>2025-12-29T09:57:57Z</time>
      </trkpt>
      <trkpt lat="43.113" lon="0.45396">
        <ele>586</ele>
        <time>2025-12-29T09:57:58Z</time>
      </trkpt>
      <trkpt lat="43.11303" lon="0.45403">
        <ele>586</ele>
        <time>2025-12-29T09:57:59Z</time>
      </trkpt>
      <trkpt lat="43.11306" lon="0.45409">
        <ele>586</ele>
        <time>2025-12-29T09:58:00Z</time>
      </trkpt>
      <trkpt lat="43.11309" lon="0.45416">
        <ele>586</ele>
        <time>2025-12-29T09:58:01Z</time>
      </trkpt>
      <trkpt lat="43.11313" lon="0.45423">
        <ele>587.6</ele>
        <time>2025-12-29T09:58:02Z</time>
      </trkpt>
      <trkpt lat="43.11316" lon="0.4543">
        <ele>587.6</ele>
        <time>2025-12-29T09:58:03Z</time>
      </trkpt>
      <trkpt lat="43.11319" lon="0.45437">
        <ele>587.6</ele>
        <time>2025-12-29T09:58:04Z</time>
      </trkpt>
      <trkpt lat="43.11322" lon="0.45444">
        <ele>586.6</ele>
        <time>2025-12-29T09:58:05Z</time>
      </trkpt>
      <trkpt lat="43.11326" lon="0.45451">
        <ele>586.4</ele>
        <time>2025-12-29T09:58:06Z</time>
      </trkpt>
      <trkpt lat="43.11329" lon="0.45458">
        <ele>586.4</ele>
        <time>2025-12-29T09:58:07Z</time>
      </trkpt>
      <trkpt lat="43.11332" lon="0.45466">
        <ele>586.4</ele>
        <time>2025-12-29T09:58:08Z</time>
      </trkpt>
      <trkpt lat="43.11335" lon="0.45473">
        <ele>585.4</ele>
        <time>2025-12-29T09:58:09Z</time>
      </trkpt>
      <trkpt lat="43.11339" lon="0.45481">
        <ele>584.6</ele>
        <time>2025-12-29T09:58:10Z</time>
      </trkpt>
      <trkpt lat="43.11342" lon="0.45488">
        <ele>584.6</ele>
        <time>2025-12-29T09:58:11Z</time>
      </trkpt>
      <trkpt lat="43.11345" lon="0.45495">
        <ele>584.6</ele>
        <time>2025-12-29T09:58:12Z</time>
      </trkpt>
      <trkpt lat="43.11349" lon="0.45501">
        <ele>584.6</ele>
        <time>2025-12-29T09:58:13Z</time>
      </trkpt>
      <trkpt lat="43.11352" lon="0.45508">
        <ele>584.8</ele>
        <time>2025-12-29T09:58:14Z</time>
      </trkpt>
      <trkpt lat="43.11355" lon="0.45514">
        <ele>584.8</ele>
        <time>2025-12-29T09:58:15Z</time>
      </trkpt>
      <trkpt lat="43.11358" lon="0.45521">
        <ele>584.8</ele>
        <time>2025-12-29T09:58:16Z</time>
      </trkpt>
      <trkpt lat="43.11361" lon="0.45527">
        <ele>584.8</ele>
        <time>2025-12-29T09:58:17Z</time>
      </trkpt>
      <trkpt lat="43.11364" lon="0.45533">
        <ele>584</ele>
        <time>2025-12-29T09:58:18Z</time>
      </trkpt>
      <trkpt lat="43.11367" lon="0.45539">
        <ele>584</ele>
        <time>2025-12-29T09:58:19Z</time>
      </trkpt>
      <trkpt lat="43.1137" lon="0.45546">
        <ele>584</ele>
        <time>2025-12-29T09:58:20Z</time>
      </trkpt>
      <trkpt lat="43.11373" lon="0.45552">
        <ele>584.8</ele>
        <time>2025-12-29T09:58:21Z</time>
      </trkpt>
      <trkpt lat="43.11376" lon="0.45559">
        <ele>585</ele>
        <time>2025-12-29T09:58:22Z</time>
      </trkpt>
      <trkpt lat="43.11379" lon="0.45566">
        <ele>585</ele>
        <time>2025-12-29T09:58:23Z</time>
      </trkpt>
      <trkpt lat="43.11382" lon="0.45572">
        <ele>585</ele>
        <time>2025-12-29T09:58:24Z</time>
      </trkpt>
      <trkpt lat="43.11386" lon="0.45579">
        <ele>585</ele>
        <time>2025-12-29T09:58:25Z</time>
      </trkpt>
      <trkpt lat="43.11389" lon="0.45585">
        <ele>585.2</ele>
        <time>2025-12-29T09:58:26Z</time>
      </trkpt>
      <trkpt lat="43.11392" lon="0.45592">
        <ele>585.2</ele>
        <time>2025-12-29T09:58:27Z</time>
      </trkpt>
      <trkpt lat="43.11395" lon="0.45598">
        <ele>585.2</ele>
        <time>2025-12-29T09:58:28Z</time>
      </trkpt>
      <trkpt lat="43.11398" lon="0.45605">
        <ele>585.2</ele>
        <time>2025-12-29T09:58:29Z</time>
      </trkpt>
      <trkpt lat="43.11401" lon="0.45611">
        <ele>585.4</ele>
        <time>2025-12-29T09:58:30Z</time>
      </trkpt>
      <trkpt lat="43.11404" lon="0.45617">
        <ele>585.4</ele>
        <time>2025-12-29T09:58:31Z</time>
      </trkpt>
      <trkpt lat="43.11407" lon="0.45624">
        <ele>585.4</ele>
        <time>2025-12-29T09:58:32Z</time>
      </trkpt>
      <trkpt lat="43.1141" lon="0.4563">
        <ele>584.6</ele>
        <time>2025-12-29T09:58:33Z</time>
      </trkpt>
      <trkpt lat="43.11412" lon="0.45636">
        <ele>584.8</ele>
        <time>2025-12-29T09:58:34Z</time>
      </trkpt>
      <trkpt lat="43.11415" lon="0.45643">
        <ele>584.8</ele>
        <time>2025-12-29T09:58:35Z</time>
      </trkpt>
      <trkpt lat="43.11418" lon="0.45648">
        <ele>584.8</ele>
        <time>2025-12-29T09:58:36Z</time>
      </trkpt>
      <trkpt lat="43.11421" lon="0.45654">
        <ele>584.8</ele>
        <time>2025-12-29T09:58:37Z</time>
      </trkpt>
      <trkpt lat="43.11424" lon="0.4566">
        <ele>585</ele>
        <time>2025-12-29T09:58:38Z</time>
      </trkpt>
      <trkpt lat="43.11427" lon="0.45667">
        <ele>585</ele>
        <time>2025-12-29T09:58:39Z</time>
      </trkpt>
      <trkpt lat="43.1143" lon="0.45673">
        <ele>585</ele>
        <time>2025-12-29T09:58:40Z</time>
      </trkpt>
      <trkpt lat="43.11433" lon="0.45679">
        <ele>585</ele>
        <time>2025-12-29T09:58:41Z</time>
      </trkpt>
      <trkpt lat="43.11436" lon="0.45685">
        <ele>585.8</ele>
        <time>2025-12-29T09:58:42Z</time>
      </trkpt>
      <trkpt lat="43.11439" lon="0.45691">
        <ele>585.8</ele>
        <time>2025-12-29T09:58:43Z</time>
      </trkpt>
      <trkpt lat="43.11441" lon="0.45697">
        <ele>585.8</ele>
        <time>2025-12-29T09:58:44Z</time>
      </trkpt>
      <trkpt lat="43.11444" lon="0.45703">
        <ele>584.8</ele>
        <time>2025-12-29T09:58:45Z</time>
      </trkpt>
      <trkpt lat="43.11447" lon="0.4571">
        <ele>585</ele>
        <time>2025-12-29T09:58:46Z</time>
      </trkpt>
      <trkpt lat="43.1145" lon="0.45716">
        <ele>585</ele>
        <time>2025-12-29T09:58:47Z</time>
      </trkpt>
      <trkpt lat="43.11453" lon="0.45722">
        <ele>585</ele>
        <time>2025-12-29T09:58:48Z</time>
      </trkpt>
      <trkpt lat="43.11456" lon="0.45728">
        <ele>585</ele>
        <time>2025-12-29T09:58:49Z</time>
      </trkpt>
      <trkpt lat="43.11459" lon="0.45735">
        <ele>585.2</ele>
        <time>2025-12-29T09:58:50Z</time>
      </trkpt>
      <trkpt lat="43.11462" lon="0.45741">
        <ele>585.2</ele>
        <time>2025-12-29T09:58:51Z</time>
      </trkpt>
      <trkpt lat="43.11465" lon="0.45747">
        <ele>585.2</ele>
        <time>2025-12-29T09:58:52Z</time>
      </trkpt>
      <trkpt lat="43.11468" lon="0.45754">
        <ele>585.2</ele>
        <time>2025-12-29T09:58:53Z</time>
      </trkpt>
      <trkpt lat="43.11471" lon="0.45761">
        <ele>584.2</ele>
        <time>2025-12-29T09:58:54Z</time>
      </trkpt>
      <trkpt lat="43.11474" lon="0.45767">
        <ele>584.2</ele>
        <time>2025-12-29T09:58:55Z</time>
      </trkpt>
      <trkpt lat="43.11477" lon="0.45774">
        <ele>584.2</ele>
        <time>2025-12-29T09:58:56Z</time>
      </trkpt>
      <trkpt lat="43.1148" lon="0.4578">
        <ele>585.2</ele>
        <time>2025-12-29T09:58:57Z</time>
      </trkpt>
      <trkpt lat="43.11483" lon="0.45786">
        <ele>585.6</ele>
        <time>2025-12-29T09:58:58Z</time>
      </trkpt>
      <trkpt lat="43.11486" lon="0.45793">
        <ele>585.6</ele>
        <time>2025-12-29T09:58:59Z</time>
      </trkpt>
      <trkpt lat="43.11489" lon="0.45799">
        <ele>585.6</ele>
        <time>2025-12-29T09:59:00Z</time>
      </trkpt>
      <trkpt lat="43.11492" lon="0.45806">
        <ele>585</ele>
        <time>2025-12-29T09:59:01Z</time>
      </trkpt>
      <trkpt lat="43.11496" lon="0.45812">
        <ele>585.4</ele>
        <time>2025-12-29T09:59:02Z</time>
      </trkpt>
      <trkpt lat="43.11499" lon="0.45819">
        <ele>585.4</ele>
        <time>2025-12-29T09:59:03Z</time>
      </trkpt>
      <trkpt lat="43.11502" lon="0.45825">
        <ele>585.4</ele>
        <time>2025-12-29T09:59:04Z</time>
      </trkpt>
      <trkpt lat="43.11505" lon="0.45832">
        <ele>584.8</ele>
        <time>2025-12-29T09:59:05Z</time>
      </trkpt>
      <trkpt lat="43.11508" lon="0.45838">
        <ele>585</ele>
        <time>2025-12-29T09:59:06Z</time>
      </trkpt>
      <trkpt lat="43.11511" lon="0.45845">
        <ele>585</ele>
        <time>2025-12-29T09:59:07Z</time>
      </trkpt>
      <trkpt lat="43.11514" lon="0.45852">
        <ele>585</ele>
        <time>2025-12-29T09:59:08Z</time>
      </trkpt>
      <trkpt lat="43.11517" lon="0.45858">
        <ele>585</ele>
        <time>2025-12-29T09:59:09Z</time>
      </trkpt>
      <trkpt lat="43.1152" lon="0.45865">
        <ele>585</ele>
        <time>2025-12-29T09:59:10Z</time>
      </trkpt>
      <trkpt lat="43.11523" lon="0.45872">
        <ele>585</ele>
        <time>2025-12-29T09:59:11Z</time>
      </trkpt>
      <trkpt lat="43.11526" lon="0.45878">
        <ele>585</ele>
        <time>2025-12-29T09:59:12Z</time>
      </trkpt>
      <trkpt lat="43.11529" lon="0.45885">
        <ele>584.6</ele>
        <time>2025-12-29T09:59:13Z</time>
      </trkpt>
      <trkpt lat="43.11532" lon="0.45892">
        <ele>584</ele>
        <time>2025-12-29T09:59:14Z</time>
      </trkpt>
      <trkpt lat="43.11535" lon="0.45898">
        <ele>584</ele>
        <time>2025-12-29T09:59:15Z</time>
      </trkpt>
      <trkpt lat="43.11539" lon="0.45905">
        <ele>584</ele>
        <time>2025-12-29T09:59:16Z</time>
      </trkpt>
      <trkpt lat="43.11542" lon="0.45912">
        <ele>584</ele>
        <time>2025-12-29T09:59:17Z</time>
      </trkpt>
      <trkpt lat="43.11545" lon="0.45918">
        <ele>584</ele>
        <time>2025-12-29T09:59:18Z</time>
      </trkpt>
      <trkpt lat="43.11548" lon="0.45925">
        <ele>584</ele>
        <time>2025-12-29T09:59:19Z</time>
      </trkpt>
      <trkpt lat="43.11551" lon="0.45932">
        <ele>584</ele>
        <time>2025-12-29T09:59:20Z</time>
      </trkpt>
      <trkpt lat="43.11554" lon="0.45939">
        <ele>584</ele>
        <time>2025-12-29T09:59:21Z</time>
      </trkpt>
      <trkpt lat="43.11557" lon="0.45945">
        <ele>584</ele>
        <time>2025-12-29T09:59:22Z</time>
      </trkpt>
      <trkpt lat="43.11561" lon="0.45952">
        <ele>584</ele>
        <time>2025-12-29T09:59:23Z</time>
      </trkpt>
      <trkpt lat="43.11564" lon="0.45958">
        <ele>584</ele>
        <time>2025-12-29T09:59:24Z</time>
      </trkpt>
      <trkpt lat="43.11567" lon="0.45965">
        <ele>583.4</ele>
        <time>2025-12-29T09:59:25Z</time>
      </trkpt>
      <trkpt lat="43.1157" lon="0.45971">
        <ele>583.8</ele>
        <time>2025-12-29T09:59:26Z</time>
      </trkpt>
      <trkpt lat="43.11573" lon="0.45977">
        <ele>583.8</ele>
        <time>2025-12-29T09:59:27Z</time>
      </trkpt>
      <trkpt lat="43.11576" lon="0.45983">
        <ele>583.8</ele>
        <time>2025-12-29T09:59:28Z</time>
      </trkpt>
      <trkpt lat="43.11579" lon="0.4599">
        <ele>583.8</ele>
        <time>2025-12-29T09:59:29Z</time>
      </trkpt>
      <trkpt lat="43.11582" lon="0.45996">
        <ele>583</ele>
        <time>2025-12-29T09:59:30Z</time>
      </trkpt>
      <trkpt lat="43.11585" lon="0.46002">
        <ele>583</ele>
        <time>2025-12-29T09:59:31Z</time>
      </trkpt>
      <trkpt lat="43.11588" lon="0.46009">
        <ele>583</ele>
        <time>2025-12-29T09:59:32Z</time>
      </trkpt>
      <trkpt lat="43.11591" lon="0.46015">
        <ele>583.8</ele>
        <time>2025-12-29T09:59:33Z</time>
      </trkpt>
      <trkpt lat="43.11594" lon="0.46022">
        <ele>584.4</ele>
        <time>2025-12-29T09:59:34Z</time>
      </trkpt>
      <trkpt lat="43.11597" lon="0.46029">
        <ele>584.4</ele>
        <time>2025-12-29T09:59:35Z</time>
      </trkpt>
      <trkpt lat="43.116" lon="0.46035">
        <ele>584.4</ele>
        <time>2025-12-29T09:59:36Z</time>
      </trkpt>
      <trkpt lat="43.11603" lon="0.46042">
        <ele>584.4</ele>
        <time>2025-12-29T09:59:37Z</time>
      </trkpt>
      <trkpt lat="43.11606" lon="0.46048">
        <ele>583.8</ele>
        <time>2025-12-29T09:59:38Z</time>
      </trkpt>
      <trkpt lat="43.11609" lon="0.46054">
        <ele>583.8</ele>
        <time>2025-12-29T09:59:39Z</time>
      </trkpt>
      <trkpt lat="43.11612" lon="0.46061">
        <ele>583.8</ele>
        <time>2025-12-29T09:59:40Z</time>
      </trkpt>
      <trkpt lat="43.11615" lon="0.46067">
        <ele>583.8</ele>
        <time>2025-12-29T09:59:41Z</time>
      </trkpt>
      <trkpt lat="43.11618" lon="0.46073">
        <ele>583.8</ele>
        <time>2025-12-29T09:59:42Z</time>
      </trkpt>
      <trkpt lat="43.11621" lon="0.46079">
        <ele>583.8</ele>
        <time>2025-12-29T09:59:43Z</time>
      </trkpt>
      <trkpt lat="43.11624" lon="0.46085">
        <ele>583.8</ele>
        <time>2025-12-29T09:59:44Z</time>
      </trkpt>
      <trkpt lat="43.11627" lon="0.46091">
        <ele>583.8</ele>
        <time>2025-12-29T09:59:45Z</time>
      </trkpt>
      <trkpt lat="43.11631" lon="0.46097">
        <ele>583.2</ele>
        <time>2025-12-29T09:59:46Z</time>
      </trkpt>
      <trkpt lat="43.11634" lon="0.46103">
        <ele>583.2</ele>
        <time>2025-12-29T09:59:47Z</time>
      </trkpt>
      <trkpt lat="43.11637" lon="0.46109">
        <ele>583.2</ele>
        <time>2025-12-29T09:59:48Z</time>
      </trkpt>
      <trkpt lat="43.1164" lon="0.46115">
        <ele>583.4</ele>
        <time>2025-12-29T09:59:49Z</time>
      </trkpt>
      <trkpt lat="43.11643" lon="0.46121">
        <ele>582.8</ele>
        <time>2025-12-29T09:59:50Z</time>
      </trkpt>
      <trkpt lat="43.11646" lon="0.46127">
        <ele>582.8</ele>
        <time>2025-12-29T09:59:51Z</time>
      </trkpt>
      <trkpt lat="43.11649" lon="0.46133">
        <ele>582.8</ele>
        <time>2025-12-29T09:59:52Z</time>
      </trkpt>
      <trkpt lat="43.11652" lon="0.46138">
        <ele>582.8</ele>
        <time>2025-12-29T09:59:53Z</time>
      </trkpt>
      <trkpt lat="43.11655" lon="0.46144">
        <ele>583.4</ele>
        <time>2025-12-29T09:59:54Z</time>
      </trkpt>
      <trkpt lat="43.11658" lon="0.4615">
        <ele>583.4</ele>
        <time>2025-12-29T09:59:55Z</time>
      </trkpt>
      <trkpt lat="43.11661" lon="0.46155">
        <ele>583.4</ele>
        <time>2025-12-29T09:59:56Z</time>
      </trkpt>
      <trkpt lat="43.11664" lon="0.46161">
        <ele>583.2</ele>
        <time>2025-12-29T09:59:57Z</time>
      </trkpt>
      <trkpt lat="43.11667" lon="0.46167">
        <ele>582.8</ele>
        <time>2025-12-29T09:59:58Z</time>
      </trkpt>
      <trkpt lat="43.1167" lon="0.46173">
        <ele>582.8</ele>
        <time>2025-12-29T09:59:59Z</time>
      </trkpt>
      <trkpt lat="43.11673" lon="0.46179">
        <ele>582.8</ele>
        <time>2025-12-29T10:00:00Z</time>
      </trkpt>
      <trkpt lat="43.11676" lon="0.46185">
        <ele>582.8</ele>
        <time>2025-12-29T10:00:01Z</time>
      </trkpt>
      <trkpt lat="43.1168" lon="0.46192">
        <ele>582.8</ele>
        <time>2025-12-29T10:00:02Z</time>
      </trkpt>
      <trkpt lat="43.11683" lon="0.46198">
        <ele>582.8</ele>
        <time>2025-12-29T10:00:03Z</time>
      </trkpt>
      <trkpt lat="43.11686" lon="0.46204">
        <ele>582.8</ele>
        <time>2025-12-29T10:00:04Z</time>
      </trkpt>
      <trkpt lat="43.11689" lon="0.46211">
        <ele>582</ele>
        <time>2025-12-29T10:00:05Z</time>
      </trkpt>
      <trkpt lat="43.11693" lon="0.46218">
        <ele>582.2</ele>
        <time>2025-12-29T10:00:06Z</time>
      </trkpt>
      <trkpt lat="43.11696" lon="0.46224">
        <ele>582.2</ele>
        <time>2025-12-29T10:00:07Z</time>
      </trkpt>
      <trkpt lat="43.117" lon="0.46231">
        <ele>582.2</ele>
        <time>2025-12-29T10:00:08Z</time>
      </trkpt>
      <trkpt lat="43.11703" lon="0.46238">
        <ele>582.2</ele>
        <time>2025-12-29T10:00:09Z</time>
      </trkpt>
      <trkpt lat="43.11707" lon="0.46245">
        <ele>580.6</ele>
        <time>2025-12-29T10:00:10Z</time>
      </trkpt>
      <trkpt lat="43.1171" lon="0.46253">
        <ele>580.6</ele>
        <time>2025-12-29T10:00:11Z</time>
      </trkpt>
      <trkpt lat="43.11714" lon="0.4626">
        <ele>580.6</ele>
        <time>2025-12-29T10:00:12Z</time>
      </trkpt>
      <trkpt lat="43.11718" lon="0.46268">
        <ele>580.6</ele>
        <time>2025-12-29T10:00:13Z</time>
      </trkpt>
      <trkpt lat="43.11721" lon="0.46275">
        <ele>580.2</ele>
        <time>2025-12-29T10:00:14Z</time>
      </trkpt>
      <trkpt lat="43.11725" lon="0.46283">
        <ele>580.2</ele>
        <time>2025-12-29T10:00:15Z</time>
      </trkpt>
      <trkpt lat="43.11729" lon="0.4629">
        <ele>580.2</ele>
        <time>2025-12-29T10:00:16Z</time>
      </trkpt>
      <trkpt lat="43.11733" lon="0.46298">
        <ele>579.6</ele>
        <time>2025-12-29T10:00:17Z</time>
      </trkpt>
      <trkpt lat="43.11737" lon="0.46305">
        <ele>579.2</ele>
        <time>2025-12-29T10:00:18Z</time>
      </trkpt>
      <trkpt lat="43.1174" lon="0.46312">
        <ele>579.2</ele>
        <time>2025-12-29T10:00:19Z</time>
      </trkpt>
      <trkpt lat="43.11744" lon="0.4632">
        <ele>579.2</ele>
        <time>2025-12-29T10:00:20Z</time>
      </trkpt>
      <trkpt lat="43.11748" lon="0.46327">
        <ele>579.2</ele>
        <time>2025-12-29T10:00:21Z</time>
      </trkpt>
      <trkpt lat="43.11751" lon="0.46334">
        <ele>578.8</ele>
        <time>2025-12-29T10:00:22Z</time>
      </trkpt>
      <trkpt lat="43.11754" lon="0.4634">
        <ele>578.8</ele>
        <time>2025-12-29T10:00:23Z</time>
      </trkpt>
      <trkpt lat="43.11758" lon="0.46347">
        <ele>578.8</ele>
        <time>2025-12-29T10:00:24Z</time>
      </trkpt>
      <trkpt lat="43.11761" lon="0.46353">
        <ele>578.8</ele>
        <time>2025-12-29T10:00:25Z</time>
      </trkpt>
      <trkpt lat="43.11765" lon="0.4636">
        <ele>579.4</ele>
        <time>2025-12-29T10:00:26Z</time>
      </trkpt>
      <trkpt lat="43.11768" lon="0.46366">
        <ele>579.4</ele>
        <time>2025-12-29T10:00:27Z</time>
      </trkpt>
      <trkpt lat="43.11771" lon="0.46373">
        <ele>579.4</ele>
        <time>2025-12-29T10:00:28Z</time>
      </trkpt>
      <trkpt lat="43.11775" lon="0.46379">
        <ele>579.4</ele>
        <time>2025-12-29T10:00:29Z</time>
      </trkpt>
      <trkpt lat="43.11778" lon="0.46386">
        <ele>578.2</ele>
        <time>2025-12-29T10:00:30Z</time>
      </trkpt>
      <trkpt lat="43.11781" lon="0.46392">
        <ele>578.2</ele>
        <time>2025-12-29T10:00:31Z</time>
      </trkpt>
      <trkpt lat="43.11784" lon="0.46398">
        <ele>578.2</ele>
        <time>2025-12-29T10:00:32Z</time>
      </trkpt>
      <trkpt lat="43.11788" lon="0.46404">
        <ele>578.2</ele>
        <time>2025-12-29T10:00:33Z</time>
      </trkpt>
      <trkpt lat="43.11791" lon="0.46411">
        <ele>580.2</ele>
        <time>2025-12-29T10:00:34Z</time>
      </trkpt>
      <trkpt lat="43.11794" lon="0.46417">
        <ele>580.2</ele>
        <time>2025-12-29T10:00:35Z</time>
      </trkpt>
      <trkpt lat="43.11797" lon="0.46423">
        <ele>580.2</ele>
        <time>2025-12-29T10:00:36Z</time>
      </trkpt>
      <trkpt lat="43.118" lon="0.4643">
        <ele>579.4</ele>
        <time>2025-12-29T10:00:37Z</time>
      </trkpt>
      <trkpt lat="43.11803" lon="0.46436">
        <ele>579.8</ele>
        <time>2025-12-29T10:00:38Z</time>
      </trkpt>
      <trkpt lat="43.11806" lon="0.46442">
        <ele>579.8</ele>
        <time>2025-12-29T10:00:39Z</time>
      </trkpt>
      <trkpt lat="43.1181" lon="0.46448">
        <ele>579.8</ele>
        <time>2025-12-29T10:00:40Z</time>
      </trkpt>
      <trkpt lat="43.11813" lon="0.46454">
        <ele>579</ele>
        <time>2025-12-29T10:00:41Z</time>
      </trkpt>
      <trkpt lat="43.11816" lon="0.4646">
        <ele>579</ele>
        <time>2025-12-29T10:00:42Z</time>
      </trkpt>
      <trkpt lat="43.11818" lon="0.46466">
        <ele>579</ele>
        <time>2025-12-29T10:00:43Z</time>
      </trkpt>
      <trkpt lat="43.11821" lon="0.46472">
        <ele>579</ele>
        <time>2025-12-29T10:00:44Z</time>
      </trkpt>
      <trkpt lat="43.11824" lon="0.46478">
        <ele>579.8</ele>
        <time>2025-12-29T10:00:45Z</time>
      </trkpt>
      <trkpt lat="43.11826" lon="0.46484">
        <ele>580</ele>
        <time>2025-12-29T10:00:46Z</time>
      </trkpt>
      <trkpt lat="43.11829" lon="0.4649">
        <ele>580</ele>
        <time>2025-12-29T10:00:47Z</time>
      </trkpt>
      <trkpt lat="43.11832" lon="0.46496">
        <ele>580</ele>
        <time>2025-12-29T10:00:48Z</time>
      </trkpt>
      <trkpt lat="43.11834" lon="0.46502">
        <ele>580</ele>
        <time>2025-12-29T10:00:49Z</time>
      </trkpt>
      <trkpt lat="43.11837" lon="0.46508">
        <ele>580.6</ele>
        <time>2025-12-29T10:00:50Z</time>
      </trkpt>
      <trkpt lat="43.11839" lon="0.46514">
        <ele>580.6</ele>
        <time>2025-12-29T10:00:51Z</time>
      </trkpt>
      <trkpt lat="43.11842" lon="0.4652">
        <ele>580.6</ele>
        <time>2025-12-29T10:00:52Z</time>
      </trkpt>
      <trkpt lat="43.11844" lon="0.46526">
        <ele>579.6</ele>
        <time>2025-12-29T10:00:53Z</time>
      </trkpt>
      <trkpt lat="43.11847" lon="0.46533">
        <ele>579.6</ele>
        <time>2025-12-29T10:00:54Z</time>
      </trkpt>
      <trkpt lat="43.1185" lon="0.46539">
        <ele>579.6</ele>
        <time>2025-12-29T10:00:55Z</time>
      </trkpt>
      <trkpt lat="43.11852" lon="0.46545">
        <ele>579.6</ele>
        <time>2025-12-29T10:00:56Z</time>
      </trkpt>
      <trkpt lat="43.11855" lon="0.46552">
        <ele>579.6</ele>
        <time>2025-12-29T10:00:57Z</time>
      </trkpt>
      <trkpt lat="43.11858" lon="0.46558">
        <ele>580</ele>
        <time>2025-12-29T10:00:58Z</time>
      </trkpt>
      <trkpt lat="43.1186" lon="0.46565">
        <ele>580</ele>
        <time>2025-12-29T10:00:59Z</time>
      </trkpt>
      <trkpt lat="43.11863" lon="0.46571">
        <ele>580</ele>
        <time>2025-12-29T10:01:00Z</time>
      </trkpt>
      <trkpt lat="43.11866" lon="0.46578">
        <ele>580</ele>
        <time>2025-12-29T10:01:01Z</time>
      </trkpt>
      <trkpt lat="43.11868" lon="0.46584">
        <ele>579.6</ele>
        <time>2025-12-29T10:01:02Z</time>
      </trkpt>
      <trkpt lat="43.11871" lon="0.46591">
        <ele>579.6</ele>
        <time>2025-12-29T10:01:03Z</time>
      </trkpt>
      <trkpt lat="43.11874" lon="0.46598">
        <ele>579.6</ele>
        <time>2025-12-29T10:01:04Z</time>
      </trkpt>
      <trkpt lat="43.11876" lon="0.46604">
        <ele>579.2</ele>
        <time>2025-12-29T10:01:05Z</time>
      </trkpt>
      <trkpt lat="43.11879" lon="0.46611">
        <ele>578.8</ele>
        <time>2025-12-29T10:01:06Z</time>
      </trkpt>
      <trkpt lat="43.11882" lon="0.46618">
        <ele>578.8</ele>
        <time>2025-12-29T10:01:07Z</time>
      </trkpt>
      <trkpt lat="43.11884" lon="0.46625">
        <ele>578.8</ele>
        <time>2025-12-29T10:01:08Z</time>
      </trkpt>
      <trkpt lat="43.11887" lon="0.46631">
        <ele>579</ele>
        <time>2025-12-29T10:01:09Z</time>
      </trkpt>
      <trkpt lat="43.1189" lon="0.46638">
        <ele>578.8</ele>
        <time>2025-12-29T10:01:10Z</time>
      </trkpt>
      <trkpt lat="43.11893" lon="0.46645">
        <ele>578.8</ele>
        <time>2025-12-29T10:01:11Z</time>
      </trkpt>
      <trkpt lat="43.11895" lon="0.46651">
        <ele>578.8</ele>
        <time>2025-12-29T10:01:12Z</time>
      </trkpt>
      <trkpt lat="43.11898" lon="0.46658">
        <ele>578.8</ele>
        <time>2025-12-29T10:01:13Z</time>
      </trkpt>
      <trkpt lat="43.11901" lon="0.46665">
        <ele>578.4</ele>
        <time>2025-12-29T10:01:14Z</time>
      </trkpt>
      <trkpt lat="43.11904" lon="0.46672">
        <ele>578.4</ele>
        <time>2025-12-29T10:01:15Z</time>
      </trkpt>
      <trkpt lat="43.11906" lon="0.46678">
        <ele>578.4</ele>
        <time>2025-12-29T10:01:16Z</time>
      </trkpt>
      <trkpt lat="43.11909" lon="0.46685">
        <ele>578.2</ele>
        <time>2025-12-29T10:01:17Z</time>
      </trkpt>
      <trkpt lat="43.11912" lon="0.46691">
        <ele>578.4</ele>
        <time>2025-12-29T10:01:18Z</time>
      </trkpt>
      <trkpt lat="43.11914" lon="0.46698">
        <ele>578.4</ele>
        <time>2025-12-29T10:01:19Z</time>
      </trkpt>
      <trkpt lat="43.11917" lon="0.46704">
        <ele>578.4</ele>
        <time>2025-12-29T10:01:20Z</time>
      </trkpt>
      <trkpt lat="43.1192" lon="0.4671">
        <ele>578.4</ele>
        <time>2025-12-29T10:01:21Z</time>
      </trkpt>
      <trkpt lat="43.11922" lon="0.46717">
        <ele>577.8</ele>
        <time>2025-12-29T10:01:22Z</time>
      </trkpt>
      <trkpt lat="43.11925" lon="0.46723">
        <ele>577.8</ele>
        <time>2025-12-29T10:01:23Z</time>
      </trkpt>
      <trkpt lat="43.11928" lon="0.4673">
        <ele>577.8</ele>
        <time>2025-12-29T10:01:24Z</time>
      </trkpt>
      <trkpt lat="43.11931" lon="0.46736">
        <ele>577.8</ele>
        <time>2025-12-29T10:01:25Z</time>
      </trkpt>
      <trkpt lat="43.11933" lon="0.46743">
        <ele>577.6</ele>
        <time>2025-12-29T10:01:26Z</time>
      </trkpt>
      <trkpt lat="43.11936" lon="0.46749">
        <ele>577.6</ele>
        <time>2025-12-29T10:01:27Z</time>
      </trkpt>
      <trkpt lat="43.11939" lon="0.46756">
        <ele>577.6</ele>
        <time>2025-12-29T10:01:28Z</time>
      </trkpt>
      <trkpt lat="43.11942" lon="0.46763">
        <ele>577.6</ele>
        <time>2025-12-29T10:01:29Z</time>
      </trkpt>
      <trkpt lat="43.11945" lon="0.4677">
        <ele>577.4</ele>
        <time>2025-12-29T10:01:30Z</time>
      </trkpt>
      <trkpt lat="43.11947" lon="0.46777">
        <ele>577.4</ele>
        <time>2025-12-29T10:01:31Z</time>
      </trkpt>
      <trkpt lat="43.1195" lon="0.46784">
        <ele>577.4</ele>
        <time>2025-12-29T10:01:32Z</time>
      </trkpt>
      <trkpt lat="43.11953" lon="0.46791">
        <ele>577.4</ele>
        <time>2025-12-29T10:01:33Z</time>
      </trkpt>
      <trkpt lat="43.11956" lon="0.46798">
        <ele>576.8</ele>
        <time>2025-12-29T10:01:34Z</time>
      </trkpt>
      <trkpt lat="43.11959" lon="0.46805">
        <ele>576.8</ele>
        <time>2025-12-29T10:01:35Z</time>
      </trkpt>
      <trkpt lat="43.11963" lon="0.46813">
        <ele>576.8</ele>
        <time>2025-12-29T10:01:36Z</time>
      </trkpt>
      <trkpt lat="43.11966" lon="0.4682">
        <ele>576.2</ele>
        <time>2025-12-29T10:01:37Z</time>
      </trkpt>
      <trkpt lat="43.11969" lon="0.46828">
        <ele>575.8</ele>
        <time>2025-12-29T10:01:38Z</time>
      </trkpt>
      <trkpt lat="43.11972" lon="0.46835">
        <ele>575.8</ele>
        <time>2025-12-29T10:01:39Z</time>
      </trkpt>
      <trkpt lat="43.11975" lon="0.46843">
        <ele>575.8</ele>
        <time>2025-12-29T10:01:40Z</time>
      </trkpt>
      <trkpt lat="43.11978" lon="0.4685">
        <ele>575.4</ele>
        <time>2025-12-29T10:01:41Z</time>
      </trkpt>
      <trkpt lat="43.11982" lon="0.46858">
        <ele>574.8</ele>
        <time>2025-12-29T10:01:42Z</time>
      </trkpt>
      <trkpt lat="43.11985" lon="0.46866">
        <ele>574.8</ele>
        <time>2025-12-29T10:01:43Z</time>
      </trkpt>
      <trkpt lat="43.11988" lon="0.46873">
        <ele>574.8</ele>
        <time>2025-12-29T10:01:44Z</time>
      </trkpt>
      <trkpt lat="43.11991" lon="0.46881">
        <ele>574.8</ele>
        <time>2025-12-29T10:01:45Z</time>
      </trkpt>
      <trkpt lat="43.11994" lon="0.46888">
        <ele>574.6</ele>
        <time>2025-12-29T10:01:46Z</time>
      </trkpt>
      <trkpt lat="43.11997" lon="0.46896">
        <ele>574.6</ele>
        <time>2025-12-29T10:01:47Z</time>
      </trkpt>
      <trkpt lat="43.12001" lon="0.46904">
        <ele>574.6</ele>
        <time>2025-12-29T10:01:48Z</time>
      </trkpt>
      <trkpt lat="43.12004" lon="0.46911">
        <ele>574.4</ele>
        <time>2025-12-29T10:01:49Z</time>
      </trkpt>
      <trkpt lat="43.12007" lon="0.46919">
        <ele>573.6</ele>
        <time>2025-12-29T10:01:50Z</time>
      </trkpt>
      <trkpt lat="43.1201" lon="0.46926">
        <ele>573.6</ele>
        <time>2025-12-29T10:01:51Z</time>
      </trkpt>
      <trkpt lat="43.12013" lon="0.46933">
        <ele>573.6</ele>
        <time>2025-12-29T10:01:52Z</time>
      </trkpt>
      <trkpt lat="43.12015" lon="0.46941">
        <ele>573.6</ele>
        <time>2025-12-29T10:01:53Z</time>
      </trkpt>
      <trkpt lat="43.12018" lon="0.46948">
        <ele>573.2</ele>
        <time>2025-12-29T10:01:54Z</time>
      </trkpt>
      <trkpt lat="43.12021" lon="0.46955">
        <ele>573.2</ele>
        <time>2025-12-29T10:01:55Z</time>
      </trkpt>
      <trkpt lat="43.12024" lon="0.46962">
        <ele>573.2</ele>
        <time>2025-12-29T10:01:56Z</time>
      </trkpt>
      <trkpt lat="43.12026" lon="0.46969">
        <ele>574.2</ele>
        <time>2025-12-29T10:01:57Z</time>
      </trkpt>
      <trkpt lat="43.12029" lon="0.46976">
        <ele>574.6</ele>
        <time>2025-12-29T10:01:58Z</time>
      </trkpt>
      <trkpt lat="43.12032" lon="0.46983">
        <ele>574.6</ele>
        <time>2025-12-29T10:01:59Z</time>
      </trkpt>
      <trkpt lat="43.12035" lon="0.4699">
        <ele>574.6</ele>
        <time>2025-12-29T10:02:00Z</time>
      </trkpt>
      <trkpt lat="43.12038" lon="0.46996">
        <ele>573.8</ele>
        <time>2025-12-29T10:02:01Z</time>
      </trkpt>
      <trkpt lat="43.12041" lon="0.47003">
        <ele>574</ele>
        <time>2025-12-29T10:02:02Z</time>
      </trkpt>
      <trkpt lat="43.12043" lon="0.4701">
        <ele>574</ele>
        <time>2025-12-29T10:02:03Z</time>
      </trkpt>
      <trkpt lat="43.12046" lon="0.47017">
        <ele>574</ele>
        <time>2025-12-29T10:02:04Z</time>
      </trkpt>
      <trkpt lat="43.12049" lon="0.47024">
        <ele>574</ele>
        <time>2025-12-29T10:02:05Z</time>
      </trkpt>
      <trkpt lat="43.12052" lon="0.47031">
        <ele>574</ele>
        <time>2025-12-29T10:02:06Z</time>
      </trkpt>
      <trkpt lat="43.12055" lon="0.47037">
        <ele>574</ele>
        <time>2025-12-29T10:02:07Z</time>
      </trkpt>
      <trkpt lat="43.12057" lon="0.47044">
        <ele>574</ele>
        <time>2025-12-29T10:02:08Z</time>
      </trkpt>
      <trkpt lat="43.1206" lon="0.47051">
        <ele>574</ele>
        <time>2025-12-29T10:02:09Z</time>
      </trkpt>
      <trkpt lat="43.12063" lon="0.47058">
        <ele>574</ele>
        <time>2025-12-29T10:02:10Z</time>
      </trkpt>
      <trkpt lat="43.12066" lon="0.47064">
        <ele>574</ele>
        <time>2025-12-29T10:02:11Z</time>
      </trkpt>
      <trkpt lat="43.12068" lon="0.47071">
        <ele>574</ele>
        <time>2025-12-29T10:02:12Z</time>
      </trkpt>
      <trkpt lat="43.12071" lon="0.47077">
        <ele>574</ele>
        <time>2025-12-29T10:02:13Z</time>
      </trkpt>
      <trkpt lat="43.12073" lon="0.47083">
        <ele>573.4</ele>
        <time>2025-12-29T10:02:14Z</time>
      </trkpt>
      <trkpt lat="43.12076" lon="0.4709">
        <ele>573.4</ele>
        <time>2025-12-29T10:02:15Z</time>
      </trkpt>
      <trkpt lat="43.12079" lon="0.47096">
        <ele>573.4</ele>
        <time>2025-12-29T10:02:16Z</time>
      </trkpt>
      <trkpt lat="43.12081" lon="0.47102">
        <ele>573.8</ele>
        <time>2025-12-29T10:02:17Z</time>
      </trkpt>
      <trkpt lat="43.12084" lon="0.47107">
        <ele>574</ele>
        <time>2025-12-29T10:02:18Z</time>
      </trkpt>
      <trkpt lat="43.12086" lon="0.47114">
        <ele>574</ele>
        <time>2025-12-29T10:02:19Z</time>
      </trkpt>
      <trkpt lat="43.12089" lon="0.4712">
        <ele>574</ele>
        <time>2025-12-29T10:02:20Z</time>
      </trkpt>
      <trkpt lat="43.12092" lon="0.47127">
        <ele>573.8</ele>
        <time>2025-12-29T10:02:21Z</time>
      </trkpt>
      <trkpt lat="43.12095" lon="0.47134">
        <ele>573</ele>
        <time>2025-12-29T10:02:22Z</time>
      </trkpt>
      <trkpt lat="43.12098" lon="0.47141">
        <ele>573</ele>
        <time>2025-12-29T10:02:23Z</time>
      </trkpt>
      <trkpt lat="43.12101" lon="0.47148">
        <ele>573</ele>
        <time>2025-12-29T10:02:24Z</time>
      </trkpt>
      <trkpt lat="43.12104" lon="0.47155">
        <ele>574</ele>
        <time>2025-12-29T10:02:25Z</time>
      </trkpt>
      <trkpt lat="43.12107" lon="0.47162">
        <ele>573.8</ele>
        <time>2025-12-29T10:02:26Z</time>
      </trkpt>
      <trkpt lat="43.1211" lon="0.4717">
        <ele>573.8</ele>
        <time>2025-12-29T10:02:27Z</time>
      </trkpt>
      <trkpt lat="43.12113" lon="0.47177">
        <ele>573.8</ele>
        <time>2025-12-29T10:02:28Z</time>
      </trkpt>
      <trkpt lat="43.12116" lon="0.47185">
        <ele>573.8</ele>
        <time>2025-12-29T10:02:29Z</time>
      </trkpt>
      <trkpt lat="43.12119" lon="0.47192">
        <ele>573.2</ele>
        <time>2025-12-29T10:02:30Z</time>
      </trkpt>
      <trkpt lat="43.12122" lon="0.472">
        <ele>573.2</ele>
        <time>2025-12-29T10:02:31Z</time>
      </trkpt>
      <trkpt lat="43.12125" lon="0.47208">
        <ele>573.2</ele>
        <time>2025-12-29T10:02:32Z</time>
      </trkpt>
      <trkpt lat="43.12129" lon="0.47216">
        <ele>573.2</ele>
        <time>2025-12-29T10:02:33Z</time>
      </trkpt>
      <trkpt lat="43.12132" lon="0.47223">
        <ele>572.8</ele>
        <time>2025-12-29T10:02:34Z</time>
      </trkpt>
      <trkpt lat="43.12135" lon="0.4723">
        <ele>572.8</ele>
        <time>2025-12-29T10:02:35Z</time>
      </trkpt>
      <trkpt lat="43.12138" lon="0.47238">
        <ele>572.8</ele>
        <time>2025-12-29T10:02:36Z</time>
      </trkpt>
      <trkpt lat="43.12141" lon="0.47245">
        <ele>573.8</ele>
        <time>2025-12-29T10:02:37Z</time>
      </trkpt>
      <trkpt lat="43.12145" lon="0.47253">
        <ele>574.6</ele>
        <time>2025-12-29T10:02:38Z</time>
      </trkpt>
      <trkpt lat="43.12148" lon="0.47261">
        <ele>574.6</ele>
        <time>2025-12-29T10:02:39Z</time>
      </trkpt>
      <trkpt lat="43.12151" lon="0.47268">
        <ele>574.6</ele>
        <time>2025-12-29T10:02:40Z</time>
      </trkpt>
      <trkpt lat="43.12154" lon="0.47275">
        <ele>573.6</ele>
        <time>2025-12-29T10:02:41Z</time>
      </trkpt>
      <trkpt lat="43.12157" lon="0.47283">
        <ele>573.2</ele>
        <time>2025-12-29T10:02:42Z</time>
      </trkpt>
      <trkpt lat="43.1216" lon="0.4729">
        <ele>573.2</ele>
        <time>2025-12-29T10:02:43Z</time>
      </trkpt>
      <trkpt lat="43.12163" lon="0.47297">
        <ele>573.2</ele>
        <time>2025-12-29T10:02:44Z</time>
      </trkpt>
      <trkpt lat="43.12166" lon="0.47304">
        <ele>572.8</ele>
        <time>2025-12-29T10:02:45Z</time>
      </trkpt>
      <trkpt lat="43.12169" lon="0.47311">
        <ele>573.2</ele>
        <time>2025-12-29T10:02:46Z</time>
      </trkpt>
      <trkpt lat="43.12172" lon="0.47318">
        <ele>573.2</ele>
        <time>2025-12-29T10:02:47Z</time>
      </trkpt>
      <trkpt lat="43.12175" lon="0.47325">
        <ele>573.2</ele>
        <time>2025-12-29T10:02:48Z</time>
      </trkpt>
      <trkpt lat="43.12178" lon="0.47332">
        <ele>573.2</ele>
        <time>2025-12-29T10:02:49Z</time>
      </trkpt>
      <trkpt lat="43.12181" lon="0.4734">
        <ele>572.6</ele>
        <time>2025-12-29T10:02:50Z</time>
      </trkpt>
      <trkpt lat="43.12184" lon="0.47347">
        <ele>572.6</ele>
        <time>2025-12-29T10:02:51Z</time>
      </trkpt>
      <trkpt lat="43.12187" lon="0.47354">
        <ele>572.6</ele>
        <time>2025-12-29T10:02:52Z</time>
      </trkpt>
      <trkpt lat="43.1219" lon="0.47362">
        <ele>572.6</ele>
        <time>2025-12-29T10:02:53Z</time>
      </trkpt>
      <trkpt lat="43.12193" lon="0.47369">
        <ele>572.6</ele>
        <time>2025-12-29T10:02:54Z</time>
      </trkpt>
      <trkpt lat="43.12196" lon="0.47377">
        <ele>572.6</ele>
        <time>2025-12-29T10:02:55Z</time>
      </trkpt>
      <trkpt lat="43.12199" lon="0.47385">
        <ele>572.6</ele>
        <time>2025-12-29T10:02:56Z</time>
      </trkpt>
      <trkpt lat="43.12203" lon="0.47392">
        <ele>572.6</ele>
        <time>2025-12-29T10:02:57Z</time>
      </trkpt>
      <trkpt lat="43.12206" lon="0.474">
        <ele>572.4</ele>
        <time>2025-12-29T10:02:58Z</time>
      </trkpt>
      <trkpt lat="43.12209" lon="0.47407">
        <ele>572.4</ele>
        <time>2025-12-29T10:02:59Z</time>
      </trkpt>
      <trkpt lat="43.12212" lon="0.47414">
        <ele>572.4</ele>
        <time>2025-12-29T10:03:00Z</time>
      </trkpt>
      <trkpt lat="43.12215" lon="0.47422">
        <ele>572.6</ele>
        <time>2025-12-29T10:03:01Z</time>
      </trkpt>
      <trkpt lat="43.12218" lon="0.4743">
        <ele>570.8</ele>
        <time>2025-12-29T10:03:02Z</time>
      </trkpt>
      <trkpt lat="43.12221" lon="0.47438">
        <ele>570.8</ele>
        <time>2025-12-29T10:03:03Z</time>
      </trkpt>
      <trkpt lat="43.12225" lon="0.47446">
        <ele>570.8</ele>
        <time>2025-12-29T10:03:04Z</time>
      </trkpt>
      <trkpt lat="43.12228" lon="0.47454">
        <ele>571</ele>
        <time>2025-12-29T10:03:05Z</time>
      </trkpt>
      <trkpt lat="43.12231" lon="0.47462">
        <ele>570.8</ele>
        <time>2025-12-29T10:03:06Z</time>
      </trkpt>
      <trkpt lat="43.12235" lon="0.4747">
        <ele>570.8</ele>
        <time>2025-12-29T10:03:07Z</time>
      </trkpt>
      <trkpt lat="43.12238" lon="0.47478">
        <ele>570.8</ele>
        <time>2025-12-29T10:03:08Z</time>
      </trkpt>
      <trkpt lat="43.12241" lon="0.47486">
        <ele>570.8</ele>
        <time>2025-12-29T10:03:09Z</time>
      </trkpt>
      <trkpt lat="43.12244" lon="0.47494">
        <ele>571</ele>
        <time>2025-12-29T10:03:10Z</time>
      </trkpt>
      <trkpt lat="43.12247" lon="0.47502">
        <ele>571</ele>
        <time>2025-12-29T10:03:11Z</time>
      </trkpt>
      <trkpt lat="43.1225" lon="0.47509">
        <ele>571</ele>
        <time>2025-12-29T10:03:12Z</time>
      </trkpt>
      <trkpt lat="43.12253" lon="0.47517">
        <ele>570.4</ele>
        <time>2025-12-29T10:03:13Z</time>
      </trkpt>
      <trkpt lat="43.12257" lon="0.47524">
        <ele>570.4</ele>
        <time>2025-12-29T10:03:14Z</time>
      </trkpt>
      <trkpt lat="43.1226" lon="0.47532">
        <ele>570.4</ele>
        <time>2025-12-29T10:03:15Z</time>
      </trkpt>
      <trkpt lat="43.12263" lon="0.4754">
        <ele>570.4</ele>
        <time>2025-12-29T10:03:16Z</time>
      </trkpt>
      <trkpt lat="43.12266" lon="0.47548">
        <ele>570.4</ele>
        <time>2025-12-29T10:03:17Z</time>
      </trkpt>
      <trkpt lat="43.1227" lon="0.47555">
        <ele>570.8</ele>
        <time>2025-12-29T10:03:18Z</time>
      </trkpt>
      <trkpt lat="43.12273" lon="0.47563">
        <ele>570.8</ele>
        <time>2025-12-29T10:03:19Z</time>
      </trkpt>
      <trkpt lat="43.12276" lon="0.4757">
        <ele>570.8</ele>
        <time>2025-12-29T10:03:20Z</time>
      </trkpt>
      <trkpt lat="43.12279" lon="0.47578">
        <ele>570.8</ele>
        <time>2025-12-29T10:03:21Z</time>
      </trkpt>
      <trkpt lat="43.12282" lon="0.47585">
        <ele>570.4</ele>
        <time>2025-12-29T10:03:22Z</time>
      </trkpt>
      <trkpt lat="43.12285" lon="0.47593">
        <ele>570.4</ele>
        <time>2025-12-29T10:03:23Z</time>
      </trkpt>
      <trkpt lat="43.12288" lon="0.47601">
        <ele>570.4</ele>
        <time>2025-12-29T10:03:24Z</time>
      </trkpt>
      <trkpt lat="43.12291" lon="0.47608">
        <ele>570.4</ele>
        <time>2025-12-29T10:03:25Z</time>
      </trkpt>
      <trkpt lat="43.12294" lon="0.47616">
        <ele>570.8</ele>
        <time>2025-12-29T10:03:26Z</time>
      </trkpt>
      <trkpt lat="43.12297" lon="0.47623">
        <ele>570.8</ele>
        <time>2025-12-29T10:03:27Z</time>
      </trkpt>
      <trkpt lat="43.12301" lon="0.4763">
        <ele>570.8</ele>
        <time>2025-12-29T10:03:28Z</time>
      </trkpt>
      <trkpt lat="43.12304" lon="0.47637">
        <ele>570</ele>
        <time>2025-12-29T10:03:29Z</time>
      </trkpt>
      <trkpt lat="43.12307" lon="0.47644">
        <ele>570.4</ele>
        <time>2025-12-29T10:03:30Z</time>
      </trkpt>
      <trkpt lat="43.12309" lon="0.47651">
        <ele>570.4</ele>
        <time>2025-12-29T10:03:31Z</time>
      </trkpt>
      <trkpt lat="43.12312" lon="0.47658">
        <ele>570.4</ele>
        <time>2025-12-29T10:03:32Z</time>
      </trkpt>
      <trkpt lat="43.12315" lon="0.47665">
        <ele>570.4</ele>
        <time>2025-12-29T10:03:33Z</time>
      </trkpt>
      <trkpt lat="43.12319" lon="0.47672">
        <ele>570.6</ele>
        <time>2025-12-29T10:03:34Z</time>
      </trkpt>
      <trkpt lat="43.12322" lon="0.47679">
        <ele>570.6</ele>
        <time>2025-12-29T10:03:35Z</time>
      </trkpt>
      <trkpt lat="43.12324" lon="0.47686">
        <ele>570.6</ele>
        <time>2025-12-29T10:03:36Z</time>
      </trkpt>
      <trkpt lat="43.12327" lon="0.47693">
        <ele>570.6</ele>
        <time>2025-12-29T10:03:37Z</time>
      </trkpt>
      <trkpt lat="43.1233" lon="0.477">
        <ele>570.2</ele>
        <time>2025-12-29T10:03:38Z</time>
      </trkpt>
      <trkpt lat="43.12333" lon="0.47708">
        <ele>570.2</ele>
        <time>2025-12-29T10:03:39Z</time>
      </trkpt>
      <trkpt lat="43.12336" lon="0.47715">
        <ele>570.2</ele>
        <time>2025-12-29T10:03:40Z</time>
      </trkpt>
      <trkpt lat="43.12339" lon="0.47722">
        <ele>570.2</ele>
        <time>2025-12-29T10:03:41Z</time>
      </trkpt>
      <trkpt lat="43.12342" lon="0.47729">
        <ele>570.4</ele>
        <time>2025-12-29T10:03:42Z</time>
      </trkpt>
      <trkpt lat="43.12345" lon="0.47736">
        <ele>570.4</ele>
        <time>2025-12-29T10:03:43Z</time>
      </trkpt>
      <trkpt lat="43.12348" lon="0.47743">
        <ele>570.4</ele>
        <time>2025-12-29T10:03:44Z</time>
      </trkpt>
      <trkpt lat="43.12351" lon="0.47751">
        <ele>570.4</ele>
        <time>2025-12-29T10:03:45Z</time>
      </trkpt>
      <trkpt lat="43.12354" lon="0.47758">
        <ele>570</ele>
        <time>2025-12-29T10:03:46Z</time>
      </trkpt>
      <trkpt lat="43.12357" lon="0.47766">
        <ele>570</ele>
        <time>2025-12-29T10:03:47Z</time>
      </trkpt>
      <trkpt lat="43.12359" lon="0.47773">
        <ele>570</ele>
        <time>2025-12-29T10:03:48Z</time>
      </trkpt>
      <trkpt lat="43.12362" lon="0.47781">
        <ele>569.6</ele>
        <time>2025-12-29T10:03:49Z</time>
      </trkpt>
      <trkpt lat="43.12365" lon="0.47789">
        <ele>569</ele>
        <time>2025-12-29T10:03:50Z</time>
      </trkpt>
      <trkpt lat="43.12368" lon="0.47796">
        <ele>569</ele>
        <time>2025-12-29T10:03:51Z</time>
      </trkpt>
      <trkpt lat="43.12371" lon="0.47804">
        <ele>569</ele>
        <time>2025-12-29T10:03:52Z</time>
      </trkpt>
      <trkpt lat="43.12374" lon="0.47811">
        <ele>569.4</ele>
        <time>2025-12-29T10:03:53Z</time>
      </trkpt>
      <trkpt lat="43.12376" lon="0.47818">
        <ele>569.2</ele>
        <time>2025-12-29T10:03:54Z</time>
      </trkpt>
      <trkpt lat="43.12379" lon="0.47826">
        <ele>569.2</ele>
        <time>2025-12-29T10:03:55Z</time>
      </trkpt>
      <trkpt lat="43.12381" lon="0.47834">
        <ele>569.2</ele>
        <time>2025-12-29T10:03:56Z</time>
      </trkpt>
      <trkpt lat="43.12384" lon="0.47841">
        <ele>569.2</ele>
        <time>2025-12-29T10:03:57Z</time>
      </trkpt>
      <trkpt lat="43.12387" lon="0.47849">
        <ele>568.6</ele>
        <time>2025-12-29T10:03:58Z</time>
      </trkpt>
      <trkpt lat="43.12389" lon="0.47856">
        <ele>568.6</ele>
        <time>2025-12-29T10:03:59Z</time>
      </trkpt>
      <trkpt lat="43.12392" lon="0.47863">
        <ele>568.6</ele>
        <time>2025-12-29T10:04:00Z</time>
      </trkpt>
      <trkpt lat="43.12394" lon="0.4787">
        <ele>568.6</ele>
        <time>2025-12-29T10:04:01Z</time>
      </trkpt>
      <trkpt lat="43.12397" lon="0.47877">
        <ele>568.2</ele>
        <time>2025-12-29T10:04:02Z</time>
      </trkpt>
      <trkpt lat="43.124" lon="0.47885">
        <ele>568.2</ele>
        <time>2025-12-29T10:04:03Z</time>
      </trkpt>
      <trkpt lat="43.12402" lon="0.47892">
        <ele>568.2</ele>
        <time>2025-12-29T10:04:04Z</time>
      </trkpt>
      <trkpt lat="43.12405" lon="0.47899">
        <ele>568.2</ele>
        <time>2025-12-29T10:04:05Z</time>
      </trkpt>
      <trkpt lat="43.12407" lon="0.47906">
        <ele>568.8</ele>
        <time>2025-12-29T10:04:06Z</time>
      </trkpt>
      <trkpt lat="43.12409" lon="0.47913">
        <ele>568.8</ele>
        <time>2025-12-29T10:04:07Z</time>
      </trkpt>
      <trkpt lat="43.12412" lon="0.4792">
        <ele>568.8</ele>
        <time>2025-12-29T10:04:08Z</time>
      </trkpt>
      <trkpt lat="43.12414" lon="0.47927">
        <ele>568.8</ele>
        <time>2025-12-29T10:04:09Z</time>
      </trkpt>
      <trkpt lat="43.12416" lon="0.47934">
        <ele>569</ele>
        <time>2025-12-29T10:04:10Z</time>
      </trkpt>
      <trkpt lat="43.12419" lon="0.47941">
        <ele>569</ele>
        <time>2025-12-29T10:04:11Z</time>
      </trkpt>
      <trkpt lat="43.12421" lon="0.47947">
        <ele>569</ele>
        <time>2025-12-29T10:04:12Z</time>
      </trkpt>
      <trkpt lat="43.12423" lon="0.47954">
        <ele>569.4</ele>
        <time>2025-12-29T10:04:13Z</time>
      </trkpt>
      <trkpt lat="43.12425" lon="0.47961">
        <ele>569.2</ele>
        <time>2025-12-29T10:04:14Z</time>
      </trkpt>
      <trkpt lat="43.12428" lon="0.47968">
        <ele>569.2</ele>
        <time>2025-12-29T10:04:15Z</time>
      </trkpt>
      <trkpt lat="43.1243" lon="0.47975">
        <ele>569.2</ele>
        <time>2025-12-29T10:04:16Z</time>
      </trkpt>
      <trkpt lat="43.12432" lon="0.47982">
        <ele>569.2</ele>
        <time>2025-12-29T10:04:17Z</time>
      </trkpt>
      <trkpt lat="43.12435" lon="0.47988">
        <ele>569.6</ele>
        <time>2025-12-29T10:04:18Z</time>
      </trkpt>
      <trkpt lat="43.12437" lon="0.47995">
        <ele>569.6</ele>
        <time>2025-12-29T10:04:19Z</time>
      </trkpt>
      <trkpt lat="43.1244" lon="0.48002">
        <ele>569.6</ele>
        <time>2025-12-29T10:04:20Z</time>
      </trkpt>
      <trkpt lat="43.12442" lon="0.48008">
        <ele>569.6</ele>
        <time>2025-12-29T10:04:21Z</time>
      </trkpt>
      <trkpt lat="43.12444" lon="0.48015">
        <ele>569.6</ele>
        <time>2025-12-29T10:04:22Z</time>
      </trkpt>
      <trkpt lat="43.12446" lon="0.48022">
        <ele>569.6</ele>
        <time>2025-12-29T10:04:23Z</time>
      </trkpt>
      <trkpt lat="43.12448" lon="0.48028">
        <ele>569.6</ele>
        <time>2025-12-29T10:04:24Z</time>
      </trkpt>
      <trkpt lat="43.12451" lon="0.48035">
        <ele>569.6</ele>
        <time>2025-12-29T10:04:25Z</time>
      </trkpt>
      <trkpt lat="43.12453" lon="0.48041">
        <ele>569.2</ele>
        <time>2025-12-29T10:04:26Z</time>
      </trkpt>
      <trkpt lat="43.12455" lon="0.48048">
        <ele>569.2</ele>
        <time>2025-12-29T10:04:27Z</time>
      </trkpt>
      <trkpt lat="43.12457" lon="0.48055">
        <ele>569.2</ele>
        <time>2025-12-29T10:04:28Z</time>
      </trkpt>
      <trkpt lat="43.1246" lon="0.48061">
        <ele>569.2</ele>
        <time>2025-12-29T10:04:29Z</time>
      </trkpt>
      <trkpt lat="43.12462" lon="0.48067">
        <ele>569.2</ele>
        <time>2025-12-29T10:04:30Z</time>
      </trkpt>
      <trkpt lat="43.12464" lon="0.48074">
        <ele>569.2</ele>
        <time>2025-12-29T10:04:31Z</time>
      </trkpt>
      <trkpt lat="43.12467" lon="0.48081">
        <ele>569.2</ele>
        <time>2025-12-29T10:04:32Z</time>
      </trkpt>
      <trkpt lat="43.12469" lon="0.48087">
        <ele>569.6</ele>
        <time>2025-12-29T10:04:33Z</time>
      </trkpt>
      <trkpt lat="43.12471" lon="0.48094">
        <ele>570.2</ele>
        <time>2025-12-29T10:04:34Z</time>
      </trkpt>
      <trkpt lat="43.12474" lon="0.48101">
        <ele>570.2</ele>
        <time>2025-12-29T10:04:35Z</time>
      </trkpt>
      <trkpt lat="43.12476" lon="0.48108">
        <ele>570.2</ele>
        <time>2025-12-29T10:04:36Z</time>
      </trkpt>
      <trkpt lat="43.12479" lon="0.48114">
        <ele>570.2</ele>
        <time>2025-12-29T10:04:37Z</time>
      </trkpt>
      <trkpt lat="43.12481" lon="0.48121">
        <ele>569.4</ele>
        <time>2025-12-29T10:04:38Z</time>
      </trkpt>
      <trkpt lat="43.12484" lon="0.48127">
        <ele>569.4</ele>
        <time>2025-12-29T10:04:39Z</time>
      </trkpt>
      <trkpt lat="43.12486" lon="0.48133">
        <ele>569.4</ele>
        <time>2025-12-29T10:04:40Z</time>
      </trkpt>
      <trkpt lat="43.12488" lon="0.4814">
        <ele>570.4</ele>
        <time>2025-12-29T10:04:41Z</time>
      </trkpt>
      <trkpt lat="43.12491" lon="0.48146">
        <ele>570</ele>
        <time>2025-12-29T10:04:42Z</time>
      </trkpt>
      <trkpt lat="43.12493" lon="0.48153">
        <ele>570</ele>
        <time>2025-12-29T10:04:43Z</time>
      </trkpt>
      <trkpt lat="43.12495" lon="0.4816">
        <ele>570</ele>
        <time>2025-12-29T10:04:44Z</time>
      </trkpt>
      <trkpt lat="43.12497" lon="0.48167">
        <ele>570</ele>
        <time>2025-12-29T10:04:45Z</time>
      </trkpt>
      <trkpt lat="43.12499" lon="0.48174">
        <ele>569.6</ele>
        <time>2025-12-29T10:04:46Z</time>
      </trkpt>
      <trkpt lat="43.12501" lon="0.48181">
        <ele>569.6</ele>
        <time>2025-12-29T10:04:47Z</time>
      </trkpt>
      <trkpt lat="43.12504" lon="0.48188">
        <ele>569.6</ele>
        <time>2025-12-29T10:04:48Z</time>
      </trkpt>
      <trkpt lat="43.12506" lon="0.48195">
        <ele>569.6</ele>
        <time>2025-12-29T10:04:49Z</time>
      </trkpt>
      <trkpt lat="43.12509" lon="0.48202">
        <ele>569.6</ele>
        <time>2025-12-29T10:04:50Z</time>
      </trkpt>
      <trkpt lat="43.12511" lon="0.48209">
        <ele>569.6</ele>
        <time>2025-12-29T10:04:51Z</time>
      </trkpt>
      <trkpt lat="43.12514" lon="0.48217">
        <ele>569.6</ele>
        <time>2025-12-29T10:04:52Z</time>
      </trkpt>
      <trkpt lat="43.12516" lon="0.48224">
        <ele>569.6</ele>
        <time>2025-12-29T10:04:53Z</time>
      </trkpt>
      <trkpt lat="43.12519" lon="0.48232">
        <ele>568.8</ele>
        <time>2025-12-29T10:04:54Z</time>
      </trkpt>
      <trkpt lat="43.12521" lon="0.48239">
        <ele>568.8</ele>
        <time>2025-12-29T10:04:55Z</time>
      </trkpt>
      <trkpt lat="43.12524" lon="0.48247">
        <ele>568.8</ele>
        <time>2025-12-29T10:04:56Z</time>
      </trkpt>
      <trkpt lat="43.12527" lon="0.48254">
        <ele>568.8</ele>
        <time>2025-12-29T10:04:57Z</time>
      </trkpt>
      <trkpt lat="43.12529" lon="0.48262">
        <ele>568.6</ele>
        <time>2025-12-29T10:04:58Z</time>
      </trkpt>
      <trkpt lat="43.12532" lon="0.4827">
        <ele>568.6</ele>
        <time>2025-12-29T10:04:59Z</time>
      </trkpt>
      <trkpt lat="43.12535" lon="0.48278">
        <ele>568.6</ele>
        <time>2025-12-29T10:05:00Z</time>
      </trkpt>
      <trkpt lat="43.12537" lon="0.48285">
        <ele>568.6</ele>
        <time>2025-12-29T10:05:01Z</time>
      </trkpt>
      <trkpt lat="43.1254" lon="0.48293">
        <ele>568</ele>
        <time>2025-12-29T10:05:02Z</time>
      </trkpt>
      <trkpt lat="43.12543" lon="0.48301">
        <ele>568</ele>
        <time>2025-12-29T10:05:03Z</time>
      </trkpt>
      <trkpt lat="43.12546" lon="0.48308">
        <ele>568</ele>
        <time>2025-12-29T10:05:04Z</time>
      </trkpt>
      <trkpt lat="43.12548" lon="0.48316">
        <ele>568</ele>
        <time>2025-12-29T10:05:05Z</time>
      </trkpt>
      <trkpt lat="43.12551" lon="0.48323">
        <ele>567.8</ele>
        <time>2025-12-29T10:05:06Z</time>
      </trkpt>
      <trkpt lat="43.12553" lon="0.48331">
        <ele>567.8</ele>
        <time>2025-12-29T10:05:07Z</time>
      </trkpt>
      <trkpt lat="43.12556" lon="0.48338">
        <ele>567.8</ele>
        <time>2025-12-29T10:05:08Z</time>
      </trkpt>
      <trkpt lat="43.12558" lon="0.48346">
        <ele>567.8</ele>
        <time>2025-12-29T10:05:09Z</time>
      </trkpt>
      <trkpt lat="43.12561" lon="0.48353">
        <ele>567.8</ele>
        <time>2025-12-29T10:05:10Z</time>
      </trkpt>
      <trkpt lat="43.12563" lon="0.48361">
        <ele>567.8</ele>
        <time>2025-12-29T10:05:11Z</time>
      </trkpt>
      <trkpt lat="43.12566" lon="0.48369">
        <ele>567.8</ele>
        <time>2025-12-29T10:05:12Z</time>
      </trkpt>
      <trkpt lat="43.12568" lon="0.48376">
        <ele>567.8</ele>
        <time>2025-12-29T10:05:13Z</time>
      </trkpt>
      <trkpt lat="43.1257" lon="0.48384">
        <ele>567.4</ele>
        <time>2025-12-29T10:05:14Z</time>
      </trkpt>
      <trkpt lat="43.12573" lon="0.48392">
        <ele>567.4</ele>
        <time>2025-12-29T10:05:15Z</time>
      </trkpt>
      <trkpt lat="43.12575" lon="0.48399">
        <ele>567.4</ele>
        <time>2025-12-29T10:05:16Z</time>
      </trkpt>
      <trkpt lat="43.12577" lon="0.48407">
        <ele>567.6</ele>
        <time>2025-12-29T10:05:17Z</time>
      </trkpt>
      <trkpt lat="43.1258" lon="0.48414">
        <ele>566.8</ele>
        <time>2025-12-29T10:05:18Z</time>
      </trkpt>
      <trkpt lat="43.12582" lon="0.48422">
        <ele>566.8</ele>
        <time>2025-12-29T10:05:19Z</time>
      </trkpt>
      <trkpt lat="43.12584" lon="0.48429">
        <ele>566.8</ele>
        <time>2025-12-29T10:05:20Z</time>
      </trkpt>
      <trkpt lat="43.12586" lon="0.48437">
        <ele>567</ele>
        <time>2025-12-29T10:05:21Z</time>
      </trkpt>
      <trkpt lat="43.12588" lon="0.48444">
        <ele>567.2</ele>
        <time>2025-12-29T10:05:22Z</time>
      </trkpt>
      <trkpt lat="43.1259" lon="0.48452">
        <ele>567.2</ele>
        <time>2025-12-29T10:05:23Z</time>
      </trkpt>
      <trkpt lat="43.12592" lon="0.48459">
        <ele>567.2</ele>
        <time>2025-12-29T10:05:24Z</time>
      </trkpt>
      <trkpt lat="43.12594" lon="0.48466">
        <ele>567.2</ele>
        <time>2025-12-29T10:05:25Z</time>
      </trkpt>
      <trkpt lat="43.12596" lon="0.48473">
        <ele>567.4</ele>
        <time>2025-12-29T10:05:26Z</time>
      </trkpt>
      <trkpt lat="43.12598" lon="0.4848">
        <ele>567.4</ele>
        <time>2025-12-29T10:05:27Z</time>
      </trkpt>
      <trkpt lat="43.12599" lon="0.48487">
        <ele>567.4</ele>
        <time>2025-12-29T10:05:28Z</time>
      </trkpt>
      <trkpt lat="43.12601" lon="0.48495">
        <ele>567.4</ele>
        <time>2025-12-29T10:05:29Z</time>
      </trkpt>
      <trkpt lat="43.12603" lon="0.48502">
        <ele>567.8</ele>
        <time>2025-12-29T10:05:30Z</time>
      </trkpt>
      <trkpt lat="43.12605" lon="0.48509">
        <ele>567.8</ele>
        <time>2025-12-29T10:05:31Z</time>
      </trkpt>
      <trkpt lat="43.12607" lon="0.48517">
        <ele>567.8</ele>
        <time>2025-12-29T10:05:32Z</time>
      </trkpt>
      <trkpt lat="43.12609" lon="0.48524">
        <ele>567.8</ele>
        <time>2025-12-29T10:05:33Z</time>
      </trkpt>
      <trkpt lat="43.12612" lon="0.48531">
        <ele>567.4</ele>
        <time>2025-12-29T10:05:34Z</time>
      </trkpt>
      <trkpt lat="43.12614" lon="0.48538">
        <ele>567.4</ele>
        <time>2025-12-29T10:05:35Z</time>
      </trkpt>
      <trkpt lat="43.12616" lon="0.48545">
        <ele>567.4</ele>
        <time>2025-12-29T10:05:36Z</time>
      </trkpt>
      <trkpt lat="43.12617" lon="0.48552">
        <ele>568</ele>
        <time>2025-12-29T10:05:37Z</time>
      </trkpt>
      <trkpt lat="43.12619" lon="0.48559">
        <ele>567.4</ele>
        <time>2025-12-29T10:05:38Z</time>
      </trkpt>
      <trkpt lat="43.12621" lon="0.48566">
        <ele>567.4</ele>
        <time>2025-12-29T10:05:39Z</time>
      </trkpt>
      <trkpt lat="43.12623" lon="0.48573">
        <ele>567.4</ele>
        <time>2025-12-29T10:05:40Z</time>
      </trkpt>
      <trkpt lat="43.12625" lon="0.4858">
        <ele>568</ele>
        <time>2025-12-29T10:05:41Z</time>
      </trkpt>
      <trkpt lat="43.12627" lon="0.48586">
        <ele>568</ele>
        <time>2025-12-29T10:05:42Z</time>
      </trkpt>
      <trkpt lat="43.12629" lon="0.48593">
        <ele>568</ele>
        <time>2025-12-29T10:05:43Z</time>
      </trkpt>
      <trkpt lat="43.12631" lon="0.486">
        <ele>568</ele>
        <time>2025-12-29T10:05:44Z</time>
      </trkpt>
      <trkpt lat="43.12633" lon="0.48607">
        <ele>568</ele>
        <time>2025-12-29T10:05:45Z</time>
      </trkpt>
      <trkpt lat="43.12634" lon="0.48614">
        <ele>567.8</ele>
        <time>2025-12-29T10:05:46Z</time>
      </trkpt>
      <trkpt lat="43.12636" lon="0.4862">
        <ele>567.8</ele>
        <time>2025-12-29T10:05:47Z</time>
      </trkpt>
      <trkpt lat="43.12638" lon="0.48627">
        <ele>567.8</ele>
        <time>2025-12-29T10:05:48Z</time>
      </trkpt>
      <trkpt lat="43.1264" lon="0.48634">
        <ele>568.2</ele>
        <time>2025-12-29T10:05:49Z</time>
      </trkpt>
      <trkpt lat="43.12642" lon="0.48641">
        <ele>568.2</ele>
        <time>2025-12-29T10:05:50Z</time>
      </trkpt>
      <trkpt lat="43.12644" lon="0.48648">
        <ele>568.2</ele>
        <time>2025-12-29T10:05:51Z</time>
      </trkpt>
      <trkpt lat="43.12646" lon="0.48654">
        <ele>568.2</ele>
        <time>2025-12-29T10:05:52Z</time>
      </trkpt>
      <trkpt lat="43.12648" lon="0.48661">
        <ele>568.2</ele>
        <time>2025-12-29T10:05:53Z</time>
      </trkpt>
      <trkpt lat="43.12649" lon="0.48668">
        <ele>568.4</ele>
        <time>2025-12-29T10:05:54Z</time>
      </trkpt>
      <trkpt lat="43.12651" lon="0.48675">
        <ele>568.4</ele>
        <time>2025-12-29T10:05:55Z</time>
      </trkpt>
      <trkpt lat="43.12653" lon="0.48681">
        <ele>568.4</ele>
        <time>2025-12-29T10:05:56Z</time>
      </trkpt>
      <trkpt lat="43.12655" lon="0.48688">
        <ele>567.6</ele>
        <time>2025-12-29T10:05:57Z</time>
      </trkpt>
      <trkpt lat="43.12657" lon="0.48695">
        <ele>567.8</ele>
        <time>2025-12-29T10:05:58Z</time>
      </trkpt>
      <trkpt lat="43.12659" lon="0.48702">
        <ele>567.8</ele>
        <time>2025-12-29T10:05:59Z</time>
      </trkpt>
      <trkpt lat="43.12661" lon="0.48709">
        <ele>567.8</ele>
        <time>2025-12-29T10:06:00Z</time>
      </trkpt>
      <trkpt lat="43.12663" lon="0.48717">
        <ele>567.8</ele>
        <time>2025-12-29T10:06:01Z</time>
      </trkpt>
      <trkpt lat="43.12665" lon="0.48724">
        <ele>567.6</ele>
        <time>2025-12-29T10:06:02Z</time>
      </trkpt>
      <trkpt lat="43.12667" lon="0.48731">
        <ele>567.6</ele>
        <time>2025-12-29T10:06:03Z</time>
      </trkpt>
      <trkpt lat="43.12669" lon="0.48738">
        <ele>567.6</ele>
        <time>2025-12-29T10:06:04Z</time>
      </trkpt>
      <trkpt lat="43.12671" lon="0.48745">
        <ele>567.6</ele>
        <time>2025-12-29T10:06:05Z</time>
      </trkpt>
      <trkpt lat="43.12673" lon="0.48752">
        <ele>567</ele>
        <time>2025-12-29T10:06:06Z</time>
      </trkpt>
      <trkpt lat="43.12675" lon="0.4876">
        <ele>567</ele>
        <time>2025-12-29T10:06:07Z</time>
      </trkpt>
      <trkpt lat="43.12677" lon="0.48767">
        <ele>567</ele>
        <time>2025-12-29T10:06:08Z</time>
      </trkpt>
      <trkpt lat="43.12679" lon="0.48774">
        <ele>567</ele>
        <time>2025-12-29T10:06:09Z</time>
      </trkpt>
      <trkpt lat="43.12681" lon="0.48782">
        <ele>566.6</ele>
        <time>2025-12-29T10:06:10Z</time>
      </trkpt>
      <trkpt lat="43.12682" lon="0.48789">
        <ele>566.6</ele>
        <time>2025-12-29T10:06:11Z</time>
      </trkpt>
      <trkpt lat="43.12685" lon="0.48796">
        <ele>566.6</ele>
        <time>2025-12-29T10:06:12Z</time>
      </trkpt>
      <trkpt lat="43.12687" lon="0.48803">
        <ele>566.6</ele>
        <time>2025-12-29T10:06:13Z</time>
      </trkpt>
      <trkpt lat="43.12689" lon="0.4881">
        <ele>566.2</ele>
        <time>2025-12-29T10:06:14Z</time>
      </trkpt>
      <trkpt lat="43.12691" lon="0.48817">
        <ele>566.2</ele>
        <time>2025-12-29T10:06:15Z</time>
      </trkpt>
      <trkpt lat="43.12692" lon="0.48824">
        <ele>566.2</ele>
        <time>2025-12-29T10:06:16Z</time>
      </trkpt>
      <trkpt lat="43.12695" lon="0.48831">
        <ele>566.2</ele>
        <time>2025-12-29T10:06:17Z</time>
      </trkpt>
      <trkpt lat="43.12696" lon="0.48837">
        <ele>565.8</ele>
        <time>2025-12-29T10:06:18Z</time>
      </trkpt>
      <trkpt lat="43.12698" lon="0.48845">
        <ele>565.8</ele>
        <time>2025-12-29T10:06:19Z</time>
      </trkpt>
      <trkpt lat="43.127" lon="0.48852">
        <ele>565.8</ele>
        <time>2025-12-29T10:06:20Z</time>
      </trkpt>
      <trkpt lat="43.12702" lon="0.48859">
        <ele>566.6</ele>
        <time>2025-12-29T10:06:21Z</time>
      </trkpt>
      <trkpt lat="43.12704" lon="0.48866">
        <ele>567</ele>
        <time>2025-12-29T10:06:22Z</time>
      </trkpt>
      <trkpt lat="43.12706" lon="0.48873">
        <ele>567</ele>
        <time>2025-12-29T10:06:23Z</time>
      </trkpt>
      <trkpt lat="43.12708" lon="0.4888">
        <ele>567</ele>
        <time>2025-12-29T10:06:24Z</time>
      </trkpt>
      <trkpt lat="43.1271" lon="0.48888">
        <ele>566.2</ele>
        <time>2025-12-29T10:06:25Z</time>
      </trkpt>
      <trkpt lat="43.12712" lon="0.48895">
        <ele>566.6</ele>
        <time>2025-12-29T10:06:26Z</time>
      </trkpt>
      <trkpt lat="43.12714" lon="0.48902">
        <ele>566.6</ele>
        <time>2025-12-29T10:06:27Z</time>
      </trkpt>
      <trkpt lat="43.12716" lon="0.48909">
        <ele>566.6</ele>
        <time>2025-12-29T10:06:28Z</time>
      </trkpt>
      <trkpt lat="43.12717" lon="0.48916">
        <ele>566.6</ele>
        <time>2025-12-29T10:06:29Z</time>
      </trkpt>
      <trkpt lat="43.12719" lon="0.48923">
        <ele>566.4</ele>
        <time>2025-12-29T10:06:30Z</time>
      </trkpt>
      <trkpt lat="43.12721" lon="0.4893">
        <ele>566.4</ele>
        <time>2025-12-29T10:06:31Z</time>
      </trkpt>
      <trkpt lat="43.12723" lon="0.48937">
        <ele>566.4</ele>
        <time>2025-12-29T10:06:32Z</time>
      </trkpt>
      <trkpt lat="43.12725" lon="0.48944">
        <ele>566.2</ele>
        <time>2025-12-29T10:06:33Z</time>
      </trkpt>
      <trkpt lat="43.12727" lon="0.48951">
        <ele>566</ele>
        <time>2025-12-29T10:06:34Z</time>
      </trkpt>
      <trkpt lat="43.12728" lon="0.48958">
        <ele>566</ele>
        <time>2025-12-29T10:06:35Z</time>
      </trkpt>
      <trkpt lat="43.1273" lon="0.48965">
        <ele>566</ele>
        <time>2025-12-29T10:06:36Z</time>
      </trkpt>
      <trkpt lat="43.12732" lon="0.48971">
        <ele>566</ele>
        <time>2025-12-29T10:06:37Z</time>
      </trkpt>
      <trkpt lat="43.12734" lon="0.48978">
        <ele>566.2</ele>
        <time>2025-12-29T10:06:38Z</time>
      </trkpt>
      <trkpt lat="43.12736" lon="0.48985">
        <ele>566.2</ele>
        <time>2025-12-29T10:06:39Z</time>
      </trkpt>
      <trkpt lat="43.12738" lon="0.48992">
        <ele>566.2</ele>
        <time>2025-12-29T10:06:40Z</time>
      </trkpt>
      <trkpt lat="43.1274" lon="0.48999">
        <ele>566.2</ele>
        <time>2025-12-29T10:06:41Z</time>
      </trkpt>
      <trkpt lat="43.12742" lon="0.49006">
        <ele>566.8</ele>
        <time>2025-12-29T10:06:42Z</time>
      </trkpt>
      <trkpt lat="43.12744" lon="0.49013">
        <ele>566.8</ele>
        <time>2025-12-29T10:06:43Z</time>
      </trkpt>
      <trkpt lat="43.12746" lon="0.4902">
        <ele>566.8</ele>
        <time>2025-12-29T10:06:44Z</time>
      </trkpt>
      <trkpt lat="43.12747" lon="0.49027">
        <ele>566</ele>
        <time>2025-12-29T10:06:45Z</time>
      </trkpt>
      <trkpt lat="43.12749" lon="0.49034">
        <ele>566.4</ele>
        <time>2025-12-29T10:06:46Z</time>
      </trkpt>
      <trkpt lat="43.12751" lon="0.49041">
        <ele>566.4</ele>
        <time>2025-12-29T10:06:47Z</time>
      </trkpt>
      <trkpt lat="43.12753" lon="0.49048">
        <ele>566.4</ele>
        <time>2025-12-29T10:06:48Z</time>
      </trkpt>
      <trkpt lat="43.12755" lon="0.49055">
        <ele>566.2</ele>
        <time>2025-12-29T10:06:49Z</time>
      </trkpt>
      <trkpt lat="43.12757" lon="0.49063">
        <ele>566.4</ele>
        <time>2025-12-29T10:06:50Z</time>
      </trkpt>
      <trkpt lat="43.12759" lon="0.4907">
        <ele>566.4</ele>
        <time>2025-12-29T10:06:51Z</time>
      </trkpt>
      <trkpt lat="43.12761" lon="0.49077">
        <ele>566.4</ele>
        <time>2025-12-29T10:06:52Z</time>
      </trkpt>
      <trkpt lat="43.12763" lon="0.49084">
        <ele>565.4</ele>
        <time>2025-12-29T10:06:53Z</time>
      </trkpt>
      <trkpt lat="43.12765" lon="0.49091">
        <ele>566.2</ele>
        <time>2025-12-29T10:06:54Z</time>
      </trkpt>
      <trkpt lat="43.12767" lon="0.49098">
        <ele>566.2</ele>
        <time>2025-12-29T10:06:55Z</time>
      </trkpt>
      <trkpt lat="43.12769" lon="0.49104">
        <ele>566.2</ele>
        <time>2025-12-29T10:06:56Z</time>
      </trkpt>
      <trkpt lat="43.12771" lon="0.49111">
        <ele>566.2</ele>
        <time>2025-12-29T10:06:57Z</time>
      </trkpt>
      <trkpt lat="43.12773" lon="0.49119">
        <ele>565.8</ele>
        <time>2025-12-29T10:06:58Z</time>
      </trkpt>
      <trkpt lat="43.12775" lon="0.49126">
        <ele>565.8</ele>
        <time>2025-12-29T10:06:59Z</time>
      </trkpt>
      <trkpt lat="43.12777" lon="0.49133">
        <ele>565.8</ele>
        <time>2025-12-29T10:07:00Z</time>
      </trkpt>
      <trkpt lat="43.12778" lon="0.4914">
        <ele>565.6</ele>
        <time>2025-12-29T10:07:01Z</time>
      </trkpt>
      <trkpt lat="43.1278" lon="0.49146">
        <ele>565.6</ele>
        <time>2025-12-29T10:07:02Z</time>
      </trkpt>
      <trkpt lat="43.12782" lon="0.49153">
        <ele>565.6</ele>
        <time>2025-12-29T10:07:03Z</time>
      </trkpt>
      <trkpt lat="43.12784" lon="0.4916">
        <ele>565.6</ele>
        <time>2025-12-29T10:07:04Z</time>
      </trkpt>
      <trkpt lat="43.12786" lon="0.49167">
        <ele>565.6</ele>
        <time>2025-12-29T10:07:05Z</time>
      </trkpt>
      <trkpt lat="43.12787" lon="0.49174">
        <ele>565.2</ele>
        <time>2025-12-29T10:07:06Z</time>
      </trkpt>
      <trkpt lat="43.12789" lon="0.49181">
        <ele>565.2</ele>
        <time>2025-12-29T10:07:07Z</time>
      </trkpt>
      <trkpt lat="43.12791" lon="0.49187">
        <ele>565.2</ele>
        <time>2025-12-29T10:07:08Z</time>
      </trkpt>
      <trkpt lat="43.12793" lon="0.49194">
        <ele>565.2</ele>
        <time>2025-12-29T10:07:09Z</time>
      </trkpt>
      <trkpt lat="43.12794" lon="0.49201">
        <ele>566</ele>
        <time>2025-12-29T10:07:10Z</time>
      </trkpt>
      <trkpt lat="43.12796" lon="0.49208">
        <ele>566</ele>
        <time>2025-12-29T10:07:11Z</time>
      </trkpt>
      <trkpt lat="43.12798" lon="0.49214">
        <ele>566</ele>
        <time>2025-12-29T10:07:12Z</time>
      </trkpt>
      <trkpt lat="43.128" lon="0.49221">
        <ele>565.6</ele>
        <time>2025-12-29T10:07:13Z</time>
      </trkpt>
      <trkpt lat="43.12802" lon="0.49228">
        <ele>565</ele>
        <time>2025-12-29T10:07:14Z</time>
      </trkpt>
      <trkpt lat="43.12804" lon="0.49234">
        <ele>565</ele>
        <time>2025-12-29T10:07:15Z</time>
      </trkpt>
      <trkpt lat="43.12806" lon="0.49241">
        <ele>565</ele>
        <time>2025-12-29T10:07:16Z</time>
      </trkpt>
      <trkpt lat="43.12808" lon="0.49248">
        <ele>565.4</ele>
        <time>2025-12-29T10:07:17Z</time>
      </trkpt>
      <trkpt lat="43.12809" lon="0.49255">
        <ele>564.8</ele>
        <time>2025-12-29T10:07:18Z</time>
      </trkpt>
      <trkpt lat="43.12811" lon="0.49262">
        <ele>564.8</ele>
        <time>2025-12-29T10:07:19Z</time>
      </trkpt>
      <trkpt lat="43.12813" lon="0.49269">
        <ele>564.8</ele>
        <time>2025-12-29T10:07:20Z</time>
      </trkpt>
      <trkpt lat="43.12815" lon="0.49276">
        <ele>564.8</ele>
        <time>2025-12-29T10:07:21Z</time>
      </trkpt>
      <trkpt lat="43.12817" lon="0.49282">
        <ele>565.2</ele>
        <time>2025-12-29T10:07:22Z</time>
      </trkpt>
      <trkpt lat="43.12819" lon="0.49289">
        <ele>565.2</ele>
        <time>2025-12-29T10:07:23Z</time>
      </trkpt>
      <trkpt lat="43.1282" lon="0.49296">
        <ele>565.2</ele>
        <time>2025-12-29T10:07:24Z</time>
      </trkpt>
      <trkpt lat="43.12822" lon="0.49303">
        <ele>565.2</ele>
        <time>2025-12-29T10:07:25Z</time>
      </trkpt>
      <trkpt lat="43.12824" lon="0.4931">
        <ele>565.2</ele>
        <time>2025-12-29T10:07:26Z</time>
      </trkpt>
      <trkpt lat="43.12826" lon="0.49316">
        <ele>565.2</ele>
        <time>2025-12-29T10:07:27Z</time>
      </trkpt>
      <trkpt lat="43.12828" lon="0.49323">
        <ele>565.2</ele>
        <time>2025-12-29T10:07:28Z</time>
      </trkpt>
      <trkpt lat="43.1283" lon="0.4933">
        <ele>564.6</ele>
        <time>2025-12-29T10:07:29Z</time>
      </trkpt>
      <trkpt lat="43.12832" lon="0.49337">
        <ele>565</ele>
        <time>2025-12-29T10:07:30Z</time>
      </trkpt>
      <trkpt lat="43.12834" lon="0.49343">
        <ele>565</ele>
        <time>2025-12-29T10:07:31Z</time>
      </trkpt>
      <trkpt lat="43.12836" lon="0.4935">
        <ele>565</ele>
        <time>2025-12-29T10:07:32Z</time>
      </trkpt>
      <trkpt lat="43.12838" lon="0.49357">
        <ele>565</ele>
        <time>2025-12-29T10:07:33Z</time>
      </trkpt>
      <trkpt lat="43.1284" lon="0.49363">
        <ele>565.2</ele>
        <time>2025-12-29T10:07:34Z</time>
      </trkpt>
      <trkpt lat="43.12842" lon="0.49369">
        <ele>565.2</ele>
        <time>2025-12-29T10:07:35Z</time>
      </trkpt>
      <trkpt lat="43.12845" lon="0.49376">
        <ele>565.2</ele>
        <time>2025-12-29T10:07:36Z</time>
      </trkpt>
      <trkpt lat="43.12848" lon="0.49382">
        <ele>564.2</ele>
        <time>2025-12-29T10:07:37Z</time>
      </trkpt>
      <trkpt lat="43.12851" lon="0.49389">
        <ele>563.8</ele>
        <time>2025-12-29T10:07:38Z</time>
      </trkpt>
      <trkpt lat="43.12853" lon="0.49396">
        <ele>563.8</ele>
        <time>2025-12-29T10:07:39Z</time>
      </trkpt>
      <trkpt lat="43.12856" lon="0.49403">
        <ele>563.8</ele>
        <time>2025-12-29T10:07:40Z</time>
      </trkpt>
      <trkpt lat="43.12859" lon="0.49409">
        <ele>563.8</ele>
        <time>2025-12-29T10:07:41Z</time>
      </trkpt>
      <trkpt lat="43.12862" lon="0.49415">
        <ele>564.4</ele>
        <time>2025-12-29T10:07:42Z</time>
      </trkpt>
      <trkpt lat="43.12865" lon="0.49422">
        <ele>564.4</ele>
        <time>2025-12-29T10:07:43Z</time>
      </trkpt>
      <trkpt lat="43.12869" lon="0.49429">
        <ele>564.4</ele>
        <time>2025-12-29T10:07:44Z</time>
      </trkpt>
      <trkpt lat="43.12872" lon="0.49436">
        <ele>563.4</ele>
        <time>2025-12-29T10:07:45Z</time>
      </trkpt>
      <trkpt lat="43.12876" lon="0.49443">
        <ele>563.6</ele>
        <time>2025-12-29T10:07:46Z</time>
      </trkpt>
      <trkpt lat="43.12879" lon="0.4945">
        <ele>563.6</ele>
        <time>2025-12-29T10:07:47Z</time>
      </trkpt>
      <trkpt lat="43.12882" lon="0.49457">
        <ele>563.6</ele>
        <time>2025-12-29T10:07:48Z</time>
      </trkpt>
      <trkpt lat="43.12885" lon="0.49465">
        <ele>563.6</ele>
        <time>2025-12-29T10:07:49Z</time>
      </trkpt>
      <trkpt lat="43.12889" lon="0.49472">
        <ele>563.2</ele>
        <time>2025-12-29T10:07:50Z</time>
      </trkpt>
      <trkpt lat="43.12892" lon="0.49479">
        <ele>563.2</ele>
        <time>2025-12-29T10:07:51Z</time>
      </trkpt>
      <trkpt lat="43.12895" lon="0.49487">
        <ele>563.2</ele>
        <time>2025-12-29T10:07:52Z</time>
      </trkpt>
      <trkpt lat="43.12899" lon="0.49494">
        <ele>563.2</ele>
        <time>2025-12-29T10:07:53Z</time>
      </trkpt>
      <trkpt lat="43.12902" lon="0.49502">
        <ele>562.8</ele>
        <time>2025-12-29T10:07:54Z</time>
      </trkpt>
      <trkpt lat="43.12905" lon="0.49509">
        <ele>562.8</ele>
        <time>2025-12-29T10:07:55Z</time>
      </trkpt>
      <trkpt lat="43.12909" lon="0.49516">
        <ele>562.8</ele>
        <time>2025-12-29T10:07:56Z</time>
      </trkpt>
      <trkpt lat="43.12912" lon="0.49524">
        <ele>562.8</ele>
        <time>2025-12-29T10:07:57Z</time>
      </trkpt>
      <trkpt lat="43.12915" lon="0.49531">
        <ele>562.6</ele>
        <time>2025-12-29T10:07:58Z</time>
      </trkpt>
      <trkpt lat="43.12918" lon="0.49539">
        <ele>562.6</ele>
        <time>2025-12-29T10:07:59Z</time>
      </trkpt>
      <trkpt lat="43.12921" lon="0.49546">
        <ele>562.6</ele>
        <time>2025-12-29T10:08:00Z</time>
      </trkpt>
      <trkpt lat="43.12925" lon="0.49554">
        <ele>561.6</ele>
        <time>2025-12-29T10:08:01Z</time>
      </trkpt>
      <trkpt lat="43.12928" lon="0.49561">
        <ele>561.6</ele>
        <time>2025-12-29T10:08:02Z</time>
      </trkpt>
      <trkpt lat="43.12931" lon="0.49568">
        <ele>561.6</ele>
        <time>2025-12-29T10:08:03Z</time>
      </trkpt>
      <trkpt lat="43.12934" lon="0.49576">
        <ele>561.6</ele>
        <time>2025-12-29T10:08:04Z</time>
      </trkpt>
      <trkpt lat="43.12937" lon="0.49583">
        <ele>561.6</ele>
        <time>2025-12-29T10:08:05Z</time>
      </trkpt>
      <trkpt lat="43.1294" lon="0.4959">
        <ele>560.2</ele>
        <time>2025-12-29T10:08:06Z</time>
      </trkpt>
      <trkpt lat="43.12943" lon="0.49597">
        <ele>560.2</ele>
        <time>2025-12-29T10:08:07Z</time>
      </trkpt>
      <trkpt lat="43.12946" lon="0.49604">
        <ele>560.2</ele>
        <time>2025-12-29T10:08:08Z</time>
      </trkpt>
      <trkpt lat="43.12949" lon="0.49612">
        <ele>561</ele>
        <time>2025-12-29T10:08:09Z</time>
      </trkpt>
      <trkpt lat="43.12952" lon="0.49619">
        <ele>560.2</ele>
        <time>2025-12-29T10:08:10Z</time>
      </trkpt>
      <trkpt lat="43.12955" lon="0.49627">
        <ele>560.2</ele>
        <time>2025-12-29T10:08:11Z</time>
      </trkpt>
      <trkpt lat="43.12958" lon="0.49634">
        <ele>560.2</ele>
        <time>2025-12-29T10:08:12Z</time>
      </trkpt>
      <trkpt lat="43.12961" lon="0.49641">
        <ele>560.6</ele>
        <time>2025-12-29T10:08:13Z</time>
      </trkpt>
      <trkpt lat="43.12965" lon="0.49648">
        <ele>561</ele>
        <time>2025-12-29T10:08:14Z</time>
      </trkpt>
      <trkpt lat="43.12968" lon="0.49656">
        <ele>561</ele>
        <time>2025-12-29T10:08:15Z</time>
      </trkpt>
      <trkpt lat="43.12971" lon="0.49663">
        <ele>561</ele>
        <time>2025-12-29T10:08:16Z</time>
      </trkpt>
      <trkpt lat="43.12974" lon="0.4967">
        <ele>560.2</ele>
        <time>2025-12-29T10:08:17Z</time>
      </trkpt>
      <trkpt lat="43.12978" lon="0.49677">
        <ele>559.4</ele>
        <time>2025-12-29T10:08:18Z</time>
      </trkpt>
      <trkpt lat="43.12981" lon="0.49684">
        <ele>559.4</ele>
        <time>2025-12-29T10:08:19Z</time>
      </trkpt>
      <trkpt lat="43.12984" lon="0.49691">
        <ele>559.4</ele>
        <time>2025-12-29T10:08:20Z</time>
      </trkpt>
      <trkpt lat="43.12987" lon="0.49698">
        <ele>559.4</ele>
        <time>2025-12-29T10:08:21Z</time>
      </trkpt>
      <trkpt lat="43.1299" lon="0.49705">
        <ele>559.4</ele>
        <time>2025-12-29T10:08:22Z</time>
      </trkpt>
      <trkpt lat="43.12994" lon="0.49712">
        <ele>559.4</ele>
        <time>2025-12-29T10:08:23Z</time>
      </trkpt>
      <trkpt lat="43.12997" lon="0.49718">
        <ele>559.4</ele>
        <time>2025-12-29T10:08:24Z</time>
      </trkpt>
      <trkpt lat="43.13" lon="0.49725">
        <ele>559.4</ele>
        <time>2025-12-29T10:08:25Z</time>
      </trkpt>
      <trkpt lat="43.13003" lon="0.49732">
        <ele>559.2</ele>
        <time>2025-12-29T10:08:26Z</time>
      </trkpt>
      <trkpt lat="43.13006" lon="0.49738">
        <ele>559.2</ele>
        <time>2025-12-29T10:08:27Z</time>
      </trkpt>
      <trkpt lat="43.13009" lon="0.49745">
        <ele>559.2</ele>
        <time>2025-12-29T10:08:28Z</time>
      </trkpt>
      <trkpt lat="43.13012" lon="0.49751">
        <ele>560</ele>
        <time>2025-12-29T10:08:29Z</time>
      </trkpt>
      <trkpt lat="43.13015" lon="0.49758">
        <ele>559.8</ele>
        <time>2025-12-29T10:08:30Z</time>
      </trkpt>
      <trkpt lat="43.13018" lon="0.49765">
        <ele>559.8</ele>
        <time>2025-12-29T10:08:31Z</time>
      </trkpt>
      <trkpt lat="43.13021" lon="0.49771">
        <ele>559.8</ele>
        <time>2025-12-29T10:08:32Z</time>
      </trkpt>
      <trkpt lat="43.13024" lon="0.49778">
        <ele>559.8</ele>
        <time>2025-12-29T10:08:33Z</time>
      </trkpt>
      <trkpt lat="43.13027" lon="0.49784">
        <ele>559.4</ele>
        <time>2025-12-29T10:08:34Z</time>
      </trkpt>
      <trkpt lat="43.1303" lon="0.49791">
        <ele>559.4</ele>
        <time>2025-12-29T10:08:35Z</time>
      </trkpt>
      <trkpt lat="43.13033" lon="0.49797">
        <ele>559.4</ele>
        <time>2025-12-29T10:08:36Z</time>
      </trkpt>
      <trkpt lat="43.13036" lon="0.49804">
        <ele>558.8</ele>
        <time>2025-12-29T10:08:37Z</time>
      </trkpt>
      <trkpt lat="43.13039" lon="0.4981">
        <ele>559.4</ele>
        <time>2025-12-29T10:08:38Z</time>
      </trkpt>
      <trkpt lat="43.13042" lon="0.49817">
        <ele>559.4</ele>
        <time>2025-12-29T10:08:39Z</time>
      </trkpt>
      <trkpt lat="43.13044" lon="0.49823">
        <ele>559.4</ele>
        <time>2025-12-29T10:08:40Z</time>
      </trkpt>
      <trkpt lat="43.13047" lon="0.4983">
        <ele>559.4</ele>
        <time>2025-12-29T10:08:41Z</time>
      </trkpt>
      <trkpt lat="43.1305" lon="0.49836">
        <ele>559.2</ele>
        <time>2025-12-29T10:08:42Z</time>
      </trkpt>
      <trkpt lat="43.13053" lon="0.49843">
        <ele>559.2</ele>
        <time>2025-12-29T10:08:43Z</time>
      </trkpt>
      <trkpt lat="43.13056" lon="0.49849">
        <ele>559.2</ele>
        <time>2025-12-29T10:08:44Z</time>
      </trkpt>
      <trkpt lat="43.13059" lon="0.49856">
        <ele>559.6</ele>
        <time>2025-12-29T10:08:45Z</time>
      </trkpt>
      <trkpt lat="43.13062" lon="0.49862">
        <ele>559.4</ele>
        <time>2025-12-29T10:08:46Z</time>
      </trkpt>
      <trkpt lat="43.13065" lon="0.49868">
        <ele>559.4</ele>
        <time>2025-12-29T10:08:47Z</time>
      </trkpt>
      <trkpt lat="43.13068" lon="0.49875">
        <ele>559.4</ele>
        <time>2025-12-29T10:08:48Z</time>
      </trkpt>
      <trkpt lat="43.13071" lon="0.49882">
        <ele>559.4</ele>
        <time>2025-12-29T10:08:49Z</time>
      </trkpt>
      <trkpt lat="43.13074" lon="0.49889">
        <ele>559.8</ele>
        <time>2025-12-29T10:08:50Z</time>
      </trkpt>
      <trkpt lat="43.13077" lon="0.49896">
        <ele>559.8</ele>
        <time>2025-12-29T10:08:51Z</time>
      </trkpt>
      <trkpt lat="43.1308" lon="0.49902">
        <ele>559.8</ele>
        <time>2025-12-29T10:08:52Z</time>
      </trkpt>
      <trkpt lat="43.13083" lon="0.49909">
        <ele>559.6</ele>
        <time>2025-12-29T10:08:53Z</time>
      </trkpt>
      <trkpt lat="43.13086" lon="0.49915">
        <ele>558.6</ele>
        <time>2025-12-29T10:08:54Z</time>
      </trkpt>
      <trkpt lat="43.13089" lon="0.49921">
        <ele>558.6</ele>
        <time>2025-12-29T10:08:55Z</time>
      </trkpt>
      <trkpt lat="43.13092" lon="0.49927">
        <ele>558.6</ele>
        <time>2025-12-29T10:08:56Z</time>
      </trkpt>
      <trkpt lat="43.13094" lon="0.49933">
        <ele>559</ele>
        <time>2025-12-29T10:08:57Z</time>
      </trkpt>
      <trkpt lat="43.13097" lon="0.49939">
        <ele>559.8</ele>
        <time>2025-12-29T10:08:58Z</time>
      </trkpt>
      <trkpt lat="43.131" lon="0.49945">
        <ele>559.8</ele>
        <time>2025-12-29T10:08:59Z</time>
      </trkpt>
      <trkpt lat="43.13102" lon="0.49951">
        <ele>559.8</ele>
        <time>2025-12-29T10:09:00Z</time>
      </trkpt>
      <trkpt lat="43.13105" lon="0.49957">
        <ele>559.8</ele>
        <time>2025-12-29T10:09:01Z</time>
      </trkpt>
      <trkpt lat="43.13108" lon="0.49964">
        <ele>559.8</ele>
        <time>2025-12-29T10:09:02Z</time>
      </trkpt>
      <trkpt lat="43.13111" lon="0.4997">
        <ele>559.8</ele>
        <time>2025-12-29T10:09:03Z</time>
      </trkpt>
      <trkpt lat="43.13114" lon="0.49977">
        <ele>559.8</ele>
        <time>2025-12-29T10:09:04Z</time>
      </trkpt>
      <trkpt lat="43.13117" lon="0.49984">
        <ele>559.8</ele>
        <time>2025-12-29T10:09:05Z</time>
      </trkpt>
      <trkpt lat="43.1312" lon="0.4999">
        <ele>558.6</ele>
        <time>2025-12-29T10:09:06Z</time>
      </trkpt>
      <trkpt lat="43.13122" lon="0.49996">
        <ele>558.6</ele>
        <time>2025-12-29T10:09:07Z</time>
      </trkpt>
      <trkpt lat="43.13125" lon="0.50003">
        <ele>558.6</ele>
        <time>2025-12-29T10:09:08Z</time>
      </trkpt>
      <trkpt lat="43.13128" lon="0.5001">
        <ele>558.6</ele>
        <time>2025-12-29T10:09:09Z</time>
      </trkpt>
      <trkpt lat="43.1313" lon="0.50017">
        <ele>559.2</ele>
        <time>2025-12-29T10:09:10Z</time>
      </trkpt>
      <trkpt lat="43.13132" lon="0.50024">
        <ele>559.2</ele>
        <time>2025-12-29T10:09:11Z</time>
      </trkpt>
      <trkpt lat="43.13133" lon="0.50031">
        <ele>559.2</ele>
        <time>2025-12-29T10:09:12Z</time>
      </trkpt>
      <trkpt lat="43.13134" lon="0.50039">
        <ele>559</ele>
        <time>2025-12-29T10:09:13Z</time>
      </trkpt>
      <trkpt lat="43.13136" lon="0.50046">
        <ele>558.6</ele>
        <time>2025-12-29T10:09:14Z</time>
      </trkpt>
      <trkpt lat="43.13137" lon="0.50053">
        <ele>558.6</ele>
        <time>2025-12-29T10:09:15Z</time>
      </trkpt>
      <trkpt lat="43.13138" lon="0.5006">
        <ele>558.6</ele>
        <time>2025-12-29T10:09:16Z</time>
      </trkpt>
      <trkpt lat="43.1314" lon="0.50067">
        <ele>558.6</ele>
        <time>2025-12-29T10:09:17Z</time>
      </trkpt>
      <trkpt lat="43.13141" lon="0.50075">
        <ele>558.6</ele>
        <time>2025-12-29T10:09:18Z</time>
      </trkpt>
      <trkpt lat="43.13143" lon="0.50082">
        <ele>558.6</ele>
        <time>2025-12-29T10:09:19Z</time>
      </trkpt>
      <trkpt lat="43.13144" lon="0.50089">
        <ele>558.6</ele>
        <time>2025-12-29T10:09:20Z</time>
      </trkpt>
      <trkpt lat="43.13146" lon="0.50096">
        <ele>558.6</ele>
        <time>2025-12-29T10:09:21Z</time>
      </trkpt>
      <trkpt lat="43.13147" lon="0.50103">
        <ele>558.6</ele>
        <time>2025-12-29T10:09:22Z</time>
      </trkpt>
      <trkpt lat="43.13149" lon="0.5011">
        <ele>558.6</ele>
        <time>2025-12-29T10:09:23Z</time>
      </trkpt>
      <trkpt lat="43.1315" lon="0.50116">
        <ele>558.6</ele>
        <time>2025-12-29T10:09:24Z</time>
      </trkpt>
      <trkpt lat="43.13152" lon="0.50123">
        <ele>557.8</ele>
        <time>2025-12-29T10:09:25Z</time>
      </trkpt>
      <trkpt lat="43.13152" lon="0.5013">
        <ele>558.4</ele>
        <time>2025-12-29T10:09:26Z</time>
      </trkpt>
      <trkpt lat="43.13154" lon="0.50137">
        <ele>558.4</ele>
        <time>2025-12-29T10:09:27Z</time>
      </trkpt>
      <trkpt lat="43.13155" lon="0.50144">
        <ele>558.4</ele>
        <time>2025-12-29T10:09:28Z</time>
      </trkpt>
      <trkpt lat="43.13157" lon="0.50151">
        <ele>558.4</ele>
        <time>2025-12-29T10:09:29Z</time>
      </trkpt>
      <trkpt lat="43.13158" lon="0.50158">
        <ele>558.4</ele>
        <time>2025-12-29T10:09:30Z</time>
      </trkpt>
      <trkpt lat="43.13159" lon="0.50165">
        <ele>558.4</ele>
        <time>2025-12-29T10:09:31Z</time>
      </trkpt>
      <trkpt lat="43.13161" lon="0.50172">
        <ele>558.4</ele>
        <time>2025-12-29T10:09:32Z</time>
      </trkpt>
      <trkpt lat="43.13162" lon="0.50179">
        <ele>558.4</ele>
        <time>2025-12-29T10:09:33Z</time>
      </trkpt>
      <trkpt lat="43.13164" lon="0.50186">
        <ele>558.4</ele>
        <time>2025-12-29T10:09:34Z</time>
      </trkpt>
      <trkpt lat="43.13165" lon="0.50193">
        <ele>558.4</ele>
        <time>2025-12-29T10:09:35Z</time>
      </trkpt>
      <trkpt lat="43.13166" lon="0.502">
        <ele>558.4</ele>
        <time>2025-12-29T10:09:36Z</time>
      </trkpt>
      <trkpt lat="43.13168" lon="0.50207">
        <ele>558.4</ele>
        <time>2025-12-29T10:09:37Z</time>
      </trkpt>
      <trkpt lat="43.1317" lon="0.50212">
        <ele>558.6</ele>
        <time>2025-12-29T10:09:38Z</time>
      </trkpt>
      <trkpt lat="43.13171" lon="0.50219">
        <ele>558.6</ele>
        <time>2025-12-29T10:09:39Z</time>
      </trkpt>
      <trkpt lat="43.13171" lon="0.50227">
        <ele>558.6</ele>
        <time>2025-12-29T10:09:40Z</time>
      </trkpt>
      <trkpt lat="43.13172" lon="0.50234">
        <ele>557.6</ele>
        <time>2025-12-29T10:09:41Z</time>
      </trkpt>
      <trkpt lat="43.13172" lon="0.50242">
        <ele>558</ele>
        <time>2025-12-29T10:09:42Z</time>
      </trkpt>
      <trkpt lat="43.13172" lon="0.5025">
        <ele>558</ele>
        <time>2025-12-29T10:09:43Z</time>
      </trkpt>
      <trkpt lat="43.13172" lon="0.50257">
        <ele>558</ele>
        <time>2025-12-29T10:09:44Z</time>
      </trkpt>
      <trkpt lat="43.13173" lon="0.50265">
        <ele>558</ele>
        <time>2025-12-29T10:09:45Z</time>
      </trkpt>
      <trkpt lat="43.13173" lon="0.50272">
        <ele>557.8</ele>
        <time>2025-12-29T10:09:46Z</time>
      </trkpt>
      <trkpt lat="43.13173" lon="0.5028">
        <ele>557.8</ele>
        <time>2025-12-29T10:09:47Z</time>
      </trkpt>
      <trkpt lat="43.13174" lon="0.50287">
        <ele>557.8</ele>
        <time>2025-12-29T10:09:48Z</time>
      </trkpt>
      <trkpt lat="43.13174" lon="0.50294">
        <ele>557.8</ele>
        <time>2025-12-29T10:09:49Z</time>
      </trkpt>
      <trkpt lat="43.13175" lon="0.50302">
        <ele>558</ele>
        <time>2025-12-29T10:09:50Z</time>
      </trkpt>
      <trkpt lat="43.13175" lon="0.50309">
        <ele>558</ele>
        <time>2025-12-29T10:09:51Z</time>
      </trkpt>
      <trkpt lat="43.13175" lon="0.50317">
        <ele>558</ele>
        <time>2025-12-29T10:09:52Z</time>
      </trkpt>
      <trkpt lat="43.13176" lon="0.50324">
        <ele>558</ele>
        <time>2025-12-29T10:09:53Z</time>
      </trkpt>
      <trkpt lat="43.13176" lon="0.50332">
        <ele>558</ele>
        <time>2025-12-29T10:09:54Z</time>
      </trkpt>
      <trkpt lat="43.13177" lon="0.5034">
        <ele>558</ele>
        <time>2025-12-29T10:09:55Z</time>
      </trkpt>
      <trkpt lat="43.13177" lon="0.50348">
        <ele>558</ele>
        <time>2025-12-29T10:09:56Z</time>
      </trkpt>
      <trkpt lat="43.13177" lon="0.50355">
        <ele>557.6</ele>
        <time>2025-12-29T10:09:57Z</time>
      </trkpt>
      <trkpt lat="43.13177" lon="0.50363">
        <ele>557</ele>
        <time>2025-12-29T10:09:58Z</time>
      </trkpt>
      <trkpt lat="43.13178" lon="0.50372">
        <ele>557</ele>
        <time>2025-12-29T10:09:59Z</time>
      </trkpt>
      <trkpt lat="43.13178" lon="0.5038">
        <ele>557</ele>
        <time>2025-12-29T10:10:00Z</time>
      </trkpt>
      <trkpt lat="43.13179" lon="0.50388">
        <ele>557</ele>
        <time>2025-12-29T10:10:01Z</time>
      </trkpt>
      <trkpt lat="43.1318" lon="0.50396">
        <ele>556.6</ele>
        <time>2025-12-29T10:10:02Z</time>
      </trkpt>
      <trkpt lat="43.1318" lon="0.50405">
        <ele>556.6</ele>
        <time>2025-12-29T10:10:03Z</time>
      </trkpt>
      <trkpt lat="43.13181" lon="0.50414">
        <ele>556.6</ele>
        <time>2025-12-29T10:10:04Z</time>
      </trkpt>
      <trkpt lat="43.13181" lon="0.50422">
        <ele>556.6</ele>
        <time>2025-12-29T10:10:05Z</time>
      </trkpt>
      <trkpt lat="43.13182" lon="0.50431">
        <ele>555.8</ele>
        <time>2025-12-29T10:10:06Z</time>
      </trkpt>
      <trkpt lat="43.13182" lon="0.5044">
        <ele>555.8</ele>
        <time>2025-12-29T10:10:07Z</time>
      </trkpt>
      <trkpt lat="43.13182" lon="0.50449">
        <ele>555.8</ele>
        <time>2025-12-29T10:10:08Z</time>
      </trkpt>
      <trkpt lat="43.13182" lon="0.50458">
        <ele>555.8</ele>
        <time>2025-12-29T10:10:09Z</time>
      </trkpt>
      <trkpt lat="43.13183" lon="0.50467">
        <ele>554.8</ele>
        <time>2025-12-29T10:10:10Z</time>
      </trkpt>
      <trkpt lat="43.13183" lon="0.50476">
        <ele>554.8</ele>
        <time>2025-12-29T10:10:11Z</time>
      </trkpt>
      <trkpt lat="43.13184" lon="0.50485">
        <ele>554.8</ele>
        <time>2025-12-29T10:10:12Z</time>
      </trkpt>
      <trkpt lat="43.13184" lon="0.50494">
        <ele>554.8</ele>
        <time>2025-12-29T10:10:13Z</time>
      </trkpt>
      <trkpt lat="43.13184" lon="0.50503">
        <ele>554.6</ele>
        <time>2025-12-29T10:10:14Z</time>
      </trkpt>
      <trkpt lat="43.13185" lon="0.50511">
        <ele>554.6</ele>
        <time>2025-12-29T10:10:15Z</time>
      </trkpt>
      <trkpt lat="43.13185" lon="0.5052">
        <ele>554.6</ele>
        <time>2025-12-29T10:10:16Z</time>
      </trkpt>
      <trkpt lat="43.13186" lon="0.50529">
        <ele>555</ele>
        <time>2025-12-29T10:10:17Z</time>
      </trkpt>
      <trkpt lat="43.13186" lon="0.50537">
        <ele>555.4</ele>
        <time>2025-12-29T10:10:18Z</time>
      </trkpt>
      <trkpt lat="43.13187" lon="0.50546">
        <ele>555.4</ele>
        <time>2025-12-29T10:10:19Z</time>
      </trkpt>
      <trkpt lat="43.13187" lon="0.50554">
        <ele>555.4</ele>
        <time>2025-12-29T10:10:20Z</time>
      </trkpt>
      <trkpt lat="43.13188" lon="0.50562">
        <ele>555.4</ele>
        <time>2025-12-29T10:10:21Z</time>
      </trkpt>
      <trkpt lat="43.13189" lon="0.5057">
        <ele>555.2</ele>
        <time>2025-12-29T10:10:22Z</time>
      </trkpt>
      <trkpt lat="43.13189" lon="0.50579">
        <ele>555.2</ele>
        <time>2025-12-29T10:10:23Z</time>
      </trkpt>
      <trkpt lat="43.1319" lon="0.50587">
        <ele>555.2</ele>
        <time>2025-12-29T10:10:24Z</time>
      </trkpt>
      <trkpt lat="43.1319" lon="0.50595">
        <ele>555.2</ele>
        <time>2025-12-29T10:10:25Z</time>
      </trkpt>
      <trkpt lat="43.13191" lon="0.50603">
        <ele>554.8</ele>
        <time>2025-12-29T10:10:26Z</time>
      </trkpt>
      <trkpt lat="43.13191" lon="0.50612">
        <ele>554.8</ele>
        <time>2025-12-29T10:10:27Z</time>
      </trkpt>
      <trkpt lat="43.13192" lon="0.5062">
        <ele>554.8</ele>
        <time>2025-12-29T10:10:28Z</time>
      </trkpt>
      <trkpt lat="43.13192" lon="0.50629">
        <ele>554.4</ele>
        <time>2025-12-29T10:10:29Z</time>
      </trkpt>
      <trkpt lat="43.13193" lon="0.50637">
        <ele>555.4</ele>
        <time>2025-12-29T10:10:30Z</time>
      </trkpt>
      <trkpt lat="43.13193" lon="0.50646">
        <ele>555.4</ele>
        <time>2025-12-29T10:10:31Z</time>
      </trkpt>
      <trkpt lat="43.13194" lon="0.50654">
        <ele>555.4</ele>
        <time>2025-12-29T10:10:32Z</time>
      </trkpt>
      <trkpt lat="43.13194" lon="0.50663">
        <ele>555</ele>
        <time>2025-12-29T10:10:33Z</time>
      </trkpt>
      <trkpt lat="43.13195" lon="0.50672">
        <ele>554.6</ele>
        <time>2025-12-29T10:10:34Z</time>
      </trkpt>
      <trkpt lat="43.13195" lon="0.50681">
        <ele>554.6</ele>
        <time>2025-12-29T10:10:35Z</time>
      </trkpt>
      <trkpt lat="43.13195" lon="0.50689">
        <ele>554.6</ele>
        <time>2025-12-29T10:10:36Z</time>
      </trkpt>
      <trkpt lat="43.13196" lon="0.50698">
        <ele>554.6</ele>
        <time>2025-12-29T10:10:37Z</time>
      </trkpt>
      <trkpt lat="43.13196" lon="0.50707">
        <ele>554.6</ele>
        <time>2025-12-29T10:10:38Z</time>
      </trkpt>
      <trkpt lat="43.13197" lon="0.50716">
        <ele>554.6</ele>
        <time>2025-12-29T10:10:39Z</time>
      </trkpt>
      <trkpt lat="43.13197" lon="0.50724">
        <ele>554.6</ele>
        <time>2025-12-29T10:10:40Z</time>
      </trkpt>
      <trkpt lat="43.13198" lon="0.50733">
        <ele>554.2</ele>
        <time>2025-12-29T10:10:41Z</time>
      </trkpt>
      <trkpt lat="43.13198" lon="0.50742">
        <ele>554.4</ele>
        <time>2025-12-29T10:10:42Z</time>
      </trkpt>
      <trkpt lat="43.13198" lon="0.50751">
        <ele>554.4</ele>
        <time>2025-12-29T10:10:43Z</time>
      </trkpt>
      <trkpt lat="43.13198" lon="0.50759">
        <ele>554.4</ele>
        <time>2025-12-29T10:10:44Z</time>
      </trkpt>
      <trkpt lat="43.13199" lon="0.50768">
        <ele>553.6</ele>
        <time>2025-12-29T10:10:45Z</time>
      </trkpt>
      <trkpt lat="43.13199" lon="0.50776">
        <ele>553.8</ele>
        <time>2025-12-29T10:10:46Z</time>
      </trkpt>
      <trkpt lat="43.13199" lon="0.50785">
        <ele>553.8</ele>
        <time>2025-12-29T10:10:47Z</time>
      </trkpt>
      <trkpt lat="43.13199" lon="0.50793">
        <ele>553.8</ele>
        <time>2025-12-29T10:10:48Z</time>
      </trkpt>
      <trkpt lat="43.13199" lon="0.50801">
        <ele>553.8</ele>
        <time>2025-12-29T10:10:49Z</time>
      </trkpt>
      <trkpt lat="43.13199" lon="0.50809">
        <ele>553.6</ele>
        <time>2025-12-29T10:10:50Z</time>
      </trkpt>
      <trkpt lat="43.13199" lon="0.50817">
        <ele>553.6</ele>
        <time>2025-12-29T10:10:51Z</time>
      </trkpt>
      <trkpt lat="43.13199" lon="0.50825">
        <ele>553.6</ele>
        <time>2025-12-29T10:10:52Z</time>
      </trkpt>
      <trkpt lat="43.13199" lon="0.50833">
        <ele>554.2</ele>
        <time>2025-12-29T10:10:53Z</time>
      </trkpt>
      <trkpt lat="43.13199" lon="0.50841">
        <ele>554</ele>
        <time>2025-12-29T10:10:54Z</time>
      </trkpt>
      <trkpt lat="43.13199" lon="0.50849">
        <ele>554</ele>
        <time>2025-12-29T10:10:55Z</time>
      </trkpt>
      <trkpt lat="43.13199" lon="0.50857">
        <ele>554</ele>
        <time>2025-12-29T10:10:56Z</time>
      </trkpt>
      <trkpt lat="43.132" lon="0.50865">
        <ele>554</ele>
        <time>2025-12-29T10:10:57Z</time>
      </trkpt>
      <trkpt lat="43.13199" lon="0.50873">
        <ele>553.6</ele>
        <time>2025-12-29T10:10:58Z</time>
      </trkpt>
      <trkpt lat="43.13199" lon="0.50881">
        <ele>553.6</ele>
        <time>2025-12-29T10:10:59Z</time>
      </trkpt>
      <trkpt lat="43.13199" lon="0.50889">
        <ele>553.6</ele>
        <time>2025-12-29T10:11:00Z</time>
      </trkpt>
      <trkpt lat="43.132" lon="0.50897">
        <ele>553.6</ele>
        <time>2025-12-29T10:11:01Z</time>
      </trkpt>
      <trkpt lat="43.13199" lon="0.50905">
        <ele>553.6</ele>
        <time>2025-12-29T10:11:02Z</time>
      </trkpt>
      <trkpt lat="43.13199" lon="0.50912">
        <ele>553.6</ele>
        <time>2025-12-29T10:11:03Z</time>
      </trkpt>
      <trkpt lat="43.13199" lon="0.5092">
        <ele>553.6</ele>
        <time>2025-12-29T10:11:04Z</time>
      </trkpt>
      <trkpt lat="43.13199" lon="0.50928">
        <ele>553.6</ele>
        <time>2025-12-29T10:11:05Z</time>
      </trkpt>
      <trkpt lat="43.13199" lon="0.50936">
        <ele>554</ele>
        <time>2025-12-29T10:11:06Z</time>
      </trkpt>
      <trkpt lat="43.13199" lon="0.50943">
        <ele>554</ele>
        <time>2025-12-29T10:11:07Z</time>
      </trkpt>
      <trkpt lat="43.13199" lon="0.50951">
        <ele>554</ele>
        <time>2025-12-29T10:11:08Z</time>
      </trkpt>
      <trkpt lat="43.13199" lon="0.50959">
        <ele>554</ele>
        <time>2025-12-29T10:11:09Z</time>
      </trkpt>
      <trkpt lat="43.13199" lon="0.50966">
        <ele>554</ele>
        <time>2025-12-29T10:11:10Z</time>
      </trkpt>
      <trkpt lat="43.13199" lon="0.50974">
        <ele>554</ele>
        <time>2025-12-29T10:11:11Z</time>
      </trkpt>
      <trkpt lat="43.13199" lon="0.50982">
        <ele>554</ele>
        <time>2025-12-29T10:11:12Z</time>
      </trkpt>
      <trkpt lat="43.13199" lon="0.50989">
        <ele>554</ele>
        <time>2025-12-29T10:11:13Z</time>
      </trkpt>
      <trkpt lat="43.13199" lon="0.50997">
        <ele>552.8</ele>
        <time>2025-12-29T10:11:14Z</time>
      </trkpt>
      <trkpt lat="43.13199" lon="0.51004">
        <ele>552.8</ele>
        <time>2025-12-29T10:11:15Z</time>
      </trkpt>
      <trkpt lat="43.13199" lon="0.51011">
        <ele>552.8</ele>
        <time>2025-12-29T10:11:16Z</time>
      </trkpt>
      <trkpt lat="43.13199" lon="0.51017">
        <ele>553.4</ele>
        <time>2025-12-29T10:11:17Z</time>
      </trkpt>
      <trkpt lat="43.13199" lon="0.51024">
        <ele>554.2</ele>
        <time>2025-12-29T10:11:18Z</time>
      </trkpt>
      <trkpt lat="43.13199" lon="0.5103">
        <ele>554.2</ele>
        <time>2025-12-29T10:11:19Z</time>
      </trkpt>
      <trkpt lat="43.13199" lon="0.51036">
        <ele>554.2</ele>
        <time>2025-12-29T10:11:20Z</time>
      </trkpt>
      <trkpt lat="43.13199" lon="0.51043">
        <ele>553.8</ele>
        <time>2025-12-29T10:11:21Z</time>
      </trkpt>
      <trkpt lat="43.13199" lon="0.51048">
        <ele>553.4</ele>
        <time>2025-12-29T10:11:22Z</time>
      </trkpt>
      <trkpt lat="43.13199" lon="0.51054">
        <ele>553.4</ele>
        <time>2025-12-29T10:11:23Z</time>
      </trkpt>
      <trkpt lat="43.132" lon="0.5106">
        <ele>553.4</ele>
        <time>2025-12-29T10:11:24Z</time>
      </trkpt>
      <trkpt lat="43.13199" lon="0.51065">
        <ele>553.4</ele>
        <time>2025-12-29T10:11:25Z</time>
      </trkpt>
      <trkpt lat="43.13199" lon="0.5107">
        <ele>553.6</ele>
        <time>2025-12-29T10:11:26Z</time>
      </trkpt>
      <trkpt lat="43.13199" lon="0.51076">
        <ele>553.6</ele>
        <time>2025-12-29T10:11:27Z</time>
      </trkpt>
      <trkpt lat="43.13199" lon="0.51081">
        <ele>553.6</ele>
        <time>2025-12-29T10:11:28Z</time>
      </trkpt>
      <trkpt lat="43.13199" lon="0.51086">
        <ele>554</ele>
        <time>2025-12-29T10:11:29Z</time>
      </trkpt>
      <trkpt lat="43.13199" lon="0.51091">
        <ele>553.8</ele>
        <time>2025-12-29T10:11:30Z</time>
      </trkpt>
      <trkpt lat="43.13199" lon="0.51096">
        <ele>553.8</ele>
        <time>2025-12-29T10:11:31Z</time>
      </trkpt>
      <trkpt lat="43.13199" lon="0.511">
        <ele>553.8</ele>
        <time>2025-12-29T10:11:32Z</time>
      </trkpt>
      <trkpt lat="43.13199" lon="0.51105">
        <ele>553.6</ele>
        <time>2025-12-29T10:11:33Z</time>
      </trkpt>
      <trkpt lat="43.13199" lon="0.51109">
        <ele>554.2</ele>
        <time>2025-12-29T10:11:34Z</time>
      </trkpt>
      <trkpt lat="43.13199" lon="0.51114">
        <ele>554.2</ele>
        <time>2025-12-29T10:11:35Z</time>
      </trkpt>
      <trkpt lat="43.13199" lon="0.51118">
        <ele>554.2</ele>
        <time>2025-12-29T10:11:36Z</time>
      </trkpt>
      <trkpt lat="43.13199" lon="0.51123">
        <ele>553.6</ele>
        <time>2025-12-29T10:11:37Z</time>
      </trkpt>
      <trkpt lat="43.13198" lon="0.51128">
        <ele>554.4</ele>
        <time>2025-12-29T10:11:38Z</time>
      </trkpt>
      <trkpt lat="43.13198" lon="0.51133">
        <ele>554.4</ele>
        <time>2025-12-29T10:11:39Z</time>
      </trkpt>
      <trkpt lat="43.13198" lon="0.51139">
        <ele>554.4</ele>
        <time>2025-12-29T10:11:40Z</time>
      </trkpt>
      <trkpt lat="43.13198" lon="0.51145">
        <ele>553.8</ele>
        <time>2025-12-29T10:11:41Z</time>
      </trkpt>
      <trkpt lat="43.13199" lon="0.51151">
        <ele>553.6</ele>
        <time>2025-12-29T10:11:42Z</time>
      </trkpt>
      <trkpt lat="43.13198" lon="0.51158">
        <ele>553.6</ele>
        <time>2025-12-29T10:11:43Z</time>
      </trkpt>
      <trkpt lat="43.13199" lon="0.51165">
        <ele>553.6</ele>
        <time>2025-12-29T10:11:44Z</time>
      </trkpt>
      <trkpt lat="43.13199" lon="0.51171">
        <ele>553.6</ele>
        <time>2025-12-29T10:11:45Z</time>
      </trkpt>
      <trkpt lat="43.13199" lon="0.51178">
        <ele>553</ele>
        <time>2025-12-29T10:11:46Z</time>
      </trkpt>
      <trkpt lat="43.13199" lon="0.51185">
        <ele>553</ele>
        <time>2025-12-29T10:11:47Z</time>
      </trkpt>
      <trkpt lat="43.13199" lon="0.51192">
        <ele>553</ele>
        <time>2025-12-29T10:11:48Z</time>
      </trkpt>
      <trkpt lat="43.132" lon="0.51199">
        <ele>553</ele>
        <time>2025-12-29T10:11:49Z</time>
      </trkpt>
      <trkpt lat="43.132" lon="0.51206">
        <ele>552.8</ele>
        <time>2025-12-29T10:11:50Z</time>
      </trkpt>
      <trkpt lat="43.13201" lon="0.51213">
        <ele>552.8</ele>
        <time>2025-12-29T10:11:51Z</time>
      </trkpt>
      <trkpt lat="43.13201" lon="0.5122">
        <ele>552.8</ele>
        <time>2025-12-29T10:11:52Z</time>
      </trkpt>
      <trkpt lat="43.13201" lon="0.51226">
        <ele>552.8</ele>
        <time>2025-12-29T10:11:53Z</time>
      </trkpt>
      <trkpt lat="43.13202" lon="0.51233">
        <ele>552.6</ele>
        <time>2025-12-29T10:11:54Z</time>
      </trkpt>
      <trkpt lat="43.13203" lon="0.5124">
        <ele>552.6</ele>
        <time>2025-12-29T10:11:55Z</time>
      </trkpt>
      <trkpt lat="43.13203" lon="0.51246">
        <ele>552.6</ele>
        <time>2025-12-29T10:11:56Z</time>
      </trkpt>
      <trkpt lat="43.13203" lon="0.51253">
        <ele>552.6</ele>
        <time>2025-12-29T10:11:57Z</time>
      </trkpt>
      <trkpt lat="43.13204" lon="0.51259">
        <ele>553.4</ele>
        <time>2025-12-29T10:11:58Z</time>
      </trkpt>
      <trkpt lat="43.13205" lon="0.51265">
        <ele>553.4</ele>
        <time>2025-12-29T10:11:59Z</time>
      </trkpt>
      <trkpt lat="43.13205" lon="0.51271">
        <ele>553.4</ele>
        <time>2025-12-29T10:12:00Z</time>
      </trkpt>
      <trkpt lat="43.13206" lon="0.51277">
        <ele>553.4</ele>
        <time>2025-12-29T10:12:01Z</time>
      </trkpt>
      <trkpt lat="43.13206" lon="0.51283">
        <ele>552.8</ele>
        <time>2025-12-29T10:12:02Z</time>
      </trkpt>
      <trkpt lat="43.13207" lon="0.51289">
        <ele>552.8</ele>
        <time>2025-12-29T10:12:03Z</time>
      </trkpt>
      <trkpt lat="43.13207" lon="0.51295">
        <ele>552.8</ele>
        <time>2025-12-29T10:12:04Z</time>
      </trkpt>
      <trkpt lat="43.13208" lon="0.51301">
        <ele>552.8</ele>
        <time>2025-12-29T10:12:05Z</time>
      </trkpt>
      <trkpt lat="43.13208" lon="0.51307">
        <ele>552.6</ele>
        <time>2025-12-29T10:12:06Z</time>
      </trkpt>
      <trkpt lat="43.13209" lon="0.51314">
        <ele>552.6</ele>
        <time>2025-12-29T10:12:07Z</time>
      </trkpt>
      <trkpt lat="43.13209" lon="0.5132">
        <ele>552.6</ele>
        <time>2025-12-29T10:12:08Z</time>
      </trkpt>
      <trkpt lat="43.1321" lon="0.51325">
        <ele>553.2</ele>
        <time>2025-12-29T10:12:09Z</time>
      </trkpt>
      <trkpt lat="43.1321" lon="0.51331">
        <ele>553.2</ele>
        <time>2025-12-29T10:12:10Z</time>
      </trkpt>
      <trkpt lat="43.13211" lon="0.51337">
        <ele>553.2</ele>
        <time>2025-12-29T10:12:11Z</time>
      </trkpt>
      <trkpt lat="43.13211" lon="0.51344">
        <ele>553.2</ele>
        <time>2025-12-29T10:12:12Z</time>
      </trkpt>
      <trkpt lat="43.13212" lon="0.5135">
        <ele>553</ele>
        <time>2025-12-29T10:12:13Z</time>
      </trkpt>
      <trkpt lat="43.13212" lon="0.51356">
        <ele>552.6</ele>
        <time>2025-12-29T10:12:14Z</time>
      </trkpt>
      <trkpt lat="43.13213" lon="0.51363">
        <ele>552.6</ele>
        <time>2025-12-29T10:12:15Z</time>
      </trkpt>
      <trkpt lat="43.13213" lon="0.5137">
        <ele>552.6</ele>
        <time>2025-12-29T10:12:16Z</time>
      </trkpt>
      <trkpt lat="43.13214" lon="0.51376">
        <ele>552.6</ele>
        <time>2025-12-29T10:12:17Z</time>
      </trkpt>
      <trkpt lat="43.13214" lon="0.51383">
        <ele>552.6</ele>
        <time>2025-12-29T10:12:18Z</time>
      </trkpt>
      <trkpt lat="43.13215" lon="0.5139">
        <ele>552.6</ele>
        <time>2025-12-29T10:12:19Z</time>
      </trkpt>
      <trkpt lat="43.13215" lon="0.51397">
        <ele>552.6</ele>
        <time>2025-12-29T10:12:20Z</time>
      </trkpt>
      <trkpt lat="43.13215" lon="0.51404">
        <ele>552.2</ele>
        <time>2025-12-29T10:12:21Z</time>
      </trkpt>
      <trkpt lat="43.13216" lon="0.51411">
        <ele>552.2</ele>
        <time>2025-12-29T10:12:22Z</time>
      </trkpt>
      <trkpt lat="43.13217" lon="0.51418">
        <ele>552.2</ele>
        <time>2025-12-29T10:12:23Z</time>
      </trkpt>
      <trkpt lat="43.13217" lon="0.51425">
        <ele>552.2</ele>
        <time>2025-12-29T10:12:24Z</time>
      </trkpt>
      <trkpt lat="43.13218" lon="0.51432">
        <ele>552</ele>
        <time>2025-12-29T10:12:25Z</time>
      </trkpt>
      <trkpt lat="43.13218" lon="0.51439">
        <ele>552</ele>
        <time>2025-12-29T10:12:26Z</time>
      </trkpt>
      <trkpt lat="43.13219" lon="0.51446">
        <ele>552</ele>
        <time>2025-12-29T10:12:27Z</time>
      </trkpt>
      <trkpt lat="43.1322" lon="0.51453">
        <ele>552</ele>
        <time>2025-12-29T10:12:28Z</time>
      </trkpt>
      <trkpt lat="43.1322" lon="0.51461">
        <ele>552</ele>
        <time>2025-12-29T10:12:29Z</time>
      </trkpt>
      <trkpt lat="43.13221" lon="0.51468">
        <ele>551.6</ele>
        <time>2025-12-29T10:12:30Z</time>
      </trkpt>
      <trkpt lat="43.13222" lon="0.51475">
        <ele>551.6</ele>
        <time>2025-12-29T10:12:31Z</time>
      </trkpt>
      <trkpt lat="43.13222" lon="0.51482">
        <ele>551.6</ele>
        <time>2025-12-29T10:12:32Z</time>
      </trkpt>
      <trkpt lat="43.13223" lon="0.51489">
        <ele>551.6</ele>
        <time>2025-12-29T10:12:33Z</time>
      </trkpt>
      <trkpt lat="43.13223" lon="0.51496">
        <ele>551</ele>
        <time>2025-12-29T10:12:34Z</time>
      </trkpt>
      <trkpt lat="43.13224" lon="0.51504">
        <ele>551</ele>
        <time>2025-12-29T10:12:35Z</time>
      </trkpt>
      <trkpt lat="43.13225" lon="0.51511">
        <ele>551</ele>
        <time>2025-12-29T10:12:36Z</time>
      </trkpt>
      <trkpt lat="43.13225" lon="0.51519">
        <ele>551.4</ele>
        <time>2025-12-29T10:12:37Z</time>
      </trkpt>
      <trkpt lat="43.13226" lon="0.51526">
        <ele>551.2</ele>
        <time>2025-12-29T10:12:38Z</time>
      </trkpt>
      <trkpt lat="43.13227" lon="0.51533">
        <ele>551.2</ele>
        <time>2025-12-29T10:12:39Z</time>
      </trkpt>
      <trkpt lat="43.13227" lon="0.51541">
        <ele>551.2</ele>
        <time>2025-12-29T10:12:40Z</time>
      </trkpt>
      <trkpt lat="43.13228" lon="0.51548">
        <ele>551.2</ele>
        <time>2025-12-29T10:12:41Z</time>
      </trkpt>
      <trkpt lat="43.13229" lon="0.51556">
        <ele>551.4</ele>
        <time>2025-12-29T10:12:42Z</time>
      </trkpt>
      <trkpt lat="43.13229" lon="0.51563">
        <ele>551.4</ele>
        <time>2025-12-29T10:12:43Z</time>
      </trkpt>
      <trkpt lat="43.1323" lon="0.5157">
        <ele>551.4</ele>
        <time>2025-12-29T10:12:44Z</time>
      </trkpt>
      <trkpt lat="43.1323" lon="0.51578">
        <ele>550.6</ele>
        <time>2025-12-29T10:12:45Z</time>
      </trkpt>
      <trkpt lat="43.13231" lon="0.51585">
        <ele>550.6</ele>
        <time>2025-12-29T10:12:46Z</time>
      </trkpt>
      <trkpt lat="43.13232" lon="0.51593">
        <ele>550.6</ele>
        <time>2025-12-29T10:12:47Z</time>
      </trkpt>
      <trkpt lat="43.13232" lon="0.516">
        <ele>550.6</ele>
        <time>2025-12-29T10:12:48Z</time>
      </trkpt>
      <trkpt lat="43.13233" lon="0.51607">
        <ele>550.2</ele>
        <time>2025-12-29T10:12:49Z</time>
      </trkpt>
      <trkpt lat="43.13234" lon="0.51614">
        <ele>550.8</ele>
        <time>2025-12-29T10:12:50Z</time>
      </trkpt>
      <trkpt lat="43.13234" lon="0.51622">
        <ele>550.8</ele>
        <time>2025-12-29T10:12:51Z</time>
      </trkpt>
      <trkpt lat="43.13235" lon="0.51629">
        <ele>550.8</ele>
        <time>2025-12-29T10:12:52Z</time>
      </trkpt>
      <trkpt lat="43.13236" lon="0.51636">
        <ele>550.8</ele>
        <time>2025-12-29T10:12:53Z</time>
      </trkpt>
      <trkpt lat="43.13236" lon="0.51644">
        <ele>550.6</ele>
        <time>2025-12-29T10:12:54Z</time>
      </trkpt>
      <trkpt lat="43.13237" lon="0.51651">
        <ele>550.6</ele>
        <time>2025-12-29T10:12:55Z</time>
      </trkpt>
      <trkpt lat="43.13237" lon="0.51658">
        <ele>550.6</ele>
        <time>2025-12-29T10:12:56Z</time>
      </trkpt>
      <trkpt lat="43.13238" lon="0.51665">
        <ele>550.6</ele>
        <time>2025-12-29T10:12:57Z</time>
      </trkpt>
      <trkpt lat="43.13239" lon="0.51673">
        <ele>550.6</ele>
        <time>2025-12-29T10:12:58Z</time>
      </trkpt>
      <trkpt lat="43.1324" lon="0.5168">
        <ele>550.6</ele>
        <time>2025-12-29T10:12:59Z</time>
      </trkpt>
      <trkpt lat="43.13241" lon="0.51687">
        <ele>550.6</ele>
        <time>2025-12-29T10:13:00Z</time>
      </trkpt>
      <trkpt lat="43.13242" lon="0.51695">
        <ele>550.8</ele>
        <time>2025-12-29T10:13:01Z</time>
      </trkpt>
      <trkpt lat="43.13242" lon="0.51702">
        <ele>550.6</ele>
        <time>2025-12-29T10:13:02Z</time>
      </trkpt>
      <trkpt lat="43.13243" lon="0.51709">
        <ele>550.6</ele>
        <time>2025-12-29T10:13:03Z</time>
      </trkpt>
      <trkpt lat="43.13243" lon="0.51717">
        <ele>550.6</ele>
        <time>2025-12-29T10:13:04Z</time>
      </trkpt>
      <trkpt lat="43.13244" lon="0.51724">
        <ele>550.4</ele>
        <time>2025-12-29T10:13:05Z</time>
      </trkpt>
      <trkpt lat="43.13245" lon="0.51731">
        <ele>549.6</ele>
        <time>2025-12-29T10:13:06Z</time>
      </trkpt>
      <trkpt lat="43.13245" lon="0.51739">
        <ele>549.6</ele>
        <time>2025-12-29T10:13:07Z</time>
      </trkpt>
      <trkpt lat="43.13246" lon="0.51746">
        <ele>549.6</ele>
        <time>2025-12-29T10:13:08Z</time>
      </trkpt>
      <trkpt lat="43.13247" lon="0.51753">
        <ele>550.4</ele>
        <time>2025-12-29T10:13:09Z</time>
      </trkpt>
      <trkpt lat="43.13247" lon="0.5176">
        <ele>550.4</ele>
        <time>2025-12-29T10:13:10Z</time>
      </trkpt>
      <trkpt lat="43.13248" lon="0.51767">
        <ele>550.4</ele>
        <time>2025-12-29T10:13:11Z</time>
      </trkpt>
      <trkpt lat="43.13248" lon="0.51774">
        <ele>550.4</ele>
        <time>2025-12-29T10:13:12Z</time>
      </trkpt>
      <trkpt lat="43.13249" lon="0.51782">
        <ele>550.4</ele>
        <time>2025-12-29T10:13:13Z</time>
      </trkpt>
      <trkpt lat="43.1325" lon="0.51789">
        <ele>550.4</ele>
        <time>2025-12-29T10:13:14Z</time>
      </trkpt>
      <trkpt lat="43.1325" lon="0.51797">
        <ele>550.4</ele>
        <time>2025-12-29T10:13:15Z</time>
      </trkpt>
      <trkpt lat="43.13251" lon="0.51804">
        <ele>550.4</ele>
        <time>2025-12-29T10:13:16Z</time>
      </trkpt>
      <trkpt lat="43.13252" lon="0.51812">
        <ele>550.4</ele>
        <time>2025-12-29T10:13:17Z</time>
      </trkpt>
      <trkpt lat="43.13253" lon="0.51819">
        <ele>550.6</ele>
        <time>2025-12-29T10:13:18Z</time>
      </trkpt>
      <trkpt lat="43.13253" lon="0.51827">
        <ele>550.6</ele>
        <time>2025-12-29T10:13:19Z</time>
      </trkpt>
      <trkpt lat="43.13254" lon="0.51834">
        <ele>550.6</ele>
        <time>2025-12-29T10:13:20Z</time>
      </trkpt>
      <trkpt lat="43.13255" lon="0.51842">
        <ele>550.2</ele>
        <time>2025-12-29T10:13:21Z</time>
      </trkpt>
      <trkpt lat="43.13255" lon="0.5185">
        <ele>550.4</ele>
        <time>2025-12-29T10:13:22Z</time>
      </trkpt>
      <trkpt lat="43.13256" lon="0.51858">
        <ele>550.4</ele>
        <time>2025-12-29T10:13:23Z</time>
      </trkpt>
      <trkpt lat="43.13257" lon="0.51866">
        <ele>550.4</ele>
        <time>2025-12-29T10:13:24Z</time>
      </trkpt>
      <trkpt lat="43.13258" lon="0.51874">
        <ele>549.4</ele>
        <time>2025-12-29T10:13:25Z</time>
      </trkpt>
      <trkpt lat="43.13258" lon="0.51882">
        <ele>549.4</ele>
        <time>2025-12-29T10:13:26Z</time>
      </trkpt>
      <trkpt lat="43.13259" lon="0.51889">
        <ele>549.4</ele>
        <time>2025-12-29T10:13:27Z</time>
      </trkpt>
      <trkpt lat="43.1326" lon="0.51897">
        <ele>549.4</ele>
        <time>2025-12-29T10:13:28Z</time>
      </trkpt>
      <trkpt lat="43.1326" lon="0.51905">
        <ele>549.4</ele>
        <time>2025-12-29T10:13:29Z</time>
      </trkpt>
      <trkpt lat="43.13261" lon="0.51913">
        <ele>549</ele>
        <time>2025-12-29T10:13:30Z</time>
      </trkpt>
      <trkpt lat="43.13262" lon="0.5192">
        <ele>549</ele>
        <time>2025-12-29T10:13:31Z</time>
      </trkpt>
      <trkpt lat="43.13262" lon="0.51928">
        <ele>549</ele>
        <time>2025-12-29T10:13:32Z</time>
      </trkpt>
      <trkpt lat="43.13263" lon="0.51935">
        <ele>549.4</ele>
        <time>2025-12-29T10:13:33Z</time>
      </trkpt>
      <trkpt lat="43.13264" lon="0.51943">
        <ele>548.8</ele>
        <time>2025-12-29T10:13:34Z</time>
      </trkpt>
      <trkpt lat="43.13264" lon="0.51951">
        <ele>548.8</ele>
        <time>2025-12-29T10:13:35Z</time>
      </trkpt>
      <trkpt lat="43.13265" lon="0.51958">
        <ele>548.8</ele>
        <time>2025-12-29T10:13:36Z</time>
      </trkpt>
      <trkpt lat="43.13266" lon="0.51966">
        <ele>548.8</ele>
        <time>2025-12-29T10:13:37Z</time>
      </trkpt>
      <trkpt lat="43.13267" lon="0.51973">
        <ele>548.8</ele>
        <time>2025-12-29T10:13:38Z</time>
      </trkpt>
      <trkpt lat="43.13268" lon="0.51981">
        <ele>548.8</ele>
        <time>2025-12-29T10:13:39Z</time>
      </trkpt>
      <trkpt lat="43.13268" lon="0.51989">
        <ele>548.8</ele>
        <time>2025-12-29T10:13:40Z</time>
      </trkpt>
      <trkpt lat="43.13269" lon="0.51996">
        <ele>548.4</ele>
        <time>2025-12-29T10:13:41Z</time>
      </trkpt>
      <trkpt lat="43.1327" lon="0.52004">
        <ele>548.6</ele>
        <time>2025-12-29T10:13:42Z</time>
      </trkpt>
      <trkpt lat="43.1327" lon="0.52012">
        <ele>548.6</ele>
        <time>2025-12-29T10:13:43Z</time>
      </trkpt>
      <trkpt lat="43.13271" lon="0.52019">
        <ele>548.6</ele>
        <time>2025-12-29T10:13:44Z</time>
      </trkpt>
      <trkpt lat="43.13272" lon="0.52026">
        <ele>548.6</ele>
        <time>2025-12-29T10:13:45Z</time>
      </trkpt>
      <trkpt lat="43.13273" lon="0.52034">
        <ele>548.2</ele>
        <time>2025-12-29T10:13:46Z</time>
      </trkpt>
      <trkpt lat="43.13273" lon="0.52041">
        <ele>548.2</ele>
        <time>2025-12-29T10:13:47Z</time>
      </trkpt>
      <trkpt lat="43.13274" lon="0.52048">
        <ele>548.2</ele>
        <time>2025-12-29T10:13:48Z</time>
      </trkpt>
      <trkpt lat="43.13275" lon="0.52055">
        <ele>547.2</ele>
        <time>2025-12-29T10:13:49Z</time>
      </trkpt>
      <trkpt lat="43.13276" lon="0.52062">
        <ele>548</ele>
        <time>2025-12-29T10:13:50Z</time>
      </trkpt>
      <trkpt lat="43.13276" lon="0.52069">
        <ele>548</ele>
        <time>2025-12-29T10:13:51Z</time>
      </trkpt>
      <trkpt lat="43.13277" lon="0.52076">
        <ele>548</ele>
        <time>2025-12-29T10:13:52Z</time>
      </trkpt>
      <trkpt lat="43.13277" lon="0.52083">
        <ele>548</ele>
        <time>2025-12-29T10:13:53Z</time>
      </trkpt>
      <trkpt lat="43.13278" lon="0.5209">
        <ele>547.6</ele>
        <time>2025-12-29T10:13:54Z</time>
      </trkpt>
      <trkpt lat="43.13279" lon="0.52098">
        <ele>547.6</ele>
        <time>2025-12-29T10:13:55Z</time>
      </trkpt>
      <trkpt lat="43.1328" lon="0.52105">
        <ele>547.6</ele>
        <time>2025-12-29T10:13:56Z</time>
      </trkpt>
      <trkpt lat="43.13281" lon="0.52113">
        <ele>547.4</ele>
        <time>2025-12-29T10:13:57Z</time>
      </trkpt>
      <trkpt lat="43.13281" lon="0.5212">
        <ele>547.4</ele>
        <time>2025-12-29T10:13:58Z</time>
      </trkpt>
      <trkpt lat="43.13282" lon="0.52128">
        <ele>547.4</ele>
        <time>2025-12-29T10:13:59Z</time>
      </trkpt>
      <trkpt lat="43.13283" lon="0.52136">
        <ele>547.4</ele>
        <time>2025-12-29T10:14:00Z</time>
      </trkpt>
      <trkpt lat="43.13284" lon="0.52144">
        <ele>547.4</ele>
        <time>2025-12-29T10:14:01Z</time>
      </trkpt>
      <trkpt lat="43.13285" lon="0.52151">
        <ele>547.2</ele>
        <time>2025-12-29T10:14:02Z</time>
      </trkpt>
      <trkpt lat="43.13286" lon="0.52159">
        <ele>547.2</ele>
        <time>2025-12-29T10:14:03Z</time>
      </trkpt>
      <trkpt lat="43.13287" lon="0.52167">
        <ele>547.2</ele>
        <time>2025-12-29T10:14:04Z</time>
      </trkpt>
      <trkpt lat="43.13288" lon="0.52174">
        <ele>547.2</ele>
        <time>2025-12-29T10:14:05Z</time>
      </trkpt>
      <trkpt lat="43.13288" lon="0.52182">
        <ele>547.4</ele>
        <time>2025-12-29T10:14:06Z</time>
      </trkpt>
      <trkpt lat="43.13289" lon="0.5219">
        <ele>547.4</ele>
        <time>2025-12-29T10:14:07Z</time>
      </trkpt>
      <trkpt lat="43.1329" lon="0.52198">
        <ele>547.4</ele>
        <time>2025-12-29T10:14:08Z</time>
      </trkpt>
      <trkpt lat="43.13291" lon="0.52205">
        <ele>547.4</ele>
        <time>2025-12-29T10:14:09Z</time>
      </trkpt>
      <trkpt lat="43.13292" lon="0.52213">
        <ele>546.8</ele>
        <time>2025-12-29T10:14:10Z</time>
      </trkpt>
      <trkpt lat="43.13293" lon="0.52221">
        <ele>546.8</ele>
        <time>2025-12-29T10:14:11Z</time>
      </trkpt>
      <trkpt lat="43.13294" lon="0.52229">
        <ele>546.8</ele>
        <time>2025-12-29T10:14:12Z</time>
      </trkpt>
      <trkpt lat="43.13295" lon="0.52237">
        <ele>546.2</ele>
        <time>2025-12-29T10:14:13Z</time>
      </trkpt>
      <trkpt lat="43.13296" lon="0.52244">
        <ele>546.6</ele>
        <time>2025-12-29T10:14:14Z</time>
      </trkpt>
      <trkpt lat="43.13297" lon="0.52253">
        <ele>546.6</ele>
        <time>2025-12-29T10:14:15Z</time>
      </trkpt>
      <trkpt lat="43.13298" lon="0.52261">
        <ele>546.6</ele>
        <time>2025-12-29T10:14:16Z</time>
      </trkpt>
      <trkpt lat="43.13299" lon="0.52269">
        <ele>546</ele>
        <time>2025-12-29T10:14:17Z</time>
      </trkpt>
      <trkpt lat="43.133" lon="0.52277">
        <ele>545.8</ele>
        <time>2025-12-29T10:14:18Z</time>
      </trkpt>
      <trkpt lat="43.13301" lon="0.52286">
        <ele>545.8</ele>
        <time>2025-12-29T10:14:19Z</time>
      </trkpt>
      <trkpt lat="43.13302" lon="0.52294">
        <ele>545.8</ele>
        <time>2025-12-29T10:14:20Z</time>
      </trkpt>
      <trkpt lat="43.13303" lon="0.52303">
        <ele>545.8</ele>
        <time>2025-12-29T10:14:21Z</time>
      </trkpt>
      <trkpt lat="43.13305" lon="0.52311">
        <ele>545.4</ele>
        <time>2025-12-29T10:14:22Z</time>
      </trkpt>
      <trkpt lat="43.13306" lon="0.5232">
        <ele>545.4</ele>
        <time>2025-12-29T10:14:23Z</time>
      </trkpt>
      <trkpt lat="43.13308" lon="0.52328">
        <ele>545.4</ele>
        <time>2025-12-29T10:14:24Z</time>
      </trkpt>
      <trkpt lat="43.1331" lon="0.52337">
        <ele>546</ele>
        <time>2025-12-29T10:14:25Z</time>
      </trkpt>
      <trkpt lat="43.13313" lon="0.52345">
        <ele>545.2</ele>
        <time>2025-12-29T10:14:26Z</time>
      </trkpt>
      <trkpt lat="43.13315" lon="0.52353">
        <ele>545.2</ele>
        <time>2025-12-29T10:14:27Z</time>
      </trkpt>
      <trkpt lat="43.13317" lon="0.52361">
        <ele>545.2</ele>
        <time>2025-12-29T10:14:28Z</time>
      </trkpt>
      <trkpt lat="43.1332" lon="0.52369">
        <ele>545.2</ele>
        <time>2025-12-29T10:14:29Z</time>
      </trkpt>
      <trkpt lat="43.13323" lon="0.52377">
        <ele>545.2</ele>
        <time>2025-12-29T10:14:30Z</time>
      </trkpt>
      <trkpt lat="43.13325" lon="0.52384">
        <ele>545.2</ele>
        <time>2025-12-29T10:14:31Z</time>
      </trkpt>
      <trkpt lat="43.13328" lon="0.52392">
        <ele>545.2</ele>
        <time>2025-12-29T10:14:32Z</time>
      </trkpt>
      <trkpt lat="43.13331" lon="0.524">
        <ele>544.8</ele>
        <time>2025-12-29T10:14:33Z</time>
      </trkpt>
      <trkpt lat="43.13333" lon="0.52408">
        <ele>545.2</ele>
        <time>2025-12-29T10:14:34Z</time>
      </trkpt>
      <trkpt lat="43.13336" lon="0.52415">
        <ele>545.2</ele>
        <time>2025-12-29T10:14:35Z</time>
      </trkpt>
      <trkpt lat="43.13338" lon="0.52423">
        <ele>545.2</ele>
        <time>2025-12-29T10:14:36Z</time>
      </trkpt>
      <trkpt lat="43.13341" lon="0.52431">
        <ele>544.6</ele>
        <time>2025-12-29T10:14:37Z</time>
      </trkpt>
      <trkpt lat="43.13344" lon="0.52439">
        <ele>543.4</ele>
        <time>2025-12-29T10:14:38Z</time>
      </trkpt>
      <trkpt lat="43.13347" lon="0.52447">
        <ele>543.4</ele>
        <time>2025-12-29T10:14:39Z</time>
      </trkpt>
      <trkpt lat="43.13349" lon="0.52455">
        <ele>543.4</ele>
        <time>2025-12-29T10:14:40Z</time>
      </trkpt>
      <trkpt lat="43.13352" lon="0.52462">
        <ele>544.4</ele>
        <time>2025-12-29T10:14:41Z</time>
      </trkpt>
      <trkpt lat="43.13354" lon="0.5247">
        <ele>544</ele>
        <time>2025-12-29T10:14:42Z</time>
      </trkpt>
      <trkpt lat="43.13357" lon="0.52478">
        <ele>544</ele>
        <time>2025-12-29T10:14:43Z</time>
      </trkpt>
      <trkpt lat="43.13359" lon="0.52486">
        <ele>544</ele>
        <time>2025-12-29T10:14:44Z</time>
      </trkpt>
      <trkpt lat="43.13362" lon="0.52493">
        <ele>544</ele>
        <time>2025-12-29T10:14:45Z</time>
      </trkpt>
      <trkpt lat="43.13364" lon="0.52501">
        <ele>543</ele>
        <time>2025-12-29T10:14:46Z</time>
      </trkpt>
      <trkpt lat="43.13367" lon="0.52509">
        <ele>543</ele>
        <time>2025-12-29T10:14:47Z</time>
      </trkpt>
      <trkpt lat="43.13369" lon="0.52516">
        <ele>543</ele>
        <time>2025-12-29T10:14:48Z</time>
      </trkpt>
      <trkpt lat="43.13372" lon="0.52524">
        <ele>543.4</ele>
        <time>2025-12-29T10:14:49Z</time>
      </trkpt>
      <trkpt lat="43.13374" lon="0.52532">
        <ele>543.4</ele>
        <time>2025-12-29T10:14:50Z</time>
      </trkpt>
      <trkpt lat="43.13377" lon="0.5254">
        <ele>543.4</ele>
        <time>2025-12-29T10:14:51Z</time>
      </trkpt>
      <trkpt lat="43.1338" lon="0.52548">
        <ele>543.4</ele>
        <time>2025-12-29T10:14:52Z</time>
      </trkpt>
      <trkpt lat="43.13382" lon="0.52556">
        <ele>542.4</ele>
        <time>2025-12-29T10:14:53Z</time>
      </trkpt>
      <trkpt lat="43.13385" lon="0.52565">
        <ele>542.4</ele>
        <time>2025-12-29T10:14:54Z</time>
      </trkpt>
      <trkpt lat="43.13388" lon="0.52573">
        <ele>542.4</ele>
        <time>2025-12-29T10:14:55Z</time>
      </trkpt>
      <trkpt lat="43.1339" lon="0.52581">
        <ele>542.4</ele>
        <time>2025-12-29T10:14:56Z</time>
      </trkpt>
      <trkpt lat="43.13393" lon="0.5259">
        <ele>541.4</ele>
        <time>2025-12-29T10:14:57Z</time>
      </trkpt>
      <trkpt lat="43.13396" lon="0.52599">
        <ele>540</ele>
        <time>2025-12-29T10:14:58Z</time>
      </trkpt>
      <trkpt lat="43.13398" lon="0.52608">
        <ele>540</ele>
        <time>2025-12-29T10:14:59Z</time>
      </trkpt>
      <trkpt lat="43.13401" lon="0.52617">
        <ele>540</ele>
        <time>2025-12-29T10:15:00Z</time>
      </trkpt>
      <trkpt lat="43.13403" lon="0.52626">
        <ele>540</ele>
        <time>2025-12-29T10:15:01Z</time>
      </trkpt>
      <trkpt lat="43.13406" lon="0.52635">
        <ele>538.8</ele>
        <time>2025-12-29T10:15:02Z</time>
      </trkpt>
      <trkpt lat="43.13409" lon="0.52644">
        <ele>538.8</ele>
        <time>2025-12-29T10:15:03Z</time>
      </trkpt>
      <trkpt lat="43.13412" lon="0.52654">
        <ele>538.8</ele>
        <time>2025-12-29T10:15:04Z</time>
      </trkpt>
      <trkpt lat="43.13415" lon="0.52663">
        <ele>538.8</ele>
        <time>2025-12-29T10:15:05Z</time>
      </trkpt>
      <trkpt lat="43.13418" lon="0.52672">
        <ele>538.2</ele>
        <time>2025-12-29T10:15:06Z</time>
      </trkpt>
      <trkpt lat="43.13421" lon="0.52682">
        <ele>538.2</ele>
        <time>2025-12-29T10:15:07Z</time>
      </trkpt>
      <trkpt lat="43.13424" lon="0.52693">
        <ele>538.2</ele>
        <time>2025-12-29T10:15:08Z</time>
      </trkpt>
      <trkpt lat="43.13427" lon="0.52703">
        <ele>537.6</ele>
        <time>2025-12-29T10:15:09Z</time>
      </trkpt>
      <trkpt lat="43.1343" lon="0.52713">
        <ele>536.2</ele>
        <time>2025-12-29T10:15:10Z</time>
      </trkpt>
      <trkpt lat="43.13433" lon="0.52724">
        <ele>536.2</ele>
        <time>2025-12-29T10:15:11Z</time>
      </trkpt>
      <trkpt lat="43.13436" lon="0.52735">
        <ele>536.2</ele>
        <time>2025-12-29T10:15:12Z</time>
      </trkpt>
      <trkpt lat="43.13439" lon="0.52746">
        <ele>535.2</ele>
        <time>2025-12-29T10:15:13Z</time>
      </trkpt>
      <trkpt lat="43.13441" lon="0.52757">
        <ele>534.2</ele>
        <time>2025-12-29T10:15:14Z</time>
      </trkpt>
      <trkpt lat="43.13444" lon="0.52769">
        <ele>534.2</ele>
        <time>2025-12-29T10:15:15Z</time>
      </trkpt>
      <trkpt lat="43.13447" lon="0.5278">
        <ele>534.2</ele>
        <time>2025-12-29T10:15:16Z</time>
      </trkpt>
      <trkpt lat="43.13449" lon="0.52791">
        <ele>533.2</ele>
        <time>2025-12-29T10:15:17Z</time>
      </trkpt>
      <trkpt lat="43.13452" lon="0.52802">
        <ele>533.2</ele>
        <time>2025-12-29T10:15:18Z</time>
      </trkpt>
      <trkpt lat="43.13455" lon="0.52813">
        <ele>533.2</ele>
        <time>2025-12-29T10:15:19Z</time>
      </trkpt>
      <trkpt lat="43.13457" lon="0.52825">
        <ele>533.2</ele>
        <time>2025-12-29T10:15:20Z</time>
      </trkpt>
      <trkpt lat="43.13459" lon="0.52835">
        <ele>532.2</ele>
        <time>2025-12-29T10:15:21Z</time>
      </trkpt>
      <trkpt lat="43.13462" lon="0.52846">
        <ele>531</ele>
        <time>2025-12-29T10:15:22Z</time>
      </trkpt>
      <trkpt lat="43.13464" lon="0.52857">
        <ele>531</ele>
        <time>2025-12-29T10:15:23Z</time>
      </trkpt>
      <trkpt lat="43.13467" lon="0.52867">
        <ele>531</ele>
        <time>2025-12-29T10:15:24Z</time>
      </trkpt>
      <trkpt lat="43.13469" lon="0.52878">
        <ele>530.6</ele>
        <time>2025-12-29T10:15:25Z</time>
      </trkpt>
      <trkpt lat="43.13472" lon="0.52888">
        <ele>530.4</ele>
        <time>2025-12-29T10:15:26Z</time>
      </trkpt>
      <trkpt lat="43.13474" lon="0.52898">
        <ele>530.4</ele>
        <time>2025-12-29T10:15:27Z</time>
      </trkpt>
      <trkpt lat="43.13477" lon="0.52907">
        <ele>530.4</ele>
        <time>2025-12-29T10:15:28Z</time>
      </trkpt>
      <trkpt lat="43.13479" lon="0.52917">
        <ele>530.4</ele>
        <time>2025-12-29T10:15:29Z</time>
      </trkpt>
      <trkpt lat="43.13482" lon="0.52926">
        <ele>530.4</ele>
        <time>2025-12-29T10:15:30Z</time>
      </trkpt>
      <trkpt lat="43.13485" lon="0.52935">
        <ele>530.4</ele>
        <time>2025-12-29T10:15:31Z</time>
      </trkpt>
      <trkpt lat="43.13488" lon="0.52944">
        <ele>530.4</ele>
        <time>2025-12-29T10:15:32Z</time>
      </trkpt>
      <trkpt lat="43.1349" lon="0.52952">
        <ele>530.4</ele>
        <time>2025-12-29T10:15:33Z</time>
      </trkpt>
      <trkpt lat="43.13493" lon="0.52961">
        <ele>529.6</ele>
        <time>2025-12-29T10:15:34Z</time>
      </trkpt>
      <trkpt lat="43.13496" lon="0.52969">
        <ele>529.6</ele>
        <time>2025-12-29T10:15:35Z</time>
      </trkpt>
      <trkpt lat="43.13498" lon="0.52977">
        <ele>529.6</ele>
        <time>2025-12-29T10:15:36Z</time>
      </trkpt>
      <trkpt lat="43.13501" lon="0.52985">
        <ele>529.8</ele>
        <time>2025-12-29T10:15:37Z</time>
      </trkpt>
      <trkpt lat="43.13504" lon="0.52993">
        <ele>530</ele>
        <time>2025-12-29T10:15:38Z</time>
      </trkpt>
      <trkpt lat="43.13507" lon="0.53">
        <ele>530</ele>
        <time>2025-12-29T10:15:39Z</time>
      </trkpt>
      <trkpt lat="43.13509" lon="0.53008">
        <ele>530</ele>
        <time>2025-12-29T10:15:40Z</time>
      </trkpt>
      <trkpt lat="43.13512" lon="0.53016">
        <ele>530</ele>
        <time>2025-12-29T10:15:41Z</time>
      </trkpt>
      <trkpt lat="43.13515" lon="0.53023">
        <ele>529.2</ele>
        <time>2025-12-29T10:15:42Z</time>
      </trkpt>
      <trkpt lat="43.13518" lon="0.53031">
        <ele>529.2</ele>
        <time>2025-12-29T10:15:43Z</time>
      </trkpt>
      <trkpt lat="43.1352" lon="0.53038">
        <ele>529.2</ele>
        <time>2025-12-29T10:15:44Z</time>
      </trkpt>
      <trkpt lat="43.13522" lon="0.53045">
        <ele>529.2</ele>
        <time>2025-12-29T10:15:45Z</time>
      </trkpt>
      <trkpt lat="43.13525" lon="0.53053">
        <ele>529</ele>
        <time>2025-12-29T10:15:46Z</time>
      </trkpt>
      <trkpt lat="43.13527" lon="0.5306">
        <ele>529</ele>
        <time>2025-12-29T10:15:47Z</time>
      </trkpt>
      <trkpt lat="43.1353" lon="0.53067">
        <ele>529</ele>
        <time>2025-12-29T10:15:48Z</time>
      </trkpt>
      <trkpt lat="43.13532" lon="0.53075">
        <ele>529</ele>
        <time>2025-12-29T10:15:49Z</time>
      </trkpt>
      <trkpt lat="43.13534" lon="0.53082">
        <ele>528</ele>
        <time>2025-12-29T10:15:50Z</time>
      </trkpt>
      <trkpt lat="43.13536" lon="0.53088">
        <ele>528</ele>
        <time>2025-12-29T10:15:51Z</time>
      </trkpt>
      <trkpt lat="43.13539" lon="0.53095">
        <ele>528</ele>
        <time>2025-12-29T10:15:52Z</time>
      </trkpt>
      <trkpt lat="43.13541" lon="0.53102">
        <ele>528</ele>
        <time>2025-12-29T10:15:53Z</time>
      </trkpt>
      <trkpt lat="43.13543" lon="0.53109">
        <ele>527.8</ele>
        <time>2025-12-29T10:15:54Z</time>
      </trkpt>
      <trkpt lat="43.13546" lon="0.53115">
        <ele>527.8</ele>
        <time>2025-12-29T10:15:55Z</time>
      </trkpt>
      <trkpt lat="43.13548" lon="0.53122">
        <ele>527.8</ele>
        <time>2025-12-29T10:15:56Z</time>
      </trkpt>
      <trkpt lat="43.1355" lon="0.53128">
        <ele>527.8</ele>
        <time>2025-12-29T10:15:57Z</time>
      </trkpt>
      <trkpt lat="43.13553" lon="0.53135">
        <ele>527.8</ele>
        <time>2025-12-29T10:15:58Z</time>
      </trkpt>
      <trkpt lat="43.13555" lon="0.53141">
        <ele>527.8</ele>
        <time>2025-12-29T10:15:59Z</time>
      </trkpt>
      <trkpt lat="43.13557" lon="0.53146">
        <ele>527.8</ele>
        <time>2025-12-29T10:16:00Z</time>
      </trkpt>
      <trkpt lat="43.13558" lon="0.53151">
        <ele>528.4</ele>
        <time>2025-12-29T10:16:01Z</time>
      </trkpt>
      <trkpt lat="43.13559" lon="0.53154">
        <ele>529</ele>
        <time>2025-12-29T10:16:02Z</time>
      </trkpt>
      <trkpt lat="43.1356" lon="0.53158">
        <ele>529</ele>
        <time>2025-12-29T10:16:03Z</time>
      </trkpt>
      <trkpt lat="43.13561" lon="0.53162">
        <ele>529</ele>
        <time>2025-12-29T10:16:04Z</time>
      </trkpt>
      <trkpt lat="43.13563" lon="0.53166">
        <ele>528.6</ele>
        <time>2025-12-29T10:16:05Z</time>
      </trkpt>
      <trkpt lat="43.13564" lon="0.5317">
        <ele>528.8</ele>
        <time>2025-12-29T10:16:06Z</time>
      </trkpt>
      <trkpt lat="43.13566" lon="0.53175">
        <ele>528.8</ele>
        <time>2025-12-29T10:16:07Z</time>
      </trkpt>
      <trkpt lat="43.13567" lon="0.53179">
        <ele>528.8</ele>
        <time>2025-12-29T10:16:08Z</time>
      </trkpt>
      <trkpt lat="43.13569" lon="0.53183">
        <ele>528.8</ele>
        <time>2025-12-29T10:16:09Z</time>
      </trkpt>
      <trkpt lat="43.13571" lon="0.53188">
        <ele>528.4</ele>
        <time>2025-12-29T10:16:10Z</time>
      </trkpt>
      <trkpt lat="43.13573" lon="0.53192">
        <ele>528.4</ele>
        <time>2025-12-29T10:16:11Z</time>
      </trkpt>
      <trkpt lat="43.13574" lon="0.53197">
        <ele>528.4</ele>
        <time>2025-12-29T10:16:12Z</time>
      </trkpt>
      <trkpt lat="43.13576" lon="0.53202">
        <ele>529</ele>
        <time>2025-12-29T10:16:13Z</time>
      </trkpt>
      <trkpt lat="43.13578" lon="0.53206">
        <ele>528.8</ele>
        <time>2025-12-29T10:16:14Z</time>
      </trkpt>
      <trkpt lat="43.1358" lon="0.53211">
        <ele>528.8</ele>
        <time>2025-12-29T10:16:15Z</time>
      </trkpt>
      <trkpt lat="43.13582" lon="0.53216">
        <ele>528.8</ele>
        <time>2025-12-29T10:16:16Z</time>
      </trkpt>
      <trkpt lat="43.13585" lon="0.53221">
        <ele>528.8</ele>
        <time>2025-12-29T10:16:17Z</time>
      </trkpt>
      <trkpt lat="43.13587" lon="0.53227">
        <ele>529.2</ele>
        <time>2025-12-29T10:16:18Z</time>
      </trkpt>
      <trkpt lat="43.13589" lon="0.53232">
        <ele>529.2</ele>
        <time>2025-12-29T10:16:19Z</time>
      </trkpt>
      <trkpt lat="43.13591" lon="0.53238">
        <ele>529.2</ele>
        <time>2025-12-29T10:16:20Z</time>
      </trkpt>
      <trkpt lat="43.13593" lon="0.53244">
        <ele>529.2</ele>
        <time>2025-12-29T10:16:21Z</time>
      </trkpt>
      <trkpt lat="43.13595" lon="0.5325">
        <ele>529.4</ele>
        <time>2025-12-29T10:16:22Z</time>
      </trkpt>
      <trkpt lat="43.13597" lon="0.53255">
        <ele>529.4</ele>
        <time>2025-12-29T10:16:23Z</time>
      </trkpt>
      <trkpt lat="43.13599" lon="0.53261">
        <ele>529.4</ele>
        <time>2025-12-29T10:16:24Z</time>
      </trkpt>
      <trkpt lat="43.13601" lon="0.53266">
        <ele>529.4</ele>
        <time>2025-12-29T10:16:25Z</time>
      </trkpt>
      <trkpt lat="43.13603" lon="0.53272">
        <ele>529.8</ele>
        <time>2025-12-29T10:16:26Z</time>
      </trkpt>
      <trkpt lat="43.13605" lon="0.53278">
        <ele>529.8</ele>
        <time>2025-12-29T10:16:27Z</time>
      </trkpt>
      <trkpt lat="43.13607" lon="0.53284">
        <ele>529.8</ele>
        <time>2025-12-29T10:16:28Z</time>
      </trkpt>
      <trkpt lat="43.13608" lon="0.5329">
        <ele>530</ele>
        <time>2025-12-29T10:16:29Z</time>
      </trkpt>
      <trkpt lat="43.1361" lon="0.53296">
        <ele>529.6</ele>
        <time>2025-12-29T10:16:30Z</time>
      </trkpt>
      <trkpt lat="43.13612" lon="0.53302">
        <ele>529.6</ele>
        <time>2025-12-29T10:16:31Z</time>
      </trkpt>
      <trkpt lat="43.13614" lon="0.53307">
        <ele>529.6</ele>
        <time>2025-12-29T10:16:32Z</time>
      </trkpt>
      <trkpt lat="43.13616" lon="0.53313">
        <ele>530</ele>
        <time>2025-12-29T10:16:33Z</time>
      </trkpt>
      <trkpt lat="43.13618" lon="0.53319">
        <ele>530.4</ele>
        <time>2025-12-29T10:16:34Z</time>
      </trkpt>
      <trkpt lat="43.13619" lon="0.53325">
        <ele>530.4</ele>
        <time>2025-12-29T10:16:35Z</time>
      </trkpt>
      <trkpt lat="43.1362" lon="0.53332">
        <ele>530.4</ele>
        <time>2025-12-29T10:16:36Z</time>
      </trkpt>
      <trkpt lat="43.13622" lon="0.53338">
        <ele>529.8</ele>
        <time>2025-12-29T10:16:37Z</time>
      </trkpt>
      <trkpt lat="43.13624" lon="0.53344">
        <ele>529</ele>
        <time>2025-12-29T10:16:38Z</time>
      </trkpt>
      <trkpt lat="43.13626" lon="0.53351">
        <ele>529</ele>
        <time>2025-12-29T10:16:39Z</time>
      </trkpt>
      <trkpt lat="43.13628" lon="0.53357">
        <ele>529</ele>
        <time>2025-12-29T10:16:40Z</time>
      </trkpt>
      <trkpt lat="43.1363" lon="0.53364">
        <ele>529</ele>
        <time>2025-12-29T10:16:41Z</time>
      </trkpt>
      <trkpt lat="43.13632" lon="0.5337">
        <ele>529.2</ele>
        <time>2025-12-29T10:16:42Z</time>
      </trkpt>
      <trkpt lat="43.13634" lon="0.53377">
        <ele>529.2</ele>
        <time>2025-12-29T10:16:43Z</time>
      </trkpt>
      <trkpt lat="43.13637" lon="0.53383">
        <ele>529.2</ele>
        <time>2025-12-29T10:16:44Z</time>
      </trkpt>
      <trkpt lat="43.13639" lon="0.5339">
        <ele>529.2</ele>
        <time>2025-12-29T10:16:45Z</time>
      </trkpt>
      <trkpt lat="43.13641" lon="0.53397">
        <ele>528.6</ele>
        <time>2025-12-29T10:16:46Z</time>
      </trkpt>
      <trkpt lat="43.13643" lon="0.53404">
        <ele>528.6</ele>
        <time>2025-12-29T10:16:47Z</time>
      </trkpt>
      <trkpt lat="43.13646" lon="0.53411">
        <ele>528.6</ele>
        <time>2025-12-29T10:16:48Z</time>
      </trkpt>
      <trkpt lat="43.13648" lon="0.53418">
        <ele>528.6</ele>
        <time>2025-12-29T10:16:49Z</time>
      </trkpt>
      <trkpt lat="43.13651" lon="0.53425">
        <ele>527.8</ele>
        <time>2025-12-29T10:16:50Z</time>
      </trkpt>
      <trkpt lat="43.13654" lon="0.53432">
        <ele>527.8</ele>
        <time>2025-12-29T10:16:51Z</time>
      </trkpt>
      <trkpt lat="43.13656" lon="0.5344">
        <ele>527.8</ele>
        <time>2025-12-29T10:16:52Z</time>
      </trkpt>
      <trkpt lat="43.13658" lon="0.53447">
        <ele>527.6</ele>
        <time>2025-12-29T10:16:53Z</time>
      </trkpt>
      <trkpt lat="43.13661" lon="0.53455">
        <ele>527.4</ele>
        <time>2025-12-29T10:16:54Z</time>
      </trkpt>
      <trkpt lat="43.13663" lon="0.53462">
        <ele>527.4</ele>
        <time>2025-12-29T10:16:55Z</time>
      </trkpt>
      <trkpt lat="43.13666" lon="0.5347">
        <ele>527.4</ele>
        <time>2025-12-29T10:16:56Z</time>
      </trkpt>
      <trkpt lat="43.13668" lon="0.53477">
        <ele>527.6</ele>
        <time>2025-12-29T10:16:57Z</time>
      </trkpt>
      <trkpt lat="43.13671" lon="0.53485">
        <ele>527.8</ele>
        <time>2025-12-29T10:16:58Z</time>
      </trkpt>
      <trkpt lat="43.13673" lon="0.53492">
        <ele>527.8</ele>
        <time>2025-12-29T10:16:59Z</time>
      </trkpt>
      <trkpt lat="43.13675" lon="0.53499">
        <ele>527.8</ele>
        <time>2025-12-29T10:17:00Z</time>
      </trkpt>
      <trkpt lat="43.13678" lon="0.53507">
        <ele>527.4</ele>
        <time>2025-12-29T10:17:01Z</time>
      </trkpt>
      <trkpt lat="43.1368" lon="0.53514">
        <ele>528.2</ele>
        <time>2025-12-29T10:17:02Z</time>
      </trkpt>
      <trkpt lat="43.13682" lon="0.53521">
        <ele>528.2</ele>
        <time>2025-12-29T10:17:03Z</time>
      </trkpt>
      <trkpt lat="43.13685" lon="0.53529">
        <ele>528.2</ele>
        <time>2025-12-29T10:17:04Z</time>
      </trkpt>
      <trkpt lat="43.13687" lon="0.53536">
        <ele>527.8</ele>
        <time>2025-12-29T10:17:05Z</time>
      </trkpt>
      <trkpt lat="43.1369" lon="0.53542">
        <ele>527.6</ele>
        <time>2025-12-29T10:17:06Z</time>
      </trkpt>
      <trkpt lat="43.13693" lon="0.53549">
        <ele>527.6</ele>
        <time>2025-12-29T10:17:07Z</time>
      </trkpt>
      <trkpt lat="43.13695" lon="0.53555">
        <ele>527.6</ele>
        <time>2025-12-29T10:17:08Z</time>
      </trkpt>
      <trkpt lat="43.13697" lon="0.53561">
        <ele>527.6</ele>
        <time>2025-12-29T10:17:09Z</time>
      </trkpt>
      <trkpt lat="43.13699" lon="0.53567">
        <ele>528</ele>
        <time>2025-12-29T10:17:10Z</time>
      </trkpt>
      <trkpt lat="43.13702" lon="0.53573">
        <ele>528</ele>
        <time>2025-12-29T10:17:11Z</time>
      </trkpt>
      <trkpt lat="43.13704" lon="0.53579">
        <ele>528</ele>
        <time>2025-12-29T10:17:12Z</time>
      </trkpt>
      <trkpt lat="43.13706" lon="0.53585">
        <ele>528</ele>
        <time>2025-12-29T10:17:13Z</time>
      </trkpt>
      <trkpt lat="43.13709" lon="0.53591">
        <ele>528.4</ele>
        <time>2025-12-29T10:17:14Z</time>
      </trkpt>
      <trkpt lat="43.13711" lon="0.53597">
        <ele>528.4</ele>
        <time>2025-12-29T10:17:15Z</time>
      </trkpt>
      <trkpt lat="43.13713" lon="0.53603">
        <ele>528.4</ele>
        <time>2025-12-29T10:17:16Z</time>
      </trkpt>
      <trkpt lat="43.13716" lon="0.53608">
        <ele>528.4</ele>
        <time>2025-12-29T10:17:17Z</time>
      </trkpt>
      <trkpt lat="43.13718" lon="0.53614">
        <ele>528.2</ele>
        <time>2025-12-29T10:17:18Z</time>
      </trkpt>
      <trkpt lat="43.13721" lon="0.5362">
        <ele>528.2</ele>
        <time>2025-12-29T10:17:19Z</time>
      </trkpt>
      <trkpt lat="43.13723" lon="0.53626">
        <ele>528.2</ele>
        <time>2025-12-29T10:17:20Z</time>
      </trkpt>
      <trkpt lat="43.13726" lon="0.53632">
        <ele>528.2</ele>
        <time>2025-12-29T10:17:21Z</time>
      </trkpt>
      <trkpt lat="43.13728" lon="0.53638">
        <ele>528</ele>
        <time>2025-12-29T10:17:22Z</time>
      </trkpt>
      <trkpt lat="43.13731" lon="0.53643">
        <ele>528</ele>
        <time>2025-12-29T10:17:23Z</time>
      </trkpt>
      <trkpt lat="43.13733" lon="0.53649">
        <ele>528</ele>
        <time>2025-12-29T10:17:24Z</time>
      </trkpt>
      <trkpt lat="43.13736" lon="0.53655">
        <ele>528.4</ele>
        <time>2025-12-29T10:17:25Z</time>
      </trkpt>
      <trkpt lat="43.13738" lon="0.53662">
        <ele>528</ele>
        <time>2025-12-29T10:17:26Z</time>
      </trkpt>
      <trkpt lat="43.13741" lon="0.53669">
        <ele>528</ele>
        <time>2025-12-29T10:17:27Z</time>
      </trkpt>
      <trkpt lat="43.13744" lon="0.53676">
        <ele>528</ele>
        <time>2025-12-29T10:17:28Z</time>
      </trkpt>
      <trkpt lat="43.13747" lon="0.53683">
        <ele>527</ele>
        <time>2025-12-29T10:17:29Z</time>
      </trkpt>
      <trkpt lat="43.1375" lon="0.53691">
        <ele>526.8</ele>
        <time>2025-12-29T10:17:30Z</time>
      </trkpt>
      <trkpt lat="43.13753" lon="0.53699">
        <ele>526.8</ele>
        <time>2025-12-29T10:17:31Z</time>
      </trkpt>
      <trkpt lat="43.13757" lon="0.53707">
        <ele>526.8</ele>
        <time>2025-12-29T10:17:32Z</time>
      </trkpt>
      <trkpt lat="43.1376" lon="0.53715">
        <ele>526.8</ele>
        <time>2025-12-29T10:17:33Z</time>
      </trkpt>
      <trkpt lat="43.13763" lon="0.53723">
        <ele>524.6</ele>
        <time>2025-12-29T10:17:34Z</time>
      </trkpt>
      <trkpt lat="43.13767" lon="0.53732">
        <ele>524.6</ele>
        <time>2025-12-29T10:17:35Z</time>
      </trkpt>
      <trkpt lat="43.1377" lon="0.5374">
        <ele>524.6</ele>
        <time>2025-12-29T10:17:36Z</time>
      </trkpt>
      <trkpt lat="43.13773" lon="0.53749">
        <ele>524.4</ele>
        <time>2025-12-29T10:17:37Z</time>
      </trkpt>
      <trkpt lat="43.13777" lon="0.53758">
        <ele>523.4</ele>
        <time>2025-12-29T10:17:38Z</time>
      </trkpt>
      <trkpt lat="43.1378" lon="0.53767">
        <ele>523.4</ele>
        <time>2025-12-29T10:17:39Z</time>
      </trkpt>
      <trkpt lat="43.13782" lon="0.53775">
        <ele>523.4</ele>
        <time>2025-12-29T10:17:40Z</time>
      </trkpt>
      <trkpt lat="43.13785" lon="0.53784">
        <ele>523.4</ele>
        <time>2025-12-29T10:17:41Z</time>
      </trkpt>
      <trkpt lat="43.13787" lon="0.53792">
        <ele>522.6</ele>
        <time>2025-12-29T10:17:42Z</time>
      </trkpt>
      <trkpt lat="43.13789" lon="0.53801">
        <ele>522.6</ele>
        <time>2025-12-29T10:17:43Z</time>
      </trkpt>
      <trkpt lat="43.13791" lon="0.53809">
        <ele>522.6</ele>
        <time>2025-12-29T10:17:44Z</time>
      </trkpt>
      <trkpt lat="43.13793" lon="0.53818">
        <ele>523.6</ele>
        <time>2025-12-29T10:17:45Z</time>
      </trkpt>
      <trkpt lat="43.13795" lon="0.53826">
        <ele>522.4</ele>
        <time>2025-12-29T10:17:46Z</time>
      </trkpt>
      <trkpt lat="43.13797" lon="0.53834">
        <ele>522.4</ele>
        <time>2025-12-29T10:17:47Z</time>
      </trkpt>
      <trkpt lat="43.13799" lon="0.53842">
        <ele>522.4</ele>
        <time>2025-12-29T10:17:48Z</time>
      </trkpt>
      <trkpt lat="43.13801" lon="0.5385">
        <ele>523.4</ele>
        <time>2025-12-29T10:17:49Z</time>
      </trkpt>
      <trkpt lat="43.13803" lon="0.53858">
        <ele>522.8</ele>
        <time>2025-12-29T10:17:50Z</time>
      </trkpt>
      <trkpt lat="43.13805" lon="0.53865">
        <ele>522.8</ele>
        <time>2025-12-29T10:17:51Z</time>
      </trkpt>
      <trkpt lat="43.13807" lon="0.53873">
        <ele>522.8</ele>
        <time>2025-12-29T10:17:52Z</time>
      </trkpt>
      <trkpt lat="43.1381" lon="0.5388">
        <ele>523.6</ele>
        <time>2025-12-29T10:17:53Z</time>
      </trkpt>
      <trkpt lat="43.13812" lon="0.53887">
        <ele>524</ele>
        <time>2025-12-29T10:17:54Z</time>
      </trkpt>
      <trkpt lat="43.13815" lon="0.53895">
        <ele>524</ele>
        <time>2025-12-29T10:17:55Z</time>
      </trkpt>
      <trkpt lat="43.13818" lon="0.53902">
        <ele>524</ele>
        <time>2025-12-29T10:17:56Z</time>
      </trkpt>
      <trkpt lat="43.1382" lon="0.5391">
        <ele>524</ele>
        <time>2025-12-29T10:17:57Z</time>
      </trkpt>
      <trkpt lat="43.13822" lon="0.53917">
        <ele>523.8</ele>
        <time>2025-12-29T10:17:58Z</time>
      </trkpt>
      <trkpt lat="43.13825" lon="0.53924">
        <ele>523.8</ele>
        <time>2025-12-29T10:17:59Z</time>
      </trkpt>
      <trkpt lat="43.13827" lon="0.53931">
        <ele>523.8</ele>
        <time>2025-12-29T10:18:00Z</time>
      </trkpt>
      <trkpt lat="43.13829" lon="0.53938">
        <ele>523.8</ele>
        <time>2025-12-29T10:18:01Z</time>
      </trkpt>
      <trkpt lat="43.13831" lon="0.53945">
        <ele>524.4</ele>
        <time>2025-12-29T10:18:02Z</time>
      </trkpt>
      <trkpt lat="43.13834" lon="0.53952">
        <ele>524.4</ele>
        <time>2025-12-29T10:18:03Z</time>
      </trkpt>
      <trkpt lat="43.13836" lon="0.53958">
        <ele>524.4</ele>
        <time>2025-12-29T10:18:04Z</time>
      </trkpt>
      <trkpt lat="43.13838" lon="0.53964">
        <ele>524.8</ele>
        <time>2025-12-29T10:18:05Z</time>
      </trkpt>
      <trkpt lat="43.13839" lon="0.5397">
        <ele>525.2</ele>
        <time>2025-12-29T10:18:06Z</time>
      </trkpt>
      <trkpt lat="43.13841" lon="0.53976">
        <ele>525.2</ele>
        <time>2025-12-29T10:18:07Z</time>
      </trkpt>
      <trkpt lat="43.13843" lon="0.53981">
        <ele>525.2</ele>
        <time>2025-12-29T10:18:08Z</time>
      </trkpt>
      <trkpt lat="43.13845" lon="0.53987">
        <ele>526.2</ele>
        <time>2025-12-29T10:18:09Z</time>
      </trkpt>
      <trkpt lat="43.13847" lon="0.53993">
        <ele>526.4</ele>
        <time>2025-12-29T10:18:10Z</time>
      </trkpt>
      <trkpt lat="43.13849" lon="0.53998">
        <ele>526.4</ele>
        <time>2025-12-29T10:18:11Z</time>
      </trkpt>
      <trkpt lat="43.13851" lon="0.54004">
        <ele>526.4</ele>
        <time>2025-12-29T10:18:12Z</time>
      </trkpt>
      <trkpt lat="43.13853" lon="0.5401">
        <ele>527</ele>
        <time>2025-12-29T10:18:13Z</time>
      </trkpt>
      <trkpt lat="43.13856" lon="0.54016">
        <ele>526.8</ele>
        <time>2025-12-29T10:18:14Z</time>
      </trkpt>
      <trkpt lat="43.13858" lon="0.54021">
        <ele>526.8</ele>
        <time>2025-12-29T10:18:15Z</time>
      </trkpt>
      <trkpt lat="43.13861" lon="0.54027">
        <ele>526.8</ele>
        <time>2025-12-29T10:18:16Z</time>
      </trkpt>
      <trkpt lat="43.13864" lon="0.54032">
        <ele>527.6</ele>
        <time>2025-12-29T10:18:17Z</time>
      </trkpt>
      <trkpt lat="43.13867" lon="0.54038">
        <ele>528.2</ele>
        <time>2025-12-29T10:18:18Z</time>
      </trkpt>
      <trkpt lat="43.1387" lon="0.54043">
        <ele>528.2</ele>
        <time>2025-12-29T10:18:19Z</time>
      </trkpt>
      <trkpt lat="43.13872" lon="0.54048">
        <ele>528.2</ele>
        <time>2025-12-29T10:18:20Z</time>
      </trkpt>
      <trkpt lat="43.13875" lon="0.54053">
        <ele>528.2</ele>
        <time>2025-12-29T10:18:21Z</time>
      </trkpt>
      <trkpt lat="43.13877" lon="0.54057">
        <ele>528.6</ele>
        <time>2025-12-29T10:18:22Z</time>
      </trkpt>
      <trkpt lat="43.1388" lon="0.54062">
        <ele>528.6</ele>
        <time>2025-12-29T10:18:23Z</time>
      </trkpt>
      <trkpt lat="43.13882" lon="0.54067">
        <ele>528.6</ele>
        <time>2025-12-29T10:18:24Z</time>
      </trkpt>
      <trkpt lat="43.13885" lon="0.54071">
        <ele>529.6</ele>
        <time>2025-12-29T10:18:25Z</time>
      </trkpt>
      <trkpt lat="43.13887" lon="0.54076">
        <ele>529.6</ele>
        <time>2025-12-29T10:18:26Z</time>
      </trkpt>
      <trkpt lat="43.1389" lon="0.5408">
        <ele>529.6</ele>
        <time>2025-12-29T10:18:27Z</time>
      </trkpt>
      <trkpt lat="43.13892" lon="0.54085">
        <ele>529.6</ele>
        <time>2025-12-29T10:18:28Z</time>
      </trkpt>
      <trkpt lat="43.13895" lon="0.5409">
        <ele>529.6</ele>
        <time>2025-12-29T10:18:29Z</time>
      </trkpt>
      <trkpt lat="43.13897" lon="0.54094">
        <ele>530.8</ele>
        <time>2025-12-29T10:18:30Z</time>
      </trkpt>
      <trkpt lat="43.13899" lon="0.54098">
        <ele>530.8</ele>
        <time>2025-12-29T10:18:31Z</time>
      </trkpt>
      <trkpt lat="43.13902" lon="0.54102">
        <ele>530.8</ele>
        <time>2025-12-29T10:18:32Z</time>
      </trkpt>
      <trkpt lat="43.13904" lon="0.54107">
        <ele>530.8</ele>
        <time>2025-12-29T10:18:33Z</time>
      </trkpt>
      <trkpt lat="43.13907" lon="0.54112">
        <ele>530.4</ele>
        <time>2025-12-29T10:18:34Z</time>
      </trkpt>
      <trkpt lat="43.13909" lon="0.54117">
        <ele>530.4</ele>
        <time>2025-12-29T10:18:35Z</time>
      </trkpt>
      <trkpt lat="43.13912" lon="0.54122">
        <ele>530.4</ele>
        <time>2025-12-29T10:18:36Z</time>
      </trkpt>
      <trkpt lat="43.13914" lon="0.54126">
        <ele>531.4</ele>
        <time>2025-12-29T10:18:37Z</time>
      </trkpt>
      <trkpt lat="43.13917" lon="0.54131">
        <ele>531.4</ele>
        <time>2025-12-29T10:18:38Z</time>
      </trkpt>
      <trkpt lat="43.1392" lon="0.54135">
        <ele>531.4</ele>
        <time>2025-12-29T10:18:39Z</time>
      </trkpt>
      <trkpt lat="43.13922" lon="0.5414">
        <ele>531.4</ele>
        <time>2025-12-29T10:18:40Z</time>
      </trkpt>
      <trkpt lat="43.13924" lon="0.54144">
        <ele>532.2</ele>
        <time>2025-12-29T10:18:41Z</time>
      </trkpt>
      <trkpt lat="43.13927" lon="0.54148">
        <ele>531.8</ele>
        <time>2025-12-29T10:18:42Z</time>
      </trkpt>
      <trkpt lat="43.13929" lon="0.54152">
        <ele>531.8</ele>
        <time>2025-12-29T10:18:43Z</time>
      </trkpt>
      <trkpt lat="43.13931" lon="0.54156">
        <ele>531.8</ele>
        <time>2025-12-29T10:18:44Z</time>
      </trkpt>
      <trkpt lat="43.13933" lon="0.5416">
        <ele>532.2</ele>
        <time>2025-12-29T10:18:45Z</time>
      </trkpt>
      <trkpt lat="43.13935" lon="0.54165">
        <ele>532.4</ele>
        <time>2025-12-29T10:18:46Z</time>
      </trkpt>
      <trkpt lat="43.13937" lon="0.5417">
        <ele>532.4</ele>
        <time>2025-12-29T10:18:47Z</time>
      </trkpt>
      <trkpt lat="43.13939" lon="0.54175">
        <ele>532.4</ele>
        <time>2025-12-29T10:18:48Z</time>
      </trkpt>
      <trkpt lat="43.13941" lon="0.5418">
        <ele>532.8</ele>
        <time>2025-12-29T10:18:49Z</time>
      </trkpt>
      <trkpt lat="43.13943" lon="0.54185">
        <ele>533.2</ele>
        <time>2025-12-29T10:18:50Z</time>
      </trkpt>
      <trkpt lat="43.13945" lon="0.5419">
        <ele>533.2</ele>
        <time>2025-12-29T10:18:51Z</time>
      </trkpt>
      <trkpt lat="43.13947" lon="0.54194">
        <ele>533.2</ele>
        <time>2025-12-29T10:18:52Z</time>
      </trkpt>
      <trkpt lat="43.13949" lon="0.54198">
        <ele>533.2</ele>
        <time>2025-12-29T10:18:53Z</time>
      </trkpt>
      <trkpt lat="43.1395" lon="0.54203">
        <ele>533.6</ele>
        <time>2025-12-29T10:18:54Z</time>
      </trkpt>
      <trkpt lat="43.13952" lon="0.54207">
        <ele>533.6</ele>
        <time>2025-12-29T10:18:55Z</time>
      </trkpt>
      <trkpt lat="43.13954" lon="0.54212">
        <ele>533.6</ele>
        <time>2025-12-29T10:18:56Z</time>
      </trkpt>
      <trkpt lat="43.13956" lon="0.54216">
        <ele>533.6</ele>
        <time>2025-12-29T10:18:57Z</time>
      </trkpt>
      <trkpt lat="43.13958" lon="0.54221">
        <ele>533.6</ele>
        <time>2025-12-29T10:18:58Z</time>
      </trkpt>
      <trkpt lat="43.1396" lon="0.54225">
        <ele>533.6</ele>
        <time>2025-12-29T10:18:59Z</time>
      </trkpt>
      <trkpt lat="43.13963" lon="0.5423">
        <ele>533.6</ele>
        <time>2025-12-29T10:19:00Z</time>
      </trkpt>
      <trkpt lat="43.13965" lon="0.54235">
        <ele>533.6</ele>
        <time>2025-12-29T10:19:01Z</time>
      </trkpt>
      <trkpt lat="43.13968" lon="0.54239">
        <ele>533.6</ele>
        <time>2025-12-29T10:19:02Z</time>
      </trkpt>
      <trkpt lat="43.1397" lon="0.54244">
        <ele>533.6</ele>
        <time>2025-12-29T10:19:03Z</time>
      </trkpt>
      <trkpt lat="43.13973" lon="0.54249">
        <ele>533.6</ele>
        <time>2025-12-29T10:19:04Z</time>
      </trkpt>
      <trkpt lat="43.13975" lon="0.54253">
        <ele>533.6</ele>
        <time>2025-12-29T10:19:05Z</time>
      </trkpt>
      <trkpt lat="43.13977" lon="0.54258">
        <ele>534</ele>
        <time>2025-12-29T10:19:06Z</time>
      </trkpt>
      <trkpt lat="43.1398" lon="0.54263">
        <ele>534</ele>
        <time>2025-12-29T10:19:07Z</time>
      </trkpt>
      <trkpt lat="43.13982" lon="0.54268">
        <ele>534</ele>
        <time>2025-12-29T10:19:08Z</time>
      </trkpt>
      <trkpt lat="43.13984" lon="0.54273">
        <ele>534.4</ele>
        <time>2025-12-29T10:19:09Z</time>
      </trkpt>
      <trkpt lat="43.13987" lon="0.54277">
        <ele>534.2</ele>
        <time>2025-12-29T10:19:10Z</time>
      </trkpt>
      <trkpt lat="43.13989" lon="0.54283">
        <ele>534.2</ele>
        <time>2025-12-29T10:19:11Z</time>
      </trkpt>
      <trkpt lat="43.13992" lon="0.54288">
        <ele>534.2</ele>
        <time>2025-12-29T10:19:12Z</time>
      </trkpt>
      <trkpt lat="43.13994" lon="0.54293">
        <ele>534.2</ele>
        <time>2025-12-29T10:19:13Z</time>
      </trkpt>
      <trkpt lat="43.13997" lon="0.54298">
        <ele>534.2</ele>
        <time>2025-12-29T10:19:14Z</time>
      </trkpt>
      <trkpt lat="43.13999" lon="0.54304">
        <ele>534.2</ele>
        <time>2025-12-29T10:19:15Z</time>
      </trkpt>
      <trkpt lat="43.14002" lon="0.54309">
        <ele>534.2</ele>
        <time>2025-12-29T10:19:16Z</time>
      </trkpt>
      <trkpt lat="43.14004" lon="0.54314">
        <ele>533.6</ele>
        <time>2025-12-29T10:19:17Z</time>
      </trkpt>
      <trkpt lat="43.14006" lon="0.54319">
        <ele>533.8</ele>
        <time>2025-12-29T10:19:18Z</time>
      </trkpt>
      <trkpt lat="43.14008" lon="0.54324">
        <ele>533.8</ele>
        <time>2025-12-29T10:19:19Z</time>
      </trkpt>
      <trkpt lat="43.1401" lon="0.5433">
        <ele>533.8</ele>
        <time>2025-12-29T10:19:20Z</time>
      </trkpt>
      <trkpt lat="43.14012" lon="0.54335">
        <ele>533.8</ele>
        <time>2025-12-29T10:19:21Z</time>
      </trkpt>
      <trkpt lat="43.14014" lon="0.54341">
        <ele>533.8</ele>
        <time>2025-12-29T10:19:22Z</time>
      </trkpt>
      <trkpt lat="43.14015" lon="0.54346">
        <ele>533.8</ele>
        <time>2025-12-29T10:19:23Z</time>
      </trkpt>
      <trkpt lat="43.14017" lon="0.54353">
        <ele>533.8</ele>
        <time>2025-12-29T10:19:24Z</time>
      </trkpt>
      <trkpt lat="43.14019" lon="0.54359">
        <ele>533</ele>
        <time>2025-12-29T10:19:25Z</time>
      </trkpt>
      <trkpt lat="43.14021" lon="0.54365">
        <ele>533.4</ele>
        <time>2025-12-29T10:19:26Z</time>
      </trkpt>
      <trkpt lat="43.14023" lon="0.54372">
        <ele>533.4</ele>
        <time>2025-12-29T10:19:27Z</time>
      </trkpt>
      <trkpt lat="43.14024" lon="0.54378">
        <ele>533.4</ele>
        <time>2025-12-29T10:19:28Z</time>
      </trkpt>
      <trkpt lat="43.14026" lon="0.54385">
        <ele>533.4</ele>
        <time>2025-12-29T10:19:29Z</time>
      </trkpt>
      <trkpt lat="43.14028" lon="0.54391">
        <ele>533.6</ele>
        <time>2025-12-29T10:19:30Z</time>
      </trkpt>
      <trkpt lat="43.1403" lon="0.54397">
        <ele>533.6</ele>
        <time>2025-12-29T10:19:31Z</time>
      </trkpt>
      <trkpt lat="43.14031" lon="0.54404">
        <ele>533.6</ele>
        <time>2025-12-29T10:19:32Z</time>
      </trkpt>
      <trkpt lat="43.14033" lon="0.5441">
        <ele>532.8</ele>
        <time>2025-12-29T10:19:33Z</time>
      </trkpt>
      <trkpt lat="43.14035" lon="0.54416">
        <ele>532.6</ele>
        <time>2025-12-29T10:19:34Z</time>
      </trkpt>
      <trkpt lat="43.14037" lon="0.54423">
        <ele>532.6</ele>
        <time>2025-12-29T10:19:35Z</time>
      </trkpt>
      <trkpt lat="43.14038" lon="0.54429">
        <ele>532.6</ele>
        <time>2025-12-29T10:19:36Z</time>
      </trkpt>
      <trkpt lat="43.1404" lon="0.54436">
        <ele>533.6</ele>
        <time>2025-12-29T10:19:37Z</time>
      </trkpt>
      <trkpt lat="43.14042" lon="0.54442">
        <ele>532.8</ele>
        <time>2025-12-29T10:19:38Z</time>
      </trkpt>
      <trkpt lat="43.14044" lon="0.54449">
        <ele>532.8</ele>
        <time>2025-12-29T10:19:39Z</time>
      </trkpt>
      <trkpt lat="43.14046" lon="0.54457">
        <ele>532.8</ele>
        <time>2025-12-29T10:19:40Z</time>
      </trkpt>
      <trkpt lat="43.14048" lon="0.54464">
        <ele>532</ele>
        <time>2025-12-29T10:19:41Z</time>
      </trkpt>
      <trkpt lat="43.1405" lon="0.54472">
        <ele>531.8</ele>
        <time>2025-12-29T10:19:42Z</time>
      </trkpt>
      <trkpt lat="43.14053" lon="0.54479">
        <ele>531.8</ele>
        <time>2025-12-29T10:19:43Z</time>
      </trkpt>
      <trkpt lat="43.14055" lon="0.54487">
        <ele>531.8</ele>
        <time>2025-12-29T10:19:44Z</time>
      </trkpt>
      <trkpt lat="43.14057" lon="0.54494">
        <ele>531.8</ele>
        <time>2025-12-29T10:19:45Z</time>
      </trkpt>
      <trkpt lat="43.14059" lon="0.54501">
        <ele>532.6</ele>
        <time>2025-12-29T10:19:46Z</time>
      </trkpt>
      <trkpt lat="43.14061" lon="0.54509">
        <ele>532.6</ele>
        <time>2025-12-29T10:19:47Z</time>
      </trkpt>
      <trkpt lat="43.14063" lon="0.54516">
        <ele>532.6</ele>
        <time>2025-12-29T10:19:48Z</time>
      </trkpt>
      <trkpt lat="43.14066" lon="0.54523">
        <ele>532.6</ele>
        <time>2025-12-29T10:19:49Z</time>
      </trkpt>
      <trkpt lat="43.14068" lon="0.5453">
        <ele>531</ele>
        <time>2025-12-29T10:19:50Z</time>
      </trkpt>
      <trkpt lat="43.1407" lon="0.54536">
        <ele>531</ele>
        <time>2025-12-29T10:19:51Z</time>
      </trkpt>
      <trkpt lat="43.14072" lon="0.54543">
        <ele>531</ele>
        <time>2025-12-29T10:19:52Z</time>
      </trkpt>
      <trkpt lat="43.14075" lon="0.54549">
        <ele>531</ele>
        <time>2025-12-29T10:19:53Z</time>
      </trkpt>
      <trkpt lat="43.14077" lon="0.54555">
        <ele>530.8</ele>
        <time>2025-12-29T10:19:54Z</time>
      </trkpt>
      <trkpt lat="43.1408" lon="0.54561">
        <ele>530.8</ele>
        <time>2025-12-29T10:19:55Z</time>
      </trkpt>
      <trkpt lat="43.14082" lon="0.54567">
        <ele>530.8</ele>
        <time>2025-12-29T10:19:56Z</time>
      </trkpt>
      <trkpt lat="43.14084" lon="0.54573">
        <ele>530.8</ele>
        <time>2025-12-29T10:19:57Z</time>
      </trkpt>
      <trkpt lat="43.14087" lon="0.54579">
        <ele>530.6</ele>
        <time>2025-12-29T10:19:58Z</time>
      </trkpt>
      <trkpt lat="43.14089" lon="0.54584">
        <ele>530.6</ele>
        <time>2025-12-29T10:19:59Z</time>
      </trkpt>
      <trkpt lat="43.14091" lon="0.54589">
        <ele>530.6</ele>
        <time>2025-12-29T10:20:00Z</time>
      </trkpt>
      <trkpt lat="43.14093" lon="0.54594">
        <ele>530.6</ele>
        <time>2025-12-29T10:20:01Z</time>
      </trkpt>
      <trkpt lat="43.14095" lon="0.54598">
        <ele>530.8</ele>
        <time>2025-12-29T10:20:02Z</time>
      </trkpt>
      <trkpt lat="43.14097" lon="0.54602">
        <ele>530.8</ele>
        <time>2025-12-29T10:20:03Z</time>
      </trkpt>
      <trkpt lat="43.14098" lon="0.54606">
        <ele>530.8</ele>
        <time>2025-12-29T10:20:04Z</time>
      </trkpt>
      <trkpt lat="43.141" lon="0.5461">
        <ele>530.8</ele>
        <time>2025-12-29T10:20:05Z</time>
      </trkpt>
      <trkpt lat="43.14102" lon="0.54614">
        <ele>530.8</ele>
        <time>2025-12-29T10:20:06Z</time>
      </trkpt>
      <trkpt lat="43.14104" lon="0.54618">
        <ele>530.8</ele>
        <time>2025-12-29T10:20:07Z</time>
      </trkpt>
      <trkpt lat="43.14106" lon="0.54623">
        <ele>530.8</ele>
        <time>2025-12-29T10:20:08Z</time>
      </trkpt>
      <trkpt lat="43.14108" lon="0.54627">
        <ele>529.8</ele>
        <time>2025-12-29T10:20:09Z</time>
      </trkpt>
      <trkpt lat="43.1411" lon="0.54632">
        <ele>530.6</ele>
        <time>2025-12-29T10:20:10Z</time>
      </trkpt>
      <trkpt lat="43.14113" lon="0.54637">
        <ele>530.6</ele>
        <time>2025-12-29T10:20:11Z</time>
      </trkpt>
      <trkpt lat="43.14115" lon="0.54642">
        <ele>530.6</ele>
        <time>2025-12-29T10:20:12Z</time>
      </trkpt>
      <trkpt lat="43.14117" lon="0.54647">
        <ele>530</ele>
        <time>2025-12-29T10:20:13Z</time>
      </trkpt>
      <trkpt lat="43.1412" lon="0.54652">
        <ele>528.4</ele>
        <time>2025-12-29T10:20:14Z</time>
      </trkpt>
      <trkpt lat="43.14123" lon="0.54658">
        <ele>528.4</ele>
        <time>2025-12-29T10:20:15Z</time>
      </trkpt>
      <trkpt lat="43.14125" lon="0.54664">
        <ele>528.4</ele>
        <time>2025-12-29T10:20:16Z</time>
      </trkpt>
      <trkpt lat="43.14128" lon="0.54669">
        <ele>528.4</ele>
        <time>2025-12-29T10:20:17Z</time>
      </trkpt>
      <trkpt lat="43.14131" lon="0.54675">
        <ele>528</ele>
        <time>2025-12-29T10:20:18Z</time>
      </trkpt>
      <trkpt lat="43.14134" lon="0.5468">
        <ele>528</ele>
        <time>2025-12-29T10:20:19Z</time>
      </trkpt>
      <trkpt lat="43.14137" lon="0.54686">
        <ele>528</ele>
        <time>2025-12-29T10:20:20Z</time>
      </trkpt>
      <trkpt lat="43.1414" lon="0.54693">
        <ele>527.8</ele>
        <time>2025-12-29T10:20:21Z</time>
      </trkpt>
      <trkpt lat="43.14143" lon="0.54699">
        <ele>527</ele>
        <time>2025-12-29T10:20:22Z</time>
      </trkpt>
      <trkpt lat="43.14146" lon="0.54705">
        <ele>527</ele>
        <time>2025-12-29T10:20:23Z</time>
      </trkpt>
      <trkpt lat="43.14149" lon="0.54711">
        <ele>527</ele>
        <time>2025-12-29T10:20:24Z</time>
      </trkpt>
      <trkpt lat="43.14153" lon="0.54718">
        <ele>527</ele>
        <time>2025-12-29T10:20:25Z</time>
      </trkpt>
      <trkpt lat="43.14156" lon="0.54724">
        <ele>526.6</ele>
        <time>2025-12-29T10:20:26Z</time>
      </trkpt>
      <trkpt lat="43.14159" lon="0.54731">
        <ele>526.6</ele>
        <time>2025-12-29T10:20:27Z</time>
      </trkpt>
      <trkpt lat="43.14162" lon="0.54737">
        <ele>526.6</ele>
        <time>2025-12-29T10:20:28Z</time>
      </trkpt>
      <trkpt lat="43.14165" lon="0.54744">
        <ele>526.6</ele>
        <time>2025-12-29T10:20:29Z</time>
      </trkpt>
      <trkpt lat="43.14168" lon="0.54751">
        <ele>526</ele>
        <time>2025-12-29T10:20:30Z</time>
      </trkpt>
      <trkpt lat="43.14171" lon="0.54758">
        <ele>526</ele>
        <time>2025-12-29T10:20:31Z</time>
      </trkpt>
      <trkpt lat="43.14174" lon="0.54766">
        <ele>526</ele>
        <time>2025-12-29T10:20:32Z</time>
      </trkpt>
      <trkpt lat="43.14177" lon="0.54773">
        <ele>525</ele>
        <time>2025-12-29T10:20:33Z</time>
      </trkpt>
      <trkpt lat="43.1418" lon="0.54781">
        <ele>524.6</ele>
        <time>2025-12-29T10:20:34Z</time>
      </trkpt>
      <trkpt lat="43.14183" lon="0.54788">
        <ele>524.6</ele>
        <time>2025-12-29T10:20:35Z</time>
      </trkpt>
      <trkpt lat="43.14186" lon="0.54795">
        <ele>524.6</ele>
        <time>2025-12-29T10:20:36Z</time>
      </trkpt>
      <trkpt lat="43.14189" lon="0.54802">
        <ele>524.6</ele>
        <time>2025-12-29T10:20:37Z</time>
      </trkpt>
      <trkpt lat="43.14192" lon="0.54808">
        <ele>524.4</ele>
        <time>2025-12-29T10:20:38Z</time>
      </trkpt>
      <trkpt lat="43.14195" lon="0.54815">
        <ele>524.4</ele>
        <time>2025-12-29T10:20:39Z</time>
      </trkpt>
      <trkpt lat="43.14198" lon="0.54822">
        <ele>524.4</ele>
        <time>2025-12-29T10:20:40Z</time>
      </trkpt>
      <trkpt lat="43.14201" lon="0.54829">
        <ele>524.4</ele>
        <time>2025-12-29T10:20:41Z</time>
      </trkpt>
      <trkpt lat="43.14203" lon="0.54835">
        <ele>523.4</ele>
        <time>2025-12-29T10:20:42Z</time>
      </trkpt>
      <trkpt lat="43.14205" lon="0.54842">
        <ele>523.4</ele>
        <time>2025-12-29T10:20:43Z</time>
      </trkpt>
      <trkpt lat="43.14207" lon="0.54848">
        <ele>523.4</ele>
        <time>2025-12-29T10:20:44Z</time>
      </trkpt>
      <trkpt lat="43.14209" lon="0.54855">
        <ele>524.4</ele>
        <time>2025-12-29T10:20:45Z</time>
      </trkpt>
      <trkpt lat="43.14211" lon="0.54861">
        <ele>524.2</ele>
        <time>2025-12-29T10:20:46Z</time>
      </trkpt>
      <trkpt lat="43.14212" lon="0.54867">
        <ele>524.2</ele>
        <time>2025-12-29T10:20:47Z</time>
      </trkpt>
      <trkpt lat="43.14214" lon="0.54873">
        <ele>524.2</ele>
        <time>2025-12-29T10:20:48Z</time>
      </trkpt>
      <trkpt lat="43.14215" lon="0.54879">
        <ele>524.2</ele>
        <time>2025-12-29T10:20:49Z</time>
      </trkpt>
      <trkpt lat="43.14217" lon="0.54885">
        <ele>523.4</ele>
        <time>2025-12-29T10:20:50Z</time>
      </trkpt>
      <trkpt lat="43.14218" lon="0.5489">
        <ele>523.4</ele>
        <time>2025-12-29T10:20:51Z</time>
      </trkpt>
      <trkpt lat="43.1422" lon="0.54895">
        <ele>523.4</ele>
        <time>2025-12-29T10:20:52Z</time>
      </trkpt>
      <trkpt lat="43.14222" lon="0.54901">
        <ele>524.2</ele>
        <time>2025-12-29T10:20:53Z</time>
      </trkpt>
      <trkpt lat="43.14223" lon="0.54906">
        <ele>524.4</ele>
        <time>2025-12-29T10:20:54Z</time>
      </trkpt>
      <trkpt lat="43.14224" lon="0.5491">
        <ele>524.4</ele>
        <time>2025-12-29T10:20:55Z</time>
      </trkpt>
      <trkpt lat="43.14226" lon="0.54915">
        <ele>524.4</ele>
        <time>2025-12-29T10:20:56Z</time>
      </trkpt>
      <trkpt lat="43.14227" lon="0.5492">
        <ele>524.4</ele>
        <time>2025-12-29T10:20:57Z</time>
      </trkpt>
      <trkpt lat="43.14228" lon="0.54924">
        <ele>524.4</ele>
        <time>2025-12-29T10:20:58Z</time>
      </trkpt>
      <trkpt lat="43.14229" lon="0.54929">
        <ele>524.4</ele>
        <time>2025-12-29T10:20:59Z</time>
      </trkpt>
      <trkpt lat="43.1423" lon="0.54933">
        <ele>524.4</ele>
        <time>2025-12-29T10:21:00Z</time>
      </trkpt>
      <trkpt lat="43.14231" lon="0.54937">
        <ele>524.4</ele>
        <time>2025-12-29T10:21:01Z</time>
      </trkpt>
      <trkpt lat="43.14232" lon="0.54941">
        <ele>524.8</ele>
        <time>2025-12-29T10:21:02Z</time>
      </trkpt>
      <trkpt lat="43.14233" lon="0.54945">
        <ele>524.8</ele>
        <time>2025-12-29T10:21:03Z</time>
      </trkpt>
      <trkpt lat="43.14234" lon="0.54949">
        <ele>524.8</ele>
        <time>2025-12-29T10:21:04Z</time>
      </trkpt>
      <trkpt lat="43.14235" lon="0.54952">
        <ele>524.8</ele>
        <time>2025-12-29T10:21:05Z</time>
      </trkpt>
      <trkpt lat="43.14236" lon="0.54956">
        <ele>525.2</ele>
        <time>2025-12-29T10:21:06Z</time>
      </trkpt>
      <trkpt lat="43.14236" lon="0.5496">
        <ele>525.2</ele>
        <time>2025-12-29T10:21:07Z</time>
      </trkpt>
      <trkpt lat="43.14236" lon="0.54963">
        <ele>525.2</ele>
        <time>2025-12-29T10:21:08Z</time>
      </trkpt>
      <trkpt lat="43.14237" lon="0.54967">
        <ele>525.2</ele>
        <time>2025-12-29T10:21:09Z</time>
      </trkpt>
      <trkpt lat="43.14238" lon="0.5497">
        <ele>525</ele>
        <time>2025-12-29T10:21:10Z</time>
      </trkpt>
      <trkpt lat="43.14239" lon="0.54973">
        <ele>525</ele>
        <time>2025-12-29T10:21:11Z</time>
      </trkpt>
      <trkpt lat="43.1424" lon="0.54976">
        <ele>525</ele>
        <time>2025-12-29T10:21:12Z</time>
      </trkpt>
      <trkpt lat="43.14241" lon="0.54979">
        <ele>524.8</ele>
        <time>2025-12-29T10:21:13Z</time>
      </trkpt>
      <trkpt lat="43.14242" lon="0.54982">
        <ele>525.2</ele>
        <time>2025-12-29T10:21:14Z</time>
      </trkpt>
      <trkpt lat="43.14242" lon="0.54985">
        <ele>525.2</ele>
        <time>2025-12-29T10:21:15Z</time>
      </trkpt>
      <trkpt lat="43.14243" lon="0.54988">
        <ele>525.2</ele>
        <time>2025-12-29T10:21:16Z</time>
      </trkpt>
      <trkpt lat="43.14243" lon="0.54992">
        <ele>524.6</ele>
        <time>2025-12-29T10:21:17Z</time>
      </trkpt>
      <trkpt lat="43.14244" lon="0.54995">
        <ele>524.8</ele>
        <time>2025-12-29T10:21:18Z</time>
      </trkpt>
      <trkpt lat="43.14245" lon="0.54998">
        <ele>524.8</ele>
        <time>2025-12-29T10:21:19Z</time>
      </trkpt>
      <trkpt lat="43.14245" lon="0.55001">
        <ele>524.8</ele>
        <time>2025-12-29T10:21:20Z</time>
      </trkpt>
      <trkpt lat="43.14246" lon="0.55004">
        <ele>524.8</ele>
        <time>2025-12-29T10:21:21Z</time>
      </trkpt>
      <trkpt lat="43.14247" lon="0.55009">
        <ele>524.6</ele>
        <time>2025-12-29T10:21:22Z</time>
      </trkpt>
      <trkpt lat="43.14248" lon="0.55013">
        <ele>524.6</ele>
        <time>2025-12-29T10:21:23Z</time>
      </trkpt>
      <trkpt lat="43.14249" lon="0.55018">
        <ele>524.6</ele>
        <time>2025-12-29T10:21:24Z</time>
      </trkpt>
      <trkpt lat="43.1425" lon="0.55023">
        <ele>524.6</ele>
        <time>2025-12-29T10:21:25Z</time>
      </trkpt>
      <trkpt lat="43.14251" lon="0.55029">
        <ele>523.8</ele>
        <time>2025-12-29T10:21:26Z</time>
      </trkpt>
      <trkpt lat="43.14252" lon="0.55034">
        <ele>523.8</ele>
        <time>2025-12-29T10:21:27Z</time>
      </trkpt>
      <trkpt lat="43.14253" lon="0.5504">
        <ele>523.8</ele>
        <time>2025-12-29T10:21:28Z</time>
      </trkpt>
      <trkpt lat="43.14255" lon="0.55046">
        <ele>523.8</ele>
        <time>2025-12-29T10:21:29Z</time>
      </trkpt>
      <trkpt lat="43.14256" lon="0.55052">
        <ele>523.2</ele>
        <time>2025-12-29T10:21:30Z</time>
      </trkpt>
      <trkpt lat="43.14258" lon="0.55059">
        <ele>523.2</ele>
        <time>2025-12-29T10:21:31Z</time>
      </trkpt>
      <trkpt lat="43.14259" lon="0.55065">
        <ele>523.2</ele>
        <time>2025-12-29T10:21:32Z</time>
      </trkpt>
      <trkpt lat="43.14261" lon="0.55071">
        <ele>524.2</ele>
        <time>2025-12-29T10:21:33Z</time>
      </trkpt>
      <trkpt lat="43.14263" lon="0.55078">
        <ele>522.6</ele>
        <time>2025-12-29T10:21:34Z</time>
      </trkpt>
      <trkpt lat="43.14264" lon="0.55084">
        <ele>522.6</ele>
        <time>2025-12-29T10:21:35Z</time>
      </trkpt>
      <trkpt lat="43.14266" lon="0.55091">
        <ele>522.6</ele>
        <time>2025-12-29T10:21:36Z</time>
      </trkpt>
      <trkpt lat="43.14268" lon="0.55097">
        <ele>523.6</ele>
        <time>2025-12-29T10:21:37Z</time>
      </trkpt>
      <trkpt lat="43.1427" lon="0.55104">
        <ele>522.6</ele>
        <time>2025-12-29T10:21:38Z</time>
      </trkpt>
      <trkpt lat="43.14272" lon="0.55111">
        <ele>522.6</ele>
        <time>2025-12-29T10:21:39Z</time>
      </trkpt>
      <trkpt lat="43.14274" lon="0.55117">
        <ele>522.6</ele>
        <time>2025-12-29T10:21:40Z</time>
      </trkpt>
      <trkpt lat="43.14276" lon="0.55124">
        <ele>522.6</ele>
        <time>2025-12-29T10:21:41Z</time>
      </trkpt>
      <trkpt lat="43.14278" lon="0.55131">
        <ele>522.6</ele>
        <time>2025-12-29T10:21:42Z</time>
      </trkpt>
      <trkpt lat="43.1428" lon="0.55137">
        <ele>522.6</ele>
        <time>2025-12-29T10:21:43Z</time>
      </trkpt>
      <trkpt lat="43.14282" lon="0.55144">
        <ele>522.6</ele>
        <time>2025-12-29T10:21:44Z</time>
      </trkpt>
      <trkpt lat="43.14284" lon="0.55151">
        <ele>523.6</ele>
        <time>2025-12-29T10:21:45Z</time>
      </trkpt>
      <trkpt lat="43.14286" lon="0.55158">
        <ele>524.2</ele>
        <time>2025-12-29T10:21:46Z</time>
      </trkpt>
      <trkpt lat="43.14288" lon="0.55165">
        <ele>524.2</ele>
        <time>2025-12-29T10:21:47Z</time>
      </trkpt>
      <trkpt lat="43.1429" lon="0.55172">
        <ele>524.2</ele>
        <time>2025-12-29T10:21:48Z</time>
      </trkpt>
      <trkpt lat="43.14292" lon="0.55179">
        <ele>523.2</ele>
        <time>2025-12-29T10:21:49Z</time>
      </trkpt>
      <trkpt lat="43.14294" lon="0.55186">
        <ele>523.2</ele>
        <time>2025-12-29T10:21:50Z</time>
      </trkpt>
      <trkpt lat="43.14296" lon="0.55193">
        <ele>523.2</ele>
        <time>2025-12-29T10:21:51Z</time>
      </trkpt>
      <trkpt lat="43.14298" lon="0.552">
        <ele>523.2</ele>
        <time>2025-12-29T10:21:52Z</time>
      </trkpt>
      <trkpt lat="43.143" lon="0.55207">
        <ele>523.2</ele>
        <time>2025-12-29T10:21:53Z</time>
      </trkpt>
      <trkpt lat="43.14302" lon="0.55214">
        <ele>523.2</ele>
        <time>2025-12-29T10:21:54Z</time>
      </trkpt>
      <trkpt lat="43.14304" lon="0.55221">
        <ele>523.2</ele>
        <time>2025-12-29T10:21:55Z</time>
      </trkpt>
      <trkpt lat="43.14306" lon="0.55228">
        <ele>523.2</ele>
        <time>2025-12-29T10:21:56Z</time>
      </trkpt>
      <trkpt lat="43.14308" lon="0.55235">
        <ele>523.2</ele>
        <time>2025-12-29T10:21:57Z</time>
      </trkpt>
      <trkpt lat="43.1431" lon="0.55241">
        <ele>522.4</ele>
        <time>2025-12-29T10:21:58Z</time>
      </trkpt>
      <trkpt lat="43.14312" lon="0.55248">
        <ele>522.4</ele>
        <time>2025-12-29T10:21:59Z</time>
      </trkpt>
      <trkpt lat="43.14313" lon="0.55255">
        <ele>522.4</ele>
        <time>2025-12-29T10:22:00Z</time>
      </trkpt>
      <trkpt lat="43.14315" lon="0.55261">
        <ele>523.4</ele>
        <time>2025-12-29T10:22:01Z</time>
      </trkpt>
      <trkpt lat="43.14317" lon="0.55267">
        <ele>524.2</ele>
        <time>2025-12-29T10:22:02Z</time>
      </trkpt>
      <trkpt lat="43.14319" lon="0.55274">
        <ele>524.2</ele>
        <time>2025-12-29T10:22:03Z</time>
      </trkpt>
      <trkpt lat="43.14321" lon="0.5528">
        <ele>524.2</ele>
        <time>2025-12-29T10:22:04Z</time>
      </trkpt>
      <trkpt lat="43.14324" lon="0.55286">
        <ele>524.2</ele>
        <time>2025-12-29T10:22:05Z</time>
      </trkpt>
      <trkpt lat="43.14326" lon="0.55293">
        <ele>524</ele>
        <time>2025-12-29T10:22:06Z</time>
      </trkpt>
      <trkpt lat="43.14328" lon="0.55299">
        <ele>524</ele>
        <time>2025-12-29T10:22:07Z</time>
      </trkpt>
      <trkpt lat="43.1433" lon="0.55305">
        <ele>524</ele>
        <time>2025-12-29T10:22:08Z</time>
      </trkpt>
      <trkpt lat="43.14332" lon="0.55312">
        <ele>524</ele>
        <time>2025-12-29T10:22:09Z</time>
      </trkpt>
      <trkpt lat="43.14334" lon="0.55318">
        <ele>524.8</ele>
        <time>2025-12-29T10:22:10Z</time>
      </trkpt>
      <trkpt lat="43.14337" lon="0.55324">
        <ele>524.8</ele>
        <time>2025-12-29T10:22:11Z</time>
      </trkpt>
      <trkpt lat="43.1434" lon="0.55331">
        <ele>524.8</ele>
        <time>2025-12-29T10:22:12Z</time>
      </trkpt>
      <trkpt lat="43.14342" lon="0.55337">
        <ele>524.8</ele>
        <time>2025-12-29T10:22:13Z</time>
      </trkpt>
      <trkpt lat="43.14345" lon="0.55343">
        <ele>523.4</ele>
        <time>2025-12-29T10:22:14Z</time>
      </trkpt>
      <trkpt lat="43.14348" lon="0.55349">
        <ele>523.4</ele>
        <time>2025-12-29T10:22:15Z</time>
      </trkpt>
      <trkpt lat="43.14351" lon="0.55355">
        <ele>523.4</ele>
        <time>2025-12-29T10:22:16Z</time>
      </trkpt>
      <trkpt lat="43.14353" lon="0.55362">
        <ele>523.4</ele>
        <time>2025-12-29T10:22:17Z</time>
      </trkpt>
      <trkpt lat="43.14356" lon="0.55368">
        <ele>522.8</ele>
        <time>2025-12-29T10:22:18Z</time>
      </trkpt>
      <trkpt lat="43.14359" lon="0.55375">
        <ele>522.8</ele>
        <time>2025-12-29T10:22:19Z</time>
      </trkpt>
      <trkpt lat="43.14361" lon="0.55382">
        <ele>522.8</ele>
        <time>2025-12-29T10:22:20Z</time>
      </trkpt>
      <trkpt lat="43.14364" lon="0.55389">
        <ele>523.8</ele>
        <time>2025-12-29T10:22:21Z</time>
      </trkpt>
      <trkpt lat="43.14366" lon="0.55396">
        <ele>524</ele>
        <time>2025-12-29T10:22:22Z</time>
      </trkpt>
      <trkpt lat="43.14369" lon="0.55403">
        <ele>524</ele>
        <time>2025-12-29T10:22:23Z</time>
      </trkpt>
      <trkpt lat="43.14371" lon="0.5541">
        <ele>524</ele>
        <time>2025-12-29T10:22:24Z</time>
      </trkpt>
      <trkpt lat="43.14373" lon="0.55417">
        <ele>523.6</ele>
        <time>2025-12-29T10:22:25Z</time>
      </trkpt>
      <trkpt lat="43.14375" lon="0.55425">
        <ele>523.8</ele>
        <time>2025-12-29T10:22:26Z</time>
      </trkpt>
      <trkpt lat="43.14378" lon="0.55432">
        <ele>523.8</ele>
        <time>2025-12-29T10:22:27Z</time>
      </trkpt>
      <trkpt lat="43.1438" lon="0.55439">
        <ele>523.8</ele>
        <time>2025-12-29T10:22:28Z</time>
      </trkpt>
      <trkpt lat="43.14382" lon="0.55447">
        <ele>523.4</ele>
        <time>2025-12-29T10:22:29Z</time>
      </trkpt>
      <trkpt lat="43.14384" lon="0.55454">
        <ele>523.2</ele>
        <time>2025-12-29T10:22:30Z</time>
      </trkpt>
      <trkpt lat="43.14385" lon="0.55462">
        <ele>523.2</ele>
        <time>2025-12-29T10:22:31Z</time>
      </trkpt>
      <trkpt lat="43.14387" lon="0.55469">
        <ele>523.2</ele>
        <time>2025-12-29T10:22:32Z</time>
      </trkpt>
      <trkpt lat="43.14389" lon="0.55477">
        <ele>523.2</ele>
        <time>2025-12-29T10:22:33Z</time>
      </trkpt>
      <trkpt lat="43.1439" lon="0.55484">
        <ele>523</ele>
        <time>2025-12-29T10:22:34Z</time>
      </trkpt>
      <trkpt lat="43.14392" lon="0.55492">
        <ele>523</ele>
        <time>2025-12-29T10:22:35Z</time>
      </trkpt>
      <trkpt lat="43.14393" lon="0.555">
        <ele>523</ele>
        <time>2025-12-29T10:22:36Z</time>
      </trkpt>
      <trkpt lat="43.14394" lon="0.55508">
        <ele>522.2</ele>
        <time>2025-12-29T10:22:37Z</time>
      </trkpt>
      <trkpt lat="43.14396" lon="0.55516">
        <ele>522.6</ele>
        <time>2025-12-29T10:22:38Z</time>
      </trkpt>
      <trkpt lat="43.14397" lon="0.55523">
        <ele>522.6</ele>
        <time>2025-12-29T10:22:39Z</time>
      </trkpt>
      <trkpt lat="43.14398" lon="0.55531">
        <ele>522.6</ele>
        <time>2025-12-29T10:22:40Z</time>
      </trkpt>
      <trkpt lat="43.144" lon="0.55539">
        <ele>522</ele>
        <time>2025-12-29T10:22:41Z</time>
      </trkpt>
      <trkpt lat="43.14401" lon="0.55546">
        <ele>522.4</ele>
        <time>2025-12-29T10:22:42Z</time>
      </trkpt>
      <trkpt lat="43.14403" lon="0.55554">
        <ele>522.4</ele>
        <time>2025-12-29T10:22:43Z</time>
      </trkpt>
      <trkpt lat="43.14404" lon="0.55561">
        <ele>522.4</ele>
        <time>2025-12-29T10:22:44Z</time>
      </trkpt>
      <trkpt lat="43.14405" lon="0.55568">
        <ele>522.4</ele>
        <time>2025-12-29T10:22:45Z</time>
      </trkpt>
      <trkpt lat="43.14406" lon="0.55575">
        <ele>522.2</ele>
        <time>2025-12-29T10:22:46Z</time>
      </trkpt>
      <trkpt lat="43.14407" lon="0.55583">
        <ele>522.2</ele>
        <time>2025-12-29T10:22:47Z</time>
      </trkpt>
      <trkpt lat="43.14409" lon="0.5559">
        <ele>522.2</ele>
        <time>2025-12-29T10:22:48Z</time>
      </trkpt>
      <trkpt lat="43.1441" lon="0.55597">
        <ele>523.2</ele>
        <time>2025-12-29T10:22:49Z</time>
      </trkpt>
      <trkpt lat="43.14411" lon="0.55604">
        <ele>522</ele>
        <time>2025-12-29T10:22:50Z</time>
      </trkpt>
      <trkpt lat="43.14412" lon="0.55611">
        <ele>522</ele>
        <time>2025-12-29T10:22:51Z</time>
      </trkpt>
      <trkpt lat="43.14413" lon="0.55619">
        <ele>522</ele>
        <time>2025-12-29T10:22:52Z</time>
      </trkpt>
      <trkpt lat="43.14415" lon="0.55626">
        <ele>522</ele>
        <time>2025-12-29T10:22:53Z</time>
      </trkpt>
      <trkpt lat="43.14416" lon="0.55633">
        <ele>521.6</ele>
        <time>2025-12-29T10:22:54Z</time>
      </trkpt>
      <trkpt lat="43.14417" lon="0.5564">
        <ele>521.6</ele>
        <time>2025-12-29T10:22:55Z</time>
      </trkpt>
      <trkpt lat="43.14418" lon="0.55647">
        <ele>521.6</ele>
        <time>2025-12-29T10:22:56Z</time>
      </trkpt>
      <trkpt lat="43.14419" lon="0.55654">
        <ele>521.6</ele>
        <time>2025-12-29T10:22:57Z</time>
      </trkpt>
      <trkpt lat="43.1442" lon="0.5566">
        <ele>522.2</ele>
        <time>2025-12-29T10:22:58Z</time>
      </trkpt>
      <trkpt lat="43.14421" lon="0.55667">
        <ele>522.2</ele>
        <time>2025-12-29T10:22:59Z</time>
      </trkpt>
      <trkpt lat="43.14422" lon="0.55674">
        <ele>522.2</ele>
        <time>2025-12-29T10:23:00Z</time>
      </trkpt>
      <trkpt lat="43.14422" lon="0.55681">
        <ele>522.2</ele>
        <time>2025-12-29T10:23:01Z</time>
      </trkpt>
      <trkpt lat="43.14423" lon="0.55687">
        <ele>522</ele>
        <time>2025-12-29T10:23:02Z</time>
      </trkpt>
      <trkpt lat="43.14424" lon="0.55694">
        <ele>522</ele>
        <time>2025-12-29T10:23:03Z</time>
      </trkpt>
      <trkpt lat="43.14425" lon="0.557">
        <ele>522</ele>
        <time>2025-12-29T10:23:04Z</time>
      </trkpt>
      <trkpt lat="43.14426" lon="0.55707">
        <ele>522</ele>
        <time>2025-12-29T10:23:05Z</time>
      </trkpt>
      <trkpt lat="43.14426" lon="0.55713">
        <ele>522.2</ele>
        <time>2025-12-29T10:23:06Z</time>
      </trkpt>
      <trkpt lat="43.14427" lon="0.5572">
        <ele>522.2</ele>
        <time>2025-12-29T10:23:07Z</time>
      </trkpt>
      <trkpt lat="43.14428" lon="0.55726">
        <ele>522.2</ele>
        <time>2025-12-29T10:23:08Z</time>
      </trkpt>
      <trkpt lat="43.14429" lon="0.55733">
        <ele>521.2</ele>
        <time>2025-12-29T10:23:09Z</time>
      </trkpt>
      <trkpt lat="43.1443" lon="0.5574">
        <ele>521.2</ele>
        <time>2025-12-29T10:23:10Z</time>
      </trkpt>
      <trkpt lat="43.14432" lon="0.55747">
        <ele>521.2</ele>
        <time>2025-12-29T10:23:11Z</time>
      </trkpt>
      <trkpt lat="43.14433" lon="0.55754">
        <ele>521.2</ele>
        <time>2025-12-29T10:23:12Z</time>
      </trkpt>
      <trkpt lat="43.14435" lon="0.55761">
        <ele>520.2</ele>
        <time>2025-12-29T10:23:13Z</time>
      </trkpt>
      <trkpt lat="43.14437" lon="0.55768">
        <ele>520</ele>
        <time>2025-12-29T10:23:14Z</time>
      </trkpt>
      <trkpt lat="43.14439" lon="0.55775">
        <ele>520</ele>
        <time>2025-12-29T10:23:15Z</time>
      </trkpt>
      <trkpt lat="43.14442" lon="0.55784">
        <ele>520</ele>
        <time>2025-12-29T10:23:16Z</time>
      </trkpt>
      <trkpt lat="43.14444" lon="0.55792">
        <ele>520</ele>
        <time>2025-12-29T10:23:17Z</time>
      </trkpt>
      <trkpt lat="43.14447" lon="0.55801">
        <ele>520</ele>
        <time>2025-12-29T10:23:18Z</time>
      </trkpt>
      <trkpt lat="43.1445" lon="0.5581">
        <ele>520</ele>
        <time>2025-12-29T10:23:19Z</time>
      </trkpt>
      <trkpt lat="43.14453" lon="0.55819">
        <ele>520</ele>
        <time>2025-12-29T10:23:20Z</time>
      </trkpt>
      <trkpt lat="43.14457" lon="0.55828">
        <ele>519</ele>
        <time>2025-12-29T10:23:21Z</time>
      </trkpt>
      <trkpt lat="43.1446" lon="0.55837">
        <ele>515.6</ele>
        <time>2025-12-29T10:23:22Z</time>
      </trkpt>
      <trkpt lat="43.14464" lon="0.55846">
        <ele>515.6</ele>
        <time>2025-12-29T10:23:23Z</time>
      </trkpt>
      <trkpt lat="43.14468" lon="0.55854">
        <ele>515.6</ele>
        <time>2025-12-29T10:23:24Z</time>
      </trkpt>
      <trkpt lat="43.14472" lon="0.55864">
        <ele>515.6</ele>
        <time>2025-12-29T10:23:25Z</time>
      </trkpt>
      <trkpt lat="43.14476" lon="0.55873">
        <ele>514.4</ele>
        <time>2025-12-29T10:23:26Z</time>
      </trkpt>
      <trkpt lat="43.1448" lon="0.55882">
        <ele>514.4</ele>
        <time>2025-12-29T10:23:27Z</time>
      </trkpt>
      <trkpt lat="43.14484" lon="0.5589">
        <ele>514.4</ele>
        <time>2025-12-29T10:23:28Z</time>
      </trkpt>
      <trkpt lat="43.14489" lon="0.55899">
        <ele>513.4</ele>
        <time>2025-12-29T10:23:29Z</time>
      </trkpt>
      <trkpt lat="43.14493" lon="0.55907">
        <ele>512</ele>
        <time>2025-12-29T10:23:30Z</time>
      </trkpt>
      <trkpt lat="43.14498" lon="0.55916">
        <ele>512</ele>
        <time>2025-12-29T10:23:31Z</time>
      </trkpt>
      <trkpt lat="43.14503" lon="0.55923">
        <ele>512</ele>
        <time>2025-12-29T10:23:32Z</time>
      </trkpt>
      <trkpt lat="43.14508" lon="0.55931">
        <ele>511</ele>
        <time>2025-12-29T10:23:33Z</time>
      </trkpt>
      <trkpt lat="43.14513" lon="0.55939">
        <ele>509.4</ele>
        <time>2025-12-29T10:23:34Z</time>
      </trkpt>
      <trkpt lat="43.14518" lon="0.55947">
        <ele>509.4</ele>
        <time>2025-12-29T10:23:35Z</time>
      </trkpt>
      <trkpt lat="43.14524" lon="0.55955">
        <ele>509.4</ele>
        <time>2025-12-29T10:23:36Z</time>
      </trkpt>
      <trkpt lat="43.14529" lon="0.55962">
        <ele>509.4</ele>
        <time>2025-12-29T10:23:37Z</time>
      </trkpt>
      <trkpt lat="43.14535" lon="0.5597">
        <ele>508.2</ele>
        <time>2025-12-29T10:23:38Z</time>
      </trkpt>
      <trkpt lat="43.14541" lon="0.55977">
        <ele>508.2</ele>
        <time>2025-12-29T10:23:39Z</time>
      </trkpt>
      <trkpt lat="43.14546" lon="0.55984">
        <ele>508.2</ele>
        <time>2025-12-29T10:23:40Z</time>
      </trkpt>
      <trkpt lat="43.14552" lon="0.55992">
        <ele>508.2</ele>
        <time>2025-12-29T10:23:41Z</time>
      </trkpt>
      <trkpt lat="43.14558" lon="0.55998">
        <ele>507.8</ele>
        <time>2025-12-29T10:23:42Z</time>
      </trkpt>
      <trkpt lat="43.14563" lon="0.56005">
        <ele>507.8</ele>
        <time>2025-12-29T10:23:43Z</time>
      </trkpt>
      <trkpt lat="43.14569" lon="0.5601">
        <ele>507.8</ele>
        <time>2025-12-29T10:23:44Z</time>
      </trkpt>
      <trkpt lat="43.14575" lon="0.56016">
        <ele>507.8</ele>
        <time>2025-12-29T10:23:45Z</time>
      </trkpt>
      <trkpt lat="43.1458" lon="0.56021">
        <ele>506.8</ele>
        <time>2025-12-29T10:23:46Z</time>
      </trkpt>
      <trkpt lat="43.14586" lon="0.56027">
        <ele>506.8</ele>
        <time>2025-12-29T10:23:47Z</time>
      </trkpt>
      <trkpt lat="43.14591" lon="0.56032">
        <ele>506.8</ele>
        <time>2025-12-29T10:23:48Z</time>
      </trkpt>
      <trkpt lat="43.14595" lon="0.56037">
        <ele>506.8</ele>
        <time>2025-12-29T10:23:49Z</time>
      </trkpt>
      <trkpt lat="43.14599" lon="0.56042">
        <ele>507.4</ele>
        <time>2025-12-29T10:23:50Z</time>
      </trkpt>
      <trkpt lat="43.14603" lon="0.56045">
        <ele>507.4</ele>
        <time>2025-12-29T10:23:51Z</time>
      </trkpt>
      <trkpt lat="43.14607" lon="0.5605">
        <ele>507.4</ele>
        <time>2025-12-29T10:23:52Z</time>
      </trkpt>
      <trkpt lat="43.14612" lon="0.56055">
        <ele>507.4</ele>
        <time>2025-12-29T10:23:53Z</time>
      </trkpt>
      <trkpt lat="43.14616" lon="0.5606">
        <ele>507.2</ele>
        <time>2025-12-29T10:23:54Z</time>
      </trkpt>
      <trkpt lat="43.1462" lon="0.56065">
        <ele>507.2</ele>
        <time>2025-12-29T10:23:55Z</time>
      </trkpt>
      <trkpt lat="43.14624" lon="0.5607">
        <ele>507.2</ele>
        <time>2025-12-29T10:23:56Z</time>
      </trkpt>
      <trkpt lat="43.14629" lon="0.56075">
        <ele>507.4</ele>
        <time>2025-12-29T10:23:57Z</time>
      </trkpt>
      <trkpt lat="43.14632" lon="0.5608">
        <ele>510.4</ele>
        <time>2025-12-29T10:23:58Z</time>
      </trkpt>
      <trkpt lat="43.14636" lon="0.56085">
        <ele>510.4</ele>
        <time>2025-12-29T10:23:59Z</time>
      </trkpt>
      <trkpt lat="43.14641" lon="0.5609">
        <ele>510.4</ele>
        <time>2025-12-29T10:24:00Z</time>
      </trkpt>
      <trkpt lat="43.14644" lon="0.56095">
        <ele>509.8</ele>
        <time>2025-12-29T10:24:01Z</time>
      </trkpt>
      <trkpt lat="43.14647" lon="0.56101">
        <ele>510.4</ele>
        <time>2025-12-29T10:24:02Z</time>
      </trkpt>
      <trkpt lat="43.1465" lon="0.56106">
        <ele>510.4</ele>
        <time>2025-12-29T10:24:03Z</time>
      </trkpt>
      <trkpt lat="43.14654" lon="0.5611">
        <ele>510.4</ele>
        <time>2025-12-29T10:24:04Z</time>
      </trkpt>
      <trkpt lat="43.14657" lon="0.56114">
        <ele>511.4</ele>
        <time>2025-12-29T10:24:05Z</time>
      </trkpt>
      <trkpt lat="43.1466" lon="0.56118">
        <ele>511.4</ele>
        <time>2025-12-29T10:24:06Z</time>
      </trkpt>
      <trkpt lat="43.14663" lon="0.56122">
        <ele>511.4</ele>
        <time>2025-12-29T10:24:07Z</time>
      </trkpt>
      <trkpt lat="43.14665" lon="0.56126">
        <ele>511.4</ele>
        <time>2025-12-29T10:24:08Z</time>
      </trkpt>
      <trkpt lat="43.14668" lon="0.56131">
        <ele>512.2</ele>
        <time>2025-12-29T10:24:09Z</time>
      </trkpt>
      <trkpt lat="43.14671" lon="0.56135">
        <ele>513.4</ele>
        <time>2025-12-29T10:24:10Z</time>
      </trkpt>
      <trkpt lat="43.14674" lon="0.5614">
        <ele>513.4</ele>
        <time>2025-12-29T10:24:11Z</time>
      </trkpt>
      <trkpt lat="43.14677" lon="0.56144">
        <ele>513.4</ele>
        <time>2025-12-29T10:24:12Z</time>
      </trkpt>
      <trkpt lat="43.1468" lon="0.56149">
        <ele>513.4</ele>
        <time>2025-12-29T10:24:13Z</time>
      </trkpt>
      <trkpt lat="43.14682" lon="0.56153">
        <ele>513.6</ele>
        <time>2025-12-29T10:24:14Z</time>
      </trkpt>
      <trkpt lat="43.14685" lon="0.56158">
        <ele>513.6</ele>
        <time>2025-12-29T10:24:15Z</time>
      </trkpt>
      <trkpt lat="43.14688" lon="0.56162">
        <ele>513.6</ele>
        <time>2025-12-29T10:24:16Z</time>
      </trkpt>
      <trkpt lat="43.14691" lon="0.56167">
        <ele>513.6</ele>
        <time>2025-12-29T10:24:17Z</time>
      </trkpt>
      <trkpt lat="43.14694" lon="0.56172">
        <ele>514.6</ele>
        <time>2025-12-29T10:24:18Z</time>
      </trkpt>
      <trkpt lat="43.14697" lon="0.56177">
        <ele>514.6</ele>
        <time>2025-12-29T10:24:19Z</time>
      </trkpt>
      <trkpt lat="43.14701" lon="0.56181">
        <ele>514.6</ele>
        <time>2025-12-29T10:24:20Z</time>
      </trkpt>
      <trkpt lat="43.14704" lon="0.56186">
        <ele>514.6</ele>
        <time>2025-12-29T10:24:21Z</time>
      </trkpt>
      <trkpt lat="43.14707" lon="0.5619">
        <ele>515</ele>
        <time>2025-12-29T10:24:22Z</time>
      </trkpt>
      <trkpt lat="43.14711" lon="0.56195">
        <ele>515</ele>
        <time>2025-12-29T10:24:23Z</time>
      </trkpt>
      <trkpt lat="43.14714" lon="0.56199">
        <ele>515</ele>
        <time>2025-12-29T10:24:24Z</time>
      </trkpt>
      <trkpt lat="43.14717" lon="0.56203">
        <ele>515</ele>
        <time>2025-12-29T10:24:25Z</time>
      </trkpt>
      <trkpt lat="43.1472" lon="0.56208">
        <ele>515.2</ele>
        <time>2025-12-29T10:24:26Z</time>
      </trkpt>
      <trkpt lat="43.14724" lon="0.56212">
        <ele>515.2</ele>
        <time>2025-12-29T10:24:27Z</time>
      </trkpt>
      <trkpt lat="43.14727" lon="0.56217">
        <ele>515.2</ele>
        <time>2025-12-29T10:24:28Z</time>
      </trkpt>
      <trkpt lat="43.1473" lon="0.56221">
        <ele>515.2</ele>
        <time>2025-12-29T10:24:29Z</time>
      </trkpt>
      <trkpt lat="43.14734" lon="0.56225">
        <ele>515.4</ele>
        <time>2025-12-29T10:24:30Z</time>
      </trkpt>
      <trkpt lat="43.14738" lon="0.56229">
        <ele>515.4</ele>
        <time>2025-12-29T10:24:31Z</time>
      </trkpt>
      <trkpt lat="43.14742" lon="0.56233">
        <ele>515.4</ele>
        <time>2025-12-29T10:24:32Z</time>
      </trkpt>
      <trkpt lat="43.14746" lon="0.56236">
        <ele>515.4</ele>
        <time>2025-12-29T10:24:33Z</time>
      </trkpt>
      <trkpt lat="43.14749" lon="0.5624">
        <ele>516.8</ele>
        <time>2025-12-29T10:24:34Z</time>
      </trkpt>
      <trkpt lat="43.14753" lon="0.56244">
        <ele>516.8</ele>
        <time>2025-12-29T10:24:35Z</time>
      </trkpt>
      <trkpt lat="43.14757" lon="0.56247">
        <ele>516.8</ele>
        <time>2025-12-29T10:24:36Z</time>
      </trkpt>
      <trkpt lat="43.14761" lon="0.56251">
        <ele>516.8</ele>
        <time>2025-12-29T10:24:37Z</time>
      </trkpt>
      <trkpt lat="43.14765" lon="0.56254">
        <ele>516.2</ele>
        <time>2025-12-29T10:24:38Z</time>
      </trkpt>
      <trkpt lat="43.14768" lon="0.56258">
        <ele>516.2</ele>
        <time>2025-12-29T10:24:39Z</time>
      </trkpt>
      <trkpt lat="43.14772" lon="0.56261">
        <ele>516.2</ele>
        <time>2025-12-29T10:24:40Z</time>
      </trkpt>
      <trkpt lat="43.14776" lon="0.56264">
        <ele>516.2</ele>
        <time>2025-12-29T10:24:41Z</time>
      </trkpt>
      <trkpt lat="43.14779" lon="0.56268">
        <ele>516.4</ele>
        <time>2025-12-29T10:24:42Z</time>
      </trkpt>
      <trkpt lat="43.14783" lon="0.56271">
        <ele>516.4</ele>
        <time>2025-12-29T10:24:43Z</time>
      </trkpt>
      <trkpt lat="43.14787" lon="0.56275">
        <ele>516.4</ele>
        <time>2025-12-29T10:24:44Z</time>
      </trkpt>
      <trkpt lat="43.14791" lon="0.56279">
        <ele>516.4</ele>
        <time>2025-12-29T10:24:45Z</time>
      </trkpt>
      <trkpt lat="43.14795" lon="0.56282">
        <ele>516</ele>
        <time>2025-12-29T10:24:46Z</time>
      </trkpt>
      <trkpt lat="43.14799" lon="0.56286">
        <ele>516</ele>
        <time>2025-12-29T10:24:47Z</time>
      </trkpt>
      <trkpt lat="43.14803" lon="0.56289">
        <ele>516</ele>
        <time>2025-12-29T10:24:48Z</time>
      </trkpt>
      <trkpt lat="43.14807" lon="0.56293">
        <ele>515</ele>
        <time>2025-12-29T10:24:49Z</time>
      </trkpt>
      <trkpt lat="43.14811" lon="0.56297">
        <ele>515</ele>
        <time>2025-12-29T10:24:50Z</time>
      </trkpt>
      <trkpt lat="43.14816" lon="0.56301">
        <ele>515</ele>
        <time>2025-12-29T10:24:51Z</time>
      </trkpt>
      <trkpt lat="43.1482" lon="0.56306">
        <ele>515</ele>
        <time>2025-12-29T10:24:52Z</time>
      </trkpt>
      <trkpt lat="43.14825" lon="0.5631">
        <ele>515</ele>
        <time>2025-12-29T10:24:53Z</time>
      </trkpt>
      <trkpt lat="43.1483" lon="0.56315">
        <ele>513.4</ele>
        <time>2025-12-29T10:24:54Z</time>
      </trkpt>
      <trkpt lat="43.14835" lon="0.56319">
        <ele>513.4</ele>
        <time>2025-12-29T10:24:55Z</time>
      </trkpt>
      <trkpt lat="43.14841" lon="0.56324">
        <ele>513.4</ele>
        <time>2025-12-29T10:24:56Z</time>
      </trkpt>
      <trkpt lat="43.14846" lon="0.56329">
        <ele>513.4</ele>
        <time>2025-12-29T10:24:57Z</time>
      </trkpt>
      <trkpt lat="43.14851" lon="0.56333">
        <ele>512.4</ele>
        <time>2025-12-29T10:24:58Z</time>
      </trkpt>
      <trkpt lat="43.14856" lon="0.56338">
        <ele>512.4</ele>
        <time>2025-12-29T10:24:59Z</time>
      </trkpt>
      <trkpt lat="43.14862" lon="0.56343">
        <ele>512.4</ele>
        <time>2025-12-29T10:25:00Z</time>
      </trkpt>
      <trkpt lat="43.14867" lon="0.56348">
        <ele>512.4</ele>
        <time>2025-12-29T10:25:01Z</time>
      </trkpt>
      <trkpt lat="43.14872" lon="0.56353">
        <ele>512.4</ele>
        <time>2025-12-29T10:25:02Z</time>
      </trkpt>
      <trkpt lat="43.14876" lon="0.56359">
        <ele>512.4</ele>
        <time>2025-12-29T10:25:03Z</time>
      </trkpt>
      <trkpt lat="43.1488" lon="0.56365">
        <ele>512.4</ele>
        <time>2025-12-29T10:25:04Z</time>
      </trkpt>
      <trkpt lat="43.14884" lon="0.56371">
        <ele>512.2</ele>
        <time>2025-12-29T10:25:05Z</time>
      </trkpt>
      <trkpt lat="43.14887" lon="0.56377">
        <ele>511.4</ele>
        <time>2025-12-29T10:25:06Z</time>
      </trkpt>
      <trkpt lat="43.1489" lon="0.56384">
        <ele>511.4</ele>
        <time>2025-12-29T10:25:07Z</time>
      </trkpt>
      <trkpt lat="43.14892" lon="0.5639">
        <ele>511.4</ele>
        <time>2025-12-29T10:25:08Z</time>
      </trkpt>
      <trkpt lat="43.14894" lon="0.56396">
        <ele>512.4</ele>
        <time>2025-12-29T10:25:09Z</time>
      </trkpt>
      <trkpt lat="43.14896" lon="0.56402">
        <ele>512.6</ele>
        <time>2025-12-29T10:25:10Z</time>
      </trkpt>
      <trkpt lat="43.14899" lon="0.56408">
        <ele>512.6</ele>
        <time>2025-12-29T10:25:11Z</time>
      </trkpt>
      <trkpt lat="43.14901" lon="0.56414">
        <ele>512.6</ele>
        <time>2025-12-29T10:25:12Z</time>
      </trkpt>
      <trkpt lat="43.14903" lon="0.56421">
        <ele>512.6</ele>
        <time>2025-12-29T10:25:13Z</time>
      </trkpt>
      <trkpt lat="43.14905" lon="0.56427">
        <ele>512.6</ele>
        <time>2025-12-29T10:25:14Z</time>
      </trkpt>
      <trkpt lat="43.14907" lon="0.56433">
        <ele>512.6</ele>
        <time>2025-12-29T10:25:15Z</time>
      </trkpt>
      <trkpt lat="43.14909" lon="0.56439">
        <ele>512.6</ele>
        <time>2025-12-29T10:25:16Z</time>
      </trkpt>
      <trkpt lat="43.14911" lon="0.56445">
        <ele>513.4</ele>
        <time>2025-12-29T10:25:17Z</time>
      </trkpt>
      <trkpt lat="43.14913" lon="0.56451">
        <ele>512.6</ele>
        <time>2025-12-29T10:25:18Z</time>
      </trkpt>
      <trkpt lat="43.14915" lon="0.56457">
        <ele>512.6</ele>
        <time>2025-12-29T10:25:19Z</time>
      </trkpt>
      <trkpt lat="43.14917" lon="0.56463">
        <ele>512.6</ele>
        <time>2025-12-29T10:25:20Z</time>
      </trkpt>
      <trkpt lat="43.14919" lon="0.56469">
        <ele>513.4</ele>
        <time>2025-12-29T10:25:21Z</time>
      </trkpt>
      <trkpt lat="43.1492" lon="0.56475">
        <ele>513</ele>
        <time>2025-12-29T10:25:22Z</time>
      </trkpt>
      <trkpt lat="43.14922" lon="0.56481">
        <ele>513</ele>
        <time>2025-12-29T10:25:23Z</time>
      </trkpt>
      <trkpt lat="43.14924" lon="0.56487">
        <ele>513</ele>
        <time>2025-12-29T10:25:24Z</time>
      </trkpt>
      <trkpt lat="43.14926" lon="0.56493">
        <ele>513</ele>
        <time>2025-12-29T10:25:25Z</time>
      </trkpt>
      <trkpt lat="43.14928" lon="0.56499">
        <ele>513.2</ele>
        <time>2025-12-29T10:25:26Z</time>
      </trkpt>
      <trkpt lat="43.1493" lon="0.56505">
        <ele>513.2</ele>
        <time>2025-12-29T10:25:27Z</time>
      </trkpt>
      <trkpt lat="43.14932" lon="0.56512">
        <ele>513.2</ele>
        <time>2025-12-29T10:25:28Z</time>
      </trkpt>
      <trkpt lat="43.14934" lon="0.56518">
        <ele>513.2</ele>
        <time>2025-12-29T10:25:29Z</time>
      </trkpt>
      <trkpt lat="43.14935" lon="0.56523">
        <ele>514.2</ele>
        <time>2025-12-29T10:25:30Z</time>
      </trkpt>
      <trkpt lat="43.14937" lon="0.56529">
        <ele>514.2</ele>
        <time>2025-12-29T10:25:31Z</time>
      </trkpt>
      <trkpt lat="43.14939" lon="0.56535">
        <ele>514.2</ele>
        <time>2025-12-29T10:25:32Z</time>
      </trkpt>
      <trkpt lat="43.14941" lon="0.56541">
        <ele>513.6</ele>
        <time>2025-12-29T10:25:33Z</time>
      </trkpt>
      <trkpt lat="43.14943" lon="0.56546">
        <ele>513.6</ele>
        <time>2025-12-29T10:25:34Z</time>
      </trkpt>
      <trkpt lat="43.14945" lon="0.56552">
        <ele>513.6</ele>
        <time>2025-12-29T10:25:35Z</time>
      </trkpt>
      <trkpt lat="43.14947" lon="0.56558">
        <ele>513.6</ele>
        <time>2025-12-29T10:25:36Z</time>
      </trkpt>
      <trkpt lat="43.14949" lon="0.56564">
        <ele>513.6</ele>
        <time>2025-12-29T10:25:37Z</time>
      </trkpt>
      <trkpt lat="43.1495" lon="0.56569">
        <ele>514.6</ele>
        <time>2025-12-29T10:25:38Z</time>
      </trkpt>
      <trkpt lat="43.14952" lon="0.56575">
        <ele>514.6</ele>
        <time>2025-12-29T10:25:39Z</time>
      </trkpt>
      <trkpt lat="43.14953" lon="0.5658">
        <ele>514.6</ele>
        <time>2025-12-29T10:25:40Z</time>
      </trkpt>
      <trkpt lat="43.14955" lon="0.56585">
        <ele>514.6</ele>
        <time>2025-12-29T10:25:41Z</time>
      </trkpt>
      <trkpt lat="43.14957" lon="0.56591">
        <ele>514.6</ele>
        <time>2025-12-29T10:25:42Z</time>
      </trkpt>
      <trkpt lat="43.14959" lon="0.56596">
        <ele>514.6</ele>
        <time>2025-12-29T10:25:43Z</time>
      </trkpt>
      <trkpt lat="43.14961" lon="0.56602">
        <ele>514.6</ele>
        <time>2025-12-29T10:25:44Z</time>
      </trkpt>
      <trkpt lat="43.14962" lon="0.56607">
        <ele>514.6</ele>
        <time>2025-12-29T10:25:45Z</time>
      </trkpt>
      <trkpt lat="43.14963" lon="0.56613">
        <ele>514.8</ele>
        <time>2025-12-29T10:25:46Z</time>
      </trkpt>
      <trkpt lat="43.14964" lon="0.56619">
        <ele>514.8</ele>
        <time>2025-12-29T10:25:47Z</time>
      </trkpt>
      <trkpt lat="43.14966" lon="0.56625">
        <ele>514.8</ele>
        <time>2025-12-29T10:25:48Z</time>
      </trkpt>
      <trkpt lat="43.14968" lon="0.5663">
        <ele>514.8</ele>
        <time>2025-12-29T10:25:49Z</time>
      </trkpt>
      <trkpt lat="43.1497" lon="0.56636">
        <ele>514.6</ele>
        <time>2025-12-29T10:25:50Z</time>
      </trkpt>
      <trkpt lat="43.14971" lon="0.56642">
        <ele>514.6</ele>
        <time>2025-12-29T10:25:51Z</time>
      </trkpt>
      <trkpt lat="43.14973" lon="0.56648">
        <ele>514.6</ele>
        <time>2025-12-29T10:25:52Z</time>
      </trkpt>
      <trkpt lat="43.14974" lon="0.56654">
        <ele>513.6</ele>
        <time>2025-12-29T10:25:53Z</time>
      </trkpt>
      <trkpt lat="43.14975" lon="0.5666">
        <ele>514.4</ele>
        <time>2025-12-29T10:25:54Z</time>
      </trkpt>
      <trkpt lat="43.14976" lon="0.56665">
        <ele>514.4</ele>
        <time>2025-12-29T10:25:55Z</time>
      </trkpt>
      <trkpt lat="43.14978" lon="0.56671">
        <ele>514.4</ele>
        <time>2025-12-29T10:25:56Z</time>
      </trkpt>
      <trkpt lat="43.14979" lon="0.56677">
        <ele>513.4</ele>
        <time>2025-12-29T10:25:57Z</time>
      </trkpt>
      <trkpt lat="43.14981" lon="0.56683">
        <ele>513.6</ele>
        <time>2025-12-29T10:25:58Z</time>
      </trkpt>
      <trkpt lat="43.14983" lon="0.5669">
        <ele>513.6</ele>
        <time>2025-12-29T10:25:59Z</time>
      </trkpt>
      <trkpt lat="43.14986" lon="0.56696">
        <ele>513.6</ele>
        <time>2025-12-29T10:26:00Z</time>
      </trkpt>
      <trkpt lat="43.14988" lon="0.56703">
        <ele>513.6</ele>
        <time>2025-12-29T10:26:01Z</time>
      </trkpt>
      <trkpt lat="43.1499" lon="0.56709">
        <ele>513.6</ele>
        <time>2025-12-29T10:26:02Z</time>
      </trkpt>
      <trkpt lat="43.14992" lon="0.56716">
        <ele>513.6</ele>
        <time>2025-12-29T10:26:03Z</time>
      </trkpt>
      <trkpt lat="43.14994" lon="0.56723">
        <ele>513.6</ele>
        <time>2025-12-29T10:26:04Z</time>
      </trkpt>
      <trkpt lat="43.14996" lon="0.5673">
        <ele>512.8</ele>
        <time>2025-12-29T10:26:05Z</time>
      </trkpt>
      <trkpt lat="43.14998" lon="0.56736">
        <ele>513</ele>
        <time>2025-12-29T10:26:06Z</time>
      </trkpt>
      <trkpt lat="43.15" lon="0.56743">
        <ele>513</ele>
        <time>2025-12-29T10:26:07Z</time>
      </trkpt>
      <trkpt lat="43.15002" lon="0.5675">
        <ele>513</ele>
        <time>2025-12-29T10:26:08Z</time>
      </trkpt>
      <trkpt lat="43.15004" lon="0.56757">
        <ele>513</ele>
        <time>2025-12-29T10:26:09Z</time>
      </trkpt>
      <trkpt lat="43.15006" lon="0.56764">
        <ele>514</ele>
        <time>2025-12-29T10:26:10Z</time>
      </trkpt>
      <trkpt lat="43.15007" lon="0.56771">
        <ele>514</ele>
        <time>2025-12-29T10:26:11Z</time>
      </trkpt>
      <trkpt lat="43.15009" lon="0.56778">
        <ele>514</ele>
        <time>2025-12-29T10:26:12Z</time>
      </trkpt>
      <trkpt lat="43.15011" lon="0.56786">
        <ele>514</ele>
        <time>2025-12-29T10:26:13Z</time>
      </trkpt>
      <trkpt lat="43.15012" lon="0.56793">
        <ele>513.8</ele>
        <time>2025-12-29T10:26:14Z</time>
      </trkpt>
      <trkpt lat="43.15014" lon="0.568">
        <ele>513.8</ele>
        <time>2025-12-29T10:26:15Z</time>
      </trkpt>
      <trkpt lat="43.15015" lon="0.56807">
        <ele>513.8</ele>
        <time>2025-12-29T10:26:16Z</time>
      </trkpt>
      <trkpt lat="43.15017" lon="0.56813">
        <ele>513.2</ele>
        <time>2025-12-29T10:26:17Z</time>
      </trkpt>
      <trkpt lat="43.15019" lon="0.5682">
        <ele>513.4</ele>
        <time>2025-12-29T10:26:18Z</time>
      </trkpt>
      <trkpt lat="43.1502" lon="0.56826">
        <ele>513.4</ele>
        <time>2025-12-29T10:26:19Z</time>
      </trkpt>
      <trkpt lat="43.15022" lon="0.56833">
        <ele>513.4</ele>
        <time>2025-12-29T10:26:20Z</time>
      </trkpt>
      <trkpt lat="43.15024" lon="0.56839">
        <ele>514</ele>
        <time>2025-12-29T10:26:21Z</time>
      </trkpt>
      <trkpt lat="43.15025" lon="0.56845">
        <ele>513.6</ele>
        <time>2025-12-29T10:26:22Z</time>
      </trkpt>
      <trkpt lat="43.15027" lon="0.56851">
        <ele>513.6</ele>
        <time>2025-12-29T10:26:23Z</time>
      </trkpt>
      <trkpt lat="43.15028" lon="0.56857">
        <ele>513.6</ele>
        <time>2025-12-29T10:26:24Z</time>
      </trkpt>
      <trkpt lat="43.1503" lon="0.56864">
        <ele>514.2</ele>
        <time>2025-12-29T10:26:25Z</time>
      </trkpt>
      <trkpt lat="43.15032" lon="0.5687">
        <ele>514.2</ele>
        <time>2025-12-29T10:26:26Z</time>
      </trkpt>
      <trkpt lat="43.15033" lon="0.56876">
        <ele>514.2</ele>
        <time>2025-12-29T10:26:27Z</time>
      </trkpt>
      <trkpt lat="43.15035" lon="0.56882">
        <ele>514.2</ele>
        <time>2025-12-29T10:26:28Z</time>
      </trkpt>
      <trkpt lat="43.15036" lon="0.56888">
        <ele>514.2</ele>
        <time>2025-12-29T10:26:29Z</time>
      </trkpt>
      <trkpt lat="43.15038" lon="0.56894">
        <ele>514.8</ele>
        <time>2025-12-29T10:26:30Z</time>
      </trkpt>
      <trkpt lat="43.15039" lon="0.569">
        <ele>514.8</ele>
        <time>2025-12-29T10:26:31Z</time>
      </trkpt>
      <trkpt lat="43.15041" lon="0.56906">
        <ele>514.8</ele>
        <time>2025-12-29T10:26:32Z</time>
      </trkpt>
      <trkpt lat="43.15043" lon="0.56912">
        <ele>514.6</ele>
        <time>2025-12-29T10:26:33Z</time>
      </trkpt>
      <trkpt lat="43.15045" lon="0.56918">
        <ele>514.2</ele>
        <time>2025-12-29T10:26:34Z</time>
      </trkpt>
      <trkpt lat="43.15046" lon="0.56924">
        <ele>514.2</ele>
        <time>2025-12-29T10:26:35Z</time>
      </trkpt>
      <trkpt lat="43.15048" lon="0.5693">
        <ele>514.2</ele>
        <time>2025-12-29T10:26:36Z</time>
      </trkpt>
      <trkpt lat="43.15049" lon="0.56936">
        <ele>514.2</ele>
        <time>2025-12-29T10:26:37Z</time>
      </trkpt>
      <trkpt lat="43.15051" lon="0.56942">
        <ele>515</ele>
        <time>2025-12-29T10:26:38Z</time>
      </trkpt>
      <trkpt lat="43.15052" lon="0.56948">
        <ele>515</ele>
        <time>2025-12-29T10:26:39Z</time>
      </trkpt>
      <trkpt lat="43.15054" lon="0.56954">
        <ele>515</ele>
        <time>2025-12-29T10:26:40Z</time>
      </trkpt>
      <trkpt lat="43.15056" lon="0.5696">
        <ele>515</ele>
        <time>2025-12-29T10:26:41Z</time>
      </trkpt>
      <trkpt lat="43.15057" lon="0.56966">
        <ele>514.2</ele>
        <time>2025-12-29T10:26:42Z</time>
      </trkpt>
      <trkpt lat="43.15059" lon="0.56972">
        <ele>514.2</ele>
        <time>2025-12-29T10:26:43Z</time>
      </trkpt>
      <trkpt lat="43.15061" lon="0.56978">
        <ele>514.2</ele>
        <time>2025-12-29T10:26:44Z</time>
      </trkpt>
      <trkpt lat="43.15063" lon="0.56984">
        <ele>514.4</ele>
        <time>2025-12-29T10:26:45Z</time>
      </trkpt>
      <trkpt lat="43.15065" lon="0.56991">
        <ele>514.4</ele>
        <time>2025-12-29T10:26:46Z</time>
      </trkpt>
      <trkpt lat="43.15066" lon="0.56997">
        <ele>514.4</ele>
        <time>2025-12-29T10:26:47Z</time>
      </trkpt>
      <trkpt lat="43.15068" lon="0.57003">
        <ele>514.4</ele>
        <time>2025-12-29T10:26:48Z</time>
      </trkpt>
      <trkpt lat="43.1507" lon="0.5701">
        <ele>514.4</ele>
        <time>2025-12-29T10:26:49Z</time>
      </trkpt>
      <trkpt lat="43.15072" lon="0.57016">
        <ele>514</ele>
        <time>2025-12-29T10:26:50Z</time>
      </trkpt>
      <trkpt lat="43.15073" lon="0.57023">
        <ele>514</ele>
        <time>2025-12-29T10:26:51Z</time>
      </trkpt>
      <trkpt lat="43.15075" lon="0.57029">
        <ele>514</ele>
        <time>2025-12-29T10:26:52Z</time>
      </trkpt>
      <trkpt lat="43.15077" lon="0.57036">
        <ele>513.6</ele>
        <time>2025-12-29T10:26:53Z</time>
      </trkpt>
      <trkpt lat="43.15079" lon="0.57043">
        <ele>513.6</ele>
        <time>2025-12-29T10:26:54Z</time>
      </trkpt>
      <trkpt lat="43.1508" lon="0.57049">
        <ele>513.6</ele>
        <time>2025-12-29T10:26:55Z</time>
      </trkpt>
      <trkpt lat="43.15082" lon="0.57056">
        <ele>513.6</ele>
        <time>2025-12-29T10:26:56Z</time>
      </trkpt>
      <trkpt lat="43.15084" lon="0.57063">
        <ele>513.6</ele>
        <time>2025-12-29T10:26:57Z</time>
      </trkpt>
      <trkpt lat="43.15085" lon="0.57069">
        <ele>513.4</ele>
        <time>2025-12-29T10:26:58Z</time>
      </trkpt>
      <trkpt lat="43.15087" lon="0.57076">
        <ele>513.4</ele>
        <time>2025-12-29T10:26:59Z</time>
      </trkpt>
      <trkpt lat="43.15088" lon="0.57082">
        <ele>513.4</ele>
        <time>2025-12-29T10:27:00Z</time>
      </trkpt>
      <trkpt lat="43.15089" lon="0.57089">
        <ele>513.4</ele>
        <time>2025-12-29T10:27:01Z</time>
      </trkpt>
      <trkpt lat="43.1509" lon="0.57096">
        <ele>513.8</ele>
        <time>2025-12-29T10:27:02Z</time>
      </trkpt>
      <trkpt lat="43.15091" lon="0.57102">
        <ele>513.8</ele>
        <time>2025-12-29T10:27:03Z</time>
      </trkpt>
      <trkpt lat="43.15092" lon="0.57109">
        <ele>513.8</ele>
        <time>2025-12-29T10:27:04Z</time>
      </trkpt>
      <trkpt lat="43.15092" lon="0.57115">
        <ele>513.8</ele>
        <time>2025-12-29T10:27:05Z</time>
      </trkpt>
      <trkpt lat="43.15093" lon="0.57122">
        <ele>514.4</ele>
        <time>2025-12-29T10:27:06Z</time>
      </trkpt>
      <trkpt lat="43.15094" lon="0.57128">
        <ele>514.4</ele>
        <time>2025-12-29T10:27:07Z</time>
      </trkpt>
      <trkpt lat="43.15094" lon="0.57134">
        <ele>514.4</ele>
        <time>2025-12-29T10:27:08Z</time>
      </trkpt>
      <trkpt lat="43.15095" lon="0.57141">
        <ele>514.4</ele>
        <time>2025-12-29T10:27:09Z</time>
      </trkpt>
      <trkpt lat="43.15096" lon="0.57147">
        <ele>515.6</ele>
        <time>2025-12-29T10:27:10Z</time>
      </trkpt>
      <trkpt lat="43.15096" lon="0.57153">
        <ele>515.6</ele>
        <time>2025-12-29T10:27:11Z</time>
      </trkpt>
      <trkpt lat="43.15097" lon="0.5716">
        <ele>515.6</ele>
        <time>2025-12-29T10:27:12Z</time>
      </trkpt>
      <trkpt lat="43.15097" lon="0.57166">
        <ele>514.6</ele>
        <time>2025-12-29T10:27:13Z</time>
      </trkpt>
      <trkpt lat="43.15098" lon="0.57173">
        <ele>513.8</ele>
        <time>2025-12-29T10:27:14Z</time>
      </trkpt>
      <trkpt lat="43.15098" lon="0.57179">
        <ele>513.8</ele>
        <time>2025-12-29T10:27:15Z</time>
      </trkpt>
      <trkpt lat="43.15099" lon="0.57185">
        <ele>513.8</ele>
        <time>2025-12-29T10:27:16Z</time>
      </trkpt>
      <trkpt lat="43.15099" lon="0.57192">
        <ele>513.8</ele>
        <time>2025-12-29T10:27:17Z</time>
      </trkpt>
      <trkpt lat="43.151" lon="0.57198">
        <ele>514.8</ele>
        <time>2025-12-29T10:27:18Z</time>
      </trkpt>
      <trkpt lat="43.15101" lon="0.57204">
        <ele>514.8</ele>
        <time>2025-12-29T10:27:19Z</time>
      </trkpt>
      <trkpt lat="43.15101" lon="0.57211">
        <ele>514.8</ele>
        <time>2025-12-29T10:27:20Z</time>
      </trkpt>
      <trkpt lat="43.15102" lon="0.57217">
        <ele>514.6</ele>
        <time>2025-12-29T10:27:21Z</time>
      </trkpt>
      <trkpt lat="43.15103" lon="0.57223">
        <ele>514.8</ele>
        <time>2025-12-29T10:27:22Z</time>
      </trkpt>
      <trkpt lat="43.15103" lon="0.5723">
        <ele>514.8</ele>
        <time>2025-12-29T10:27:23Z</time>
      </trkpt>
      <trkpt lat="43.15104" lon="0.57236">
        <ele>514.8</ele>
        <time>2025-12-29T10:27:24Z</time>
      </trkpt>
      <trkpt lat="43.15105" lon="0.57242">
        <ele>514.8</ele>
        <time>2025-12-29T10:27:25Z</time>
      </trkpt>
      <trkpt lat="43.15106" lon="0.57248">
        <ele>514.8</ele>
        <time>2025-12-29T10:27:26Z</time>
      </trkpt>
      <trkpt lat="43.15108" lon="0.57255">
        <ele>514.8</ele>
        <time>2025-12-29T10:27:27Z</time>
      </trkpt>
      <trkpt lat="43.15109" lon="0.57261">
        <ele>514.8</ele>
        <time>2025-12-29T10:27:28Z</time>
      </trkpt>
      <trkpt lat="43.1511" lon="0.57267">
        <ele>514.8</ele>
        <time>2025-12-29T10:27:29Z</time>
      </trkpt>
      <trkpt lat="43.15112" lon="0.57273">
        <ele>515.8</ele>
        <time>2025-12-29T10:27:30Z</time>
      </trkpt>
      <trkpt lat="43.15113" lon="0.57279">
        <ele>515.8</ele>
        <time>2025-12-29T10:27:31Z</time>
      </trkpt>
      <trkpt lat="43.15115" lon="0.57285">
        <ele>515.8</ele>
        <time>2025-12-29T10:27:32Z</time>
      </trkpt>
      <trkpt lat="43.15116" lon="0.57291">
        <ele>514.8</ele>
        <time>2025-12-29T10:27:33Z</time>
      </trkpt>
      <trkpt lat="43.15118" lon="0.57297">
        <ele>515.4</ele>
        <time>2025-12-29T10:27:34Z</time>
      </trkpt>
      <trkpt lat="43.15119" lon="0.57303">
        <ele>515.4</ele>
        <time>2025-12-29T10:27:35Z</time>
      </trkpt>
      <trkpt lat="43.15121" lon="0.57309">
        <ele>515.4</ele>
        <time>2025-12-29T10:27:36Z</time>
      </trkpt>
      <trkpt lat="43.15122" lon="0.57315">
        <ele>515.4</ele>
        <time>2025-12-29T10:27:37Z</time>
      </trkpt>
      <trkpt lat="43.15124" lon="0.57321">
        <ele>515.4</ele>
        <time>2025-12-29T10:27:38Z</time>
      </trkpt>
      <trkpt lat="43.15126" lon="0.57327">
        <ele>515.4</ele>
        <time>2025-12-29T10:27:39Z</time>
      </trkpt>
      <trkpt lat="43.15127" lon="0.57333">
        <ele>515.4</ele>
        <time>2025-12-29T10:27:40Z</time>
      </trkpt>
      <trkpt lat="43.15129" lon="0.57339">
        <ele>515.4</ele>
        <time>2025-12-29T10:27:41Z</time>
      </trkpt>
      <trkpt lat="43.1513" lon="0.57345">
        <ele>516.2</ele>
        <time>2025-12-29T10:27:42Z</time>
      </trkpt>
      <trkpt lat="43.15132" lon="0.57351">
        <ele>516.2</ele>
        <time>2025-12-29T10:27:43Z</time>
      </trkpt>
      <trkpt lat="43.15134" lon="0.57357">
        <ele>516.2</ele>
        <time>2025-12-29T10:27:44Z</time>
      </trkpt>
      <trkpt lat="43.15136" lon="0.57363">
        <ele>515.6</ele>
        <time>2025-12-29T10:27:45Z</time>
      </trkpt>
      <trkpt lat="43.15138" lon="0.57369">
        <ele>515</ele>
        <time>2025-12-29T10:27:46Z</time>
      </trkpt>
      <trkpt lat="43.1514" lon="0.57375">
        <ele>515</ele>
        <time>2025-12-29T10:27:47Z</time>
      </trkpt>
      <trkpt lat="43.15142" lon="0.57382">
        <ele>515</ele>
        <time>2025-12-29T10:27:48Z</time>
      </trkpt>
      <trkpt lat="43.15144" lon="0.57388">
        <ele>515.4</ele>
        <time>2025-12-29T10:27:49Z</time>
      </trkpt>
      <trkpt lat="43.15146" lon="0.57394">
        <ele>515.4</ele>
        <time>2025-12-29T10:27:50Z</time>
      </trkpt>
      <trkpt lat="43.15148" lon="0.574">
        <ele>515.4</ele>
        <time>2025-12-29T10:27:51Z</time>
      </trkpt>
      <trkpt lat="43.1515" lon="0.57406">
        <ele>515.4</ele>
        <time>2025-12-29T10:27:52Z</time>
      </trkpt>
      <trkpt lat="43.15153" lon="0.57412">
        <ele>515.4</ele>
        <time>2025-12-29T10:27:53Z</time>
      </trkpt>
      <trkpt lat="43.15155" lon="0.57418">
        <ele>515.6</ele>
        <time>2025-12-29T10:27:54Z</time>
      </trkpt>
      <trkpt lat="43.15157" lon="0.57424">
        <ele>515.6</ele>
        <time>2025-12-29T10:27:55Z</time>
      </trkpt>
      <trkpt lat="43.15159" lon="0.5743">
        <ele>515.6</ele>
        <time>2025-12-29T10:27:56Z</time>
      </trkpt>
      <trkpt lat="43.15161" lon="0.57437">
        <ele>515.6</ele>
        <time>2025-12-29T10:27:57Z</time>
      </trkpt>
      <trkpt lat="43.15164" lon="0.57442">
        <ele>516.2</ele>
        <time>2025-12-29T10:27:58Z</time>
      </trkpt>
      <trkpt lat="43.15166" lon="0.57448">
        <ele>516.2</ele>
        <time>2025-12-29T10:27:59Z</time>
      </trkpt>
      <trkpt lat="43.15168" lon="0.57454">
        <ele>516.2</ele>
        <time>2025-12-29T10:28:00Z</time>
      </trkpt>
      <trkpt lat="43.1517" lon="0.57459">
        <ele>516.2</ele>
        <time>2025-12-29T10:28:01Z</time>
      </trkpt>
      <trkpt lat="43.15171" lon="0.57465">
        <ele>516.4</ele>
        <time>2025-12-29T10:28:02Z</time>
      </trkpt>
      <trkpt lat="43.15173" lon="0.5747">
        <ele>516.4</ele>
        <time>2025-12-29T10:28:03Z</time>
      </trkpt>
      <trkpt lat="43.15175" lon="0.57476">
        <ele>516.4</ele>
        <time>2025-12-29T10:28:04Z</time>
      </trkpt>
      <trkpt lat="43.15177" lon="0.57482">
        <ele>515.6</ele>
        <time>2025-12-29T10:28:05Z</time>
      </trkpt>
      <trkpt lat="43.15178" lon="0.57488">
        <ele>515.4</ele>
        <time>2025-12-29T10:28:06Z</time>
      </trkpt>
      <trkpt lat="43.1518" lon="0.57494">
        <ele>515.4</ele>
        <time>2025-12-29T10:28:07Z</time>
      </trkpt>
      <trkpt lat="43.15181" lon="0.575">
        <ele>515.4</ele>
        <time>2025-12-29T10:28:08Z</time>
      </trkpt>
      <trkpt lat="43.15182" lon="0.57505">
        <ele>515.2</ele>
        <time>2025-12-29T10:28:09Z</time>
      </trkpt>
      <trkpt lat="43.15183" lon="0.57509">
        <ele>515.4</ele>
        <time>2025-12-29T10:28:10Z</time>
      </trkpt>
      <trkpt lat="43.15184" lon="0.57512">
        <ele>515.4</ele>
        <time>2025-12-29T10:28:11Z</time>
      </trkpt>
      <trkpt lat="43.15184" lon="0.57515">
        <ele>515.4</ele>
        <time>2025-12-29T10:28:12Z</time>
      </trkpt>
      <trkpt lat="43.15185" lon="0.57518">
        <ele>515</ele>
        <time>2025-12-29T10:28:13Z</time>
      </trkpt>
      <trkpt lat="43.15186" lon="0.57521">
        <ele>514.8</ele>
        <time>2025-12-29T10:28:14Z</time>
      </trkpt>
      <trkpt lat="43.15187" lon="0.57524">
        <ele>514.8</ele>
        <time>2025-12-29T10:28:15Z</time>
      </trkpt>
      <trkpt lat="43.15187" lon="0.57527">
        <ele>514.8</ele>
        <time>2025-12-29T10:28:16Z</time>
      </trkpt>
      <trkpt lat="43.15189" lon="0.5753">
        <ele>514.6</ele>
        <time>2025-12-29T10:28:17Z</time>
      </trkpt>
      <trkpt lat="43.1519" lon="0.57534">
        <ele>514.4</ele>
        <time>2025-12-29T10:28:18Z</time>
      </trkpt>
      <trkpt lat="43.15191" lon="0.57538">
        <ele>514.4</ele>
        <time>2025-12-29T10:28:19Z</time>
      </trkpt>
      <trkpt lat="43.15192" lon="0.57542">
        <ele>514.4</ele>
        <time>2025-12-29T10:28:20Z</time>
      </trkpt>
      <trkpt lat="43.15192" lon="0.57546">
        <ele>514.4</ele>
        <time>2025-12-29T10:28:21Z</time>
      </trkpt>
      <trkpt lat="43.15192" lon="0.5755">
        <ele>514</ele>
        <time>2025-12-29T10:28:22Z</time>
      </trkpt>
      <trkpt lat="43.15193" lon="0.57554">
        <ele>514</ele>
        <time>2025-12-29T10:28:23Z</time>
      </trkpt>
      <trkpt lat="43.15194" lon="0.57558">
        <ele>514</ele>
        <time>2025-12-29T10:28:24Z</time>
      </trkpt>
      <trkpt lat="43.15195" lon="0.57561">
        <ele>515</ele>
        <time>2025-12-29T10:28:25Z</time>
      </trkpt>
      <trkpt lat="43.15196" lon="0.57565">
        <ele>515</ele>
        <time>2025-12-29T10:28:26Z</time>
      </trkpt>
      <trkpt lat="43.15197" lon="0.57569">
        <ele>515</ele>
        <time>2025-12-29T10:28:27Z</time>
      </trkpt>
      <trkpt lat="43.15198" lon="0.57574">
        <ele>515</ele>
        <time>2025-12-29T10:28:28Z</time>
      </trkpt>
      <trkpt lat="43.152" lon="0.5758">
        <ele>514.2</ele>
        <time>2025-12-29T10:28:29Z</time>
      </trkpt>
      <trkpt lat="43.15201" lon="0.57586">
        <ele>514.2</ele>
        <time>2025-12-29T10:28:30Z</time>
      </trkpt>
      <trkpt lat="43.15203" lon="0.57592">
        <ele>514.2</ele>
        <time>2025-12-29T10:28:31Z</time>
      </trkpt>
      <trkpt lat="43.15204" lon="0.57598">
        <ele>514.2</ele>
        <time>2025-12-29T10:28:32Z</time>
      </trkpt>
      <trkpt lat="43.15206" lon="0.57604">
        <ele>514.2</ele>
        <time>2025-12-29T10:28:33Z</time>
      </trkpt>
      <trkpt lat="43.15207" lon="0.57611">
        <ele>513.4</ele>
        <time>2025-12-29T10:28:34Z</time>
      </trkpt>
      <trkpt lat="43.15209" lon="0.57617">
        <ele>513.4</ele>
        <time>2025-12-29T10:28:35Z</time>
      </trkpt>
      <trkpt lat="43.1521" lon="0.57623">
        <ele>513.4</ele>
        <time>2025-12-29T10:28:36Z</time>
      </trkpt>
      <trkpt lat="43.15212" lon="0.5763">
        <ele>514.4</ele>
        <time>2025-12-29T10:28:37Z</time>
      </trkpt>
      <trkpt lat="43.15214" lon="0.57636">
        <ele>514</ele>
        <time>2025-12-29T10:28:38Z</time>
      </trkpt>
      <trkpt lat="43.15215" lon="0.57642">
        <ele>514</ele>
        <time>2025-12-29T10:28:39Z</time>
      </trkpt>
      <trkpt lat="43.15217" lon="0.57649">
        <ele>514</ele>
        <time>2025-12-29T10:28:40Z</time>
      </trkpt>
      <trkpt lat="43.15218" lon="0.57655">
        <ele>514.4</ele>
        <time>2025-12-29T10:28:41Z</time>
      </trkpt>
      <trkpt lat="43.1522" lon="0.57662">
        <ele>514.8</ele>
        <time>2025-12-29T10:28:42Z</time>
      </trkpt>
      <trkpt lat="43.15221" lon="0.57668">
        <ele>514.8</ele>
        <time>2025-12-29T10:28:43Z</time>
      </trkpt>
      <trkpt lat="43.15222" lon="0.57675">
        <ele>514.8</ele>
        <time>2025-12-29T10:28:44Z</time>
      </trkpt>
      <trkpt lat="43.15224" lon="0.57681">
        <ele>514.8</ele>
        <time>2025-12-29T10:28:45Z</time>
      </trkpt>
      <trkpt lat="43.15225" lon="0.57688">
        <ele>514.8</ele>
        <time>2025-12-29T10:28:46Z</time>
      </trkpt>
      <trkpt lat="43.15227" lon="0.57694">
        <ele>514.8</ele>
        <time>2025-12-29T10:28:47Z</time>
      </trkpt>
      <trkpt lat="43.15228" lon="0.577">
        <ele>514.8</ele>
        <time>2025-12-29T10:28:48Z</time>
      </trkpt>
      <trkpt lat="43.1523" lon="0.57706">
        <ele>514.8</ele>
        <time>2025-12-29T10:28:49Z</time>
      </trkpt>
      <trkpt lat="43.15231" lon="0.57713">
        <ele>515.2</ele>
        <time>2025-12-29T10:28:50Z</time>
      </trkpt>
      <trkpt lat="43.15232" lon="0.57719">
        <ele>515.2</ele>
        <time>2025-12-29T10:28:51Z</time>
      </trkpt>
      <trkpt lat="43.15234" lon="0.57725">
        <ele>515.2</ele>
        <time>2025-12-29T10:28:52Z</time>
      </trkpt>
      <trkpt lat="43.15235" lon="0.57731">
        <ele>514.4</ele>
        <time>2025-12-29T10:28:53Z</time>
      </trkpt>
      <trkpt lat="43.15237" lon="0.57737">
        <ele>514.8</ele>
        <time>2025-12-29T10:28:54Z</time>
      </trkpt>
      <trkpt lat="43.15238" lon="0.57744">
        <ele>514.8</ele>
        <time>2025-12-29T10:28:55Z</time>
      </trkpt>
      <trkpt lat="43.15239" lon="0.5775">
        <ele>514.8</ele>
        <time>2025-12-29T10:28:56Z</time>
      </trkpt>
      <trkpt lat="43.15241" lon="0.57756">
        <ele>514.8</ele>
        <time>2025-12-29T10:28:57Z</time>
      </trkpt>
      <trkpt lat="43.15242" lon="0.57762">
        <ele>515.4</ele>
        <time>2025-12-29T10:28:58Z</time>
      </trkpt>
      <trkpt lat="43.15243" lon="0.57769">
        <ele>515.4</ele>
        <time>2025-12-29T10:28:59Z</time>
      </trkpt>
      <trkpt lat="43.15245" lon="0.57775">
        <ele>515.4</ele>
        <time>2025-12-29T10:29:00Z</time>
      </trkpt>
      <trkpt lat="43.15246" lon="0.57781">
        <ele>515</ele>
        <time>2025-12-29T10:29:01Z</time>
      </trkpt>
      <trkpt lat="43.15247" lon="0.57788">
        <ele>515</ele>
        <time>2025-12-29T10:29:02Z</time>
      </trkpt>
      <trkpt lat="43.15249" lon="0.57794">
        <ele>515</ele>
        <time>2025-12-29T10:29:03Z</time>
      </trkpt>
      <trkpt lat="43.1525" lon="0.578">
        <ele>515</ele>
        <time>2025-12-29T10:29:04Z</time>
      </trkpt>
      <trkpt lat="43.15251" lon="0.57807">
        <ele>515</ele>
        <time>2025-12-29T10:29:05Z</time>
      </trkpt>
      <trkpt lat="43.15252" lon="0.57813">
        <ele>515.2</ele>
        <time>2025-12-29T10:29:06Z</time>
      </trkpt>
      <trkpt lat="43.15254" lon="0.57819">
        <ele>515.2</ele>
        <time>2025-12-29T10:29:07Z</time>
      </trkpt>
      <trkpt lat="43.15255" lon="0.57826">
        <ele>515.2</ele>
        <time>2025-12-29T10:29:08Z</time>
      </trkpt>
      <trkpt lat="43.15256" lon="0.57832">
        <ele>514.6</ele>
        <time>2025-12-29T10:29:09Z</time>
      </trkpt>
      <trkpt lat="43.15257" lon="0.57838">
        <ele>515</ele>
        <time>2025-12-29T10:29:10Z</time>
      </trkpt>
      <trkpt lat="43.15258" lon="0.57844">
        <ele>515</ele>
        <time>2025-12-29T10:29:11Z</time>
      </trkpt>
      <trkpt lat="43.15259" lon="0.5785">
        <ele>515</ele>
        <time>2025-12-29T10:29:12Z</time>
      </trkpt>
      <trkpt lat="43.1526" lon="0.57857">
        <ele>514.4</ele>
        <time>2025-12-29T10:29:13Z</time>
      </trkpt>
      <trkpt lat="43.15261" lon="0.57863">
        <ele>514.4</ele>
        <time>2025-12-29T10:29:14Z</time>
      </trkpt>
      <trkpt lat="43.15262" lon="0.57869">
        <ele>514.4</ele>
        <time>2025-12-29T10:29:15Z</time>
      </trkpt>
      <trkpt lat="43.15263" lon="0.57876">
        <ele>514.4</ele>
        <time>2025-12-29T10:29:16Z</time>
      </trkpt>
      <trkpt lat="43.15264" lon="0.57882">
        <ele>515.2</ele>
        <time>2025-12-29T10:29:17Z</time>
      </trkpt>
      <trkpt lat="43.15265" lon="0.57888">
        <ele>515.4</ele>
        <time>2025-12-29T10:29:18Z</time>
      </trkpt>
      <trkpt lat="43.15266" lon="0.57895">
        <ele>515.4</ele>
        <time>2025-12-29T10:29:19Z</time>
      </trkpt>
      <trkpt lat="43.15266" lon="0.57901">
        <ele>515.4</ele>
        <time>2025-12-29T10:29:20Z</time>
      </trkpt>
      <trkpt lat="43.15267" lon="0.57907">
        <ele>515.4</ele>
        <time>2025-12-29T10:29:21Z</time>
      </trkpt>
      <trkpt lat="43.15268" lon="0.57914">
        <ele>514.8</ele>
        <time>2025-12-29T10:29:22Z</time>
      </trkpt>
      <trkpt lat="43.15269" lon="0.5792">
        <ele>514.8</ele>
        <time>2025-12-29T10:29:23Z</time>
      </trkpt>
      <trkpt lat="43.1527" lon="0.57926">
        <ele>514.8</ele>
        <time>2025-12-29T10:29:24Z</time>
      </trkpt>
      <trkpt lat="43.15271" lon="0.57932">
        <ele>514.8</ele>
        <time>2025-12-29T10:29:25Z</time>
      </trkpt>
      <trkpt lat="43.15273" lon="0.57938">
        <ele>515</ele>
        <time>2025-12-29T10:29:26Z</time>
      </trkpt>
      <trkpt lat="43.15274" lon="0.57944">
        <ele>515</ele>
        <time>2025-12-29T10:29:27Z</time>
      </trkpt>
      <trkpt lat="43.15275" lon="0.5795">
        <ele>515</ele>
        <time>2025-12-29T10:29:28Z</time>
      </trkpt>
      <trkpt lat="43.15277" lon="0.57956">
        <ele>515</ele>
        <time>2025-12-29T10:29:29Z</time>
      </trkpt>
      <trkpt lat="43.15278" lon="0.57962">
        <ele>515.2</ele>
        <time>2025-12-29T10:29:30Z</time>
      </trkpt>
      <trkpt lat="43.1528" lon="0.57968">
        <ele>515.2</ele>
        <time>2025-12-29T10:29:31Z</time>
      </trkpt>
      <trkpt lat="43.15282" lon="0.57973">
        <ele>515.2</ele>
        <time>2025-12-29T10:29:32Z</time>
      </trkpt>
      <trkpt lat="43.15284" lon="0.57979">
        <ele>515.2</ele>
        <time>2025-12-29T10:29:33Z</time>
      </trkpt>
      <trkpt lat="43.15287" lon="0.57985">
        <ele>515.2</ele>
        <time>2025-12-29T10:29:34Z</time>
      </trkpt>
      <trkpt lat="43.1529" lon="0.57991">
        <ele>515.2</ele>
        <time>2025-12-29T10:29:35Z</time>
      </trkpt>
      <trkpt lat="43.15292" lon="0.57997">
        <ele>515.2</ele>
        <time>2025-12-29T10:29:36Z</time>
      </trkpt>
      <trkpt lat="43.15295" lon="0.58003">
        <ele>515</ele>
        <time>2025-12-29T10:29:37Z</time>
      </trkpt>
      <trkpt lat="43.15298" lon="0.58009">
        <ele>514.2</ele>
        <time>2025-12-29T10:29:38Z</time>
      </trkpt>
      <trkpt lat="43.15301" lon="0.58015">
        <ele>514.2</ele>
        <time>2025-12-29T10:29:39Z</time>
      </trkpt>
      <trkpt lat="43.15304" lon="0.58021">
        <ele>514.2</ele>
        <time>2025-12-29T10:29:40Z</time>
      </trkpt>
      <trkpt lat="43.15308" lon="0.58027">
        <ele>514.2</ele>
        <time>2025-12-29T10:29:41Z</time>
      </trkpt>
      <trkpt lat="43.15311" lon="0.58033">
        <ele>513.8</ele>
        <time>2025-12-29T10:29:42Z</time>
      </trkpt>
      <trkpt lat="43.15314" lon="0.58038">
        <ele>513.8</ele>
        <time>2025-12-29T10:29:43Z</time>
      </trkpt>
      <trkpt lat="43.15318" lon="0.58044">
        <ele>513.8</ele>
        <time>2025-12-29T10:29:44Z</time>
      </trkpt>
      <trkpt lat="43.15321" lon="0.5805">
        <ele>513.8</ele>
        <time>2025-12-29T10:29:45Z</time>
      </trkpt>
      <trkpt lat="43.15324" lon="0.58055">
        <ele>514.4</ele>
        <time>2025-12-29T10:29:46Z</time>
      </trkpt>
      <trkpt lat="43.15327" lon="0.58061">
        <ele>514.4</ele>
        <time>2025-12-29T10:29:47Z</time>
      </trkpt>
      <trkpt lat="43.1533" lon="0.58067">
        <ele>514.4</ele>
        <time>2025-12-29T10:29:48Z</time>
      </trkpt>
      <trkpt lat="43.15334" lon="0.58073">
        <ele>514.4</ele>
        <time>2025-12-29T10:29:49Z</time>
      </trkpt>
      <trkpt lat="43.15337" lon="0.58078">
        <ele>514</ele>
        <time>2025-12-29T10:29:50Z</time>
      </trkpt>
      <trkpt lat="43.1534" lon="0.58083">
        <ele>514</ele>
        <time>2025-12-29T10:29:51Z</time>
      </trkpt>
      <trkpt lat="43.15343" lon="0.58088">
        <ele>514</ele>
        <time>2025-12-29T10:29:52Z</time>
      </trkpt>
      <trkpt lat="43.15346" lon="0.58094">
        <ele>514</ele>
        <time>2025-12-29T10:29:53Z</time>
      </trkpt>
      <trkpt lat="43.15349" lon="0.58099">
        <ele>514.2</ele>
        <time>2025-12-29T10:29:54Z</time>
      </trkpt>
      <trkpt lat="43.15352" lon="0.58104">
        <ele>514.2</ele>
        <time>2025-12-29T10:29:55Z</time>
      </trkpt>
      <trkpt lat="43.15356" lon="0.58109">
        <ele>514.2</ele>
        <time>2025-12-29T10:29:56Z</time>
      </trkpt>
      <trkpt lat="43.15359" lon="0.58114">
        <ele>514.2</ele>
        <time>2025-12-29T10:29:57Z</time>
      </trkpt>
      <trkpt lat="43.15362" lon="0.58118">
        <ele>514.2</ele>
        <time>2025-12-29T10:29:58Z</time>
      </trkpt>
      <trkpt lat="43.15365" lon="0.58123">
        <ele>514.2</ele>
        <time>2025-12-29T10:29:59Z</time>
      </trkpt>
      <trkpt lat="43.15368" lon="0.58127">
        <ele>514.2</ele>
        <time>2025-12-29T10:30:00Z</time>
      </trkpt>
      <trkpt lat="43.15372" lon="0.58131">
        <ele>514.2</ele>
        <time>2025-12-29T10:30:01Z</time>
      </trkpt>
      <trkpt lat="43.15375" lon="0.58135">
        <ele>513.8</ele>
        <time>2025-12-29T10:30:02Z</time>
      </trkpt>
      <trkpt lat="43.15378" lon="0.58139">
        <ele>513.8</ele>
        <time>2025-12-29T10:30:03Z</time>
      </trkpt>
      <trkpt lat="43.15382" lon="0.58143">
        <ele>513.8</ele>
        <time>2025-12-29T10:30:04Z</time>
      </trkpt>
      <trkpt lat="43.15385" lon="0.58148">
        <ele>513.8</ele>
        <time>2025-12-29T10:30:05Z</time>
      </trkpt>
      <trkpt lat="43.15389" lon="0.58151">
        <ele>513.2</ele>
        <time>2025-12-29T10:30:06Z</time>
      </trkpt>
      <trkpt lat="43.15393" lon="0.58155">
        <ele>513.2</ele>
        <time>2025-12-29T10:30:07Z</time>
      </trkpt>
      <trkpt lat="43.15396" lon="0.58159">
        <ele>513.2</ele>
        <time>2025-12-29T10:30:08Z</time>
      </trkpt>
      <trkpt lat="43.154" lon="0.58163">
        <ele>513.2</ele>
        <time>2025-12-29T10:30:09Z</time>
      </trkpt>
      <trkpt lat="43.15403" lon="0.58167">
        <ele>513</ele>
        <time>2025-12-29T10:30:10Z</time>
      </trkpt>
      <trkpt lat="43.15407" lon="0.58171">
        <ele>513</ele>
        <time>2025-12-29T10:30:11Z</time>
      </trkpt>
      <trkpt lat="43.1541" lon="0.58175">
        <ele>513</ele>
        <time>2025-12-29T10:30:12Z</time>
      </trkpt>
      <trkpt lat="43.15414" lon="0.58179">
        <ele>512.2</ele>
        <time>2025-12-29T10:30:13Z</time>
      </trkpt>
      <trkpt lat="43.15418" lon="0.58184">
        <ele>511</ele>
        <time>2025-12-29T10:30:14Z</time>
      </trkpt>
      <trkpt lat="43.15422" lon="0.58189">
        <ele>511</ele>
        <time>2025-12-29T10:30:15Z</time>
      </trkpt>
      <trkpt lat="43.15427" lon="0.58195">
        <ele>511</ele>
        <time>2025-12-29T10:30:16Z</time>
      </trkpt>
      <trkpt lat="43.15432" lon="0.58201">
        <ele>510.6</ele>
        <time>2025-12-29T10:30:17Z</time>
      </trkpt>
      <trkpt lat="43.15437" lon="0.58207">
        <ele>508.8</ele>
        <time>2025-12-29T10:30:18Z</time>
      </trkpt>
      <trkpt lat="43.15442" lon="0.58212">
        <ele>508.8</ele>
        <time>2025-12-29T10:30:19Z</time>
      </trkpt>
      <trkpt lat="43.15447" lon="0.58218">
        <ele>508.8</ele>
        <time>2025-12-29T10:30:20Z</time>
      </trkpt>
      <trkpt lat="43.15452" lon="0.58223">
        <ele>507.8</ele>
        <time>2025-12-29T10:30:21Z</time>
      </trkpt>
      <trkpt lat="43.15457" lon="0.58228">
        <ele>505.8</ele>
        <time>2025-12-29T10:30:22Z</time>
      </trkpt>
      <trkpt lat="43.15462" lon="0.58234">
        <ele>505.8</ele>
        <time>2025-12-29T10:30:23Z</time>
      </trkpt>
      <trkpt lat="43.15467" lon="0.58238">
        <ele>505.8</ele>
        <time>2025-12-29T10:30:24Z</time>
      </trkpt>
      <trkpt lat="43.15473" lon="0.58243">
        <ele>505.8</ele>
        <time>2025-12-29T10:30:25Z</time>
      </trkpt>
      <trkpt lat="43.15478" lon="0.58248">
        <ele>504</ele>
        <time>2025-12-29T10:30:26Z</time>
      </trkpt>
      <trkpt lat="43.15485" lon="0.58253">
        <ele>504</ele>
        <time>2025-12-29T10:30:27Z</time>
      </trkpt>
      <trkpt lat="43.15491" lon="0.58258">
        <ele>504</ele>
        <time>2025-12-29T10:30:28Z</time>
      </trkpt>
      <trkpt lat="43.15497" lon="0.58262">
        <ele>504</ele>
        <time>2025-12-29T10:30:29Z</time>
      </trkpt>
      <trkpt lat="43.15504" lon="0.58267">
        <ele>502.8</ele>
        <time>2025-12-29T10:30:30Z</time>
      </trkpt>
      <trkpt lat="43.15511" lon="0.58271">
        <ele>502.8</ele>
        <time>2025-12-29T10:30:31Z</time>
      </trkpt>
      <trkpt lat="43.15518" lon="0.58275">
        <ele>502.8</ele>
        <time>2025-12-29T10:30:32Z</time>
      </trkpt>
      <trkpt lat="43.15524" lon="0.58279">
        <ele>501.8</ele>
        <time>2025-12-29T10:30:33Z</time>
      </trkpt>
      <trkpt lat="43.1553" lon="0.58282">
        <ele>501.6</ele>
        <time>2025-12-29T10:30:34Z</time>
      </trkpt>
      <trkpt lat="43.15537" lon="0.58285">
        <ele>501.6</ele>
        <time>2025-12-29T10:30:35Z</time>
      </trkpt>
      <trkpt lat="43.15543" lon="0.58289">
        <ele>501.6</ele>
        <time>2025-12-29T10:30:36Z</time>
      </trkpt>
      <trkpt lat="43.15548" lon="0.58291">
        <ele>501.6</ele>
        <time>2025-12-29T10:30:37Z</time>
      </trkpt>
      <trkpt lat="43.15553" lon="0.58294">
        <ele>501.4</ele>
        <time>2025-12-29T10:30:38Z</time>
      </trkpt>
      <trkpt lat="43.15559" lon="0.58297">
        <ele>501.4</ele>
        <time>2025-12-29T10:30:39Z</time>
      </trkpt>
      <trkpt lat="43.15565" lon="0.583">
        <ele>501.4</ele>
        <time>2025-12-29T10:30:40Z</time>
      </trkpt>
      <trkpt lat="43.15571" lon="0.58302">
        <ele>500.4</ele>
        <time>2025-12-29T10:30:41Z</time>
      </trkpt>
      <trkpt lat="43.15578" lon="0.58306">
        <ele>501.4</ele>
        <time>2025-12-29T10:30:42Z</time>
      </trkpt>
      <trkpt lat="43.15584" lon="0.58309">
        <ele>501.4</ele>
        <time>2025-12-29T10:30:43Z</time>
      </trkpt>
      <trkpt lat="43.15591" lon="0.58312">
        <ele>501.4</ele>
        <time>2025-12-29T10:30:44Z</time>
      </trkpt>
      <trkpt lat="43.15596" lon="0.58314">
        <ele>501</ele>
        <time>2025-12-29T10:30:45Z</time>
      </trkpt>
      <trkpt lat="43.15601" lon="0.58317">
        <ele>499.8</ele>
        <time>2025-12-29T10:30:46Z</time>
      </trkpt>
      <trkpt lat="43.15606" lon="0.58319">
        <ele>499.8</ele>
        <time>2025-12-29T10:30:47Z</time>
      </trkpt>
      <trkpt lat="43.15613" lon="0.58321">
        <ele>499.8</ele>
        <time>2025-12-29T10:30:48Z</time>
      </trkpt>
      <trkpt lat="43.15619" lon="0.58322">
        <ele>500.4</ele>
        <time>2025-12-29T10:30:49Z</time>
      </trkpt>
      <trkpt lat="43.15625" lon="0.58324">
        <ele>499.8</ele>
        <time>2025-12-29T10:30:50Z</time>
      </trkpt>
      <trkpt lat="43.15633" lon="0.58326">
        <ele>499.8</ele>
        <time>2025-12-29T10:30:51Z</time>
      </trkpt>
      <trkpt lat="43.1564" lon="0.58328">
        <ele>499.8</ele>
        <time>2025-12-29T10:30:52Z</time>
      </trkpt>
      <trkpt lat="43.15647" lon="0.5833">
        <ele>498.8</ele>
        <time>2025-12-29T10:30:53Z</time>
      </trkpt>
      <trkpt lat="43.15654" lon="0.58332">
        <ele>499.4</ele>
        <time>2025-12-29T10:30:54Z</time>
      </trkpt>
      <trkpt lat="43.15661" lon="0.58334">
        <ele>499.4</ele>
        <time>2025-12-29T10:30:55Z</time>
      </trkpt>
      <trkpt lat="43.15668" lon="0.58336">
        <ele>499.4</ele>
        <time>2025-12-29T10:30:56Z</time>
      </trkpt>
      <trkpt lat="43.15675" lon="0.58338">
        <ele>498.6</ele>
        <time>2025-12-29T10:30:57Z</time>
      </trkpt>
      <trkpt lat="43.15681" lon="0.58339">
        <ele>498.6</ele>
        <time>2025-12-29T10:30:58Z</time>
      </trkpt>
      <trkpt lat="43.15687" lon="0.58341">
        <ele>498.6</ele>
        <time>2025-12-29T10:30:59Z</time>
      </trkpt>
      <trkpt lat="43.15694" lon="0.58343">
        <ele>498.6</ele>
        <time>2025-12-29T10:31:00Z</time>
      </trkpt>
      <trkpt lat="43.157" lon="0.58345">
        <ele>498.6</ele>
        <time>2025-12-29T10:31:01Z</time>
      </trkpt>
      <trkpt lat="43.15705" lon="0.58348">
        <ele>500.2</ele>
        <time>2025-12-29T10:31:02Z</time>
      </trkpt>
      <trkpt lat="43.15711" lon="0.58351">
        <ele>500.2</ele>
        <time>2025-12-29T10:31:03Z</time>
      </trkpt>
      <trkpt lat="43.15716" lon="0.58354">
        <ele>500.2</ele>
        <time>2025-12-29T10:31:04Z</time>
      </trkpt>
      <trkpt lat="43.15721" lon="0.58359">
        <ele>500.2</ele>
        <time>2025-12-29T10:31:05Z</time>
      </trkpt>
      <trkpt lat="43.15726" lon="0.58363">
        <ele>501</ele>
        <time>2025-12-29T10:31:06Z</time>
      </trkpt>
      <trkpt lat="43.1573" lon="0.58367">
        <ele>501</ele>
        <time>2025-12-29T10:31:07Z</time>
      </trkpt>
      <trkpt lat="43.15735" lon="0.58372">
        <ele>501</ele>
        <time>2025-12-29T10:31:08Z</time>
      </trkpt>
      <trkpt lat="43.15739" lon="0.58376">
        <ele>502</ele>
        <time>2025-12-29T10:31:09Z</time>
      </trkpt>
      <trkpt lat="43.15743" lon="0.58379">
        <ele>503</ele>
        <time>2025-12-29T10:31:10Z</time>
      </trkpt>
      <trkpt lat="43.15747" lon="0.58383">
        <ele>503</ele>
        <time>2025-12-29T10:31:11Z</time>
      </trkpt>
      <trkpt lat="43.15751" lon="0.58386">
        <ele>503</ele>
        <time>2025-12-29T10:31:12Z</time>
      </trkpt>
      <trkpt lat="43.15755" lon="0.58389">
        <ele>503</ele>
        <time>2025-12-29T10:31:13Z</time>
      </trkpt>
      <trkpt lat="43.15758" lon="0.58392">
        <ele>504.8</ele>
        <time>2025-12-29T10:31:14Z</time>
      </trkpt>
      <trkpt lat="43.15762" lon="0.58395">
        <ele>504.8</ele>
        <time>2025-12-29T10:31:15Z</time>
      </trkpt>
      <trkpt lat="43.15766" lon="0.58398">
        <ele>504.8</ele>
        <time>2025-12-29T10:31:16Z</time>
      </trkpt>
      <trkpt lat="43.15769" lon="0.584">
        <ele>504.8</ele>
        <time>2025-12-29T10:31:17Z</time>
      </trkpt>
      <trkpt lat="43.15773" lon="0.58403">
        <ele>505</ele>
        <time>2025-12-29T10:31:18Z</time>
      </trkpt>
      <trkpt lat="43.15776" lon="0.58405">
        <ele>505</ele>
        <time>2025-12-29T10:31:19Z</time>
      </trkpt>
      <trkpt lat="43.1578" lon="0.58408">
        <ele>505</ele>
        <time>2025-12-29T10:31:20Z</time>
      </trkpt>
      <trkpt lat="43.15784" lon="0.5841">
        <ele>505.4</ele>
        <time>2025-12-29T10:31:21Z</time>
      </trkpt>
      <trkpt lat="43.15788" lon="0.58412">
        <ele>505.2</ele>
        <time>2025-12-29T10:31:22Z</time>
      </trkpt>
      <trkpt lat="43.15792" lon="0.58415">
        <ele>505.2</ele>
        <time>2025-12-29T10:31:23Z</time>
      </trkpt>
      <trkpt lat="43.15795" lon="0.58418">
        <ele>505.2</ele>
        <time>2025-12-29T10:31:24Z</time>
      </trkpt>
      <trkpt lat="43.15799" lon="0.5842">
        <ele>505</ele>
        <time>2025-12-29T10:31:25Z</time>
      </trkpt>
      <trkpt lat="43.15803" lon="0.58423">
        <ele>505.4</ele>
        <time>2025-12-29T10:31:26Z</time>
      </trkpt>
      <trkpt lat="43.15807" lon="0.58425">
        <ele>505.4</ele>
        <time>2025-12-29T10:31:27Z</time>
      </trkpt>
      <trkpt lat="43.15811" lon="0.58428">
        <ele>505.4</ele>
        <time>2025-12-29T10:31:28Z</time>
      </trkpt>
      <trkpt lat="43.15815" lon="0.58431">
        <ele>505.4</ele>
        <time>2025-12-29T10:31:29Z</time>
      </trkpt>
      <trkpt lat="43.15819" lon="0.58434">
        <ele>504.6</ele>
        <time>2025-12-29T10:31:30Z</time>
      </trkpt>
      <trkpt lat="43.15824" lon="0.58437">
        <ele>504.6</ele>
        <time>2025-12-29T10:31:31Z</time>
      </trkpt>
      <trkpt lat="43.15829" lon="0.5844">
        <ele>504.6</ele>
        <time>2025-12-29T10:31:32Z</time>
      </trkpt>
      <trkpt lat="43.15834" lon="0.58444">
        <ele>504.6</ele>
        <time>2025-12-29T10:31:33Z</time>
      </trkpt>
      <trkpt lat="43.15839" lon="0.58447">
        <ele>504.8</ele>
        <time>2025-12-29T10:31:34Z</time>
      </trkpt>
      <trkpt lat="43.15844" lon="0.5845">
        <ele>504.8</ele>
        <time>2025-12-29T10:31:35Z</time>
      </trkpt>
      <trkpt lat="43.15849" lon="0.58454">
        <ele>504.8</ele>
        <time>2025-12-29T10:31:36Z</time>
      </trkpt>
      <trkpt lat="43.15855" lon="0.58457">
        <ele>503.8</ele>
        <time>2025-12-29T10:31:37Z</time>
      </trkpt>
      <trkpt lat="43.1586" lon="0.58461">
        <ele>503.4</ele>
        <time>2025-12-29T10:31:38Z</time>
      </trkpt>
      <trkpt lat="43.15866" lon="0.58464">
        <ele>503.4</ele>
        <time>2025-12-29T10:31:39Z</time>
      </trkpt>
      <trkpt lat="43.15872" lon="0.58467">
        <ele>503.4</ele>
        <time>2025-12-29T10:31:40Z</time>
      </trkpt>
      <trkpt lat="43.15878" lon="0.5847">
        <ele>502.4</ele>
        <time>2025-12-29T10:31:41Z</time>
      </trkpt>
      <trkpt lat="43.15885" lon="0.58472">
        <ele>501.4</ele>
        <time>2025-12-29T10:31:42Z</time>
      </trkpt>
      <trkpt lat="43.15891" lon="0.58473">
        <ele>501.4</ele>
        <time>2025-12-29T10:31:43Z</time>
      </trkpt>
      <trkpt lat="43.15897" lon="0.58474">
        <ele>501.4</ele>
        <time>2025-12-29T10:31:44Z</time>
      </trkpt>
      <trkpt lat="43.15904" lon="0.58474">
        <ele>501.2</ele>
        <time>2025-12-29T10:31:45Z</time>
      </trkpt>
      <trkpt lat="43.15911" lon="0.58473">
        <ele>500.2</ele>
        <time>2025-12-29T10:31:46Z</time>
      </trkpt>
      <trkpt lat="43.15918" lon="0.58472">
        <ele>500.2</ele>
        <time>2025-12-29T10:31:47Z</time>
      </trkpt>
      <trkpt lat="43.15925" lon="0.58472">
        <ele>500.2</ele>
        <time>2025-12-29T10:31:48Z</time>
      </trkpt>
      <trkpt lat="43.15933" lon="0.58471">
        <ele>500.2</ele>
        <time>2025-12-29T10:31:49Z</time>
      </trkpt>
      <trkpt lat="43.15942" lon="0.58469">
        <ele>495</ele>
        <time>2025-12-29T10:31:50Z</time>
      </trkpt>
      <trkpt lat="43.15951" lon="0.58469">
        <ele>495</ele>
        <time>2025-12-29T10:31:51Z</time>
      </trkpt>
      <trkpt lat="43.1596" lon="0.58468">
        <ele>495</ele>
        <time>2025-12-29T10:31:52Z</time>
      </trkpt>
      <trkpt lat="43.15969" lon="0.58468">
        <ele>495</ele>
        <time>2025-12-29T10:31:53Z</time>
      </trkpt>
      <trkpt lat="43.15977" lon="0.5847">
        <ele>492.4</ele>
        <time>2025-12-29T10:31:54Z</time>
      </trkpt>
      <trkpt lat="43.15985" lon="0.58473">
        <ele>492.4</ele>
        <time>2025-12-29T10:31:55Z</time>
      </trkpt>
      <trkpt lat="43.15994" lon="0.58476">
        <ele>492.4</ele>
        <time>2025-12-29T10:31:56Z</time>
      </trkpt>
      <trkpt lat="43.16002" lon="0.58479">
        <ele>491.4</ele>
        <time>2025-12-29T10:31:57Z</time>
      </trkpt>
      <trkpt lat="43.16009" lon="0.58483">
        <ele>491</ele>
        <time>2025-12-29T10:31:58Z</time>
      </trkpt>
      <trkpt lat="43.16017" lon="0.58487">
        <ele>491</ele>
        <time>2025-12-29T10:31:59Z</time>
      </trkpt>
      <trkpt lat="43.16023" lon="0.58492">
        <ele>491</ele>
        <time>2025-12-29T10:32:00Z</time>
      </trkpt>
      <trkpt lat="43.16029" lon="0.58499">
        <ele>491</ele>
        <time>2025-12-29T10:32:01Z</time>
      </trkpt>
      <trkpt lat="43.16033" lon="0.58507">
        <ele>492</ele>
        <time>2025-12-29T10:32:02Z</time>
      </trkpt>
      <trkpt lat="43.16037" lon="0.58515">
        <ele>492</ele>
        <time>2025-12-29T10:32:03Z</time>
      </trkpt>
      <trkpt lat="43.16039" lon="0.58524">
        <ele>492</ele>
        <time>2025-12-29T10:32:04Z</time>
      </trkpt>
      <trkpt lat="43.16041" lon="0.58532">
        <ele>491</ele>
        <time>2025-12-29T10:32:05Z</time>
      </trkpt>
      <trkpt lat="43.16043" lon="0.58541">
        <ele>493</ele>
        <time>2025-12-29T10:32:06Z</time>
      </trkpt>
      <trkpt lat="43.16044" lon="0.58548">
        <ele>493</ele>
        <time>2025-12-29T10:32:07Z</time>
      </trkpt>
      <trkpt lat="43.16044" lon="0.58556">
        <ele>493</ele>
        <time>2025-12-29T10:32:08Z</time>
      </trkpt>
      <trkpt lat="43.16044" lon="0.58564">
        <ele>492.4</ele>
        <time>2025-12-29T10:32:09Z</time>
      </trkpt>
      <trkpt lat="43.16044" lon="0.58572">
        <ele>491.6</ele>
        <time>2025-12-29T10:32:10Z</time>
      </trkpt>
      <trkpt lat="43.16043" lon="0.5858">
        <ele>491.6</ele>
        <time>2025-12-29T10:32:11Z</time>
      </trkpt>
      <trkpt lat="43.16043" lon="0.58588">
        <ele>491.6</ele>
        <time>2025-12-29T10:32:12Z</time>
      </trkpt>
      <trkpt lat="43.16042" lon="0.58596">
        <ele>491.6</ele>
        <time>2025-12-29T10:32:13Z</time>
      </trkpt>
      <trkpt lat="43.16041" lon="0.58604">
        <ele>491.4</ele>
        <time>2025-12-29T10:32:14Z</time>
      </trkpt>
      <trkpt lat="43.1604" lon="0.58612">
        <ele>491.4</ele>
        <time>2025-12-29T10:32:15Z</time>
      </trkpt>
      <trkpt lat="43.16039" lon="0.58619">
        <ele>491.4</ele>
        <time>2025-12-29T10:32:16Z</time>
      </trkpt>
      <trkpt lat="43.16038" lon="0.58627">
        <ele>492</ele>
        <time>2025-12-29T10:32:17Z</time>
      </trkpt>
      <trkpt lat="43.16037" lon="0.58634">
        <ele>492.2</ele>
        <time>2025-12-29T10:32:18Z</time>
      </trkpt>
      <trkpt lat="43.16037" lon="0.58642">
        <ele>492.2</ele>
        <time>2025-12-29T10:32:19Z</time>
      </trkpt>
      <trkpt lat="43.16037" lon="0.58649">
        <ele>492.2</ele>
        <time>2025-12-29T10:32:20Z</time>
      </trkpt>
      <trkpt lat="43.16038" lon="0.58656">
        <ele>492.2</ele>
        <time>2025-12-29T10:32:21Z</time>
      </trkpt>
      <trkpt lat="43.16038" lon="0.58663">
        <ele>492.6</ele>
        <time>2025-12-29T10:32:22Z</time>
      </trkpt>
      <trkpt lat="43.16039" lon="0.5867">
        <ele>492.6</ele>
        <time>2025-12-29T10:32:23Z</time>
      </trkpt>
      <trkpt lat="43.16039" lon="0.58677">
        <ele>492.6</ele>
        <time>2025-12-29T10:32:24Z</time>
      </trkpt>
      <trkpt lat="43.1604" lon="0.58684">
        <ele>493</ele>
        <time>2025-12-29T10:32:25Z</time>
      </trkpt>
      <trkpt lat="43.16041" lon="0.5869">
        <ele>493.4</ele>
        <time>2025-12-29T10:32:26Z</time>
      </trkpt>
      <trkpt lat="43.16041" lon="0.58697">
        <ele>493.4</ele>
        <time>2025-12-29T10:32:27Z</time>
      </trkpt>
      <trkpt lat="43.16042" lon="0.58704">
        <ele>493.4</ele>
        <time>2025-12-29T10:32:28Z</time>
      </trkpt>
      <trkpt lat="43.16043" lon="0.5871">
        <ele>493.4</ele>
        <time>2025-12-29T10:32:29Z</time>
      </trkpt>
      <trkpt lat="43.16043" lon="0.58716">
        <ele>493.8</ele>
        <time>2025-12-29T10:32:30Z</time>
      </trkpt>
      <trkpt lat="43.16043" lon="0.58722">
        <ele>493.8</ele>
        <time>2025-12-29T10:32:31Z</time>
      </trkpt>
      <trkpt lat="43.16044" lon="0.58729">
        <ele>493.8</ele>
        <time>2025-12-29T10:32:32Z</time>
      </trkpt>
      <trkpt lat="43.16044" lon="0.58735">
        <ele>493.8</ele>
        <time>2025-12-29T10:32:33Z</time>
      </trkpt>
      <trkpt lat="43.16044" lon="0.58741">
        <ele>494</ele>
        <time>2025-12-29T10:32:34Z</time>
      </trkpt>
      <trkpt lat="43.16044" lon="0.58747">
        <ele>494</ele>
        <time>2025-12-29T10:32:35Z</time>
      </trkpt>
      <trkpt lat="43.16045" lon="0.58753">
        <ele>494</ele>
        <time>2025-12-29T10:32:36Z</time>
      </trkpt>
      <trkpt lat="43.16045" lon="0.58759">
        <ele>494</ele>
        <time>2025-12-29T10:32:37Z</time>
      </trkpt>
      <trkpt lat="43.16045" lon="0.58765">
        <ele>494</ele>
        <time>2025-12-29T10:32:38Z</time>
      </trkpt>
      <trkpt lat="43.16045" lon="0.58771">
        <ele>494</ele>
        <time>2025-12-29T10:32:39Z</time>
      </trkpt>
      <trkpt lat="43.16047" lon="0.58776">
        <ele>494</ele>
        <time>2025-12-29T10:32:40Z</time>
      </trkpt>
      <trkpt lat="43.16049" lon="0.58781">
        <ele>494.2</ele>
        <time>2025-12-29T10:32:41Z</time>
      </trkpt>
      <trkpt lat="43.16051" lon="0.58785">
        <ele>495.2</ele>
        <time>2025-12-29T10:32:42Z</time>
      </trkpt>
      <trkpt lat="43.16054" lon="0.58787">
        <ele>495.2</ele>
        <time>2025-12-29T10:32:43Z</time>
      </trkpt>
      <trkpt lat="43.16057" lon="0.58788">
        <ele>495.2</ele>
        <time>2025-12-29T10:32:44Z</time>
      </trkpt>
      <trkpt lat="43.1606" lon="0.58789">
        <ele>495.8</ele>
        <time>2025-12-29T10:32:45Z</time>
      </trkpt>
      <trkpt lat="43.16064" lon="0.58789">
        <ele>496.6</ele>
        <time>2025-12-29T10:32:46Z</time>
      </trkpt>
      <trkpt lat="43.16067" lon="0.58789">
        <ele>496.6</ele>
        <time>2025-12-29T10:32:47Z</time>
      </trkpt>
      <trkpt lat="43.1607" lon="0.58789">
        <ele>496.6</ele>
        <time>2025-12-29T10:32:48Z</time>
      </trkpt>
      <trkpt lat="43.16072" lon="0.58789">
        <ele>496.6</ele>
        <time>2025-12-29T10:32:49Z</time>
      </trkpt>
      <trkpt lat="43.16074" lon="0.58789">
        <ele>498.6</ele>
        <time>2025-12-29T10:32:50Z</time>
      </trkpt>
      <trkpt lat="43.16077" lon="0.58788">
        <ele>498.6</ele>
        <time>2025-12-29T10:32:51Z</time>
      </trkpt>
      <trkpt lat="43.1608" lon="0.58788">
        <ele>498.6</ele>
        <time>2025-12-29T10:32:52Z</time>
      </trkpt>
      <trkpt lat="43.16084" lon="0.58788">
        <ele>499.6</ele>
        <time>2025-12-29T10:32:53Z</time>
      </trkpt>
      <trkpt lat="43.16087" lon="0.58788">
        <ele>500</ele>
        <time>2025-12-29T10:32:54Z</time>
      </trkpt>
      <trkpt lat="43.16091" lon="0.58788">
        <ele>500</ele>
        <time>2025-12-29T10:32:55Z</time>
      </trkpt>
      <trkpt lat="43.16094" lon="0.58788">
        <ele>500</ele>
        <time>2025-12-29T10:32:56Z</time>
      </trkpt>
      <trkpt lat="43.16097" lon="0.58788">
        <ele>500.8</ele>
        <time>2025-12-29T10:32:57Z</time>
      </trkpt>
      <trkpt lat="43.161" lon="0.58788">
        <ele>501.4</ele>
        <time>2025-12-29T10:32:58Z</time>
      </trkpt>
      <trkpt lat="43.16103" lon="0.58788">
        <ele>501.4</ele>
        <time>2025-12-29T10:32:59Z</time>
      </trkpt>
      <trkpt lat="43.16107" lon="0.58788">
        <ele>501.4</ele>
        <time>2025-12-29T10:33:00Z</time>
      </trkpt>
      <trkpt lat="43.1611" lon="0.58788">
        <ele>501.8</ele>
        <time>2025-12-29T10:33:01Z</time>
      </trkpt>
      <trkpt lat="43.16114" lon="0.58788">
        <ele>502.4</ele>
        <time>2025-12-29T10:33:02Z</time>
      </trkpt>
      <trkpt lat="43.16118" lon="0.58788">
        <ele>502.4</ele>
        <time>2025-12-29T10:33:03Z</time>
      </trkpt>
      <trkpt lat="43.16122" lon="0.58787">
        <ele>502.4</ele>
        <time>2025-12-29T10:33:04Z</time>
      </trkpt>
      <trkpt lat="43.16126" lon="0.58787">
        <ele>503.4</ele>
        <time>2025-12-29T10:33:05Z</time>
      </trkpt>
      <trkpt lat="43.1613" lon="0.58787">
        <ele>502.8</ele>
        <time>2025-12-29T10:33:06Z</time>
      </trkpt>
      <trkpt lat="43.16134" lon="0.58787">
        <ele>502.8</ele>
        <time>2025-12-29T10:33:07Z</time>
      </trkpt>
      <trkpt lat="43.16137" lon="0.58787">
        <ele>502.8</ele>
        <time>2025-12-29T10:33:08Z</time>
      </trkpt>
      <trkpt lat="43.1614" lon="0.58787">
        <ele>503.6</ele>
        <time>2025-12-29T10:33:09Z</time>
      </trkpt>
      <trkpt lat="43.16143" lon="0.58787">
        <ele>503.6</ele>
        <time>2025-12-29T10:33:10Z</time>
      </trkpt>
      <trkpt lat="43.16146" lon="0.58787">
        <ele>503.6</ele>
        <time>2025-12-29T10:33:11Z</time>
      </trkpt>
      <trkpt lat="43.16149" lon="0.58788">
        <ele>503.6</ele>
        <time>2025-12-29T10:33:12Z</time>
      </trkpt>
      <trkpt lat="43.16151" lon="0.58789">
        <ele>504.6</ele>
        <time>2025-12-29T10:33:13Z</time>
      </trkpt>
      <trkpt lat="43.16153" lon="0.5879">
        <ele>504.2</ele>
        <time>2025-12-29T10:33:14Z</time>
      </trkpt>
      <trkpt lat="43.16155" lon="0.58792">
        <ele>504.2</ele>
        <time>2025-12-29T10:33:15Z</time>
      </trkpt>
      <trkpt lat="43.16157" lon="0.58795">
        <ele>504.2</ele>
        <time>2025-12-29T10:33:16Z</time>
      </trkpt>
      <trkpt lat="43.16158" lon="0.58798">
        <ele>504.2</ele>
        <time>2025-12-29T10:33:17Z</time>
      </trkpt>
      <trkpt lat="43.1616" lon="0.58801">
        <ele>504.6</ele>
        <time>2025-12-29T10:33:18Z</time>
      </trkpt>
      <trkpt lat="43.16161" lon="0.58804">
        <ele>504.6</ele>
        <time>2025-12-29T10:33:19Z</time>
      </trkpt>
      <trkpt lat="43.16163" lon="0.58807">
        <ele>504.6</ele>
        <time>2025-12-29T10:33:20Z</time>
      </trkpt>
      <trkpt lat="43.16164" lon="0.58812">
        <ele>503.6</ele>
        <time>2025-12-29T10:33:21Z</time>
      </trkpt>
      <trkpt lat="43.16166" lon="0.58817">
        <ele>503.4</ele>
        <time>2025-12-29T10:33:22Z</time>
      </trkpt>
      <trkpt lat="43.16168" lon="0.58822">
        <ele>503.4</ele>
        <time>2025-12-29T10:33:23Z</time>
      </trkpt>
      <trkpt lat="43.1617" lon="0.58827">
        <ele>503.4</ele>
        <time>2025-12-29T10:33:24Z</time>
      </trkpt>
      <trkpt lat="43.16172" lon="0.58832">
        <ele>503.4</ele>
        <time>2025-12-29T10:33:25Z</time>
      </trkpt>
      <trkpt lat="43.16173" lon="0.58838">
        <ele>503</ele>
        <time>2025-12-29T10:33:26Z</time>
      </trkpt>
      <trkpt lat="43.16175" lon="0.58843">
        <ele>503</ele>
        <time>2025-12-29T10:33:27Z</time>
      </trkpt>
      <trkpt lat="43.16177" lon="0.58849">
        <ele>503</ele>
        <time>2025-12-29T10:33:28Z</time>
      </trkpt>
      <trkpt lat="43.16178" lon="0.58856">
        <ele>503</ele>
        <time>2025-12-29T10:33:29Z</time>
      </trkpt>
      <trkpt lat="43.1618" lon="0.58862">
        <ele>502.8</ele>
        <time>2025-12-29T10:33:30Z</time>
      </trkpt>
      <trkpt lat="43.16182" lon="0.58868">
        <ele>502.8</ele>
        <time>2025-12-29T10:33:31Z</time>
      </trkpt>
      <trkpt lat="43.16184" lon="0.58875">
        <ele>502.8</ele>
        <time>2025-12-29T10:33:32Z</time>
      </trkpt>
      <trkpt lat="43.16186" lon="0.58881">
        <ele>502.8</ele>
        <time>2025-12-29T10:33:33Z</time>
      </trkpt>
      <trkpt lat="43.16188" lon="0.58888">
        <ele>502</ele>
        <time>2025-12-29T10:33:34Z</time>
      </trkpt>
      <trkpt lat="43.1619" lon="0.58895">
        <ele>502</ele>
        <time>2025-12-29T10:33:35Z</time>
      </trkpt>
      <trkpt lat="43.16192" lon="0.58902">
        <ele>502</ele>
        <time>2025-12-29T10:33:36Z</time>
      </trkpt>
      <trkpt lat="43.16195" lon="0.58909">
        <ele>502.2</ele>
        <time>2025-12-29T10:33:37Z</time>
      </trkpt>
      <trkpt lat="43.16197" lon="0.58916">
        <ele>501.8</ele>
        <time>2025-12-29T10:33:38Z</time>
      </trkpt>
      <trkpt lat="43.16199" lon="0.58923">
        <ele>501.8</ele>
        <time>2025-12-29T10:33:39Z</time>
      </trkpt>
      <trkpt lat="43.16201" lon="0.5893">
        <ele>501.8</ele>
        <time>2025-12-29T10:33:40Z</time>
      </trkpt>
      <trkpt lat="43.16203" lon="0.58937">
        <ele>501.8</ele>
        <time>2025-12-29T10:33:41Z</time>
      </trkpt>
      <trkpt lat="43.16205" lon="0.58944">
        <ele>502</ele>
        <time>2025-12-29T10:33:42Z</time>
      </trkpt>
      <trkpt lat="43.16207" lon="0.58951">
        <ele>502</ele>
        <time>2025-12-29T10:33:43Z</time>
      </trkpt>
      <trkpt lat="43.1621" lon="0.58958">
        <ele>502</ele>
        <time>2025-12-29T10:33:44Z</time>
      </trkpt>
      <trkpt lat="43.16212" lon="0.58964">
        <ele>501.4</ele>
        <time>2025-12-29T10:33:45Z</time>
      </trkpt>
      <trkpt lat="43.16214" lon="0.58971">
        <ele>501</ele>
        <time>2025-12-29T10:33:46Z</time>
      </trkpt>
      <trkpt lat="43.16216" lon="0.58978">
        <ele>501</ele>
        <time>2025-12-29T10:33:47Z</time>
      </trkpt>
      <trkpt lat="43.16218" lon="0.58984">
        <ele>501</ele>
        <time>2025-12-29T10:33:48Z</time>
      </trkpt>
      <trkpt lat="43.1622" lon="0.58991">
        <ele>501.6</ele>
        <time>2025-12-29T10:33:49Z</time>
      </trkpt>
      <trkpt lat="43.16222" lon="0.58998">
        <ele>501.8</ele>
        <time>2025-12-29T10:33:50Z</time>
      </trkpt>
      <trkpt lat="43.16224" lon="0.59004">
        <ele>501.8</ele>
        <time>2025-12-29T10:33:51Z</time>
      </trkpt>
      <trkpt lat="43.16226" lon="0.5901">
        <ele>501.8</ele>
        <time>2025-12-29T10:33:52Z</time>
      </trkpt>
      <trkpt lat="43.16228" lon="0.59015">
        <ele>501.8</ele>
        <time>2025-12-29T10:33:53Z</time>
      </trkpt>
      <trkpt lat="43.1623" lon="0.59021">
        <ele>502.4</ele>
        <time>2025-12-29T10:33:54Z</time>
      </trkpt>
      <trkpt lat="43.16232" lon="0.59026">
        <ele>502.4</ele>
        <time>2025-12-29T10:33:55Z</time>
      </trkpt>
      <trkpt lat="43.16234" lon="0.59032">
        <ele>502.4</ele>
        <time>2025-12-29T10:33:56Z</time>
      </trkpt>
      <trkpt lat="43.16235" lon="0.59037">
        <ele>502.8</ele>
        <time>2025-12-29T10:33:57Z</time>
      </trkpt>
      <trkpt lat="43.16237" lon="0.59042">
        <ele>503</ele>
        <time>2025-12-29T10:33:58Z</time>
      </trkpt>
      <trkpt lat="43.16239" lon="0.59047">
        <ele>503</ele>
        <time>2025-12-29T10:33:59Z</time>
      </trkpt>
      <trkpt lat="43.16241" lon="0.59053">
        <ele>503</ele>
        <time>2025-12-29T10:34:00Z</time>
      </trkpt>
      <trkpt lat="43.16242" lon="0.59058">
        <ele>503</ele>
        <time>2025-12-29T10:34:01Z</time>
      </trkpt>
      <trkpt lat="43.16244" lon="0.59063">
        <ele>503.8</ele>
        <time>2025-12-29T10:34:02Z</time>
      </trkpt>
      <trkpt lat="43.16245" lon="0.59068">
        <ele>503.8</ele>
        <time>2025-12-29T10:34:03Z</time>
      </trkpt>
      <trkpt lat="43.16247" lon="0.59073">
        <ele>503.8</ele>
        <time>2025-12-29T10:34:04Z</time>
      </trkpt>
      <trkpt lat="43.16248" lon="0.59078">
        <ele>504.6</ele>
        <time>2025-12-29T10:34:05Z</time>
      </trkpt>
      <trkpt lat="43.1625" lon="0.59083">
        <ele>504</ele>
        <time>2025-12-29T10:34:06Z</time>
      </trkpt>
      <trkpt lat="43.16251" lon="0.59087">
        <ele>504</ele>
        <time>2025-12-29T10:34:07Z</time>
      </trkpt>
      <trkpt lat="43.16252" lon="0.59092">
        <ele>504</ele>
        <time>2025-12-29T10:34:08Z</time>
      </trkpt>
      <trkpt lat="43.16253" lon="0.59097">
        <ele>505</ele>
        <time>2025-12-29T10:34:09Z</time>
      </trkpt>
      <trkpt lat="43.16254" lon="0.59102">
        <ele>504.6</ele>
        <time>2025-12-29T10:34:10Z</time>
      </trkpt>
      <trkpt lat="43.16255" lon="0.59107">
        <ele>504.6</ele>
        <time>2025-12-29T10:34:11Z</time>
      </trkpt>
      <trkpt lat="43.16256" lon="0.59112">
        <ele>504.6</ele>
        <time>2025-12-29T10:34:12Z</time>
      </trkpt>
      <trkpt lat="43.16257" lon="0.59117">
        <ele>505.2</ele>
        <time>2025-12-29T10:34:13Z</time>
      </trkpt>
      <trkpt lat="43.16257" lon="0.59122">
        <ele>505.4</ele>
        <time>2025-12-29T10:34:14Z</time>
      </trkpt>
      <trkpt lat="43.16258" lon="0.59127">
        <ele>505.4</ele>
        <time>2025-12-29T10:34:15Z</time>
      </trkpt>
      <trkpt lat="43.16259" lon="0.59132">
        <ele>505.4</ele>
        <time>2025-12-29T10:34:16Z</time>
      </trkpt>
      <trkpt lat="43.1626" lon="0.59137">
        <ele>505.4</ele>
        <time>2025-12-29T10:34:17Z</time>
      </trkpt>
      <trkpt lat="43.1626" lon="0.59142">
        <ele>505</ele>
        <time>2025-12-29T10:34:18Z</time>
      </trkpt>
      <trkpt lat="43.16261" lon="0.59147">
        <ele>505</ele>
        <time>2025-12-29T10:34:19Z</time>
      </trkpt>
      <trkpt lat="43.16262" lon="0.59153">
        <ele>505</ele>
        <time>2025-12-29T10:34:20Z</time>
      </trkpt>
      <trkpt lat="43.16263" lon="0.59158">
        <ele>506</ele>
        <time>2025-12-29T10:34:21Z</time>
      </trkpt>
      <trkpt lat="43.16264" lon="0.59164">
        <ele>505.2</ele>
        <time>2025-12-29T10:34:22Z</time>
      </trkpt>
      <trkpt lat="43.16264" lon="0.59169">
        <ele>505.2</ele>
        <time>2025-12-29T10:34:23Z</time>
      </trkpt>
      <trkpt lat="43.16265" lon="0.59175">
        <ele>505.2</ele>
        <time>2025-12-29T10:34:24Z</time>
      </trkpt>
      <trkpt lat="43.16266" lon="0.5918">
        <ele>505.6</ele>
        <time>2025-12-29T10:34:25Z</time>
      </trkpt>
      <trkpt lat="43.16266" lon="0.59186">
        <ele>505.8</ele>
        <time>2025-12-29T10:34:26Z</time>
      </trkpt>
      <trkpt lat="43.16267" lon="0.59191">
        <ele>505.8</ele>
        <time>2025-12-29T10:34:27Z</time>
      </trkpt>
      <trkpt lat="43.16267" lon="0.59196">
        <ele>505.8</ele>
        <time>2025-12-29T10:34:28Z</time>
      </trkpt>
      <trkpt lat="43.16267" lon="0.59201">
        <ele>506</ele>
        <time>2025-12-29T10:34:29Z</time>
      </trkpt>
      <trkpt lat="43.16268" lon="0.59206">
        <ele>506.6</ele>
        <time>2025-12-29T10:34:30Z</time>
      </trkpt>
      <trkpt lat="43.16268" lon="0.5921">
        <ele>506.6</ele>
        <time>2025-12-29T10:34:31Z</time>
      </trkpt>
      <trkpt lat="43.16268" lon="0.59215">
        <ele>506.6</ele>
        <time>2025-12-29T10:34:32Z</time>
      </trkpt>
      <trkpt lat="43.16269" lon="0.59219">
        <ele>506.6</ele>
        <time>2025-12-29T10:34:33Z</time>
      </trkpt>
      <trkpt lat="43.16269" lon="0.59224">
        <ele>506.6</ele>
        <time>2025-12-29T10:34:34Z</time>
      </trkpt>
      <trkpt lat="43.1627" lon="0.59228">
        <ele>506.6</ele>
        <time>2025-12-29T10:34:35Z</time>
      </trkpt>
      <trkpt lat="43.16271" lon="0.59233">
        <ele>506.6</ele>
        <time>2025-12-29T10:34:36Z</time>
      </trkpt>
      <trkpt lat="43.16273" lon="0.59237">
        <ele>506.6</ele>
        <time>2025-12-29T10:34:37Z</time>
      </trkpt>
      <trkpt lat="43.16274" lon="0.59241">
        <ele>506.2</ele>
        <time>2025-12-29T10:34:38Z</time>
      </trkpt>
      <trkpt lat="43.16276" lon="0.59246">
        <ele>506.2</ele>
        <time>2025-12-29T10:34:39Z</time>
      </trkpt>
      <trkpt lat="43.16277" lon="0.5925">
        <ele>506.2</ele>
        <time>2025-12-29T10:34:40Z</time>
      </trkpt>
      <trkpt lat="43.16278" lon="0.59255">
        <ele>506.4</ele>
        <time>2025-12-29T10:34:41Z</time>
      </trkpt>
      <trkpt lat="43.16279" lon="0.59259">
        <ele>506.2</ele>
        <time>2025-12-29T10:34:42Z</time>
      </trkpt>
      <trkpt lat="43.16279" lon="0.59264">
        <ele>506.2</ele>
        <time>2025-12-29T10:34:43Z</time>
      </trkpt>
      <trkpt lat="43.16279" lon="0.5927">
        <ele>506.2</ele>
        <time>2025-12-29T10:34:44Z</time>
      </trkpt>
      <trkpt lat="43.16279" lon="0.59275">
        <ele>506.2</ele>
        <time>2025-12-29T10:34:45Z</time>
      </trkpt>
      <trkpt lat="43.16278" lon="0.59281">
        <ele>506.6</ele>
        <time>2025-12-29T10:34:46Z</time>
      </trkpt>
      <trkpt lat="43.16278" lon="0.59287">
        <ele>506.6</ele>
        <time>2025-12-29T10:34:47Z</time>
      </trkpt>
      <trkpt lat="43.16278" lon="0.59292">
        <ele>506.6</ele>
        <time>2025-12-29T10:34:48Z</time>
      </trkpt>
      <trkpt lat="43.16277" lon="0.59298">
        <ele>506.6</ele>
        <time>2025-12-29T10:34:49Z</time>
      </trkpt>
      <trkpt lat="43.16277" lon="0.59304">
        <ele>506.2</ele>
        <time>2025-12-29T10:34:50Z</time>
      </trkpt>
      <trkpt lat="43.16277" lon="0.5931">
        <ele>506.2</ele>
        <time>2025-12-29T10:34:51Z</time>
      </trkpt>
      <trkpt lat="43.16276" lon="0.59316">
        <ele>506.2</ele>
        <time>2025-12-29T10:34:52Z</time>
      </trkpt>
      <trkpt lat="43.16276" lon="0.59322">
        <ele>506.4</ele>
        <time>2025-12-29T10:34:53Z</time>
      </trkpt>
      <trkpt lat="43.16276" lon="0.59328">
        <ele>506.4</ele>
        <time>2025-12-29T10:34:54Z</time>
      </trkpt>
      <trkpt lat="43.16275" lon="0.59334">
        <ele>506.4</ele>
        <time>2025-12-29T10:34:55Z</time>
      </trkpt>
      <trkpt lat="43.16275" lon="0.5934">
        <ele>506.4</ele>
        <time>2025-12-29T10:34:56Z</time>
      </trkpt>
      <trkpt lat="43.16275" lon="0.59346">
        <ele>506.6</ele>
        <time>2025-12-29T10:34:57Z</time>
      </trkpt>
      <trkpt lat="43.16275" lon="0.59352">
        <ele>506.6</ele>
        <time>2025-12-29T10:34:58Z</time>
      </trkpt>
      <trkpt lat="43.16274" lon="0.59358">
        <ele>506.6</ele>
        <time>2025-12-29T10:34:59Z</time>
      </trkpt>
      <trkpt lat="43.16274" lon="0.59365">
        <ele>506.6</ele>
        <time>2025-12-29T10:35:00Z</time>
      </trkpt>
      <trkpt lat="43.16274" lon="0.59371">
        <ele>506.6</ele>
        <time>2025-12-29T10:35:01Z</time>
      </trkpt>
      <trkpt lat="43.16273" lon="0.59378">
        <ele>506.2</ele>
        <time>2025-12-29T10:35:02Z</time>
      </trkpt>
      <trkpt lat="43.16273" lon="0.59384">
        <ele>506.2</ele>
        <time>2025-12-29T10:35:03Z</time>
      </trkpt>
      <trkpt lat="43.16273" lon="0.59391">
        <ele>506.2</ele>
        <time>2025-12-29T10:35:04Z</time>
      </trkpt>
      <trkpt lat="43.16272" lon="0.59398">
        <ele>506.2</ele>
        <time>2025-12-29T10:35:05Z</time>
      </trkpt>
      <trkpt lat="43.16272" lon="0.59405">
        <ele>505.8</ele>
        <time>2025-12-29T10:35:06Z</time>
      </trkpt>
      <trkpt lat="43.16271" lon="0.59412">
        <ele>505.8</ele>
        <time>2025-12-29T10:35:07Z</time>
      </trkpt>
      <trkpt lat="43.16271" lon="0.59419">
        <ele>505.8</ele>
        <time>2025-12-29T10:35:08Z</time>
      </trkpt>
      <trkpt lat="43.16271" lon="0.59425">
        <ele>505.8</ele>
        <time>2025-12-29T10:35:09Z</time>
      </trkpt>
      <trkpt lat="43.1627" lon="0.59432">
        <ele>505.8</ele>
        <time>2025-12-29T10:35:10Z</time>
      </trkpt>
      <trkpt lat="43.1627" lon="0.5944">
        <ele>505.8</ele>
        <time>2025-12-29T10:35:11Z</time>
      </trkpt>
      <trkpt lat="43.16269" lon="0.59447">
        <ele>505.8</ele>
        <time>2025-12-29T10:35:12Z</time>
      </trkpt>
      <trkpt lat="43.16269" lon="0.59454">
        <ele>505.4</ele>
        <time>2025-12-29T10:35:13Z</time>
      </trkpt>
      <trkpt lat="43.16268" lon="0.59461">
        <ele>505.6</ele>
        <time>2025-12-29T10:35:14Z</time>
      </trkpt>
      <trkpt lat="43.16268" lon="0.59468">
        <ele>505.6</ele>
        <time>2025-12-29T10:35:15Z</time>
      </trkpt>
      <trkpt lat="43.16267" lon="0.59475">
        <ele>505.6</ele>
        <time>2025-12-29T10:35:16Z</time>
      </trkpt>
      <trkpt lat="43.16266" lon="0.59483">
        <ele>505</ele>
        <time>2025-12-29T10:35:17Z</time>
      </trkpt>
      <trkpt lat="43.16266" lon="0.5949">
        <ele>505</ele>
        <time>2025-12-29T10:35:18Z</time>
      </trkpt>
      <trkpt lat="43.16265" lon="0.59497">
        <ele>505</ele>
        <time>2025-12-29T10:35:19Z</time>
      </trkpt>
      <trkpt lat="43.16264" lon="0.59504">
        <ele>505</ele>
        <time>2025-12-29T10:35:20Z</time>
      </trkpt>
      <trkpt lat="43.16262" lon="0.59511">
        <ele>504</ele>
        <time>2025-12-29T10:35:21Z</time>
      </trkpt>
      <trkpt lat="43.16261" lon="0.59518">
        <ele>504</ele>
        <time>2025-12-29T10:35:22Z</time>
      </trkpt>
      <trkpt lat="43.16259" lon="0.59525">
        <ele>504</ele>
        <time>2025-12-29T10:35:23Z</time>
      </trkpt>
      <trkpt lat="43.16258" lon="0.59532">
        <ele>504</ele>
        <time>2025-12-29T10:35:24Z</time>
      </trkpt>
      <trkpt lat="43.16256" lon="0.59538">
        <ele>504</ele>
        <time>2025-12-29T10:35:25Z</time>
      </trkpt>
      <trkpt lat="43.16254" lon="0.59545">
        <ele>504.6</ele>
        <time>2025-12-29T10:35:26Z</time>
      </trkpt>
      <trkpt lat="43.16252" lon="0.59552">
        <ele>504.6</ele>
        <time>2025-12-29T10:35:27Z</time>
      </trkpt>
      <trkpt lat="43.1625" lon="0.59558">
        <ele>504.6</ele>
        <time>2025-12-29T10:35:28Z</time>
      </trkpt>
      <trkpt lat="43.16248" lon="0.59565">
        <ele>503.8</ele>
        <time>2025-12-29T10:35:29Z</time>
      </trkpt>
      <trkpt lat="43.16246" lon="0.59571">
        <ele>503.6</ele>
        <time>2025-12-29T10:35:30Z</time>
      </trkpt>
      <trkpt lat="43.16243" lon="0.59577">
        <ele>503.6</ele>
        <time>2025-12-29T10:35:31Z</time>
      </trkpt>
      <trkpt lat="43.16241" lon="0.59584">
        <ele>503.6</ele>
        <time>2025-12-29T10:35:32Z</time>
      </trkpt>
      <trkpt lat="43.16239" lon="0.5959">
        <ele>504</ele>
        <time>2025-12-29T10:35:33Z</time>
      </trkpt>
      <trkpt lat="43.16236" lon="0.59596">
        <ele>504</ele>
        <time>2025-12-29T10:35:34Z</time>
      </trkpt>
      <trkpt lat="43.16234" lon="0.59602">
        <ele>504</ele>
        <time>2025-12-29T10:35:35Z</time>
      </trkpt>
      <trkpt lat="43.16231" lon="0.59608">
        <ele>504</ele>
        <time>2025-12-29T10:35:36Z</time>
      </trkpt>
      <trkpt lat="43.16228" lon="0.59614">
        <ele>503</ele>
        <time>2025-12-29T10:35:37Z</time>
      </trkpt>
      <trkpt lat="43.16226" lon="0.59619">
        <ele>503.6</ele>
        <time>2025-12-29T10:35:38Z</time>
      </trkpt>
      <trkpt lat="43.16223" lon="0.59624">
        <ele>503.6</ele>
        <time>2025-12-29T10:35:39Z</time>
      </trkpt>
      <trkpt lat="43.1622" lon="0.5963">
        <ele>503.6</ele>
        <time>2025-12-29T10:35:40Z</time>
      </trkpt>
      <trkpt lat="43.16217" lon="0.59635">
        <ele>503.6</ele>
        <time>2025-12-29T10:35:41Z</time>
      </trkpt>
      <trkpt lat="43.16214" lon="0.5964">
        <ele>502.8</ele>
        <time>2025-12-29T10:35:42Z</time>
      </trkpt>
      <trkpt lat="43.16211" lon="0.59645">
        <ele>502.8</ele>
        <time>2025-12-29T10:35:43Z</time>
      </trkpt>
      <trkpt lat="43.16208" lon="0.5965">
        <ele>502.8</ele>
        <time>2025-12-29T10:35:44Z</time>
      </trkpt>
      <trkpt lat="43.16205" lon="0.59655">
        <ele>502.8</ele>
        <time>2025-12-29T10:35:45Z</time>
      </trkpt>
      <trkpt lat="43.16201" lon="0.5966">
        <ele>503.4</ele>
        <time>2025-12-29T10:35:46Z</time>
      </trkpt>
      <trkpt lat="43.16198" lon="0.59665">
        <ele>503.4</ele>
        <time>2025-12-29T10:35:47Z</time>
      </trkpt>
      <trkpt lat="43.16195" lon="0.59669">
        <ele>503.4</ele>
        <time>2025-12-29T10:35:48Z</time>
      </trkpt>
      <trkpt lat="43.16192" lon="0.59674">
        <ele>503.4</ele>
        <time>2025-12-29T10:35:49Z</time>
      </trkpt>
      <trkpt lat="43.16189" lon="0.59678">
        <ele>503.2</ele>
        <time>2025-12-29T10:35:50Z</time>
      </trkpt>
      <trkpt lat="43.16187" lon="0.59682">
        <ele>503.2</ele>
        <time>2025-12-29T10:35:51Z</time>
      </trkpt>
      <trkpt lat="43.16185" lon="0.59687">
        <ele>503.2</ele>
        <time>2025-12-29T10:35:52Z</time>
      </trkpt>
      <trkpt lat="43.16184" lon="0.59691">
        <ele>503.2</ele>
        <time>2025-12-29T10:35:53Z</time>
      </trkpt>
      <trkpt lat="43.16184" lon="0.59696">
        <ele>502.6</ele>
        <time>2025-12-29T10:35:54Z</time>
      </trkpt>
      <trkpt lat="43.16184" lon="0.59701">
        <ele>502.6</ele>
        <time>2025-12-29T10:35:55Z</time>
      </trkpt>
      <trkpt lat="43.16185" lon="0.59706">
        <ele>502.6</ele>
        <time>2025-12-29T10:35:56Z</time>
      </trkpt>
      <trkpt lat="43.16186" lon="0.59711">
        <ele>503</ele>
        <time>2025-12-29T10:35:57Z</time>
      </trkpt>
      <trkpt lat="43.16187" lon="0.59716">
        <ele>502.8</ele>
        <time>2025-12-29T10:35:58Z</time>
      </trkpt>
      <trkpt lat="43.16188" lon="0.59721">
        <ele>502.8</ele>
        <time>2025-12-29T10:35:59Z</time>
      </trkpt>
      <trkpt lat="43.16189" lon="0.59726">
        <ele>502.8</ele>
        <time>2025-12-29T10:36:00Z</time>
      </trkpt>
      <trkpt lat="43.1619" lon="0.59731">
        <ele>502.8</ele>
        <time>2025-12-29T10:36:01Z</time>
      </trkpt>
      <trkpt lat="43.16191" lon="0.59736">
        <ele>502.4</ele>
        <time>2025-12-29T10:36:02Z</time>
      </trkpt>
      <trkpt lat="43.16192" lon="0.5974">
        <ele>502.4</ele>
        <time>2025-12-29T10:36:03Z</time>
      </trkpt>
      <trkpt lat="43.16193" lon="0.59743">
        <ele>502.4</ele>
        <time>2025-12-29T10:36:04Z</time>
      </trkpt>
      <trkpt lat="43.16194" lon="0.59746">
        <ele>502.4</ele>
        <time>2025-12-29T10:36:05Z</time>
      </trkpt>
      <trkpt lat="43.16194" lon="0.59749">
        <ele>502.6</ele>
        <time>2025-12-29T10:36:06Z</time>
      </trkpt>
      <trkpt lat="43.16195" lon="0.59751">
        <ele>502.6</ele>
        <time>2025-12-29T10:36:07Z</time>
      </trkpt>
      <trkpt lat="43.16195" lon="0.59754">
        <ele>502.6</ele>
        <time>2025-12-29T10:36:08Z</time>
      </trkpt>
      <trkpt lat="43.16196" lon="0.59757">
        <ele>503</ele>
        <time>2025-12-29T10:36:09Z</time>
      </trkpt>
      <trkpt lat="43.16196" lon="0.59761">
        <ele>502.4</ele>
        <time>2025-12-29T10:36:10Z</time>
      </trkpt>
      <trkpt lat="43.16196" lon="0.59764">
        <ele>502.4</ele>
        <time>2025-12-29T10:36:11Z</time>
      </trkpt>
      <trkpt lat="43.16197" lon="0.59768">
        <ele>502.4</ele>
        <time>2025-12-29T10:36:12Z</time>
      </trkpt>
      <trkpt lat="43.16198" lon="0.59772">
        <ele>502.4</ele>
        <time>2025-12-29T10:36:13Z</time>
      </trkpt>
      <trkpt lat="43.16199" lon="0.59777">
        <ele>501</ele>
        <time>2025-12-29T10:36:14Z</time>
      </trkpt>
      <trkpt lat="43.162" lon="0.59781">
        <ele>501</ele>
        <time>2025-12-29T10:36:15Z</time>
      </trkpt>
      <trkpt lat="43.16201" lon="0.59786">
        <ele>501</ele>
        <time>2025-12-29T10:36:16Z</time>
      </trkpt>
      <trkpt lat="43.16202" lon="0.5979">
        <ele>501.4</ele>
        <time>2025-12-29T10:36:17Z</time>
      </trkpt>
      <trkpt lat="43.16203" lon="0.59795">
        <ele>501.2</ele>
        <time>2025-12-29T10:36:18Z</time>
      </trkpt>
      <trkpt lat="43.16204" lon="0.59799">
        <ele>501.2</ele>
        <time>2025-12-29T10:36:19Z</time>
      </trkpt>
      <trkpt lat="43.16204" lon="0.59804">
        <ele>501.2</ele>
        <time>2025-12-29T10:36:20Z</time>
      </trkpt>
      <trkpt lat="43.16205" lon="0.59808">
        <ele>501.2</ele>
        <time>2025-12-29T10:36:21Z</time>
      </trkpt>
      <trkpt lat="43.16206" lon="0.59813">
        <ele>501</ele>
        <time>2025-12-29T10:36:22Z</time>
      </trkpt>
      <trkpt lat="43.16207" lon="0.59817">
        <ele>501</ele>
        <time>2025-12-29T10:36:23Z</time>
      </trkpt>
      <trkpt lat="43.16207" lon="0.59821">
        <ele>501</ele>
        <time>2025-12-29T10:36:24Z</time>
      </trkpt>
      <trkpt lat="43.16208" lon="0.59825">
        <ele>501.2</ele>
        <time>2025-12-29T10:36:25Z</time>
      </trkpt>
      <trkpt lat="43.16209" lon="0.59828">
        <ele>502.4</ele>
        <time>2025-12-29T10:36:26Z</time>
      </trkpt>
      <trkpt lat="43.1621" lon="0.59832">
        <ele>502.4</ele>
        <time>2025-12-29T10:36:27Z</time>
      </trkpt>
      <trkpt lat="43.16211" lon="0.59835">
        <ele>502.4</ele>
        <time>2025-12-29T10:36:28Z</time>
      </trkpt>
      <trkpt lat="43.16212" lon="0.59839">
        <ele>502.2</ele>
        <time>2025-12-29T10:36:29Z</time>
      </trkpt>
      <trkpt lat="43.16213" lon="0.59842">
        <ele>501</ele>
        <time>2025-12-29T10:36:30Z</time>
      </trkpt>
      <trkpt lat="43.16214" lon="0.59845">
        <ele>501</ele>
        <time>2025-12-29T10:36:31Z</time>
      </trkpt>
      <trkpt lat="43.16214" lon="0.59848">
        <ele>501</ele>
        <time>2025-12-29T10:36:32Z</time>
      </trkpt>
      <trkpt lat="43.16216" lon="0.59852">
        <ele>501</ele>
        <time>2025-12-29T10:36:33Z</time>
      </trkpt>
      <trkpt lat="43.16217" lon="0.59855">
        <ele>500.4</ele>
        <time>2025-12-29T10:36:34Z</time>
      </trkpt>
      <trkpt lat="43.16218" lon="0.59859">
        <ele>500.4</ele>
        <time>2025-12-29T10:36:35Z</time>
      </trkpt>
      <trkpt lat="43.16219" lon="0.59863">
        <ele>500.4</ele>
        <time>2025-12-29T10:36:36Z</time>
      </trkpt>
      <trkpt lat="43.1622" lon="0.59867">
        <ele>500.6</ele>
        <time>2025-12-29T10:36:37Z</time>
      </trkpt>
      <trkpt lat="43.16222" lon="0.59871">
        <ele>501.2</ele>
        <time>2025-12-29T10:36:38Z</time>
      </trkpt>
      <trkpt lat="43.16223" lon="0.59875">
        <ele>501.2</ele>
        <time>2025-12-29T10:36:39Z</time>
      </trkpt>
      <trkpt lat="43.16224" lon="0.59879">
        <ele>501.2</ele>
        <time>2025-12-29T10:36:40Z</time>
      </trkpt>
      <trkpt lat="43.16226" lon="0.59883">
        <ele>501.2</ele>
        <time>2025-12-29T10:36:41Z</time>
      </trkpt>
      <trkpt lat="43.16227" lon="0.59887">
        <ele>501.4</ele>
        <time>2025-12-29T10:36:42Z</time>
      </trkpt>
      <trkpt lat="43.16228" lon="0.59891">
        <ele>501.4</ele>
        <time>2025-12-29T10:36:43Z</time>
      </trkpt>
      <trkpt lat="43.16229" lon="0.59895">
        <ele>501.4</ele>
        <time>2025-12-29T10:36:44Z</time>
      </trkpt>
      <trkpt lat="43.16231" lon="0.59899">
        <ele>501.4</ele>
        <time>2025-12-29T10:36:45Z</time>
      </trkpt>
      <trkpt lat="43.16232" lon="0.59903">
        <ele>500.6</ele>
        <time>2025-12-29T10:36:46Z</time>
      </trkpt>
      <trkpt lat="43.16234" lon="0.59907">
        <ele>500.6</ele>
        <time>2025-12-29T10:36:47Z</time>
      </trkpt>
      <trkpt lat="43.16235" lon="0.5991">
        <ele>500.6</ele>
        <time>2025-12-29T10:36:48Z</time>
      </trkpt>
      <trkpt lat="43.16237" lon="0.59913">
        <ele>500.6</ele>
        <time>2025-12-29T10:36:49Z</time>
      </trkpt>
      <trkpt lat="43.16238" lon="0.59917">
        <ele>502</ele>
        <time>2025-12-29T10:36:50Z</time>
      </trkpt>
      <trkpt lat="43.16239" lon="0.59921">
        <ele>502</ele>
        <time>2025-12-29T10:36:51Z</time>
      </trkpt>
      <trkpt lat="43.1624" lon="0.59925">
        <ele>502</ele>
        <time>2025-12-29T10:36:52Z</time>
      </trkpt>
      <trkpt lat="43.16242" lon="0.59928">
        <ele>501.6</ele>
        <time>2025-12-29T10:36:53Z</time>
      </trkpt>
      <trkpt lat="43.16243" lon="0.59931">
        <ele>501.4</ele>
        <time>2025-12-29T10:36:54Z</time>
      </trkpt>
      <trkpt lat="43.16245" lon="0.59934">
        <ele>501.4</ele>
        <time>2025-12-29T10:36:55Z</time>
      </trkpt>
      <trkpt lat="43.16246" lon="0.59936">
        <ele>501.4</ele>
        <time>2025-12-29T10:36:56Z</time>
      </trkpt>
      <trkpt lat="43.16246" lon="0.59937">
        <ele>501.4</ele>
        <time>2025-12-29T10:36:57Z</time>
      </trkpt>
      <trkpt lat="43.16247" lon="0.59938">
        <ele>502.2</ele>
        <time>2025-12-29T10:36:58Z</time>
      </trkpt>
      <trkpt lat="43.16247" lon="0.59938">
        <ele>502.2</ele>
        <time>2025-12-29T10:36:59Z</time>
      </trkpt>
      <trkpt lat="43.16248" lon="0.59949">
        <ele>501.4</ele>
        <time>2025-12-29T10:37:57Z</time>
      </trkpt>
      <trkpt lat="43.1625" lon="0.59952">
        <ele>500.2</ele>
        <time>2025-12-29T10:37:58Z</time>
      </trkpt>
      <trkpt lat="43.1625" lon="0.59955">
        <ele>500.2</ele>
        <time>2025-12-29T10:37:59Z</time>
      </trkpt>
      <trkpt lat="43.16252" lon="0.59957">
        <ele>500.2</ele>
        <time>2025-12-29T10:38:00Z</time>
      </trkpt>
      <trkpt lat="43.16253" lon="0.5996">
        <ele>501.2</ele>
        <time>2025-12-29T10:38:01Z</time>
      </trkpt>
      <trkpt lat="43.16254" lon="0.59963">
        <ele>502.2</ele>
        <time>2025-12-29T10:38:02Z</time>
      </trkpt>
      <trkpt lat="43.16256" lon="0.59966">
        <ele>502.2</ele>
        <time>2025-12-29T10:38:03Z</time>
      </trkpt>
      <trkpt lat="43.16257" lon="0.5997">
        <ele>502.2</ele>
        <time>2025-12-29T10:38:04Z</time>
      </trkpt>
      <trkpt lat="43.16259" lon="0.59973">
        <ele>502.2</ele>
        <time>2025-12-29T10:38:05Z</time>
      </trkpt>
      <trkpt lat="43.16261" lon="0.59976">
        <ele>502</ele>
        <time>2025-12-29T10:38:06Z</time>
      </trkpt>
      <trkpt lat="43.16262" lon="0.59979">
        <ele>502</ele>
        <time>2025-12-29T10:38:07Z</time>
      </trkpt>
      <trkpt lat="43.16264" lon="0.59983">
        <ele>502</ele>
        <time>2025-12-29T10:38:08Z</time>
      </trkpt>
      <trkpt lat="43.16266" lon="0.59987">
        <ele>502</ele>
        <time>2025-12-29T10:38:09Z</time>
      </trkpt>
      <trkpt lat="43.16268" lon="0.5999">
        <ele>501.2</ele>
        <time>2025-12-29T10:38:10Z</time>
      </trkpt>
      <trkpt lat="43.16269" lon="0.59993">
        <ele>501.2</ele>
        <time>2025-12-29T10:38:11Z</time>
      </trkpt>
      <trkpt lat="43.16271" lon="0.59997">
        <ele>501.2</ele>
        <time>2025-12-29T10:38:12Z</time>
      </trkpt>
      <trkpt lat="43.16273" lon="0.60001">
        <ele>501.2</ele>
        <time>2025-12-29T10:38:13Z</time>
      </trkpt>
      <trkpt lat="43.16275" lon="0.60005">
        <ele>501.6</ele>
        <time>2025-12-29T10:38:14Z</time>
      </trkpt>
      <trkpt lat="43.16277" lon="0.60009">
        <ele>501.6</ele>
        <time>2025-12-29T10:38:15Z</time>
      </trkpt>
      <trkpt lat="43.16279" lon="0.60013">
        <ele>501.6</ele>
        <time>2025-12-29T10:38:16Z</time>
      </trkpt>
      <trkpt lat="43.16282" lon="0.60017">
        <ele>501.6</ele>
        <time>2025-12-29T10:38:17Z</time>
      </trkpt>
      <trkpt lat="43.16285" lon="0.60021">
        <ele>502</ele>
        <time>2025-12-29T10:38:18Z</time>
      </trkpt>
      <trkpt lat="43.16287" lon="0.60025">
        <ele>502</ele>
        <time>2025-12-29T10:38:19Z</time>
      </trkpt>
      <trkpt lat="43.16289" lon="0.60029">
        <ele>502</ele>
        <time>2025-12-29T10:38:20Z</time>
      </trkpt>
      <trkpt lat="43.16291" lon="0.60033">
        <ele>501</ele>
        <time>2025-12-29T10:38:21Z</time>
      </trkpt>
      <trkpt lat="43.16293" lon="0.60037">
        <ele>498.8</ele>
        <time>2025-12-29T10:38:22Z</time>
      </trkpt>
      <trkpt lat="43.16295" lon="0.60041">
        <ele>498.8</ele>
        <time>2025-12-29T10:38:23Z</time>
      </trkpt>
      <trkpt lat="43.16297" lon="0.60045">
        <ele>498.8</ele>
        <time>2025-12-29T10:38:24Z</time>
      </trkpt>
      <trkpt lat="43.163" lon="0.60049">
        <ele>498.8</ele>
        <time>2025-12-29T10:38:25Z</time>
      </trkpt>
      <trkpt lat="43.16302" lon="0.60052">
        <ele>498.6</ele>
        <time>2025-12-29T10:38:26Z</time>
      </trkpt>
      <trkpt lat="43.16303" lon="0.60056">
        <ele>498.6</ele>
        <time>2025-12-29T10:38:27Z</time>
      </trkpt>
      <trkpt lat="43.16305" lon="0.6006">
        <ele>498.6</ele>
        <time>2025-12-29T10:38:28Z</time>
      </trkpt>
      <trkpt lat="43.16307" lon="0.60063">
        <ele>499.6</ele>
        <time>2025-12-29T10:38:29Z</time>
      </trkpt>
      <trkpt lat="43.16309" lon="0.60067">
        <ele>496.6</ele>
        <time>2025-12-29T10:38:30Z</time>
      </trkpt>
      <trkpt lat="43.16311" lon="0.60071">
        <ele>496.6</ele>
        <time>2025-12-29T10:38:31Z</time>
      </trkpt>
      <trkpt lat="43.16312" lon="0.60074">
        <ele>496.6</ele>
        <time>2025-12-29T10:38:32Z</time>
      </trkpt>
      <trkpt lat="43.16313" lon="0.60078">
        <ele>496.6</ele>
        <time>2025-12-29T10:38:33Z</time>
      </trkpt>
      <trkpt lat="43.16315" lon="0.60082">
        <ele>494.4</ele>
        <time>2025-12-29T10:38:34Z</time>
      </trkpt>
      <trkpt lat="43.16317" lon="0.60086">
        <ele>494.4</ele>
        <time>2025-12-29T10:38:35Z</time>
      </trkpt>
      <trkpt lat="43.16318" lon="0.60091">
        <ele>494.4</ele>
        <time>2025-12-29T10:38:36Z</time>
      </trkpt>
      <trkpt lat="43.1632" lon="0.60095">
        <ele>495</ele>
        <time>2025-12-29T10:38:37Z</time>
      </trkpt>
      <trkpt lat="43.16322" lon="0.601">
        <ele>494.6</ele>
        <time>2025-12-29T10:38:38Z</time>
      </trkpt>
      <trkpt lat="43.16323" lon="0.60104">
        <ele>494.6</ele>
        <time>2025-12-29T10:38:39Z</time>
      </trkpt>
      <trkpt lat="43.16325" lon="0.60108">
        <ele>494.6</ele>
        <time>2025-12-29T10:38:40Z</time>
      </trkpt>
      <trkpt lat="43.16327" lon="0.60113">
        <ele>493.8</ele>
        <time>2025-12-29T10:38:41Z</time>
      </trkpt>
      <trkpt lat="43.16329" lon="0.60117">
        <ele>492.8</ele>
        <time>2025-12-29T10:38:42Z</time>
      </trkpt>
      <trkpt lat="43.16331" lon="0.60123">
        <ele>492.8</ele>
        <time>2025-12-29T10:38:43Z</time>
      </trkpt>
      <trkpt lat="43.16333" lon="0.60127">
        <ele>492.8</ele>
        <time>2025-12-29T10:38:44Z</time>
      </trkpt>
      <trkpt lat="43.16335" lon="0.60131">
        <ele>492.8</ele>
        <time>2025-12-29T10:38:45Z</time>
      </trkpt>
      <trkpt lat="43.16336" lon="0.60135">
        <ele>491.4</ele>
        <time>2025-12-29T10:38:46Z</time>
      </trkpt>
      <trkpt lat="43.16338" lon="0.60138">
        <ele>491.4</ele>
        <time>2025-12-29T10:38:47Z</time>
      </trkpt>
      <trkpt lat="43.16341" lon="0.60143">
        <ele>491.4</ele>
        <time>2025-12-29T10:38:48Z</time>
      </trkpt>
      <trkpt lat="43.16344" lon="0.60147">
        <ele>491.4</ele>
        <time>2025-12-29T10:38:49Z</time>
      </trkpt>
      <trkpt lat="43.16347" lon="0.60151">
        <ele>491.8</ele>
        <time>2025-12-29T10:38:50Z</time>
      </trkpt>
      <trkpt lat="43.1635" lon="0.60155">
        <ele>491.8</ele>
        <time>2025-12-29T10:38:51Z</time>
      </trkpt>
      <trkpt lat="43.16353" lon="0.60159">
        <ele>491.8</ele>
        <time>2025-12-29T10:38:52Z</time>
      </trkpt>
      <trkpt lat="43.16357" lon="0.60163">
        <ele>490.8</ele>
        <time>2025-12-29T10:38:53Z</time>
      </trkpt>
      <trkpt lat="43.16359" lon="0.60167">
        <ele>490.6</ele>
        <time>2025-12-29T10:38:54Z</time>
      </trkpt>
      <trkpt lat="43.16362" lon="0.60171">
        <ele>490.6</ele>
        <time>2025-12-29T10:38:55Z</time>
      </trkpt>
      <trkpt lat="43.16365" lon="0.60176">
        <ele>490.6</ele>
        <time>2025-12-29T10:38:56Z</time>
      </trkpt>
      <trkpt lat="43.16368" lon="0.60182">
        <ele>490</ele>
        <time>2025-12-29T10:38:57Z</time>
      </trkpt>
      <trkpt lat="43.16371" lon="0.60188">
        <ele>490</ele>
        <time>2025-12-29T10:38:58Z</time>
      </trkpt>
      <trkpt lat="43.16374" lon="0.60195">
        <ele>490</ele>
        <time>2025-12-29T10:38:59Z</time>
      </trkpt>
      <trkpt lat="43.16376" lon="0.60201">
        <ele>490</ele>
        <time>2025-12-29T10:39:00Z</time>
      </trkpt>
      <trkpt lat="43.16378" lon="0.60207">
        <ele>490</ele>
        <time>2025-12-29T10:39:01Z</time>
      </trkpt>
      <trkpt lat="43.1638" lon="0.60213">
        <ele>486.8</ele>
        <time>2025-12-29T10:39:02Z</time>
      </trkpt>
      <trkpt lat="43.16383" lon="0.60219">
        <ele>486.8</ele>
        <time>2025-12-29T10:39:03Z</time>
      </trkpt>
      <trkpt lat="43.16386" lon="0.60225">
        <ele>486.8</ele>
        <time>2025-12-29T10:39:04Z</time>
      </trkpt>
      <trkpt lat="43.16388" lon="0.60231">
        <ele>486.8</ele>
        <time>2025-12-29T10:39:05Z</time>
      </trkpt>
      <trkpt lat="43.1639" lon="0.60238">
        <ele>487.4</ele>
        <time>2025-12-29T10:39:06Z</time>
      </trkpt>
      <trkpt lat="43.16392" lon="0.60245">
        <ele>487.4</ele>
        <time>2025-12-29T10:39:07Z</time>
      </trkpt>
      <trkpt lat="43.16394" lon="0.60251">
        <ele>487.4</ele>
        <time>2025-12-29T10:39:08Z</time>
      </trkpt>
      <trkpt lat="43.16396" lon="0.60258">
        <ele>487.4</ele>
        <time>2025-12-29T10:39:09Z</time>
      </trkpt>
      <trkpt lat="43.16398" lon="0.60263">
        <ele>488.8</ele>
        <time>2025-12-29T10:39:10Z</time>
      </trkpt>
      <trkpt lat="43.16399" lon="0.60269">
        <ele>488.8</ele>
        <time>2025-12-29T10:39:11Z</time>
      </trkpt>
      <trkpt lat="43.16401" lon="0.60274">
        <ele>488.8</ele>
        <time>2025-12-29T10:39:12Z</time>
      </trkpt>
      <trkpt lat="43.16402" lon="0.60279">
        <ele>487.8</ele>
        <time>2025-12-29T10:39:13Z</time>
      </trkpt>
      <trkpt lat="43.16403" lon="0.60283">
        <ele>487.4</ele>
        <time>2025-12-29T10:39:14Z</time>
      </trkpt>
      <trkpt lat="43.16404" lon="0.60288">
        <ele>487.4</ele>
        <time>2025-12-29T10:39:15Z</time>
      </trkpt>
      <trkpt lat="43.16405" lon="0.60294">
        <ele>487.4</ele>
        <time>2025-12-29T10:39:16Z</time>
      </trkpt>
      <trkpt lat="43.16405" lon="0.60299">
        <ele>487.4</ele>
        <time>2025-12-29T10:39:17Z</time>
      </trkpt>
      <trkpt lat="43.16406" lon="0.60305">
        <ele>488</ele>
        <time>2025-12-29T10:39:18Z</time>
      </trkpt>
      <trkpt lat="43.16406" lon="0.6031">
        <ele>488</ele>
        <time>2025-12-29T10:39:19Z</time>
      </trkpt>
      <trkpt lat="43.16406" lon="0.60316">
        <ele>488</ele>
        <time>2025-12-29T10:39:20Z</time>
      </trkpt>
      <trkpt lat="43.16407" lon="0.60322">
        <ele>488</ele>
        <time>2025-12-29T10:39:21Z</time>
      </trkpt>
      <trkpt lat="43.16407" lon="0.60327">
        <ele>486.6</ele>
        <time>2025-12-29T10:39:22Z</time>
      </trkpt>
      <trkpt lat="43.16407" lon="0.60333">
        <ele>486.6</ele>
        <time>2025-12-29T10:39:23Z</time>
      </trkpt>
      <trkpt lat="43.16408" lon="0.60338">
        <ele>486.6</ele>
        <time>2025-12-29T10:39:24Z</time>
      </trkpt>
      <trkpt lat="43.16408" lon="0.60343">
        <ele>486.6</ele>
        <time>2025-12-29T10:39:25Z</time>
      </trkpt>
      <trkpt lat="43.16408" lon="0.60349">
        <ele>485</ele>
        <time>2025-12-29T10:39:26Z</time>
      </trkpt>
      <trkpt lat="43.16409" lon="0.60356">
        <ele>485</ele>
        <time>2025-12-29T10:39:27Z</time>
      </trkpt>
      <trkpt lat="43.16409" lon="0.60363">
        <ele>485</ele>
        <time>2025-12-29T10:39:28Z</time>
      </trkpt>
      <trkpt lat="43.1641" lon="0.6037">
        <ele>484</ele>
        <time>2025-12-29T10:39:29Z</time>
      </trkpt>
      <trkpt lat="43.16411" lon="0.60377">
        <ele>483</ele>
        <time>2025-12-29T10:39:30Z</time>
      </trkpt>
      <trkpt lat="43.16412" lon="0.60384">
        <ele>483</ele>
        <time>2025-12-29T10:39:31Z</time>
      </trkpt>
      <trkpt lat="43.16413" lon="0.60391">
        <ele>483</ele>
        <time>2025-12-29T10:39:32Z</time>
      </trkpt>
      <trkpt lat="43.16414" lon="0.60399">
        <ele>483</ele>
        <time>2025-12-29T10:39:33Z</time>
      </trkpt>
      <trkpt lat="43.16415" lon="0.60406">
        <ele>481.6</ele>
        <time>2025-12-29T10:39:34Z</time>
      </trkpt>
      <trkpt lat="43.16417" lon="0.60413">
        <ele>481.6</ele>
        <time>2025-12-29T10:39:35Z</time>
      </trkpt>
      <trkpt lat="43.16419" lon="0.60419">
        <ele>481.6</ele>
        <time>2025-12-29T10:39:36Z</time>
      </trkpt>
      <trkpt lat="43.16421" lon="0.60425">
        <ele>481.8</ele>
        <time>2025-12-29T10:39:37Z</time>
      </trkpt>
      <trkpt lat="43.16423" lon="0.60432">
        <ele>481.8</ele>
        <time>2025-12-29T10:39:38Z</time>
      </trkpt>
      <trkpt lat="43.16425" lon="0.60437">
        <ele>481.8</ele>
        <time>2025-12-29T10:39:39Z</time>
      </trkpt>
      <trkpt lat="43.16428" lon="0.60443">
        <ele>481.8</ele>
        <time>2025-12-29T10:39:40Z</time>
      </trkpt>
      <trkpt lat="43.1643" lon="0.60448">
        <ele>481.8</ele>
        <time>2025-12-29T10:39:41Z</time>
      </trkpt>
      <trkpt lat="43.16432" lon="0.60453">
        <ele>481.6</ele>
        <time>2025-12-29T10:39:42Z</time>
      </trkpt>
      <trkpt lat="43.16433" lon="0.60457">
        <ele>481.6</ele>
        <time>2025-12-29T10:39:43Z</time>
      </trkpt>
      <trkpt lat="43.16434" lon="0.60461">
        <ele>481.6</ele>
        <time>2025-12-29T10:39:44Z</time>
      </trkpt>
      <trkpt lat="43.16435" lon="0.60464">
        <ele>481.8</ele>
        <time>2025-12-29T10:39:45Z</time>
      </trkpt>
      <trkpt lat="43.16436" lon="0.60467">
        <ele>481.8</ele>
        <time>2025-12-29T10:39:46Z</time>
      </trkpt>
      <trkpt lat="43.16438" lon="0.60471">
        <ele>481.8</ele>
        <time>2025-12-29T10:39:47Z</time>
      </trkpt>
      <trkpt lat="43.16439" lon="0.60475">
        <ele>481.8</ele>
        <time>2025-12-29T10:39:48Z</time>
      </trkpt>
      <trkpt lat="43.1644" lon="0.60478">
        <ele>482</ele>
        <time>2025-12-29T10:39:49Z</time>
      </trkpt>
      <trkpt lat="43.16442" lon="0.60482">
        <ele>482.2</ele>
        <time>2025-12-29T10:39:50Z</time>
      </trkpt>
      <trkpt lat="43.16444" lon="0.60485">
        <ele>482.2</ele>
        <time>2025-12-29T10:39:51Z</time>
      </trkpt>
      <trkpt lat="43.16445" lon="0.60489">
        <ele>482.2</ele>
        <time>2025-12-29T10:39:52Z</time>
      </trkpt>
      <trkpt lat="43.16447" lon="0.60492">
        <ele>482.4</ele>
        <time>2025-12-29T10:39:53Z</time>
      </trkpt>
      <trkpt lat="43.16448" lon="0.60495">
        <ele>482.4</ele>
        <time>2025-12-29T10:39:54Z</time>
      </trkpt>
      <trkpt lat="43.1645" lon="0.60498">
        <ele>482.4</ele>
        <time>2025-12-29T10:39:55Z</time>
      </trkpt>
      <trkpt lat="43.16451" lon="0.60501">
        <ele>482.4</ele>
        <time>2025-12-29T10:39:56Z</time>
      </trkpt>
      <trkpt lat="43.16453" lon="0.60504">
        <ele>482.4</ele>
        <time>2025-12-29T10:39:57Z</time>
      </trkpt>
      <trkpt lat="43.16455" lon="0.60507">
        <ele>483.6</ele>
        <time>2025-12-29T10:39:58Z</time>
      </trkpt>
      <trkpt lat="43.16457" lon="0.6051">
        <ele>483.6</ele>
        <time>2025-12-29T10:39:59Z</time>
      </trkpt>
      <trkpt lat="43.16458" lon="0.60513">
        <ele>483.6</ele>
        <time>2025-12-29T10:40:00Z</time>
      </trkpt>
      <trkpt lat="43.1646" lon="0.60516">
        <ele>483.4</ele>
        <time>2025-12-29T10:40:01Z</time>
      </trkpt>
      <trkpt lat="43.16461" lon="0.6052">
        <ele>483.6</ele>
        <time>2025-12-29T10:40:02Z</time>
      </trkpt>
      <trkpt lat="43.16463" lon="0.60523">
        <ele>483.6</ele>
        <time>2025-12-29T10:40:03Z</time>
      </trkpt>
      <trkpt lat="43.16465" lon="0.60526">
        <ele>483.6</ele>
        <time>2025-12-29T10:40:04Z</time>
      </trkpt>
      <trkpt lat="43.16466" lon="0.60529">
        <ele>483.6</ele>
        <time>2025-12-29T10:40:05Z</time>
      </trkpt>
      <trkpt lat="43.16468" lon="0.60533">
        <ele>483.6</ele>
        <time>2025-12-29T10:40:06Z</time>
      </trkpt>
      <trkpt lat="43.1647" lon="0.60536">
        <ele>483.6</ele>
        <time>2025-12-29T10:40:07Z</time>
      </trkpt>
      <trkpt lat="43.16471" lon="0.60539">
        <ele>483.6</ele>
        <time>2025-12-29T10:40:08Z</time>
      </trkpt>
      <trkpt lat="43.16473" lon="0.60542">
        <ele>484.6</ele>
        <time>2025-12-29T10:40:09Z</time>
      </trkpt>
      <trkpt lat="43.16474" lon="0.60545">
        <ele>483.6</ele>
        <time>2025-12-29T10:40:10Z</time>
      </trkpt>
      <trkpt lat="43.16476" lon="0.60548">
        <ele>483.6</ele>
        <time>2025-12-29T10:40:11Z</time>
      </trkpt>
      <trkpt lat="43.16477" lon="0.60551">
        <ele>483.6</ele>
        <time>2025-12-29T10:40:12Z</time>
      </trkpt>
      <trkpt lat="43.16479" lon="0.60554">
        <ele>484.2</ele>
        <time>2025-12-29T10:40:13Z</time>
      </trkpt>
      <trkpt lat="43.1648" lon="0.60558">
        <ele>484.2</ele>
        <time>2025-12-29T10:40:14Z</time>
      </trkpt>
      <trkpt lat="43.16482" lon="0.60561">
        <ele>484.2</ele>
        <time>2025-12-29T10:40:15Z</time>
      </trkpt>
      <trkpt lat="43.16484" lon="0.60564">
        <ele>484.2</ele>
        <time>2025-12-29T10:40:16Z</time>
      </trkpt>
      <trkpt lat="43.16485" lon="0.60567">
        <ele>485</ele>
        <time>2025-12-29T10:40:17Z</time>
      </trkpt>
      <trkpt lat="43.16487" lon="0.60571">
        <ele>485.2</ele>
        <time>2025-12-29T10:40:18Z</time>
      </trkpt>
      <trkpt lat="43.16488" lon="0.60573">
        <ele>485.2</ele>
        <time>2025-12-29T10:40:19Z</time>
      </trkpt>
      <trkpt lat="43.1649" lon="0.60576">
        <ele>485.2</ele>
        <time>2025-12-29T10:40:20Z</time>
      </trkpt>
      <trkpt lat="43.16492" lon="0.60579">
        <ele>485.2</ele>
        <time>2025-12-29T10:40:21Z</time>
      </trkpt>
      <trkpt lat="43.16493" lon="0.60581">
        <ele>485.6</ele>
        <time>2025-12-29T10:40:22Z</time>
      </trkpt>
      <trkpt lat="43.16495" lon="0.60585">
        <ele>485.6</ele>
        <time>2025-12-29T10:40:23Z</time>
      </trkpt>
      <trkpt lat="43.16496" lon="0.60588">
        <ele>485.6</ele>
        <time>2025-12-29T10:40:24Z</time>
      </trkpt>
      <trkpt lat="43.16497" lon="0.60591">
        <ele>486.4</ele>
        <time>2025-12-29T10:40:25Z</time>
      </trkpt>
      <trkpt lat="43.16498" lon="0.60594">
        <ele>488.2</ele>
        <time>2025-12-29T10:40:26Z</time>
      </trkpt>
      <trkpt lat="43.165" lon="0.60597">
        <ele>488.2</ele>
        <time>2025-12-29T10:40:27Z</time>
      </trkpt>
      <trkpt lat="43.16501" lon="0.60599">
        <ele>488.2</ele>
        <time>2025-12-29T10:40:28Z</time>
      </trkpt>
      <trkpt lat="43.16503" lon="0.60602">
        <ele>487.4</ele>
        <time>2025-12-29T10:40:29Z</time>
      </trkpt>
      <trkpt lat="43.16503" lon="0.60605">
        <ele>488.2</ele>
        <time>2025-12-29T10:40:30Z</time>
      </trkpt>
      <trkpt lat="43.16504" lon="0.60608">
        <ele>488.2</ele>
        <time>2025-12-29T10:40:31Z</time>
      </trkpt>
      <trkpt lat="43.16506" lon="0.60612">
        <ele>488.2</ele>
        <time>2025-12-29T10:40:32Z</time>
      </trkpt>
      <trkpt lat="43.16507" lon="0.60615">
        <ele>488.2</ele>
        <time>2025-12-29T10:40:33Z</time>
      </trkpt>
      <trkpt lat="43.16509" lon="0.60617">
        <ele>488.4</ele>
        <time>2025-12-29T10:40:34Z</time>
      </trkpt>
      <trkpt lat="43.1651" lon="0.6062">
        <ele>488.4</ele>
        <time>2025-12-29T10:40:35Z</time>
      </trkpt>
      <trkpt lat="43.16511" lon="0.60622">
        <ele>488.4</ele>
        <time>2025-12-29T10:40:36Z</time>
      </trkpt>
      <trkpt lat="43.16512" lon="0.60625">
        <ele>488.4</ele>
        <time>2025-12-29T10:40:37Z</time>
      </trkpt>
      <trkpt lat="43.16514" lon="0.60628">
        <ele>490</ele>
        <time>2025-12-29T10:40:38Z</time>
      </trkpt>
      <trkpt lat="43.16515" lon="0.6063">
        <ele>490</ele>
        <time>2025-12-29T10:40:39Z</time>
      </trkpt>
      <trkpt lat="43.16516" lon="0.60633">
        <ele>490</ele>
        <time>2025-12-29T10:40:40Z</time>
      </trkpt>
      <trkpt lat="43.16517" lon="0.60636">
        <ele>489.6</ele>
        <time>2025-12-29T10:40:41Z</time>
      </trkpt>
      <trkpt lat="43.16518" lon="0.60639">
        <ele>490</ele>
        <time>2025-12-29T10:40:42Z</time>
      </trkpt>
      <trkpt lat="43.1652" lon="0.60642">
        <ele>490</ele>
        <time>2025-12-29T10:40:43Z</time>
      </trkpt>
      <trkpt lat="43.16521" lon="0.60645">
        <ele>490</ele>
        <time>2025-12-29T10:40:44Z</time>
      </trkpt>
      <trkpt lat="43.16522" lon="0.60648">
        <ele>490</ele>
        <time>2025-12-29T10:40:45Z</time>
      </trkpt>
      <trkpt lat="43.16523" lon="0.60651">
        <ele>490.6</ele>
        <time>2025-12-29T10:40:46Z</time>
      </trkpt>
      <trkpt lat="43.16524" lon="0.60654">
        <ele>490.6</ele>
        <time>2025-12-29T10:40:47Z</time>
      </trkpt>
      <trkpt lat="43.16526" lon="0.60657">
        <ele>490.6</ele>
        <time>2025-12-29T10:40:48Z</time>
      </trkpt>
      <trkpt lat="43.16527" lon="0.6066">
        <ele>490.6</ele>
        <time>2025-12-29T10:40:49Z</time>
      </trkpt>
      <trkpt lat="43.16528" lon="0.60663">
        <ele>491.4</ele>
        <time>2025-12-29T10:40:50Z</time>
      </trkpt>
      <trkpt lat="43.1653" lon="0.60666">
        <ele>491.4</ele>
        <time>2025-12-29T10:40:51Z</time>
      </trkpt>
      <trkpt lat="43.16531" lon="0.60669">
        <ele>491.4</ele>
        <time>2025-12-29T10:40:52Z</time>
      </trkpt>
      <trkpt lat="43.16533" lon="0.60672">
        <ele>491.4</ele>
        <time>2025-12-29T10:40:53Z</time>
      </trkpt>
      <trkpt lat="43.16534" lon="0.60675">
        <ele>493.2</ele>
        <time>2025-12-29T10:40:54Z</time>
      </trkpt>
      <trkpt lat="43.16536" lon="0.60678">
        <ele>493.2</ele>
        <time>2025-12-29T10:40:55Z</time>
      </trkpt>
      <trkpt lat="43.16537" lon="0.60681">
        <ele>493.2</ele>
        <time>2025-12-29T10:40:56Z</time>
      </trkpt>
      <trkpt lat="43.16538" lon="0.60683">
        <ele>492.4</ele>
        <time>2025-12-29T10:40:57Z</time>
      </trkpt>
      <trkpt lat="43.1654" lon="0.60686">
        <ele>492.4</ele>
        <time>2025-12-29T10:40:58Z</time>
      </trkpt>
      <trkpt lat="43.16541" lon="0.60689">
        <ele>492.4</ele>
        <time>2025-12-29T10:40:59Z</time>
      </trkpt>
      <trkpt lat="43.16543" lon="0.60691">
        <ele>492.4</ele>
        <time>2025-12-29T10:41:00Z</time>
      </trkpt>
      <trkpt lat="43.16544" lon="0.60693">
        <ele>493.4</ele>
        <time>2025-12-29T10:41:01Z</time>
      </trkpt>
      <trkpt lat="43.16546" lon="0.60696">
        <ele>495.2</ele>
        <time>2025-12-29T10:41:02Z</time>
      </trkpt>
      <trkpt lat="43.16548" lon="0.60698">
        <ele>495.2</ele>
        <time>2025-12-29T10:41:03Z</time>
      </trkpt>
      <trkpt lat="43.16549" lon="0.60701">
        <ele>495.2</ele>
        <time>2025-12-29T10:41:04Z</time>
      </trkpt>
      <trkpt lat="43.16551" lon="0.60703">
        <ele>495.2</ele>
        <time>2025-12-29T10:41:05Z</time>
      </trkpt>
      <trkpt lat="43.16552" lon="0.60706">
        <ele>494.8</ele>
        <time>2025-12-29T10:41:06Z</time>
      </trkpt>
      <trkpt lat="43.16554" lon="0.60708">
        <ele>494.8</ele>
        <time>2025-12-29T10:41:07Z</time>
      </trkpt>
      <trkpt lat="43.16556" lon="0.60711">
        <ele>494.8</ele>
        <time>2025-12-29T10:41:08Z</time>
      </trkpt>
      <trkpt lat="43.16558" lon="0.60713">
        <ele>494.8</ele>
        <time>2025-12-29T10:41:09Z</time>
      </trkpt>
      <trkpt lat="43.1656" lon="0.60716">
        <ele>495</ele>
        <time>2025-12-29T10:41:10Z</time>
      </trkpt>
      <trkpt lat="43.16561" lon="0.60718">
        <ele>495</ele>
        <time>2025-12-29T10:41:11Z</time>
      </trkpt>
      <trkpt lat="43.16563" lon="0.6072">
        <ele>495</ele>
        <time>2025-12-29T10:41:12Z</time>
      </trkpt>
      <trkpt lat="43.16565" lon="0.60722">
        <ele>496</ele>
        <time>2025-12-29T10:41:13Z</time>
      </trkpt>
      <trkpt lat="43.16566" lon="0.60725">
        <ele>495.4</ele>
        <time>2025-12-29T10:41:14Z</time>
      </trkpt>
      <trkpt lat="43.16568" lon="0.60727">
        <ele>495.4</ele>
        <time>2025-12-29T10:41:15Z</time>
      </trkpt>
      <trkpt lat="43.1657" lon="0.60729">
        <ele>495.4</ele>
        <time>2025-12-29T10:41:16Z</time>
      </trkpt>
      <trkpt lat="43.16571" lon="0.60732">
        <ele>495.8</ele>
        <time>2025-12-29T10:41:17Z</time>
      </trkpt>
      <trkpt lat="43.16573" lon="0.60734">
        <ele>495.8</ele>
        <time>2025-12-29T10:41:18Z</time>
      </trkpt>
      <trkpt lat="43.16575" lon="0.60736">
        <ele>495.8</ele>
        <time>2025-12-29T10:41:19Z</time>
      </trkpt>
      <trkpt lat="43.16576" lon="0.60739">
        <ele>495.8</ele>
        <time>2025-12-29T10:41:20Z</time>
      </trkpt>
      <trkpt lat="43.16578" lon="0.60741">
        <ele>495.8</ele>
        <time>2025-12-29T10:41:21Z</time>
      </trkpt>
      <trkpt lat="43.1658" lon="0.60743">
        <ele>496.4</ele>
        <time>2025-12-29T10:41:22Z</time>
      </trkpt>
      <trkpt lat="43.16581" lon="0.60745">
        <ele>496.4</ele>
        <time>2025-12-29T10:41:23Z</time>
      </trkpt>
      <trkpt lat="43.16583" lon="0.60748">
        <ele>496.4</ele>
        <time>2025-12-29T10:41:24Z</time>
      </trkpt>
      <trkpt lat="43.16585" lon="0.6075">
        <ele>496.4</ele>
        <time>2025-12-29T10:41:25Z</time>
      </trkpt>
      <trkpt lat="43.16586" lon="0.60752">
        <ele>496.8</ele>
        <time>2025-12-29T10:41:26Z</time>
      </trkpt>
      <trkpt lat="43.16588" lon="0.60755">
        <ele>496.8</ele>
        <time>2025-12-29T10:41:27Z</time>
      </trkpt>
      <trkpt lat="43.16589" lon="0.60757">
        <ele>496.8</ele>
        <time>2025-12-29T10:41:28Z</time>
      </trkpt>
      <trkpt lat="43.16591" lon="0.6076">
        <ele>496.4</ele>
        <time>2025-12-29T10:41:29Z</time>
      </trkpt>
      <trkpt lat="43.16593" lon="0.60762">
        <ele>497</ele>
        <time>2025-12-29T10:41:30Z</time>
      </trkpt>
      <trkpt lat="43.16594" lon="0.60765">
        <ele>497</ele>
        <time>2025-12-29T10:41:31Z</time>
      </trkpt>
      <trkpt lat="43.16596" lon="0.60767">
        <ele>497</ele>
        <time>2025-12-29T10:41:32Z</time>
      </trkpt>
      <trkpt lat="43.16597" lon="0.6077">
        <ele>497</ele>
        <time>2025-12-29T10:41:33Z</time>
      </trkpt>
      <trkpt lat="43.16599" lon="0.60772">
        <ele>496.6</ele>
        <time>2025-12-29T10:41:34Z</time>
      </trkpt>
      <trkpt lat="43.16601" lon="0.60775">
        <ele>496.6</ele>
        <time>2025-12-29T10:41:35Z</time>
      </trkpt>
      <trkpt lat="43.16602" lon="0.60777">
        <ele>496.6</ele>
        <time>2025-12-29T10:41:36Z</time>
      </trkpt>
      <trkpt lat="43.16604" lon="0.6078">
        <ele>496.6</ele>
        <time>2025-12-29T10:41:37Z</time>
      </trkpt>
      <trkpt lat="43.16605" lon="0.60782">
        <ele>497.8</ele>
        <time>2025-12-29T10:41:38Z</time>
      </trkpt>
      <trkpt lat="43.16607" lon="0.60785">
        <ele>497.8</ele>
        <time>2025-12-29T10:41:39Z</time>
      </trkpt>
      <trkpt lat="43.16609" lon="0.60787">
        <ele>497.8</ele>
        <time>2025-12-29T10:41:40Z</time>
      </trkpt>
      <trkpt lat="43.16611" lon="0.6079">
        <ele>497.8</ele>
        <time>2025-12-29T10:41:41Z</time>
      </trkpt>
      <trkpt lat="43.16613" lon="0.60793">
        <ele>497.2</ele>
        <time>2025-12-29T10:41:42Z</time>
      </trkpt>
      <trkpt lat="43.16614" lon="0.60795">
        <ele>497.2</ele>
        <time>2025-12-29T10:41:43Z</time>
      </trkpt>
      <trkpt lat="43.16616" lon="0.60799">
        <ele>497.2</ele>
        <time>2025-12-29T10:41:44Z</time>
      </trkpt>
      <trkpt lat="43.16617" lon="0.60802">
        <ele>497.2</ele>
        <time>2025-12-29T10:41:45Z</time>
      </trkpt>
      <trkpt lat="43.16618" lon="0.60805">
        <ele>497.4</ele>
        <time>2025-12-29T10:41:46Z</time>
      </trkpt>
      <trkpt lat="43.16619" lon="0.60808">
        <ele>497.4</ele>
        <time>2025-12-29T10:41:47Z</time>
      </trkpt>
      <trkpt lat="43.16621" lon="0.60811">
        <ele>497.4</ele>
        <time>2025-12-29T10:41:48Z</time>
      </trkpt>
      <trkpt lat="43.16622" lon="0.60814">
        <ele>497.4</ele>
        <time>2025-12-29T10:41:49Z</time>
      </trkpt>
      <trkpt lat="43.16623" lon="0.60817">
        <ele>496.8</ele>
        <time>2025-12-29T10:41:50Z</time>
      </trkpt>
      <trkpt lat="43.16625" lon="0.6082">
        <ele>496.8</ele>
        <time>2025-12-29T10:41:51Z</time>
      </trkpt>
      <trkpt lat="43.16626" lon="0.60823">
        <ele>496.8</ele>
        <time>2025-12-29T10:41:52Z</time>
      </trkpt>
      <trkpt lat="43.16628" lon="0.60826">
        <ele>497.8</ele>
        <time>2025-12-29T10:41:53Z</time>
      </trkpt>
      <trkpt lat="43.16629" lon="0.60829">
        <ele>496.4</ele>
        <time>2025-12-29T10:41:54Z</time>
      </trkpt>
      <trkpt lat="43.16631" lon="0.60833">
        <ele>496.4</ele>
        <time>2025-12-29T10:41:55Z</time>
      </trkpt>
      <trkpt lat="43.16632" lon="0.60836">
        <ele>496.4</ele>
        <time>2025-12-29T10:41:56Z</time>
      </trkpt>
      <trkpt lat="43.16634" lon="0.6084">
        <ele>496.4</ele>
        <time>2025-12-29T10:41:57Z</time>
      </trkpt>
      <trkpt lat="43.16635" lon="0.60844">
        <ele>497.6</ele>
        <time>2025-12-29T10:41:58Z</time>
      </trkpt>
      <trkpt lat="43.16637" lon="0.60849">
        <ele>497.6</ele>
        <time>2025-12-29T10:41:59Z</time>
      </trkpt>
      <trkpt lat="43.16639" lon="0.60853">
        <ele>497.6</ele>
        <time>2025-12-29T10:42:00Z</time>
      </trkpt>
      <trkpt lat="43.16642" lon="0.60858">
        <ele>496.6</ele>
        <time>2025-12-29T10:42:01Z</time>
      </trkpt>
      <trkpt lat="43.16644" lon="0.60863">
        <ele>497.6</ele>
        <time>2025-12-29T10:42:02Z</time>
      </trkpt>
      <trkpt lat="43.16646" lon="0.60869">
        <ele>497.6</ele>
        <time>2025-12-29T10:42:03Z</time>
      </trkpt>
      <trkpt lat="43.16649" lon="0.60874">
        <ele>497.6</ele>
        <time>2025-12-29T10:42:04Z</time>
      </trkpt>
      <trkpt lat="43.16651" lon="0.6088">
        <ele>496.6</ele>
        <time>2025-12-29T10:42:05Z</time>
      </trkpt>
      <trkpt lat="43.16654" lon="0.60886">
        <ele>495.8</ele>
        <time>2025-12-29T10:42:06Z</time>
      </trkpt>
      <trkpt lat="43.16656" lon="0.60893">
        <ele>495.8</ele>
        <time>2025-12-29T10:42:07Z</time>
      </trkpt>
      <trkpt lat="43.16659" lon="0.60899">
        <ele>495.8</ele>
        <time>2025-12-29T10:42:08Z</time>
      </trkpt>
      <trkpt lat="43.16661" lon="0.60906">
        <ele>494.8</ele>
        <time>2025-12-29T10:42:09Z</time>
      </trkpt>
      <trkpt lat="43.16664" lon="0.60912">
        <ele>493.6</ele>
        <time>2025-12-29T10:42:10Z</time>
      </trkpt>
      <trkpt lat="43.16667" lon="0.60918">
        <ele>493.6</ele>
        <time>2025-12-29T10:42:11Z</time>
      </trkpt>
      <trkpt lat="43.1667" lon="0.60923">
        <ele>493.6</ele>
        <time>2025-12-29T10:42:12Z</time>
      </trkpt>
      <trkpt lat="43.16672" lon="0.60929">
        <ele>492.6</ele>
        <time>2025-12-29T10:42:13Z</time>
      </trkpt>
      <trkpt lat="43.16674" lon="0.60933">
        <ele>492.2</ele>
        <time>2025-12-29T10:42:14Z</time>
      </trkpt>
      <trkpt lat="43.16676" lon="0.60938">
        <ele>492.2</ele>
        <time>2025-12-29T10:42:15Z</time>
      </trkpt>
      <trkpt lat="43.16678" lon="0.60942">
        <ele>492.2</ele>
        <time>2025-12-29T10:42:16Z</time>
      </trkpt>
      <trkpt lat="43.16679" lon="0.60945">
        <ele>493.2</ele>
        <time>2025-12-29T10:42:17Z</time>
      </trkpt>
      <trkpt lat="43.16681" lon="0.60949">
        <ele>494.2</ele>
        <time>2025-12-29T10:42:18Z</time>
      </trkpt>
      <trkpt lat="43.16683" lon="0.60952">
        <ele>494.2</ele>
        <time>2025-12-29T10:42:19Z</time>
      </trkpt>
      <trkpt lat="43.16685" lon="0.60955">
        <ele>494.2</ele>
        <time>2025-12-29T10:42:20Z</time>
      </trkpt>
      <trkpt lat="43.16686" lon="0.60958">
        <ele>494.2</ele>
        <time>2025-12-29T10:42:21Z</time>
      </trkpt>
      <trkpt lat="43.16688" lon="0.60961">
        <ele>493.4</ele>
        <time>2025-12-29T10:42:22Z</time>
      </trkpt>
      <trkpt lat="43.16689" lon="0.60965">
        <ele>493.4</ele>
        <time>2025-12-29T10:42:23Z</time>
      </trkpt>
      <trkpt lat="43.16691" lon="0.60969">
        <ele>493.4</ele>
        <time>2025-12-29T10:42:24Z</time>
      </trkpt>
      <trkpt lat="43.16692" lon="0.60972">
        <ele>494.4</ele>
        <time>2025-12-29T10:42:25Z</time>
      </trkpt>
      <trkpt lat="43.16694" lon="0.60976">
        <ele>494.8</ele>
        <time>2025-12-29T10:42:26Z</time>
      </trkpt>
      <trkpt lat="43.16695" lon="0.60979">
        <ele>494.8</ele>
        <time>2025-12-29T10:42:27Z</time>
      </trkpt>
      <trkpt lat="43.16697" lon="0.60983">
        <ele>494.8</ele>
        <time>2025-12-29T10:42:28Z</time>
      </trkpt>
      <trkpt lat="43.16698" lon="0.60987">
        <ele>494.4</ele>
        <time>2025-12-29T10:42:29Z</time>
      </trkpt>
      <trkpt lat="43.167" lon="0.60991">
        <ele>494.4</ele>
        <time>2025-12-29T10:42:30Z</time>
      </trkpt>
      <trkpt lat="43.16702" lon="0.60995">
        <ele>494.4</ele>
        <time>2025-12-29T10:42:31Z</time>
      </trkpt>
      <trkpt lat="43.16704" lon="0.60998">
        <ele>494.4</ele>
        <time>2025-12-29T10:42:32Z</time>
      </trkpt>
      <trkpt lat="43.16705" lon="0.61002">
        <ele>494</ele>
        <time>2025-12-29T10:42:33Z</time>
      </trkpt>
      <trkpt lat="43.16708" lon="0.61005">
        <ele>495.4</ele>
        <time>2025-12-29T10:42:34Z</time>
      </trkpt>
      <trkpt lat="43.16711" lon="0.61008">
        <ele>495.4</ele>
        <time>2025-12-29T10:42:35Z</time>
      </trkpt>
      <trkpt lat="43.16713" lon="0.61012">
        <ele>495.4</ele>
        <time>2025-12-29T10:42:36Z</time>
      </trkpt>
      <trkpt lat="43.16716" lon="0.61016">
        <ele>494.4</ele>
        <time>2025-12-29T10:42:37Z</time>
      </trkpt>
      <trkpt lat="43.16718" lon="0.6102">
        <ele>493.8</ele>
        <time>2025-12-29T10:42:38Z</time>
      </trkpt>
      <trkpt lat="43.16719" lon="0.61024">
        <ele>493.8</ele>
        <time>2025-12-29T10:42:39Z</time>
      </trkpt>
      <trkpt lat="43.16721" lon="0.61028">
        <ele>493.8</ele>
        <time>2025-12-29T10:42:40Z</time>
      </trkpt>
      <trkpt lat="43.16723" lon="0.61032">
        <ele>493.8</ele>
        <time>2025-12-29T10:42:41Z</time>
      </trkpt>
      <trkpt lat="43.16726" lon="0.61036">
        <ele>493.8</ele>
        <time>2025-12-29T10:42:42Z</time>
      </trkpt>
      <trkpt lat="43.16729" lon="0.61041">
        <ele>493.8</ele>
        <time>2025-12-29T10:42:43Z</time>
      </trkpt>
      <trkpt lat="43.16732" lon="0.61045">
        <ele>493.8</ele>
        <time>2025-12-29T10:42:44Z</time>
      </trkpt>
      <trkpt lat="43.16735" lon="0.6105">
        <ele>493.8</ele>
        <time>2025-12-29T10:42:45Z</time>
      </trkpt>
      <trkpt lat="43.16738" lon="0.61054">
        <ele>493.6</ele>
        <time>2025-12-29T10:42:46Z</time>
      </trkpt>
      <trkpt lat="43.1674" lon="0.61058">
        <ele>493.6</ele>
        <time>2025-12-29T10:42:47Z</time>
      </trkpt>
      <trkpt lat="43.16742" lon="0.61062">
        <ele>493.6</ele>
        <time>2025-12-29T10:42:48Z</time>
      </trkpt>
      <trkpt lat="43.16745" lon="0.61066">
        <ele>493.6</ele>
        <time>2025-12-29T10:42:49Z</time>
      </trkpt>
      <trkpt lat="43.16747" lon="0.61069">
        <ele>493.8</ele>
        <time>2025-12-29T10:42:50Z</time>
      </trkpt>
      <trkpt lat="43.16749" lon="0.61073">
        <ele>493.8</ele>
        <time>2025-12-29T10:42:51Z</time>
      </trkpt>
      <trkpt lat="43.16751" lon="0.61076">
        <ele>493.8</ele>
        <time>2025-12-29T10:42:52Z</time>
      </trkpt>
      <trkpt lat="43.16753" lon="0.61079">
        <ele>493.8</ele>
        <time>2025-12-29T10:42:53Z</time>
      </trkpt>
      <trkpt lat="43.16755" lon="0.61082">
        <ele>494.4</ele>
        <time>2025-12-29T10:42:54Z</time>
      </trkpt>
      <trkpt lat="43.16757" lon="0.61085">
        <ele>494.4</ele>
        <time>2025-12-29T10:42:55Z</time>
      </trkpt>
      <trkpt lat="43.16758" lon="0.61087">
        <ele>494.4</ele>
        <time>2025-12-29T10:42:56Z</time>
      </trkpt>
      <trkpt lat="43.1676" lon="0.6109">
        <ele>494.4</ele>
        <time>2025-12-29T10:42:57Z</time>
      </trkpt>
      <trkpt lat="43.16761" lon="0.61093">
        <ele>494</ele>
        <time>2025-12-29T10:42:58Z</time>
      </trkpt>
      <trkpt lat="43.16763" lon="0.61095">
        <ele>494</ele>
        <time>2025-12-29T10:42:59Z</time>
      </trkpt>
      <trkpt lat="43.16765" lon="0.61098">
        <ele>494</ele>
        <time>2025-12-29T10:43:00Z</time>
      </trkpt>
      <trkpt lat="43.16767" lon="0.611">
        <ele>493.4</ele>
        <time>2025-12-29T10:43:01Z</time>
      </trkpt>
      <trkpt lat="43.16768" lon="0.61102">
        <ele>494</ele>
        <time>2025-12-29T10:43:02Z</time>
      </trkpt>
      <trkpt lat="43.1677" lon="0.61105">
        <ele>494</ele>
        <time>2025-12-29T10:43:03Z</time>
      </trkpt>
      <trkpt lat="43.16771" lon="0.61107">
        <ele>494</ele>
        <time>2025-12-29T10:43:04Z</time>
      </trkpt>
      <trkpt lat="43.16771" lon="0.61109">
        <ele>494</ele>
        <time>2025-12-29T10:43:05Z</time>
      </trkpt>
      <trkpt lat="43.16772" lon="0.61111">
        <ele>495</ele>
        <time>2025-12-29T10:43:06Z</time>
      </trkpt>
      <trkpt lat="43.16774" lon="0.61113">
        <ele>495</ele>
        <time>2025-12-29T10:43:07Z</time>
      </trkpt>
      <trkpt lat="43.16775" lon="0.61115">
        <ele>495</ele>
        <time>2025-12-29T10:43:08Z</time>
      </trkpt>
      <trkpt lat="43.16775" lon="0.61116">
        <ele>494.4</ele>
        <time>2025-12-29T10:43:09Z</time>
      </trkpt>
      <trkpt lat="43.16776" lon="0.61118">
        <ele>494.2</ele>
        <time>2025-12-29T10:43:10Z</time>
      </trkpt>
      <trkpt lat="43.16777" lon="0.61119">
        <ele>494.2</ele>
        <time>2025-12-29T10:43:11Z</time>
      </trkpt>
      <trkpt lat="43.16779" lon="0.61121">
        <ele>494.2</ele>
        <time>2025-12-29T10:43:12Z</time>
      </trkpt>
      <trkpt lat="43.1678" lon="0.61122">
        <ele>495</ele>
        <time>2025-12-29T10:43:13Z</time>
      </trkpt>
      <trkpt lat="43.16781" lon="0.61124">
        <ele>494.8</ele>
        <time>2025-12-29T10:43:14Z</time>
      </trkpt>
      <trkpt lat="43.16782" lon="0.61127">
        <ele>494.8</ele>
        <time>2025-12-29T10:43:15Z</time>
      </trkpt>
      <trkpt lat="43.16783" lon="0.61129">
        <ele>494.8</ele>
        <time>2025-12-29T10:43:16Z</time>
      </trkpt>
      <trkpt lat="43.16784" lon="0.61131">
        <ele>494.8</ele>
        <time>2025-12-29T10:43:17Z</time>
      </trkpt>
      <trkpt lat="43.16786" lon="0.61132">
        <ele>494.8</ele>
        <time>2025-12-29T10:43:18Z</time>
      </trkpt>
      <trkpt lat="43.16787" lon="0.61135">
        <ele>494.8</ele>
        <time>2025-12-29T10:43:19Z</time>
      </trkpt>
      <trkpt lat="43.16789" lon="0.61137">
        <ele>494.8</ele>
        <time>2025-12-29T10:43:20Z</time>
      </trkpt>
      <trkpt lat="43.1679" lon="0.61139">
        <ele>495.8</ele>
        <time>2025-12-29T10:43:21Z</time>
      </trkpt>
      <trkpt lat="43.16791" lon="0.61142">
        <ele>495.4</ele>
        <time>2025-12-29T10:43:22Z</time>
      </trkpt>
      <trkpt lat="43.16793" lon="0.61144">
        <ele>495.4</ele>
        <time>2025-12-29T10:43:23Z</time>
      </trkpt>
      <trkpt lat="43.16795" lon="0.61147">
        <ele>495.4</ele>
        <time>2025-12-29T10:43:24Z</time>
      </trkpt>
      <trkpt lat="43.16797" lon="0.6115">
        <ele>495.4</ele>
        <time>2025-12-29T10:43:25Z</time>
      </trkpt>
      <trkpt lat="43.16799" lon="0.61152">
        <ele>494.8</ele>
        <time>2025-12-29T10:43:26Z</time>
      </trkpt>
      <trkpt lat="43.16801" lon="0.61155">
        <ele>494.8</ele>
        <time>2025-12-29T10:43:27Z</time>
      </trkpt>
      <trkpt lat="43.16804" lon="0.61158">
        <ele>494.8</ele>
        <time>2025-12-29T10:43:28Z</time>
      </trkpt>
      <trkpt lat="43.16806" lon="0.61161">
        <ele>494.8</ele>
        <time>2025-12-29T10:43:29Z</time>
      </trkpt>
      <trkpt lat="43.16808" lon="0.61163">
        <ele>496.4</ele>
        <time>2025-12-29T10:43:30Z</time>
      </trkpt>
      <trkpt lat="43.1681" lon="0.61166">
        <ele>496.4</ele>
        <time>2025-12-29T10:43:31Z</time>
      </trkpt>
      <trkpt lat="43.16812" lon="0.61169">
        <ele>496.4</ele>
        <time>2025-12-29T10:43:32Z</time>
      </trkpt>
      <trkpt lat="43.16814" lon="0.61172">
        <ele>496</ele>
        <time>2025-12-29T10:43:33Z</time>
      </trkpt>
      <trkpt lat="43.16817" lon="0.61175">
        <ele>495</ele>
        <time>2025-12-29T10:43:34Z</time>
      </trkpt>
      <trkpt lat="43.16819" lon="0.61178">
        <ele>495</ele>
        <time>2025-12-29T10:43:35Z</time>
      </trkpt>
      <trkpt lat="43.16821" lon="0.61181">
        <ele>495</ele>
        <time>2025-12-29T10:43:36Z</time>
      </trkpt>
      <trkpt lat="43.16823" lon="0.61184">
        <ele>496</ele>
        <time>2025-12-29T10:43:37Z</time>
      </trkpt>
      <trkpt lat="43.16826" lon="0.61187">
        <ele>495.4</ele>
        <time>2025-12-29T10:43:38Z</time>
      </trkpt>
      <trkpt lat="43.16828" lon="0.6119">
        <ele>495.4</ele>
        <time>2025-12-29T10:43:39Z</time>
      </trkpt>
      <trkpt lat="43.1683" lon="0.61193">
        <ele>495.4</ele>
        <time>2025-12-29T10:43:40Z</time>
      </trkpt>
      <trkpt lat="43.16833" lon="0.61196">
        <ele>495.4</ele>
        <time>2025-12-29T10:43:41Z</time>
      </trkpt>
      <trkpt lat="43.16835" lon="0.61199">
        <ele>496</ele>
        <time>2025-12-29T10:43:42Z</time>
      </trkpt>
      <trkpt lat="43.16837" lon="0.61202">
        <ele>496</ele>
        <time>2025-12-29T10:43:43Z</time>
      </trkpt>
      <trkpt lat="43.1684" lon="0.61205">
        <ele>496</ele>
        <time>2025-12-29T10:43:44Z</time>
      </trkpt>
      <trkpt lat="43.16842" lon="0.61208">
        <ele>496</ele>
        <time>2025-12-29T10:43:45Z</time>
      </trkpt>
      <trkpt lat="43.16845" lon="0.61211">
        <ele>495.8</ele>
        <time>2025-12-29T10:43:46Z</time>
      </trkpt>
      <trkpt lat="43.16847" lon="0.61213">
        <ele>495.8</ele>
        <time>2025-12-29T10:43:47Z</time>
      </trkpt>
      <trkpt lat="43.1685" lon="0.61216">
        <ele>495.8</ele>
        <time>2025-12-29T10:43:48Z</time>
      </trkpt>
      <trkpt lat="43.16852" lon="0.61219">
        <ele>496.2</ele>
        <time>2025-12-29T10:43:49Z</time>
      </trkpt>
      <trkpt lat="43.16855" lon="0.61222">
        <ele>495.4</ele>
        <time>2025-12-29T10:43:50Z</time>
      </trkpt>
      <trkpt lat="43.16858" lon="0.61225">
        <ele>495.4</ele>
        <time>2025-12-29T10:43:51Z</time>
      </trkpt>
      <trkpt lat="43.16861" lon="0.61228">
        <ele>495.4</ele>
        <time>2025-12-29T10:43:52Z</time>
      </trkpt>
      <trkpt lat="43.16863" lon="0.61231">
        <ele>495.4</ele>
        <time>2025-12-29T10:43:53Z</time>
      </trkpt>
      <trkpt lat="43.16866" lon="0.61233">
        <ele>494.4</ele>
        <time>2025-12-29T10:43:54Z</time>
      </trkpt>
      <trkpt lat="43.16869" lon="0.61236">
        <ele>494.4</ele>
        <time>2025-12-29T10:43:55Z</time>
      </trkpt>
      <trkpt lat="43.16872" lon="0.61239">
        <ele>494.4</ele>
        <time>2025-12-29T10:43:56Z</time>
      </trkpt>
      <trkpt lat="43.16875" lon="0.61242">
        <ele>495.4</ele>
        <time>2025-12-29T10:43:57Z</time>
      </trkpt>
      <trkpt lat="43.16877" lon="0.61244">
        <ele>494.8</ele>
        <time>2025-12-29T10:43:58Z</time>
      </trkpt>
      <trkpt lat="43.16879" lon="0.61247">
        <ele>494.8</ele>
        <time>2025-12-29T10:43:59Z</time>
      </trkpt>
      <trkpt lat="43.16882" lon="0.61249">
        <ele>494.8</ele>
        <time>2025-12-29T10:44:00Z</time>
      </trkpt>
      <trkpt lat="43.16885" lon="0.61252">
        <ele>494.8</ele>
        <time>2025-12-29T10:44:01Z</time>
      </trkpt>
      <trkpt lat="43.16887" lon="0.61254">
        <ele>496.8</ele>
        <time>2025-12-29T10:44:02Z</time>
      </trkpt>
      <trkpt lat="43.1689" lon="0.61256">
        <ele>496.8</ele>
        <time>2025-12-29T10:44:03Z</time>
      </trkpt>
      <trkpt lat="43.16893" lon="0.61258">
        <ele>496.8</ele>
        <time>2025-12-29T10:44:04Z</time>
      </trkpt>
      <trkpt lat="43.16896" lon="0.61261">
        <ele>495.8</ele>
        <time>2025-12-29T10:44:05Z</time>
      </trkpt>
      <trkpt lat="43.16899" lon="0.61263">
        <ele>493</ele>
        <time>2025-12-29T10:44:06Z</time>
      </trkpt>
      <trkpt lat="43.16902" lon="0.61265">
        <ele>493</ele>
        <time>2025-12-29T10:44:07Z</time>
      </trkpt>
      <trkpt lat="43.16905" lon="0.61268">
        <ele>493</ele>
        <time>2025-12-29T10:44:08Z</time>
      </trkpt>
      <trkpt lat="43.16908" lon="0.61271">
        <ele>493</ele>
        <time>2025-12-29T10:44:09Z</time>
      </trkpt>
      <trkpt lat="43.16911" lon="0.61273">
        <ele>494.6</ele>
        <time>2025-12-29T10:44:10Z</time>
      </trkpt>
      <trkpt lat="43.16915" lon="0.61276">
        <ele>494.6</ele>
        <time>2025-12-29T10:44:11Z</time>
      </trkpt>
      <trkpt lat="43.16918" lon="0.61278">
        <ele>494.6</ele>
        <time>2025-12-29T10:44:12Z</time>
      </trkpt>
      <trkpt lat="43.16921" lon="0.61281">
        <ele>493.6</ele>
        <time>2025-12-29T10:44:13Z</time>
      </trkpt>
      <trkpt lat="43.16925" lon="0.61283">
        <ele>491.8</ele>
        <time>2025-12-29T10:44:14Z</time>
      </trkpt>
      <trkpt lat="43.16928" lon="0.61286">
        <ele>491.8</ele>
        <time>2025-12-29T10:44:15Z</time>
      </trkpt>
      <trkpt lat="43.16932" lon="0.61289">
        <ele>491.8</ele>
        <time>2025-12-29T10:44:16Z</time>
      </trkpt>
      <trkpt lat="43.16935" lon="0.61291">
        <ele>491.8</ele>
        <time>2025-12-29T10:44:17Z</time>
      </trkpt>
      <trkpt lat="43.16939" lon="0.61294">
        <ele>490.8</ele>
        <time>2025-12-29T10:44:18Z</time>
      </trkpt>
      <trkpt lat="43.16943" lon="0.61298">
        <ele>490.8</ele>
        <time>2025-12-29T10:44:19Z</time>
      </trkpt>
      <trkpt lat="43.16948" lon="0.613">
        <ele>490.8</ele>
        <time>2025-12-29T10:44:20Z</time>
      </trkpt>
      <trkpt lat="43.16952" lon="0.61303">
        <ele>490.8</ele>
        <time>2025-12-29T10:44:21Z</time>
      </trkpt>
      <trkpt lat="43.16955" lon="0.61307">
        <ele>490.2</ele>
        <time>2025-12-29T10:44:22Z</time>
      </trkpt>
      <trkpt lat="43.16958" lon="0.61311">
        <ele>490.2</ele>
        <time>2025-12-29T10:44:23Z</time>
      </trkpt>
      <trkpt lat="43.16961" lon="0.61315">
        <ele>490.2</ele>
        <time>2025-12-29T10:44:24Z</time>
      </trkpt>
      <trkpt lat="43.16962" lon="0.6132">
        <ele>490.2</ele>
        <time>2025-12-29T10:44:25Z</time>
      </trkpt>
      <trkpt lat="43.16964" lon="0.61324">
        <ele>491</ele>
        <time>2025-12-29T10:44:26Z</time>
      </trkpt>
      <trkpt lat="43.16964" lon="0.61327">
        <ele>491</ele>
        <time>2025-12-29T10:44:27Z</time>
      </trkpt>
      <trkpt lat="43.16965" lon="0.61329">
        <ele>491</ele>
        <time>2025-12-29T10:44:28Z</time>
      </trkpt>
      <trkpt lat="43.16966" lon="0.61332">
        <ele>491</ele>
        <time>2025-12-29T10:44:29Z</time>
      </trkpt>
      <trkpt lat="43.16967" lon="0.61334">
        <ele>490.8</ele>
        <time>2025-12-29T10:44:30Z</time>
      </trkpt>
      <trkpt lat="43.16968" lon="0.61336">
        <ele>490.8</ele>
        <time>2025-12-29T10:44:31Z</time>
      </trkpt>
      <trkpt lat="43.16969" lon="0.61338">
        <ele>490.8</ele>
        <time>2025-12-29T10:44:32Z</time>
      </trkpt>
      <trkpt lat="43.16969" lon="0.6134">
        <ele>491</ele>
        <time>2025-12-29T10:44:33Z</time>
      </trkpt>
      <trkpt lat="43.16969" lon="0.61344">
        <ele>491</ele>
        <time>2025-12-29T10:44:34Z</time>
      </trkpt>
      <trkpt lat="43.1697" lon="0.61345">
        <ele>491</ele>
        <time>2025-12-29T10:44:35Z</time>
      </trkpt>
      <trkpt lat="43.1697" lon="0.61348">
        <ele>491</ele>
        <time>2025-12-29T10:44:36Z</time>
      </trkpt>
      <trkpt lat="43.1697" lon="0.61351">
        <ele>491</ele>
        <time>2025-12-29T10:44:37Z</time>
      </trkpt>
      <trkpt lat="43.16971" lon="0.61353">
        <ele>490.8</ele>
        <time>2025-12-29T10:44:38Z</time>
      </trkpt>
      <trkpt lat="43.16971" lon="0.61356">
        <ele>490.8</ele>
        <time>2025-12-29T10:44:39Z</time>
      </trkpt>
      <trkpt lat="43.16971" lon="0.61359">
        <ele>490.8</ele>
        <time>2025-12-29T10:44:40Z</time>
      </trkpt>
      <trkpt lat="43.16971" lon="0.61362">
        <ele>491.8</ele>
        <time>2025-12-29T10:44:41Z</time>
      </trkpt>
      <trkpt lat="43.16972" lon="0.61366">
        <ele>491.8</ele>
        <time>2025-12-29T10:44:42Z</time>
      </trkpt>
      <trkpt lat="43.16972" lon="0.61369">
        <ele>491.8</ele>
        <time>2025-12-29T10:44:43Z</time>
      </trkpt>
      <trkpt lat="43.16972" lon="0.61372">
        <ele>491.8</ele>
        <time>2025-12-29T10:44:44Z</time>
      </trkpt>
      <trkpt lat="43.16972" lon="0.61377">
        <ele>491.8</ele>
        <time>2025-12-29T10:44:45Z</time>
      </trkpt>
      <trkpt lat="43.16971" lon="0.61382">
        <ele>493.2</ele>
        <time>2025-12-29T10:44:46Z</time>
      </trkpt>
      <trkpt lat="43.16971" lon="0.61385">
        <ele>493.2</ele>
        <time>2025-12-29T10:44:47Z</time>
      </trkpt>
      <trkpt lat="43.1697" lon="0.61389">
        <ele>493.2</ele>
        <time>2025-12-29T10:44:48Z</time>
      </trkpt>
      <trkpt lat="43.16969" lon="0.61393">
        <ele>493.2</ele>
        <time>2025-12-29T10:44:49Z</time>
      </trkpt>
      <trkpt lat="43.16968" lon="0.61396">
        <ele>491.2</ele>
        <time>2025-12-29T10:44:50Z</time>
      </trkpt>
      <trkpt lat="43.16967" lon="0.61399">
        <ele>491.2</ele>
        <time>2025-12-29T10:44:51Z</time>
      </trkpt>
      <trkpt lat="43.16966" lon="0.61404">
        <ele>491.2</ele>
        <time>2025-12-29T10:44:52Z</time>
      </trkpt>
      <trkpt lat="43.16966" lon="0.61408">
        <ele>491.8</ele>
        <time>2025-12-29T10:44:53Z</time>
      </trkpt>
      <trkpt lat="43.16965" lon="0.61412">
        <ele>491.8</ele>
        <time>2025-12-29T10:44:54Z</time>
      </trkpt>
      <trkpt lat="43.16965" lon="0.61416">
        <ele>491.8</ele>
        <time>2025-12-29T10:44:55Z</time>
      </trkpt>
      <trkpt lat="43.16964" lon="0.6142">
        <ele>491.8</ele>
        <time>2025-12-29T10:44:56Z</time>
      </trkpt>
      <trkpt lat="43.16963" lon="0.61423">
        <ele>491.4</ele>
        <time>2025-12-29T10:44:57Z</time>
      </trkpt>
      <trkpt lat="43.16963" lon="0.61428">
        <ele>491.8</ele>
        <time>2025-12-29T10:44:58Z</time>
      </trkpt>
      <trkpt lat="43.16961" lon="0.61433">
        <ele>491.8</ele>
        <time>2025-12-29T10:44:59Z</time>
      </trkpt>
      <trkpt lat="43.1696" lon="0.61439">
        <ele>491.8</ele>
        <time>2025-12-29T10:45:00Z</time>
      </trkpt>
      <trkpt lat="43.16959" lon="0.61444">
        <ele>492</ele>
        <time>2025-12-29T10:45:01Z</time>
      </trkpt>
      <trkpt lat="43.16958" lon="0.6145">
        <ele>492</ele>
        <time>2025-12-29T10:45:02Z</time>
      </trkpt>
      <trkpt lat="43.16957" lon="0.61455">
        <ele>492</ele>
        <time>2025-12-29T10:45:03Z</time>
      </trkpt>
      <trkpt lat="43.16957" lon="0.6146">
        <ele>492</ele>
        <time>2025-12-29T10:45:04Z</time>
      </trkpt>
      <trkpt lat="43.16956" lon="0.61464">
        <ele>491.6</ele>
        <time>2025-12-29T10:45:05Z</time>
      </trkpt>
      <trkpt lat="43.16956" lon="0.6147">
        <ele>492.2</ele>
        <time>2025-12-29T10:45:06Z</time>
      </trkpt>
      <trkpt lat="43.16955" lon="0.61474">
        <ele>492.2</ele>
        <time>2025-12-29T10:45:07Z</time>
      </trkpt>
      <trkpt lat="43.16955" lon="0.61479">
        <ele>492.2</ele>
        <time>2025-12-29T10:45:08Z</time>
      </trkpt>
      <trkpt lat="43.16955" lon="0.61484">
        <ele>492.2</ele>
        <time>2025-12-29T10:45:09Z</time>
      </trkpt>
      <trkpt lat="43.16955" lon="0.61488">
        <ele>492</ele>
        <time>2025-12-29T10:45:10Z</time>
      </trkpt>
      <trkpt lat="43.16955" lon="0.61492">
        <ele>492</ele>
        <time>2025-12-29T10:45:11Z</time>
      </trkpt>
      <trkpt lat="43.16954" lon="0.61495">
        <ele>492</ele>
        <time>2025-12-29T10:45:12Z</time>
      </trkpt>
      <trkpt lat="43.16955" lon="0.61498">
        <ele>492.4</ele>
        <time>2025-12-29T10:45:13Z</time>
      </trkpt>
      <trkpt lat="43.16955" lon="0.61502">
        <ele>493.4</ele>
        <time>2025-12-29T10:45:14Z</time>
      </trkpt>
      <trkpt lat="43.16955" lon="0.61507">
        <ele>493.4</ele>
        <time>2025-12-29T10:45:15Z</time>
      </trkpt>
      <trkpt lat="43.16955" lon="0.6151">
        <ele>493.4</ele>
        <time>2025-12-29T10:45:16Z</time>
      </trkpt>
      <trkpt lat="43.16956" lon="0.61514">
        <ele>493.4</ele>
        <time>2025-12-29T10:45:17Z</time>
      </trkpt>
      <trkpt lat="43.16956" lon="0.61518">
        <ele>493.2</ele>
        <time>2025-12-29T10:45:18Z</time>
      </trkpt>
      <trkpt lat="43.16957" lon="0.61522">
        <ele>493.2</ele>
        <time>2025-12-29T10:45:19Z</time>
      </trkpt>
      <trkpt lat="43.16957" lon="0.61527">
        <ele>493.2</ele>
        <time>2025-12-29T10:45:20Z</time>
      </trkpt>
      <trkpt lat="43.16958" lon="0.61531">
        <ele>493.2</ele>
        <time>2025-12-29T10:45:21Z</time>
      </trkpt>
      <trkpt lat="43.16958" lon="0.61535">
        <ele>493</ele>
        <time>2025-12-29T10:45:22Z</time>
      </trkpt>
      <trkpt lat="43.16959" lon="0.6154">
        <ele>493</ele>
        <time>2025-12-29T10:45:23Z</time>
      </trkpt>
      <trkpt lat="43.16959" lon="0.61544">
        <ele>493</ele>
        <time>2025-12-29T10:45:24Z</time>
      </trkpt>
      <trkpt lat="43.1696" lon="0.61549">
        <ele>493.8</ele>
        <time>2025-12-29T10:45:25Z</time>
      </trkpt>
      <trkpt lat="43.1696" lon="0.61553">
        <ele>493.4</ele>
        <time>2025-12-29T10:45:26Z</time>
      </trkpt>
      <trkpt lat="43.16961" lon="0.61557">
        <ele>493.4</ele>
        <time>2025-12-29T10:45:27Z</time>
      </trkpt>
      <trkpt lat="43.16962" lon="0.61561">
        <ele>493.4</ele>
        <time>2025-12-29T10:45:28Z</time>
      </trkpt>
      <trkpt lat="43.16963" lon="0.61565">
        <ele>493.4</ele>
        <time>2025-12-29T10:45:29Z</time>
      </trkpt>
      <trkpt lat="43.16964" lon="0.61568">
        <ele>493.4</ele>
        <time>2025-12-29T10:45:30Z</time>
      </trkpt>
      <trkpt lat="43.16964" lon="0.61572">
        <ele>493.4</ele>
        <time>2025-12-29T10:45:31Z</time>
      </trkpt>
      <trkpt lat="43.16964" lon="0.61575">
        <ele>493.4</ele>
        <time>2025-12-29T10:45:32Z</time>
      </trkpt>
      <trkpt lat="43.16965" lon="0.61579">
        <ele>494</ele>
        <time>2025-12-29T10:45:33Z</time>
      </trkpt>
      <trkpt lat="43.16965" lon="0.61583">
        <ele>494.2</ele>
        <time>2025-12-29T10:45:34Z</time>
      </trkpt>
      <trkpt lat="43.16966" lon="0.61586">
        <ele>494.2</ele>
        <time>2025-12-29T10:45:35Z</time>
      </trkpt>
      <trkpt lat="43.16966" lon="0.61589">
        <ele>494.2</ele>
        <time>2025-12-29T10:45:36Z</time>
      </trkpt>
      <trkpt lat="43.16967" lon="0.61592">
        <ele>494.2</ele>
        <time>2025-12-29T10:45:37Z</time>
      </trkpt>
      <trkpt lat="43.16968" lon="0.61596">
        <ele>494</ele>
        <time>2025-12-29T10:45:38Z</time>
      </trkpt>
      <trkpt lat="43.16969" lon="0.61599">
        <ele>494</ele>
        <time>2025-12-29T10:45:39Z</time>
      </trkpt>
      <trkpt lat="43.1697" lon="0.61601">
        <ele>494</ele>
        <time>2025-12-29T10:45:40Z</time>
      </trkpt>
      <trkpt lat="43.16971" lon="0.61604">
        <ele>494</ele>
        <time>2025-12-29T10:45:41Z</time>
      </trkpt>
      <trkpt lat="43.16971" lon="0.61608">
        <ele>494.8</ele>
        <time>2025-12-29T10:45:42Z</time>
      </trkpt>
      <trkpt lat="43.16972" lon="0.61613">
        <ele>494.8</ele>
        <time>2025-12-29T10:45:43Z</time>
      </trkpt>
      <trkpt lat="43.16973" lon="0.61617">
        <ele>494.8</ele>
        <time>2025-12-29T10:45:44Z</time>
      </trkpt>
      <trkpt lat="43.16974" lon="0.6162">
        <ele>493.8</ele>
        <time>2025-12-29T10:45:45Z</time>
      </trkpt>
      <trkpt lat="43.16975" lon="0.61625">
        <ele>492.8</ele>
        <time>2025-12-29T10:45:46Z</time>
      </trkpt>
      <trkpt lat="43.16976" lon="0.61629">
        <ele>492.8</ele>
        <time>2025-12-29T10:45:47Z</time>
      </trkpt>
      <trkpt lat="43.16977" lon="0.61634">
        <ele>492.8</ele>
        <time>2025-12-29T10:45:48Z</time>
      </trkpt>
      <trkpt lat="43.16978" lon="0.61638">
        <ele>492.8</ele>
        <time>2025-12-29T10:45:49Z</time>
      </trkpt>
      <trkpt lat="43.16979" lon="0.61641">
        <ele>492.6</ele>
        <time>2025-12-29T10:45:50Z</time>
      </trkpt>
      <trkpt lat="43.16979" lon="0.61646">
        <ele>492.6</ele>
        <time>2025-12-29T10:45:51Z</time>
      </trkpt>
      <trkpt lat="43.1698" lon="0.61649">
        <ele>492.6</ele>
        <time>2025-12-29T10:45:52Z</time>
      </trkpt>
      <trkpt lat="43.16981" lon="0.61653">
        <ele>492.6</ele>
        <time>2025-12-29T10:45:53Z</time>
      </trkpt>
      <trkpt lat="43.16982" lon="0.61657">
        <ele>492.2</ele>
        <time>2025-12-29T10:45:54Z</time>
      </trkpt>
      <trkpt lat="43.16982" lon="0.61662">
        <ele>492.2</ele>
        <time>2025-12-29T10:45:55Z</time>
      </trkpt>
      <trkpt lat="43.16983" lon="0.61666">
        <ele>492.2</ele>
        <time>2025-12-29T10:45:56Z</time>
      </trkpt>
      <trkpt lat="43.16984" lon="0.6167">
        <ele>492.8</ele>
        <time>2025-12-29T10:45:57Z</time>
      </trkpt>
      <trkpt lat="43.16985" lon="0.61674">
        <ele>493.2</ele>
        <time>2025-12-29T10:45:58Z</time>
      </trkpt>
      <trkpt lat="43.16985" lon="0.61678">
        <ele>493.2</ele>
        <time>2025-12-29T10:45:59Z</time>
      </trkpt>
      <trkpt lat="43.16986" lon="0.61683">
        <ele>493.2</ele>
        <time>2025-12-29T10:46:00Z</time>
      </trkpt>
      <trkpt lat="43.16987" lon="0.61688">
        <ele>492.2</ele>
        <time>2025-12-29T10:46:01Z</time>
      </trkpt>
      <trkpt lat="43.16987" lon="0.61692">
        <ele>491.6</ele>
        <time>2025-12-29T10:46:02Z</time>
      </trkpt>
      <trkpt lat="43.16988" lon="0.61696">
        <ele>491.6</ele>
        <time>2025-12-29T10:46:03Z</time>
      </trkpt>
      <trkpt lat="43.16989" lon="0.61699">
        <ele>491.6</ele>
        <time>2025-12-29T10:46:04Z</time>
      </trkpt>
      <trkpt lat="43.16991" lon="0.61703">
        <ele>491.6</ele>
        <time>2025-12-29T10:46:05Z</time>
      </trkpt>
      <trkpt lat="43.16992" lon="0.61707">
        <ele>492.6</ele>
        <time>2025-12-29T10:46:06Z</time>
      </trkpt>
      <trkpt lat="43.16993" lon="0.61712">
        <ele>492.6</ele>
        <time>2025-12-29T10:46:07Z</time>
      </trkpt>
      <trkpt lat="43.16994" lon="0.61716">
        <ele>492.6</ele>
        <time>2025-12-29T10:46:08Z</time>
      </trkpt>
      <trkpt lat="43.16996" lon="0.6172">
        <ele>492.6</ele>
        <time>2025-12-29T10:46:09Z</time>
      </trkpt>
      <trkpt lat="43.16998" lon="0.61724">
        <ele>490</ele>
        <time>2025-12-29T10:46:10Z</time>
      </trkpt>
      <trkpt lat="43.16999" lon="0.61728">
        <ele>490</ele>
        <time>2025-12-29T10:46:11Z</time>
      </trkpt>
      <trkpt lat="43.17001" lon="0.61733">
        <ele>490</ele>
        <time>2025-12-29T10:46:12Z</time>
      </trkpt>
      <trkpt lat="43.17004" lon="0.61736">
        <ele>490</ele>
        <time>2025-12-29T10:46:13Z</time>
      </trkpt>
      <trkpt lat="43.17006" lon="0.61741">
        <ele>491.8</ele>
        <time>2025-12-29T10:46:14Z</time>
      </trkpt>
      <trkpt lat="43.17008" lon="0.61745">
        <ele>491.8</ele>
        <time>2025-12-29T10:46:15Z</time>
      </trkpt>
      <trkpt lat="43.1701" lon="0.61749">
        <ele>491.8</ele>
        <time>2025-12-29T10:46:16Z</time>
      </trkpt>
      <trkpt lat="43.17013" lon="0.61754">
        <ele>491.8</ele>
        <time>2025-12-29T10:46:17Z</time>
      </trkpt>
      <trkpt lat="43.17016" lon="0.61758">
        <ele>491.6</ele>
        <time>2025-12-29T10:46:18Z</time>
      </trkpt>
      <trkpt lat="43.17019" lon="0.61762">
        <ele>491.6</ele>
        <time>2025-12-29T10:46:19Z</time>
      </trkpt>
      <trkpt lat="43.17022" lon="0.61766">
        <ele>491.6</ele>
        <time>2025-12-29T10:46:20Z</time>
      </trkpt>
      <trkpt lat="43.17025" lon="0.61771">
        <ele>490.6</ele>
        <time>2025-12-29T10:46:21Z</time>
      </trkpt>
      <trkpt lat="43.17028" lon="0.61774">
        <ele>489.6</ele>
        <time>2025-12-29T10:46:22Z</time>
      </trkpt>
      <trkpt lat="43.17031" lon="0.61777">
        <ele>489.6</ele>
        <time>2025-12-29T10:46:23Z</time>
      </trkpt>
      <trkpt lat="43.17035" lon="0.61781">
        <ele>489.6</ele>
        <time>2025-12-29T10:46:24Z</time>
      </trkpt>
      <trkpt lat="43.17038" lon="0.61785">
        <ele>489.6</ele>
        <time>2025-12-29T10:46:25Z</time>
      </trkpt>
      <trkpt lat="43.1704" lon="0.61789">
        <ele>489.8</ele>
        <time>2025-12-29T10:46:26Z</time>
      </trkpt>
      <trkpt lat="43.17042" lon="0.61793">
        <ele>489.8</ele>
        <time>2025-12-29T10:46:27Z</time>
      </trkpt>
      <trkpt lat="43.17044" lon="0.61796">
        <ele>489.8</ele>
        <time>2025-12-29T10:46:28Z</time>
      </trkpt>
      <trkpt lat="43.17045" lon="0.618">
        <ele>489</ele>
        <time>2025-12-29T10:46:29Z</time>
      </trkpt>
      <trkpt lat="43.17047" lon="0.61805">
        <ele>490.2</ele>
        <time>2025-12-29T10:46:30Z</time>
      </trkpt>
      <trkpt lat="43.17048" lon="0.61808">
        <ele>490.2</ele>
        <time>2025-12-29T10:46:31Z</time>
      </trkpt>
      <trkpt lat="43.17048" lon="0.61812">
        <ele>490.2</ele>
        <time>2025-12-29T10:46:32Z</time>
      </trkpt>
      <trkpt lat="43.17049" lon="0.61816">
        <ele>491.2</ele>
        <time>2025-12-29T10:46:33Z</time>
      </trkpt>
      <trkpt lat="43.1705" lon="0.6182">
        <ele>490</ele>
        <time>2025-12-29T10:46:34Z</time>
      </trkpt>
      <trkpt lat="43.17051" lon="0.61824">
        <ele>490</ele>
        <time>2025-12-29T10:46:35Z</time>
      </trkpt>
      <trkpt lat="43.17052" lon="0.61828">
        <ele>490</ele>
        <time>2025-12-29T10:46:36Z</time>
      </trkpt>
      <trkpt lat="43.17053" lon="0.61833">
        <ele>490</ele>
        <time>2025-12-29T10:46:37Z</time>
      </trkpt>
      <trkpt lat="43.17054" lon="0.61837">
        <ele>490.8</ele>
        <time>2025-12-29T10:46:38Z</time>
      </trkpt>
      <trkpt lat="43.17055" lon="0.6184">
        <ele>490.8</ele>
        <time>2025-12-29T10:46:39Z</time>
      </trkpt>
      <trkpt lat="43.17055" lon="0.61845">
        <ele>490.8</ele>
        <time>2025-12-29T10:46:40Z</time>
      </trkpt>
      <trkpt lat="43.17056" lon="0.61849">
        <ele>490.8</ele>
        <time>2025-12-29T10:46:41Z</time>
      </trkpt>
      <trkpt lat="43.17056" lon="0.61853">
        <ele>490.4</ele>
        <time>2025-12-29T10:46:42Z</time>
      </trkpt>
      <trkpt lat="43.17057" lon="0.61856">
        <ele>490.4</ele>
        <time>2025-12-29T10:46:43Z</time>
      </trkpt>
      <trkpt lat="43.17057" lon="0.61859">
        <ele>490.4</ele>
        <time>2025-12-29T10:46:44Z</time>
      </trkpt>
      <trkpt lat="43.17056" lon="0.61863">
        <ele>490.4</ele>
        <time>2025-12-29T10:46:45Z</time>
      </trkpt>
      <trkpt lat="43.17056" lon="0.61867">
        <ele>490</ele>
        <time>2025-12-29T10:46:46Z</time>
      </trkpt>
      <trkpt lat="43.17055" lon="0.61871">
        <ele>490</ele>
        <time>2025-12-29T10:46:47Z</time>
      </trkpt>
      <trkpt lat="43.17055" lon="0.61875">
        <ele>490</ele>
        <time>2025-12-29T10:46:48Z</time>
      </trkpt>
      <trkpt lat="43.17055" lon="0.61879">
        <ele>490</ele>
        <time>2025-12-29T10:46:49Z</time>
      </trkpt>
      <trkpt lat="43.17054" lon="0.61883">
        <ele>490.6</ele>
        <time>2025-12-29T10:46:50Z</time>
      </trkpt>
      <trkpt lat="43.17054" lon="0.61887">
        <ele>490.6</ele>
        <time>2025-12-29T10:46:51Z</time>
      </trkpt>
      <trkpt lat="43.17053" lon="0.6189">
        <ele>490.6</ele>
        <time>2025-12-29T10:46:52Z</time>
      </trkpt>
      <trkpt lat="43.17052" lon="0.61893">
        <ele>490.6</ele>
        <time>2025-12-29T10:46:53Z</time>
      </trkpt>
      <trkpt lat="43.17051" lon="0.61895">
        <ele>490.2</ele>
        <time>2025-12-29T10:46:54Z</time>
      </trkpt>
      <trkpt lat="43.1705" lon="0.61899">
        <ele>490.2</ele>
        <time>2025-12-29T10:46:55Z</time>
      </trkpt>
      <trkpt lat="43.17049" lon="0.61903">
        <ele>490.2</ele>
        <time>2025-12-29T10:46:56Z</time>
      </trkpt>
      <trkpt lat="43.17047" lon="0.61908">
        <ele>489.4</ele>
        <time>2025-12-29T10:46:57Z</time>
      </trkpt>
      <trkpt lat="43.17046" lon="0.61912">
        <ele>490.2</ele>
        <time>2025-12-29T10:46:58Z</time>
      </trkpt>
      <trkpt lat="43.17045" lon="0.61916">
        <ele>490.2</ele>
        <time>2025-12-29T10:46:59Z</time>
      </trkpt>
      <trkpt lat="43.17044" lon="0.61921">
        <ele>490.2</ele>
        <time>2025-12-29T10:47:00Z</time>
      </trkpt>
      <trkpt lat="43.17043" lon="0.61926">
        <ele>490.2</ele>
        <time>2025-12-29T10:47:01Z</time>
      </trkpt>
      <trkpt lat="43.17042" lon="0.61931">
        <ele>490.4</ele>
        <time>2025-12-29T10:47:02Z</time>
      </trkpt>
      <trkpt lat="43.17041" lon="0.61935">
        <ele>490.4</ele>
        <time>2025-12-29T10:47:03Z</time>
      </trkpt>
      <trkpt lat="43.17041" lon="0.6194">
        <ele>490.4</ele>
        <time>2025-12-29T10:47:04Z</time>
      </trkpt>
      <trkpt lat="43.17041" lon="0.61944">
        <ele>490.4</ele>
        <time>2025-12-29T10:47:05Z</time>
      </trkpt>
      <trkpt lat="43.17041" lon="0.61948">
        <ele>490.4</ele>
        <time>2025-12-29T10:47:06Z</time>
      </trkpt>
      <trkpt lat="43.17041" lon="0.61953">
        <ele>490.4</ele>
        <time>2025-12-29T10:47:07Z</time>
      </trkpt>
      <trkpt lat="43.17041" lon="0.61957">
        <ele>490.4</ele>
        <time>2025-12-29T10:47:08Z</time>
      </trkpt>
      <trkpt lat="43.17041" lon="0.61961">
        <ele>490.4</ele>
        <time>2025-12-29T10:47:09Z</time>
      </trkpt>
      <trkpt lat="43.17041" lon="0.61965">
        <ele>491.4</ele>
        <time>2025-12-29T10:47:10Z</time>
      </trkpt>
      <trkpt lat="43.17042" lon="0.61969">
        <ele>491.4</ele>
        <time>2025-12-29T10:47:11Z</time>
      </trkpt>
      <trkpt lat="43.17043" lon="0.61973">
        <ele>491.4</ele>
        <time>2025-12-29T10:47:12Z</time>
      </trkpt>
      <trkpt lat="43.17044" lon="0.61977">
        <ele>490.4</ele>
        <time>2025-12-29T10:47:13Z</time>
      </trkpt>
      <trkpt lat="43.17044" lon="0.6198">
        <ele>490.2</ele>
        <time>2025-12-29T10:47:14Z</time>
      </trkpt>
      <trkpt lat="43.17045" lon="0.61985">
        <ele>490.2</ele>
        <time>2025-12-29T10:47:15Z</time>
      </trkpt>
      <trkpt lat="43.17046" lon="0.6199">
        <ele>490.2</ele>
        <time>2025-12-29T10:47:16Z</time>
      </trkpt>
      <trkpt lat="43.17046" lon="0.61997">
        <ele>490.2</ele>
        <time>2025-12-29T10:47:17Z</time>
      </trkpt>
      <trkpt lat="43.17045" lon="0.62003">
        <ele>487.2</ele>
        <time>2025-12-29T10:47:18Z</time>
      </trkpt>
      <trkpt lat="43.17046" lon="0.62011">
        <ele>487.2</ele>
        <time>2025-12-29T10:47:19Z</time>
      </trkpt>
      <trkpt lat="43.17047" lon="0.62018">
        <ele>487.2</ele>
        <time>2025-12-29T10:47:20Z</time>
      </trkpt>
      <trkpt lat="43.17047" lon="0.62026">
        <ele>487.2</ele>
        <time>2025-12-29T10:47:21Z</time>
      </trkpt>
      <trkpt lat="43.17047" lon="0.62034">
        <ele>486</ele>
        <time>2025-12-29T10:47:22Z</time>
      </trkpt>
      <trkpt lat="43.17047" lon="0.62041">
        <ele>486</ele>
        <time>2025-12-29T10:47:23Z</time>
      </trkpt>
      <trkpt lat="43.17047" lon="0.62047">
        <ele>486</ele>
        <time>2025-12-29T10:47:24Z</time>
      </trkpt>
      <trkpt lat="43.17046" lon="0.62053">
        <ele>486</ele>
        <time>2025-12-29T10:47:25Z</time>
      </trkpt>
      <trkpt lat="43.17045" lon="0.62059">
        <ele>485</ele>
        <time>2025-12-29T10:47:26Z</time>
      </trkpt>
      <trkpt lat="43.17045" lon="0.62066">
        <ele>485</ele>
        <time>2025-12-29T10:47:27Z</time>
      </trkpt>
      <trkpt lat="43.17046" lon="0.62072">
        <ele>485</ele>
        <time>2025-12-29T10:47:28Z</time>
      </trkpt>
      <trkpt lat="43.17046" lon="0.62077">
        <ele>486</ele>
        <time>2025-12-29T10:47:29Z</time>
      </trkpt>
      <trkpt lat="43.17047" lon="0.62083">
        <ele>486.4</ele>
        <time>2025-12-29T10:47:30Z</time>
      </trkpt>
      <trkpt lat="43.17046" lon="0.62088">
        <ele>486.4</ele>
        <time>2025-12-29T10:47:31Z</time>
      </trkpt>
      <trkpt lat="43.17046" lon="0.62093">
        <ele>486.4</ele>
        <time>2025-12-29T10:47:32Z</time>
      </trkpt>
      <trkpt lat="43.17046" lon="0.62097">
        <ele>486.4</ele>
        <time>2025-12-29T10:47:33Z</time>
      </trkpt>
      <trkpt lat="43.17046" lon="0.62103">
        <ele>487.4</ele>
        <time>2025-12-29T10:47:34Z</time>
      </trkpt>
      <trkpt lat="43.17046" lon="0.62106">
        <ele>487.4</ele>
        <time>2025-12-29T10:47:35Z</time>
      </trkpt>
      <trkpt lat="43.17046" lon="0.62112">
        <ele>487.4</ele>
        <time>2025-12-29T10:47:36Z</time>
      </trkpt>
      <trkpt lat="43.17047" lon="0.62118">
        <ele>488</ele>
        <time>2025-12-29T10:47:37Z</time>
      </trkpt>
      <trkpt lat="43.17046" lon="0.62124">
        <ele>489.2</ele>
        <time>2025-12-29T10:47:38Z</time>
      </trkpt>
      <trkpt lat="43.17046" lon="0.62129">
        <ele>489.2</ele>
        <time>2025-12-29T10:47:39Z</time>
      </trkpt>
      <trkpt lat="43.17047" lon="0.62135">
        <ele>489.2</ele>
        <time>2025-12-29T10:47:40Z</time>
      </trkpt>
      <trkpt lat="43.17047" lon="0.6214">
        <ele>488.2</ele>
        <time>2025-12-29T10:47:41Z</time>
      </trkpt>
      <trkpt lat="43.17048" lon="0.62145">
        <ele>488.4</ele>
        <time>2025-12-29T10:47:42Z</time>
      </trkpt>
      <trkpt lat="43.17048" lon="0.6215">
        <ele>488.4</ele>
        <time>2025-12-29T10:47:43Z</time>
      </trkpt>
      <trkpt lat="43.17048" lon="0.62155">
        <ele>488.4</ele>
        <time>2025-12-29T10:47:44Z</time>
      </trkpt>
      <trkpt lat="43.17048" lon="0.62159">
        <ele>488.4</ele>
        <time>2025-12-29T10:47:45Z</time>
      </trkpt>
      <trkpt lat="43.17048" lon="0.62165">
        <ele>488.8</ele>
        <time>2025-12-29T10:47:46Z</time>
      </trkpt>
      <trkpt lat="43.17049" lon="0.62169">
        <ele>488.8</ele>
        <time>2025-12-29T10:47:47Z</time>
      </trkpt>
      <trkpt lat="43.1705" lon="0.62174">
        <ele>488.8</ele>
        <time>2025-12-29T10:47:48Z</time>
      </trkpt>
      <trkpt lat="43.17051" lon="0.62178">
        <ele>488.8</ele>
        <time>2025-12-29T10:47:49Z</time>
      </trkpt>
      <trkpt lat="43.17051" lon="0.62183">
        <ele>488</ele>
        <time>2025-12-29T10:47:50Z</time>
      </trkpt>
      <trkpt lat="43.17052" lon="0.62187">
        <ele>488</ele>
        <time>2025-12-29T10:47:51Z</time>
      </trkpt>
      <trkpt lat="43.17053" lon="0.62192">
        <ele>488</ele>
        <time>2025-12-29T10:47:52Z</time>
      </trkpt>
      <trkpt lat="43.17054" lon="0.62196">
        <ele>488.2</ele>
        <time>2025-12-29T10:47:53Z</time>
      </trkpt>
      <trkpt lat="43.17055" lon="0.622">
        <ele>489</ele>
        <time>2025-12-29T10:47:54Z</time>
      </trkpt>
      <trkpt lat="43.17056" lon="0.62204">
        <ele>489</ele>
        <time>2025-12-29T10:47:55Z</time>
      </trkpt>
      <trkpt lat="43.17057" lon="0.62208">
        <ele>489</ele>
        <time>2025-12-29T10:47:56Z</time>
      </trkpt>
      <trkpt lat="43.17058" lon="0.62212">
        <ele>489</ele>
        <time>2025-12-29T10:47:57Z</time>
      </trkpt>
      <trkpt lat="43.17059" lon="0.62216">
        <ele>489</ele>
        <time>2025-12-29T10:47:58Z</time>
      </trkpt>
      <trkpt lat="43.1706" lon="0.6222">
        <ele>489</ele>
        <time>2025-12-29T10:47:59Z</time>
      </trkpt>
      <trkpt lat="43.17062" lon="0.62224">
        <ele>489</ele>
        <time>2025-12-29T10:48:00Z</time>
      </trkpt>
      <trkpt lat="43.17063" lon="0.62227">
        <ele>489</ele>
        <time>2025-12-29T10:48:01Z</time>
      </trkpt>
      <trkpt lat="43.17065" lon="0.62231">
        <ele>488.4</ele>
        <time>2025-12-29T10:48:02Z</time>
      </trkpt>
      <trkpt lat="43.17066" lon="0.62236">
        <ele>488.4</ele>
        <time>2025-12-29T10:48:03Z</time>
      </trkpt>
      <trkpt lat="43.17068" lon="0.6224">
        <ele>488.4</ele>
        <time>2025-12-29T10:48:04Z</time>
      </trkpt>
      <trkpt lat="43.1707" lon="0.62243">
        <ele>488.8</ele>
        <time>2025-12-29T10:48:05Z</time>
      </trkpt>
      <trkpt lat="43.17071" lon="0.62247">
        <ele>489.2</ele>
        <time>2025-12-29T10:48:06Z</time>
      </trkpt>
      <trkpt lat="43.17073" lon="0.62251">
        <ele>489.2</ele>
        <time>2025-12-29T10:48:07Z</time>
      </trkpt>
      <trkpt lat="43.17075" lon="0.62254">
        <ele>489.2</ele>
        <time>2025-12-29T10:48:08Z</time>
      </trkpt>
      <trkpt lat="43.17077" lon="0.62258">
        <ele>489.2</ele>
        <time>2025-12-29T10:48:09Z</time>
      </trkpt>
      <trkpt lat="43.17079" lon="0.62262">
        <ele>489.2</ele>
        <time>2025-12-29T10:48:10Z</time>
      </trkpt>
      <trkpt lat="43.17081" lon="0.62265">
        <ele>489.2</ele>
        <time>2025-12-29T10:48:11Z</time>
      </trkpt>
      <trkpt lat="43.17083" lon="0.62269">
        <ele>489.2</ele>
        <time>2025-12-29T10:48:12Z</time>
      </trkpt>
      <trkpt lat="43.17085" lon="0.62272">
        <ele>490</ele>
        <time>2025-12-29T10:48:13Z</time>
      </trkpt>
      <trkpt lat="43.17087" lon="0.62276">
        <ele>489</ele>
        <time>2025-12-29T10:48:14Z</time>
      </trkpt>
      <trkpt lat="43.17089" lon="0.62279">
        <ele>489</ele>
        <time>2025-12-29T10:48:15Z</time>
      </trkpt>
      <trkpt lat="43.17091" lon="0.62282">
        <ele>489</ele>
        <time>2025-12-29T10:48:16Z</time>
      </trkpt>
      <trkpt lat="43.17092" lon="0.62286">
        <ele>489.2</ele>
        <time>2025-12-29T10:48:17Z</time>
      </trkpt>
      <trkpt lat="43.17094" lon="0.62289">
        <ele>490.4</ele>
        <time>2025-12-29T10:48:18Z</time>
      </trkpt>
      <trkpt lat="43.17096" lon="0.62293">
        <ele>490.4</ele>
        <time>2025-12-29T10:48:19Z</time>
      </trkpt>
      <trkpt lat="43.17098" lon="0.62296">
        <ele>490.4</ele>
        <time>2025-12-29T10:48:20Z</time>
      </trkpt>
      <trkpt lat="43.171" lon="0.623">
        <ele>490.4</ele>
        <time>2025-12-29T10:48:21Z</time>
      </trkpt>
      <trkpt lat="43.17102" lon="0.62303">
        <ele>490.8</ele>
        <time>2025-12-29T10:48:22Z</time>
      </trkpt>
      <trkpt lat="43.17104" lon="0.62306">
        <ele>490.8</ele>
        <time>2025-12-29T10:48:23Z</time>
      </trkpt>
      <trkpt lat="43.17105" lon="0.6231">
        <ele>490.8</ele>
        <time>2025-12-29T10:48:24Z</time>
      </trkpt>
      <trkpt lat="43.17107" lon="0.62313">
        <ele>490.8</ele>
        <time>2025-12-29T10:48:25Z</time>
      </trkpt>
      <trkpt lat="43.17109" lon="0.62316">
        <ele>491</ele>
        <time>2025-12-29T10:48:26Z</time>
      </trkpt>
      <trkpt lat="43.17111" lon="0.6232">
        <ele>491</ele>
        <time>2025-12-29T10:48:27Z</time>
      </trkpt>
      <trkpt lat="43.17112" lon="0.62323">
        <ele>491</ele>
        <time>2025-12-29T10:48:28Z</time>
      </trkpt>
      <trkpt lat="43.17114" lon="0.62326">
        <ele>491</ele>
        <time>2025-12-29T10:48:29Z</time>
      </trkpt>
      <trkpt lat="43.17115" lon="0.62329">
        <ele>492</ele>
        <time>2025-12-29T10:48:30Z</time>
      </trkpt>
      <trkpt lat="43.17117" lon="0.62333">
        <ele>492</ele>
        <time>2025-12-29T10:48:31Z</time>
      </trkpt>
      <trkpt lat="43.17119" lon="0.62336">
        <ele>492</ele>
        <time>2025-12-29T10:48:32Z</time>
      </trkpt>
      <trkpt lat="43.1712" lon="0.62339">
        <ele>492</ele>
        <time>2025-12-29T10:48:33Z</time>
      </trkpt>
      <trkpt lat="43.17122" lon="0.62342">
        <ele>490.6</ele>
        <time>2025-12-29T10:48:34Z</time>
      </trkpt>
      <trkpt lat="43.17124" lon="0.62346">
        <ele>490.6</ele>
        <time>2025-12-29T10:48:35Z</time>
      </trkpt>
      <trkpt lat="43.17125" lon="0.62349">
        <ele>490.6</ele>
        <time>2025-12-29T10:48:36Z</time>
      </trkpt>
      <trkpt lat="43.17127" lon="0.62352">
        <ele>491.6</ele>
        <time>2025-12-29T10:48:37Z</time>
      </trkpt>
      <trkpt lat="43.17128" lon="0.62356">
        <ele>492.4</ele>
        <time>2025-12-29T10:48:38Z</time>
      </trkpt>
      <trkpt lat="43.1713" lon="0.62359">
        <ele>492.4</ele>
        <time>2025-12-29T10:48:39Z</time>
      </trkpt>
      <trkpt lat="43.17131" lon="0.62362">
        <ele>492.4</ele>
        <time>2025-12-29T10:48:40Z</time>
      </trkpt>
      <trkpt lat="43.17133" lon="0.62366">
        <ele>492.4</ele>
        <time>2025-12-29T10:48:41Z</time>
      </trkpt>
      <trkpt lat="43.17134" lon="0.62369">
        <ele>492.4</ele>
        <time>2025-12-29T10:48:42Z</time>
      </trkpt>
      <trkpt lat="43.17136" lon="0.62372">
        <ele>492.4</ele>
        <time>2025-12-29T10:48:43Z</time>
      </trkpt>
      <trkpt lat="43.17137" lon="0.62375">
        <ele>492.4</ele>
        <time>2025-12-29T10:48:44Z</time>
      </trkpt>
      <trkpt lat="43.17139" lon="0.62378">
        <ele>493.4</ele>
        <time>2025-12-29T10:48:45Z</time>
      </trkpt>
      <trkpt lat="43.17141" lon="0.6238">
        <ele>492.6</ele>
        <time>2025-12-29T10:48:46Z</time>
      </trkpt>
      <trkpt lat="43.17143" lon="0.62383">
        <ele>492.6</ele>
        <time>2025-12-29T10:48:47Z</time>
      </trkpt>
      <trkpt lat="43.17145" lon="0.62386">
        <ele>492.6</ele>
        <time>2025-12-29T10:48:48Z</time>
      </trkpt>
      <trkpt lat="43.17147" lon="0.62389">
        <ele>492.6</ele>
        <time>2025-12-29T10:48:49Z</time>
      </trkpt>
      <trkpt lat="43.17148" lon="0.62391">
        <ele>489.6</ele>
        <time>2025-12-29T10:48:50Z</time>
      </trkpt>
      <trkpt lat="43.1715" lon="0.62394">
        <ele>489.6</ele>
        <time>2025-12-29T10:48:51Z</time>
      </trkpt>
      <trkpt lat="43.17152" lon="0.62397">
        <ele>489.6</ele>
        <time>2025-12-29T10:48:52Z</time>
      </trkpt>
      <trkpt lat="43.17154" lon="0.62399">
        <ele>490.6</ele>
        <time>2025-12-29T10:48:53Z</time>
      </trkpt>
      <trkpt lat="43.17156" lon="0.62402">
        <ele>494.4</ele>
        <time>2025-12-29T10:48:54Z</time>
      </trkpt>
      <trkpt lat="43.17158" lon="0.62405">
        <ele>494.4</ele>
        <time>2025-12-29T10:48:55Z</time>
      </trkpt>
      <trkpt lat="43.17161" lon="0.62408">
        <ele>494.4</ele>
        <time>2025-12-29T10:48:56Z</time>
      </trkpt>
      <trkpt lat="43.17163" lon="0.62412">
        <ele>494.4</ele>
        <time>2025-12-29T10:48:57Z</time>
      </trkpt>
      <trkpt lat="43.17165" lon="0.62415">
        <ele>494.8</ele>
        <time>2025-12-29T10:48:58Z</time>
      </trkpt>
      <trkpt lat="43.17167" lon="0.62419">
        <ele>494.8</ele>
        <time>2025-12-29T10:48:59Z</time>
      </trkpt>
      <trkpt lat="43.17169" lon="0.62422">
        <ele>494.8</ele>
        <time>2025-12-29T10:49:00Z</time>
      </trkpt>
      <trkpt lat="43.17171" lon="0.62426">
        <ele>494.8</ele>
        <time>2025-12-29T10:49:01Z</time>
      </trkpt>
      <trkpt lat="43.17173" lon="0.62429">
        <ele>494.6</ele>
        <time>2025-12-29T10:49:02Z</time>
      </trkpt>
      <trkpt lat="43.17175" lon="0.62433">
        <ele>494.6</ele>
        <time>2025-12-29T10:49:03Z</time>
      </trkpt>
      <trkpt lat="43.17177" lon="0.62436">
        <ele>494.6</ele>
        <time>2025-12-29T10:49:04Z</time>
      </trkpt>
      <trkpt lat="43.17179" lon="0.6244">
        <ele>494.6</ele>
        <time>2025-12-29T10:49:05Z</time>
      </trkpt>
      <trkpt lat="43.17181" lon="0.62444">
        <ele>494.8</ele>
        <time>2025-12-29T10:49:06Z</time>
      </trkpt>
      <trkpt lat="43.17183" lon="0.62447">
        <ele>494.8</ele>
        <time>2025-12-29T10:49:07Z</time>
      </trkpt>
      <trkpt lat="43.17184" lon="0.62451">
        <ele>494.8</ele>
        <time>2025-12-29T10:49:08Z</time>
      </trkpt>
      <trkpt lat="43.17186" lon="0.62455">
        <ele>493.8</ele>
        <time>2025-12-29T10:49:09Z</time>
      </trkpt>
      <trkpt lat="43.17188" lon="0.62458">
        <ele>494.2</ele>
        <time>2025-12-29T10:49:10Z</time>
      </trkpt>
      <trkpt lat="43.1719" lon="0.62462">
        <ele>494.2</ele>
        <time>2025-12-29T10:49:11Z</time>
      </trkpt>
      <trkpt lat="43.17191" lon="0.62466">
        <ele>494.2</ele>
        <time>2025-12-29T10:49:12Z</time>
      </trkpt>
      <trkpt lat="43.17193" lon="0.62469">
        <ele>494.2</ele>
        <time>2025-12-29T10:49:13Z</time>
      </trkpt>
      <trkpt lat="43.17195" lon="0.62473">
        <ele>494.8</ele>
        <time>2025-12-29T10:49:14Z</time>
      </trkpt>
      <trkpt lat="43.17196" lon="0.62477">
        <ele>494.8</ele>
        <time>2025-12-29T10:49:15Z</time>
      </trkpt>
      <trkpt lat="43.17197" lon="0.62481">
        <ele>494.8</ele>
        <time>2025-12-29T10:49:16Z</time>
      </trkpt>
      <trkpt lat="43.17198" lon="0.62485">
        <ele>494.8</ele>
        <time>2025-12-29T10:49:17Z</time>
      </trkpt>
      <trkpt lat="43.172" lon="0.62488">
        <ele>494.4</ele>
        <time>2025-12-29T10:49:18Z</time>
      </trkpt>
      <trkpt lat="43.17201" lon="0.62492">
        <ele>494.4</ele>
        <time>2025-12-29T10:49:19Z</time>
      </trkpt>
      <trkpt lat="43.17202" lon="0.62496">
        <ele>494.4</ele>
        <time>2025-12-29T10:49:20Z</time>
      </trkpt>
      <trkpt lat="43.17203" lon="0.625">
        <ele>494.2</ele>
        <time>2025-12-29T10:49:21Z</time>
      </trkpt>
      <trkpt lat="43.17204" lon="0.62504">
        <ele>494.2</ele>
        <time>2025-12-29T10:49:22Z</time>
      </trkpt>
      <trkpt lat="43.17206" lon="0.62508">
        <ele>494.2</ele>
        <time>2025-12-29T10:49:23Z</time>
      </trkpt>
      <trkpt lat="43.17207" lon="0.62512">
        <ele>494.2</ele>
        <time>2025-12-29T10:49:24Z</time>
      </trkpt>
      <trkpt lat="43.17209" lon="0.62517">
        <ele>494.2</ele>
        <time>2025-12-29T10:49:25Z</time>
      </trkpt>
      <trkpt lat="43.1721" lon="0.62522">
        <ele>493.4</ele>
        <time>2025-12-29T10:49:26Z</time>
      </trkpt>
      <trkpt lat="43.17212" lon="0.62527">
        <ele>493.4</ele>
        <time>2025-12-29T10:49:27Z</time>
      </trkpt>
      <trkpt lat="43.17214" lon="0.62531">
        <ele>493.4</ele>
        <time>2025-12-29T10:49:28Z</time>
      </trkpt>
      <trkpt lat="43.17215" lon="0.62536">
        <ele>493.8</ele>
        <time>2025-12-29T10:49:29Z</time>
      </trkpt>
      <trkpt lat="43.17217" lon="0.62542">
        <ele>493</ele>
        <time>2025-12-29T10:49:30Z</time>
      </trkpt>
      <trkpt lat="43.17219" lon="0.62547">
        <ele>493</ele>
        <time>2025-12-29T10:49:31Z</time>
      </trkpt>
      <trkpt lat="43.17221" lon="0.62553">
        <ele>493</ele>
        <time>2025-12-29T10:49:32Z</time>
      </trkpt>
      <trkpt lat="43.17224" lon="0.62558">
        <ele>493</ele>
        <time>2025-12-29T10:49:33Z</time>
      </trkpt>
      <trkpt lat="43.17226" lon="0.62564">
        <ele>493</ele>
        <time>2025-12-29T10:49:34Z</time>
      </trkpt>
      <trkpt lat="43.17229" lon="0.6257">
        <ele>493</ele>
        <time>2025-12-29T10:49:35Z</time>
      </trkpt>
      <trkpt lat="43.17232" lon="0.62575">
        <ele>493</ele>
        <time>2025-12-29T10:49:36Z</time>
      </trkpt>
      <trkpt lat="43.17235" lon="0.62581">
        <ele>492.4</ele>
        <time>2025-12-29T10:49:37Z</time>
      </trkpt>
      <trkpt lat="43.17238" lon="0.62586">
        <ele>491.6</ele>
        <time>2025-12-29T10:49:38Z</time>
      </trkpt>
      <trkpt lat="43.17241" lon="0.62592">
        <ele>491.6</ele>
        <time>2025-12-29T10:49:39Z</time>
      </trkpt>
      <trkpt lat="43.17244" lon="0.62597">
        <ele>491.6</ele>
        <time>2025-12-29T10:49:40Z</time>
      </trkpt>
      <trkpt lat="43.17247" lon="0.62603">
        <ele>492.2</ele>
        <time>2025-12-29T10:49:41Z</time>
      </trkpt>
      <trkpt lat="43.1725" lon="0.62608">
        <ele>492.2</ele>
        <time>2025-12-29T10:49:42Z</time>
      </trkpt>
      <trkpt lat="43.17253" lon="0.62613">
        <ele>492.2</ele>
        <time>2025-12-29T10:49:43Z</time>
      </trkpt>
      <trkpt lat="43.17256" lon="0.62618">
        <ele>492.2</ele>
        <time>2025-12-29T10:49:44Z</time>
      </trkpt>
      <trkpt lat="43.17259" lon="0.62623">
        <ele>491.2</ele>
        <time>2025-12-29T10:49:45Z</time>
      </trkpt>
      <trkpt lat="43.17261" lon="0.62628">
        <ele>491</ele>
        <time>2025-12-29T10:49:46Z</time>
      </trkpt>
      <trkpt lat="43.17263" lon="0.62632">
        <ele>491</ele>
        <time>2025-12-29T10:49:47Z</time>
      </trkpt>
      <trkpt lat="43.17266" lon="0.62637">
        <ele>491</ele>
        <time>2025-12-29T10:49:48Z</time>
      </trkpt>
      <trkpt lat="43.17268" lon="0.62642">
        <ele>491</ele>
        <time>2025-12-29T10:49:49Z</time>
      </trkpt>
      <trkpt lat="43.17271" lon="0.62648">
        <ele>491.8</ele>
        <time>2025-12-29T10:49:50Z</time>
      </trkpt>
      <trkpt lat="43.17274" lon="0.62654">
        <ele>491.8</ele>
        <time>2025-12-29T10:49:51Z</time>
      </trkpt>
      <trkpt lat="43.17276" lon="0.6266">
        <ele>491.8</ele>
        <time>2025-12-29T10:49:52Z</time>
      </trkpt>
      <trkpt lat="43.17279" lon="0.62667">
        <ele>491.8</ele>
        <time>2025-12-29T10:49:53Z</time>
      </trkpt>
      <trkpt lat="43.17282" lon="0.62673">
        <ele>490.6</ele>
        <time>2025-12-29T10:49:54Z</time>
      </trkpt>
      <trkpt lat="43.17285" lon="0.6268">
        <ele>490.6</ele>
        <time>2025-12-29T10:49:55Z</time>
      </trkpt>
      <trkpt lat="43.17288" lon="0.62687">
        <ele>490.6</ele>
        <time>2025-12-29T10:49:56Z</time>
      </trkpt>
      <trkpt lat="43.17291" lon="0.62693">
        <ele>490.6</ele>
        <time>2025-12-29T10:49:57Z</time>
      </trkpt>
      <trkpt lat="43.17294" lon="0.627">
        <ele>490.8</ele>
        <time>2025-12-29T10:49:58Z</time>
      </trkpt>
      <trkpt lat="43.17297" lon="0.62706">
        <ele>490.8</ele>
        <time>2025-12-29T10:49:59Z</time>
      </trkpt>
      <trkpt lat="43.173" lon="0.62713">
        <ele>490.8</ele>
        <time>2025-12-29T10:50:00Z</time>
      </trkpt>
      <trkpt lat="43.17303" lon="0.6272">
        <ele>489.8</ele>
        <time>2025-12-29T10:50:01Z</time>
      </trkpt>
      <trkpt lat="43.17306" lon="0.62727">
        <ele>489.4</ele>
        <time>2025-12-29T10:50:02Z</time>
      </trkpt>
      <trkpt lat="43.17309" lon="0.62733">
        <ele>489.4</ele>
        <time>2025-12-29T10:50:03Z</time>
      </trkpt>
      <trkpt lat="43.17312" lon="0.62739">
        <ele>489.4</ele>
        <time>2025-12-29T10:50:04Z</time>
      </trkpt>
      <trkpt lat="43.17314" lon="0.62745">
        <ele>489</ele>
        <time>2025-12-29T10:50:05Z</time>
      </trkpt>
      <trkpt lat="43.17317" lon="0.6275">
        <ele>489.8</ele>
        <time>2025-12-29T10:50:06Z</time>
      </trkpt>
      <trkpt lat="43.17319" lon="0.62755">
        <ele>489.8</ele>
        <time>2025-12-29T10:50:07Z</time>
      </trkpt>
      <trkpt lat="43.17322" lon="0.6276">
        <ele>489.8</ele>
        <time>2025-12-29T10:50:08Z</time>
      </trkpt>
      <trkpt lat="43.17325" lon="0.62766">
        <ele>489.6</ele>
        <time>2025-12-29T10:50:09Z</time>
      </trkpt>
      <trkpt lat="43.17328" lon="0.62771">
        <ele>489.2</ele>
        <time>2025-12-29T10:50:10Z</time>
      </trkpt>
      <trkpt lat="43.17331" lon="0.62776">
        <ele>489.2</ele>
        <time>2025-12-29T10:50:11Z</time>
      </trkpt>
      <trkpt lat="43.17333" lon="0.62781">
        <ele>489.2</ele>
        <time>2025-12-29T10:50:12Z</time>
      </trkpt>
      <trkpt lat="43.17336" lon="0.62786">
        <ele>489.2</ele>
        <time>2025-12-29T10:50:13Z</time>
      </trkpt>
      <trkpt lat="43.17339" lon="0.62791">
        <ele>487.6</ele>
        <time>2025-12-29T10:50:14Z</time>
      </trkpt>
      <trkpt lat="43.17342" lon="0.62796">
        <ele>487.6</ele>
        <time>2025-12-29T10:50:15Z</time>
      </trkpt>
      <trkpt lat="43.17344" lon="0.62801">
        <ele>487.6</ele>
        <time>2025-12-29T10:50:16Z</time>
      </trkpt>
      <trkpt lat="43.17347" lon="0.62807">
        <ele>488.6</ele>
        <time>2025-12-29T10:50:17Z</time>
      </trkpt>
      <trkpt lat="43.1735" lon="0.62812">
        <ele>489.2</ele>
        <time>2025-12-29T10:50:18Z</time>
      </trkpt>
      <trkpt lat="43.17353" lon="0.62817">
        <ele>489.2</ele>
        <time>2025-12-29T10:50:19Z</time>
      </trkpt>
      <trkpt lat="43.17356" lon="0.62823">
        <ele>489.2</ele>
        <time>2025-12-29T10:50:20Z</time>
      </trkpt>
      <trkpt lat="43.17358" lon="0.62828">
        <ele>489.6</ele>
        <time>2025-12-29T10:50:21Z</time>
      </trkpt>
      <trkpt lat="43.17361" lon="0.62834">
        <ele>490.4</ele>
        <time>2025-12-29T10:50:22Z</time>
      </trkpt>
      <trkpt lat="43.17363" lon="0.6284">
        <ele>490.4</ele>
        <time>2025-12-29T10:50:23Z</time>
      </trkpt>
      <trkpt lat="43.17365" lon="0.62845">
        <ele>490.4</ele>
        <time>2025-12-29T10:50:24Z</time>
      </trkpt>
      <trkpt lat="43.17367" lon="0.62851">
        <ele>489.8</ele>
        <time>2025-12-29T10:50:25Z</time>
      </trkpt>
      <trkpt lat="43.17369" lon="0.62856">
        <ele>489.6</ele>
        <time>2025-12-29T10:50:26Z</time>
      </trkpt>
      <trkpt lat="43.17371" lon="0.62861">
        <ele>489.6</ele>
        <time>2025-12-29T10:50:27Z</time>
      </trkpt>
      <trkpt lat="43.17373" lon="0.62866">
        <ele>489.6</ele>
        <time>2025-12-29T10:50:28Z</time>
      </trkpt>
      <trkpt lat="43.17375" lon="0.6287">
        <ele>489.4</ele>
        <time>2025-12-29T10:50:29Z</time>
      </trkpt>
      <trkpt lat="43.17377" lon="0.62875">
        <ele>489.4</ele>
        <time>2025-12-29T10:50:30Z</time>
      </trkpt>
      <trkpt lat="43.17379" lon="0.6288">
        <ele>489.4</ele>
        <time>2025-12-29T10:50:31Z</time>
      </trkpt>
      <trkpt lat="43.17381" lon="0.62885">
        <ele>489.4</ele>
        <time>2025-12-29T10:50:32Z</time>
      </trkpt>
      <trkpt lat="43.17383" lon="0.6289">
        <ele>489.6</ele>
        <time>2025-12-29T10:50:33Z</time>
      </trkpt>
      <trkpt lat="43.17384" lon="0.62895">
        <ele>490</ele>
        <time>2025-12-29T10:50:34Z</time>
      </trkpt>
      <trkpt lat="43.17386" lon="0.629">
        <ele>490</ele>
        <time>2025-12-29T10:50:35Z</time>
      </trkpt>
      <trkpt lat="43.17388" lon="0.62905">
        <ele>490</ele>
        <time>2025-12-29T10:50:36Z</time>
      </trkpt>
      <trkpt lat="43.17389" lon="0.62909">
        <ele>490</ele>
        <time>2025-12-29T10:50:37Z</time>
      </trkpt>
      <trkpt lat="43.17391" lon="0.62913">
        <ele>490.6</ele>
        <time>2025-12-29T10:50:38Z</time>
      </trkpt>
      <trkpt lat="43.17394" lon="0.62917">
        <ele>490.6</ele>
        <time>2025-12-29T10:50:39Z</time>
      </trkpt>
      <trkpt lat="43.17396" lon="0.62921">
        <ele>490.6</ele>
        <time>2025-12-29T10:50:40Z</time>
      </trkpt>
      <trkpt lat="43.17397" lon="0.62925">
        <ele>490.6</ele>
        <time>2025-12-29T10:50:41Z</time>
      </trkpt>
      <trkpt lat="43.17398" lon="0.6293">
        <ele>490.4</ele>
        <time>2025-12-29T10:50:42Z</time>
      </trkpt>
      <trkpt lat="43.174" lon="0.62936">
        <ele>490.4</ele>
        <time>2025-12-29T10:50:43Z</time>
      </trkpt>
      <trkpt lat="43.17401" lon="0.62941">
        <ele>490.4</ele>
        <time>2025-12-29T10:50:44Z</time>
      </trkpt>
      <trkpt lat="43.17402" lon="0.62947">
        <ele>490.4</ele>
        <time>2025-12-29T10:50:45Z</time>
      </trkpt>
      <trkpt lat="43.17404" lon="0.62952">
        <ele>490.8</ele>
        <time>2025-12-29T10:50:46Z</time>
      </trkpt>
      <trkpt lat="43.17405" lon="0.62957">
        <ele>490.8</ele>
        <time>2025-12-29T10:50:47Z</time>
      </trkpt>
      <trkpt lat="43.17407" lon="0.62962">
        <ele>490.8</ele>
        <time>2025-12-29T10:50:48Z</time>
      </trkpt>
      <trkpt lat="43.17409" lon="0.62966">
        <ele>490.8</ele>
        <time>2025-12-29T10:50:49Z</time>
      </trkpt>
      <trkpt lat="43.17411" lon="0.62971">
        <ele>491.6</ele>
        <time>2025-12-29T10:50:50Z</time>
      </trkpt>
      <trkpt lat="43.17413" lon="0.62975">
        <ele>491.6</ele>
        <time>2025-12-29T10:50:51Z</time>
      </trkpt>
      <trkpt lat="43.17415" lon="0.62979">
        <ele>491.6</ele>
        <time>2025-12-29T10:50:52Z</time>
      </trkpt>
      <trkpt lat="43.17416" lon="0.62984">
        <ele>490.8</ele>
        <time>2025-12-29T10:50:53Z</time>
      </trkpt>
      <trkpt lat="43.17418" lon="0.62989">
        <ele>491.4</ele>
        <time>2025-12-29T10:50:54Z</time>
      </trkpt>
      <trkpt lat="43.17419" lon="0.62993">
        <ele>491.4</ele>
        <time>2025-12-29T10:50:55Z</time>
      </trkpt>
      <trkpt lat="43.17421" lon="0.62998">
        <ele>491.4</ele>
        <time>2025-12-29T10:50:56Z</time>
      </trkpt>
      <trkpt lat="43.17423" lon="0.63002">
        <ele>491.4</ele>
        <time>2025-12-29T10:50:57Z</time>
      </trkpt>
      <trkpt lat="43.17425" lon="0.63006">
        <ele>492</ele>
        <time>2025-12-29T10:50:58Z</time>
      </trkpt>
      <trkpt lat="43.17427" lon="0.63011">
        <ele>492</ele>
        <time>2025-12-29T10:50:59Z</time>
      </trkpt>
      <trkpt lat="43.17428" lon="0.63015">
        <ele>492</ele>
        <time>2025-12-29T10:51:00Z</time>
      </trkpt>
      <trkpt lat="43.1743" lon="0.6302">
        <ele>491.6</ele>
        <time>2025-12-29T10:51:01Z</time>
      </trkpt>
      <trkpt lat="43.17432" lon="0.63025">
        <ele>491.6</ele>
        <time>2025-12-29T10:51:02Z</time>
      </trkpt>
      <trkpt lat="43.17434" lon="0.63029">
        <ele>491.6</ele>
        <time>2025-12-29T10:51:03Z</time>
      </trkpt>
      <trkpt lat="43.17436" lon="0.63034">
        <ele>491.6</ele>
        <time>2025-12-29T10:51:04Z</time>
      </trkpt>
      <trkpt lat="43.17439" lon="0.63039">
        <ele>490.6</ele>
        <time>2025-12-29T10:51:05Z</time>
      </trkpt>
      <trkpt lat="43.17441" lon="0.63044">
        <ele>491.4</ele>
        <time>2025-12-29T10:51:06Z</time>
      </trkpt>
      <trkpt lat="43.17443" lon="0.63049">
        <ele>491.4</ele>
        <time>2025-12-29T10:51:07Z</time>
      </trkpt>
      <trkpt lat="43.17445" lon="0.63054">
        <ele>491.4</ele>
        <time>2025-12-29T10:51:08Z</time>
      </trkpt>
      <trkpt lat="43.17447" lon="0.63058">
        <ele>491.4</ele>
        <time>2025-12-29T10:51:09Z</time>
      </trkpt>
      <trkpt lat="43.17449" lon="0.63063">
        <ele>490.2</ele>
        <time>2025-12-29T10:51:10Z</time>
      </trkpt>
      <trkpt lat="43.17451" lon="0.63068">
        <ele>490.2</ele>
        <time>2025-12-29T10:51:11Z</time>
      </trkpt>
      <trkpt lat="43.17453" lon="0.63073">
        <ele>490.2</ele>
        <time>2025-12-29T10:51:12Z</time>
      </trkpt>
      <trkpt lat="43.17456" lon="0.63079">
        <ele>491</ele>
        <time>2025-12-29T10:51:13Z</time>
      </trkpt>
      <trkpt lat="43.17458" lon="0.63084">
        <ele>491.2</ele>
        <time>2025-12-29T10:51:14Z</time>
      </trkpt>
      <trkpt lat="43.1746" lon="0.6309">
        <ele>491.2</ele>
        <time>2025-12-29T10:51:15Z</time>
      </trkpt>
      <trkpt lat="43.17463" lon="0.63095">
        <ele>491.2</ele>
        <time>2025-12-29T10:51:16Z</time>
      </trkpt>
      <trkpt lat="43.17465" lon="0.631">
        <ele>491.2</ele>
        <time>2025-12-29T10:51:17Z</time>
      </trkpt>
      <trkpt lat="43.17467" lon="0.63105">
        <ele>490.6</ele>
        <time>2025-12-29T10:51:18Z</time>
      </trkpt>
      <trkpt lat="43.1747" lon="0.6311">
        <ele>490.6</ele>
        <time>2025-12-29T10:51:19Z</time>
      </trkpt>
      <trkpt lat="43.17472" lon="0.63115">
        <ele>490.6</ele>
        <time>2025-12-29T10:51:20Z</time>
      </trkpt>
      <trkpt lat="43.17474" lon="0.6312">
        <ele>490.6</ele>
        <time>2025-12-29T10:51:21Z</time>
      </trkpt>
      <trkpt lat="43.17476" lon="0.63124">
        <ele>490.6</ele>
        <time>2025-12-29T10:51:22Z</time>
      </trkpt>
      <trkpt lat="43.17478" lon="0.63129">
        <ele>490.6</ele>
        <time>2025-12-29T10:51:23Z</time>
      </trkpt>
      <trkpt lat="43.1748" lon="0.63133">
        <ele>490.6</ele>
        <time>2025-12-29T10:51:24Z</time>
      </trkpt>
      <trkpt lat="43.17482" lon="0.63137">
        <ele>490.6</ele>
        <time>2025-12-29T10:51:25Z</time>
      </trkpt>
      <trkpt lat="43.17484" lon="0.63141">
        <ele>490.4</ele>
        <time>2025-12-29T10:51:26Z</time>
      </trkpt>
      <trkpt lat="43.17485" lon="0.63145">
        <ele>490.4</ele>
        <time>2025-12-29T10:51:27Z</time>
      </trkpt>
      <trkpt lat="43.17487" lon="0.63149">
        <ele>490.4</ele>
        <time>2025-12-29T10:51:28Z</time>
      </trkpt>
      <trkpt lat="43.17489" lon="0.63153">
        <ele>490.4</ele>
        <time>2025-12-29T10:51:29Z</time>
      </trkpt>
      <trkpt lat="43.1749" lon="0.63157">
        <ele>490.8</ele>
        <time>2025-12-29T10:51:30Z</time>
      </trkpt>
      <trkpt lat="43.17492" lon="0.63162">
        <ele>490.8</ele>
        <time>2025-12-29T10:51:31Z</time>
      </trkpt>
      <trkpt lat="43.17494" lon="0.63166">
        <ele>490.8</ele>
        <time>2025-12-29T10:51:32Z</time>
      </trkpt>
      <trkpt lat="43.17497" lon="0.6317">
        <ele>490.2</ele>
        <time>2025-12-29T10:51:33Z</time>
      </trkpt>
      <trkpt lat="43.17499" lon="0.63174">
        <ele>490.8</ele>
        <time>2025-12-29T10:51:34Z</time>
      </trkpt>
      <trkpt lat="43.175" lon="0.63178">
        <ele>490.8</ele>
        <time>2025-12-29T10:51:35Z</time>
      </trkpt>
      <trkpt lat="43.17502" lon="0.63182">
        <ele>490.8</ele>
        <time>2025-12-29T10:51:36Z</time>
      </trkpt>
      <trkpt lat="43.17504" lon="0.63186">
        <ele>490.8</ele>
        <time>2025-12-29T10:51:37Z</time>
      </trkpt>
      <trkpt lat="43.17506" lon="0.6319">
        <ele>491</ele>
        <time>2025-12-29T10:51:38Z</time>
      </trkpt>
      <trkpt lat="43.17508" lon="0.63195">
        <ele>491</ele>
        <time>2025-12-29T10:51:39Z</time>
      </trkpt>
      <trkpt lat="43.17509" lon="0.63199">
        <ele>491</ele>
        <time>2025-12-29T10:51:40Z</time>
      </trkpt>
      <trkpt lat="43.17511" lon="0.63203">
        <ele>490</ele>
        <time>2025-12-29T10:51:41Z</time>
      </trkpt>
      <trkpt lat="43.17513" lon="0.63206">
        <ele>490</ele>
        <time>2025-12-29T10:51:42Z</time>
      </trkpt>
      <trkpt lat="43.17514" lon="0.63209">
        <ele>490</ele>
        <time>2025-12-29T10:51:43Z</time>
      </trkpt>
      <trkpt lat="43.17516" lon="0.63213">
        <ele>490</ele>
        <time>2025-12-29T10:51:44Z</time>
      </trkpt>
      <trkpt lat="43.17518" lon="0.63217">
        <ele>490</ele>
        <time>2025-12-29T10:51:45Z</time>
      </trkpt>
      <trkpt lat="43.17519" lon="0.63222">
        <ele>489.4</ele>
        <time>2025-12-29T10:51:46Z</time>
      </trkpt>
      <trkpt lat="43.17521" lon="0.63226">
        <ele>489.4</ele>
        <time>2025-12-29T10:51:47Z</time>
      </trkpt>
      <trkpt lat="43.17523" lon="0.63231">
        <ele>489.4</ele>
        <time>2025-12-29T10:51:48Z</time>
      </trkpt>
      <trkpt lat="43.17525" lon="0.63235">
        <ele>489.8</ele>
        <time>2025-12-29T10:51:49Z</time>
      </trkpt>
      <trkpt lat="43.17527" lon="0.63239">
        <ele>490.2</ele>
        <time>2025-12-29T10:51:50Z</time>
      </trkpt>
      <trkpt lat="43.17529" lon="0.63243">
        <ele>490.2</ele>
        <time>2025-12-29T10:51:51Z</time>
      </trkpt>
      <trkpt lat="43.1753" lon="0.63247">
        <ele>490.2</ele>
        <time>2025-12-29T10:51:52Z</time>
      </trkpt>
      <trkpt lat="43.17532" lon="0.63251">
        <ele>490.2</ele>
        <time>2025-12-29T10:51:53Z</time>
      </trkpt>
      <trkpt lat="43.17534" lon="0.63255">
        <ele>489.4</ele>
        <time>2025-12-29T10:51:54Z</time>
      </trkpt>
      <trkpt lat="43.17536" lon="0.6326">
        <ele>489.4</ele>
        <time>2025-12-29T10:51:55Z</time>
      </trkpt>
      <trkpt lat="43.17538" lon="0.63264">
        <ele>489.4</ele>
        <time>2025-12-29T10:51:56Z</time>
      </trkpt>
      <trkpt lat="43.17539" lon="0.63268">
        <ele>490.4</ele>
        <time>2025-12-29T10:51:57Z</time>
      </trkpt>
      <trkpt lat="43.17541" lon="0.63271">
        <ele>490</ele>
        <time>2025-12-29T10:51:58Z</time>
      </trkpt>
      <trkpt lat="43.17542" lon="0.63275">
        <ele>490</ele>
        <time>2025-12-29T10:51:59Z</time>
      </trkpt>
      <trkpt lat="43.17543" lon="0.63278">
        <ele>490</ele>
        <time>2025-12-29T10:52:00Z</time>
      </trkpt>
      <trkpt lat="43.17545" lon="0.63282">
        <ele>490</ele>
        <time>2025-12-29T10:52:01Z</time>
      </trkpt>
      <trkpt lat="43.17547" lon="0.63286">
        <ele>489.6</ele>
        <time>2025-12-29T10:52:02Z</time>
      </trkpt>
      <trkpt lat="43.17548" lon="0.6329">
        <ele>489.6</ele>
        <time>2025-12-29T10:52:03Z</time>
      </trkpt>
      <trkpt lat="43.1755" lon="0.63294">
        <ele>489.6</ele>
        <time>2025-12-29T10:52:04Z</time>
      </trkpt>
      <trkpt lat="43.17552" lon="0.63299">
        <ele>489.6</ele>
        <time>2025-12-29T10:52:05Z</time>
      </trkpt>
      <trkpt lat="43.17555" lon="0.63304">
        <ele>489.4</ele>
        <time>2025-12-29T10:52:06Z</time>
      </trkpt>
      <trkpt lat="43.17557" lon="0.63309">
        <ele>489.4</ele>
        <time>2025-12-29T10:52:07Z</time>
      </trkpt>
      <trkpt lat="43.1756" lon="0.63314">
        <ele>489.4</ele>
        <time>2025-12-29T10:52:08Z</time>
      </trkpt>
      <trkpt lat="43.17562" lon="0.6332">
        <ele>489.4</ele>
        <time>2025-12-29T10:52:09Z</time>
      </trkpt>
      <trkpt lat="43.17564" lon="0.63325">
        <ele>489.2</ele>
        <time>2025-12-29T10:52:10Z</time>
      </trkpt>
      <trkpt lat="43.17567" lon="0.63331">
        <ele>489.2</ele>
        <time>2025-12-29T10:52:11Z</time>
      </trkpt>
      <trkpt lat="43.1757" lon="0.63336">
        <ele>489.2</ele>
        <time>2025-12-29T10:52:12Z</time>
      </trkpt>
      <trkpt lat="43.17572" lon="0.63342">
        <ele>489.2</ele>
        <time>2025-12-29T10:52:13Z</time>
      </trkpt>
      <trkpt lat="43.17575" lon="0.63348">
        <ele>488.8</ele>
        <time>2025-12-29T10:52:14Z</time>
      </trkpt>
      <trkpt lat="43.17577" lon="0.63353">
        <ele>488.8</ele>
        <time>2025-12-29T10:52:15Z</time>
      </trkpt>
      <trkpt lat="43.1758" lon="0.63359">
        <ele>488.8</ele>
        <time>2025-12-29T10:52:16Z</time>
      </trkpt>
      <trkpt lat="43.17582" lon="0.63364">
        <ele>488.8</ele>
        <time>2025-12-29T10:52:17Z</time>
      </trkpt>
      <trkpt lat="43.17585" lon="0.63369">
        <ele>489</ele>
        <time>2025-12-29T10:52:18Z</time>
      </trkpt>
      <trkpt lat="43.17588" lon="0.63375">
        <ele>489</ele>
        <time>2025-12-29T10:52:19Z</time>
      </trkpt>
      <trkpt lat="43.1759" lon="0.6338">
        <ele>489</ele>
        <time>2025-12-29T10:52:20Z</time>
      </trkpt>
      <trkpt lat="43.17593" lon="0.63386">
        <ele>489</ele>
        <time>2025-12-29T10:52:21Z</time>
      </trkpt>
      <trkpt lat="43.17595" lon="0.63391">
        <ele>490.4</ele>
        <time>2025-12-29T10:52:22Z</time>
      </trkpt>
      <trkpt lat="43.17598" lon="0.63396">
        <ele>490.4</ele>
        <time>2025-12-29T10:52:23Z</time>
      </trkpt>
      <trkpt lat="43.176" lon="0.63401">
        <ele>490.4</ele>
        <time>2025-12-29T10:52:24Z</time>
      </trkpt>
      <trkpt lat="43.17603" lon="0.63407">
        <ele>490.4</ele>
        <time>2025-12-29T10:52:25Z</time>
      </trkpt>
      <trkpt lat="43.17606" lon="0.63412">
        <ele>490.2</ele>
        <time>2025-12-29T10:52:26Z</time>
      </trkpt>
      <trkpt lat="43.17608" lon="0.63418">
        <ele>490.2</ele>
        <time>2025-12-29T10:52:27Z</time>
      </trkpt>
      <trkpt lat="43.17611" lon="0.63423">
        <ele>490.2</ele>
        <time>2025-12-29T10:52:28Z</time>
      </trkpt>
      <trkpt lat="43.17613" lon="0.63428">
        <ele>490.2</ele>
        <time>2025-12-29T10:52:29Z</time>
      </trkpt>
      <trkpt lat="43.17616" lon="0.63434">
        <ele>490.6</ele>
        <time>2025-12-29T10:52:30Z</time>
      </trkpt>
      <trkpt lat="43.17618" lon="0.63439">
        <ele>490.6</ele>
        <time>2025-12-29T10:52:31Z</time>
      </trkpt>
      <trkpt lat="43.17621" lon="0.63444">
        <ele>490.6</ele>
        <time>2025-12-29T10:52:32Z</time>
      </trkpt>
      <trkpt lat="43.17623" lon="0.63449">
        <ele>490.6</ele>
        <time>2025-12-29T10:52:33Z</time>
      </trkpt>
      <trkpt lat="43.17625" lon="0.63454">
        <ele>490.2</ele>
        <time>2025-12-29T10:52:34Z</time>
      </trkpt>
      <trkpt lat="43.17628" lon="0.6346">
        <ele>490.2</ele>
        <time>2025-12-29T10:52:35Z</time>
      </trkpt>
      <trkpt lat="43.1763" lon="0.63465">
        <ele>490.2</ele>
        <time>2025-12-29T10:52:36Z</time>
      </trkpt>
      <trkpt lat="43.17632" lon="0.6347">
        <ele>490.2</ele>
        <time>2025-12-29T10:52:37Z</time>
      </trkpt>
      <trkpt lat="43.17635" lon="0.63475">
        <ele>491.2</ele>
        <time>2025-12-29T10:52:38Z</time>
      </trkpt>
      <trkpt lat="43.17637" lon="0.6348">
        <ele>491.2</ele>
        <time>2025-12-29T10:52:39Z</time>
      </trkpt>
      <trkpt lat="43.1764" lon="0.63485">
        <ele>491.2</ele>
        <time>2025-12-29T10:52:40Z</time>
      </trkpt>
      <trkpt lat="43.17642" lon="0.6349">
        <ele>490.8</ele>
        <time>2025-12-29T10:52:41Z</time>
      </trkpt>
      <trkpt lat="43.17645" lon="0.63495">
        <ele>489.4</ele>
        <time>2025-12-29T10:52:42Z</time>
      </trkpt>
      <trkpt lat="43.17647" lon="0.635">
        <ele>489.4</ele>
        <time>2025-12-29T10:52:43Z</time>
      </trkpt>
      <trkpt lat="43.17649" lon="0.63505">
        <ele>489.4</ele>
        <time>2025-12-29T10:52:44Z</time>
      </trkpt>
      <trkpt lat="43.17652" lon="0.6351">
        <ele>490.4</ele>
        <time>2025-12-29T10:52:45Z</time>
      </trkpt>
      <trkpt lat="43.17654" lon="0.63516">
        <ele>490.6</ele>
        <time>2025-12-29T10:52:46Z</time>
      </trkpt>
      <trkpt lat="43.17656" lon="0.63521">
        <ele>490.6</ele>
        <time>2025-12-29T10:52:47Z</time>
      </trkpt>
      <trkpt lat="43.17659" lon="0.63525">
        <ele>490.6</ele>
        <time>2025-12-29T10:52:48Z</time>
      </trkpt>
      <trkpt lat="43.17661" lon="0.6353">
        <ele>490.6</ele>
        <time>2025-12-29T10:52:49Z</time>
      </trkpt>
      <trkpt lat="43.17664" lon="0.63535">
        <ele>489.8</ele>
        <time>2025-12-29T10:52:50Z</time>
      </trkpt>
      <trkpt lat="43.17666" lon="0.6354">
        <ele>489.8</ele>
        <time>2025-12-29T10:52:51Z</time>
      </trkpt>
      <trkpt lat="43.17669" lon="0.63546">
        <ele>489.8</ele>
        <time>2025-12-29T10:52:52Z</time>
      </trkpt>
      <trkpt lat="43.17671" lon="0.63551">
        <ele>490.8</ele>
        <time>2025-12-29T10:52:53Z</time>
      </trkpt>
      <trkpt lat="43.17674" lon="0.63556">
        <ele>490.4</ele>
        <time>2025-12-29T10:52:54Z</time>
      </trkpt>
      <trkpt lat="43.17676" lon="0.63561">
        <ele>490.4</ele>
        <time>2025-12-29T10:52:55Z</time>
      </trkpt>
      <trkpt lat="43.17678" lon="0.63566">
        <ele>490.4</ele>
        <time>2025-12-29T10:52:56Z</time>
      </trkpt>
      <trkpt lat="43.17681" lon="0.63572">
        <ele>490.6</ele>
        <time>2025-12-29T10:52:57Z</time>
      </trkpt>
      <trkpt lat="43.17683" lon="0.63577">
        <ele>491.4</ele>
        <time>2025-12-29T10:52:58Z</time>
      </trkpt>
      <trkpt lat="43.17686" lon="0.63583">
        <ele>491.4</ele>
        <time>2025-12-29T10:52:59Z</time>
      </trkpt>
      <trkpt lat="43.17688" lon="0.63588">
        <ele>491.4</ele>
        <time>2025-12-29T10:53:00Z</time>
      </trkpt>
      <trkpt lat="43.17691" lon="0.63594">
        <ele>491.4</ele>
        <time>2025-12-29T10:53:01Z</time>
      </trkpt>
      <trkpt lat="43.17694" lon="0.63599">
        <ele>490.8</ele>
        <time>2025-12-29T10:53:02Z</time>
      </trkpt>
      <trkpt lat="43.17697" lon="0.63605">
        <ele>490.8</ele>
        <time>2025-12-29T10:53:03Z</time>
      </trkpt>
      <trkpt lat="43.177" lon="0.6361">
        <ele>490.8</ele>
        <time>2025-12-29T10:53:04Z</time>
      </trkpt>
      <trkpt lat="43.17702" lon="0.63616">
        <ele>489.8</ele>
        <time>2025-12-29T10:53:05Z</time>
      </trkpt>
      <trkpt lat="43.17705" lon="0.63621">
        <ele>490.4</ele>
        <time>2025-12-29T10:53:06Z</time>
      </trkpt>
      <trkpt lat="43.17708" lon="0.63627">
        <ele>490.4</ele>
        <time>2025-12-29T10:53:07Z</time>
      </trkpt>
      <trkpt lat="43.17711" lon="0.63633">
        <ele>490.4</ele>
        <time>2025-12-29T10:53:08Z</time>
      </trkpt>
      <trkpt lat="43.17714" lon="0.63638">
        <ele>490.4</ele>
        <time>2025-12-29T10:53:09Z</time>
      </trkpt>
      <trkpt lat="43.17716" lon="0.63643">
        <ele>489.4</ele>
        <time>2025-12-29T10:53:10Z</time>
      </trkpt>
      <trkpt lat="43.17718" lon="0.63649">
        <ele>489.4</ele>
        <time>2025-12-29T10:53:11Z</time>
      </trkpt>
      <trkpt lat="43.17721" lon="0.63655">
        <ele>489.4</ele>
        <time>2025-12-29T10:53:12Z</time>
      </trkpt>
      <trkpt lat="43.17724" lon="0.6366">
        <ele>490.2</ele>
        <time>2025-12-29T10:53:13Z</time>
      </trkpt>
      <trkpt lat="43.17726" lon="0.63665">
        <ele>490.6</ele>
        <time>2025-12-29T10:53:14Z</time>
      </trkpt>
      <trkpt lat="43.17728" lon="0.63671">
        <ele>490.6</ele>
        <time>2025-12-29T10:53:15Z</time>
      </trkpt>
      <trkpt lat="43.17731" lon="0.63676">
        <ele>490.6</ele>
        <time>2025-12-29T10:53:16Z</time>
      </trkpt>
      <trkpt lat="43.17733" lon="0.63681">
        <ele>490.6</ele>
        <time>2025-12-29T10:53:17Z</time>
      </trkpt>
      <trkpt lat="43.17736" lon="0.63686">
        <ele>490.6</ele>
        <time>2025-12-29T10:53:18Z</time>
      </trkpt>
      <trkpt lat="43.17738" lon="0.63691">
        <ele>490.6</ele>
        <time>2025-12-29T10:53:19Z</time>
      </trkpt>
      <trkpt lat="43.17741" lon="0.63697">
        <ele>490.6</ele>
        <time>2025-12-29T10:53:20Z</time>
      </trkpt>
      <trkpt lat="43.17743" lon="0.63702">
        <ele>490.6</ele>
        <time>2025-12-29T10:53:21Z</time>
      </trkpt>
      <trkpt lat="43.17746" lon="0.63707">
        <ele>490</ele>
        <time>2025-12-29T10:53:22Z</time>
      </trkpt>
      <trkpt lat="43.17749" lon="0.63712">
        <ele>490</ele>
        <time>2025-12-29T10:53:23Z</time>
      </trkpt>
      <trkpt lat="43.17751" lon="0.63717">
        <ele>490</ele>
        <time>2025-12-29T10:53:24Z</time>
      </trkpt>
      <trkpt lat="43.17755" lon="0.63723">
        <ele>490</ele>
        <time>2025-12-29T10:53:25Z</time>
      </trkpt>
      <trkpt lat="43.17758" lon="0.63728">
        <ele>489.2</ele>
        <time>2025-12-29T10:53:26Z</time>
      </trkpt>
      <trkpt lat="43.17761" lon="0.63733">
        <ele>489.2</ele>
        <time>2025-12-29T10:53:27Z</time>
      </trkpt>
      <trkpt lat="43.17764" lon="0.63738">
        <ele>489.2</ele>
        <time>2025-12-29T10:53:28Z</time>
      </trkpt>
      <trkpt lat="43.17768" lon="0.63742">
        <ele>488.6</ele>
        <time>2025-12-29T10:53:29Z</time>
      </trkpt>
      <trkpt lat="43.17772" lon="0.63747">
        <ele>488.8</ele>
        <time>2025-12-29T10:53:30Z</time>
      </trkpt>
      <trkpt lat="43.17775" lon="0.63752">
        <ele>488.8</ele>
        <time>2025-12-29T10:53:31Z</time>
      </trkpt>
      <trkpt lat="43.17778" lon="0.63757">
        <ele>488.8</ele>
        <time>2025-12-29T10:53:32Z</time>
      </trkpt>
      <trkpt lat="43.17781" lon="0.63762">
        <ele>488.8</ele>
        <time>2025-12-29T10:53:33Z</time>
      </trkpt>
      <trkpt lat="43.17784" lon="0.63767">
        <ele>488.2</ele>
        <time>2025-12-29T10:53:34Z</time>
      </trkpt>
      <trkpt lat="43.17787" lon="0.63773">
        <ele>488.2</ele>
        <time>2025-12-29T10:53:35Z</time>
      </trkpt>
      <trkpt lat="43.17791" lon="0.63778">
        <ele>488.2</ele>
        <time>2025-12-29T10:53:36Z</time>
      </trkpt>
      <trkpt lat="43.17794" lon="0.63783">
        <ele>488.2</ele>
        <time>2025-12-29T10:53:37Z</time>
      </trkpt>
      <trkpt lat="43.17798" lon="0.63788">
        <ele>488.4</ele>
        <time>2025-12-29T10:53:38Z</time>
      </trkpt>
      <trkpt lat="43.17801" lon="0.63793">
        <ele>488.4</ele>
        <time>2025-12-29T10:53:39Z</time>
      </trkpt>
      <trkpt lat="43.17804" lon="0.63799">
        <ele>488.4</ele>
        <time>2025-12-29T10:53:40Z</time>
      </trkpt>
      <trkpt lat="43.17807" lon="0.63804">
        <ele>488.4</ele>
        <time>2025-12-29T10:53:41Z</time>
      </trkpt>
      <trkpt lat="43.1781" lon="0.63809">
        <ele>489.4</ele>
        <time>2025-12-29T10:53:42Z</time>
      </trkpt>
      <trkpt lat="43.17813" lon="0.63814">
        <ele>489.4</ele>
        <time>2025-12-29T10:53:43Z</time>
      </trkpt>
      <trkpt lat="43.17816" lon="0.63818">
        <ele>489.4</ele>
        <time>2025-12-29T10:53:44Z</time>
      </trkpt>
      <trkpt lat="43.17819" lon="0.63823">
        <ele>489.4</ele>
        <time>2025-12-29T10:53:45Z</time>
      </trkpt>
      <trkpt lat="43.17821" lon="0.63828">
        <ele>488.8</ele>
        <time>2025-12-29T10:53:46Z</time>
      </trkpt>
      <trkpt lat="43.17824" lon="0.63832">
        <ele>488.8</ele>
        <time>2025-12-29T10:53:47Z</time>
      </trkpt>
      <trkpt lat="43.17827" lon="0.63837">
        <ele>488.8</ele>
        <time>2025-12-29T10:53:48Z</time>
      </trkpt>
      <trkpt lat="43.17828" lon="0.63841">
        <ele>488.4</ele>
        <time>2025-12-29T10:53:49Z</time>
      </trkpt>
      <trkpt lat="43.1783" lon="0.63843">
        <ele>489.4</ele>
        <time>2025-12-29T10:53:50Z</time>
      </trkpt>
      <trkpt lat="43.17831" lon="0.63846">
        <ele>489.4</ele>
        <time>2025-12-29T10:53:51Z</time>
      </trkpt>
      <trkpt lat="43.17832" lon="0.63849">
        <ele>489.4</ele>
        <time>2025-12-29T10:53:52Z</time>
      </trkpt>
      <trkpt lat="43.17834" lon="0.6385">
        <ele>488.8</ele>
        <time>2025-12-29T10:53:53Z</time>
      </trkpt>
      <trkpt lat="43.17835" lon="0.6385">
        <ele>489.2</ele>
        <time>2025-12-29T10:53:54Z</time>
      </trkpt>
      <trkpt lat="43.17836" lon="0.63848">
        <ele>489.2</ele>
        <time>2025-12-29T10:53:55Z</time>
      </trkpt>
      <trkpt lat="43.17836" lon="0.63847">
        <ele>489.2</ele>
        <time>2025-12-29T10:53:56Z</time>
      </trkpt>
      <trkpt lat="43.17835" lon="0.63845">
        <ele>489.2</ele>
        <time>2025-12-29T10:53:57Z</time>
      </trkpt>
      <trkpt lat="43.17835" lon="0.63843">
        <ele>489</ele>
        <time>2025-12-29T10:53:58Z</time>
      </trkpt>
      <trkpt lat="43.17834" lon="0.63842">
        <ele>489</ele>
        <time>2025-12-29T10:53:59Z</time>
      </trkpt>
      <trkpt lat="43.17835" lon="0.6384">
        <ele>489</ele>
        <time>2025-12-29T10:54:00Z</time>
      </trkpt>
      <trkpt lat="43.17834" lon="0.63839">
        <ele>489</ele>
        <time>2025-12-29T10:54:01Z</time>
      </trkpt>
      <trkpt lat="43.17834" lon="0.63837">
        <ele>488.8</ele>
        <time>2025-12-29T10:54:02Z</time>
      </trkpt>
      <trkpt lat="43.17833" lon="0.63836">
        <ele>488.8</ele>
        <time>2025-12-29T10:54:03Z</time>
      </trkpt>
      <trkpt lat="43.17832" lon="0.63836">
        <ele>488.8</ele>
        <time>2025-12-29T10:54:04Z</time>
      </trkpt>
      <trkpt lat="43.17831" lon="0.63838">
        <ele>488.8</ele>
        <time>2025-12-29T10:54:05Z</time>
      </trkpt>
      <trkpt lat="43.17831" lon="0.63841">
        <ele>489</ele>
        <time>2025-12-29T10:54:06Z</time>
      </trkpt>
      <trkpt lat="43.17833" lon="0.63843">
        <ele>489</ele>
        <time>2025-12-29T10:54:07Z</time>
      </trkpt>
      <trkpt lat="43.17835" lon="0.63846">
        <ele>489</ele>
        <time>2025-12-29T10:54:08Z</time>
      </trkpt>
      <trkpt lat="43.17837" lon="0.63849">
        <ele>489</ele>
        <time>2025-12-29T10:54:09Z</time>
      </trkpt>
      <trkpt lat="43.1784" lon="0.63852">
        <ele>488.8</ele>
        <time>2025-12-29T10:54:10Z</time>
      </trkpt>
      <trkpt lat="43.17842" lon="0.63856">
        <ele>488.8</ele>
        <time>2025-12-29T10:54:11Z</time>
      </trkpt>
      <trkpt lat="43.17845" lon="0.6386">
        <ele>488.8</ele>
        <time>2025-12-29T10:54:12Z</time>
      </trkpt>
      <trkpt lat="43.17847" lon="0.63864">
        <ele>488.8</ele>
        <time>2025-12-29T10:54:13Z</time>
      </trkpt>
      <trkpt lat="43.1785" lon="0.63868">
        <ele>487.8</ele>
        <time>2025-12-29T10:54:14Z</time>
      </trkpt>
      <trkpt lat="43.17852" lon="0.63873">
        <ele>487.8</ele>
        <time>2025-12-29T10:54:15Z</time>
      </trkpt>
      <trkpt lat="43.17854" lon="0.63876">
        <ele>487.8</ele>
        <time>2025-12-29T10:54:16Z</time>
      </trkpt>
      <trkpt lat="43.17856" lon="0.63879">
        <ele>488.2</ele>
        <time>2025-12-29T10:54:17Z</time>
      </trkpt>
      <trkpt lat="43.17857" lon="0.63881">
        <ele>488.6</ele>
        <time>2025-12-29T10:54:18Z</time>
      </trkpt>
      <trkpt lat="43.17858" lon="0.63881">
        <ele>488.6</ele>
        <time>2025-12-29T10:54:19Z</time>
      </trkpt>
      <trkpt lat="43.17858" lon="0.63881">
        <ele>488.6</ele>
        <time>2025-12-29T10:54:20Z</time>
      </trkpt>
      <trkpt lat="43.17858" lon="0.63881">
        <ele>488.6</ele>
        <time>2025-12-29T10:54:21Z</time>
      </trkpt>
      <trkpt lat="43.17859" lon="0.63883">
        <ele>489.4</ele>
        <time>2025-12-29T10:54:44Z</time>
      </trkpt>
      <trkpt lat="43.17857" lon="0.63882">
        <ele>489.2</ele>
        <time>2025-12-29T10:54:45Z</time>
      </trkpt>
      <trkpt lat="43.17856" lon="0.63881">
        <ele>489.4</ele>
        <time>2025-12-29T10:54:46Z</time>
      </trkpt>
      <trkpt lat="43.17856" lon="0.6388">
        <ele>489.4</ele>
        <time>2025-12-29T10:54:47Z</time>
      </trkpt>
      <trkpt lat="43.17854" lon="0.63878">
        <ele>489.4</ele>
        <time>2025-12-29T10:54:48Z</time>
      </trkpt>
      <trkpt lat="43.17854" lon="0.63876">
        <ele>488.8</ele>
        <time>2025-12-29T10:54:49Z</time>
      </trkpt>
      <trkpt lat="43.17853" lon="0.63874">
        <ele>489</ele>
        <time>2025-12-29T10:54:50Z</time>
      </trkpt>
      <trkpt lat="43.17851" lon="0.63872">
        <ele>489</ele>
        <time>2025-12-29T10:54:51Z</time>
      </trkpt>
      <trkpt lat="43.17849" lon="0.6387">
        <ele>489</ele>
        <time>2025-12-29T10:54:52Z</time>
      </trkpt>
      <trkpt lat="43.17848" lon="0.63867">
        <ele>489</ele>
        <time>2025-12-29T10:54:53Z</time>
      </trkpt>
      <trkpt lat="43.17846" lon="0.63864">
        <ele>489.2</ele>
        <time>2025-12-29T10:54:54Z</time>
      </trkpt>
      <trkpt lat="43.17844" lon="0.63861">
        <ele>489.2</ele>
        <time>2025-12-29T10:54:55Z</time>
      </trkpt>
      <trkpt lat="43.17843" lon="0.63858">
        <ele>489.2</ele>
        <time>2025-12-29T10:54:56Z</time>
      </trkpt>
      <trkpt lat="43.17841" lon="0.63854">
        <ele>489.2</ele>
        <time>2025-12-29T10:54:57Z</time>
      </trkpt>
      <trkpt lat="43.1784" lon="0.63852">
        <ele>489.2</ele>
        <time>2025-12-29T10:54:58Z</time>
      </trkpt>
      <trkpt lat="43.17838" lon="0.63849">
        <ele>489.2</ele>
        <time>2025-12-29T10:54:59Z</time>
      </trkpt>
      <trkpt lat="43.17836" lon="0.63847">
        <ele>489.2</ele>
        <time>2025-12-29T10:55:00Z</time>
      </trkpt>
      <trkpt lat="43.17835" lon="0.63845">
        <ele>489.2</ele>
        <time>2025-12-29T10:55:01Z</time>
      </trkpt>
      <trkpt lat="43.17835" lon="0.63842">
        <ele>488.8</ele>
        <time>2025-12-29T10:55:02Z</time>
      </trkpt>
      <trkpt lat="43.17837" lon="0.6384">
        <ele>488.8</ele>
        <time>2025-12-29T10:55:03Z</time>
      </trkpt>
      <trkpt lat="43.17838" lon="0.63838">
        <ele>488.8</ele>
        <time>2025-12-29T10:55:04Z</time>
      </trkpt>
      <trkpt lat="43.17839" lon="0.63837">
        <ele>488.8</ele>
        <time>2025-12-29T10:55:05Z</time>
      </trkpt>
      <trkpt lat="43.1784" lon="0.63836">
        <ele>489</ele>
        <time>2025-12-29T10:55:06Z</time>
      </trkpt>
      <trkpt lat="43.17842" lon="0.63836">
        <ele>489</ele>
        <time>2025-12-29T10:55:07Z</time>
      </trkpt>
      <trkpt lat="43.17843" lon="0.63836">
        <ele>489</ele>
        <time>2025-12-29T10:55:08Z</time>
      </trkpt>
      <trkpt lat="43.17844" lon="0.63836">
        <ele>489</ele>
        <time>2025-12-29T10:55:09Z</time>
      </trkpt>
      <trkpt lat="43.17846" lon="0.63836">
        <ele>489.8</ele>
        <time>2025-12-29T10:55:10Z</time>
      </trkpt>
      <trkpt lat="43.17847" lon="0.63836">
        <ele>489.8</ele>
        <time>2025-12-29T10:55:11Z</time>
      </trkpt>
      <trkpt lat="43.17849" lon="0.63836">
        <ele>489.8</ele>
        <time>2025-12-29T10:55:12Z</time>
      </trkpt>
      <trkpt lat="43.17851" lon="0.63835">
        <ele>489.2</ele>
        <time>2025-12-29T10:55:13Z</time>
      </trkpt>
      <trkpt lat="43.17852" lon="0.63834">
        <ele>489.6</ele>
        <time>2025-12-29T10:55:14Z</time>
      </trkpt>
      <trkpt lat="43.17854" lon="0.63833">
        <ele>489.6</ele>
        <time>2025-12-29T10:55:15Z</time>
      </trkpt>
      <trkpt lat="43.17856" lon="0.63832">
        <ele>489.6</ele>
        <time>2025-12-29T10:55:16Z</time>
      </trkpt>
      <trkpt lat="43.17858" lon="0.63831">
        <ele>490</ele>
        <time>2025-12-29T10:55:17Z</time>
      </trkpt>
      <trkpt lat="43.1786" lon="0.63831">
        <ele>489</ele>
        <time>2025-12-29T10:55:18Z</time>
      </trkpt>
      <trkpt lat="43.17862" lon="0.63831">
        <ele>489</ele>
        <time>2025-12-29T10:55:19Z</time>
      </trkpt>
      <trkpt lat="43.17865" lon="0.6383">
        <ele>489</ele>
        <time>2025-12-29T10:55:20Z</time>
      </trkpt>
      <trkpt lat="43.17866" lon="0.6383">
        <ele>490</ele>
        <time>2025-12-29T10:55:21Z</time>
      </trkpt>
      <trkpt lat="43.17867" lon="0.6383">
        <ele>490.4</ele>
        <time>2025-12-29T10:55:22Z</time>
      </trkpt>
      <trkpt lat="43.17869" lon="0.6383">
        <ele>490.4</ele>
        <time>2025-12-29T10:55:23Z</time>
      </trkpt>
      <trkpt lat="43.1787" lon="0.6383">
        <ele>490.4</ele>
        <time>2025-12-29T10:55:24Z</time>
      </trkpt>
      <trkpt lat="43.17872" lon="0.63831">
        <ele>490.4</ele>
        <time>2025-12-29T10:55:25Z</time>
      </trkpt>
      <trkpt lat="43.17873" lon="0.63831">
        <ele>490.2</ele>
        <time>2025-12-29T10:55:26Z</time>
      </trkpt>
      <trkpt lat="43.17875" lon="0.63831">
        <ele>490.2</ele>
        <time>2025-12-29T10:55:27Z</time>
      </trkpt>
      <trkpt lat="43.17877" lon="0.63831">
        <ele>490.2</ele>
        <time>2025-12-29T10:55:28Z</time>
      </trkpt>
      <trkpt lat="43.17879" lon="0.63832">
        <ele>489.4</ele>
        <time>2025-12-29T10:55:29Z</time>
      </trkpt>
      <trkpt lat="43.1788" lon="0.63832">
        <ele>489.8</ele>
        <time>2025-12-29T10:55:30Z</time>
      </trkpt>
      <trkpt lat="43.17881" lon="0.63832">
        <ele>489.8</ele>
        <time>2025-12-29T10:55:31Z</time>
      </trkpt>
      <trkpt lat="43.17881" lon="0.63832">
        <ele>489.8</ele>
        <time>2025-12-29T10:55:32Z</time>
      </trkpt>
      <trkpt lat="43.17881" lon="0.63832">
        <ele>489.8</ele>
        <time>2025-12-29T10:55:33Z</time>
      </trkpt>
      <trkpt lat="43.1788" lon="0.63824">
        <ele>490.4</ele>
        <time>2025-12-29T10:57:18Z</time>
      </trkpt>
      <trkpt lat="43.17879" lon="0.63824">
        <ele>490.4</ele>
        <time>2025-12-29T10:57:19Z</time>
      </trkpt>
      <trkpt lat="43.17878" lon="0.63824">
        <ele>490.4</ele>
        <time>2025-12-29T10:57:20Z</time>
      </trkpt>
      <trkpt lat="43.17877" lon="0.63824">
        <ele>490.2</ele>
        <time>2025-12-29T10:57:21Z</time>
      </trkpt>
      <trkpt lat="43.17875" lon="0.63824">
        <ele>490.6</ele>
        <time>2025-12-29T10:57:22Z</time>
      </trkpt>
      <trkpt lat="43.17874" lon="0.63824">
        <ele>490.6</ele>
        <time>2025-12-29T10:57:23Z</time>
      </trkpt>
      <trkpt lat="43.17873" lon="0.63823">
        <ele>490.6</ele>
        <time>2025-12-29T10:57:24Z</time>
      </trkpt>
      <trkpt lat="43.17872" lon="0.63823">
        <ele>490.6</ele>
        <time>2025-12-29T10:57:25Z</time>
      </trkpt>
      <trkpt lat="43.1787" lon="0.63824">
        <ele>490.6</ele>
        <time>2025-12-29T10:57:26Z</time>
      </trkpt>
      <trkpt lat="43.17868" lon="0.63824">
        <ele>490.6</ele>
        <time>2025-12-29T10:57:27Z</time>
      </trkpt>
      <trkpt lat="43.17867" lon="0.63824">
        <ele>490.6</ele>
        <time>2025-12-29T10:57:28Z</time>
      </trkpt>
      <trkpt lat="43.17866" lon="0.63825">
        <ele>490.6</ele>
        <time>2025-12-29T10:57:29Z</time>
      </trkpt>
      <trkpt lat="43.17864" lon="0.63826">
        <ele>490.2</ele>
        <time>2025-12-29T10:57:30Z</time>
      </trkpt>
      <trkpt lat="43.17863" lon="0.63827">
        <ele>490.2</ele>
        <time>2025-12-29T10:57:31Z</time>
      </trkpt>
      <trkpt lat="43.17861" lon="0.63828">
        <ele>490.2</ele>
        <time>2025-12-29T10:57:32Z</time>
      </trkpt>
      <trkpt lat="43.1786" lon="0.63828">
        <ele>490.2</ele>
        <time>2025-12-29T10:57:33Z</time>
      </trkpt>
      <trkpt lat="43.17859" lon="0.63829">
        <ele>490.4</ele>
        <time>2025-12-29T10:57:34Z</time>
      </trkpt>
      <trkpt lat="43.17857" lon="0.63829">
        <ele>490.4</ele>
        <time>2025-12-29T10:57:35Z</time>
      </trkpt>
      <trkpt lat="43.17856" lon="0.6383">
        <ele>490.4</ele>
        <time>2025-12-29T10:57:36Z</time>
      </trkpt>
      <trkpt lat="43.17854" lon="0.63832">
        <ele>490.4</ele>
        <time>2025-12-29T10:57:37Z</time>
      </trkpt>
      <trkpt lat="43.17853" lon="0.63832">
        <ele>490.2</ele>
        <time>2025-12-29T10:57:38Z</time>
      </trkpt>
      <trkpt lat="43.17851" lon="0.63833">
        <ele>490.2</ele>
        <time>2025-12-29T10:57:39Z</time>
      </trkpt>
      <trkpt lat="43.1785" lon="0.63833">
        <ele>490.2</ele>
        <time>2025-12-29T10:57:40Z</time>
      </trkpt>
      <trkpt lat="43.1785" lon="0.63833">
        <ele>490.4</ele>
        <time>2025-12-29T10:57:41Z</time>
      </trkpt>
      <trkpt lat="43.17845" lon="0.6384">
        <ele>490.2</ele>
        <time>2025-12-29T10:58:04Z</time>
      </trkpt>
      <trkpt lat="43.17844" lon="0.63841">
        <ele>490.2</ele>
        <time>2025-12-29T10:58:05Z</time>
      </trkpt>
      <trkpt lat="43.17842" lon="0.63841">
        <ele>490.6</ele>
        <time>2025-12-29T10:58:06Z</time>
      </trkpt>
      <trkpt lat="43.17841" lon="0.63841">
        <ele>490.6</ele>
        <time>2025-12-29T10:58:07Z</time>
      </trkpt>
      <trkpt lat="43.17839" lon="0.6384">
        <ele>490.6</ele>
        <time>2025-12-29T10:58:08Z</time>
      </trkpt>
      <trkpt lat="43.17838" lon="0.6384">
        <ele>490.2</ele>
        <time>2025-12-29T10:58:09Z</time>
      </trkpt>
      <trkpt lat="43.17837" lon="0.6384">
        <ele>490.2</ele>
        <time>2025-12-29T10:58:10Z</time>
      </trkpt>
      <trkpt lat="43.17836" lon="0.6384">
        <ele>490.2</ele>
        <time>2025-12-29T10:58:11Z</time>
      </trkpt>
      <trkpt lat="43.17835" lon="0.6384">
        <ele>490.2</ele>
        <time>2025-12-29T10:58:12Z</time>
      </trkpt>
      <trkpt lat="43.17833" lon="0.6384">
        <ele>490.2</ele>
        <time>2025-12-29T10:58:13Z</time>
      </trkpt>
      <trkpt lat="43.17832" lon="0.6384">
        <ele>490.2</ele>
        <time>2025-12-29T10:58:14Z</time>
      </trkpt>
      <trkpt lat="43.17831" lon="0.6384">
        <ele>490.2</ele>
        <time>2025-12-29T10:58:15Z</time>
      </trkpt>
      <trkpt lat="43.1783" lon="0.6384">
        <ele>490.2</ele>
        <time>2025-12-29T10:58:16Z</time>
      </trkpt>
      <trkpt lat="43.1783" lon="0.6384">
        <ele>490.2</ele>
        <time>2025-12-29T10:58:17Z</time>
      </trkpt>
      <trkpt lat="43.1783" lon="0.6384">
        <ele>490.2</ele>
        <time>2025-12-29T10:58:18Z</time>
      </trkpt>
      <trkpt lat="43.17826" lon="0.63836">
        <ele>490.2</ele>
        <time>2025-12-29T10:58:30Z</time>
      </trkpt>
      <trkpt lat="43.17824" lon="0.63833">
        <ele>490.2</ele>
        <time>2025-12-29T10:58:31Z</time>
      </trkpt>
      <trkpt lat="43.17823" lon="0.6383">
        <ele>490.2</ele>
        <time>2025-12-29T10:58:32Z</time>
      </trkpt>
      <trkpt lat="43.17821" lon="0.63828">
        <ele>490.2</ele>
        <time>2025-12-29T10:58:33Z</time>
      </trkpt>
      <trkpt lat="43.17819" lon="0.63825">
        <ele>489.6</ele>
        <time>2025-12-29T10:58:34Z</time>
      </trkpt>
      <trkpt lat="43.17817" lon="0.63823">
        <ele>489.6</ele>
        <time>2025-12-29T10:58:35Z</time>
      </trkpt>
      <trkpt lat="43.17815" lon="0.6382">
        <ele>489.6</ele>
        <time>2025-12-29T10:58:36Z</time>
      </trkpt>
      <trkpt lat="43.17814" lon="0.63818">
        <ele>490.6</ele>
        <time>2025-12-29T10:58:37Z</time>
      </trkpt>
      <trkpt lat="43.17813" lon="0.63815">
        <ele>490.2</ele>
        <time>2025-12-29T10:58:38Z</time>
      </trkpt>
      <trkpt lat="43.17811" lon="0.63813">
        <ele>490.2</ele>
        <time>2025-12-29T10:58:39Z</time>
      </trkpt>
      <trkpt lat="43.1781" lon="0.63811">
        <ele>490.2</ele>
        <time>2025-12-29T10:58:40Z</time>
      </trkpt>
      <trkpt lat="43.17808" lon="0.63808">
        <ele>490.4</ele>
        <time>2025-12-29T10:58:41Z</time>
      </trkpt>
      <trkpt lat="43.17807" lon="0.63806">
        <ele>490.4</ele>
        <time>2025-12-29T10:58:42Z</time>
      </trkpt>
      <trkpt lat="43.17805" lon="0.63803">
        <ele>490.4</ele>
        <time>2025-12-29T10:58:43Z</time>
      </trkpt>
      <trkpt lat="43.17803" lon="0.638">
        <ele>490.4</ele>
        <time>2025-12-29T10:58:44Z</time>
      </trkpt>
      <trkpt lat="43.17802" lon="0.63796">
        <ele>490.4</ele>
        <time>2025-12-29T10:58:45Z</time>
      </trkpt>
      <trkpt lat="43.178" lon="0.63793">
        <ele>489.8</ele>
        <time>2025-12-29T10:58:46Z</time>
      </trkpt>
      <trkpt lat="43.17798" lon="0.6379">
        <ele>489.8</ele>
        <time>2025-12-29T10:58:47Z</time>
      </trkpt>
      <trkpt lat="43.17796" lon="0.63787">
        <ele>489.8</ele>
        <time>2025-12-29T10:58:48Z</time>
      </trkpt>
      <trkpt lat="43.17794" lon="0.63784">
        <ele>489.8</ele>
        <time>2025-12-29T10:58:49Z</time>
      </trkpt>
      <trkpt lat="43.17792" lon="0.63781">
        <ele>490.2</ele>
        <time>2025-12-29T10:58:50Z</time>
      </trkpt>
      <trkpt lat="43.1779" lon="0.63778">
        <ele>490.2</ele>
        <time>2025-12-29T10:58:51Z</time>
      </trkpt>
      <trkpt lat="43.17788" lon="0.63775">
        <ele>490.2</ele>
        <time>2025-12-29T10:58:52Z</time>
      </trkpt>
      <trkpt lat="43.17786" lon="0.63772">
        <ele>491</ele>
        <time>2025-12-29T10:58:53Z</time>
      </trkpt>
      <trkpt lat="43.17784" lon="0.63769">
        <ele>490.8</ele>
        <time>2025-12-29T10:58:54Z</time>
      </trkpt>
      <trkpt lat="43.17782" lon="0.63766">
        <ele>490.8</ele>
        <time>2025-12-29T10:58:55Z</time>
      </trkpt>
      <trkpt lat="43.1778" lon="0.63763">
        <ele>490.8</ele>
        <time>2025-12-29T10:58:56Z</time>
      </trkpt>
      <trkpt lat="43.17778" lon="0.6376">
        <ele>490.8</ele>
        <time>2025-12-29T10:58:57Z</time>
      </trkpt>
      <trkpt lat="43.17776" lon="0.63757">
        <ele>490.8</ele>
        <time>2025-12-29T10:58:58Z</time>
      </trkpt>
      <trkpt lat="43.17774" lon="0.63754">
        <ele>490.8</ele>
        <time>2025-12-29T10:58:59Z</time>
      </trkpt>
      <trkpt lat="43.17772" lon="0.63751">
        <ele>490.8</ele>
        <time>2025-12-29T10:59:00Z</time>
      </trkpt>
      <trkpt lat="43.1777" lon="0.63748">
        <ele>490.8</ele>
        <time>2025-12-29T10:59:01Z</time>
      </trkpt>
      <trkpt lat="43.17769" lon="0.63745">
        <ele>491.2</ele>
        <time>2025-12-29T10:59:02Z</time>
      </trkpt>
      <trkpt lat="43.17767" lon="0.63741">
        <ele>491.2</ele>
        <time>2025-12-29T10:59:03Z</time>
      </trkpt>
      <trkpt lat="43.17765" lon="0.63739">
        <ele>491.2</ele>
        <time>2025-12-29T10:59:04Z</time>
      </trkpt>
      <trkpt lat="43.17763" lon="0.63736">
        <ele>491.2</ele>
        <time>2025-12-29T10:59:05Z</time>
      </trkpt>
      <trkpt lat="43.17761" lon="0.63732">
        <ele>490.8</ele>
        <time>2025-12-29T10:59:06Z</time>
      </trkpt>
      <trkpt lat="43.17759" lon="0.63729">
        <ele>490.8</ele>
        <time>2025-12-29T10:59:07Z</time>
      </trkpt>
      <trkpt lat="43.17757" lon="0.63725">
        <ele>490.8</ele>
        <time>2025-12-29T10:59:08Z</time>
      </trkpt>
      <trkpt lat="43.17755" lon="0.63722">
        <ele>491.2</ele>
        <time>2025-12-29T10:59:09Z</time>
      </trkpt>
      <trkpt lat="43.17753" lon="0.63719">
        <ele>490.8</ele>
        <time>2025-12-29T10:59:10Z</time>
      </trkpt>
      <trkpt lat="43.17751" lon="0.63716">
        <ele>490.8</ele>
        <time>2025-12-29T10:59:11Z</time>
      </trkpt>
      <trkpt lat="43.17749" lon="0.63712">
        <ele>490.8</ele>
        <time>2025-12-29T10:59:12Z</time>
      </trkpt>
      <trkpt lat="43.17748" lon="0.63708">
        <ele>491.2</ele>
        <time>2025-12-29T10:59:13Z</time>
      </trkpt>
      <trkpt lat="43.17746" lon="0.63705">
        <ele>491.4</ele>
        <time>2025-12-29T10:59:14Z</time>
      </trkpt>
      <trkpt lat="43.17744" lon="0.63702">
        <ele>491.4</ele>
        <time>2025-12-29T10:59:15Z</time>
      </trkpt>
      <trkpt lat="43.17742" lon="0.63699">
        <ele>491.4</ele>
        <time>2025-12-29T10:59:16Z</time>
      </trkpt>
      <trkpt lat="43.1774" lon="0.63695">
        <ele>491.4</ele>
        <time>2025-12-29T10:59:17Z</time>
      </trkpt>
      <trkpt lat="43.17738" lon="0.63691">
        <ele>491.2</ele>
        <time>2025-12-29T10:59:18Z</time>
      </trkpt>
      <trkpt lat="43.17736" lon="0.63687">
        <ele>491.2</ele>
        <time>2025-12-29T10:59:19Z</time>
      </trkpt>
      <trkpt lat="43.17734" lon="0.63684">
        <ele>491.2</ele>
        <time>2025-12-29T10:59:20Z</time>
      </trkpt>
      <trkpt lat="43.17732" lon="0.6368">
        <ele>491.2</ele>
        <time>2025-12-29T10:59:21Z</time>
      </trkpt>
      <trkpt lat="43.1773" lon="0.63677">
        <ele>493.2</ele>
        <time>2025-12-29T10:59:22Z</time>
      </trkpt>
      <trkpt lat="43.17729" lon="0.63673">
        <ele>493.2</ele>
        <time>2025-12-29T10:59:23Z</time>
      </trkpt>
      <trkpt lat="43.17727" lon="0.63669">
        <ele>493.2</ele>
        <time>2025-12-29T10:59:24Z</time>
      </trkpt>
      <trkpt lat="43.17725" lon="0.63665">
        <ele>492.2</ele>
        <time>2025-12-29T10:59:25Z</time>
      </trkpt>
      <trkpt lat="43.17723" lon="0.63661">
        <ele>491.4</ele>
        <time>2025-12-29T10:59:26Z</time>
      </trkpt>
      <trkpt lat="43.17721" lon="0.63657">
        <ele>491.4</ele>
        <time>2025-12-29T10:59:27Z</time>
      </trkpt>
      <trkpt lat="43.17718" lon="0.63653">
        <ele>491.4</ele>
        <time>2025-12-29T10:59:28Z</time>
      </trkpt>
      <trkpt lat="43.17717" lon="0.63649">
        <ele>491.8</ele>
        <time>2025-12-29T10:59:29Z</time>
      </trkpt>
      <trkpt lat="43.17715" lon="0.63645">
        <ele>492.4</ele>
        <time>2025-12-29T10:59:30Z</time>
      </trkpt>
      <trkpt lat="43.17712" lon="0.6364">
        <ele>492.4</ele>
        <time>2025-12-29T10:59:31Z</time>
      </trkpt>
      <trkpt lat="43.1771" lon="0.63636">
        <ele>492.4</ele>
        <time>2025-12-29T10:59:32Z</time>
      </trkpt>
      <trkpt lat="43.17708" lon="0.63632">
        <ele>492.2</ele>
        <time>2025-12-29T10:59:33Z</time>
      </trkpt>
      <trkpt lat="43.17706" lon="0.63627">
        <ele>491.4</ele>
        <time>2025-12-29T10:59:34Z</time>
      </trkpt>
      <trkpt lat="43.17704" lon="0.63623">
        <ele>491.4</ele>
        <time>2025-12-29T10:59:35Z</time>
      </trkpt>
      <trkpt lat="43.17703" lon="0.63619">
        <ele>491.4</ele>
        <time>2025-12-29T10:59:36Z</time>
      </trkpt>
      <trkpt lat="43.17701" lon="0.63615">
        <ele>492.4</ele>
        <time>2025-12-29T10:59:37Z</time>
      </trkpt>
      <trkpt lat="43.17699" lon="0.63611">
        <ele>492.2</ele>
        <time>2025-12-29T10:59:38Z</time>
      </trkpt>
      <trkpt lat="43.17697" lon="0.63607">
        <ele>492.2</ele>
        <time>2025-12-29T10:59:39Z</time>
      </trkpt>
      <trkpt lat="43.17695" lon="0.63603">
        <ele>492.2</ele>
        <time>2025-12-29T10:59:40Z</time>
      </trkpt>
      <trkpt lat="43.17693" lon="0.63599">
        <ele>492.2</ele>
        <time>2025-12-29T10:59:41Z</time>
      </trkpt>
      <trkpt lat="43.17691" lon="0.63595">
        <ele>491.2</ele>
        <time>2025-12-29T10:59:42Z</time>
      </trkpt>
      <trkpt lat="43.17689" lon="0.63591">
        <ele>491.2</ele>
        <time>2025-12-29T10:59:43Z</time>
      </trkpt>
      <trkpt lat="43.17687" lon="0.63587">
        <ele>491.2</ele>
        <time>2025-12-29T10:59:44Z</time>
      </trkpt>
      <trkpt lat="43.17685" lon="0.63583">
        <ele>492.2</ele>
        <time>2025-12-29T10:59:45Z</time>
      </trkpt>
      <trkpt lat="43.17683" lon="0.63578">
        <ele>492.4</ele>
        <time>2025-12-29T10:59:46Z</time>
      </trkpt>
      <trkpt lat="43.17681" lon="0.63574">
        <ele>492.4</ele>
        <time>2025-12-29T10:59:47Z</time>
      </trkpt>
      <trkpt lat="43.17679" lon="0.63569">
        <ele>492.4</ele>
        <time>2025-12-29T10:59:48Z</time>
      </trkpt>
      <trkpt lat="43.17677" lon="0.63565">
        <ele>492.4</ele>
        <time>2025-12-29T10:59:49Z</time>
      </trkpt>
      <trkpt lat="43.17676" lon="0.6356">
        <ele>493.2</ele>
        <time>2025-12-29T10:59:50Z</time>
      </trkpt>
      <trkpt lat="43.17674" lon="0.63556">
        <ele>493.2</ele>
        <time>2025-12-29T10:59:51Z</time>
      </trkpt>
      <trkpt lat="43.17672" lon="0.63552">
        <ele>493.2</ele>
        <time>2025-12-29T10:59:52Z</time>
      </trkpt>
      <trkpt lat="43.1767" lon="0.63548">
        <ele>492.8</ele>
        <time>2025-12-29T10:59:53Z</time>
      </trkpt>
      <trkpt lat="43.17668" lon="0.63543">
        <ele>492.8</ele>
        <time>2025-12-29T10:59:54Z</time>
      </trkpt>
      <trkpt lat="43.17666" lon="0.63539">
        <ele>492.8</ele>
        <time>2025-12-29T10:59:55Z</time>
      </trkpt>
      <trkpt lat="43.17664" lon="0.63535">
        <ele>492.8</ele>
        <time>2025-12-29T10:59:56Z</time>
      </trkpt>
      <trkpt lat="43.17662" lon="0.63531">
        <ele>492.8</ele>
        <time>2025-12-29T10:59:57Z</time>
      </trkpt>
      <trkpt lat="43.17661" lon="0.63527">
        <ele>492.8</ele>
        <time>2025-12-29T10:59:58Z</time>
      </trkpt>
      <trkpt lat="43.17659" lon="0.63523">
        <ele>492.8</ele>
        <time>2025-12-29T10:59:59Z</time>
      </trkpt>
      <trkpt lat="43.17657" lon="0.63519">
        <ele>492.8</ele>
        <time>2025-12-29T11:00:00Z</time>
      </trkpt>
      <trkpt lat="43.17655" lon="0.63515">
        <ele>492.8</ele>
        <time>2025-12-29T11:00:01Z</time>
      </trkpt>
      <trkpt lat="43.17653" lon="0.63511">
        <ele>492.6</ele>
        <time>2025-12-29T11:00:02Z</time>
      </trkpt>
      <trkpt lat="43.1765" lon="0.63507">
        <ele>492.6</ele>
        <time>2025-12-29T11:00:03Z</time>
      </trkpt>
      <trkpt lat="43.17648" lon="0.63504">
        <ele>492.6</ele>
        <time>2025-12-29T11:00:04Z</time>
      </trkpt>
      <trkpt lat="43.17646" lon="0.635">
        <ele>493</ele>
        <time>2025-12-29T11:00:05Z</time>
      </trkpt>
      <trkpt lat="43.17644" lon="0.63496">
        <ele>492.6</ele>
        <time>2025-12-29T11:00:06Z</time>
      </trkpt>
      <trkpt lat="43.17642" lon="0.63493">
        <ele>492.6</ele>
        <time>2025-12-29T11:00:07Z</time>
      </trkpt>
      <trkpt lat="43.17641" lon="0.63489">
        <ele>492.6</ele>
        <time>2025-12-29T11:00:08Z</time>
      </trkpt>
      <trkpt lat="43.17639" lon="0.63485">
        <ele>493.2</ele>
        <time>2025-12-29T11:00:09Z</time>
      </trkpt>
      <trkpt lat="43.17637" lon="0.6348">
        <ele>492.6</ele>
        <time>2025-12-29T11:00:10Z</time>
      </trkpt>
      <trkpt lat="43.17635" lon="0.63476">
        <ele>492.6</ele>
        <time>2025-12-29T11:00:11Z</time>
      </trkpt>
      <trkpt lat="43.17633" lon="0.63471">
        <ele>492.6</ele>
        <time>2025-12-29T11:00:12Z</time>
      </trkpt>
      <trkpt lat="43.17631" lon="0.63467">
        <ele>491.6</ele>
        <time>2025-12-29T11:00:13Z</time>
      </trkpt>
      <trkpt lat="43.17629" lon="0.63462">
        <ele>492.6</ele>
        <time>2025-12-29T11:00:14Z</time>
      </trkpt>
      <trkpt lat="43.17627" lon="0.63458">
        <ele>492.6</ele>
        <time>2025-12-29T11:00:15Z</time>
      </trkpt>
      <trkpt lat="43.17625" lon="0.63454">
        <ele>492.6</ele>
        <time>2025-12-29T11:00:16Z</time>
      </trkpt>
      <trkpt lat="43.17622" lon="0.6345">
        <ele>491.6</ele>
        <time>2025-12-29T11:00:17Z</time>
      </trkpt>
      <trkpt lat="43.1762" lon="0.63445">
        <ele>492.4</ele>
        <time>2025-12-29T11:00:18Z</time>
      </trkpt>
      <trkpt lat="43.17619" lon="0.63441">
        <ele>492.4</ele>
        <time>2025-12-29T11:00:19Z</time>
      </trkpt>
      <trkpt lat="43.17617" lon="0.63437">
        <ele>492.4</ele>
        <time>2025-12-29T11:00:20Z</time>
      </trkpt>
      <trkpt lat="43.17615" lon="0.63432">
        <ele>491.8</ele>
        <time>2025-12-29T11:00:21Z</time>
      </trkpt>
      <trkpt lat="43.17613" lon="0.63428">
        <ele>491.8</ele>
        <time>2025-12-29T11:00:22Z</time>
      </trkpt>
      <trkpt lat="43.1761" lon="0.63424">
        <ele>491.8</ele>
        <time>2025-12-29T11:00:23Z</time>
      </trkpt>
      <trkpt lat="43.17608" lon="0.63419">
        <ele>491.8</ele>
        <time>2025-12-29T11:00:24Z</time>
      </trkpt>
      <trkpt lat="43.17606" lon="0.63415">
        <ele>491.8</ele>
        <time>2025-12-29T11:00:25Z</time>
      </trkpt>
      <trkpt lat="43.17604" lon="0.6341">
        <ele>491</ele>
        <time>2025-12-29T11:00:26Z</time>
      </trkpt>
      <trkpt lat="43.17602" lon="0.63406">
        <ele>491</ele>
        <time>2025-12-29T11:00:27Z</time>
      </trkpt>
      <trkpt lat="43.176" lon="0.63402">
        <ele>491</ele>
        <time>2025-12-29T11:00:28Z</time>
      </trkpt>
      <trkpt lat="43.17598" lon="0.63398">
        <ele>491</ele>
        <time>2025-12-29T11:00:29Z</time>
      </trkpt>
      <trkpt lat="43.17596" lon="0.63394">
        <ele>490.8</ele>
        <time>2025-12-29T11:00:30Z</time>
      </trkpt>
      <trkpt lat="43.17594" lon="0.6339">
        <ele>490.8</ele>
        <time>2025-12-29T11:00:31Z</time>
      </trkpt>
      <trkpt lat="43.17592" lon="0.63386">
        <ele>490.8</ele>
        <time>2025-12-29T11:00:32Z</time>
      </trkpt>
      <trkpt lat="43.1759" lon="0.63381">
        <ele>490.8</ele>
        <time>2025-12-29T11:00:33Z</time>
      </trkpt>
      <trkpt lat="43.17588" lon="0.63377">
        <ele>491</ele>
        <time>2025-12-29T11:00:34Z</time>
      </trkpt>
      <trkpt lat="43.17586" lon="0.63373">
        <ele>491</ele>
        <time>2025-12-29T11:00:35Z</time>
      </trkpt>
      <trkpt lat="43.17584" lon="0.63369">
        <ele>491</ele>
        <time>2025-12-29T11:00:36Z</time>
      </trkpt>
      <trkpt lat="43.17583" lon="0.63365">
        <ele>491</ele>
        <time>2025-12-29T11:00:37Z</time>
      </trkpt>
      <trkpt lat="43.17581" lon="0.63361">
        <ele>491.6</ele>
        <time>2025-12-29T11:00:38Z</time>
      </trkpt>
      <trkpt lat="43.17579" lon="0.63357">
        <ele>491.6</ele>
        <time>2025-12-29T11:00:39Z</time>
      </trkpt>
      <trkpt lat="43.17577" lon="0.63352">
        <ele>491.6</ele>
        <time>2025-12-29T11:00:40Z</time>
      </trkpt>
      <trkpt lat="43.17575" lon="0.63348">
        <ele>491</ele>
        <time>2025-12-29T11:00:41Z</time>
      </trkpt>
      <trkpt lat="43.17573" lon="0.63344">
        <ele>490.6</ele>
        <time>2025-12-29T11:00:42Z</time>
      </trkpt>
      <trkpt lat="43.17571" lon="0.6334">
        <ele>490.6</ele>
        <time>2025-12-29T11:00:43Z</time>
      </trkpt>
      <trkpt lat="43.17569" lon="0.63336">
        <ele>490.6</ele>
        <time>2025-12-29T11:00:44Z</time>
      </trkpt>
      <trkpt lat="43.17567" lon="0.63332">
        <ele>490.6</ele>
        <time>2025-12-29T11:00:45Z</time>
      </trkpt>
      <trkpt lat="43.17565" lon="0.63328">
        <ele>490.6</ele>
        <time>2025-12-29T11:00:46Z</time>
      </trkpt>
      <trkpt lat="43.17563" lon="0.63324">
        <ele>490.6</ele>
        <time>2025-12-29T11:00:47Z</time>
      </trkpt>
      <trkpt lat="43.17561" lon="0.6332">
        <ele>490.6</ele>
        <time>2025-12-29T11:00:48Z</time>
      </trkpt>
      <trkpt lat="43.1756" lon="0.63316">
        <ele>491.4</ele>
        <time>2025-12-29T11:00:49Z</time>
      </trkpt>
      <trkpt lat="43.17558" lon="0.63312">
        <ele>491.4</ele>
        <time>2025-12-29T11:00:50Z</time>
      </trkpt>
      <trkpt lat="43.17556" lon="0.63308">
        <ele>491.4</ele>
        <time>2025-12-29T11:00:51Z</time>
      </trkpt>
      <trkpt lat="43.17555" lon="0.63305">
        <ele>491.4</ele>
        <time>2025-12-29T11:00:52Z</time>
      </trkpt>
      <trkpt lat="43.17553" lon="0.63301">
        <ele>491.4</ele>
        <time>2025-12-29T11:00:53Z</time>
      </trkpt>
      <trkpt lat="43.17551" lon="0.63298">
        <ele>491.2</ele>
        <time>2025-12-29T11:00:54Z</time>
      </trkpt>
      <trkpt lat="43.17549" lon="0.63296">
        <ele>491.2</ele>
        <time>2025-12-29T11:00:55Z</time>
      </trkpt>
      <trkpt lat="43.17548" lon="0.63293">
        <ele>491.2</ele>
        <time>2025-12-29T11:00:56Z</time>
      </trkpt>
      <trkpt lat="43.17547" lon="0.63292">
        <ele>491.8</ele>
        <time>2025-12-29T11:00:57Z</time>
      </trkpt>
      <trkpt lat="43.17545" lon="0.63292">
        <ele>491.6</ele>
        <time>2025-12-29T11:00:58Z</time>
      </trkpt>
      <trkpt lat="43.17543" lon="0.63293">
        <ele>491.6</ele>
        <time>2025-12-29T11:00:59Z</time>
      </trkpt>
      <trkpt lat="43.17541" lon="0.63295">
        <ele>491.6</ele>
        <time>2025-12-29T11:01:00Z</time>
      </trkpt>
      <trkpt lat="43.17539" lon="0.63297">
        <ele>491.6</ele>
        <time>2025-12-29T11:01:01Z</time>
      </trkpt>
      <trkpt lat="43.17537" lon="0.63299">
        <ele>490.6</ele>
        <time>2025-12-29T11:01:02Z</time>
      </trkpt>
      <trkpt lat="43.17534" lon="0.63302">
        <ele>490.6</ele>
        <time>2025-12-29T11:01:03Z</time>
      </trkpt>
      <trkpt lat="43.17532" lon="0.63306">
        <ele>490.6</ele>
        <time>2025-12-29T11:01:04Z</time>
      </trkpt>
      <trkpt lat="43.17529" lon="0.63309">
        <ele>490.6</ele>
        <time>2025-12-29T11:01:05Z</time>
      </trkpt>
      <trkpt lat="43.17526" lon="0.63313">
        <ele>490.6</ele>
        <time>2025-12-29T11:01:06Z</time>
      </trkpt>
      <trkpt lat="43.17522" lon="0.63316">
        <ele>490.6</ele>
        <time>2025-12-29T11:01:07Z</time>
      </trkpt>
      <trkpt lat="43.17519" lon="0.6332">
        <ele>490.6</ele>
        <time>2025-12-29T11:01:08Z</time>
      </trkpt>
      <trkpt lat="43.17516" lon="0.63324">
        <ele>490.6</ele>
        <time>2025-12-29T11:01:09Z</time>
      </trkpt>
      <trkpt lat="43.17512" lon="0.63327">
        <ele>490.8</ele>
        <time>2025-12-29T11:01:10Z</time>
      </trkpt>
      <trkpt lat="43.17508" lon="0.63331">
        <ele>490.8</ele>
        <time>2025-12-29T11:01:11Z</time>
      </trkpt>
      <trkpt lat="43.17505" lon="0.63335">
        <ele>490.8</ele>
        <time>2025-12-29T11:01:12Z</time>
      </trkpt>
      <trkpt lat="43.17501" lon="0.63339">
        <ele>490.8</ele>
        <time>2025-12-29T11:01:13Z</time>
      </trkpt>
      <trkpt lat="43.17498" lon="0.63343">
        <ele>490.6</ele>
        <time>2025-12-29T11:01:14Z</time>
      </trkpt>
      <trkpt lat="43.17494" lon="0.63347">
        <ele>490.6</ele>
        <time>2025-12-29T11:01:15Z</time>
      </trkpt>
      <trkpt lat="43.17491" lon="0.63351">
        <ele>490.6</ele>
        <time>2025-12-29T11:01:16Z</time>
      </trkpt>
      <trkpt lat="43.17487" lon="0.63355">
        <ele>489.8</ele>
        <time>2025-12-29T11:01:17Z</time>
      </trkpt>
      <trkpt lat="43.17483" lon="0.63359">
        <ele>490.4</ele>
        <time>2025-12-29T11:01:18Z</time>
      </trkpt>
      <trkpt lat="43.17479" lon="0.63363">
        <ele>490.4</ele>
        <time>2025-12-29T11:01:19Z</time>
      </trkpt>
      <trkpt lat="43.17476" lon="0.63367">
        <ele>490.4</ele>
        <time>2025-12-29T11:01:20Z</time>
      </trkpt>
      <trkpt lat="43.17472" lon="0.63371">
        <ele>489.8</ele>
        <time>2025-12-29T11:01:21Z</time>
      </trkpt>
      <trkpt lat="43.17468" lon="0.63375">
        <ele>490.4</ele>
        <time>2025-12-29T11:01:22Z</time>
      </trkpt>
      <trkpt lat="43.17465" lon="0.63379">
        <ele>490.4</ele>
        <time>2025-12-29T11:01:23Z</time>
      </trkpt>
      <trkpt lat="43.17461" lon="0.63382">
        <ele>490.4</ele>
        <time>2025-12-29T11:01:24Z</time>
      </trkpt>
      <trkpt lat="43.17459" lon="0.63384">
        <ele>489.4</ele>
        <time>2025-12-29T11:01:25Z</time>
      </trkpt>
      <trkpt lat="43.17456" lon="0.63387">
        <ele>490.6</ele>
        <time>2025-12-29T11:01:26Z</time>
      </trkpt>
      <trkpt lat="43.17454" lon="0.6339">
        <ele>490.6</ele>
        <time>2025-12-29T11:01:27Z</time>
      </trkpt>
      <trkpt lat="43.17451" lon="0.63392">
        <ele>490.6</ele>
        <time>2025-12-29T11:01:28Z</time>
      </trkpt>
      <trkpt lat="43.17448" lon="0.63395">
        <ele>490.6</ele>
        <time>2025-12-29T11:01:29Z</time>
      </trkpt>
      <trkpt lat="43.17445" lon="0.63398">
        <ele>490.4</ele>
        <time>2025-12-29T11:01:30Z</time>
      </trkpt>
      <trkpt lat="43.17442" lon="0.63401">
        <ele>490.4</ele>
        <time>2025-12-29T11:01:31Z</time>
      </trkpt>
      <trkpt lat="43.17439" lon="0.63404">
        <ele>490.4</ele>
        <time>2025-12-29T11:01:32Z</time>
      </trkpt>
      <trkpt lat="43.17436" lon="0.63406">
        <ele>490.4</ele>
        <time>2025-12-29T11:01:33Z</time>
      </trkpt>
      <trkpt lat="43.17433" lon="0.63408">
        <ele>491.2</ele>
        <time>2025-12-29T11:01:34Z</time>
      </trkpt>
      <trkpt lat="43.17431" lon="0.6341">
        <ele>491.2</ele>
        <time>2025-12-29T11:01:35Z</time>
      </trkpt>
      <trkpt lat="43.17428" lon="0.63413">
        <ele>491.2</ele>
        <time>2025-12-29T11:01:36Z</time>
      </trkpt>
      <trkpt lat="43.17425" lon="0.63416">
        <ele>491.2</ele>
        <time>2025-12-29T11:01:37Z</time>
      </trkpt>
      <trkpt lat="43.17422" lon="0.6342">
        <ele>491.8</ele>
        <time>2025-12-29T11:01:38Z</time>
      </trkpt>
      <trkpt lat="43.17419" lon="0.63423">
        <ele>491.8</ele>
        <time>2025-12-29T11:01:39Z</time>
      </trkpt>
      <trkpt lat="43.17416" lon="0.63426">
        <ele>491.8</ele>
        <time>2025-12-29T11:01:40Z</time>
      </trkpt>
      <trkpt lat="43.17413" lon="0.63428">
        <ele>491.8</ele>
        <time>2025-12-29T11:01:41Z</time>
      </trkpt>
      <trkpt lat="43.1741" lon="0.6343">
        <ele>492</ele>
        <time>2025-12-29T11:01:42Z</time>
      </trkpt>
      <trkpt lat="43.17408" lon="0.63433">
        <ele>492</ele>
        <time>2025-12-29T11:01:43Z</time>
      </trkpt>
      <trkpt lat="43.17404" lon="0.63437">
        <ele>492</ele>
        <time>2025-12-29T11:01:44Z</time>
      </trkpt>
      <trkpt lat="43.17401" lon="0.63441">
        <ele>492</ele>
        <time>2025-12-29T11:01:45Z</time>
      </trkpt>
      <trkpt lat="43.17398" lon="0.63444">
        <ele>491.4</ele>
        <time>2025-12-29T11:01:46Z</time>
      </trkpt>
      <trkpt lat="43.17394" lon="0.63448">
        <ele>491.4</ele>
        <time>2025-12-29T11:01:47Z</time>
      </trkpt>
      <trkpt lat="43.17391" lon="0.63452">
        <ele>491.4</ele>
        <time>2025-12-29T11:01:48Z</time>
      </trkpt>
      <trkpt lat="43.17387" lon="0.63456">
        <ele>491.4</ele>
        <time>2025-12-29T11:01:49Z</time>
      </trkpt>
      <trkpt lat="43.17383" lon="0.63461">
        <ele>491</ele>
        <time>2025-12-29T11:01:50Z</time>
      </trkpt>
      <trkpt lat="43.1738" lon="0.63466">
        <ele>491</ele>
        <time>2025-12-29T11:01:51Z</time>
      </trkpt>
      <trkpt lat="43.17376" lon="0.63471">
        <ele>491</ele>
        <time>2025-12-29T11:01:52Z</time>
      </trkpt>
      <trkpt lat="43.17372" lon="0.63476">
        <ele>491</ele>
        <time>2025-12-29T11:01:53Z</time>
      </trkpt>
      <trkpt lat="43.17368" lon="0.6348">
        <ele>491</ele>
        <time>2025-12-29T11:01:54Z</time>
      </trkpt>
      <trkpt lat="43.17364" lon="0.63483">
        <ele>491</ele>
        <time>2025-12-29T11:01:55Z</time>
      </trkpt>
      <trkpt lat="43.1736" lon="0.63488">
        <ele>491</ele>
        <time>2025-12-29T11:01:56Z</time>
      </trkpt>
      <trkpt lat="43.17356" lon="0.63493">
        <ele>490.8</ele>
        <time>2025-12-29T11:01:57Z</time>
      </trkpt>
      <trkpt lat="43.17352" lon="0.63498">
        <ele>489.8</ele>
        <time>2025-12-29T11:01:58Z</time>
      </trkpt>
      <trkpt lat="43.17347" lon="0.63503">
        <ele>489.8</ele>
        <time>2025-12-29T11:01:59Z</time>
      </trkpt>
      <trkpt lat="43.17343" lon="0.63507">
        <ele>489.8</ele>
        <time>2025-12-29T11:02:00Z</time>
      </trkpt>
      <trkpt lat="43.17339" lon="0.63512">
        <ele>489.8</ele>
        <time>2025-12-29T11:02:01Z</time>
      </trkpt>
      <trkpt lat="43.17335" lon="0.63517">
        <ele>488.8</ele>
        <time>2025-12-29T11:02:02Z</time>
      </trkpt>
      <trkpt lat="43.1733" lon="0.63522">
        <ele>488.8</ele>
        <time>2025-12-29T11:02:03Z</time>
      </trkpt>
      <trkpt lat="43.17326" lon="0.63526">
        <ele>488.8</ele>
        <time>2025-12-29T11:02:04Z</time>
      </trkpt>
      <trkpt lat="43.17321" lon="0.63531">
        <ele>488.8</ele>
        <time>2025-12-29T11:02:05Z</time>
      </trkpt>
      <trkpt lat="43.17317" lon="0.63535">
        <ele>488.8</ele>
        <time>2025-12-29T11:02:06Z</time>
      </trkpt>
      <trkpt lat="43.17314" lon="0.63539">
        <ele>488.8</ele>
        <time>2025-12-29T11:02:07Z</time>
      </trkpt>
      <trkpt lat="43.17309" lon="0.63546">
        <ele>488.8</ele>
        <time>2025-12-29T11:02:08Z</time>
      </trkpt>
      <trkpt lat="43.17304" lon="0.63551">
        <ele>487.8</ele>
        <time>2025-12-29T11:02:09Z</time>
      </trkpt>
      <trkpt lat="43.173" lon="0.63555">
        <ele>488.4</ele>
        <time>2025-12-29T11:02:10Z</time>
      </trkpt>
      <trkpt lat="43.17295" lon="0.6356">
        <ele>488.4</ele>
        <time>2025-12-29T11:02:11Z</time>
      </trkpt>
      <trkpt lat="43.17291" lon="0.63564">
        <ele>488.4</ele>
        <time>2025-12-29T11:02:12Z</time>
      </trkpt>
      <trkpt lat="43.17287" lon="0.63569">
        <ele>487.4</ele>
        <time>2025-12-29T11:02:13Z</time>
      </trkpt>
      <trkpt lat="43.17283" lon="0.63572">
        <ele>487</ele>
        <time>2025-12-29T11:02:14Z</time>
      </trkpt>
      <trkpt lat="43.1728" lon="0.63575">
        <ele>487</ele>
        <time>2025-12-29T11:02:15Z</time>
      </trkpt>
      <trkpt lat="43.17276" lon="0.63579">
        <ele>487</ele>
        <time>2025-12-29T11:02:16Z</time>
      </trkpt>
      <trkpt lat="43.17272" lon="0.63584">
        <ele>487</ele>
        <time>2025-12-29T11:02:17Z</time>
      </trkpt>
      <trkpt lat="43.17268" lon="0.63591">
        <ele>486.6</ele>
        <time>2025-12-29T11:02:18Z</time>
      </trkpt>
      <trkpt lat="43.17264" lon="0.63598">
        <ele>486.6</ele>
        <time>2025-12-29T11:02:19Z</time>
      </trkpt>
      <trkpt lat="43.1726" lon="0.63606">
        <ele>486.6</ele>
        <time>2025-12-29T11:02:20Z</time>
      </trkpt>
      <trkpt lat="43.17258" lon="0.63613">
        <ele>486.6</ele>
        <time>2025-12-29T11:02:21Z</time>
      </trkpt>
      <trkpt lat="43.17256" lon="0.6362">
        <ele>486.2</ele>
        <time>2025-12-29T11:02:22Z</time>
      </trkpt>
      <trkpt lat="43.17254" lon="0.63628">
        <ele>486.2</ele>
        <time>2025-12-29T11:02:23Z</time>
      </trkpt>
      <trkpt lat="43.17254" lon="0.63634">
        <ele>486.2</ele>
        <time>2025-12-29T11:02:24Z</time>
      </trkpt>
      <trkpt lat="43.17253" lon="0.63641">
        <ele>486.6</ele>
        <time>2025-12-29T11:02:25Z</time>
      </trkpt>
      <trkpt lat="43.17252" lon="0.63648">
        <ele>486.8</ele>
        <time>2025-12-29T11:02:26Z</time>
      </trkpt>
      <trkpt lat="43.17251" lon="0.63655">
        <ele>486.8</ele>
        <time>2025-12-29T11:02:27Z</time>
      </trkpt>
      <trkpt lat="43.1725" lon="0.63662">
        <ele>486.8</ele>
        <time>2025-12-29T11:02:28Z</time>
      </trkpt>
      <trkpt lat="43.1725" lon="0.6367">
        <ele>486.8</ele>
        <time>2025-12-29T11:02:29Z</time>
      </trkpt>
      <trkpt lat="43.1725" lon="0.63676">
        <ele>486.8</ele>
        <time>2025-12-29T11:02:30Z</time>
      </trkpt>
      <trkpt lat="43.17249" lon="0.63683">
        <ele>486.8</ele>
        <time>2025-12-29T11:02:31Z</time>
      </trkpt>
      <trkpt lat="43.17249" lon="0.63689">
        <ele>486.8</ele>
        <time>2025-12-29T11:02:32Z</time>
      </trkpt>
      <trkpt lat="43.17249" lon="0.63696">
        <ele>486.8</ele>
        <time>2025-12-29T11:02:33Z</time>
      </trkpt>
      <trkpt lat="43.17248" lon="0.63703">
        <ele>487.2</ele>
        <time>2025-12-29T11:02:34Z</time>
      </trkpt>
      <trkpt lat="43.17248" lon="0.63709">
        <ele>487.2</ele>
        <time>2025-12-29T11:02:35Z</time>
      </trkpt>
      <trkpt lat="43.17248" lon="0.63715">
        <ele>487.2</ele>
        <time>2025-12-29T11:02:36Z</time>
      </trkpt>
      <trkpt lat="43.17248" lon="0.63721">
        <ele>487.2</ele>
        <time>2025-12-29T11:02:37Z</time>
      </trkpt>
      <trkpt lat="43.17248" lon="0.63727">
        <ele>487.8</ele>
        <time>2025-12-29T11:02:38Z</time>
      </trkpt>
      <trkpt lat="43.17247" lon="0.63733">
        <ele>487.8</ele>
        <time>2025-12-29T11:02:39Z</time>
      </trkpt>
      <trkpt lat="43.17247" lon="0.6374">
        <ele>487.8</ele>
        <time>2025-12-29T11:02:40Z</time>
      </trkpt>
      <trkpt lat="43.17247" lon="0.63745">
        <ele>487.4</ele>
        <time>2025-12-29T11:02:41Z</time>
      </trkpt>
      <trkpt lat="43.17247" lon="0.63752">
        <ele>487.6</ele>
        <time>2025-12-29T11:02:42Z</time>
      </trkpt>
      <trkpt lat="43.17246" lon="0.63759">
        <ele>487.6</ele>
        <time>2025-12-29T11:02:43Z</time>
      </trkpt>
      <trkpt lat="43.17246" lon="0.63765">
        <ele>487.6</ele>
        <time>2025-12-29T11:02:44Z</time>
      </trkpt>
      <trkpt lat="43.17246" lon="0.63771">
        <ele>487.6</ele>
        <time>2025-12-29T11:02:45Z</time>
      </trkpt>
      <trkpt lat="43.17245" lon="0.63778">
        <ele>487.4</ele>
        <time>2025-12-29T11:02:46Z</time>
      </trkpt>
      <trkpt lat="43.17245" lon="0.63784">
        <ele>487.4</ele>
        <time>2025-12-29T11:02:47Z</time>
      </trkpt>
      <trkpt lat="43.17245" lon="0.6379">
        <ele>487.4</ele>
        <time>2025-12-29T11:02:48Z</time>
      </trkpt>
      <trkpt lat="43.17245" lon="0.63797">
        <ele>488</ele>
        <time>2025-12-29T11:02:49Z</time>
      </trkpt>
      <trkpt lat="43.17244" lon="0.63804">
        <ele>488.2</ele>
        <time>2025-12-29T11:02:50Z</time>
      </trkpt>
      <trkpt lat="43.17243" lon="0.6381">
        <ele>488.2</ele>
        <time>2025-12-29T11:02:51Z</time>
      </trkpt>
      <trkpt lat="43.17243" lon="0.63816">
        <ele>488.2</ele>
        <time>2025-12-29T11:02:52Z</time>
      </trkpt>
      <trkpt lat="43.17243" lon="0.63822">
        <ele>487.6</ele>
        <time>2025-12-29T11:02:53Z</time>
      </trkpt>
      <trkpt lat="43.17243" lon="0.63828">
        <ele>487.4</ele>
        <time>2025-12-29T11:02:54Z</time>
      </trkpt>
      <trkpt lat="43.17243" lon="0.63833">
        <ele>487.4</ele>
        <time>2025-12-29T11:02:55Z</time>
      </trkpt>
      <trkpt lat="43.17243" lon="0.63838">
        <ele>487.4</ele>
        <time>2025-12-29T11:02:56Z</time>
      </trkpt>
      <trkpt lat="43.17242" lon="0.63845">
        <ele>487.4</ele>
        <time>2025-12-29T11:02:57Z</time>
      </trkpt>
      <trkpt lat="43.17241" lon="0.63851">
        <ele>486.8</ele>
        <time>2025-12-29T11:02:58Z</time>
      </trkpt>
      <trkpt lat="43.1724" lon="0.63858">
        <ele>486.8</ele>
        <time>2025-12-29T11:02:59Z</time>
      </trkpt>
      <trkpt lat="43.17239" lon="0.63865">
        <ele>486.8</ele>
        <time>2025-12-29T11:03:00Z</time>
      </trkpt>
      <trkpt lat="43.17238" lon="0.63872">
        <ele>487.8</ele>
        <time>2025-12-29T11:03:01Z</time>
      </trkpt>
      <trkpt lat="43.17238" lon="0.63877">
        <ele>486.6</ele>
        <time>2025-12-29T11:03:02Z</time>
      </trkpt>
      <trkpt lat="43.17237" lon="0.63883">
        <ele>486.6</ele>
        <time>2025-12-29T11:03:03Z</time>
      </trkpt>
      <trkpt lat="43.17236" lon="0.63889">
        <ele>486.6</ele>
        <time>2025-12-29T11:03:04Z</time>
      </trkpt>
      <trkpt lat="43.17235" lon="0.63896">
        <ele>487.6</ele>
        <time>2025-12-29T11:03:05Z</time>
      </trkpt>
      <trkpt lat="43.17235" lon="0.63902">
        <ele>488.2</ele>
        <time>2025-12-29T11:03:06Z</time>
      </trkpt>
      <trkpt lat="43.17235" lon="0.63907">
        <ele>488.2</ele>
        <time>2025-12-29T11:03:07Z</time>
      </trkpt>
      <trkpt lat="43.17234" lon="0.63915">
        <ele>488.2</ele>
        <time>2025-12-29T11:03:08Z</time>
      </trkpt>
      <trkpt lat="43.17232" lon="0.63922">
        <ele>487.4</ele>
        <time>2025-12-29T11:03:09Z</time>
      </trkpt>
      <trkpt lat="43.17231" lon="0.63927">
        <ele>487.4</ele>
        <time>2025-12-29T11:03:10Z</time>
      </trkpt>
      <trkpt lat="43.1723" lon="0.63934">
        <ele>487.4</ele>
        <time>2025-12-29T11:03:11Z</time>
      </trkpt>
      <trkpt lat="43.17229" lon="0.63941">
        <ele>487.4</ele>
        <time>2025-12-29T11:03:12Z</time>
      </trkpt>
      <trkpt lat="43.17227" lon="0.63948">
        <ele>487.6</ele>
        <time>2025-12-29T11:03:13Z</time>
      </trkpt>
      <trkpt lat="43.17227" lon="0.63954">
        <ele>487.4</ele>
        <time>2025-12-29T11:03:14Z</time>
      </trkpt>
      <trkpt lat="43.17226" lon="0.63961">
        <ele>487.4</ele>
        <time>2025-12-29T11:03:15Z</time>
      </trkpt>
      <trkpt lat="43.17226" lon="0.63969">
        <ele>487.4</ele>
        <time>2025-12-29T11:03:16Z</time>
      </trkpt>
      <trkpt lat="43.17225" lon="0.63977">
        <ele>487.4</ele>
        <time>2025-12-29T11:03:17Z</time>
      </trkpt>
      <trkpt lat="43.17225" lon="0.63984">
        <ele>487.6</ele>
        <time>2025-12-29T11:03:18Z</time>
      </trkpt>
      <trkpt lat="43.17224" lon="0.63992">
        <ele>487.6</ele>
        <time>2025-12-29T11:03:19Z</time>
      </trkpt>
      <trkpt lat="43.17223" lon="0.63999">
        <ele>487.6</ele>
        <time>2025-12-29T11:03:20Z</time>
      </trkpt>
      <trkpt lat="43.17223" lon="0.64006">
        <ele>487.6</ele>
        <time>2025-12-29T11:03:21Z</time>
      </trkpt>
      <trkpt lat="43.17224" lon="0.64012">
        <ele>487.6</ele>
        <time>2025-12-29T11:03:22Z</time>
      </trkpt>
      <trkpt lat="43.17224" lon="0.64019">
        <ele>487.6</ele>
        <time>2025-12-29T11:03:23Z</time>
      </trkpt>
      <trkpt lat="43.17223" lon="0.64025">
        <ele>487.6</ele>
        <time>2025-12-29T11:03:24Z</time>
      </trkpt>
      <trkpt lat="43.17223" lon="0.64032">
        <ele>487.6</ele>
        <time>2025-12-29T11:03:25Z</time>
      </trkpt>
      <trkpt lat="43.17222" lon="0.64037">
        <ele>488.4</ele>
        <time>2025-12-29T11:03:26Z</time>
      </trkpt>
      <trkpt lat="43.17222" lon="0.64043">
        <ele>488.4</ele>
        <time>2025-12-29T11:03:27Z</time>
      </trkpt>
      <trkpt lat="43.17221" lon="0.64049">
        <ele>488.4</ele>
        <time>2025-12-29T11:03:28Z</time>
      </trkpt>
      <trkpt lat="43.17221" lon="0.64055">
        <ele>487.4</ele>
        <time>2025-12-29T11:03:29Z</time>
      </trkpt>
      <trkpt lat="43.1722" lon="0.64062">
        <ele>487.6</ele>
        <time>2025-12-29T11:03:30Z</time>
      </trkpt>
      <trkpt lat="43.1722" lon="0.64069">
        <ele>487.6</ele>
        <time>2025-12-29T11:03:31Z</time>
      </trkpt>
      <trkpt lat="43.1722" lon="0.64077">
        <ele>487.6</ele>
        <time>2025-12-29T11:03:32Z</time>
      </trkpt>
      <trkpt lat="43.17219" lon="0.64082">
        <ele>487.6</ele>
        <time>2025-12-29T11:03:33Z</time>
      </trkpt>
      <trkpt lat="43.17219" lon="0.64087">
        <ele>486.8</ele>
        <time>2025-12-29T11:03:34Z</time>
      </trkpt>
      <trkpt lat="43.17218" lon="0.64094">
        <ele>486.8</ele>
        <time>2025-12-29T11:03:35Z</time>
      </trkpt>
      <trkpt lat="43.17217" lon="0.64101">
        <ele>486.8</ele>
        <time>2025-12-29T11:03:36Z</time>
      </trkpt>
      <trkpt lat="43.17218" lon="0.64108">
        <ele>487.2</ele>
        <time>2025-12-29T11:03:37Z</time>
      </trkpt>
      <trkpt lat="43.17217" lon="0.64116">
        <ele>488</ele>
        <time>2025-12-29T11:03:38Z</time>
      </trkpt>
      <trkpt lat="43.17217" lon="0.64123">
        <ele>488</ele>
        <time>2025-12-29T11:03:39Z</time>
      </trkpt>
      <trkpt lat="43.17217" lon="0.64131">
        <ele>488</ele>
        <time>2025-12-29T11:03:40Z</time>
      </trkpt>
      <trkpt lat="43.17217" lon="0.64138">
        <ele>488</ele>
        <time>2025-12-29T11:03:41Z</time>
      </trkpt>
      <trkpt lat="43.17216" lon="0.64144">
        <ele>487.4</ele>
        <time>2025-12-29T11:03:42Z</time>
      </trkpt>
      <trkpt lat="43.17216" lon="0.64152">
        <ele>487.4</ele>
        <time>2025-12-29T11:03:43Z</time>
      </trkpt>
      <trkpt lat="43.17215" lon="0.64159">
        <ele>487.4</ele>
        <time>2025-12-29T11:03:44Z</time>
      </trkpt>
      <trkpt lat="43.17214" lon="0.64165">
        <ele>487.4</ele>
        <time>2025-12-29T11:03:45Z</time>
      </trkpt>
      <trkpt lat="43.17213" lon="0.64172">
        <ele>487.8</ele>
        <time>2025-12-29T11:03:46Z</time>
      </trkpt>
      <trkpt lat="43.17213" lon="0.64179">
        <ele>487.8</ele>
        <time>2025-12-29T11:03:47Z</time>
      </trkpt>
      <trkpt lat="43.17213" lon="0.64185">
        <ele>487.8</ele>
        <time>2025-12-29T11:03:48Z</time>
      </trkpt>
      <trkpt lat="43.17213" lon="0.64192">
        <ele>486.8</ele>
        <time>2025-12-29T11:03:49Z</time>
      </trkpt>
      <trkpt lat="43.17213" lon="0.64198">
        <ele>487.4</ele>
        <time>2025-12-29T11:03:50Z</time>
      </trkpt>
      <trkpt lat="43.17212" lon="0.64205">
        <ele>487.4</ele>
        <time>2025-12-29T11:03:51Z</time>
      </trkpt>
      <trkpt lat="43.17212" lon="0.64211">
        <ele>487.4</ele>
        <time>2025-12-29T11:03:52Z</time>
      </trkpt>
      <trkpt lat="43.17212" lon="0.64217">
        <ele>487.8</ele>
        <time>2025-12-29T11:03:53Z</time>
      </trkpt>
      <trkpt lat="43.17212" lon="0.64223">
        <ele>487.6</ele>
        <time>2025-12-29T11:03:54Z</time>
      </trkpt>
      <trkpt lat="43.17211" lon="0.6423">
        <ele>487.6</ele>
        <time>2025-12-29T11:03:55Z</time>
      </trkpt>
      <trkpt lat="43.17211" lon="0.64236">
        <ele>487.6</ele>
        <time>2025-12-29T11:03:56Z</time>
      </trkpt>
      <trkpt lat="43.17211" lon="0.64242">
        <ele>487.6</ele>
        <time>2025-12-29T11:03:57Z</time>
      </trkpt>
      <trkpt lat="43.1721" lon="0.64249">
        <ele>488.2</ele>
        <time>2025-12-29T11:03:58Z</time>
      </trkpt>
      <trkpt lat="43.17211" lon="0.64256">
        <ele>488.2</ele>
        <time>2025-12-29T11:03:59Z</time>
      </trkpt>
      <trkpt lat="43.17211" lon="0.64262">
        <ele>488.2</ele>
        <time>2025-12-29T11:04:00Z</time>
      </trkpt>
      <trkpt lat="43.17212" lon="0.64268">
        <ele>488.2</ele>
        <time>2025-12-29T11:04:01Z</time>
      </trkpt>
      <trkpt lat="43.17212" lon="0.64274">
        <ele>488.2</ele>
        <time>2025-12-29T11:04:02Z</time>
      </trkpt>
      <trkpt lat="43.17212" lon="0.6428">
        <ele>488.2</ele>
        <time>2025-12-29T11:04:03Z</time>
      </trkpt>
      <trkpt lat="43.17213" lon="0.64287">
        <ele>488.2</ele>
        <time>2025-12-29T11:04:04Z</time>
      </trkpt>
      <trkpt lat="43.17213" lon="0.64293">
        <ele>488.8</ele>
        <time>2025-12-29T11:04:05Z</time>
      </trkpt>
      <trkpt lat="43.17214" lon="0.64299">
        <ele>488.8</ele>
        <time>2025-12-29T11:04:06Z</time>
      </trkpt>
      <trkpt lat="43.17215" lon="0.64304">
        <ele>488.8</ele>
        <time>2025-12-29T11:04:07Z</time>
      </trkpt>
      <trkpt lat="43.17215" lon="0.64311">
        <ele>488.8</ele>
        <time>2025-12-29T11:04:08Z</time>
      </trkpt>
      <trkpt lat="43.17216" lon="0.64317">
        <ele>488.8</ele>
        <time>2025-12-29T11:04:09Z</time>
      </trkpt>
      <trkpt lat="43.17216" lon="0.64323">
        <ele>488.4</ele>
        <time>2025-12-29T11:04:10Z</time>
      </trkpt>
      <trkpt lat="43.17217" lon="0.64329">
        <ele>488.4</ele>
        <time>2025-12-29T11:04:11Z</time>
      </trkpt>
      <trkpt lat="43.17218" lon="0.64335">
        <ele>488.4</ele>
        <time>2025-12-29T11:04:12Z</time>
      </trkpt>
      <trkpt lat="43.17218" lon="0.64341">
        <ele>488.4</ele>
        <time>2025-12-29T11:04:13Z</time>
      </trkpt>
      <trkpt lat="43.17219" lon="0.64347">
        <ele>488.4</ele>
        <time>2025-12-29T11:04:14Z</time>
      </trkpt>
      <trkpt lat="43.1722" lon="0.64353">
        <ele>488.4</ele>
        <time>2025-12-29T11:04:15Z</time>
      </trkpt>
      <trkpt lat="43.17221" lon="0.64358">
        <ele>488.4</ele>
        <time>2025-12-29T11:04:16Z</time>
      </trkpt>
      <trkpt lat="43.17222" lon="0.64363">
        <ele>488.4</ele>
        <time>2025-12-29T11:04:17Z</time>
      </trkpt>
      <trkpt lat="43.17222" lon="0.64368">
        <ele>489.8</ele>
        <time>2025-12-29T11:04:18Z</time>
      </trkpt>
      <trkpt lat="43.17223" lon="0.64372">
        <ele>489.8</ele>
        <time>2025-12-29T11:04:19Z</time>
      </trkpt>
      <trkpt lat="43.17224" lon="0.64376">
        <ele>489.8</ele>
        <time>2025-12-29T11:04:20Z</time>
      </trkpt>
      <trkpt lat="43.17225" lon="0.64381">
        <ele>489.8</ele>
        <time>2025-12-29T11:04:21Z</time>
      </trkpt>
      <trkpt lat="43.17225" lon="0.64384">
        <ele>488.2</ele>
        <time>2025-12-29T11:04:22Z</time>
      </trkpt>
      <trkpt lat="43.17225" lon="0.64386">
        <ele>488.2</ele>
        <time>2025-12-29T11:04:23Z</time>
      </trkpt>
      <trkpt lat="43.17225" lon="0.64388">
        <ele>488.2</ele>
        <time>2025-12-29T11:04:24Z</time>
      </trkpt>
      <trkpt lat="43.17225" lon="0.64388">
        <ele>488.8</ele>
        <time>2025-12-29T11:04:25Z</time>
      </trkpt>
      <trkpt lat="43.17228" lon="0.64407">
        <ele>489.8</ele>
        <time>2025-12-29T11:13:37Z</time>
      </trkpt>
      <trkpt lat="43.17228" lon="0.64411">
        <ele>489.4</ele>
        <time>2025-12-29T11:13:38Z</time>
      </trkpt>
      <trkpt lat="43.17229" lon="0.64415">
        <ele>489.4</ele>
        <time>2025-12-29T11:13:39Z</time>
      </trkpt>
      <trkpt lat="43.17229" lon="0.6442">
        <ele>489.4</ele>
        <time>2025-12-29T11:13:40Z</time>
      </trkpt>
      <trkpt lat="43.1723" lon="0.64426">
        <ele>489.6</ele>
        <time>2025-12-29T11:13:41Z</time>
      </trkpt>
      <trkpt lat="43.1723" lon="0.64431">
        <ele>489</ele>
        <time>2025-12-29T11:13:42Z</time>
      </trkpt>
      <trkpt lat="43.17231" lon="0.64437">
        <ele>489</ele>
        <time>2025-12-29T11:13:43Z</time>
      </trkpt>
      <trkpt lat="43.17231" lon="0.64443">
        <ele>489</ele>
        <time>2025-12-29T11:13:44Z</time>
      </trkpt>
      <trkpt lat="43.17231" lon="0.6445">
        <ele>489</ele>
        <time>2025-12-29T11:13:45Z</time>
      </trkpt>
      <trkpt lat="43.17232" lon="0.64456">
        <ele>488.4</ele>
        <time>2025-12-29T11:13:46Z</time>
      </trkpt>
      <trkpt lat="43.17232" lon="0.64463">
        <ele>488.4</ele>
        <time>2025-12-29T11:13:47Z</time>
      </trkpt>
      <trkpt lat="43.17232" lon="0.6447">
        <ele>488.4</ele>
        <time>2025-12-29T11:13:48Z</time>
      </trkpt>
      <trkpt lat="43.17233" lon="0.64477">
        <ele>488.4</ele>
        <time>2025-12-29T11:13:49Z</time>
      </trkpt>
      <trkpt lat="43.17234" lon="0.64484">
        <ele>488.2</ele>
        <time>2025-12-29T11:13:50Z</time>
      </trkpt>
      <trkpt lat="43.17234" lon="0.64491">
        <ele>488.2</ele>
        <time>2025-12-29T11:13:51Z</time>
      </trkpt>
      <trkpt lat="43.17235" lon="0.64499">
        <ele>488.2</ele>
        <time>2025-12-29T11:13:52Z</time>
      </trkpt>
      <trkpt lat="43.17235" lon="0.64506">
        <ele>489.2</ele>
        <time>2025-12-29T11:13:53Z</time>
      </trkpt>
      <trkpt lat="43.17235" lon="0.64513">
        <ele>488.2</ele>
        <time>2025-12-29T11:13:54Z</time>
      </trkpt>
      <trkpt lat="43.17235" lon="0.6452">
        <ele>488.2</ele>
        <time>2025-12-29T11:13:55Z</time>
      </trkpt>
      <trkpt lat="43.17235" lon="0.64527">
        <ele>488.2</ele>
        <time>2025-12-29T11:13:56Z</time>
      </trkpt>
      <trkpt lat="43.17235" lon="0.64535">
        <ele>488.2</ele>
        <time>2025-12-29T11:13:57Z</time>
      </trkpt>
      <trkpt lat="43.17235" lon="0.64543">
        <ele>488.2</ele>
        <time>2025-12-29T11:13:58Z</time>
      </trkpt>
      <trkpt lat="43.17235" lon="0.6455">
        <ele>488.2</ele>
        <time>2025-12-29T11:13:59Z</time>
      </trkpt>
      <trkpt lat="43.17235" lon="0.64557">
        <ele>488.2</ele>
        <time>2025-12-29T11:14:00Z</time>
      </trkpt>
      <trkpt lat="43.17234" lon="0.64565">
        <ele>487.8</ele>
        <time>2025-12-29T11:14:01Z</time>
      </trkpt>
      <trkpt lat="43.17234" lon="0.64572">
        <ele>488.2</ele>
        <time>2025-12-29T11:14:02Z</time>
      </trkpt>
      <trkpt lat="43.17234" lon="0.6458">
        <ele>488.2</ele>
        <time>2025-12-29T11:14:03Z</time>
      </trkpt>
      <trkpt lat="43.17233" lon="0.64588">
        <ele>488.2</ele>
        <time>2025-12-29T11:14:04Z</time>
      </trkpt>
      <trkpt lat="43.17233" lon="0.64595">
        <ele>487.8</ele>
        <time>2025-12-29T11:14:05Z</time>
      </trkpt>
      <trkpt lat="43.17233" lon="0.64603">
        <ele>487.4</ele>
        <time>2025-12-29T11:14:06Z</time>
      </trkpt>
      <trkpt lat="43.17233" lon="0.64611">
        <ele>487.4</ele>
        <time>2025-12-29T11:14:07Z</time>
      </trkpt>
      <trkpt lat="43.17233" lon="0.64618">
        <ele>487.4</ele>
        <time>2025-12-29T11:14:08Z</time>
      </trkpt>
      <trkpt lat="43.17232" lon="0.64625">
        <ele>487.4</ele>
        <time>2025-12-29T11:14:09Z</time>
      </trkpt>
      <trkpt lat="43.17232" lon="0.64632">
        <ele>487.6</ele>
        <time>2025-12-29T11:14:10Z</time>
      </trkpt>
      <trkpt lat="43.17231" lon="0.6464">
        <ele>487.6</ele>
        <time>2025-12-29T11:14:11Z</time>
      </trkpt>
      <trkpt lat="43.17231" lon="0.64647">
        <ele>487.6</ele>
        <time>2025-12-29T11:14:12Z</time>
      </trkpt>
      <trkpt lat="43.17231" lon="0.64654">
        <ele>488</ele>
        <time>2025-12-29T11:14:13Z</time>
      </trkpt>
      <trkpt lat="43.17231" lon="0.64662">
        <ele>488.2</ele>
        <time>2025-12-29T11:14:14Z</time>
      </trkpt>
      <trkpt lat="43.17231" lon="0.64669">
        <ele>488.2</ele>
        <time>2025-12-29T11:14:15Z</time>
      </trkpt>
      <trkpt lat="43.1723" lon="0.64676">
        <ele>488.2</ele>
        <time>2025-12-29T11:14:16Z</time>
      </trkpt>
      <trkpt lat="43.1723" lon="0.64683">
        <ele>488.2</ele>
        <time>2025-12-29T11:14:17Z</time>
      </trkpt>
      <trkpt lat="43.1723" lon="0.6469">
        <ele>488.2</ele>
        <time>2025-12-29T11:14:18Z</time>
      </trkpt>
      <trkpt lat="43.1723" lon="0.64698">
        <ele>488.2</ele>
        <time>2025-12-29T11:14:19Z</time>
      </trkpt>
      <trkpt lat="43.1723" lon="0.64704">
        <ele>488.2</ele>
        <time>2025-12-29T11:14:20Z</time>
      </trkpt>
      <trkpt lat="43.1723" lon="0.64711">
        <ele>488.2</ele>
        <time>2025-12-29T11:14:21Z</time>
      </trkpt>
      <trkpt lat="43.17231" lon="0.64718">
        <ele>486.8</ele>
        <time>2025-12-29T11:14:22Z</time>
      </trkpt>
      <trkpt lat="43.17231" lon="0.64725">
        <ele>486.8</ele>
        <time>2025-12-29T11:14:23Z</time>
      </trkpt>
      <trkpt lat="43.17231" lon="0.64732">
        <ele>486.8</ele>
        <time>2025-12-29T11:14:24Z</time>
      </trkpt>
      <trkpt lat="43.17232" lon="0.64739">
        <ele>486.8</ele>
        <time>2025-12-29T11:14:25Z</time>
      </trkpt>
      <trkpt lat="43.17232" lon="0.64745">
        <ele>487.6</ele>
        <time>2025-12-29T11:14:26Z</time>
      </trkpt>
      <trkpt lat="43.17233" lon="0.64752">
        <ele>487.6</ele>
        <time>2025-12-29T11:14:27Z</time>
      </trkpt>
      <trkpt lat="43.17233" lon="0.64759">
        <ele>487.6</ele>
        <time>2025-12-29T11:14:28Z</time>
      </trkpt>
      <trkpt lat="43.17234" lon="0.64766">
        <ele>487.6</ele>
        <time>2025-12-29T11:14:29Z</time>
      </trkpt>
      <trkpt lat="43.17234" lon="0.64773">
        <ele>487.4</ele>
        <time>2025-12-29T11:14:30Z</time>
      </trkpt>
      <trkpt lat="43.17235" lon="0.64779">
        <ele>487.4</ele>
        <time>2025-12-29T11:14:31Z</time>
      </trkpt>
      <trkpt lat="43.17235" lon="0.64786">
        <ele>487.4</ele>
        <time>2025-12-29T11:14:32Z</time>
      </trkpt>
      <trkpt lat="43.17236" lon="0.64792">
        <ele>487.4</ele>
        <time>2025-12-29T11:14:33Z</time>
      </trkpt>
      <trkpt lat="43.17237" lon="0.64799">
        <ele>487.6</ele>
        <time>2025-12-29T11:14:34Z</time>
      </trkpt>
      <trkpt lat="43.17237" lon="0.64807">
        <ele>487.6</ele>
        <time>2025-12-29T11:14:35Z</time>
      </trkpt>
      <trkpt lat="43.17237" lon="0.64814">
        <ele>487.6</ele>
        <time>2025-12-29T11:14:36Z</time>
      </trkpt>
      <trkpt lat="43.17238" lon="0.64822">
        <ele>486.8</ele>
        <time>2025-12-29T11:14:37Z</time>
      </trkpt>
      <trkpt lat="43.17238" lon="0.64831">
        <ele>486.2</ele>
        <time>2025-12-29T11:14:38Z</time>
      </trkpt>
      <trkpt lat="43.17239" lon="0.64839">
        <ele>486.2</ele>
        <time>2025-12-29T11:14:39Z</time>
      </trkpt>
      <trkpt lat="43.17239" lon="0.64848">
        <ele>486.2</ele>
        <time>2025-12-29T11:14:40Z</time>
      </trkpt>
      <trkpt lat="43.1724" lon="0.64857">
        <ele>486.2</ele>
        <time>2025-12-29T11:14:41Z</time>
      </trkpt>
      <trkpt lat="43.1724" lon="0.64867">
        <ele>485.4</ele>
        <time>2025-12-29T11:14:42Z</time>
      </trkpt>
      <trkpt lat="43.17241" lon="0.64876">
        <ele>485.4</ele>
        <time>2025-12-29T11:14:43Z</time>
      </trkpt>
      <trkpt lat="43.17241" lon="0.64886">
        <ele>485.4</ele>
        <time>2025-12-29T11:14:44Z</time>
      </trkpt>
      <trkpt lat="43.17242" lon="0.64896">
        <ele>484.4</ele>
        <time>2025-12-29T11:14:45Z</time>
      </trkpt>
      <trkpt lat="43.17243" lon="0.64907">
        <ele>481.2</ele>
        <time>2025-12-29T11:14:46Z</time>
      </trkpt>
      <trkpt lat="43.17244" lon="0.64917">
        <ele>481.2</ele>
        <time>2025-12-29T11:14:47Z</time>
      </trkpt>
      <trkpt lat="43.17245" lon="0.64928">
        <ele>481.2</ele>
        <time>2025-12-29T11:14:48Z</time>
      </trkpt>
      <trkpt lat="43.17245" lon="0.64938">
        <ele>481.2</ele>
        <time>2025-12-29T11:14:49Z</time>
      </trkpt>
      <trkpt lat="43.17246" lon="0.64949">
        <ele>482</ele>
        <time>2025-12-29T11:14:50Z</time>
      </trkpt>
      <trkpt lat="43.17247" lon="0.6496">
        <ele>482</ele>
        <time>2025-12-29T11:14:51Z</time>
      </trkpt>
      <trkpt lat="43.17248" lon="0.6497">
        <ele>482</ele>
        <time>2025-12-29T11:14:52Z</time>
      </trkpt>
      <trkpt lat="43.17249" lon="0.64981">
        <ele>482</ele>
        <time>2025-12-29T11:14:53Z</time>
      </trkpt>
      <trkpt lat="43.17249" lon="0.64992">
        <ele>479.8</ele>
        <time>2025-12-29T11:14:54Z</time>
      </trkpt>
      <trkpt lat="43.1725" lon="0.65003">
        <ele>479.8</ele>
        <time>2025-12-29T11:14:55Z</time>
      </trkpt>
      <trkpt lat="43.17251" lon="0.65013">
        <ele>479.8</ele>
        <time>2025-12-29T11:14:56Z</time>
      </trkpt>
      <trkpt lat="43.17252" lon="0.65023">
        <ele>478.8</ele>
        <time>2025-12-29T11:14:57Z</time>
      </trkpt>
      <trkpt lat="43.17253" lon="0.65032">
        <ele>477.8</ele>
        <time>2025-12-29T11:14:58Z</time>
      </trkpt>
      <trkpt lat="43.17255" lon="0.65042">
        <ele>477.8</ele>
        <time>2025-12-29T11:14:59Z</time>
      </trkpt>
      <trkpt lat="43.17257" lon="0.6505">
        <ele>477.8</ele>
        <time>2025-12-29T11:15:00Z</time>
      </trkpt>
      <trkpt lat="43.1726" lon="0.65058">
        <ele>478.8</ele>
        <time>2025-12-29T11:15:01Z</time>
      </trkpt>
      <trkpt lat="43.17263" lon="0.65065">
        <ele>478.8</ele>
        <time>2025-12-29T11:15:02Z</time>
      </trkpt>
      <trkpt lat="43.17267" lon="0.65073">
        <ele>478.8</ele>
        <time>2025-12-29T11:15:03Z</time>
      </trkpt>
      <trkpt lat="43.17272" lon="0.6508">
        <ele>478.8</ele>
        <time>2025-12-29T11:15:04Z</time>
      </trkpt>
      <trkpt lat="43.17276" lon="0.65088">
        <ele>477.8</ele>
        <time>2025-12-29T11:15:05Z</time>
      </trkpt>
      <trkpt lat="43.1728" lon="0.65096">
        <ele>475.2</ele>
        <time>2025-12-29T11:15:06Z</time>
      </trkpt>
      <trkpt lat="43.17284" lon="0.65104">
        <ele>475.2</ele>
        <time>2025-12-29T11:15:07Z</time>
      </trkpt>
      <trkpt lat="43.17287" lon="0.65114">
        <ele>475.2</ele>
        <time>2025-12-29T11:15:08Z</time>
      </trkpt>
      <trkpt lat="43.1729" lon="0.65123">
        <ele>475.2</ele>
        <time>2025-12-29T11:15:09Z</time>
      </trkpt>
      <trkpt lat="43.17291" lon="0.65133">
        <ele>475.4</ele>
        <time>2025-12-29T11:15:10Z</time>
      </trkpt>
      <trkpt lat="43.17292" lon="0.65143">
        <ele>475.4</ele>
        <time>2025-12-29T11:15:11Z</time>
      </trkpt>
      <trkpt lat="43.17294" lon="0.65153">
        <ele>475.4</ele>
        <time>2025-12-29T11:15:12Z</time>
      </trkpt>
      <trkpt lat="43.17294" lon="0.65163">
        <ele>474.4</ele>
        <time>2025-12-29T11:15:13Z</time>
      </trkpt>
      <trkpt lat="43.17295" lon="0.65173">
        <ele>471.6</ele>
        <time>2025-12-29T11:15:14Z</time>
      </trkpt>
      <trkpt lat="43.17295" lon="0.65183">
        <ele>471.6</ele>
        <time>2025-12-29T11:15:15Z</time>
      </trkpt>
      <trkpt lat="43.17295" lon="0.65193">
        <ele>471.6</ele>
        <time>2025-12-29T11:15:16Z</time>
      </trkpt>
      <trkpt lat="43.17295" lon="0.65203">
        <ele>471.6</ele>
        <time>2025-12-29T11:15:17Z</time>
      </trkpt>
      <trkpt lat="43.17296" lon="0.65212">
        <ele>468.6</ele>
        <time>2025-12-29T11:15:18Z</time>
      </trkpt>
      <trkpt lat="43.17296" lon="0.65221">
        <ele>468.6</ele>
        <time>2025-12-29T11:15:19Z</time>
      </trkpt>
      <trkpt lat="43.17297" lon="0.65231">
        <ele>468.6</ele>
        <time>2025-12-29T11:15:20Z</time>
      </trkpt>
      <trkpt lat="43.17298" lon="0.6524">
        <ele>468.6</ele>
        <time>2025-12-29T11:15:21Z</time>
      </trkpt>
      <trkpt lat="43.173" lon="0.6525">
        <ele>468.2</ele>
        <time>2025-12-29T11:15:22Z</time>
      </trkpt>
      <trkpt lat="43.17302" lon="0.6526">
        <ele>468.2</ele>
        <time>2025-12-29T11:15:23Z</time>
      </trkpt>
      <trkpt lat="43.17304" lon="0.6527">
        <ele>468.2</ele>
        <time>2025-12-29T11:15:24Z</time>
      </trkpt>
      <trkpt lat="43.17306" lon="0.65281">
        <ele>468.2</ele>
        <time>2025-12-29T11:15:25Z</time>
      </trkpt>
      <trkpt lat="43.17309" lon="0.65291">
        <ele>467</ele>
        <time>2025-12-29T11:15:26Z</time>
      </trkpt>
      <trkpt lat="43.17311" lon="0.65301">
        <ele>467</ele>
        <time>2025-12-29T11:15:27Z</time>
      </trkpt>
      <trkpt lat="43.17313" lon="0.65311">
        <ele>467</ele>
        <time>2025-12-29T11:15:28Z</time>
      </trkpt>
      <trkpt lat="43.17315" lon="0.65321">
        <ele>466.2</ele>
        <time>2025-12-29T11:15:29Z</time>
      </trkpt>
      <trkpt lat="43.17317" lon="0.6533">
        <ele>464.4</ele>
        <time>2025-12-29T11:15:30Z</time>
      </trkpt>
      <trkpt lat="43.17319" lon="0.6534">
        <ele>464.4</ele>
        <time>2025-12-29T11:15:31Z</time>
      </trkpt>
      <trkpt lat="43.1732" lon="0.6535">
        <ele>464.4</ele>
        <time>2025-12-29T11:15:32Z</time>
      </trkpt>
      <trkpt lat="43.17322" lon="0.65359">
        <ele>464.4</ele>
        <time>2025-12-29T11:15:33Z</time>
      </trkpt>
      <trkpt lat="43.17322" lon="0.65367">
        <ele>463.8</ele>
        <time>2025-12-29T11:15:34Z</time>
      </trkpt>
      <trkpt lat="43.17322" lon="0.65374">
        <ele>463.8</ele>
        <time>2025-12-29T11:15:35Z</time>
      </trkpt>
      <trkpt lat="43.17321" lon="0.65381">
        <ele>463.8</ele>
        <time>2025-12-29T11:15:36Z</time>
      </trkpt>
      <trkpt lat="43.1732" lon="0.65388">
        <ele>463.8</ele>
        <time>2025-12-29T11:15:37Z</time>
      </trkpt>
      <trkpt lat="43.17319" lon="0.65394">
        <ele>463</ele>
        <time>2025-12-29T11:15:38Z</time>
      </trkpt>
      <trkpt lat="43.17317" lon="0.65401">
        <ele>463</ele>
        <time>2025-12-29T11:15:39Z</time>
      </trkpt>
      <trkpt lat="43.17315" lon="0.65409">
        <ele>463</ele>
        <time>2025-12-29T11:15:40Z</time>
      </trkpt>
      <trkpt lat="43.17312" lon="0.65416">
        <ele>463</ele>
        <time>2025-12-29T11:15:41Z</time>
      </trkpt>
      <trkpt lat="43.17309" lon="0.65423">
        <ele>461.2</ele>
        <time>2025-12-29T11:15:42Z</time>
      </trkpt>
      <trkpt lat="43.17306" lon="0.65429">
        <ele>461.2</ele>
        <time>2025-12-29T11:15:43Z</time>
      </trkpt>
      <trkpt lat="43.17302" lon="0.65434">
        <ele>461.2</ele>
        <time>2025-12-29T11:15:44Z</time>
      </trkpt>
      <trkpt lat="43.17299" lon="0.65439">
        <ele>461.2</ele>
        <time>2025-12-29T11:15:45Z</time>
      </trkpt>
      <trkpt lat="43.17295" lon="0.65443">
        <ele>461.6</ele>
        <time>2025-12-29T11:15:46Z</time>
      </trkpt>
      <trkpt lat="43.17291" lon="0.65447">
        <ele>461.6</ele>
        <time>2025-12-29T11:15:47Z</time>
      </trkpt>
      <trkpt lat="43.17287" lon="0.65452">
        <ele>461.6</ele>
        <time>2025-12-29T11:15:48Z</time>
      </trkpt>
      <trkpt lat="43.17282" lon="0.65457">
        <ele>460.6</ele>
        <time>2025-12-29T11:15:49Z</time>
      </trkpt>
      <trkpt lat="43.17276" lon="0.65462">
        <ele>457.6</ele>
        <time>2025-12-29T11:15:50Z</time>
      </trkpt>
      <trkpt lat="43.17271" lon="0.65467">
        <ele>457.6</ele>
        <time>2025-12-29T11:15:51Z</time>
      </trkpt>
      <trkpt lat="43.17265" lon="0.65473">
        <ele>457.6</ele>
        <time>2025-12-29T11:15:52Z</time>
      </trkpt>
      <trkpt lat="43.17259" lon="0.6548">
        <ele>456.6</ele>
        <time>2025-12-29T11:15:53Z</time>
      </trkpt>
      <trkpt lat="43.17253" lon="0.65486">
        <ele>453.2</ele>
        <time>2025-12-29T11:15:54Z</time>
      </trkpt>
      <trkpt lat="43.17247" lon="0.65492">
        <ele>453.2</ele>
        <time>2025-12-29T11:15:55Z</time>
      </trkpt>
      <trkpt lat="43.17241" lon="0.65499">
        <ele>453.2</ele>
        <time>2025-12-29T11:15:56Z</time>
      </trkpt>
      <trkpt lat="43.17234" lon="0.65505">
        <ele>452.2</ele>
        <time>2025-12-29T11:15:57Z</time>
      </trkpt>
      <trkpt lat="43.17228" lon="0.65512">
        <ele>451.4</ele>
        <time>2025-12-29T11:15:58Z</time>
      </trkpt>
      <trkpt lat="43.17222" lon="0.65519">
        <ele>451.4</ele>
        <time>2025-12-29T11:15:59Z</time>
      </trkpt>
      <trkpt lat="43.17216" lon="0.65526">
        <ele>451.4</ele>
        <time>2025-12-29T11:16:00Z</time>
      </trkpt>
      <trkpt lat="43.1721" lon="0.65533">
        <ele>450.4</ele>
        <time>2025-12-29T11:16:01Z</time>
      </trkpt>
      <trkpt lat="43.17204" lon="0.65541">
        <ele>449.8</ele>
        <time>2025-12-29T11:16:02Z</time>
      </trkpt>
      <trkpt lat="43.17199" lon="0.65547">
        <ele>449.8</ele>
        <time>2025-12-29T11:16:03Z</time>
      </trkpt>
      <trkpt lat="43.17196" lon="0.65553">
        <ele>449.8</ele>
        <time>2025-12-29T11:16:04Z</time>
      </trkpt>
      <trkpt lat="43.17193" lon="0.65557">
        <ele>448.8</ele>
        <time>2025-12-29T11:16:05Z</time>
      </trkpt>
      <trkpt lat="43.1719" lon="0.65561">
        <ele>448.4</ele>
        <time>2025-12-29T11:16:06Z</time>
      </trkpt>
      <trkpt lat="43.17189" lon="0.65564">
        <ele>448.4</ele>
        <time>2025-12-29T11:16:07Z</time>
      </trkpt>
      <trkpt lat="43.17187" lon="0.65567">
        <ele>448.4</ele>
        <time>2025-12-29T11:16:08Z</time>
      </trkpt>
      <trkpt lat="43.17185" lon="0.65568">
        <ele>448.4</ele>
        <time>2025-12-29T11:16:09Z</time>
      </trkpt>
      <trkpt lat="43.17183" lon="0.65571">
        <ele>447.8</ele>
        <time>2025-12-29T11:16:10Z</time>
      </trkpt>
      <trkpt lat="43.17179" lon="0.65573">
        <ele>447.8</ele>
        <time>2025-12-29T11:16:11Z</time>
      </trkpt>
      <trkpt lat="43.17175" lon="0.65574">
        <ele>447.8</ele>
        <time>2025-12-29T11:16:12Z</time>
      </trkpt>
      <trkpt lat="43.1717" lon="0.65573">
        <ele>446.8</ele>
        <time>2025-12-29T11:16:13Z</time>
      </trkpt>
      <trkpt lat="43.17164" lon="0.65573">
        <ele>443.4</ele>
        <time>2025-12-29T11:16:14Z</time>
      </trkpt>
      <trkpt lat="43.17157" lon="0.65572">
        <ele>443.4</ele>
        <time>2025-12-29T11:16:15Z</time>
      </trkpt>
      <trkpt lat="43.1715" lon="0.65572">
        <ele>443.4</ele>
        <time>2025-12-29T11:16:16Z</time>
      </trkpt>
      <trkpt lat="43.17143" lon="0.65572">
        <ele>443.4</ele>
        <time>2025-12-29T11:16:17Z</time>
      </trkpt>
      <trkpt lat="43.17136" lon="0.65573">
        <ele>440.2</ele>
        <time>2025-12-29T11:16:18Z</time>
      </trkpt>
      <trkpt lat="43.17129" lon="0.65574">
        <ele>440.2</ele>
        <time>2025-12-29T11:16:19Z</time>
      </trkpt>
      <trkpt lat="43.17122" lon="0.65577">
        <ele>440.2</ele>
        <time>2025-12-29T11:16:20Z</time>
      </trkpt>
      <trkpt lat="43.17116" lon="0.65581">
        <ele>439.2</ele>
        <time>2025-12-29T11:16:21Z</time>
      </trkpt>
      <trkpt lat="43.17109" lon="0.65585">
        <ele>437.2</ele>
        <time>2025-12-29T11:16:22Z</time>
      </trkpt>
      <trkpt lat="43.17103" lon="0.6559">
        <ele>437.2</ele>
        <time>2025-12-29T11:16:23Z</time>
      </trkpt>
      <trkpt lat="43.17096" lon="0.65594">
        <ele>437.2</ele>
        <time>2025-12-29T11:16:24Z</time>
      </trkpt>
      <trkpt lat="43.17089" lon="0.65598">
        <ele>436.2</ele>
        <time>2025-12-29T11:16:25Z</time>
      </trkpt>
      <trkpt lat="43.17082" lon="0.65602">
        <ele>435.6</ele>
        <time>2025-12-29T11:16:26Z</time>
      </trkpt>
      <trkpt lat="43.17075" lon="0.65606">
        <ele>435.6</ele>
        <time>2025-12-29T11:16:27Z</time>
      </trkpt>
      <trkpt lat="43.17068" lon="0.6561">
        <ele>435.6</ele>
        <time>2025-12-29T11:16:28Z</time>
      </trkpt>
      <trkpt lat="43.17061" lon="0.65613">
        <ele>435.6</ele>
        <time>2025-12-29T11:16:29Z</time>
      </trkpt>
      <trkpt lat="43.17054" lon="0.65617">
        <ele>434.2</ele>
        <time>2025-12-29T11:16:30Z</time>
      </trkpt>
      <trkpt lat="43.17047" lon="0.6562">
        <ele>434.2</ele>
        <time>2025-12-29T11:16:31Z</time>
      </trkpt>
      <trkpt lat="43.1704" lon="0.65624">
        <ele>434.2</ele>
        <time>2025-12-29T11:16:32Z</time>
      </trkpt>
      <trkpt lat="43.17032" lon="0.65628">
        <ele>434.2</ele>
        <time>2025-12-29T11:16:33Z</time>
      </trkpt>
      <trkpt lat="43.17024" lon="0.65632">
        <ele>428.8</ele>
        <time>2025-12-29T11:16:34Z</time>
      </trkpt>
      <trkpt lat="43.17015" lon="0.65637">
        <ele>428.8</ele>
        <time>2025-12-29T11:16:35Z</time>
      </trkpt>
      <trkpt lat="43.17007" lon="0.65641">
        <ele>428.8</ele>
        <time>2025-12-29T11:16:36Z</time>
      </trkpt>
      <trkpt lat="43.16998" lon="0.65644">
        <ele>428.8</ele>
        <time>2025-12-29T11:16:37Z</time>
      </trkpt>
      <trkpt lat="43.16989" lon="0.65647">
        <ele>425</ele>
        <time>2025-12-29T11:16:38Z</time>
      </trkpt>
      <trkpt lat="43.16982" lon="0.65648">
        <ele>425</ele>
        <time>2025-12-29T11:16:39Z</time>
      </trkpt>
      <trkpt lat="43.16974" lon="0.65648">
        <ele>425</ele>
        <time>2025-12-29T11:16:40Z</time>
      </trkpt>
      <trkpt lat="43.16968" lon="0.65649">
        <ele>426</ele>
        <time>2025-12-29T11:16:41Z</time>
      </trkpt>
      <trkpt lat="43.16962" lon="0.6565">
        <ele>428.2</ele>
        <time>2025-12-29T11:16:42Z</time>
      </trkpt>
      <trkpt lat="43.16958" lon="0.65652">
        <ele>428.2</ele>
        <time>2025-12-29T11:16:43Z</time>
      </trkpt>
      <trkpt lat="43.16954" lon="0.65655">
        <ele>428.2</ele>
        <time>2025-12-29T11:16:44Z</time>
      </trkpt>
      <trkpt lat="43.16952" lon="0.65657">
        <ele>429.2</ele>
        <time>2025-12-29T11:16:45Z</time>
      </trkpt>
      <trkpt lat="43.16949" lon="0.65659">
        <ele>433</ele>
        <time>2025-12-29T11:16:46Z</time>
      </trkpt>
      <trkpt lat="43.16948" lon="0.65661">
        <ele>433</ele>
        <time>2025-12-29T11:16:47Z</time>
      </trkpt>
      <trkpt lat="43.16946" lon="0.65662">
        <ele>433</ele>
        <time>2025-12-29T11:16:48Z</time>
      </trkpt>
      <trkpt lat="43.16944" lon="0.65664">
        <ele>434</ele>
        <time>2025-12-29T11:16:49Z</time>
      </trkpt>
      <trkpt lat="43.16943" lon="0.65665">
        <ele>434.8</ele>
        <time>2025-12-29T11:16:50Z</time>
      </trkpt>
      <trkpt lat="43.16941" lon="0.65666">
        <ele>434.8</ele>
        <time>2025-12-29T11:16:51Z</time>
      </trkpt>
      <trkpt lat="43.16939" lon="0.65667">
        <ele>434.8</ele>
        <time>2025-12-29T11:16:52Z</time>
      </trkpt>
      <trkpt lat="43.16938" lon="0.65668">
        <ele>435.6</ele>
        <time>2025-12-29T11:16:53Z</time>
      </trkpt>
      <trkpt lat="43.16936" lon="0.6567">
        <ele>436.2</ele>
        <time>2025-12-29T11:16:54Z</time>
      </trkpt>
      <trkpt lat="43.16935" lon="0.65671">
        <ele>436.2</ele>
        <time>2025-12-29T11:16:55Z</time>
      </trkpt>
      <trkpt lat="43.16933" lon="0.65672">
        <ele>436.2</ele>
        <time>2025-12-29T11:16:56Z</time>
      </trkpt>
      <trkpt lat="43.16932" lon="0.65673">
        <ele>436.2</ele>
        <time>2025-12-29T11:16:57Z</time>
      </trkpt>
      <trkpt lat="43.1693" lon="0.65675">
        <ele>436.4</ele>
        <time>2025-12-29T11:16:58Z</time>
      </trkpt>
      <trkpt lat="43.16928" lon="0.65676">
        <ele>436.4</ele>
        <time>2025-12-29T11:16:59Z</time>
      </trkpt>
      <trkpt lat="43.16927" lon="0.65676">
        <ele>436.4</ele>
        <time>2025-12-29T11:17:00Z</time>
      </trkpt>
      <trkpt lat="43.16925" lon="0.65677">
        <ele>437.4</ele>
        <time>2025-12-29T11:17:01Z</time>
      </trkpt>
      <trkpt lat="43.16923" lon="0.65678">
        <ele>438.4</ele>
        <time>2025-12-29T11:17:02Z</time>
      </trkpt>
      <trkpt lat="43.16921" lon="0.65679">
        <ele>438.4</ele>
        <time>2025-12-29T11:17:03Z</time>
      </trkpt>
      <trkpt lat="43.16919" lon="0.6568">
        <ele>438.4</ele>
        <time>2025-12-29T11:17:04Z</time>
      </trkpt>
      <trkpt lat="43.16917" lon="0.6568">
        <ele>438.4</ele>
        <time>2025-12-29T11:17:05Z</time>
      </trkpt>
      <trkpt lat="43.16915" lon="0.65681">
        <ele>438.6</ele>
        <time>2025-12-29T11:17:06Z</time>
      </trkpt>
      <trkpt lat="43.16913" lon="0.65682">
        <ele>438.6</ele>
        <time>2025-12-29T11:17:07Z</time>
      </trkpt>
      <trkpt lat="43.16911" lon="0.65683">
        <ele>438.6</ele>
        <time>2025-12-29T11:17:08Z</time>
      </trkpt>
      <trkpt lat="43.16909" lon="0.65683">
        <ele>439.2</ele>
        <time>2025-12-29T11:17:09Z</time>
      </trkpt>
      <trkpt lat="43.16908" lon="0.65684">
        <ele>439.2</ele>
        <time>2025-12-29T11:17:10Z</time>
      </trkpt>
      <trkpt lat="43.16906" lon="0.65684">
        <ele>439.2</ele>
        <time>2025-12-29T11:17:11Z</time>
      </trkpt>
      <trkpt lat="43.16904" lon="0.65685">
        <ele>439.2</ele>
        <time>2025-12-29T11:17:12Z</time>
      </trkpt>
      <trkpt lat="43.16902" lon="0.65686">
        <ele>440.2</ele>
        <time>2025-12-29T11:17:13Z</time>
      </trkpt>
      <trkpt lat="43.169" lon="0.65687">
        <ele>441</ele>
        <time>2025-12-29T11:17:14Z</time>
      </trkpt>
      <trkpt lat="43.16899" lon="0.65687">
        <ele>441</ele>
        <time>2025-12-29T11:17:15Z</time>
      </trkpt>
      <trkpt lat="43.16897" lon="0.65687">
        <ele>441</ele>
        <time>2025-12-29T11:17:16Z</time>
      </trkpt>
      <trkpt lat="43.16895" lon="0.65688">
        <ele>441</ele>
        <time>2025-12-29T11:17:17Z</time>
      </trkpt>
      <trkpt lat="43.16893" lon="0.65688">
        <ele>442</ele>
        <time>2025-12-29T11:17:18Z</time>
      </trkpt>
      <trkpt lat="43.16891" lon="0.65689">
        <ele>442</ele>
        <time>2025-12-29T11:17:19Z</time>
      </trkpt>
      <trkpt lat="43.16889" lon="0.6569">
        <ele>442</ele>
        <time>2025-12-29T11:17:20Z</time>
      </trkpt>
      <trkpt lat="43.16887" lon="0.6569">
        <ele>442</ele>
        <time>2025-12-29T11:17:21Z</time>
      </trkpt>
      <trkpt lat="43.16885" lon="0.6569">
        <ele>442</ele>
        <time>2025-12-29T11:17:22Z</time>
      </trkpt>
      <trkpt lat="43.16883" lon="0.6569">
        <ele>442</ele>
        <time>2025-12-29T11:17:23Z</time>
      </trkpt>
      <trkpt lat="43.16881" lon="0.6569">
        <ele>442</ele>
        <time>2025-12-29T11:17:24Z</time>
      </trkpt>
      <trkpt lat="43.1688" lon="0.65691">
        <ele>443</ele>
        <time>2025-12-29T11:17:25Z</time>
      </trkpt>
      <trkpt lat="43.16878" lon="0.65692">
        <ele>443.4</ele>
        <time>2025-12-29T11:17:26Z</time>
      </trkpt>
      <trkpt lat="43.16876" lon="0.65692">
        <ele>443.4</ele>
        <time>2025-12-29T11:17:27Z</time>
      </trkpt>
      <trkpt lat="43.16874" lon="0.65693">
        <ele>443.4</ele>
        <time>2025-12-29T11:17:28Z</time>
      </trkpt>
      <trkpt lat="43.16872" lon="0.65693">
        <ele>444</ele>
        <time>2025-12-29T11:17:29Z</time>
      </trkpt>
      <trkpt lat="43.1687" lon="0.65693">
        <ele>443.8</ele>
        <time>2025-12-29T11:17:30Z</time>
      </trkpt>
      <trkpt lat="43.16868" lon="0.65694">
        <ele>443.8</ele>
        <time>2025-12-29T11:17:31Z</time>
      </trkpt>
      <trkpt lat="43.16866" lon="0.65694">
        <ele>443.8</ele>
        <time>2025-12-29T11:17:32Z</time>
      </trkpt>
      <trkpt lat="43.16863" lon="0.65694">
        <ele>444.4</ele>
        <time>2025-12-29T11:17:33Z</time>
      </trkpt>
      <trkpt lat="43.16861" lon="0.65695">
        <ele>444</ele>
        <time>2025-12-29T11:17:34Z</time>
      </trkpt>
      <trkpt lat="43.16859" lon="0.65694">
        <ele>444</ele>
        <time>2025-12-29T11:17:35Z</time>
      </trkpt>
      <trkpt lat="43.16857" lon="0.65695">
        <ele>444</ele>
        <time>2025-12-29T11:17:36Z</time>
      </trkpt>
      <trkpt lat="43.16855" lon="0.65695">
        <ele>444.6</ele>
        <time>2025-12-29T11:17:37Z</time>
      </trkpt>
      <trkpt lat="43.16853" lon="0.65695">
        <ele>445.2</ele>
        <time>2025-12-29T11:17:38Z</time>
      </trkpt>
      <trkpt lat="43.16852" lon="0.65696">
        <ele>445.2</ele>
        <time>2025-12-29T11:17:39Z</time>
      </trkpt>
      <trkpt lat="43.1685" lon="0.65696">
        <ele>445.2</ele>
        <time>2025-12-29T11:17:40Z</time>
      </trkpt>
      <trkpt lat="43.16848" lon="0.65696">
        <ele>445.4</ele>
        <time>2025-12-29T11:17:41Z</time>
      </trkpt>
      <trkpt lat="43.16846" lon="0.65696">
        <ele>445.8</ele>
        <time>2025-12-29T11:17:42Z</time>
      </trkpt>
      <trkpt lat="43.16844" lon="0.65696">
        <ele>445.8</ele>
        <time>2025-12-29T11:17:43Z</time>
      </trkpt>
      <trkpt lat="43.16842" lon="0.65697">
        <ele>445.8</ele>
        <time>2025-12-29T11:17:44Z</time>
      </trkpt>
      <trkpt lat="43.1684" lon="0.65697">
        <ele>446.4</ele>
        <time>2025-12-29T11:17:45Z</time>
      </trkpt>
      <trkpt lat="43.16838" lon="0.65698">
        <ele>446.6</ele>
        <time>2025-12-29T11:17:46Z</time>
      </trkpt>
      <trkpt lat="43.16836" lon="0.65699">
        <ele>446.6</ele>
        <time>2025-12-29T11:17:47Z</time>
      </trkpt>
      <trkpt lat="43.16835" lon="0.65699">
        <ele>446.6</ele>
        <time>2025-12-29T11:17:48Z</time>
      </trkpt>
      <trkpt lat="43.16833" lon="0.65699">
        <ele>447</ele>
        <time>2025-12-29T11:17:49Z</time>
      </trkpt>
      <trkpt lat="43.16831" lon="0.657">
        <ele>446.8</ele>
        <time>2025-12-29T11:17:50Z</time>
      </trkpt>
      <trkpt lat="43.16829" lon="0.657">
        <ele>446.8</ele>
        <time>2025-12-29T11:17:51Z</time>
      </trkpt>
      <trkpt lat="43.16828" lon="0.65701">
        <ele>446.8</ele>
        <time>2025-12-29T11:17:52Z</time>
      </trkpt>
      <trkpt lat="43.16826" lon="0.65701">
        <ele>447.8</ele>
        <time>2025-12-29T11:17:53Z</time>
      </trkpt>
      <trkpt lat="43.16824" lon="0.65701">
        <ele>447.8</ele>
        <time>2025-12-29T11:17:54Z</time>
      </trkpt>
      <trkpt lat="43.16822" lon="0.65701">
        <ele>447.8</ele>
        <time>2025-12-29T11:17:55Z</time>
      </trkpt>
      <trkpt lat="43.16821" lon="0.65701">
        <ele>447.8</ele>
        <time>2025-12-29T11:17:56Z</time>
      </trkpt>
      <trkpt lat="43.16819" lon="0.65701">
        <ele>448.4</ele>
        <time>2025-12-29T11:17:57Z</time>
      </trkpt>
      <trkpt lat="43.16817" lon="0.657">
        <ele>448.2</ele>
        <time>2025-12-29T11:17:58Z</time>
      </trkpt>
      <trkpt lat="43.16816" lon="0.65699">
        <ele>448.2</ele>
        <time>2025-12-29T11:17:59Z</time>
      </trkpt>
      <trkpt lat="43.16815" lon="0.65697">
        <ele>448.2</ele>
        <time>2025-12-29T11:18:00Z</time>
      </trkpt>
      <trkpt lat="43.16814" lon="0.65695">
        <ele>448.2</ele>
        <time>2025-12-29T11:18:01Z</time>
      </trkpt>
      <trkpt lat="43.16813" lon="0.65693">
        <ele>448.2</ele>
        <time>2025-12-29T11:18:02Z</time>
      </trkpt>
      <trkpt lat="43.16813" lon="0.65691">
        <ele>448.2</ele>
        <time>2025-12-29T11:18:03Z</time>
      </trkpt>
      <trkpt lat="43.16812" lon="0.65689">
        <ele>448.2</ele>
        <time>2025-12-29T11:18:04Z</time>
      </trkpt>
      <trkpt lat="43.16812" lon="0.65686">
        <ele>448.2</ele>
        <time>2025-12-29T11:18:05Z</time>
      </trkpt>
      <trkpt lat="43.16812" lon="0.65684">
        <ele>448.8</ele>
        <time>2025-12-29T11:18:06Z</time>
      </trkpt>
      <trkpt lat="43.16811" lon="0.65681">
        <ele>448.8</ele>
        <time>2025-12-29T11:18:07Z</time>
      </trkpt>
      <trkpt lat="43.16811" lon="0.65679">
        <ele>448.8</ele>
        <time>2025-12-29T11:18:08Z</time>
      </trkpt>
      <trkpt lat="43.16811" lon="0.65676">
        <ele>448.8</ele>
        <time>2025-12-29T11:18:09Z</time>
      </trkpt>
      <trkpt lat="43.1681" lon="0.65674">
        <ele>448.6</ele>
        <time>2025-12-29T11:18:10Z</time>
      </trkpt>
      <trkpt lat="43.16809" lon="0.65672">
        <ele>448.6</ele>
        <time>2025-12-29T11:18:11Z</time>
      </trkpt>
      <trkpt lat="43.16808" lon="0.6567">
        <ele>448.6</ele>
        <time>2025-12-29T11:18:12Z</time>
      </trkpt>
      <trkpt lat="43.16807" lon="0.65668">
        <ele>448.6</ele>
        <time>2025-12-29T11:18:13Z</time>
      </trkpt>
      <trkpt lat="43.16805" lon="0.65666">
        <ele>449.2</ele>
        <time>2025-12-29T11:18:14Z</time>
      </trkpt>
      <trkpt lat="43.16804" lon="0.65665">
        <ele>449.2</ele>
        <time>2025-12-29T11:18:15Z</time>
      </trkpt>
      <trkpt lat="43.16802" lon="0.65664">
        <ele>449.2</ele>
        <time>2025-12-29T11:18:16Z</time>
      </trkpt>
      <trkpt lat="43.16801" lon="0.65663">
        <ele>449.2</ele>
        <time>2025-12-29T11:18:17Z</time>
      </trkpt>
      <trkpt lat="43.16799" lon="0.65662">
        <ele>448.2</ele>
        <time>2025-12-29T11:18:18Z</time>
      </trkpt>
      <trkpt lat="43.16797" lon="0.65662">
        <ele>448.2</ele>
        <time>2025-12-29T11:18:19Z</time>
      </trkpt>
      <trkpt lat="43.16796" lon="0.65663">
        <ele>448.2</ele>
        <time>2025-12-29T11:18:20Z</time>
      </trkpt>
      <trkpt lat="43.16794" lon="0.65663">
        <ele>449.2</ele>
        <time>2025-12-29T11:18:21Z</time>
      </trkpt>
      <trkpt lat="43.16792" lon="0.65664">
        <ele>450</ele>
        <time>2025-12-29T11:18:22Z</time>
      </trkpt>
      <trkpt lat="43.16791" lon="0.65664">
        <ele>450</ele>
        <time>2025-12-29T11:18:23Z</time>
      </trkpt>
      <trkpt lat="43.16789" lon="0.65665">
        <ele>450</ele>
        <time>2025-12-29T11:18:24Z</time>
      </trkpt>
      <trkpt lat="43.16787" lon="0.65665">
        <ele>451</ele>
        <time>2025-12-29T11:18:25Z</time>
      </trkpt>
      <trkpt lat="43.16786" lon="0.65666">
        <ele>451.2</ele>
        <time>2025-12-29T11:18:26Z</time>
      </trkpt>
      <trkpt lat="43.16784" lon="0.65666">
        <ele>451.2</ele>
        <time>2025-12-29T11:18:27Z</time>
      </trkpt>
      <trkpt lat="43.16783" lon="0.65667">
        <ele>451.2</ele>
        <time>2025-12-29T11:18:28Z</time>
      </trkpt>
      <trkpt lat="43.16781" lon="0.65667">
        <ele>450.8</ele>
        <time>2025-12-29T11:18:29Z</time>
      </trkpt>
      <trkpt lat="43.1678" lon="0.65668">
        <ele>451</ele>
        <time>2025-12-29T11:18:30Z</time>
      </trkpt>
      <trkpt lat="43.16778" lon="0.65668">
        <ele>451</ele>
        <time>2025-12-29T11:18:31Z</time>
      </trkpt>
      <trkpt lat="43.16777" lon="0.65669">
        <ele>451</ele>
        <time>2025-12-29T11:18:32Z</time>
      </trkpt>
      <trkpt lat="43.16776" lon="0.65669">
        <ele>451</ele>
        <time>2025-12-29T11:18:33Z</time>
      </trkpt>
      <trkpt lat="43.16776" lon="0.65669">
        <ele>450.8</ele>
        <time>2025-12-29T11:18:34Z</time>
      </trkpt>
      <trkpt lat="43.16773" lon="0.6567">
        <ele>450.4</ele>
        <time>2025-12-29T11:22:34Z</time>
      </trkpt>
      <trkpt lat="43.16771" lon="0.65671">
        <ele>450.4</ele>
        <time>2025-12-29T11:22:35Z</time>
      </trkpt>
      <trkpt lat="43.16768" lon="0.65671">
        <ele>450.4</ele>
        <time>2025-12-29T11:22:36Z</time>
      </trkpt>
      <trkpt lat="43.16766" lon="0.65672">
        <ele>450.4</ele>
        <time>2025-12-29T11:22:37Z</time>
      </trkpt>
      <trkpt lat="43.16763" lon="0.65673">
        <ele>449.2</ele>
        <time>2025-12-29T11:22:38Z</time>
      </trkpt>
      <trkpt lat="43.16761" lon="0.65674">
        <ele>449.2</ele>
        <time>2025-12-29T11:22:39Z</time>
      </trkpt>
      <trkpt lat="43.16758" lon="0.65675">
        <ele>449.2</ele>
        <time>2025-12-29T11:22:40Z</time>
      </trkpt>
      <trkpt lat="43.16755" lon="0.65676">
        <ele>449.2</ele>
        <time>2025-12-29T11:22:41Z</time>
      </trkpt>
      <trkpt lat="43.16752" lon="0.65677">
        <ele>449.4</ele>
        <time>2025-12-29T11:22:42Z</time>
      </trkpt>
      <trkpt lat="43.16749" lon="0.65677">
        <ele>449.4</ele>
        <time>2025-12-29T11:22:43Z</time>
      </trkpt>
      <trkpt lat="43.16746" lon="0.65677">
        <ele>449.4</ele>
        <time>2025-12-29T11:22:44Z</time>
      </trkpt>
      <trkpt lat="43.16743" lon="0.65678">
        <ele>448.4</ele>
        <time>2025-12-29T11:22:45Z</time>
      </trkpt>
      <trkpt lat="43.1674" lon="0.65678">
        <ele>447.8</ele>
        <time>2025-12-29T11:22:46Z</time>
      </trkpt>
      <trkpt lat="43.16737" lon="0.65678">
        <ele>447.8</ele>
        <time>2025-12-29T11:22:47Z</time>
      </trkpt>
      <trkpt lat="43.16733" lon="0.65679">
        <ele>447.8</ele>
        <time>2025-12-29T11:22:48Z</time>
      </trkpt>
      <trkpt lat="43.16729" lon="0.65679">
        <ele>446.8</ele>
        <time>2025-12-29T11:22:49Z</time>
      </trkpt>
      <trkpt lat="43.16725" lon="0.65678">
        <ele>444.8</ele>
        <time>2025-12-29T11:22:50Z</time>
      </trkpt>
      <trkpt lat="43.16721" lon="0.65678">
        <ele>444.8</ele>
        <time>2025-12-29T11:22:51Z</time>
      </trkpt>
      <trkpt lat="43.16717" lon="0.65678">
        <ele>444.8</ele>
        <time>2025-12-29T11:22:52Z</time>
      </trkpt>
      <trkpt lat="43.16714" lon="0.65678">
        <ele>445</ele>
        <time>2025-12-29T11:22:53Z</time>
      </trkpt>
      <trkpt lat="43.1671" lon="0.65677">
        <ele>444</ele>
        <time>2025-12-29T11:22:54Z</time>
      </trkpt>
      <trkpt lat="43.16707" lon="0.65677">
        <ele>444</ele>
        <time>2025-12-29T11:22:55Z</time>
      </trkpt>
      <trkpt lat="43.16704" lon="0.65677">
        <ele>444</ele>
        <time>2025-12-29T11:22:56Z</time>
      </trkpt>
      <trkpt lat="43.167" lon="0.65676">
        <ele>444</ele>
        <time>2025-12-29T11:22:57Z</time>
      </trkpt>
      <trkpt lat="43.16697" lon="0.65676">
        <ele>441.8</ele>
        <time>2025-12-29T11:22:58Z</time>
      </trkpt>
      <trkpt lat="43.16694" lon="0.65676">
        <ele>441.8</ele>
        <time>2025-12-29T11:22:59Z</time>
      </trkpt>
      <trkpt lat="43.1669" lon="0.65675">
        <ele>441.8</ele>
        <time>2025-12-29T11:23:00Z</time>
      </trkpt>
      <trkpt lat="43.16687" lon="0.65675">
        <ele>440.8</ele>
        <time>2025-12-29T11:23:01Z</time>
      </trkpt>
      <trkpt lat="43.16684" lon="0.65675">
        <ele>440</ele>
        <time>2025-12-29T11:23:02Z</time>
      </trkpt>
      <trkpt lat="43.1668" lon="0.65675">
        <ele>440</ele>
        <time>2025-12-29T11:23:03Z</time>
      </trkpt>
      <trkpt lat="43.16677" lon="0.65675">
        <ele>440</ele>
        <time>2025-12-29T11:23:04Z</time>
      </trkpt>
      <trkpt lat="43.16673" lon="0.65675">
        <ele>439</ele>
        <time>2025-12-29T11:23:05Z</time>
      </trkpt>
      <trkpt lat="43.16669" lon="0.65675">
        <ele>438.4</ele>
        <time>2025-12-29T11:23:06Z</time>
      </trkpt>
      <trkpt lat="43.16664" lon="0.65676">
        <ele>438.4</ele>
        <time>2025-12-29T11:23:07Z</time>
      </trkpt>
      <trkpt lat="43.1666" lon="0.65676">
        <ele>438.4</ele>
        <time>2025-12-29T11:23:08Z</time>
      </trkpt>
      <trkpt lat="43.16656" lon="0.65676">
        <ele>437.4</ele>
        <time>2025-12-29T11:23:09Z</time>
      </trkpt>
      <trkpt lat="43.16652" lon="0.65676">
        <ele>437.6</ele>
        <time>2025-12-29T11:23:10Z</time>
      </trkpt>
      <trkpt lat="43.16648" lon="0.65676">
        <ele>437.6</ele>
        <time>2025-12-29T11:23:11Z</time>
      </trkpt>
      <trkpt lat="43.16644" lon="0.65677">
        <ele>437.6</ele>
        <time>2025-12-29T11:23:12Z</time>
      </trkpt>
      <trkpt lat="43.16641" lon="0.65677">
        <ele>436.6</ele>
        <time>2025-12-29T11:23:13Z</time>
      </trkpt>
      <trkpt lat="43.16637" lon="0.65677">
        <ele>436.6</ele>
        <time>2025-12-29T11:23:14Z</time>
      </trkpt>
      <trkpt lat="43.16633" lon="0.65678">
        <ele>436.6</ele>
        <time>2025-12-29T11:23:15Z</time>
      </trkpt>
      <trkpt lat="43.16629" lon="0.65678">
        <ele>436.6</ele>
        <time>2025-12-29T11:23:16Z</time>
      </trkpt>
      <trkpt lat="43.16625" lon="0.65678">
        <ele>436</ele>
        <time>2025-12-29T11:23:17Z</time>
      </trkpt>
      <trkpt lat="43.16622" lon="0.65678">
        <ele>434.6</ele>
        <time>2025-12-29T11:23:18Z</time>
      </trkpt>
      <trkpt lat="43.16618" lon="0.65678">
        <ele>434.6</ele>
        <time>2025-12-29T11:23:19Z</time>
      </trkpt>
      <trkpt lat="43.16614" lon="0.65678">
        <ele>434.6</ele>
        <time>2025-12-29T11:23:20Z</time>
      </trkpt>
      <trkpt lat="43.16611" lon="0.65679">
        <ele>434.6</ele>
        <time>2025-12-29T11:23:21Z</time>
      </trkpt>
      <trkpt lat="43.16607" lon="0.65679">
        <ele>433.6</ele>
        <time>2025-12-29T11:23:22Z</time>
      </trkpt>
      <trkpt lat="43.16603" lon="0.65679">
        <ele>433.6</ele>
        <time>2025-12-29T11:23:23Z</time>
      </trkpt>
      <trkpt lat="43.16599" lon="0.65679">
        <ele>433.6</ele>
        <time>2025-12-29T11:23:24Z</time>
      </trkpt>
      <trkpt lat="43.16595" lon="0.6568">
        <ele>432.6</ele>
        <time>2025-12-29T11:23:25Z</time>
      </trkpt>
      <trkpt lat="43.16591" lon="0.6568">
        <ele>433</ele>
        <time>2025-12-29T11:23:26Z</time>
      </trkpt>
      <trkpt lat="43.16586" lon="0.65681">
        <ele>433</ele>
        <time>2025-12-29T11:23:27Z</time>
      </trkpt>
      <trkpt lat="43.16582" lon="0.65681">
        <ele>433</ele>
        <time>2025-12-29T11:23:28Z</time>
      </trkpt>
      <trkpt lat="43.16578" lon="0.65681">
        <ele>432</ele>
        <time>2025-12-29T11:23:29Z</time>
      </trkpt>
      <trkpt lat="43.16574" lon="0.65682">
        <ele>431</ele>
        <time>2025-12-29T11:23:30Z</time>
      </trkpt>
      <trkpt lat="43.1657" lon="0.65682">
        <ele>431</ele>
        <time>2025-12-29T11:23:31Z</time>
      </trkpt>
      <trkpt lat="43.16566" lon="0.65683">
        <ele>431</ele>
        <time>2025-12-29T11:23:32Z</time>
      </trkpt>
      <trkpt lat="43.16562" lon="0.65684">
        <ele>431</ele>
        <time>2025-12-29T11:23:33Z</time>
      </trkpt>
      <trkpt lat="43.16558" lon="0.65684">
        <ele>429.4</ele>
        <time>2025-12-29T11:23:34Z</time>
      </trkpt>
      <trkpt lat="43.16554" lon="0.65685">
        <ele>429.4</ele>
        <time>2025-12-29T11:23:35Z</time>
      </trkpt>
      <trkpt lat="43.16549" lon="0.65686">
        <ele>429.4</ele>
        <time>2025-12-29T11:23:36Z</time>
      </trkpt>
      <trkpt lat="43.16546" lon="0.65687">
        <ele>429.4</ele>
        <time>2025-12-29T11:23:37Z</time>
      </trkpt>
      <trkpt lat="43.16542" lon="0.65688">
        <ele>426.6</ele>
        <time>2025-12-29T11:23:38Z</time>
      </trkpt>
      <trkpt lat="43.16538" lon="0.65689">
        <ele>426.6</ele>
        <time>2025-12-29T11:23:39Z</time>
      </trkpt>
      <trkpt lat="43.16534" lon="0.6569">
        <ele>426.6</ele>
        <time>2025-12-29T11:23:40Z</time>
      </trkpt>
      <trkpt lat="43.16531" lon="0.65691">
        <ele>426.6</ele>
        <time>2025-12-29T11:23:41Z</time>
      </trkpt>
      <trkpt lat="43.16527" lon="0.65692">
        <ele>428.4</ele>
        <time>2025-12-29T11:23:42Z</time>
      </trkpt>
      <trkpt lat="43.16523" lon="0.65692">
        <ele>428.4</ele>
        <time>2025-12-29T11:23:43Z</time>
      </trkpt>
      <trkpt lat="43.16519" lon="0.65693">
        <ele>428.4</ele>
        <time>2025-12-29T11:23:44Z</time>
      </trkpt>
      <trkpt lat="43.16515" lon="0.65694">
        <ele>427.4</ele>
        <time>2025-12-29T11:23:45Z</time>
      </trkpt>
      <trkpt lat="43.16512" lon="0.65695">
        <ele>426.4</ele>
        <time>2025-12-29T11:23:46Z</time>
      </trkpt>
      <trkpt lat="43.16508" lon="0.65696">
        <ele>426.4</ele>
        <time>2025-12-29T11:23:47Z</time>
      </trkpt>
      <trkpt lat="43.16505" lon="0.65697">
        <ele>426.4</ele>
        <time>2025-12-29T11:23:48Z</time>
      </trkpt>
      <trkpt lat="43.16501" lon="0.65698">
        <ele>427.4</ele>
        <time>2025-12-29T11:23:49Z</time>
      </trkpt>
      <trkpt lat="43.16498" lon="0.65699">
        <ele>426.6</ele>
        <time>2025-12-29T11:23:50Z</time>
      </trkpt>
      <trkpt lat="43.16494" lon="0.657">
        <ele>426.6</ele>
        <time>2025-12-29T11:23:51Z</time>
      </trkpt>
      <trkpt lat="43.16491" lon="0.65701">
        <ele>426.6</ele>
        <time>2025-12-29T11:23:52Z</time>
      </trkpt>
      <trkpt lat="43.16487" lon="0.65702">
        <ele>426</ele>
        <time>2025-12-29T11:23:53Z</time>
      </trkpt>
      <trkpt lat="43.16484" lon="0.65703">
        <ele>424</ele>
        <time>2025-12-29T11:23:54Z</time>
      </trkpt>
      <trkpt lat="43.1648" lon="0.65704">
        <ele>424</ele>
        <time>2025-12-29T11:23:55Z</time>
      </trkpt>
      <trkpt lat="43.16477" lon="0.65705">
        <ele>424</ele>
        <time>2025-12-29T11:23:56Z</time>
      </trkpt>
      <trkpt lat="43.16473" lon="0.65706">
        <ele>425</ele>
        <time>2025-12-29T11:23:57Z</time>
      </trkpt>
      <trkpt lat="43.16469" lon="0.65707">
        <ele>424.2</ele>
        <time>2025-12-29T11:23:58Z</time>
      </trkpt>
      <trkpt lat="43.16466" lon="0.65708">
        <ele>424.2</ele>
        <time>2025-12-29T11:23:59Z</time>
      </trkpt>
      <trkpt lat="43.16462" lon="0.6571">
        <ele>424.2</ele>
        <time>2025-12-29T11:24:00Z</time>
      </trkpt>
      <trkpt lat="43.16459" lon="0.65711">
        <ele>424.2</ele>
        <time>2025-12-29T11:24:01Z</time>
      </trkpt>
      <trkpt lat="43.16456" lon="0.65713">
        <ele>422.6</ele>
        <time>2025-12-29T11:24:02Z</time>
      </trkpt>
      <trkpt lat="43.16452" lon="0.65714">
        <ele>422.6</ele>
        <time>2025-12-29T11:24:03Z</time>
      </trkpt>
      <trkpt lat="43.16448" lon="0.65715">
        <ele>422.6</ele>
        <time>2025-12-29T11:24:04Z</time>
      </trkpt>
      <trkpt lat="43.16443" lon="0.65716">
        <ele>422.6</ele>
        <time>2025-12-29T11:24:05Z</time>
      </trkpt>
      <trkpt lat="43.16439" lon="0.65717">
        <ele>421.4</ele>
        <time>2025-12-29T11:24:06Z</time>
      </trkpt>
      <trkpt lat="43.16434" lon="0.65718">
        <ele>421.4</ele>
        <time>2025-12-29T11:24:07Z</time>
      </trkpt>
      <trkpt lat="43.16429" lon="0.65719">
        <ele>421.4</ele>
        <time>2025-12-29T11:24:08Z</time>
      </trkpt>
      <trkpt lat="43.16424" lon="0.65719">
        <ele>421.4</ele>
        <time>2025-12-29T11:24:09Z</time>
      </trkpt>
      <trkpt lat="43.1642" lon="0.6572">
        <ele>421.4</ele>
        <time>2025-12-29T11:24:10Z</time>
      </trkpt>
      <trkpt lat="43.16416" lon="0.6572">
        <ele>421.4</ele>
        <time>2025-12-29T11:24:11Z</time>
      </trkpt>
      <trkpt lat="43.16411" lon="0.65721">
        <ele>421.4</ele>
        <time>2025-12-29T11:24:12Z</time>
      </trkpt>
      <trkpt lat="43.16407" lon="0.65721">
        <ele>420.4</ele>
        <time>2025-12-29T11:24:13Z</time>
      </trkpt>
      <trkpt lat="43.16403" lon="0.65722">
        <ele>419.6</ele>
        <time>2025-12-29T11:24:14Z</time>
      </trkpt>
      <trkpt lat="43.16399" lon="0.65722">
        <ele>419.6</ele>
        <time>2025-12-29T11:24:15Z</time>
      </trkpt>
      <trkpt lat="43.16394" lon="0.65722">
        <ele>419.6</ele>
        <time>2025-12-29T11:24:16Z</time>
      </trkpt>
      <trkpt lat="43.1639" lon="0.65722">
        <ele>419</ele>
        <time>2025-12-29T11:24:17Z</time>
      </trkpt>
      <trkpt lat="43.16386" lon="0.65723">
        <ele>417</ele>
        <time>2025-12-29T11:24:18Z</time>
      </trkpt>
      <trkpt lat="43.16383" lon="0.65724">
        <ele>417</ele>
        <time>2025-12-29T11:24:19Z</time>
      </trkpt>
      <trkpt lat="43.16379" lon="0.65725">
        <ele>417</ele>
        <time>2025-12-29T11:24:20Z</time>
      </trkpt>
      <trkpt lat="43.16375" lon="0.65725">
        <ele>417</ele>
        <time>2025-12-29T11:24:21Z</time>
      </trkpt>
      <trkpt lat="43.16372" lon="0.65726">
        <ele>418.2</ele>
        <time>2025-12-29T11:24:22Z</time>
      </trkpt>
      <trkpt lat="43.16369" lon="0.65726">
        <ele>418.2</ele>
        <time>2025-12-29T11:24:23Z</time>
      </trkpt>
      <trkpt lat="43.16366" lon="0.65727">
        <ele>418.2</ele>
        <time>2025-12-29T11:24:24Z</time>
      </trkpt>
      <trkpt lat="43.16363" lon="0.65727">
        <ele>417.2</ele>
        <time>2025-12-29T11:24:25Z</time>
      </trkpt>
      <trkpt lat="43.1636" lon="0.65727">
        <ele>417.4</ele>
        <time>2025-12-29T11:24:26Z</time>
      </trkpt>
      <trkpt lat="43.16358" lon="0.65726">
        <ele>417.4</ele>
        <time>2025-12-29T11:24:27Z</time>
      </trkpt>
      <trkpt lat="43.16356" lon="0.65724">
        <ele>417.4</ele>
        <time>2025-12-29T11:24:28Z</time>
      </trkpt>
      <trkpt lat="43.16354" lon="0.65721">
        <ele>417</ele>
        <time>2025-12-29T11:24:29Z</time>
      </trkpt>
      <trkpt lat="43.16354" lon="0.65718">
        <ele>417.2</ele>
        <time>2025-12-29T11:24:30Z</time>
      </trkpt>
      <trkpt lat="43.16353" lon="0.65715">
        <ele>417.2</ele>
        <time>2025-12-29T11:24:31Z</time>
      </trkpt>
      <trkpt lat="43.16352" lon="0.65712">
        <ele>417.2</ele>
        <time>2025-12-29T11:24:32Z</time>
      </trkpt>
      <trkpt lat="43.16351" lon="0.65708">
        <ele>417.2</ele>
        <time>2025-12-29T11:24:33Z</time>
      </trkpt>
      <trkpt lat="43.16351" lon="0.65705">
        <ele>416.6</ele>
        <time>2025-12-29T11:24:34Z</time>
      </trkpt>
      <trkpt lat="43.1635" lon="0.65701">
        <ele>416.6</ele>
        <time>2025-12-29T11:24:35Z</time>
      </trkpt>
      <trkpt lat="43.16349" lon="0.65698">
        <ele>416.6</ele>
        <time>2025-12-29T11:24:36Z</time>
      </trkpt>
      <trkpt lat="43.16349" lon="0.65694">
        <ele>417.6</ele>
        <time>2025-12-29T11:24:37Z</time>
      </trkpt>
      <trkpt lat="43.16348" lon="0.6569">
        <ele>416.8</ele>
        <time>2025-12-29T11:24:38Z</time>
      </trkpt>
      <trkpt lat="43.16347" lon="0.65687">
        <ele>416.8</ele>
        <time>2025-12-29T11:24:39Z</time>
      </trkpt>
      <trkpt lat="43.16346" lon="0.65683">
        <ele>416.8</ele>
        <time>2025-12-29T11:24:40Z</time>
      </trkpt>
      <trkpt lat="43.16346" lon="0.65679">
        <ele>416.8</ele>
        <time>2025-12-29T11:24:41Z</time>
      </trkpt>
      <trkpt lat="43.16345" lon="0.65675">
        <ele>417</ele>
        <time>2025-12-29T11:24:42Z</time>
      </trkpt>
      <trkpt lat="43.16344" lon="0.65671">
        <ele>417</ele>
        <time>2025-12-29T11:24:43Z</time>
      </trkpt>
      <trkpt lat="43.16344" lon="0.65667">
        <ele>417</ele>
        <time>2025-12-29T11:24:44Z</time>
      </trkpt>
      <trkpt lat="43.16343" lon="0.65663">
        <ele>417</ele>
        <time>2025-12-29T11:24:45Z</time>
      </trkpt>
      <trkpt lat="43.16343" lon="0.6566">
        <ele>417.2</ele>
        <time>2025-12-29T11:24:46Z</time>
      </trkpt>
      <trkpt lat="43.16342" lon="0.65656">
        <ele>417.2</ele>
        <time>2025-12-29T11:24:47Z</time>
      </trkpt>
      <trkpt lat="43.16341" lon="0.65652">
        <ele>417.2</ele>
        <time>2025-12-29T11:24:48Z</time>
      </trkpt>
      <trkpt lat="43.16341" lon="0.65648">
        <ele>417.2</ele>
        <time>2025-12-29T11:24:49Z</time>
      </trkpt>
      <trkpt lat="43.1634" lon="0.65644">
        <ele>416.4</ele>
        <time>2025-12-29T11:24:50Z</time>
      </trkpt>
      <trkpt lat="43.1634" lon="0.65641">
        <ele>416.4</ele>
        <time>2025-12-29T11:24:51Z</time>
      </trkpt>
      <trkpt lat="43.1634" lon="0.65637">
        <ele>416.4</ele>
        <time>2025-12-29T11:24:52Z</time>
      </trkpt>
      <trkpt lat="43.16339" lon="0.65633">
        <ele>416.4</ele>
        <time>2025-12-29T11:24:53Z</time>
      </trkpt>
      <trkpt lat="43.16339" lon="0.65629">
        <ele>417.4</ele>
        <time>2025-12-29T11:24:54Z</time>
      </trkpt>
      <trkpt lat="43.16338" lon="0.65625">
        <ele>417.4</ele>
        <time>2025-12-29T11:24:55Z</time>
      </trkpt>
      <trkpt lat="43.16337" lon="0.65621">
        <ele>417.4</ele>
        <time>2025-12-29T11:24:56Z</time>
      </trkpt>
      <trkpt lat="43.16336" lon="0.65617">
        <ele>417.4</ele>
        <time>2025-12-29T11:24:57Z</time>
      </trkpt>
      <trkpt lat="43.16335" lon="0.65613">
        <ele>418</ele>
        <time>2025-12-29T11:24:58Z</time>
      </trkpt>
      <trkpt lat="43.16334" lon="0.65608">
        <ele>418</ele>
        <time>2025-12-29T11:24:59Z</time>
      </trkpt>
      <trkpt lat="43.16333" lon="0.65603">
        <ele>418</ele>
        <time>2025-12-29T11:25:00Z</time>
      </trkpt>
      <trkpt lat="43.16332" lon="0.65599">
        <ele>417</ele>
        <time>2025-12-29T11:25:01Z</time>
      </trkpt>
      <trkpt lat="43.16331" lon="0.65594">
        <ele>417.4</ele>
        <time>2025-12-29T11:25:02Z</time>
      </trkpt>
      <trkpt lat="43.16329" lon="0.65589">
        <ele>417.4</ele>
        <time>2025-12-29T11:25:03Z</time>
      </trkpt>
      <trkpt lat="43.16328" lon="0.65585">
        <ele>417.4</ele>
        <time>2025-12-29T11:25:04Z</time>
      </trkpt>
      <trkpt lat="43.16327" lon="0.6558">
        <ele>418.2</ele>
        <time>2025-12-29T11:25:05Z</time>
      </trkpt>
      <trkpt lat="43.16325" lon="0.65575">
        <ele>417.2</ele>
        <time>2025-12-29T11:25:06Z</time>
      </trkpt>
      <trkpt lat="43.16324" lon="0.6557">
        <ele>417.2</ele>
        <time>2025-12-29T11:25:07Z</time>
      </trkpt>
      <trkpt lat="43.16323" lon="0.65565">
        <ele>417.2</ele>
        <time>2025-12-29T11:25:08Z</time>
      </trkpt>
      <trkpt lat="43.16321" lon="0.6556">
        <ele>416.8</ele>
        <time>2025-12-29T11:25:09Z</time>
      </trkpt>
      <trkpt lat="43.16319" lon="0.65554">
        <ele>416.6</ele>
        <time>2025-12-29T11:25:10Z</time>
      </trkpt>
      <trkpt lat="43.16318" lon="0.65548">
        <ele>416.6</ele>
        <time>2025-12-29T11:25:11Z</time>
      </trkpt>
      <trkpt lat="43.16317" lon="0.65543">
        <ele>416.6</ele>
        <time>2025-12-29T11:25:12Z</time>
      </trkpt>
      <trkpt lat="43.16315" lon="0.65537">
        <ele>416.6</ele>
        <time>2025-12-29T11:25:13Z</time>
      </trkpt>
      <trkpt lat="43.16314" lon="0.65531">
        <ele>416.8</ele>
        <time>2025-12-29T11:25:14Z</time>
      </trkpt>
      <trkpt lat="43.16312" lon="0.65525">
        <ele>416.8</ele>
        <time>2025-12-29T11:25:15Z</time>
      </trkpt>
      <trkpt lat="43.16311" lon="0.65518">
        <ele>416.8</ele>
        <time>2025-12-29T11:25:16Z</time>
      </trkpt>
      <trkpt lat="43.1631" lon="0.65512">
        <ele>415.8</ele>
        <time>2025-12-29T11:25:17Z</time>
      </trkpt>
      <trkpt lat="43.16308" lon="0.65506">
        <ele>415.2</ele>
        <time>2025-12-29T11:25:18Z</time>
      </trkpt>
      <trkpt lat="43.16307" lon="0.655">
        <ele>415.2</ele>
        <time>2025-12-29T11:25:19Z</time>
      </trkpt>
      <trkpt lat="43.16306" lon="0.65494">
        <ele>415.2</ele>
        <time>2025-12-29T11:25:20Z</time>
      </trkpt>
      <trkpt lat="43.16305" lon="0.65488">
        <ele>415.4</ele>
        <time>2025-12-29T11:25:21Z</time>
      </trkpt>
      <trkpt lat="43.16304" lon="0.65482">
        <ele>415.6</ele>
        <time>2025-12-29T11:25:22Z</time>
      </trkpt>
      <trkpt lat="43.16304" lon="0.65476">
        <ele>415.6</ele>
        <time>2025-12-29T11:25:23Z</time>
      </trkpt>
      <trkpt lat="43.16303" lon="0.6547">
        <ele>415.6</ele>
        <time>2025-12-29T11:25:24Z</time>
      </trkpt>
      <trkpt lat="43.16302" lon="0.65465">
        <ele>415.6</ele>
        <time>2025-12-29T11:25:25Z</time>
      </trkpt>
      <trkpt lat="43.16302" lon="0.65459">
        <ele>415</ele>
        <time>2025-12-29T11:25:26Z</time>
      </trkpt>
      <trkpt lat="43.16301" lon="0.65453">
        <ele>415</ele>
        <time>2025-12-29T11:25:27Z</time>
      </trkpt>
      <trkpt lat="43.163" lon="0.65447">
        <ele>415</ele>
        <time>2025-12-29T11:25:28Z</time>
      </trkpt>
      <trkpt lat="43.16299" lon="0.65441">
        <ele>415</ele>
        <time>2025-12-29T11:25:29Z</time>
      </trkpt>
      <trkpt lat="43.16298" lon="0.65434">
        <ele>413.8</ele>
        <time>2025-12-29T11:25:30Z</time>
      </trkpt>
      <trkpt lat="43.16298" lon="0.65428">
        <ele>413.8</ele>
        <time>2025-12-29T11:25:31Z</time>
      </trkpt>
      <trkpt lat="43.16297" lon="0.65421">
        <ele>413.8</ele>
        <time>2025-12-29T11:25:32Z</time>
      </trkpt>
      <trkpt lat="43.16297" lon="0.65415">
        <ele>414.4</ele>
        <time>2025-12-29T11:25:33Z</time>
      </trkpt>
      <trkpt lat="43.16296" lon="0.65408">
        <ele>415.4</ele>
        <time>2025-12-29T11:25:34Z</time>
      </trkpt>
      <trkpt lat="43.16295" lon="0.65402">
        <ele>415.4</ele>
        <time>2025-12-29T11:25:35Z</time>
      </trkpt>
      <trkpt lat="43.16294" lon="0.65395">
        <ele>415.4</ele>
        <time>2025-12-29T11:25:36Z</time>
      </trkpt>
      <trkpt lat="43.16294" lon="0.65389">
        <ele>414.4</ele>
        <time>2025-12-29T11:25:37Z</time>
      </trkpt>
      <trkpt lat="43.16293" lon="0.65383">
        <ele>413.4</ele>
        <time>2025-12-29T11:25:38Z</time>
      </trkpt>
      <trkpt lat="43.16292" lon="0.65376">
        <ele>413.4</ele>
        <time>2025-12-29T11:25:39Z</time>
      </trkpt>
      <trkpt lat="43.16292" lon="0.6537">
        <ele>413.4</ele>
        <time>2025-12-29T11:25:40Z</time>
      </trkpt>
      <trkpt lat="43.16291" lon="0.65363">
        <ele>414.4</ele>
        <time>2025-12-29T11:25:41Z</time>
      </trkpt>
      <trkpt lat="43.1629" lon="0.65357">
        <ele>413.8</ele>
        <time>2025-12-29T11:25:42Z</time>
      </trkpt>
      <trkpt lat="43.1629" lon="0.6535">
        <ele>413.8</ele>
        <time>2025-12-29T11:25:43Z</time>
      </trkpt>
      <trkpt lat="43.16289" lon="0.65344">
        <ele>413.8</ele>
        <time>2025-12-29T11:25:44Z</time>
      </trkpt>
      <trkpt lat="43.16288" lon="0.65337">
        <ele>413.8</ele>
        <time>2025-12-29T11:25:45Z</time>
      </trkpt>
      <trkpt lat="43.16288" lon="0.65331">
        <ele>413.8</ele>
        <time>2025-12-29T11:25:46Z</time>
      </trkpt>
      <trkpt lat="43.16287" lon="0.65324">
        <ele>413.8</ele>
        <time>2025-12-29T11:25:47Z</time>
      </trkpt>
      <trkpt lat="43.16286" lon="0.65318">
        <ele>413.8</ele>
        <time>2025-12-29T11:25:48Z</time>
      </trkpt>
      <trkpt lat="43.16286" lon="0.65312">
        <ele>413.8</ele>
        <time>2025-12-29T11:25:49Z</time>
      </trkpt>
      <trkpt lat="43.16285" lon="0.65306">
        <ele>414.2</ele>
        <time>2025-12-29T11:25:50Z</time>
      </trkpt>
      <trkpt lat="43.16284" lon="0.653">
        <ele>414.2</ele>
        <time>2025-12-29T11:25:51Z</time>
      </trkpt>
      <trkpt lat="43.16283" lon="0.65293">
        <ele>414.2</ele>
        <time>2025-12-29T11:25:52Z</time>
      </trkpt>
      <trkpt lat="43.16283" lon="0.65287">
        <ele>413.8</ele>
        <time>2025-12-29T11:25:53Z</time>
      </trkpt>
      <trkpt lat="43.16282" lon="0.65281">
        <ele>413</ele>
        <time>2025-12-29T11:25:54Z</time>
      </trkpt>
      <trkpt lat="43.16281" lon="0.65275">
        <ele>413</ele>
        <time>2025-12-29T11:25:55Z</time>
      </trkpt>
      <trkpt lat="43.1628" lon="0.65269">
        <ele>413</ele>
        <time>2025-12-29T11:25:56Z</time>
      </trkpt>
      <trkpt lat="43.1628" lon="0.65263">
        <ele>413</ele>
        <time>2025-12-29T11:25:57Z</time>
      </trkpt>
      <trkpt lat="43.16279" lon="0.65257">
        <ele>414.8</ele>
        <time>2025-12-29T11:25:58Z</time>
      </trkpt>
      <trkpt lat="43.16278" lon="0.65251">
        <ele>414.8</ele>
        <time>2025-12-29T11:25:59Z</time>
      </trkpt>
      <trkpt lat="43.16277" lon="0.65245">
        <ele>414.8</ele>
        <time>2025-12-29T11:26:00Z</time>
      </trkpt>
      <trkpt lat="43.16277" lon="0.65239">
        <ele>414.6</ele>
        <time>2025-12-29T11:26:01Z</time>
      </trkpt>
      <trkpt lat="43.16276" lon="0.65233">
        <ele>414.4</ele>
        <time>2025-12-29T11:26:02Z</time>
      </trkpt>
      <trkpt lat="43.16275" lon="0.65227">
        <ele>414.4</ele>
        <time>2025-12-29T11:26:03Z</time>
      </trkpt>
      <trkpt lat="43.16274" lon="0.65221">
        <ele>414.4</ele>
        <time>2025-12-29T11:26:04Z</time>
      </trkpt>
      <trkpt lat="43.16273" lon="0.65216">
        <ele>414.4</ele>
        <time>2025-12-29T11:26:05Z</time>
      </trkpt>
      <trkpt lat="43.16273" lon="0.6521">
        <ele>414.2</ele>
        <time>2025-12-29T11:26:06Z</time>
      </trkpt>
      <trkpt lat="43.16271" lon="0.65204">
        <ele>414.2</ele>
        <time>2025-12-29T11:26:07Z</time>
      </trkpt>
      <trkpt lat="43.1627" lon="0.65198">
        <ele>414.2</ele>
        <time>2025-12-29T11:26:08Z</time>
      </trkpt>
      <trkpt lat="43.16269" lon="0.65192">
        <ele>414.2</ele>
        <time>2025-12-29T11:26:09Z</time>
      </trkpt>
      <trkpt lat="43.16268" lon="0.65186">
        <ele>414.6</ele>
        <time>2025-12-29T11:26:10Z</time>
      </trkpt>
      <trkpt lat="43.16267" lon="0.6518">
        <ele>414.6</ele>
        <time>2025-12-29T11:26:11Z</time>
      </trkpt>
      <trkpt lat="43.16266" lon="0.65174">
        <ele>414.6</ele>
        <time>2025-12-29T11:26:12Z</time>
      </trkpt>
      <trkpt lat="43.16264" lon="0.65167">
        <ele>413.8</ele>
        <time>2025-12-29T11:26:13Z</time>
      </trkpt>
      <trkpt lat="43.16263" lon="0.65161">
        <ele>413</ele>
        <time>2025-12-29T11:26:14Z</time>
      </trkpt>
      <trkpt lat="43.16262" lon="0.65154">
        <ele>413</ele>
        <time>2025-12-29T11:26:15Z</time>
      </trkpt>
      <trkpt lat="43.1626" lon="0.65147">
        <ele>413</ele>
        <time>2025-12-29T11:26:16Z</time>
      </trkpt>
      <trkpt lat="43.16259" lon="0.6514">
        <ele>413</ele>
        <time>2025-12-29T11:26:17Z</time>
      </trkpt>
      <trkpt lat="43.16257" lon="0.65133">
        <ele>412.8</ele>
        <time>2025-12-29T11:26:18Z</time>
      </trkpt>
      <trkpt lat="43.16256" lon="0.65126">
        <ele>412.8</ele>
        <time>2025-12-29T11:26:19Z</time>
      </trkpt>
      <trkpt lat="43.16254" lon="0.65119">
        <ele>412.8</ele>
        <time>2025-12-29T11:26:20Z</time>
      </trkpt>
      <trkpt lat="43.16253" lon="0.65111">
        <ele>412.8</ele>
        <time>2025-12-29T11:26:21Z</time>
      </trkpt>
      <trkpt lat="43.16251" lon="0.65104">
        <ele>411.2</ele>
        <time>2025-12-29T11:26:22Z</time>
      </trkpt>
      <trkpt lat="43.16249" lon="0.65096">
        <ele>411.2</ele>
        <time>2025-12-29T11:26:23Z</time>
      </trkpt>
      <trkpt lat="43.16247" lon="0.65088">
        <ele>411.2</ele>
        <time>2025-12-29T11:26:24Z</time>
      </trkpt>
      <trkpt lat="43.16245" lon="0.6508">
        <ele>410.2</ele>
        <time>2025-12-29T11:26:25Z</time>
      </trkpt>
      <trkpt lat="43.16242" lon="0.65072">
        <ele>410.6</ele>
        <time>2025-12-29T11:26:26Z</time>
      </trkpt>
      <trkpt lat="43.16239" lon="0.65064">
        <ele>410.6</ele>
        <time>2025-12-29T11:26:27Z</time>
      </trkpt>
      <trkpt lat="43.16237" lon="0.65056">
        <ele>410.6</ele>
        <time>2025-12-29T11:26:28Z</time>
      </trkpt>
      <trkpt lat="43.16234" lon="0.65048">
        <ele>410.6</ele>
        <time>2025-12-29T11:26:29Z</time>
      </trkpt>
      <trkpt lat="43.16231" lon="0.6504">
        <ele>410.8</ele>
        <time>2025-12-29T11:26:30Z</time>
      </trkpt>
      <trkpt lat="43.16228" lon="0.65033">
        <ele>410.8</ele>
        <time>2025-12-29T11:26:31Z</time>
      </trkpt>
      <trkpt lat="43.16225" lon="0.65026">
        <ele>410.8</ele>
        <time>2025-12-29T11:26:32Z</time>
      </trkpt>
      <trkpt lat="43.16222" lon="0.65018">
        <ele>410.8</ele>
        <time>2025-12-29T11:26:33Z</time>
      </trkpt>
      <trkpt lat="43.16219" lon="0.65011">
        <ele>410.6</ele>
        <time>2025-12-29T11:26:34Z</time>
      </trkpt>
      <trkpt lat="43.16216" lon="0.65004">
        <ele>410.6</ele>
        <time>2025-12-29T11:26:35Z</time>
      </trkpt>
      <trkpt lat="43.16213" lon="0.64997">
        <ele>410.6</ele>
        <time>2025-12-29T11:26:36Z</time>
      </trkpt>
      <trkpt lat="43.1621" lon="0.64991">
        <ele>411.2</ele>
        <time>2025-12-29T11:26:37Z</time>
      </trkpt>
      <trkpt lat="43.16206" lon="0.64984">
        <ele>410.8</ele>
        <time>2025-12-29T11:26:38Z</time>
      </trkpt>
      <trkpt lat="43.16203" lon="0.64977">
        <ele>410.8</ele>
        <time>2025-12-29T11:26:39Z</time>
      </trkpt>
      <trkpt lat="43.162" lon="0.64971">
        <ele>410.8</ele>
        <time>2025-12-29T11:26:40Z</time>
      </trkpt>
      <trkpt lat="43.16198" lon="0.64964">
        <ele>410.8</ele>
        <time>2025-12-29T11:26:41Z</time>
      </trkpt>
      <trkpt lat="43.16195" lon="0.64958">
        <ele>411</ele>
        <time>2025-12-29T11:26:42Z</time>
      </trkpt>
      <trkpt lat="43.16192" lon="0.64951">
        <ele>411</ele>
        <time>2025-12-29T11:26:43Z</time>
      </trkpt>
      <trkpt lat="43.1619" lon="0.64945">
        <ele>411</ele>
        <time>2025-12-29T11:26:44Z</time>
      </trkpt>
      <trkpt lat="43.16189" lon="0.64938">
        <ele>411</ele>
        <time>2025-12-29T11:26:45Z</time>
      </trkpt>
      <trkpt lat="43.16187" lon="0.64932">
        <ele>412.4</ele>
        <time>2025-12-29T11:26:46Z</time>
      </trkpt>
      <trkpt lat="43.16185" lon="0.64926">
        <ele>412.4</ele>
        <time>2025-12-29T11:26:47Z</time>
      </trkpt>
      <trkpt lat="43.16184" lon="0.6492">
        <ele>412.4</ele>
        <time>2025-12-29T11:26:48Z</time>
      </trkpt>
      <trkpt lat="43.16183" lon="0.64914">
        <ele>411.8</ele>
        <time>2025-12-29T11:26:49Z</time>
      </trkpt>
      <trkpt lat="43.16181" lon="0.64908">
        <ele>412.6</ele>
        <time>2025-12-29T11:26:50Z</time>
      </trkpt>
      <trkpt lat="43.1618" lon="0.64902">
        <ele>412.6</ele>
        <time>2025-12-29T11:26:51Z</time>
      </trkpt>
      <trkpt lat="43.16178" lon="0.64896">
        <ele>412.6</ele>
        <time>2025-12-29T11:26:52Z</time>
      </trkpt>
      <trkpt lat="43.16176" lon="0.6489">
        <ele>412.6</ele>
        <time>2025-12-29T11:26:53Z</time>
      </trkpt>
      <trkpt lat="43.16175" lon="0.64884">
        <ele>414</ele>
        <time>2025-12-29T11:26:54Z</time>
      </trkpt>
      <trkpt lat="43.16173" lon="0.64879">
        <ele>414</ele>
        <time>2025-12-29T11:26:55Z</time>
      </trkpt>
      <trkpt lat="43.16171" lon="0.64873">
        <ele>414</ele>
        <time>2025-12-29T11:26:56Z</time>
      </trkpt>
      <trkpt lat="43.16169" lon="0.64868">
        <ele>413.8</ele>
        <time>2025-12-29T11:26:57Z</time>
      </trkpt>
      <trkpt lat="43.16167" lon="0.64863">
        <ele>413.4</ele>
        <time>2025-12-29T11:26:58Z</time>
      </trkpt>
      <trkpt lat="43.16165" lon="0.64857">
        <ele>413.4</ele>
        <time>2025-12-29T11:26:59Z</time>
      </trkpt>
      <trkpt lat="43.16163" lon="0.64852">
        <ele>413.4</ele>
        <time>2025-12-29T11:27:00Z</time>
      </trkpt>
      <trkpt lat="43.16161" lon="0.64846">
        <ele>413.2</ele>
        <time>2025-12-29T11:27:01Z</time>
      </trkpt>
      <trkpt lat="43.16159" lon="0.64841">
        <ele>412.8</ele>
        <time>2025-12-29T11:27:02Z</time>
      </trkpt>
      <trkpt lat="43.16158" lon="0.64835">
        <ele>412.8</ele>
        <time>2025-12-29T11:27:03Z</time>
      </trkpt>
      <trkpt lat="43.16156" lon="0.6483">
        <ele>412.8</ele>
        <time>2025-12-29T11:27:04Z</time>
      </trkpt>
      <trkpt lat="43.16154" lon="0.64824">
        <ele>412.8</ele>
        <time>2025-12-29T11:27:05Z</time>
      </trkpt>
      <trkpt lat="43.16152" lon="0.64819">
        <ele>413</ele>
        <time>2025-12-29T11:27:06Z</time>
      </trkpt>
      <trkpt lat="43.1615" lon="0.64813">
        <ele>413</ele>
        <time>2025-12-29T11:27:07Z</time>
      </trkpt>
      <trkpt lat="43.16148" lon="0.64808">
        <ele>413</ele>
        <time>2025-12-29T11:27:08Z</time>
      </trkpt>
      <trkpt lat="43.16146" lon="0.64802">
        <ele>413</ele>
        <time>2025-12-29T11:27:09Z</time>
      </trkpt>
      <trkpt lat="43.16144" lon="0.64797">
        <ele>413.6</ele>
        <time>2025-12-29T11:27:10Z</time>
      </trkpt>
      <trkpt lat="43.16142" lon="0.64791">
        <ele>413.6</ele>
        <time>2025-12-29T11:27:11Z</time>
      </trkpt>
      <trkpt lat="43.1614" lon="0.64785">
        <ele>413.6</ele>
        <time>2025-12-29T11:27:12Z</time>
      </trkpt>
      <trkpt lat="43.16139" lon="0.6478">
        <ele>413.4</ele>
        <time>2025-12-29T11:27:13Z</time>
      </trkpt>
      <trkpt lat="43.16137" lon="0.64774">
        <ele>412.8</ele>
        <time>2025-12-29T11:27:14Z</time>
      </trkpt>
      <trkpt lat="43.16135" lon="0.64769">
        <ele>412.8</ele>
        <time>2025-12-29T11:27:15Z</time>
      </trkpt>
      <trkpt lat="43.16133" lon="0.64763">
        <ele>412.8</ele>
        <time>2025-12-29T11:27:16Z</time>
      </trkpt>
      <trkpt lat="43.1613" lon="0.64758">
        <ele>413</ele>
        <time>2025-12-29T11:27:17Z</time>
      </trkpt>
      <trkpt lat="43.16128" lon="0.64752">
        <ele>412.8</ele>
        <time>2025-12-29T11:27:18Z</time>
      </trkpt>
      <trkpt lat="43.16126" lon="0.64746">
        <ele>412.8</ele>
        <time>2025-12-29T11:27:19Z</time>
      </trkpt>
      <trkpt lat="43.16124" lon="0.6474">
        <ele>412.8</ele>
        <time>2025-12-29T11:27:20Z</time>
      </trkpt>
      <trkpt lat="43.16122" lon="0.64734">
        <ele>412.8</ele>
        <time>2025-12-29T11:27:21Z</time>
      </trkpt>
      <trkpt lat="43.1612" lon="0.64728">
        <ele>412.4</ele>
        <time>2025-12-29T11:27:22Z</time>
      </trkpt>
      <trkpt lat="43.16118" lon="0.64722">
        <ele>412.4</ele>
        <time>2025-12-29T11:27:23Z</time>
      </trkpt>
      <trkpt lat="43.16116" lon="0.64716">
        <ele>412.4</ele>
        <time>2025-12-29T11:27:24Z</time>
      </trkpt>
      <trkpt lat="43.16113" lon="0.64709">
        <ele>412.4</ele>
        <time>2025-12-29T11:27:25Z</time>
      </trkpt>
      <trkpt lat="43.16111" lon="0.64703">
        <ele>412</ele>
        <time>2025-12-29T11:27:26Z</time>
      </trkpt>
      <trkpt lat="43.16109" lon="0.64697">
        <ele>412</ele>
        <time>2025-12-29T11:27:27Z</time>
      </trkpt>
      <trkpt lat="43.16107" lon="0.6469">
        <ele>412</ele>
        <time>2025-12-29T11:27:28Z</time>
      </trkpt>
      <trkpt lat="43.16104" lon="0.64684">
        <ele>412</ele>
        <time>2025-12-29T11:27:29Z</time>
      </trkpt>
      <trkpt lat="43.16102" lon="0.64677">
        <ele>412.8</ele>
        <time>2025-12-29T11:27:30Z</time>
      </trkpt>
      <trkpt lat="43.161" lon="0.64671">
        <ele>412.8</ele>
        <time>2025-12-29T11:27:31Z</time>
      </trkpt>
      <trkpt lat="43.16098" lon="0.64664">
        <ele>412.8</ele>
        <time>2025-12-29T11:27:32Z</time>
      </trkpt>
      <trkpt lat="43.16096" lon="0.64658">
        <ele>412.4</ele>
        <time>2025-12-29T11:27:33Z</time>
      </trkpt>
      <trkpt lat="43.16094" lon="0.64651">
        <ele>412</ele>
        <time>2025-12-29T11:27:34Z</time>
      </trkpt>
      <trkpt lat="43.16093" lon="0.64645">
        <ele>412</ele>
        <time>2025-12-29T11:27:35Z</time>
      </trkpt>
      <trkpt lat="43.16091" lon="0.64638">
        <ele>412</ele>
        <time>2025-12-29T11:27:36Z</time>
      </trkpt>
      <trkpt lat="43.16089" lon="0.64632">
        <ele>412</ele>
        <time>2025-12-29T11:27:37Z</time>
      </trkpt>
      <trkpt lat="43.16088" lon="0.64626">
        <ele>412.4</ele>
        <time>2025-12-29T11:27:38Z</time>
      </trkpt>
      <trkpt lat="43.16086" lon="0.6462">
        <ele>412.4</ele>
        <time>2025-12-29T11:27:39Z</time>
      </trkpt>
      <trkpt lat="43.16084" lon="0.64613">
        <ele>412.4</ele>
        <time>2025-12-29T11:27:40Z</time>
      </trkpt>
      <trkpt lat="43.16083" lon="0.64607">
        <ele>412.4</ele>
        <time>2025-12-29T11:27:41Z</time>
      </trkpt>
      <trkpt lat="43.16081" lon="0.64601">
        <ele>411.2</ele>
        <time>2025-12-29T11:27:42Z</time>
      </trkpt>
      <trkpt lat="43.1608" lon="0.64594">
        <ele>411.2</ele>
        <time>2025-12-29T11:27:43Z</time>
      </trkpt>
      <trkpt lat="43.16078" lon="0.64588">
        <ele>411.2</ele>
        <time>2025-12-29T11:27:44Z</time>
      </trkpt>
      <trkpt lat="43.16076" lon="0.64582">
        <ele>412.2</ele>
        <time>2025-12-29T11:27:45Z</time>
      </trkpt>
      <trkpt lat="43.16075" lon="0.64575">
        <ele>411.6</ele>
        <time>2025-12-29T11:27:46Z</time>
      </trkpt>
      <trkpt lat="43.16073" lon="0.64569">
        <ele>411.6</ele>
        <time>2025-12-29T11:27:47Z</time>
      </trkpt>
      <trkpt lat="43.16072" lon="0.64563">
        <ele>411.6</ele>
        <time>2025-12-29T11:27:48Z</time>
      </trkpt>
      <trkpt lat="43.1607" lon="0.64556">
        <ele>411.6</ele>
        <time>2025-12-29T11:27:49Z</time>
      </trkpt>
      <trkpt lat="43.16068" lon="0.6455">
        <ele>412.2</ele>
        <time>2025-12-29T11:27:50Z</time>
      </trkpt>
      <trkpt lat="43.16067" lon="0.64544">
        <ele>412.2</ele>
        <time>2025-12-29T11:27:51Z</time>
      </trkpt>
      <trkpt lat="43.16065" lon="0.64538">
        <ele>412.2</ele>
        <time>2025-12-29T11:27:52Z</time>
      </trkpt>
      <trkpt lat="43.16063" lon="0.64532">
        <ele>412.2</ele>
        <time>2025-12-29T11:27:53Z</time>
      </trkpt>
      <trkpt lat="43.16062" lon="0.64526">
        <ele>411.8</ele>
        <time>2025-12-29T11:27:54Z</time>
      </trkpt>
      <trkpt lat="43.1606" lon="0.64519">
        <ele>411.8</ele>
        <time>2025-12-29T11:27:55Z</time>
      </trkpt>
      <trkpt lat="43.16058" lon="0.64513">
        <ele>411.8</ele>
        <time>2025-12-29T11:27:56Z</time>
      </trkpt>
      <trkpt lat="43.16057" lon="0.64507">
        <ele>412.4</ele>
        <time>2025-12-29T11:27:57Z</time>
      </trkpt>
      <trkpt lat="43.16055" lon="0.64501">
        <ele>412.4</ele>
        <time>2025-12-29T11:27:58Z</time>
      </trkpt>
      <trkpt lat="43.16054" lon="0.64495">
        <ele>412.4</ele>
        <time>2025-12-29T11:27:59Z</time>
      </trkpt>
      <trkpt lat="43.16052" lon="0.64489">
        <ele>412.4</ele>
        <time>2025-12-29T11:28:00Z</time>
      </trkpt>
      <trkpt lat="43.16051" lon="0.64483">
        <ele>412.4</ele>
        <time>2025-12-29T11:28:01Z</time>
      </trkpt>
      <trkpt lat="43.16049" lon="0.64477">
        <ele>413</ele>
        <time>2025-12-29T11:28:02Z</time>
      </trkpt>
      <trkpt lat="43.16048" lon="0.6447">
        <ele>413</ele>
        <time>2025-12-29T11:28:03Z</time>
      </trkpt>
      <trkpt lat="43.16046" lon="0.64464">
        <ele>413</ele>
        <time>2025-12-29T11:28:04Z</time>
      </trkpt>
      <trkpt lat="43.16045" lon="0.64458">
        <ele>412.2</ele>
        <time>2025-12-29T11:28:05Z</time>
      </trkpt>
      <trkpt lat="43.16043" lon="0.64452">
        <ele>412.8</ele>
        <time>2025-12-29T11:28:06Z</time>
      </trkpt>
      <trkpt lat="43.16042" lon="0.64446">
        <ele>412.8</ele>
        <time>2025-12-29T11:28:07Z</time>
      </trkpt>
      <trkpt lat="43.1604" lon="0.6444">
        <ele>412.8</ele>
        <time>2025-12-29T11:28:08Z</time>
      </trkpt>
      <trkpt lat="43.16039" lon="0.64434">
        <ele>412.8</ele>
        <time>2025-12-29T11:28:09Z</time>
      </trkpt>
      <trkpt lat="43.16037" lon="0.64427">
        <ele>412</ele>
        <time>2025-12-29T11:28:10Z</time>
      </trkpt>
      <trkpt lat="43.16035" lon="0.64421">
        <ele>412</ele>
        <time>2025-12-29T11:28:11Z</time>
      </trkpt>
      <trkpt lat="43.16034" lon="0.64415">
        <ele>412</ele>
        <time>2025-12-29T11:28:12Z</time>
      </trkpt>
      <trkpt lat="43.16032" lon="0.64409">
        <ele>412</ele>
        <time>2025-12-29T11:28:13Z</time>
      </trkpt>
      <trkpt lat="43.16031" lon="0.64403">
        <ele>412.8</ele>
        <time>2025-12-29T11:28:14Z</time>
      </trkpt>
      <trkpt lat="43.1603" lon="0.64397">
        <ele>412.8</ele>
        <time>2025-12-29T11:28:15Z</time>
      </trkpt>
      <trkpt lat="43.16029" lon="0.64392">
        <ele>412.8</ele>
        <time>2025-12-29T11:28:16Z</time>
      </trkpt>
      <trkpt lat="43.16028" lon="0.64386">
        <ele>412.8</ele>
        <time>2025-12-29T11:28:17Z</time>
      </trkpt>
      <trkpt lat="43.16028" lon="0.6438">
        <ele>413</ele>
        <time>2025-12-29T11:28:18Z</time>
      </trkpt>
      <trkpt lat="43.16027" lon="0.64374">
        <ele>413</ele>
        <time>2025-12-29T11:28:19Z</time>
      </trkpt>
      <trkpt lat="43.16027" lon="0.64368">
        <ele>413</ele>
        <time>2025-12-29T11:28:20Z</time>
      </trkpt>
      <trkpt lat="43.16027" lon="0.64362">
        <ele>413.6</ele>
        <time>2025-12-29T11:28:21Z</time>
      </trkpt>
      <trkpt lat="43.16027" lon="0.64356">
        <ele>412.4</ele>
        <time>2025-12-29T11:28:22Z</time>
      </trkpt>
      <trkpt lat="43.16027" lon="0.6435">
        <ele>412.4</ele>
        <time>2025-12-29T11:28:23Z</time>
      </trkpt>
      <trkpt lat="43.16027" lon="0.64344">
        <ele>412.4</ele>
        <time>2025-12-29T11:28:24Z</time>
      </trkpt>
      <trkpt lat="43.16028" lon="0.64339">
        <ele>413.4</ele>
        <time>2025-12-29T11:28:25Z</time>
      </trkpt>
      <trkpt lat="43.16028" lon="0.64333">
        <ele>413.6</ele>
        <time>2025-12-29T11:28:26Z</time>
      </trkpt>
      <trkpt lat="43.16029" lon="0.64328">
        <ele>413.6</ele>
        <time>2025-12-29T11:28:27Z</time>
      </trkpt>
      <trkpt lat="43.16029" lon="0.64323">
        <ele>413.6</ele>
        <time>2025-12-29T11:28:28Z</time>
      </trkpt>
      <trkpt lat="43.1603" lon="0.64318">
        <ele>413.6</ele>
        <time>2025-12-29T11:28:29Z</time>
      </trkpt>
      <trkpt lat="43.16031" lon="0.64313">
        <ele>414.2</ele>
        <time>2025-12-29T11:28:30Z</time>
      </trkpt>
      <trkpt lat="43.16031" lon="0.64308">
        <ele>414.2</ele>
        <time>2025-12-29T11:28:31Z</time>
      </trkpt>
      <trkpt lat="43.16032" lon="0.64303">
        <ele>414.2</ele>
        <time>2025-12-29T11:28:32Z</time>
      </trkpt>
      <trkpt lat="43.16032" lon="0.64297">
        <ele>414.2</ele>
        <time>2025-12-29T11:28:33Z</time>
      </trkpt>
      <trkpt lat="43.16033" lon="0.64292">
        <ele>414.4</ele>
        <time>2025-12-29T11:28:34Z</time>
      </trkpt>
      <trkpt lat="43.16034" lon="0.64287">
        <ele>414.4</ele>
        <time>2025-12-29T11:28:35Z</time>
      </trkpt>
      <trkpt lat="43.16035" lon="0.64281">
        <ele>414.4</ele>
        <time>2025-12-29T11:28:36Z</time>
      </trkpt>
      <trkpt lat="43.16035" lon="0.64276">
        <ele>414.6</ele>
        <time>2025-12-29T11:28:37Z</time>
      </trkpt>
      <trkpt lat="43.16036" lon="0.6427">
        <ele>414.6</ele>
        <time>2025-12-29T11:28:38Z</time>
      </trkpt>
      <trkpt lat="43.16037" lon="0.64265">
        <ele>414.6</ele>
        <time>2025-12-29T11:28:39Z</time>
      </trkpt>
      <trkpt lat="43.16037" lon="0.6426">
        <ele>414.6</ele>
        <time>2025-12-29T11:28:40Z</time>
      </trkpt>
      <trkpt lat="43.16038" lon="0.64254">
        <ele>414.8</ele>
        <time>2025-12-29T11:28:41Z</time>
      </trkpt>
      <trkpt lat="43.16039" lon="0.64249">
        <ele>415.4</ele>
        <time>2025-12-29T11:28:42Z</time>
      </trkpt>
      <trkpt lat="43.16039" lon="0.64244">
        <ele>415.4</ele>
        <time>2025-12-29T11:28:43Z</time>
      </trkpt>
      <trkpt lat="43.1604" lon="0.64239">
        <ele>415.4</ele>
        <time>2025-12-29T11:28:44Z</time>
      </trkpt>
      <trkpt lat="43.1604" lon="0.64233">
        <ele>415.2</ele>
        <time>2025-12-29T11:28:45Z</time>
      </trkpt>
      <trkpt lat="43.16041" lon="0.64228">
        <ele>414.8</ele>
        <time>2025-12-29T11:28:46Z</time>
      </trkpt>
      <trkpt lat="43.16042" lon="0.64222">
        <ele>414.8</ele>
        <time>2025-12-29T11:28:47Z</time>
      </trkpt>
      <trkpt lat="43.16042" lon="0.64217">
        <ele>414.8</ele>
        <time>2025-12-29T11:28:48Z</time>
      </trkpt>
      <trkpt lat="43.16043" lon="0.64212">
        <ele>415.8</ele>
        <time>2025-12-29T11:28:49Z</time>
      </trkpt>
      <trkpt lat="43.16044" lon="0.64207">
        <ele>415.2</ele>
        <time>2025-12-29T11:28:50Z</time>
      </trkpt>
      <trkpt lat="43.16045" lon="0.64202">
        <ele>415.2</ele>
        <time>2025-12-29T11:28:51Z</time>
      </trkpt>
      <trkpt lat="43.16045" lon="0.64196">
        <ele>415.2</ele>
        <time>2025-12-29T11:28:52Z</time>
      </trkpt>
      <trkpt lat="43.16046" lon="0.64191">
        <ele>416</ele>
        <time>2025-12-29T11:28:53Z</time>
      </trkpt>
      <trkpt lat="43.16047" lon="0.64186">
        <ele>415.6</ele>
        <time>2025-12-29T11:28:54Z</time>
      </trkpt>
      <trkpt lat="43.16047" lon="0.6418">
        <ele>415.6</ele>
        <time>2025-12-29T11:28:55Z</time>
      </trkpt>
      <trkpt lat="43.16048" lon="0.64175">
        <ele>415.6</ele>
        <time>2025-12-29T11:28:56Z</time>
      </trkpt>
      <trkpt lat="43.16049" lon="0.6417">
        <ele>415.6</ele>
        <time>2025-12-29T11:28:57Z</time>
      </trkpt>
      <trkpt lat="43.16049" lon="0.64164">
        <ele>415.6</ele>
        <time>2025-12-29T11:28:58Z</time>
      </trkpt>
      <trkpt lat="43.1605" lon="0.64159">
        <ele>415.6</ele>
        <time>2025-12-29T11:28:59Z</time>
      </trkpt>
      <trkpt lat="43.16051" lon="0.64153">
        <ele>415.6</ele>
        <time>2025-12-29T11:29:00Z</time>
      </trkpt>
      <trkpt lat="43.16051" lon="0.64148">
        <ele>415.6</ele>
        <time>2025-12-29T11:29:01Z</time>
      </trkpt>
      <trkpt lat="43.16052" lon="0.64143">
        <ele>416.2</ele>
        <time>2025-12-29T11:29:02Z</time>
      </trkpt>
      <trkpt lat="43.16052" lon="0.64137">
        <ele>416.2</ele>
        <time>2025-12-29T11:29:03Z</time>
      </trkpt>
      <trkpt lat="43.16053" lon="0.64132">
        <ele>416.2</ele>
        <time>2025-12-29T11:29:04Z</time>
      </trkpt>
      <trkpt lat="43.16054" lon="0.64127">
        <ele>416.2</ele>
        <time>2025-12-29T11:29:05Z</time>
      </trkpt>
      <trkpt lat="43.16054" lon="0.64122">
        <ele>417</ele>
        <time>2025-12-29T11:29:06Z</time>
      </trkpt>
      <trkpt lat="43.16055" lon="0.64116">
        <ele>417</ele>
        <time>2025-12-29T11:29:07Z</time>
      </trkpt>
      <trkpt lat="43.16055" lon="0.64111">
        <ele>417</ele>
        <time>2025-12-29T11:29:08Z</time>
      </trkpt>
      <trkpt lat="43.16056" lon="0.64106">
        <ele>417</ele>
        <time>2025-12-29T11:29:09Z</time>
      </trkpt>
      <trkpt lat="43.16057" lon="0.641">
        <ele>417.2</ele>
        <time>2025-12-29T11:29:10Z</time>
      </trkpt>
      <trkpt lat="43.16057" lon="0.64095">
        <ele>417.2</ele>
        <time>2025-12-29T11:29:11Z</time>
      </trkpt>
      <trkpt lat="43.16058" lon="0.6409">
        <ele>417.2</ele>
        <time>2025-12-29T11:29:12Z</time>
      </trkpt>
      <trkpt lat="43.16059" lon="0.64084">
        <ele>417.2</ele>
        <time>2025-12-29T11:29:13Z</time>
      </trkpt>
      <trkpt lat="43.16059" lon="0.64079">
        <ele>417</ele>
        <time>2025-12-29T11:29:14Z</time>
      </trkpt>
      <trkpt lat="43.1606" lon="0.64073">
        <ele>417</ele>
        <time>2025-12-29T11:29:15Z</time>
      </trkpt>
      <trkpt lat="43.16061" lon="0.64068">
        <ele>417</ele>
        <time>2025-12-29T11:29:16Z</time>
      </trkpt>
      <trkpt lat="43.16061" lon="0.64062">
        <ele>417</ele>
        <time>2025-12-29T11:29:17Z</time>
      </trkpt>
      <trkpt lat="43.16062" lon="0.64057">
        <ele>417.2</ele>
        <time>2025-12-29T11:29:18Z</time>
      </trkpt>
      <trkpt lat="43.16063" lon="0.64052">
        <ele>417.2</ele>
        <time>2025-12-29T11:29:19Z</time>
      </trkpt>
      <trkpt lat="43.16064" lon="0.64046">
        <ele>417.2</ele>
        <time>2025-12-29T11:29:20Z</time>
      </trkpt>
      <trkpt lat="43.16064" lon="0.64041">
        <ele>417.2</ele>
        <time>2025-12-29T11:29:21Z</time>
      </trkpt>
      <trkpt lat="43.16065" lon="0.64036">
        <ele>416.6</ele>
        <time>2025-12-29T11:29:22Z</time>
      </trkpt>
      <trkpt lat="43.16066" lon="0.64031">
        <ele>416.6</ele>
        <time>2025-12-29T11:29:23Z</time>
      </trkpt>
      <trkpt lat="43.16067" lon="0.64026">
        <ele>416.6</ele>
        <time>2025-12-29T11:29:24Z</time>
      </trkpt>
      <trkpt lat="43.16068" lon="0.64021">
        <ele>417.6</ele>
        <time>2025-12-29T11:29:25Z</time>
      </trkpt>
      <trkpt lat="43.16069" lon="0.64016">
        <ele>418</ele>
        <time>2025-12-29T11:29:26Z</time>
      </trkpt>
      <trkpt lat="43.1607" lon="0.64011">
        <ele>418</ele>
        <time>2025-12-29T11:29:27Z</time>
      </trkpt>
      <trkpt lat="43.16072" lon="0.64006">
        <ele>418</ele>
        <time>2025-12-29T11:29:28Z</time>
      </trkpt>
      <trkpt lat="43.16073" lon="0.64002">
        <ele>418</ele>
        <time>2025-12-29T11:29:29Z</time>
      </trkpt>
      <trkpt lat="43.16074" lon="0.63997">
        <ele>418.4</ele>
        <time>2025-12-29T11:29:30Z</time>
      </trkpt>
      <trkpt lat="43.16075" lon="0.63992">
        <ele>418.4</ele>
        <time>2025-12-29T11:29:31Z</time>
      </trkpt>
      <trkpt lat="43.16076" lon="0.63987">
        <ele>418.4</ele>
        <time>2025-12-29T11:29:32Z</time>
      </trkpt>
      <trkpt lat="43.16078" lon="0.63982">
        <ele>418.4</ele>
        <time>2025-12-29T11:29:33Z</time>
      </trkpt>
      <trkpt lat="43.16079" lon="0.63977">
        <ele>419.2</ele>
        <time>2025-12-29T11:29:34Z</time>
      </trkpt>
      <trkpt lat="43.1608" lon="0.63973">
        <ele>419.2</ele>
        <time>2025-12-29T11:29:35Z</time>
      </trkpt>
      <trkpt lat="43.16081" lon="0.63968">
        <ele>419.2</ele>
        <time>2025-12-29T11:29:36Z</time>
      </trkpt>
      <trkpt lat="43.16083" lon="0.63963">
        <ele>419.2</ele>
        <time>2025-12-29T11:29:37Z</time>
      </trkpt>
      <trkpt lat="43.16084" lon="0.63959">
        <ele>420.2</ele>
        <time>2025-12-29T11:29:38Z</time>
      </trkpt>
      <trkpt lat="43.16085" lon="0.63954">
        <ele>420.2</ele>
        <time>2025-12-29T11:29:39Z</time>
      </trkpt>
      <trkpt lat="43.16086" lon="0.6395">
        <ele>420.2</ele>
        <time>2025-12-29T11:29:40Z</time>
      </trkpt>
      <trkpt lat="43.16088" lon="0.63946">
        <ele>419.2</ele>
        <time>2025-12-29T11:29:41Z</time>
      </trkpt>
      <trkpt lat="43.16089" lon="0.63941">
        <ele>419.2</ele>
        <time>2025-12-29T11:29:42Z</time>
      </trkpt>
      <trkpt lat="43.1609" lon="0.63937">
        <ele>419.2</ele>
        <time>2025-12-29T11:29:43Z</time>
      </trkpt>
      <trkpt lat="43.16092" lon="0.63933">
        <ele>419.2</ele>
        <time>2025-12-29T11:29:44Z</time>
      </trkpt>
      <trkpt lat="43.16093" lon="0.63928">
        <ele>419.8</ele>
        <time>2025-12-29T11:29:45Z</time>
      </trkpt>
      <trkpt lat="43.16094" lon="0.63923">
        <ele>420.2</ele>
        <time>2025-12-29T11:29:46Z</time>
      </trkpt>
      <trkpt lat="43.16096" lon="0.63918">
        <ele>420.2</ele>
        <time>2025-12-29T11:29:47Z</time>
      </trkpt>
      <trkpt lat="43.16097" lon="0.63914">
        <ele>420.2</ele>
        <time>2025-12-29T11:29:48Z</time>
      </trkpt>
      <trkpt lat="43.16098" lon="0.63909">
        <ele>420</ele>
        <time>2025-12-29T11:29:49Z</time>
      </trkpt>
      <trkpt lat="43.16098" lon="0.63904">
        <ele>419.6</ele>
        <time>2025-12-29T11:29:50Z</time>
      </trkpt>
      <trkpt lat="43.16099" lon="0.63899">
        <ele>419.6</ele>
        <time>2025-12-29T11:29:51Z</time>
      </trkpt>
      <trkpt lat="43.161" lon="0.63894">
        <ele>419.6</ele>
        <time>2025-12-29T11:29:52Z</time>
      </trkpt>
      <trkpt lat="43.16101" lon="0.63889">
        <ele>420.4</ele>
        <time>2025-12-29T11:29:53Z</time>
      </trkpt>
      <trkpt lat="43.16101" lon="0.63884">
        <ele>420.8</ele>
        <time>2025-12-29T11:29:54Z</time>
      </trkpt>
      <trkpt lat="43.16102" lon="0.63879">
        <ele>420.8</ele>
        <time>2025-12-29T11:29:55Z</time>
      </trkpt>
      <trkpt lat="43.16102" lon="0.63874">
        <ele>420.8</ele>
        <time>2025-12-29T11:29:56Z</time>
      </trkpt>
      <trkpt lat="43.16102" lon="0.63869">
        <ele>420.6</ele>
        <time>2025-12-29T11:29:57Z</time>
      </trkpt>
      <trkpt lat="43.16102" lon="0.63864">
        <ele>420.8</ele>
        <time>2025-12-29T11:29:58Z</time>
      </trkpt>
      <trkpt lat="43.16102" lon="0.63859">
        <ele>420.8</ele>
        <time>2025-12-29T11:29:59Z</time>
      </trkpt>
      <trkpt lat="43.16102" lon="0.63854">
        <ele>420.8</ele>
        <time>2025-12-29T11:30:00Z</time>
      </trkpt>
      <trkpt lat="43.16102" lon="0.63849">
        <ele>421.2</ele>
        <time>2025-12-29T11:30:01Z</time>
      </trkpt>
      <trkpt lat="43.16102" lon="0.63844">
        <ele>421</ele>
        <time>2025-12-29T11:30:02Z</time>
      </trkpt>
      <trkpt lat="43.16102" lon="0.63839">
        <ele>421</ele>
        <time>2025-12-29T11:30:03Z</time>
      </trkpt>
      <trkpt lat="43.16101" lon="0.63834">
        <ele>421</ele>
        <time>2025-12-29T11:30:04Z</time>
      </trkpt>
      <trkpt lat="43.16101" lon="0.63828">
        <ele>421.2</ele>
        <time>2025-12-29T11:30:05Z</time>
      </trkpt>
      <trkpt lat="43.161" lon="0.63823">
        <ele>421</ele>
        <time>2025-12-29T11:30:06Z</time>
      </trkpt>
      <trkpt lat="43.161" lon="0.63818">
        <ele>421</ele>
        <time>2025-12-29T11:30:07Z</time>
      </trkpt>
      <trkpt lat="43.161" lon="0.63813">
        <ele>421</ele>
        <time>2025-12-29T11:30:08Z</time>
      </trkpt>
      <trkpt lat="43.16099" lon="0.63807">
        <ele>421.4</ele>
        <time>2025-12-29T11:30:09Z</time>
      </trkpt>
      <trkpt lat="43.16099" lon="0.63802">
        <ele>421.8</ele>
        <time>2025-12-29T11:30:10Z</time>
      </trkpt>
      <trkpt lat="43.16098" lon="0.63797">
        <ele>421.8</ele>
        <time>2025-12-29T11:30:11Z</time>
      </trkpt>
      <trkpt lat="43.16098" lon="0.63792">
        <ele>421.8</ele>
        <time>2025-12-29T11:30:12Z</time>
      </trkpt>
      <trkpt lat="43.16097" lon="0.63787">
        <ele>421.8</ele>
        <time>2025-12-29T11:30:13Z</time>
      </trkpt>
      <trkpt lat="43.16097" lon="0.63782">
        <ele>421.2</ele>
        <time>2025-12-29T11:30:14Z</time>
      </trkpt>
      <trkpt lat="43.16096" lon="0.63777">
        <ele>421.2</ele>
        <time>2025-12-29T11:30:15Z</time>
      </trkpt>
      <trkpt lat="43.16096" lon="0.63772">
        <ele>421.2</ele>
        <time>2025-12-29T11:30:16Z</time>
      </trkpt>
      <trkpt lat="43.16095" lon="0.63768">
        <ele>421.2</ele>
        <time>2025-12-29T11:30:17Z</time>
      </trkpt>
      <trkpt lat="43.16094" lon="0.63764">
        <ele>422.2</ele>
        <time>2025-12-29T11:30:18Z</time>
      </trkpt>
      <trkpt lat="43.16094" lon="0.63759">
        <ele>422.2</ele>
        <time>2025-12-29T11:30:19Z</time>
      </trkpt>
      <trkpt lat="43.16092" lon="0.63754">
        <ele>422.2</ele>
        <time>2025-12-29T11:30:20Z</time>
      </trkpt>
      <trkpt lat="43.16091" lon="0.6375">
        <ele>422.2</ele>
        <time>2025-12-29T11:30:21Z</time>
      </trkpt>
      <trkpt lat="43.16089" lon="0.63745">
        <ele>423</ele>
        <time>2025-12-29T11:30:22Z</time>
      </trkpt>
      <trkpt lat="43.16088" lon="0.6374">
        <ele>423</ele>
        <time>2025-12-29T11:30:23Z</time>
      </trkpt>
      <trkpt lat="43.16087" lon="0.63736">
        <ele>423</ele>
        <time>2025-12-29T11:30:24Z</time>
      </trkpt>
      <trkpt lat="43.16085" lon="0.63731">
        <ele>423</ele>
        <time>2025-12-29T11:30:25Z</time>
      </trkpt>
      <trkpt lat="43.16083" lon="0.63727">
        <ele>422.2</ele>
        <time>2025-12-29T11:30:26Z</time>
      </trkpt>
      <trkpt lat="43.16082" lon="0.63722">
        <ele>422.2</ele>
        <time>2025-12-29T11:30:27Z</time>
      </trkpt>
      <trkpt lat="43.1608" lon="0.63717">
        <ele>422.2</ele>
        <time>2025-12-29T11:30:28Z</time>
      </trkpt>
      <trkpt lat="43.16078" lon="0.63713">
        <ele>422.2</ele>
        <time>2025-12-29T11:30:29Z</time>
      </trkpt>
      <trkpt lat="43.16076" lon="0.63708">
        <ele>423.4</ele>
        <time>2025-12-29T11:30:30Z</time>
      </trkpt>
      <trkpt lat="43.16074" lon="0.63703">
        <ele>423.4</ele>
        <time>2025-12-29T11:30:31Z</time>
      </trkpt>
      <trkpt lat="43.16072" lon="0.63698">
        <ele>423.4</ele>
        <time>2025-12-29T11:30:32Z</time>
      </trkpt>
      <trkpt lat="43.1607" lon="0.63693">
        <ele>422.4</ele>
        <time>2025-12-29T11:30:33Z</time>
      </trkpt>
      <trkpt lat="43.16068" lon="0.63689">
        <ele>422.8</ele>
        <time>2025-12-29T11:30:34Z</time>
      </trkpt>
      <trkpt lat="43.16066" lon="0.63684">
        <ele>422.8</ele>
        <time>2025-12-29T11:30:35Z</time>
      </trkpt>
      <trkpt lat="43.16064" lon="0.63679">
        <ele>422.8</ele>
        <time>2025-12-29T11:30:36Z</time>
      </trkpt>
      <trkpt lat="43.16062" lon="0.63674">
        <ele>422.2</ele>
        <time>2025-12-29T11:30:37Z</time>
      </trkpt>
      <trkpt lat="43.1606" lon="0.63669">
        <ele>422.4</ele>
        <time>2025-12-29T11:30:38Z</time>
      </trkpt>
      <trkpt lat="43.16058" lon="0.63664">
        <ele>422.4</ele>
        <time>2025-12-29T11:30:39Z</time>
      </trkpt>
      <trkpt lat="43.16056" lon="0.63659">
        <ele>422.4</ele>
        <time>2025-12-29T11:30:40Z</time>
      </trkpt>
      <trkpt lat="43.16054" lon="0.63654">
        <ele>422.4</ele>
        <time>2025-12-29T11:30:41Z</time>
      </trkpt>
      <trkpt lat="43.16052" lon="0.63649">
        <ele>421.6</ele>
        <time>2025-12-29T11:30:42Z</time>
      </trkpt>
      <trkpt lat="43.1605" lon="0.63644">
        <ele>421.6</ele>
        <time>2025-12-29T11:30:43Z</time>
      </trkpt>
      <trkpt lat="43.16047" lon="0.63639">
        <ele>421.6</ele>
        <time>2025-12-29T11:30:44Z</time>
      </trkpt>
      <trkpt lat="43.16045" lon="0.63634">
        <ele>422.6</ele>
        <time>2025-12-29T11:30:45Z</time>
      </trkpt>
      <trkpt lat="43.16044" lon="0.6363">
        <ele>421.8</ele>
        <time>2025-12-29T11:30:46Z</time>
      </trkpt>
      <trkpt lat="43.16041" lon="0.63625">
        <ele>421.8</ele>
        <time>2025-12-29T11:30:47Z</time>
      </trkpt>
      <trkpt lat="43.1604" lon="0.63621">
        <ele>421.8</ele>
        <time>2025-12-29T11:30:48Z</time>
      </trkpt>
      <trkpt lat="43.16038" lon="0.63616">
        <ele>421.8</ele>
        <time>2025-12-29T11:30:49Z</time>
      </trkpt>
      <trkpt lat="43.16036" lon="0.63611">
        <ele>421.8</ele>
        <time>2025-12-29T11:30:50Z</time>
      </trkpt>
      <trkpt lat="43.16034" lon="0.63607">
        <ele>421.8</ele>
        <time>2025-12-29T11:30:51Z</time>
      </trkpt>
      <trkpt lat="43.16032" lon="0.63602">
        <ele>421.8</ele>
        <time>2025-12-29T11:30:52Z</time>
      </trkpt>
      <trkpt lat="43.1603" lon="0.63598">
        <ele>421.8</ele>
        <time>2025-12-29T11:30:53Z</time>
      </trkpt>
      <trkpt lat="43.16028" lon="0.63593">
        <ele>422.8</ele>
        <time>2025-12-29T11:30:54Z</time>
      </trkpt>
      <trkpt lat="43.16026" lon="0.63589">
        <ele>422.8</ele>
        <time>2025-12-29T11:30:55Z</time>
      </trkpt>
      <trkpt lat="43.16024" lon="0.63584">
        <ele>422.8</ele>
        <time>2025-12-29T11:30:56Z</time>
      </trkpt>
      <trkpt lat="43.16022" lon="0.63579">
        <ele>422.8</ele>
        <time>2025-12-29T11:30:57Z</time>
      </trkpt>
      <trkpt lat="43.1602" lon="0.63574">
        <ele>421.8</ele>
        <time>2025-12-29T11:30:58Z</time>
      </trkpt>
      <trkpt lat="43.16017" lon="0.6357">
        <ele>421.8</ele>
        <time>2025-12-29T11:30:59Z</time>
      </trkpt>
      <trkpt lat="43.16016" lon="0.63565">
        <ele>421.8</ele>
        <time>2025-12-29T11:31:00Z</time>
      </trkpt>
      <trkpt lat="43.16014" lon="0.6356">
        <ele>422.6</ele>
        <time>2025-12-29T11:31:01Z</time>
      </trkpt>
      <trkpt lat="43.16012" lon="0.63555">
        <ele>422</ele>
        <time>2025-12-29T11:31:02Z</time>
      </trkpt>
      <trkpt lat="43.1601" lon="0.6355">
        <ele>422</ele>
        <time>2025-12-29T11:31:03Z</time>
      </trkpt>
      <trkpt lat="43.16008" lon="0.63545">
        <ele>422</ele>
        <time>2025-12-29T11:31:04Z</time>
      </trkpt>
      <trkpt lat="43.16007" lon="0.6354">
        <ele>421.2</ele>
        <time>2025-12-29T11:31:05Z</time>
      </trkpt>
      <trkpt lat="43.16005" lon="0.63534">
        <ele>421.4</ele>
        <time>2025-12-29T11:31:06Z</time>
      </trkpt>
      <trkpt lat="43.16004" lon="0.63529">
        <ele>421.4</ele>
        <time>2025-12-29T11:31:07Z</time>
      </trkpt>
      <trkpt lat="43.16002" lon="0.63524">
        <ele>421.4</ele>
        <time>2025-12-29T11:31:08Z</time>
      </trkpt>
      <trkpt lat="43.16001" lon="0.63519">
        <ele>422</ele>
        <time>2025-12-29T11:31:09Z</time>
      </trkpt>
      <trkpt lat="43.15999" lon="0.63514">
        <ele>422</ele>
        <time>2025-12-29T11:31:10Z</time>
      </trkpt>
      <trkpt lat="43.15997" lon="0.63509">
        <ele>422</ele>
        <time>2025-12-29T11:31:11Z</time>
      </trkpt>
      <trkpt lat="43.15996" lon="0.63503">
        <ele>422</ele>
        <time>2025-12-29T11:31:12Z</time>
      </trkpt>
      <trkpt lat="43.15995" lon="0.63498">
        <ele>422</ele>
        <time>2025-12-29T11:31:13Z</time>
      </trkpt>
      <trkpt lat="43.15993" lon="0.63493">
        <ele>422</ele>
        <time>2025-12-29T11:31:14Z</time>
      </trkpt>
      <trkpt lat="43.15991" lon="0.63487">
        <ele>422</ele>
        <time>2025-12-29T11:31:15Z</time>
      </trkpt>
      <trkpt lat="43.15989" lon="0.63482">
        <ele>422</ele>
        <time>2025-12-29T11:31:16Z</time>
      </trkpt>
      <trkpt lat="43.15987" lon="0.63477">
        <ele>422</ele>
        <time>2025-12-29T11:31:17Z</time>
      </trkpt>
      <trkpt lat="43.15984" lon="0.63472">
        <ele>421.8</ele>
        <time>2025-12-29T11:31:18Z</time>
      </trkpt>
      <trkpt lat="43.15982" lon="0.63467">
        <ele>421.8</ele>
        <time>2025-12-29T11:31:19Z</time>
      </trkpt>
      <trkpt lat="43.1598" lon="0.63462">
        <ele>421.8</ele>
        <time>2025-12-29T11:31:20Z</time>
      </trkpt>
      <trkpt lat="43.15978" lon="0.63456">
        <ele>422.8</ele>
        <time>2025-12-29T11:31:21Z</time>
      </trkpt>
      <trkpt lat="43.15976" lon="0.63451">
        <ele>422.2</ele>
        <time>2025-12-29T11:31:22Z</time>
      </trkpt>
      <trkpt lat="43.15973" lon="0.63446">
        <ele>422.2</ele>
        <time>2025-12-29T11:31:23Z</time>
      </trkpt>
      <trkpt lat="43.15971" lon="0.63441">
        <ele>422.2</ele>
        <time>2025-12-29T11:31:24Z</time>
      </trkpt>
      <trkpt lat="43.15969" lon="0.63436">
        <ele>422.8</ele>
        <time>2025-12-29T11:31:25Z</time>
      </trkpt>
      <trkpt lat="43.15967" lon="0.63431">
        <ele>422.6</ele>
        <time>2025-12-29T11:31:26Z</time>
      </trkpt>
      <trkpt lat="43.15965" lon="0.63426">
        <ele>422.6</ele>
        <time>2025-12-29T11:31:27Z</time>
      </trkpt>
      <trkpt lat="43.15963" lon="0.6342">
        <ele>422.6</ele>
        <time>2025-12-29T11:31:28Z</time>
      </trkpt>
      <trkpt lat="43.15961" lon="0.63415">
        <ele>422</ele>
        <time>2025-12-29T11:31:29Z</time>
      </trkpt>
      <trkpt lat="43.15959" lon="0.6341">
        <ele>422.8</ele>
        <time>2025-12-29T11:31:30Z</time>
      </trkpt>
      <trkpt lat="43.15957" lon="0.63404">
        <ele>422.8</ele>
        <time>2025-12-29T11:31:31Z</time>
      </trkpt>
      <trkpt lat="43.15956" lon="0.63399">
        <ele>422.8</ele>
        <time>2025-12-29T11:31:32Z</time>
      </trkpt>
      <trkpt lat="43.15954" lon="0.63393">
        <ele>422.8</ele>
        <time>2025-12-29T11:31:33Z</time>
      </trkpt>
      <trkpt lat="43.15952" lon="0.63388">
        <ele>422.6</ele>
        <time>2025-12-29T11:31:34Z</time>
      </trkpt>
      <trkpt lat="43.1595" lon="0.63382">
        <ele>422.6</ele>
        <time>2025-12-29T11:31:35Z</time>
      </trkpt>
      <trkpt lat="43.15949" lon="0.63376">
        <ele>422.6</ele>
        <time>2025-12-29T11:31:36Z</time>
      </trkpt>
      <trkpt lat="43.15947" lon="0.6337">
        <ele>422.6</ele>
        <time>2025-12-29T11:31:37Z</time>
      </trkpt>
      <trkpt lat="43.15946" lon="0.63364">
        <ele>421.8</ele>
        <time>2025-12-29T11:31:38Z</time>
      </trkpt>
      <trkpt lat="43.15944" lon="0.63358">
        <ele>421.8</ele>
        <time>2025-12-29T11:31:39Z</time>
      </trkpt>
      <trkpt lat="43.15943" lon="0.63352">
        <ele>421.8</ele>
        <time>2025-12-29T11:31:40Z</time>
      </trkpt>
      <trkpt lat="43.15942" lon="0.63346">
        <ele>421.8</ele>
        <time>2025-12-29T11:31:41Z</time>
      </trkpt>
      <trkpt lat="43.15941" lon="0.6334">
        <ele>421.4</ele>
        <time>2025-12-29T11:31:42Z</time>
      </trkpt>
      <trkpt lat="43.1594" lon="0.63334">
        <ele>421.4</ele>
        <time>2025-12-29T11:31:43Z</time>
      </trkpt>
      <trkpt lat="43.15939" lon="0.63328">
        <ele>421.4</ele>
        <time>2025-12-29T11:31:44Z</time>
      </trkpt>
      <trkpt lat="43.15938" lon="0.63323">
        <ele>421.4</ele>
        <time>2025-12-29T11:31:45Z</time>
      </trkpt>
      <trkpt lat="43.15938" lon="0.63317">
        <ele>421</ele>
        <time>2025-12-29T11:31:46Z</time>
      </trkpt>
      <trkpt lat="43.15938" lon="0.6331">
        <ele>421</ele>
        <time>2025-12-29T11:31:47Z</time>
      </trkpt>
      <trkpt lat="43.15937" lon="0.63304">
        <ele>421</ele>
        <time>2025-12-29T11:31:48Z</time>
      </trkpt>
      <trkpt lat="43.15937" lon="0.63297">
        <ele>421.4</ele>
        <time>2025-12-29T11:31:49Z</time>
      </trkpt>
      <trkpt lat="43.15936" lon="0.63291">
        <ele>421.4</ele>
        <time>2025-12-29T11:31:50Z</time>
      </trkpt>
      <trkpt lat="43.15936" lon="0.63284">
        <ele>421.4</ele>
        <time>2025-12-29T11:31:51Z</time>
      </trkpt>
      <trkpt lat="43.15935" lon="0.63278">
        <ele>421.4</ele>
        <time>2025-12-29T11:31:52Z</time>
      </trkpt>
      <trkpt lat="43.15936" lon="0.63271">
        <ele>420.8</ele>
        <time>2025-12-29T11:31:53Z</time>
      </trkpt>
      <trkpt lat="43.15935" lon="0.63265">
        <ele>420.6</ele>
        <time>2025-12-29T11:31:54Z</time>
      </trkpt>
      <trkpt lat="43.15935" lon="0.63259">
        <ele>420.6</ele>
        <time>2025-12-29T11:31:55Z</time>
      </trkpt>
      <trkpt lat="43.15934" lon="0.63252">
        <ele>420.6</ele>
        <time>2025-12-29T11:31:56Z</time>
      </trkpt>
      <trkpt lat="43.15933" lon="0.63246">
        <ele>420.6</ele>
        <time>2025-12-29T11:31:57Z</time>
      </trkpt>
      <trkpt lat="43.15933" lon="0.63239">
        <ele>421.2</ele>
        <time>2025-12-29T11:31:58Z</time>
      </trkpt>
      <trkpt lat="43.15932" lon="0.63233">
        <ele>421.2</ele>
        <time>2025-12-29T11:31:59Z</time>
      </trkpt>
      <trkpt lat="43.15931" lon="0.63227">
        <ele>421.2</ele>
        <time>2025-12-29T11:32:00Z</time>
      </trkpt>
      <trkpt lat="43.1593" lon="0.63221">
        <ele>421.2</ele>
        <time>2025-12-29T11:32:01Z</time>
      </trkpt>
      <trkpt lat="43.15929" lon="0.63215">
        <ele>421.2</ele>
        <time>2025-12-29T11:32:02Z</time>
      </trkpt>
      <trkpt lat="43.15928" lon="0.6321">
        <ele>421.2</ele>
        <time>2025-12-29T11:32:03Z</time>
      </trkpt>
      <trkpt lat="43.15927" lon="0.63204">
        <ele>421.2</ele>
        <time>2025-12-29T11:32:04Z</time>
      </trkpt>
      <trkpt lat="43.15926" lon="0.63199">
        <ele>421.2</ele>
        <time>2025-12-29T11:32:05Z</time>
      </trkpt>
      <trkpt lat="43.15925" lon="0.63193">
        <ele>421.6</ele>
        <time>2025-12-29T11:32:06Z</time>
      </trkpt>
      <trkpt lat="43.15923" lon="0.63187">
        <ele>421.6</ele>
        <time>2025-12-29T11:32:07Z</time>
      </trkpt>
      <trkpt lat="43.15922" lon="0.63182">
        <ele>421.6</ele>
        <time>2025-12-29T11:32:08Z</time>
      </trkpt>
      <trkpt lat="43.1592" lon="0.63176">
        <ele>421.6</ele>
        <time>2025-12-29T11:32:09Z</time>
      </trkpt>
      <trkpt lat="43.15919" lon="0.6317">
        <ele>421.8</ele>
        <time>2025-12-29T11:32:10Z</time>
      </trkpt>
      <trkpt lat="43.15918" lon="0.63164">
        <ele>421.8</ele>
        <time>2025-12-29T11:32:11Z</time>
      </trkpt>
      <trkpt lat="43.15916" lon="0.63158">
        <ele>421.8</ele>
        <time>2025-12-29T11:32:12Z</time>
      </trkpt>
      <trkpt lat="43.15915" lon="0.63152">
        <ele>421.8</ele>
        <time>2025-12-29T11:32:13Z</time>
      </trkpt>
      <trkpt lat="43.15914" lon="0.63146">
        <ele>421.8</ele>
        <time>2025-12-29T11:32:14Z</time>
      </trkpt>
      <trkpt lat="43.15913" lon="0.6314">
        <ele>421.8</ele>
        <time>2025-12-29T11:32:15Z</time>
      </trkpt>
      <trkpt lat="43.15912" lon="0.63134">
        <ele>421.8</ele>
        <time>2025-12-29T11:32:16Z</time>
      </trkpt>
      <trkpt lat="43.15911" lon="0.63127">
        <ele>421.6</ele>
        <time>2025-12-29T11:32:17Z</time>
      </trkpt>
      <trkpt lat="43.1591" lon="0.63121">
        <ele>421.6</ele>
        <time>2025-12-29T11:32:18Z</time>
      </trkpt>
      <trkpt lat="43.15909" lon="0.63115">
        <ele>421.6</ele>
        <time>2025-12-29T11:32:19Z</time>
      </trkpt>
      <trkpt lat="43.15908" lon="0.63109">
        <ele>421.6</ele>
        <time>2025-12-29T11:32:20Z</time>
      </trkpt>
      <trkpt lat="43.15907" lon="0.63103">
        <ele>421.4</ele>
        <time>2025-12-29T11:32:21Z</time>
      </trkpt>
      <trkpt lat="43.15907" lon="0.63097">
        <ele>422.2</ele>
        <time>2025-12-29T11:32:22Z</time>
      </trkpt>
      <trkpt lat="43.15906" lon="0.63091">
        <ele>422.2</ele>
        <time>2025-12-29T11:32:23Z</time>
      </trkpt>
      <trkpt lat="43.15905" lon="0.63085">
        <ele>422.2</ele>
        <time>2025-12-29T11:32:24Z</time>
      </trkpt>
      <trkpt lat="43.15904" lon="0.63079">
        <ele>422.2</ele>
        <time>2025-12-29T11:32:25Z</time>
      </trkpt>
      <trkpt lat="43.15903" lon="0.63073">
        <ele>422</ele>
        <time>2025-12-29T11:32:26Z</time>
      </trkpt>
      <trkpt lat="43.15903" lon="0.63068">
        <ele>422</ele>
        <time>2025-12-29T11:32:27Z</time>
      </trkpt>
      <trkpt lat="43.15902" lon="0.63062">
        <ele>422</ele>
        <time>2025-12-29T11:32:28Z</time>
      </trkpt>
      <trkpt lat="43.15901" lon="0.63056">
        <ele>422</ele>
        <time>2025-12-29T11:32:29Z</time>
      </trkpt>
      <trkpt lat="43.159" lon="0.63051">
        <ele>421.4</ele>
        <time>2025-12-29T11:32:30Z</time>
      </trkpt>
      <trkpt lat="43.15899" lon="0.63045">
        <ele>421.4</ele>
        <time>2025-12-29T11:32:31Z</time>
      </trkpt>
      <trkpt lat="43.15898" lon="0.63039">
        <ele>421.4</ele>
        <time>2025-12-29T11:32:32Z</time>
      </trkpt>
      <trkpt lat="43.15897" lon="0.63033">
        <ele>422</ele>
        <time>2025-12-29T11:32:33Z</time>
      </trkpt>
      <trkpt lat="43.15895" lon="0.63028">
        <ele>422.8</ele>
        <time>2025-12-29T11:32:34Z</time>
      </trkpt>
      <trkpt lat="43.15894" lon="0.63022">
        <ele>422.8</ele>
        <time>2025-12-29T11:32:35Z</time>
      </trkpt>
      <trkpt lat="43.15893" lon="0.63016">
        <ele>422.8</ele>
        <time>2025-12-29T11:32:36Z</time>
      </trkpt>
      <trkpt lat="43.15891" lon="0.63011">
        <ele>422.2</ele>
        <time>2025-12-29T11:32:37Z</time>
      </trkpt>
      <trkpt lat="43.1589" lon="0.63005">
        <ele>421.8</ele>
        <time>2025-12-29T11:32:38Z</time>
      </trkpt>
      <trkpt lat="43.15889" lon="0.62999">
        <ele>421.8</ele>
        <time>2025-12-29T11:32:39Z</time>
      </trkpt>
      <trkpt lat="43.15887" lon="0.62994">
        <ele>421.8</ele>
        <time>2025-12-29T11:32:40Z</time>
      </trkpt>
      <trkpt lat="43.15886" lon="0.62988">
        <ele>422.8</ele>
        <time>2025-12-29T11:32:41Z</time>
      </trkpt>
      <trkpt lat="43.15885" lon="0.62982">
        <ele>422.4</ele>
        <time>2025-12-29T11:32:42Z</time>
      </trkpt>
      <trkpt lat="43.15883" lon="0.62977">
        <ele>422.4</ele>
        <time>2025-12-29T11:32:43Z</time>
      </trkpt>
      <trkpt lat="43.15882" lon="0.62971">
        <ele>422.4</ele>
        <time>2025-12-29T11:32:44Z</time>
      </trkpt>
      <trkpt lat="43.15881" lon="0.62965">
        <ele>422.4</ele>
        <time>2025-12-29T11:32:45Z</time>
      </trkpt>
      <trkpt lat="43.15879" lon="0.6296">
        <ele>422.4</ele>
        <time>2025-12-29T11:32:46Z</time>
      </trkpt>
      <trkpt lat="43.15878" lon="0.62954">
        <ele>422.4</ele>
        <time>2025-12-29T11:32:47Z</time>
      </trkpt>
      <trkpt lat="43.15876" lon="0.62948">
        <ele>422.4</ele>
        <time>2025-12-29T11:32:48Z</time>
      </trkpt>
      <trkpt lat="43.15875" lon="0.62943">
        <ele>422.4</ele>
        <time>2025-12-29T11:32:49Z</time>
      </trkpt>
      <trkpt lat="43.15874" lon="0.62937">
        <ele>423</ele>
        <time>2025-12-29T11:32:50Z</time>
      </trkpt>
      <trkpt lat="43.15873" lon="0.62931">
        <ele>423</ele>
        <time>2025-12-29T11:32:51Z</time>
      </trkpt>
      <trkpt lat="43.15872" lon="0.62926">
        <ele>423</ele>
        <time>2025-12-29T11:32:52Z</time>
      </trkpt>
      <trkpt lat="43.15872" lon="0.62921">
        <ele>423</ele>
        <time>2025-12-29T11:32:53Z</time>
      </trkpt>
      <trkpt lat="43.15871" lon="0.62915">
        <ele>423.4</ele>
        <time>2025-12-29T11:32:54Z</time>
      </trkpt>
      <trkpt lat="43.1587" lon="0.6291">
        <ele>423.4</ele>
        <time>2025-12-29T11:32:55Z</time>
      </trkpt>
      <trkpt lat="43.15869" lon="0.62905">
        <ele>423.4</ele>
        <time>2025-12-29T11:32:56Z</time>
      </trkpt>
      <trkpt lat="43.15868" lon="0.62899">
        <ele>423.6</ele>
        <time>2025-12-29T11:32:57Z</time>
      </trkpt>
      <trkpt lat="43.15868" lon="0.62894">
        <ele>423.6</ele>
        <time>2025-12-29T11:32:58Z</time>
      </trkpt>
      <trkpt lat="43.15867" lon="0.62888">
        <ele>423.6</ele>
        <time>2025-12-29T11:32:59Z</time>
      </trkpt>
      <trkpt lat="43.15866" lon="0.62883">
        <ele>423.6</ele>
        <time>2025-12-29T11:33:00Z</time>
      </trkpt>
      <trkpt lat="43.15866" lon="0.62877">
        <ele>423.6</ele>
        <time>2025-12-29T11:33:01Z</time>
      </trkpt>
      <trkpt lat="43.15866" lon="0.62872">
        <ele>423.8</ele>
        <time>2025-12-29T11:33:02Z</time>
      </trkpt>
      <trkpt lat="43.15865" lon="0.62866">
        <ele>423.8</ele>
        <time>2025-12-29T11:33:03Z</time>
      </trkpt>
      <trkpt lat="43.15865" lon="0.62861">
        <ele>423.8</ele>
        <time>2025-12-29T11:33:04Z</time>
      </trkpt>
      <trkpt lat="43.15864" lon="0.62856">
        <ele>423.8</ele>
        <time>2025-12-29T11:33:05Z</time>
      </trkpt>
      <trkpt lat="43.15864" lon="0.6285">
        <ele>424</ele>
        <time>2025-12-29T11:33:06Z</time>
      </trkpt>
      <trkpt lat="43.15863" lon="0.62845">
        <ele>424</ele>
        <time>2025-12-29T11:33:07Z</time>
      </trkpt>
      <trkpt lat="43.15862" lon="0.6284">
        <ele>424</ele>
        <time>2025-12-29T11:33:08Z</time>
      </trkpt>
      <trkpt lat="43.15862" lon="0.62835">
        <ele>424.4</ele>
        <time>2025-12-29T11:33:09Z</time>
      </trkpt>
      <trkpt lat="43.15861" lon="0.62829">
        <ele>425</ele>
        <time>2025-12-29T11:33:10Z</time>
      </trkpt>
      <trkpt lat="43.1586" lon="0.62824">
        <ele>425</ele>
        <time>2025-12-29T11:33:11Z</time>
      </trkpt>
      <trkpt lat="43.15859" lon="0.62819">
        <ele>425</ele>
        <time>2025-12-29T11:33:12Z</time>
      </trkpt>
      <trkpt lat="43.15858" lon="0.62814">
        <ele>425</ele>
        <time>2025-12-29T11:33:13Z</time>
      </trkpt>
      <trkpt lat="43.15857" lon="0.62809">
        <ele>424.8</ele>
        <time>2025-12-29T11:33:14Z</time>
      </trkpt>
      <trkpt lat="43.15856" lon="0.62804">
        <ele>424.8</ele>
        <time>2025-12-29T11:33:15Z</time>
      </trkpt>
      <trkpt lat="43.15855" lon="0.62799">
        <ele>424.8</ele>
        <time>2025-12-29T11:33:16Z</time>
      </trkpt>
      <trkpt lat="43.15854" lon="0.62794">
        <ele>424.8</ele>
        <time>2025-12-29T11:33:17Z</time>
      </trkpt>
      <trkpt lat="43.15853" lon="0.62789">
        <ele>425.8</ele>
        <time>2025-12-29T11:33:18Z</time>
      </trkpt>
      <trkpt lat="43.15852" lon="0.62784">
        <ele>425.8</ele>
        <time>2025-12-29T11:33:19Z</time>
      </trkpt>
      <trkpt lat="43.15851" lon="0.62779">
        <ele>425.8</ele>
        <time>2025-12-29T11:33:20Z</time>
      </trkpt>
      <trkpt lat="43.1585" lon="0.62774">
        <ele>425.4</ele>
        <time>2025-12-29T11:33:21Z</time>
      </trkpt>
      <trkpt lat="43.15849" lon="0.62769">
        <ele>425.4</ele>
        <time>2025-12-29T11:33:22Z</time>
      </trkpt>
      <trkpt lat="43.15848" lon="0.62764">
        <ele>425.4</ele>
        <time>2025-12-29T11:33:23Z</time>
      </trkpt>
      <trkpt lat="43.15847" lon="0.62759">
        <ele>425.4</ele>
        <time>2025-12-29T11:33:24Z</time>
      </trkpt>
      <trkpt lat="43.15846" lon="0.62754">
        <ele>426.2</ele>
        <time>2025-12-29T11:33:25Z</time>
      </trkpt>
      <trkpt lat="43.15845" lon="0.62749">
        <ele>427</ele>
        <time>2025-12-29T11:33:26Z</time>
      </trkpt>
      <trkpt lat="43.15844" lon="0.62745">
        <ele>427</ele>
        <time>2025-12-29T11:33:27Z</time>
      </trkpt>
      <trkpt lat="43.15843" lon="0.6274">
        <ele>427</ele>
        <time>2025-12-29T11:33:28Z</time>
      </trkpt>
      <trkpt lat="43.15841" lon="0.62735">
        <ele>426</ele>
        <time>2025-12-29T11:33:29Z</time>
      </trkpt>
      <trkpt lat="43.1584" lon="0.6273">
        <ele>426</ele>
        <time>2025-12-29T11:33:30Z</time>
      </trkpt>
      <trkpt lat="43.15839" lon="0.62725">
        <ele>426</ele>
        <time>2025-12-29T11:33:31Z</time>
      </trkpt>
      <trkpt lat="43.15838" lon="0.6272">
        <ele>426</ele>
        <time>2025-12-29T11:33:32Z</time>
      </trkpt>
      <trkpt lat="43.15837" lon="0.62715">
        <ele>426</ele>
        <time>2025-12-29T11:33:33Z</time>
      </trkpt>
      <trkpt lat="43.15836" lon="0.6271">
        <ele>426.4</ele>
        <time>2025-12-29T11:33:34Z</time>
      </trkpt>
      <trkpt lat="43.15835" lon="0.62705">
        <ele>426.4</ele>
        <time>2025-12-29T11:33:35Z</time>
      </trkpt>
      <trkpt lat="43.15834" lon="0.627">
        <ele>426.4</ele>
        <time>2025-12-29T11:33:36Z</time>
      </trkpt>
      <trkpt lat="43.15832" lon="0.62696">
        <ele>426.4</ele>
        <time>2025-12-29T11:33:37Z</time>
      </trkpt>
      <trkpt lat="43.15831" lon="0.62691">
        <ele>426.4</ele>
        <time>2025-12-29T11:33:38Z</time>
      </trkpt>
      <trkpt lat="43.1583" lon="0.62686">
        <ele>426.4</ele>
        <time>2025-12-29T11:33:39Z</time>
      </trkpt>
      <trkpt lat="43.15828" lon="0.62681">
        <ele>426.4</ele>
        <time>2025-12-29T11:33:40Z</time>
      </trkpt>
      <trkpt lat="43.15827" lon="0.62676">
        <ele>426.4</ele>
        <time>2025-12-29T11:33:41Z</time>
      </trkpt>
      <trkpt lat="43.15825" lon="0.62671">
        <ele>426.8</ele>
        <time>2025-12-29T11:33:42Z</time>
      </trkpt>
      <trkpt lat="43.15824" lon="0.62666">
        <ele>426.8</ele>
        <time>2025-12-29T11:33:43Z</time>
      </trkpt>
      <trkpt lat="43.15822" lon="0.62661">
        <ele>426.8</ele>
        <time>2025-12-29T11:33:44Z</time>
      </trkpt>
      <trkpt lat="43.1582" lon="0.62656">
        <ele>426.8</ele>
        <time>2025-12-29T11:33:45Z</time>
      </trkpt>
      <trkpt lat="43.15819" lon="0.62651">
        <ele>426.4</ele>
        <time>2025-12-29T11:33:46Z</time>
      </trkpt>
      <trkpt lat="43.15817" lon="0.62646">
        <ele>426.4</ele>
        <time>2025-12-29T11:33:47Z</time>
      </trkpt>
      <trkpt lat="43.15815" lon="0.62641">
        <ele>426.4</ele>
        <time>2025-12-29T11:33:48Z</time>
      </trkpt>
      <trkpt lat="43.15813" lon="0.62636">
        <ele>426.4</ele>
        <time>2025-12-29T11:33:49Z</time>
      </trkpt>
      <trkpt lat="43.15811" lon="0.6263">
        <ele>426.2</ele>
        <time>2025-12-29T11:33:50Z</time>
      </trkpt>
      <trkpt lat="43.1581" lon="0.62625">
        <ele>426.2</ele>
        <time>2025-12-29T11:33:51Z</time>
      </trkpt>
      <trkpt lat="43.15808" lon="0.62619">
        <ele>426.2</ele>
        <time>2025-12-29T11:33:52Z</time>
      </trkpt>
      <trkpt lat="43.15806" lon="0.62614">
        <ele>427.2</ele>
        <time>2025-12-29T11:33:53Z</time>
      </trkpt>
      <trkpt lat="43.15805" lon="0.62609">
        <ele>427.6</ele>
        <time>2025-12-29T11:33:54Z</time>
      </trkpt>
      <trkpt lat="43.15803" lon="0.62603">
        <ele>427.6</ele>
        <time>2025-12-29T11:33:55Z</time>
      </trkpt>
      <trkpt lat="43.15801" lon="0.62597">
        <ele>427.6</ele>
        <time>2025-12-29T11:33:56Z</time>
      </trkpt>
      <trkpt lat="43.15799" lon="0.62592">
        <ele>427.6</ele>
        <time>2025-12-29T11:33:57Z</time>
      </trkpt>
      <trkpt lat="43.15797" lon="0.62586">
        <ele>427.2</ele>
        <time>2025-12-29T11:33:58Z</time>
      </trkpt>
      <trkpt lat="43.15795" lon="0.6258">
        <ele>427.2</ele>
        <time>2025-12-29T11:33:59Z</time>
      </trkpt>
      <trkpt lat="43.15793" lon="0.62574">
        <ele>427.2</ele>
        <time>2025-12-29T11:34:00Z</time>
      </trkpt>
      <trkpt lat="43.15791" lon="0.62568">
        <ele>427.2</ele>
        <time>2025-12-29T11:34:01Z</time>
      </trkpt>
      <trkpt lat="43.1579" lon="0.62562">
        <ele>426.8</ele>
        <time>2025-12-29T11:34:02Z</time>
      </trkpt>
      <trkpt lat="43.15788" lon="0.62556">
        <ele>426.8</ele>
        <time>2025-12-29T11:34:03Z</time>
      </trkpt>
      <trkpt lat="43.15786" lon="0.62551">
        <ele>426.8</ele>
        <time>2025-12-29T11:34:04Z</time>
      </trkpt>
      <trkpt lat="43.15784" lon="0.62545">
        <ele>426.6</ele>
        <time>2025-12-29T11:34:05Z</time>
      </trkpt>
      <trkpt lat="43.15782" lon="0.62539">
        <ele>426.8</ele>
        <time>2025-12-29T11:34:06Z</time>
      </trkpt>
      <trkpt lat="43.1578" lon="0.62533">
        <ele>426.8</ele>
        <time>2025-12-29T11:34:07Z</time>
      </trkpt>
      <trkpt lat="43.15778" lon="0.62528">
        <ele>426.8</ele>
        <time>2025-12-29T11:34:08Z</time>
      </trkpt>
      <trkpt lat="43.15777" lon="0.62522">
        <ele>426.8</ele>
        <time>2025-12-29T11:34:09Z</time>
      </trkpt>
      <trkpt lat="43.15775" lon="0.62516">
        <ele>426.6</ele>
        <time>2025-12-29T11:34:10Z</time>
      </trkpt>
      <trkpt lat="43.15773" lon="0.62511">
        <ele>426.6</ele>
        <time>2025-12-29T11:34:11Z</time>
      </trkpt>
      <trkpt lat="43.15771" lon="0.62505">
        <ele>426.6</ele>
        <time>2025-12-29T11:34:12Z</time>
      </trkpt>
      <trkpt lat="43.1577" lon="0.625">
        <ele>426.6</ele>
        <time>2025-12-29T11:34:13Z</time>
      </trkpt>
      <trkpt lat="43.15768" lon="0.62494">
        <ele>427</ele>
        <time>2025-12-29T11:34:14Z</time>
      </trkpt>
      <trkpt lat="43.15766" lon="0.62489">
        <ele>427</ele>
        <time>2025-12-29T11:34:15Z</time>
      </trkpt>
      <trkpt lat="43.15764" lon="0.62483">
        <ele>427</ele>
        <time>2025-12-29T11:34:16Z</time>
      </trkpt>
      <trkpt lat="43.15762" lon="0.62478">
        <ele>426.4</ele>
        <time>2025-12-29T11:34:17Z</time>
      </trkpt>
      <trkpt lat="43.15761" lon="0.62472">
        <ele>427</ele>
        <time>2025-12-29T11:34:18Z</time>
      </trkpt>
      <trkpt lat="43.15759" lon="0.62466">
        <ele>427</ele>
        <time>2025-12-29T11:34:19Z</time>
      </trkpt>
      <trkpt lat="43.15757" lon="0.62461">
        <ele>427</ele>
        <time>2025-12-29T11:34:20Z</time>
      </trkpt>
      <trkpt lat="43.15756" lon="0.62455">
        <ele>427</ele>
        <time>2025-12-29T11:34:21Z</time>
      </trkpt>
      <trkpt lat="43.15754" lon="0.6245">
        <ele>427.2</ele>
        <time>2025-12-29T11:34:22Z</time>
      </trkpt>
      <trkpt lat="43.15753" lon="0.62445">
        <ele>427.2</ele>
        <time>2025-12-29T11:34:23Z</time>
      </trkpt>
      <trkpt lat="43.15751" lon="0.62439">
        <ele>427.2</ele>
        <time>2025-12-29T11:34:24Z</time>
      </trkpt>
      <trkpt lat="43.15749" lon="0.62434">
        <ele>427.2</ele>
        <time>2025-12-29T11:34:25Z</time>
      </trkpt>
      <trkpt lat="43.15748" lon="0.62429">
        <ele>427.8</ele>
        <time>2025-12-29T11:34:26Z</time>
      </trkpt>
      <trkpt lat="43.15746" lon="0.62424">
        <ele>427.8</ele>
        <time>2025-12-29T11:34:27Z</time>
      </trkpt>
      <trkpt lat="43.15744" lon="0.62418">
        <ele>427.8</ele>
        <time>2025-12-29T11:34:28Z</time>
      </trkpt>
      <trkpt lat="43.15743" lon="0.62413">
        <ele>427.8</ele>
        <time>2025-12-29T11:34:29Z</time>
      </trkpt>
      <trkpt lat="43.15741" lon="0.62408">
        <ele>427.6</ele>
        <time>2025-12-29T11:34:30Z</time>
      </trkpt>
      <trkpt lat="43.15739" lon="0.62402">
        <ele>427.6</ele>
        <time>2025-12-29T11:34:31Z</time>
      </trkpt>
      <trkpt lat="43.15737" lon="0.62397">
        <ele>427.6</ele>
        <time>2025-12-29T11:34:32Z</time>
      </trkpt>
      <trkpt lat="43.15735" lon="0.62392">
        <ele>427.6</ele>
        <time>2025-12-29T11:34:33Z</time>
      </trkpt>
      <trkpt lat="43.15734" lon="0.62387">
        <ele>427.6</ele>
        <time>2025-12-29T11:34:34Z</time>
      </trkpt>
      <trkpt lat="43.15732" lon="0.62382">
        <ele>427.6</ele>
        <time>2025-12-29T11:34:35Z</time>
      </trkpt>
      <trkpt lat="43.1573" lon="0.62377">
        <ele>427.6</ele>
        <time>2025-12-29T11:34:36Z</time>
      </trkpt>
      <trkpt lat="43.15729" lon="0.62372">
        <ele>427.6</ele>
        <time>2025-12-29T11:34:37Z</time>
      </trkpt>
      <trkpt lat="43.15727" lon="0.62367">
        <ele>427.8</ele>
        <time>2025-12-29T11:34:38Z</time>
      </trkpt>
      <trkpt lat="43.15725" lon="0.62362">
        <ele>427.8</ele>
        <time>2025-12-29T11:34:39Z</time>
      </trkpt>
      <trkpt lat="43.15723" lon="0.62357">
        <ele>427.8</ele>
        <time>2025-12-29T11:34:40Z</time>
      </trkpt>
      <trkpt lat="43.15721" lon="0.62352">
        <ele>427.8</ele>
        <time>2025-12-29T11:34:41Z</time>
      </trkpt>
      <trkpt lat="43.15719" lon="0.62347">
        <ele>428.8</ele>
        <time>2025-12-29T11:34:42Z</time>
      </trkpt>
      <trkpt lat="43.15717" lon="0.62342">
        <ele>428.8</ele>
        <time>2025-12-29T11:34:43Z</time>
      </trkpt>
      <trkpt lat="43.15715" lon="0.62337">
        <ele>428.8</ele>
        <time>2025-12-29T11:34:44Z</time>
      </trkpt>
      <trkpt lat="43.15713" lon="0.62332">
        <ele>428.8</ele>
        <time>2025-12-29T11:34:45Z</time>
      </trkpt>
      <trkpt lat="43.15711" lon="0.62327">
        <ele>428.8</ele>
        <time>2025-12-29T11:34:46Z</time>
      </trkpt>
      <trkpt lat="43.15709" lon="0.62321">
        <ele>428.8</ele>
        <time>2025-12-29T11:34:47Z</time>
      </trkpt>
      <trkpt lat="43.15707" lon="0.62316">
        <ele>428.8</ele>
        <time>2025-12-29T11:34:48Z</time>
      </trkpt>
      <trkpt lat="43.15705" lon="0.62311">
        <ele>428.8</ele>
        <time>2025-12-29T11:34:49Z</time>
      </trkpt>
      <trkpt lat="43.15703" lon="0.62306">
        <ele>429.4</ele>
        <time>2025-12-29T11:34:50Z</time>
      </trkpt>
      <trkpt lat="43.157" lon="0.62301">
        <ele>429.4</ele>
        <time>2025-12-29T11:34:51Z</time>
      </trkpt>
      <trkpt lat="43.15698" lon="0.62296">
        <ele>429.4</ele>
        <time>2025-12-29T11:34:52Z</time>
      </trkpt>
      <trkpt lat="43.15696" lon="0.62291">
        <ele>428.4</ele>
        <time>2025-12-29T11:34:53Z</time>
      </trkpt>
      <trkpt lat="43.15694" lon="0.62285">
        <ele>428.2</ele>
        <time>2025-12-29T11:34:54Z</time>
      </trkpt>
      <trkpt lat="43.15692" lon="0.6228">
        <ele>428.2</ele>
        <time>2025-12-29T11:34:55Z</time>
      </trkpt>
      <trkpt lat="43.1569" lon="0.62275">
        <ele>428.2</ele>
        <time>2025-12-29T11:34:56Z</time>
      </trkpt>
      <trkpt lat="43.15688" lon="0.6227">
        <ele>428.8</ele>
        <time>2025-12-29T11:34:57Z</time>
      </trkpt>
      <trkpt lat="43.15686" lon="0.62265">
        <ele>428.6</ele>
        <time>2025-12-29T11:34:58Z</time>
      </trkpt>
      <trkpt lat="43.15684" lon="0.6226">
        <ele>428.6</ele>
        <time>2025-12-29T11:34:59Z</time>
      </trkpt>
      <trkpt lat="43.15682" lon="0.62255">
        <ele>428.6</ele>
        <time>2025-12-29T11:35:00Z</time>
      </trkpt>
      <trkpt lat="43.1568" lon="0.6225">
        <ele>429</ele>
        <time>2025-12-29T11:35:01Z</time>
      </trkpt>
      <trkpt lat="43.15678" lon="0.62245">
        <ele>429.4</ele>
        <time>2025-12-29T11:35:02Z</time>
      </trkpt>
      <trkpt lat="43.15676" lon="0.6224">
        <ele>429.4</ele>
        <time>2025-12-29T11:35:03Z</time>
      </trkpt>
      <trkpt lat="43.15674" lon="0.62235">
        <ele>429.4</ele>
        <time>2025-12-29T11:35:04Z</time>
      </trkpt>
      <trkpt lat="43.15673" lon="0.6223">
        <ele>429.4</ele>
        <time>2025-12-29T11:35:05Z</time>
      </trkpt>
      <trkpt lat="43.15671" lon="0.62225">
        <ele>429.8</ele>
        <time>2025-12-29T11:35:06Z</time>
      </trkpt>
      <trkpt lat="43.15669" lon="0.6222">
        <ele>429.8</ele>
        <time>2025-12-29T11:35:07Z</time>
      </trkpt>
      <trkpt lat="43.15668" lon="0.62215">
        <ele>429.8</ele>
        <time>2025-12-29T11:35:08Z</time>
      </trkpt>
      <trkpt lat="43.15666" lon="0.62211">
        <ele>430.8</ele>
        <time>2025-12-29T11:35:09Z</time>
      </trkpt>
      <trkpt lat="43.15664" lon="0.62206">
        <ele>430.6</ele>
        <time>2025-12-29T11:35:10Z</time>
      </trkpt>
      <trkpt lat="43.15662" lon="0.62202">
        <ele>430.6</ele>
        <time>2025-12-29T11:35:11Z</time>
      </trkpt>
      <trkpt lat="43.15661" lon="0.62197">
        <ele>430.6</ele>
        <time>2025-12-29T11:35:12Z</time>
      </trkpt>
      <trkpt lat="43.15659" lon="0.62192">
        <ele>430.6</ele>
        <time>2025-12-29T11:35:13Z</time>
      </trkpt>
      <trkpt lat="43.15657" lon="0.62187">
        <ele>430.8</ele>
        <time>2025-12-29T11:35:14Z</time>
      </trkpt>
      <trkpt lat="43.15656" lon="0.62182">
        <ele>430.8</ele>
        <time>2025-12-29T11:35:15Z</time>
      </trkpt>
      <trkpt lat="43.15655" lon="0.62177">
        <ele>430.8</ele>
        <time>2025-12-29T11:35:16Z</time>
      </trkpt>
      <trkpt lat="43.15653" lon="0.62173">
        <ele>430.8</ele>
        <time>2025-12-29T11:35:17Z</time>
      </trkpt>
      <trkpt lat="43.15652" lon="0.62169">
        <ele>430.8</ele>
        <time>2025-12-29T11:35:18Z</time>
      </trkpt>
      <trkpt lat="43.15651" lon="0.62164">
        <ele>430.8</ele>
        <time>2025-12-29T11:35:19Z</time>
      </trkpt>
      <trkpt lat="43.1565" lon="0.62159">
        <ele>430.8</ele>
        <time>2025-12-29T11:35:20Z</time>
      </trkpt>
      <trkpt lat="43.15649" lon="0.62154">
        <ele>430.8</ele>
        <time>2025-12-29T11:35:21Z</time>
      </trkpt>
      <trkpt lat="43.15649" lon="0.62149">
        <ele>431.2</ele>
        <time>2025-12-29T11:35:22Z</time>
      </trkpt>
      <trkpt lat="43.15648" lon="0.62144">
        <ele>431.2</ele>
        <time>2025-12-29T11:35:23Z</time>
      </trkpt>
      <trkpt lat="43.15648" lon="0.62138">
        <ele>431.2</ele>
        <time>2025-12-29T11:35:24Z</time>
      </trkpt>
      <trkpt lat="43.15648" lon="0.62133">
        <ele>431.2</ele>
        <time>2025-12-29T11:35:25Z</time>
      </trkpt>
      <trkpt lat="43.15647" lon="0.62127">
        <ele>431</ele>
        <time>2025-12-29T11:35:26Z</time>
      </trkpt>
      <trkpt lat="43.15647" lon="0.62122">
        <ele>431</ele>
        <time>2025-12-29T11:35:27Z</time>
      </trkpt>
      <trkpt lat="43.15646" lon="0.62116">
        <ele>431</ele>
        <time>2025-12-29T11:35:28Z</time>
      </trkpt>
      <trkpt lat="43.15645" lon="0.6211">
        <ele>431</ele>
        <time>2025-12-29T11:35:29Z</time>
      </trkpt>
      <trkpt lat="43.15645" lon="0.62105">
        <ele>432</ele>
        <time>2025-12-29T11:35:30Z</time>
      </trkpt>
      <trkpt lat="43.15645" lon="0.62099">
        <ele>432</ele>
        <time>2025-12-29T11:35:31Z</time>
      </trkpt>
      <trkpt lat="43.15645" lon="0.62093">
        <ele>432</ele>
        <time>2025-12-29T11:35:32Z</time>
      </trkpt>
      <trkpt lat="43.15644" lon="0.62087">
        <ele>432</ele>
        <time>2025-12-29T11:35:33Z</time>
      </trkpt>
      <trkpt lat="43.15644" lon="0.62082">
        <ele>431.4</ele>
        <time>2025-12-29T11:35:34Z</time>
      </trkpt>
      <trkpt lat="43.15644" lon="0.62076">
        <ele>431.4</ele>
        <time>2025-12-29T11:35:35Z</time>
      </trkpt>
      <trkpt lat="43.15644" lon="0.6207">
        <ele>431.4</ele>
        <time>2025-12-29T11:35:36Z</time>
      </trkpt>
      <trkpt lat="43.15644" lon="0.62065">
        <ele>432.4</ele>
        <time>2025-12-29T11:35:37Z</time>
      </trkpt>
      <trkpt lat="43.15644" lon="0.62059">
        <ele>432.4</ele>
        <time>2025-12-29T11:35:38Z</time>
      </trkpt>
      <trkpt lat="43.15644" lon="0.62053">
        <ele>432.4</ele>
        <time>2025-12-29T11:35:39Z</time>
      </trkpt>
      <trkpt lat="43.15644" lon="0.62048">
        <ele>432.4</ele>
        <time>2025-12-29T11:35:40Z</time>
      </trkpt>
      <trkpt lat="43.15643" lon="0.62042">
        <ele>432.4</ele>
        <time>2025-12-29T11:35:41Z</time>
      </trkpt>
      <trkpt lat="43.15643" lon="0.62037">
        <ele>432.8</ele>
        <time>2025-12-29T11:35:42Z</time>
      </trkpt>
      <trkpt lat="43.15642" lon="0.62032">
        <ele>432.8</ele>
        <time>2025-12-29T11:35:43Z</time>
      </trkpt>
      <trkpt lat="43.15641" lon="0.62027">
        <ele>432.8</ele>
        <time>2025-12-29T11:35:44Z</time>
      </trkpt>
      <trkpt lat="43.15639" lon="0.62022">
        <ele>432.8</ele>
        <time>2025-12-29T11:35:45Z</time>
      </trkpt>
      <trkpt lat="43.15638" lon="0.62017">
        <ele>433</ele>
        <time>2025-12-29T11:35:46Z</time>
      </trkpt>
      <trkpt lat="43.15636" lon="0.62012">
        <ele>433</ele>
        <time>2025-12-29T11:35:47Z</time>
      </trkpt>
      <trkpt lat="43.15635" lon="0.62007">
        <ele>433</ele>
        <time>2025-12-29T11:35:48Z</time>
      </trkpt>
      <trkpt lat="43.15633" lon="0.62003">
        <ele>433</ele>
        <time>2025-12-29T11:35:49Z</time>
      </trkpt>
      <trkpt lat="43.15631" lon="0.61999">
        <ele>433.6</ele>
        <time>2025-12-29T11:35:50Z</time>
      </trkpt>
      <trkpt lat="43.1563" lon="0.61994">
        <ele>433.6</ele>
        <time>2025-12-29T11:35:51Z</time>
      </trkpt>
      <trkpt lat="43.15628" lon="0.6199">
        <ele>433.6</ele>
        <time>2025-12-29T11:35:52Z</time>
      </trkpt>
      <trkpt lat="43.15626" lon="0.61986">
        <ele>433.6</ele>
        <time>2025-12-29T11:35:53Z</time>
      </trkpt>
      <trkpt lat="43.15625" lon="0.61982">
        <ele>434</ele>
        <time>2025-12-29T11:35:54Z</time>
      </trkpt>
      <trkpt lat="43.15623" lon="0.61977">
        <ele>434</ele>
        <time>2025-12-29T11:35:55Z</time>
      </trkpt>
      <trkpt lat="43.15622" lon="0.61973">
        <ele>434</ele>
        <time>2025-12-29T11:35:56Z</time>
      </trkpt>
      <trkpt lat="43.1562" lon="0.61969">
        <ele>433.4</ele>
        <time>2025-12-29T11:35:57Z</time>
      </trkpt>
      <trkpt lat="43.15619" lon="0.61965">
        <ele>434</ele>
        <time>2025-12-29T11:35:58Z</time>
      </trkpt>
      <trkpt lat="43.15617" lon="0.61961">
        <ele>434</ele>
        <time>2025-12-29T11:35:59Z</time>
      </trkpt>
      <trkpt lat="43.15616" lon="0.61957">
        <ele>434</ele>
        <time>2025-12-29T11:36:00Z</time>
      </trkpt>
      <trkpt lat="43.15614" lon="0.61953">
        <ele>435</ele>
        <time>2025-12-29T11:36:01Z</time>
      </trkpt>
      <trkpt lat="43.15613" lon="0.61949">
        <ele>434.6</ele>
        <time>2025-12-29T11:36:02Z</time>
      </trkpt>
      <trkpt lat="43.15611" lon="0.61945">
        <ele>434.6</ele>
        <time>2025-12-29T11:36:03Z</time>
      </trkpt>
      <trkpt lat="43.1561" lon="0.61941">
        <ele>434.6</ele>
        <time>2025-12-29T11:36:04Z</time>
      </trkpt>
      <trkpt lat="43.15608" lon="0.61937">
        <ele>434.6</ele>
        <time>2025-12-29T11:36:05Z</time>
      </trkpt>
      <trkpt lat="43.15607" lon="0.61932">
        <ele>434.6</ele>
        <time>2025-12-29T11:36:06Z</time>
      </trkpt>
      <trkpt lat="43.15606" lon="0.61928">
        <ele>434.6</ele>
        <time>2025-12-29T11:36:07Z</time>
      </trkpt>
      <trkpt lat="43.15604" lon="0.61924">
        <ele>434.6</ele>
        <time>2025-12-29T11:36:08Z</time>
      </trkpt>
      <trkpt lat="43.15603" lon="0.61919">
        <ele>434.6</ele>
        <time>2025-12-29T11:36:09Z</time>
      </trkpt>
      <trkpt lat="43.15601" lon="0.61915">
        <ele>435.8</ele>
        <time>2025-12-29T11:36:10Z</time>
      </trkpt>
      <trkpt lat="43.156" lon="0.61911">
        <ele>435.8</ele>
        <time>2025-12-29T11:36:11Z</time>
      </trkpt>
      <trkpt lat="43.15598" lon="0.61906">
        <ele>435.8</ele>
        <time>2025-12-29T11:36:12Z</time>
      </trkpt>
      <trkpt lat="43.15596" lon="0.61902">
        <ele>435.8</ele>
        <time>2025-12-29T11:36:13Z</time>
      </trkpt>
      <trkpt lat="43.15595" lon="0.61897">
        <ele>435</ele>
        <time>2025-12-29T11:36:14Z</time>
      </trkpt>
      <trkpt lat="43.15593" lon="0.61892">
        <ele>435</ele>
        <time>2025-12-29T11:36:15Z</time>
      </trkpt>
      <trkpt lat="43.15591" lon="0.61888">
        <ele>435</ele>
        <time>2025-12-29T11:36:16Z</time>
      </trkpt>
      <trkpt lat="43.1559" lon="0.61883">
        <ele>435</ele>
        <time>2025-12-29T11:36:17Z</time>
      </trkpt>
      <trkpt lat="43.15588" lon="0.61878">
        <ele>435</ele>
        <time>2025-12-29T11:36:18Z</time>
      </trkpt>
      <trkpt lat="43.15586" lon="0.61874">
        <ele>435</ele>
        <time>2025-12-29T11:36:19Z</time>
      </trkpt>
      <trkpt lat="43.15585" lon="0.61869">
        <ele>435</ele>
        <time>2025-12-29T11:36:20Z</time>
      </trkpt>
      <trkpt lat="43.15583" lon="0.61865">
        <ele>435</ele>
        <time>2025-12-29T11:36:21Z</time>
      </trkpt>
      <trkpt lat="43.15581" lon="0.6186">
        <ele>436</ele>
        <time>2025-12-29T11:36:22Z</time>
      </trkpt>
      <trkpt lat="43.15579" lon="0.61855">
        <ele>436</ele>
        <time>2025-12-29T11:36:23Z</time>
      </trkpt>
      <trkpt lat="43.15578" lon="0.61851">
        <ele>436</ele>
        <time>2025-12-29T11:36:24Z</time>
      </trkpt>
      <trkpt lat="43.15576" lon="0.61846">
        <ele>435.4</ele>
        <time>2025-12-29T11:36:25Z</time>
      </trkpt>
      <trkpt lat="43.15574" lon="0.61842">
        <ele>436.4</ele>
        <time>2025-12-29T11:36:26Z</time>
      </trkpt>
      <trkpt lat="43.15573" lon="0.61837">
        <ele>436.4</ele>
        <time>2025-12-29T11:36:27Z</time>
      </trkpt>
      <trkpt lat="43.15571" lon="0.61833">
        <ele>436.4</ele>
        <time>2025-12-29T11:36:28Z</time>
      </trkpt>
      <trkpt lat="43.1557" lon="0.61828">
        <ele>436.4</ele>
        <time>2025-12-29T11:36:29Z</time>
      </trkpt>
      <trkpt lat="43.15568" lon="0.61823">
        <ele>435.8</ele>
        <time>2025-12-29T11:36:30Z</time>
      </trkpt>
      <trkpt lat="43.15567" lon="0.61818">
        <ele>435.8</ele>
        <time>2025-12-29T11:36:31Z</time>
      </trkpt>
      <trkpt lat="43.15566" lon="0.61813">
        <ele>435.8</ele>
        <time>2025-12-29T11:36:32Z</time>
      </trkpt>
      <trkpt lat="43.15565" lon="0.61808">
        <ele>436.8</ele>
        <time>2025-12-29T11:36:33Z</time>
      </trkpt>
      <trkpt lat="43.15564" lon="0.61804">
        <ele>436.6</ele>
        <time>2025-12-29T11:36:34Z</time>
      </trkpt>
      <trkpt lat="43.15563" lon="0.61799">
        <ele>436.6</ele>
        <time>2025-12-29T11:36:35Z</time>
      </trkpt>
      <trkpt lat="43.15561" lon="0.61794">
        <ele>436.6</ele>
        <time>2025-12-29T11:36:36Z</time>
      </trkpt>
      <trkpt lat="43.1556" lon="0.61789">
        <ele>436.6</ele>
        <time>2025-12-29T11:36:37Z</time>
      </trkpt>
      <trkpt lat="43.15559" lon="0.61784">
        <ele>435.4</ele>
        <time>2025-12-29T11:36:38Z</time>
      </trkpt>
      <trkpt lat="43.15558" lon="0.61779">
        <ele>435.4</ele>
        <time>2025-12-29T11:36:39Z</time>
      </trkpt>
      <trkpt lat="43.15557" lon="0.61774">
        <ele>435.4</ele>
        <time>2025-12-29T11:36:40Z</time>
      </trkpt>
      <trkpt lat="43.15556" lon="0.6177">
        <ele>436.4</ele>
        <time>2025-12-29T11:36:41Z</time>
      </trkpt>
      <trkpt lat="43.15555" lon="0.61765">
        <ele>435.6</ele>
        <time>2025-12-29T11:36:42Z</time>
      </trkpt>
      <trkpt lat="43.15554" lon="0.6176">
        <ele>435.6</ele>
        <time>2025-12-29T11:36:43Z</time>
      </trkpt>
      <trkpt lat="43.15553" lon="0.61756">
        <ele>435.6</ele>
        <time>2025-12-29T11:36:44Z</time>
      </trkpt>
      <trkpt lat="43.15551" lon="0.61751">
        <ele>435.6</ele>
        <time>2025-12-29T11:36:45Z</time>
      </trkpt>
      <trkpt lat="43.1555" lon="0.61746">
        <ele>436.2</ele>
        <time>2025-12-29T11:36:46Z</time>
      </trkpt>
      <trkpt lat="43.15548" lon="0.61741">
        <ele>436.2</ele>
        <time>2025-12-29T11:36:47Z</time>
      </trkpt>
      <trkpt lat="43.15546" lon="0.61737">
        <ele>436.2</ele>
        <time>2025-12-29T11:36:48Z</time>
      </trkpt>
      <trkpt lat="43.15544" lon="0.61732">
        <ele>436.2</ele>
        <time>2025-12-29T11:36:49Z</time>
      </trkpt>
      <trkpt lat="43.15543" lon="0.61727">
        <ele>436.4</ele>
        <time>2025-12-29T11:36:50Z</time>
      </trkpt>
      <trkpt lat="43.15541" lon="0.61723">
        <ele>436.4</ele>
        <time>2025-12-29T11:36:51Z</time>
      </trkpt>
      <trkpt lat="43.15539" lon="0.61718">
        <ele>436.4</ele>
        <time>2025-12-29T11:36:52Z</time>
      </trkpt>
      <trkpt lat="43.15537" lon="0.61713">
        <ele>436.6</ele>
        <time>2025-12-29T11:36:53Z</time>
      </trkpt>
      <trkpt lat="43.15535" lon="0.61709">
        <ele>437.6</ele>
        <time>2025-12-29T11:36:54Z</time>
      </trkpt>
      <trkpt lat="43.15534" lon="0.61704">
        <ele>437.6</ele>
        <time>2025-12-29T11:36:55Z</time>
      </trkpt>
      <trkpt lat="43.15532" lon="0.617">
        <ele>437.6</ele>
        <time>2025-12-29T11:36:56Z</time>
      </trkpt>
      <trkpt lat="43.1553" lon="0.61695">
        <ele>437.2</ele>
        <time>2025-12-29T11:36:57Z</time>
      </trkpt>
      <trkpt lat="43.15528" lon="0.61691">
        <ele>436.2</ele>
        <time>2025-12-29T11:36:58Z</time>
      </trkpt>
      <trkpt lat="43.15526" lon="0.61686">
        <ele>436.2</ele>
        <time>2025-12-29T11:36:59Z</time>
      </trkpt>
      <trkpt lat="43.15524" lon="0.61682">
        <ele>436.2</ele>
        <time>2025-12-29T11:37:00Z</time>
      </trkpt>
      <trkpt lat="43.15522" lon="0.61678">
        <ele>437.2</ele>
        <time>2025-12-29T11:37:01Z</time>
      </trkpt>
      <trkpt lat="43.1552" lon="0.61673">
        <ele>437.8</ele>
        <time>2025-12-29T11:37:02Z</time>
      </trkpt>
      <trkpt lat="43.15518" lon="0.61669">
        <ele>437.8</ele>
        <time>2025-12-29T11:37:03Z</time>
      </trkpt>
      <trkpt lat="43.15516" lon="0.61665">
        <ele>437.8</ele>
        <time>2025-12-29T11:37:04Z</time>
      </trkpt>
      <trkpt lat="43.15514" lon="0.61661">
        <ele>437.8</ele>
        <time>2025-12-29T11:37:05Z</time>
      </trkpt>
      <trkpt lat="43.15511" lon="0.61657">
        <ele>437.8</ele>
        <time>2025-12-29T11:37:06Z</time>
      </trkpt>
      <trkpt lat="43.15509" lon="0.61653">
        <ele>437.8</ele>
        <time>2025-12-29T11:37:07Z</time>
      </trkpt>
      <trkpt lat="43.15507" lon="0.61649">
        <ele>437.8</ele>
        <time>2025-12-29T11:37:08Z</time>
      </trkpt>
      <trkpt lat="43.15504" lon="0.61645">
        <ele>437.8</ele>
        <time>2025-12-29T11:37:09Z</time>
      </trkpt>
      <trkpt lat="43.15501" lon="0.61641">
        <ele>437.8</ele>
        <time>2025-12-29T11:37:10Z</time>
      </trkpt>
      <trkpt lat="43.15499" lon="0.61637">
        <ele>437.8</ele>
        <time>2025-12-29T11:37:11Z</time>
      </trkpt>
      <trkpt lat="43.15496" lon="0.61634">
        <ele>437.8</ele>
        <time>2025-12-29T11:37:12Z</time>
      </trkpt>
      <trkpt lat="43.15493" lon="0.6163">
        <ele>437.8</ele>
        <time>2025-12-29T11:37:13Z</time>
      </trkpt>
      <trkpt lat="43.1549" lon="0.61626">
        <ele>437.4</ele>
        <time>2025-12-29T11:37:14Z</time>
      </trkpt>
      <trkpt lat="43.15487" lon="0.61623">
        <ele>437.4</ele>
        <time>2025-12-29T11:37:15Z</time>
      </trkpt>
      <trkpt lat="43.15484" lon="0.61619">
        <ele>437.4</ele>
        <time>2025-12-29T11:37:16Z</time>
      </trkpt>
      <trkpt lat="43.15481" lon="0.61615">
        <ele>437.4</ele>
        <time>2025-12-29T11:37:17Z</time>
      </trkpt>
      <trkpt lat="43.15478" lon="0.61611">
        <ele>438.2</ele>
        <time>2025-12-29T11:37:18Z</time>
      </trkpt>
      <trkpt lat="43.15476" lon="0.61607">
        <ele>438.2</ele>
        <time>2025-12-29T11:37:19Z</time>
      </trkpt>
      <trkpt lat="43.15473" lon="0.61604">
        <ele>438.2</ele>
        <time>2025-12-29T11:37:20Z</time>
      </trkpt>
      <trkpt lat="43.1547" lon="0.616">
        <ele>437.8</ele>
        <time>2025-12-29T11:37:21Z</time>
      </trkpt>
      <trkpt lat="43.15467" lon="0.61596">
        <ele>438.4</ele>
        <time>2025-12-29T11:37:22Z</time>
      </trkpt>
      <trkpt lat="43.15464" lon="0.61592">
        <ele>438.4</ele>
        <time>2025-12-29T11:37:23Z</time>
      </trkpt>
      <trkpt lat="43.15461" lon="0.61588">
        <ele>438.4</ele>
        <time>2025-12-29T11:37:24Z</time>
      </trkpt>
      <trkpt lat="43.15459" lon="0.61583">
        <ele>438.4</ele>
        <time>2025-12-29T11:37:25Z</time>
      </trkpt>
      <trkpt lat="43.15456" lon="0.61579">
        <ele>437.4</ele>
        <time>2025-12-29T11:37:26Z</time>
      </trkpt>
      <trkpt lat="43.15453" lon="0.61574">
        <ele>437.4</ele>
        <time>2025-12-29T11:37:27Z</time>
      </trkpt>
      <trkpt lat="43.15451" lon="0.6157">
        <ele>437.4</ele>
        <time>2025-12-29T11:37:28Z</time>
      </trkpt>
      <trkpt lat="43.15449" lon="0.61565">
        <ele>437.8</ele>
        <time>2025-12-29T11:37:29Z</time>
      </trkpt>
      <trkpt lat="43.15447" lon="0.61561">
        <ele>438.2</ele>
        <time>2025-12-29T11:37:30Z</time>
      </trkpt>
      <trkpt lat="43.15444" lon="0.61556">
        <ele>438.2</ele>
        <time>2025-12-29T11:37:31Z</time>
      </trkpt>
      <trkpt lat="43.15442" lon="0.61552">
        <ele>438.2</ele>
        <time>2025-12-29T11:37:32Z</time>
      </trkpt>
      <trkpt lat="43.15439" lon="0.61547">
        <ele>438</ele>
        <time>2025-12-29T11:37:33Z</time>
      </trkpt>
      <trkpt lat="43.15437" lon="0.61543">
        <ele>438.2</ele>
        <time>2025-12-29T11:37:34Z</time>
      </trkpt>
      <trkpt lat="43.15435" lon="0.61538">
        <ele>438.2</ele>
        <time>2025-12-29T11:37:35Z</time>
      </trkpt>
      <trkpt lat="43.15433" lon="0.61534">
        <ele>438.2</ele>
        <time>2025-12-29T11:37:36Z</time>
      </trkpt>
      <trkpt lat="43.1543" lon="0.61529">
        <ele>438.2</ele>
        <time>2025-12-29T11:37:37Z</time>
      </trkpt>
      <trkpt lat="43.15428" lon="0.61525">
        <ele>438.4</ele>
        <time>2025-12-29T11:37:38Z</time>
      </trkpt>
      <trkpt lat="43.15426" lon="0.6152">
        <ele>438.4</ele>
        <time>2025-12-29T11:37:39Z</time>
      </trkpt>
      <trkpt lat="43.15423" lon="0.61516">
        <ele>438.4</ele>
        <time>2025-12-29T11:37:40Z</time>
      </trkpt>
      <trkpt lat="43.15421" lon="0.61511">
        <ele>438.4</ele>
        <time>2025-12-29T11:37:41Z</time>
      </trkpt>
      <trkpt lat="43.15419" lon="0.61507">
        <ele>438.2</ele>
        <time>2025-12-29T11:37:42Z</time>
      </trkpt>
      <trkpt lat="43.15416" lon="0.61502">
        <ele>438.2</ele>
        <time>2025-12-29T11:37:43Z</time>
      </trkpt>
      <trkpt lat="43.15414" lon="0.61497">
        <ele>438.2</ele>
        <time>2025-12-29T11:37:44Z</time>
      </trkpt>
      <trkpt lat="43.15413" lon="0.61492">
        <ele>438.2</ele>
        <time>2025-12-29T11:37:45Z</time>
      </trkpt>
      <trkpt lat="43.15411" lon="0.61487">
        <ele>438.8</ele>
        <time>2025-12-29T11:37:46Z</time>
      </trkpt>
      <trkpt lat="43.15409" lon="0.61482">
        <ele>438.8</ele>
        <time>2025-12-29T11:37:47Z</time>
      </trkpt>
      <trkpt lat="43.15408" lon="0.61477">
        <ele>438.8</ele>
        <time>2025-12-29T11:37:48Z</time>
      </trkpt>
      <trkpt lat="43.15406" lon="0.61473">
        <ele>438.4</ele>
        <time>2025-12-29T11:37:49Z</time>
      </trkpt>
      <trkpt lat="43.15405" lon="0.61468">
        <ele>439</ele>
        <time>2025-12-29T11:37:50Z</time>
      </trkpt>
      <trkpt lat="43.15403" lon="0.61462">
        <ele>439</ele>
        <time>2025-12-29T11:37:51Z</time>
      </trkpt>
      <trkpt lat="43.15402" lon="0.61457">
        <ele>439</ele>
        <time>2025-12-29T11:37:52Z</time>
      </trkpt>
      <trkpt lat="43.15401" lon="0.61452">
        <ele>438.8</ele>
        <time>2025-12-29T11:37:53Z</time>
      </trkpt>
      <trkpt lat="43.154" lon="0.61447">
        <ele>438.8</ele>
        <time>2025-12-29T11:37:54Z</time>
      </trkpt>
      <trkpt lat="43.15399" lon="0.61442">
        <ele>438.8</ele>
        <time>2025-12-29T11:37:55Z</time>
      </trkpt>
      <trkpt lat="43.15398" lon="0.61437">
        <ele>438.8</ele>
        <time>2025-12-29T11:37:56Z</time>
      </trkpt>
      <trkpt lat="43.15396" lon="0.61431">
        <ele>438.8</ele>
        <time>2025-12-29T11:37:57Z</time>
      </trkpt>
      <trkpt lat="43.15395" lon="0.61426">
        <ele>439.2</ele>
        <time>2025-12-29T11:37:58Z</time>
      </trkpt>
      <trkpt lat="43.15394" lon="0.61421">
        <ele>439.2</ele>
        <time>2025-12-29T11:37:59Z</time>
      </trkpt>
      <trkpt lat="43.15393" lon="0.61415">
        <ele>439.2</ele>
        <time>2025-12-29T11:38:00Z</time>
      </trkpt>
      <trkpt lat="43.15391" lon="0.6141">
        <ele>439.2</ele>
        <time>2025-12-29T11:38:01Z</time>
      </trkpt>
      <trkpt lat="43.1539" lon="0.61405">
        <ele>438.4</ele>
        <time>2025-12-29T11:38:02Z</time>
      </trkpt>
      <trkpt lat="43.15389" lon="0.61399">
        <ele>438.4</ele>
        <time>2025-12-29T11:38:03Z</time>
      </trkpt>
      <trkpt lat="43.15388" lon="0.61394">
        <ele>438.4</ele>
        <time>2025-12-29T11:38:04Z</time>
      </trkpt>
      <trkpt lat="43.15387" lon="0.61389">
        <ele>438.6</ele>
        <time>2025-12-29T11:38:05Z</time>
      </trkpt>
      <trkpt lat="43.15385" lon="0.61383">
        <ele>439</ele>
        <time>2025-12-29T11:38:06Z</time>
      </trkpt>
      <trkpt lat="43.15384" lon="0.61378">
        <ele>439</ele>
        <time>2025-12-29T11:38:07Z</time>
      </trkpt>
      <trkpt lat="43.15383" lon="0.61373">
        <ele>439</ele>
        <time>2025-12-29T11:38:08Z</time>
      </trkpt>
      <trkpt lat="43.15382" lon="0.61368">
        <ele>439.8</ele>
        <time>2025-12-29T11:38:09Z</time>
      </trkpt>
      <trkpt lat="43.15381" lon="0.61363">
        <ele>439.4</ele>
        <time>2025-12-29T11:38:10Z</time>
      </trkpt>
      <trkpt lat="43.15379" lon="0.61358">
        <ele>439.4</ele>
        <time>2025-12-29T11:38:11Z</time>
      </trkpt>
      <trkpt lat="43.15378" lon="0.61353">
        <ele>439.4</ele>
        <time>2025-12-29T11:38:12Z</time>
      </trkpt>
      <trkpt lat="43.15377" lon="0.61348">
        <ele>439.4</ele>
        <time>2025-12-29T11:38:13Z</time>
      </trkpt>
      <trkpt lat="43.15375" lon="0.61343">
        <ele>439.8</ele>
        <time>2025-12-29T11:38:14Z</time>
      </trkpt>
      <trkpt lat="43.15374" lon="0.61338">
        <ele>439.8</ele>
        <time>2025-12-29T11:38:15Z</time>
      </trkpt>
      <trkpt lat="43.15372" lon="0.61333">
        <ele>439.8</ele>
        <time>2025-12-29T11:38:16Z</time>
      </trkpt>
      <trkpt lat="43.15371" lon="0.61328">
        <ele>439.8</ele>
        <time>2025-12-29T11:38:17Z</time>
      </trkpt>
      <trkpt lat="43.1537" lon="0.61323">
        <ele>440.2</ele>
        <time>2025-12-29T11:38:18Z</time>
      </trkpt>
      <trkpt lat="43.15368" lon="0.61318">
        <ele>440.2</ele>
        <time>2025-12-29T11:38:19Z</time>
      </trkpt>
      <trkpt lat="43.15366" lon="0.61313">
        <ele>440.2</ele>
        <time>2025-12-29T11:38:20Z</time>
      </trkpt>
      <trkpt lat="43.15365" lon="0.61308">
        <ele>439.6</ele>
        <time>2025-12-29T11:38:21Z</time>
      </trkpt>
      <trkpt lat="43.15363" lon="0.61303">
        <ele>439.8</ele>
        <time>2025-12-29T11:38:22Z</time>
      </trkpt>
      <trkpt lat="43.15361" lon="0.61298">
        <ele>439.8</ele>
        <time>2025-12-29T11:38:23Z</time>
      </trkpt>
      <trkpt lat="43.1536" lon="0.61293">
        <ele>439.8</ele>
        <time>2025-12-29T11:38:24Z</time>
      </trkpt>
      <trkpt lat="43.15358" lon="0.61288">
        <ele>439.8</ele>
        <time>2025-12-29T11:38:25Z</time>
      </trkpt>
      <trkpt lat="43.15356" lon="0.61283">
        <ele>440</ele>
        <time>2025-12-29T11:38:26Z</time>
      </trkpt>
      <trkpt lat="43.15354" lon="0.61278">
        <ele>440</ele>
        <time>2025-12-29T11:38:27Z</time>
      </trkpt>
      <trkpt lat="43.15352" lon="0.61273">
        <ele>440</ele>
        <time>2025-12-29T11:38:28Z</time>
      </trkpt>
      <trkpt lat="43.1535" lon="0.61268">
        <ele>440</ele>
        <time>2025-12-29T11:38:29Z</time>
      </trkpt>
      <trkpt lat="43.15348" lon="0.61264">
        <ele>440.2</ele>
        <time>2025-12-29T11:38:30Z</time>
      </trkpt>
      <trkpt lat="43.15346" lon="0.61259">
        <ele>440.2</ele>
        <time>2025-12-29T11:38:31Z</time>
      </trkpt>
      <trkpt lat="43.15344" lon="0.61255">
        <ele>440.2</ele>
        <time>2025-12-29T11:38:32Z</time>
      </trkpt>
      <trkpt lat="43.15342" lon="0.6125">
        <ele>440.2</ele>
        <time>2025-12-29T11:38:33Z</time>
      </trkpt>
      <trkpt lat="43.1534" lon="0.61246">
        <ele>439.4</ele>
        <time>2025-12-29T11:38:34Z</time>
      </trkpt>
      <trkpt lat="43.15338" lon="0.61241">
        <ele>439.4</ele>
        <time>2025-12-29T11:38:35Z</time>
      </trkpt>
      <trkpt lat="43.15336" lon="0.61236">
        <ele>439.4</ele>
        <time>2025-12-29T11:38:36Z</time>
      </trkpt>
      <trkpt lat="43.15334" lon="0.61231">
        <ele>439.4</ele>
        <time>2025-12-29T11:38:37Z</time>
      </trkpt>
      <trkpt lat="43.15332" lon="0.61226">
        <ele>439.8</ele>
        <time>2025-12-29T11:38:38Z</time>
      </trkpt>
      <trkpt lat="43.1533" lon="0.61221">
        <ele>439.8</ele>
        <time>2025-12-29T11:38:39Z</time>
      </trkpt>
      <trkpt lat="43.15328" lon="0.61216">
        <ele>439.8</ele>
        <time>2025-12-29T11:38:40Z</time>
      </trkpt>
      <trkpt lat="43.15326" lon="0.61211">
        <ele>439.8</ele>
        <time>2025-12-29T11:38:41Z</time>
      </trkpt>
      <trkpt lat="43.15324" lon="0.61205">
        <ele>439</ele>
        <time>2025-12-29T11:38:42Z</time>
      </trkpt>
      <trkpt lat="43.15322" lon="0.61199">
        <ele>439</ele>
        <time>2025-12-29T11:38:43Z</time>
      </trkpt>
      <trkpt lat="43.15321" lon="0.61193">
        <ele>439</ele>
        <time>2025-12-29T11:38:44Z</time>
      </trkpt>
      <trkpt lat="43.1532" lon="0.61187">
        <ele>439</ele>
        <time>2025-12-29T11:38:45Z</time>
      </trkpt>
      <trkpt lat="43.15318" lon="0.61181">
        <ele>439.2</ele>
        <time>2025-12-29T11:38:46Z</time>
      </trkpt>
      <trkpt lat="43.15317" lon="0.61175">
        <ele>439.2</ele>
        <time>2025-12-29T11:38:47Z</time>
      </trkpt>
      <trkpt lat="43.15316" lon="0.61169">
        <ele>439.2</ele>
        <time>2025-12-29T11:38:48Z</time>
      </trkpt>
      <trkpt lat="43.15315" lon="0.61163">
        <ele>439.2</ele>
        <time>2025-12-29T11:38:49Z</time>
      </trkpt>
      <trkpt lat="43.15315" lon="0.61158">
        <ele>438.6</ele>
        <time>2025-12-29T11:38:50Z</time>
      </trkpt>
      <trkpt lat="43.15314" lon="0.61152">
        <ele>438.6</ele>
        <time>2025-12-29T11:38:51Z</time>
      </trkpt>
      <trkpt lat="43.15313" lon="0.61146">
        <ele>438.6</ele>
        <time>2025-12-29T11:38:52Z</time>
      </trkpt>
      <trkpt lat="43.15312" lon="0.6114">
        <ele>439.6</ele>
        <time>2025-12-29T11:38:53Z</time>
      </trkpt>
      <trkpt lat="43.15312" lon="0.61135">
        <ele>439.4</ele>
        <time>2025-12-29T11:38:54Z</time>
      </trkpt>
      <trkpt lat="43.15311" lon="0.61129">
        <ele>439.4</ele>
        <time>2025-12-29T11:38:55Z</time>
      </trkpt>
      <trkpt lat="43.15311" lon="0.61124">
        <ele>439.4</ele>
        <time>2025-12-29T11:38:56Z</time>
      </trkpt>
      <trkpt lat="43.15311" lon="0.61118">
        <ele>439.4</ele>
        <time>2025-12-29T11:38:57Z</time>
      </trkpt>
      <trkpt lat="43.1531" lon="0.61112">
        <ele>439</ele>
        <time>2025-12-29T11:38:58Z</time>
      </trkpt>
      <trkpt lat="43.1531" lon="0.61106">
        <ele>439</ele>
        <time>2025-12-29T11:38:59Z</time>
      </trkpt>
      <trkpt lat="43.15309" lon="0.611">
        <ele>439</ele>
        <time>2025-12-29T11:39:00Z</time>
      </trkpt>
      <trkpt lat="43.15309" lon="0.61094">
        <ele>439</ele>
        <time>2025-12-29T11:39:01Z</time>
      </trkpt>
      <trkpt lat="43.15308" lon="0.61088">
        <ele>439.6</ele>
        <time>2025-12-29T11:39:02Z</time>
      </trkpt>
      <trkpt lat="43.15308" lon="0.61083">
        <ele>439.6</ele>
        <time>2025-12-29T11:39:03Z</time>
      </trkpt>
      <trkpt lat="43.15307" lon="0.61077">
        <ele>439.6</ele>
        <time>2025-12-29T11:39:04Z</time>
      </trkpt>
      <trkpt lat="43.15306" lon="0.61072">
        <ele>440.2</ele>
        <time>2025-12-29T11:39:05Z</time>
      </trkpt>
      <trkpt lat="43.15305" lon="0.61067">
        <ele>439.8</ele>
        <time>2025-12-29T11:39:06Z</time>
      </trkpt>
      <trkpt lat="43.15304" lon="0.61062">
        <ele>439.8</ele>
        <time>2025-12-29T11:39:07Z</time>
      </trkpt>
      <trkpt lat="43.15302" lon="0.61057">
        <ele>439.8</ele>
        <time>2025-12-29T11:39:08Z</time>
      </trkpt>
      <trkpt lat="43.15301" lon="0.61052">
        <ele>440.8</ele>
        <time>2025-12-29T11:39:09Z</time>
      </trkpt>
      <trkpt lat="43.153" lon="0.61047">
        <ele>440</ele>
        <time>2025-12-29T11:39:10Z</time>
      </trkpt>
      <trkpt lat="43.15299" lon="0.61043">
        <ele>440</ele>
        <time>2025-12-29T11:39:11Z</time>
      </trkpt>
      <trkpt lat="43.15297" lon="0.61038">
        <ele>440</ele>
        <time>2025-12-29T11:39:12Z</time>
      </trkpt>
      <trkpt lat="43.15296" lon="0.61034">
        <ele>441</ele>
        <time>2025-12-29T11:39:13Z</time>
      </trkpt>
      <trkpt lat="43.15295" lon="0.61029">
        <ele>441</ele>
        <time>2025-12-29T11:39:14Z</time>
      </trkpt>
      <trkpt lat="43.15294" lon="0.61025">
        <ele>441</ele>
        <time>2025-12-29T11:39:15Z</time>
      </trkpt>
      <trkpt lat="43.15293" lon="0.6102">
        <ele>441</ele>
        <time>2025-12-29T11:39:16Z</time>
      </trkpt>
      <trkpt lat="43.15292" lon="0.61016">
        <ele>441</ele>
        <time>2025-12-29T11:39:17Z</time>
      </trkpt>
      <trkpt lat="43.15291" lon="0.61011">
        <ele>441.6</ele>
        <time>2025-12-29T11:39:18Z</time>
      </trkpt>
      <trkpt lat="43.1529" lon="0.61007">
        <ele>441.6</ele>
        <time>2025-12-29T11:39:19Z</time>
      </trkpt>
      <trkpt lat="43.15289" lon="0.61003">
        <ele>441.6</ele>
        <time>2025-12-29T11:39:20Z</time>
      </trkpt>
      <trkpt lat="43.15288" lon="0.60999">
        <ele>442.6</ele>
        <time>2025-12-29T11:39:21Z</time>
      </trkpt>
      <trkpt lat="43.15287" lon="0.60996">
        <ele>443</ele>
        <time>2025-12-29T11:39:22Z</time>
      </trkpt>
      <trkpt lat="43.15287" lon="0.60993">
        <ele>443</ele>
        <time>2025-12-29T11:39:23Z</time>
      </trkpt>
      <trkpt lat="43.15287" lon="0.60991">
        <ele>443</ele>
        <time>2025-12-29T11:39:24Z</time>
      </trkpt>
      <trkpt lat="43.15286" lon="0.6099">
        <ele>443</ele>
        <time>2025-12-29T11:39:25Z</time>
      </trkpt>
      <trkpt lat="43.15286" lon="0.6099">
        <ele>443.4</ele>
        <time>2025-12-29T11:39:26Z</time>
      </trkpt>
      <trkpt lat="43.15286" lon="0.6099">
        <ele>443.4</ele>
        <time>2025-12-29T11:39:27Z</time>
      </trkpt>
      <trkpt lat="43.15285" lon="0.60984">
        <ele>443.8</ele>
        <time>2025-12-29T11:40:16Z</time>
      </trkpt>
      <trkpt lat="43.15284" lon="0.60982">
        <ele>443.8</ele>
        <time>2025-12-29T11:40:17Z</time>
      </trkpt>
      <trkpt lat="43.15283" lon="0.60979">
        <ele>443.4</ele>
        <time>2025-12-29T11:40:18Z</time>
      </trkpt>
      <trkpt lat="43.15282" lon="0.60977">
        <ele>443.4</ele>
        <time>2025-12-29T11:40:19Z</time>
      </trkpt>
      <trkpt lat="43.15281" lon="0.60976">
        <ele>443.4</ele>
        <time>2025-12-29T11:40:20Z</time>
      </trkpt>
      <trkpt lat="43.15281" lon="0.60975">
        <ele>443.4</ele>
        <time>2025-12-29T11:40:21Z</time>
      </trkpt>
      <trkpt lat="43.15281" lon="0.60975">
        <ele>443.2</ele>
        <time>2025-12-29T11:40:22Z</time>
      </trkpt>
      <trkpt lat="43.15275" lon="0.60969">
        <ele>444.2</ele>
        <time>2025-12-29T11:47:19Z</time>
      </trkpt>
      <trkpt lat="43.15274" lon="0.60967">
        <ele>444.2</ele>
        <time>2025-12-29T11:47:20Z</time>
      </trkpt>
      <trkpt lat="43.15273" lon="0.60965">
        <ele>443.6</ele>
        <time>2025-12-29T11:47:21Z</time>
      </trkpt>
      <trkpt lat="43.15271" lon="0.60963">
        <ele>444</ele>
        <time>2025-12-29T11:47:22Z</time>
      </trkpt>
      <trkpt lat="43.1527" lon="0.60961">
        <ele>444</ele>
        <time>2025-12-29T11:47:23Z</time>
      </trkpt>
      <trkpt lat="43.15269" lon="0.60959">
        <ele>444</ele>
        <time>2025-12-29T11:47:24Z</time>
      </trkpt>
      <trkpt lat="43.15268" lon="0.60957">
        <ele>444</ele>
        <time>2025-12-29T11:47:25Z</time>
      </trkpt>
      <trkpt lat="43.15266" lon="0.60954">
        <ele>443.4</ele>
        <time>2025-12-29T11:47:26Z</time>
      </trkpt>
      <trkpt lat="43.15265" lon="0.60951">
        <ele>443.4</ele>
        <time>2025-12-29T11:47:27Z</time>
      </trkpt>
      <trkpt lat="43.15264" lon="0.60948">
        <ele>443.4</ele>
        <time>2025-12-29T11:47:28Z</time>
      </trkpt>
      <trkpt lat="43.15263" lon="0.60945">
        <ele>444</ele>
        <time>2025-12-29T11:47:29Z</time>
      </trkpt>
      <trkpt lat="43.15261" lon="0.60942">
        <ele>444.6</ele>
        <time>2025-12-29T11:47:30Z</time>
      </trkpt>
      <trkpt lat="43.1526" lon="0.60939">
        <ele>444.6</ele>
        <time>2025-12-29T11:47:31Z</time>
      </trkpt>
      <trkpt lat="43.15258" lon="0.60935">
        <ele>444.6</ele>
        <time>2025-12-29T11:47:32Z</time>
      </trkpt>
      <trkpt lat="43.15257" lon="0.60931">
        <ele>444.6</ele>
        <time>2025-12-29T11:47:33Z</time>
      </trkpt>
      <trkpt lat="43.15256" lon="0.60928">
        <ele>444.4</ele>
        <time>2025-12-29T11:47:34Z</time>
      </trkpt>
      <trkpt lat="43.15254" lon="0.60924">
        <ele>444.4</ele>
        <time>2025-12-29T11:47:35Z</time>
      </trkpt>
      <trkpt lat="43.15253" lon="0.6092">
        <ele>444.4</ele>
        <time>2025-12-29T11:47:36Z</time>
      </trkpt>
      <trkpt lat="43.15251" lon="0.60916">
        <ele>444.4</ele>
        <time>2025-12-29T11:47:37Z</time>
      </trkpt>
      <trkpt lat="43.1525" lon="0.60911">
        <ele>444</ele>
        <time>2025-12-29T11:47:38Z</time>
      </trkpt>
      <trkpt lat="43.15248" lon="0.60908">
        <ele>444</ele>
        <time>2025-12-29T11:47:39Z</time>
      </trkpt>
      <trkpt lat="43.15247" lon="0.60904">
        <ele>444</ele>
        <time>2025-12-29T11:47:40Z</time>
      </trkpt>
      <trkpt lat="43.15246" lon="0.609">
        <ele>444.4</ele>
        <time>2025-12-29T11:47:41Z</time>
      </trkpt>
      <trkpt lat="43.15245" lon="0.60896">
        <ele>443.6</ele>
        <time>2025-12-29T11:47:42Z</time>
      </trkpt>
      <trkpt lat="43.15244" lon="0.60892">
        <ele>443.6</ele>
        <time>2025-12-29T11:47:43Z</time>
      </trkpt>
      <trkpt lat="43.15244" lon="0.60887">
        <ele>443.6</ele>
        <time>2025-12-29T11:47:44Z</time>
      </trkpt>
      <trkpt lat="43.15243" lon="0.60883">
        <ele>444.6</ele>
        <time>2025-12-29T11:47:45Z</time>
      </trkpt>
      <trkpt lat="43.15242" lon="0.60878">
        <ele>445</ele>
        <time>2025-12-29T11:47:46Z</time>
      </trkpt>
      <trkpt lat="43.15241" lon="0.60874">
        <ele>445</ele>
        <time>2025-12-29T11:47:47Z</time>
      </trkpt>
      <trkpt lat="43.15241" lon="0.60869">
        <ele>445</ele>
        <time>2025-12-29T11:47:48Z</time>
      </trkpt>
      <trkpt lat="43.1524" lon="0.60865">
        <ele>444</ele>
        <time>2025-12-29T11:47:49Z</time>
      </trkpt>
      <trkpt lat="43.15239" lon="0.60861">
        <ele>444.4</ele>
        <time>2025-12-29T11:47:50Z</time>
      </trkpt>
      <trkpt lat="43.15239" lon="0.60856">
        <ele>444.4</ele>
        <time>2025-12-29T11:47:51Z</time>
      </trkpt>
      <trkpt lat="43.15238" lon="0.60852">
        <ele>444.4</ele>
        <time>2025-12-29T11:47:52Z</time>
      </trkpt>
      <trkpt lat="43.15237" lon="0.60847">
        <ele>444.4</ele>
        <time>2025-12-29T11:47:53Z</time>
      </trkpt>
      <trkpt lat="43.15236" lon="0.60843">
        <ele>444.8</ele>
        <time>2025-12-29T11:47:54Z</time>
      </trkpt>
      <trkpt lat="43.15236" lon="0.60838">
        <ele>444.8</ele>
        <time>2025-12-29T11:47:55Z</time>
      </trkpt>
      <trkpt lat="43.15235" lon="0.60834">
        <ele>444.8</ele>
        <time>2025-12-29T11:47:56Z</time>
      </trkpt>
      <trkpt lat="43.15234" lon="0.60829">
        <ele>444.8</ele>
        <time>2025-12-29T11:47:57Z</time>
      </trkpt>
      <trkpt lat="43.15232" lon="0.60824">
        <ele>444.6</ele>
        <time>2025-12-29T11:47:58Z</time>
      </trkpt>
      <trkpt lat="43.15231" lon="0.60819">
        <ele>444.6</ele>
        <time>2025-12-29T11:47:59Z</time>
      </trkpt>
      <trkpt lat="43.1523" lon="0.60814">
        <ele>444.6</ele>
        <time>2025-12-29T11:48:00Z</time>
      </trkpt>
      <trkpt lat="43.1523" lon="0.60809">
        <ele>445.2</ele>
        <time>2025-12-29T11:48:01Z</time>
      </trkpt>
      <trkpt lat="43.15229" lon="0.60805">
        <ele>445.2</ele>
        <time>2025-12-29T11:48:02Z</time>
      </trkpt>
      <trkpt lat="43.15228" lon="0.608">
        <ele>445.2</ele>
        <time>2025-12-29T11:48:03Z</time>
      </trkpt>
      <trkpt lat="43.15227" lon="0.60795">
        <ele>445.2</ele>
        <time>2025-12-29T11:48:04Z</time>
      </trkpt>
      <trkpt lat="43.15226" lon="0.6079">
        <ele>445.2</ele>
        <time>2025-12-29T11:48:05Z</time>
      </trkpt>
      <trkpt lat="43.15225" lon="0.60785">
        <ele>445</ele>
        <time>2025-12-29T11:48:06Z</time>
      </trkpt>
      <trkpt lat="43.15223" lon="0.6078">
        <ele>445</ele>
        <time>2025-12-29T11:48:07Z</time>
      </trkpt>
      <trkpt lat="43.15222" lon="0.60775">
        <ele>445</ele>
        <time>2025-12-29T11:48:08Z</time>
      </trkpt>
      <trkpt lat="43.15221" lon="0.6077">
        <ele>445.2</ele>
        <time>2025-12-29T11:48:09Z</time>
      </trkpt>
      <trkpt lat="43.1522" lon="0.60765">
        <ele>446</ele>
        <time>2025-12-29T11:48:10Z</time>
      </trkpt>
      <trkpt lat="43.15219" lon="0.60761">
        <ele>446</ele>
        <time>2025-12-29T11:48:11Z</time>
      </trkpt>
      <trkpt lat="43.15218" lon="0.60756">
        <ele>446</ele>
        <time>2025-12-29T11:48:12Z</time>
      </trkpt>
      <trkpt lat="43.15217" lon="0.60751">
        <ele>445.2</ele>
        <time>2025-12-29T11:48:13Z</time>
      </trkpt>
      <trkpt lat="43.15216" lon="0.60746">
        <ele>446</ele>
        <time>2025-12-29T11:48:14Z</time>
      </trkpt>
      <trkpt lat="43.15215" lon="0.60741">
        <ele>446</ele>
        <time>2025-12-29T11:48:15Z</time>
      </trkpt>
      <trkpt lat="43.15214" lon="0.60737">
        <ele>446</ele>
        <time>2025-12-29T11:48:16Z</time>
      </trkpt>
      <trkpt lat="43.15213" lon="0.60732">
        <ele>446</ele>
        <time>2025-12-29T11:48:17Z</time>
      </trkpt>
      <trkpt lat="43.15212" lon="0.60727">
        <ele>445.6</ele>
        <time>2025-12-29T11:48:18Z</time>
      </trkpt>
      <trkpt lat="43.15212" lon="0.60723">
        <ele>445.6</ele>
        <time>2025-12-29T11:48:19Z</time>
      </trkpt>
      <trkpt lat="43.15211" lon="0.60719">
        <ele>445.6</ele>
        <time>2025-12-29T11:48:20Z</time>
      </trkpt>
      <trkpt lat="43.15211" lon="0.60715">
        <ele>446.6</ele>
        <time>2025-12-29T11:48:21Z</time>
      </trkpt>
      <trkpt lat="43.1521" lon="0.60712">
        <ele>447</ele>
        <time>2025-12-29T11:48:22Z</time>
      </trkpt>
      <trkpt lat="43.15209" lon="0.60708">
        <ele>447</ele>
        <time>2025-12-29T11:48:23Z</time>
      </trkpt>
      <trkpt lat="43.15209" lon="0.60705">
        <ele>447</ele>
        <time>2025-12-29T11:48:24Z</time>
      </trkpt>
      <trkpt lat="43.15208" lon="0.60702">
        <ele>446.8</ele>
        <time>2025-12-29T11:48:25Z</time>
      </trkpt>
      <trkpt lat="43.15207" lon="0.60698">
        <ele>447.2</ele>
        <time>2025-12-29T11:48:26Z</time>
      </trkpt>
      <trkpt lat="43.15206" lon="0.60694">
        <ele>447.2</ele>
        <time>2025-12-29T11:48:27Z</time>
      </trkpt>
      <trkpt lat="43.15205" lon="0.6069">
        <ele>447.2</ele>
        <time>2025-12-29T11:48:28Z</time>
      </trkpt>
      <trkpt lat="43.15204" lon="0.60686">
        <ele>447</ele>
        <time>2025-12-29T11:48:29Z</time>
      </trkpt>
      <trkpt lat="43.15203" lon="0.60681">
        <ele>446.4</ele>
        <time>2025-12-29T11:48:30Z</time>
      </trkpt>
      <trkpt lat="43.15202" lon="0.60677">
        <ele>446.4</ele>
        <time>2025-12-29T11:48:31Z</time>
      </trkpt>
      <trkpt lat="43.15201" lon="0.60673">
        <ele>446.4</ele>
        <time>2025-12-29T11:48:32Z</time>
      </trkpt>
      <trkpt lat="43.152" lon="0.60668">
        <ele>447.4</ele>
        <time>2025-12-29T11:48:33Z</time>
      </trkpt>
      <trkpt lat="43.15199" lon="0.60663">
        <ele>447.2</ele>
        <time>2025-12-29T11:48:34Z</time>
      </trkpt>
      <trkpt lat="43.15198" lon="0.60659">
        <ele>447.2</ele>
        <time>2025-12-29T11:48:35Z</time>
      </trkpt>
      <trkpt lat="43.15196" lon="0.60654">
        <ele>447.2</ele>
        <time>2025-12-29T11:48:36Z</time>
      </trkpt>
      <trkpt lat="43.15195" lon="0.6065">
        <ele>447.2</ele>
        <time>2025-12-29T11:48:37Z</time>
      </trkpt>
      <trkpt lat="43.15194" lon="0.60645">
        <ele>447.6</ele>
        <time>2025-12-29T11:48:38Z</time>
      </trkpt>
      <trkpt lat="43.15193" lon="0.6064">
        <ele>447.6</ele>
        <time>2025-12-29T11:48:39Z</time>
      </trkpt>
      <trkpt lat="43.15192" lon="0.60635">
        <ele>447.6</ele>
        <time>2025-12-29T11:48:40Z</time>
      </trkpt>
      <trkpt lat="43.15191" lon="0.6063">
        <ele>447.4</ele>
        <time>2025-12-29T11:48:41Z</time>
      </trkpt>
      <trkpt lat="43.1519" lon="0.60624">
        <ele>448</ele>
        <time>2025-12-29T11:48:42Z</time>
      </trkpt>
      <trkpt lat="43.1519" lon="0.60619">
        <ele>448</ele>
        <time>2025-12-29T11:48:43Z</time>
      </trkpt>
      <trkpt lat="43.15189" lon="0.60614">
        <ele>448</ele>
        <time>2025-12-29T11:48:44Z</time>
      </trkpt>
      <trkpt lat="43.15188" lon="0.60609">
        <ele>447.2</ele>
        <time>2025-12-29T11:48:45Z</time>
      </trkpt>
      <trkpt lat="43.15187" lon="0.60604">
        <ele>447.6</ele>
        <time>2025-12-29T11:48:46Z</time>
      </trkpt>
      <trkpt lat="43.15186" lon="0.60598">
        <ele>447.6</ele>
        <time>2025-12-29T11:48:47Z</time>
      </trkpt>
      <trkpt lat="43.15185" lon="0.60593">
        <ele>447.6</ele>
        <time>2025-12-29T11:48:48Z</time>
      </trkpt>
      <trkpt lat="43.15184" lon="0.60588">
        <ele>447.6</ele>
        <time>2025-12-29T11:48:49Z</time>
      </trkpt>
      <trkpt lat="43.15183" lon="0.60582">
        <ele>447</ele>
        <time>2025-12-29T11:48:50Z</time>
      </trkpt>
      <trkpt lat="43.15182" lon="0.60577">
        <ele>447</ele>
        <time>2025-12-29T11:48:51Z</time>
      </trkpt>
      <trkpt lat="43.15182" lon="0.60572">
        <ele>447</ele>
        <time>2025-12-29T11:48:52Z</time>
      </trkpt>
      <trkpt lat="43.15181" lon="0.60567">
        <ele>447</ele>
        <time>2025-12-29T11:48:53Z</time>
      </trkpt>
      <trkpt lat="43.1518" lon="0.60562">
        <ele>447.8</ele>
        <time>2025-12-29T11:48:54Z</time>
      </trkpt>
      <trkpt lat="43.15179" lon="0.60557">
        <ele>447.8</ele>
        <time>2025-12-29T11:48:55Z</time>
      </trkpt>
      <trkpt lat="43.15178" lon="0.60551">
        <ele>447.8</ele>
        <time>2025-12-29T11:48:56Z</time>
      </trkpt>
      <trkpt lat="43.15178" lon="0.60546">
        <ele>447.8</ele>
        <time>2025-12-29T11:48:57Z</time>
      </trkpt>
      <trkpt lat="43.15177" lon="0.60541">
        <ele>448.2</ele>
        <time>2025-12-29T11:48:58Z</time>
      </trkpt>
      <trkpt lat="43.15176" lon="0.60535">
        <ele>448.2</ele>
        <time>2025-12-29T11:48:59Z</time>
      </trkpt>
      <trkpt lat="43.15175" lon="0.6053">
        <ele>448.2</ele>
        <time>2025-12-29T11:49:00Z</time>
      </trkpt>
      <trkpt lat="43.15174" lon="0.60525">
        <ele>448.2</ele>
        <time>2025-12-29T11:49:01Z</time>
      </trkpt>
      <trkpt lat="43.15173" lon="0.6052">
        <ele>448.4</ele>
        <time>2025-12-29T11:49:02Z</time>
      </trkpt>
      <trkpt lat="43.15172" lon="0.60516">
        <ele>448.4</ele>
        <time>2025-12-29T11:49:03Z</time>
      </trkpt>
      <trkpt lat="43.15171" lon="0.60512">
        <ele>448.4</ele>
        <time>2025-12-29T11:49:04Z</time>
      </trkpt>
      <trkpt lat="43.15171" lon="0.60509">
        <ele>448.8</ele>
        <time>2025-12-29T11:49:05Z</time>
      </trkpt>
      <trkpt lat="43.1517" lon="0.60506">
        <ele>449</ele>
        <time>2025-12-29T11:49:06Z</time>
      </trkpt>
      <trkpt lat="43.1517" lon="0.60503">
        <ele>449</ele>
        <time>2025-12-29T11:49:07Z</time>
      </trkpt>
      <trkpt lat="43.1517" lon="0.605">
        <ele>449</ele>
        <time>2025-12-29T11:49:08Z</time>
      </trkpt>
      <trkpt lat="43.15171" lon="0.60497">
        <ele>449</ele>
        <time>2025-12-29T11:49:09Z</time>
      </trkpt>
      <trkpt lat="43.1517" lon="0.60495">
        <ele>449.2</ele>
        <time>2025-12-29T11:49:10Z</time>
      </trkpt>
      <trkpt lat="43.1517" lon="0.60492">
        <ele>449.2</ele>
        <time>2025-12-29T11:49:11Z</time>
      </trkpt>
      <trkpt lat="43.1517" lon="0.60489">
        <ele>449.2</ele>
        <time>2025-12-29T11:49:12Z</time>
      </trkpt>
      <trkpt lat="43.1517" lon="0.60485">
        <ele>449</ele>
        <time>2025-12-29T11:49:13Z</time>
      </trkpt>
      <trkpt lat="43.1517" lon="0.60481">
        <ele>449.2</ele>
        <time>2025-12-29T11:49:14Z</time>
      </trkpt>
      <trkpt lat="43.15169" lon="0.60477">
        <ele>449.2</ele>
        <time>2025-12-29T11:49:15Z</time>
      </trkpt>
      <trkpt lat="43.15169" lon="0.60473">
        <ele>449.2</ele>
        <time>2025-12-29T11:49:16Z</time>
      </trkpt>
      <trkpt lat="43.15168" lon="0.60469">
        <ele>448.8</ele>
        <time>2025-12-29T11:49:17Z</time>
      </trkpt>
      <trkpt lat="43.15167" lon="0.60464">
        <ele>448.6</ele>
        <time>2025-12-29T11:49:18Z</time>
      </trkpt>
      <trkpt lat="43.15167" lon="0.6046">
        <ele>448.6</ele>
        <time>2025-12-29T11:49:19Z</time>
      </trkpt>
      <trkpt lat="43.15166" lon="0.60455">
        <ele>448.6</ele>
        <time>2025-12-29T11:49:20Z</time>
      </trkpt>
      <trkpt lat="43.15165" lon="0.6045">
        <ele>448.6</ele>
        <time>2025-12-29T11:49:21Z</time>
      </trkpt>
      <trkpt lat="43.15165" lon="0.60446">
        <ele>449.4</ele>
        <time>2025-12-29T11:49:22Z</time>
      </trkpt>
      <trkpt lat="43.15164" lon="0.60441">
        <ele>449.4</ele>
        <time>2025-12-29T11:49:23Z</time>
      </trkpt>
      <trkpt lat="43.15163" lon="0.60437">
        <ele>449.4</ele>
        <time>2025-12-29T11:49:24Z</time>
      </trkpt>
      <trkpt lat="43.15163" lon="0.60432">
        <ele>448.4</ele>
        <time>2025-12-29T11:49:25Z</time>
      </trkpt>
      <trkpt lat="43.15162" lon="0.60428">
        <ele>449.6</ele>
        <time>2025-12-29T11:49:26Z</time>
      </trkpt>
      <trkpt lat="43.15161" lon="0.60423">
        <ele>449.6</ele>
        <time>2025-12-29T11:49:27Z</time>
      </trkpt>
      <trkpt lat="43.15161" lon="0.60418">
        <ele>449.6</ele>
        <time>2025-12-29T11:49:28Z</time>
      </trkpt>
      <trkpt lat="43.1516" lon="0.60414">
        <ele>449.6</ele>
        <time>2025-12-29T11:49:29Z</time>
      </trkpt>
      <trkpt lat="43.15159" lon="0.60409">
        <ele>449.6</ele>
        <time>2025-12-29T11:49:30Z</time>
      </trkpt>
      <trkpt lat="43.15159" lon="0.60404">
        <ele>449.6</ele>
        <time>2025-12-29T11:49:31Z</time>
      </trkpt>
      <trkpt lat="43.15158" lon="0.60399">
        <ele>449.6</ele>
        <time>2025-12-29T11:49:32Z</time>
      </trkpt>
      <trkpt lat="43.15157" lon="0.60394">
        <ele>449.6</ele>
        <time>2025-12-29T11:49:33Z</time>
      </trkpt>
      <trkpt lat="43.15157" lon="0.60388">
        <ele>449.6</ele>
        <time>2025-12-29T11:49:34Z</time>
      </trkpt>
      <trkpt lat="43.15156" lon="0.60383">
        <ele>449.6</ele>
        <time>2025-12-29T11:49:35Z</time>
      </trkpt>
      <trkpt lat="43.15156" lon="0.60378">
        <ele>449.6</ele>
        <time>2025-12-29T11:49:36Z</time>
      </trkpt>
      <trkpt lat="43.15155" lon="0.60373">
        <ele>450.2</ele>
        <time>2025-12-29T11:49:37Z</time>
      </trkpt>
      <trkpt lat="43.15154" lon="0.60368">
        <ele>449.4</ele>
        <time>2025-12-29T11:49:38Z</time>
      </trkpt>
      <trkpt lat="43.15153" lon="0.60362">
        <ele>449.4</ele>
        <time>2025-12-29T11:49:39Z</time>
      </trkpt>
      <trkpt lat="43.15152" lon="0.60357">
        <ele>449.4</ele>
        <time>2025-12-29T11:49:40Z</time>
      </trkpt>
      <trkpt lat="43.15151" lon="0.60352">
        <ele>449.4</ele>
        <time>2025-12-29T11:49:41Z</time>
      </trkpt>
      <trkpt lat="43.15151" lon="0.60347">
        <ele>450.4</ele>
        <time>2025-12-29T11:49:42Z</time>
      </trkpt>
      <trkpt lat="43.1515" lon="0.60342">
        <ele>450.4</ele>
        <time>2025-12-29T11:49:43Z</time>
      </trkpt>
      <trkpt lat="43.1515" lon="0.60337">
        <ele>450.4</ele>
        <time>2025-12-29T11:49:44Z</time>
      </trkpt>
      <trkpt lat="43.15149" lon="0.60332">
        <ele>449.6</ele>
        <time>2025-12-29T11:49:45Z</time>
      </trkpt>
      <trkpt lat="43.15149" lon="0.60326">
        <ele>449.6</ele>
        <time>2025-12-29T11:49:46Z</time>
      </trkpt>
      <trkpt lat="43.15148" lon="0.60321">
        <ele>449.6</ele>
        <time>2025-12-29T11:49:47Z</time>
      </trkpt>
      <trkpt lat="43.15147" lon="0.60316">
        <ele>449.6</ele>
        <time>2025-12-29T11:49:48Z</time>
      </trkpt>
      <trkpt lat="43.15146" lon="0.60311">
        <ele>450</ele>
        <time>2025-12-29T11:49:49Z</time>
      </trkpt>
      <trkpt lat="43.15146" lon="0.60306">
        <ele>449.6</ele>
        <time>2025-12-29T11:49:50Z</time>
      </trkpt>
      <trkpt lat="43.15145" lon="0.603">
        <ele>449.6</ele>
        <time>2025-12-29T11:49:51Z</time>
      </trkpt>
      <trkpt lat="43.15144" lon="0.60295">
        <ele>449.6</ele>
        <time>2025-12-29T11:49:52Z</time>
      </trkpt>
      <trkpt lat="43.15144" lon="0.6029">
        <ele>449.6</ele>
        <time>2025-12-29T11:49:53Z</time>
      </trkpt>
      <trkpt lat="43.15143" lon="0.60285">
        <ele>449.8</ele>
        <time>2025-12-29T11:49:54Z</time>
      </trkpt>
      <trkpt lat="43.15142" lon="0.6028">
        <ele>449.8</ele>
        <time>2025-12-29T11:49:55Z</time>
      </trkpt>
      <trkpt lat="43.15141" lon="0.60275">
        <ele>449.8</ele>
        <time>2025-12-29T11:49:56Z</time>
      </trkpt>
      <trkpt lat="43.1514" lon="0.6027">
        <ele>449.8</ele>
        <time>2025-12-29T11:49:57Z</time>
      </trkpt>
      <trkpt lat="43.15139" lon="0.60265">
        <ele>449.4</ele>
        <time>2025-12-29T11:49:58Z</time>
      </trkpt>
      <trkpt lat="43.15138" lon="0.6026">
        <ele>449.4</ele>
        <time>2025-12-29T11:49:59Z</time>
      </trkpt>
      <trkpt lat="43.15137" lon="0.60255">
        <ele>449.4</ele>
        <time>2025-12-29T11:50:00Z</time>
      </trkpt>
      <trkpt lat="43.15135" lon="0.6025">
        <ele>450.4</ele>
        <time>2025-12-29T11:50:01Z</time>
      </trkpt>
      <trkpt lat="43.15134" lon="0.60245">
        <ele>450</ele>
        <time>2025-12-29T11:50:02Z</time>
      </trkpt>
      <trkpt lat="43.15133" lon="0.6024">
        <ele>450</ele>
        <time>2025-12-29T11:50:03Z</time>
      </trkpt>
      <trkpt lat="43.15131" lon="0.60235">
        <ele>450</ele>
        <time>2025-12-29T11:50:04Z</time>
      </trkpt>
      <trkpt lat="43.1513" lon="0.60229">
        <ele>450</ele>
        <time>2025-12-29T11:50:05Z</time>
      </trkpt>
      <trkpt lat="43.15128" lon="0.60224">
        <ele>450.8</ele>
        <time>2025-12-29T11:50:06Z</time>
      </trkpt>
      <trkpt lat="43.15127" lon="0.60219">
        <ele>450.8</ele>
        <time>2025-12-29T11:50:07Z</time>
      </trkpt>
      <trkpt lat="43.15126" lon="0.60214">
        <ele>450.8</ele>
        <time>2025-12-29T11:50:08Z</time>
      </trkpt>
      <trkpt lat="43.15124" lon="0.60209">
        <ele>450.8</ele>
        <time>2025-12-29T11:50:09Z</time>
      </trkpt>
      <trkpt lat="43.15123" lon="0.60204">
        <ele>451.2</ele>
        <time>2025-12-29T11:50:10Z</time>
      </trkpt>
      <trkpt lat="43.15122" lon="0.602">
        <ele>451.2</ele>
        <time>2025-12-29T11:50:11Z</time>
      </trkpt>
      <trkpt lat="43.1512" lon="0.60195">
        <ele>451.2</ele>
        <time>2025-12-29T11:50:12Z</time>
      </trkpt>
      <trkpt lat="43.15119" lon="0.6019">
        <ele>451.2</ele>
        <time>2025-12-29T11:50:13Z</time>
      </trkpt>
      <trkpt lat="43.15117" lon="0.60185">
        <ele>451.4</ele>
        <time>2025-12-29T11:50:14Z</time>
      </trkpt>
      <trkpt lat="43.15116" lon="0.60181">
        <ele>451.4</ele>
        <time>2025-12-29T11:50:15Z</time>
      </trkpt>
      <trkpt lat="43.15115" lon="0.60176">
        <ele>451.4</ele>
        <time>2025-12-29T11:50:16Z</time>
      </trkpt>
      <trkpt lat="43.15114" lon="0.60171">
        <ele>451.4</ele>
        <time>2025-12-29T11:50:17Z</time>
      </trkpt>
      <trkpt lat="43.15113" lon="0.60166">
        <ele>451.8</ele>
        <time>2025-12-29T11:50:18Z</time>
      </trkpt>
      <trkpt lat="43.15112" lon="0.60161">
        <ele>451.8</ele>
        <time>2025-12-29T11:50:19Z</time>
      </trkpt>
      <trkpt lat="43.15111" lon="0.60156">
        <ele>451.8</ele>
        <time>2025-12-29T11:50:20Z</time>
      </trkpt>
      <trkpt lat="43.15109" lon="0.60151">
        <ele>451.8</ele>
        <time>2025-12-29T11:50:21Z</time>
      </trkpt>
      <trkpt lat="43.15109" lon="0.60146">
        <ele>451.4</ele>
        <time>2025-12-29T11:50:22Z</time>
      </trkpt>
      <trkpt lat="43.15108" lon="0.60141">
        <ele>451.4</ele>
        <time>2025-12-29T11:50:23Z</time>
      </trkpt>
      <trkpt lat="43.15107" lon="0.60136">
        <ele>451.4</ele>
        <time>2025-12-29T11:50:24Z</time>
      </trkpt>
      <trkpt lat="43.15106" lon="0.60131">
        <ele>451.6</ele>
        <time>2025-12-29T11:50:25Z</time>
      </trkpt>
      <trkpt lat="43.15105" lon="0.60126">
        <ele>451.8</ele>
        <time>2025-12-29T11:50:26Z</time>
      </trkpt>
      <trkpt lat="43.15104" lon="0.6012">
        <ele>451.8</ele>
        <time>2025-12-29T11:50:27Z</time>
      </trkpt>
      <trkpt lat="43.15103" lon="0.60115">
        <ele>451.8</ele>
        <time>2025-12-29T11:50:28Z</time>
      </trkpt>
      <trkpt lat="43.15102" lon="0.6011">
        <ele>451.8</ele>
        <time>2025-12-29T11:50:29Z</time>
      </trkpt>
      <trkpt lat="43.15101" lon="0.60105">
        <ele>452</ele>
        <time>2025-12-29T11:50:30Z</time>
      </trkpt>
      <trkpt lat="43.151" lon="0.601">
        <ele>452</ele>
        <time>2025-12-29T11:50:31Z</time>
      </trkpt>
      <trkpt lat="43.15099" lon="0.60095">
        <ele>452</ele>
        <time>2025-12-29T11:50:32Z</time>
      </trkpt>
      <trkpt lat="43.15098" lon="0.6009">
        <ele>452</ele>
        <time>2025-12-29T11:50:33Z</time>
      </trkpt>
      <trkpt lat="43.15097" lon="0.60085">
        <ele>452.6</ele>
        <time>2025-12-29T11:50:34Z</time>
      </trkpt>
      <trkpt lat="43.15096" lon="0.6008">
        <ele>452.6</ele>
        <time>2025-12-29T11:50:35Z</time>
      </trkpt>
      <trkpt lat="43.15094" lon="0.60075">
        <ele>452.6</ele>
        <time>2025-12-29T11:50:36Z</time>
      </trkpt>
      <trkpt lat="43.15093" lon="0.6007">
        <ele>452.4</ele>
        <time>2025-12-29T11:50:37Z</time>
      </trkpt>
      <trkpt lat="43.15092" lon="0.60065">
        <ele>452</ele>
        <time>2025-12-29T11:50:38Z</time>
      </trkpt>
      <trkpt lat="43.1509" lon="0.60059">
        <ele>452</ele>
        <time>2025-12-29T11:50:39Z</time>
      </trkpt>
      <trkpt lat="43.15088" lon="0.60054">
        <ele>452</ele>
        <time>2025-12-29T11:50:40Z</time>
      </trkpt>
      <trkpt lat="43.15086" lon="0.60049">
        <ele>452</ele>
        <time>2025-12-29T11:50:41Z</time>
      </trkpt>
      <trkpt lat="43.15085" lon="0.60044">
        <ele>452.6</ele>
        <time>2025-12-29T11:50:42Z</time>
      </trkpt>
      <trkpt lat="43.15083" lon="0.6004">
        <ele>452.6</ele>
        <time>2025-12-29T11:50:43Z</time>
      </trkpt>
      <trkpt lat="43.15081" lon="0.60035">
        <ele>452.6</ele>
        <time>2025-12-29T11:50:44Z</time>
      </trkpt>
      <trkpt lat="43.1508" lon="0.6003">
        <ele>452.6</ele>
        <time>2025-12-29T11:50:45Z</time>
      </trkpt>
      <trkpt lat="43.15078" lon="0.60025">
        <ele>452.8</ele>
        <time>2025-12-29T11:50:46Z</time>
      </trkpt>
      <trkpt lat="43.15076" lon="0.60021">
        <ele>452.8</ele>
        <time>2025-12-29T11:50:47Z</time>
      </trkpt>
      <trkpt lat="43.15075" lon="0.60016">
        <ele>452.8</ele>
        <time>2025-12-29T11:50:48Z</time>
      </trkpt>
      <trkpt lat="43.15073" lon="0.60011">
        <ele>452.8</ele>
        <time>2025-12-29T11:50:49Z</time>
      </trkpt>
      <trkpt lat="43.15071" lon="0.60006">
        <ele>452.8</ele>
        <time>2025-12-29T11:50:50Z</time>
      </trkpt>
      <trkpt lat="43.1507" lon="0.60001">
        <ele>452.8</ele>
        <time>2025-12-29T11:50:51Z</time>
      </trkpt>
      <trkpt lat="43.15068" lon="0.59997">
        <ele>452.8</ele>
        <time>2025-12-29T11:50:52Z</time>
      </trkpt>
      <trkpt lat="43.15067" lon="0.59992">
        <ele>452.8</ele>
        <time>2025-12-29T11:50:53Z</time>
      </trkpt>
      <trkpt lat="43.15065" lon="0.59987">
        <ele>453.8</ele>
        <time>2025-12-29T11:50:54Z</time>
      </trkpt>
      <trkpt lat="43.15063" lon="0.59982">
        <ele>453.8</ele>
        <time>2025-12-29T11:50:55Z</time>
      </trkpt>
      <trkpt lat="43.15061" lon="0.59978">
        <ele>453.8</ele>
        <time>2025-12-29T11:50:56Z</time>
      </trkpt>
      <trkpt lat="43.1506" lon="0.59973">
        <ele>453.2</ele>
        <time>2025-12-29T11:50:57Z</time>
      </trkpt>
      <trkpt lat="43.15058" lon="0.59968">
        <ele>454.2</ele>
        <time>2025-12-29T11:50:58Z</time>
      </trkpt>
      <trkpt lat="43.15056" lon="0.59963">
        <ele>454.2</ele>
        <time>2025-12-29T11:50:59Z</time>
      </trkpt>
      <trkpt lat="43.15054" lon="0.59958">
        <ele>454.2</ele>
        <time>2025-12-29T11:51:00Z</time>
      </trkpt>
      <trkpt lat="43.15053" lon="0.59953">
        <ele>453.2</ele>
        <time>2025-12-29T11:51:01Z</time>
      </trkpt>
      <trkpt lat="43.15051" lon="0.59948">
        <ele>453.4</ele>
        <time>2025-12-29T11:51:02Z</time>
      </trkpt>
      <trkpt lat="43.15049" lon="0.59943">
        <ele>453.4</ele>
        <time>2025-12-29T11:51:03Z</time>
      </trkpt>
      <trkpt lat="43.15048" lon="0.59939">
        <ele>453.4</ele>
        <time>2025-12-29T11:51:04Z</time>
      </trkpt>
      <trkpt lat="43.15046" lon="0.59934">
        <ele>453.2</ele>
        <time>2025-12-29T11:51:05Z</time>
      </trkpt>
      <trkpt lat="43.15044" lon="0.59929">
        <ele>452.6</ele>
        <time>2025-12-29T11:51:06Z</time>
      </trkpt>
      <trkpt lat="43.15043" lon="0.59924">
        <ele>452.6</ele>
        <time>2025-12-29T11:51:07Z</time>
      </trkpt>
      <trkpt lat="43.15041" lon="0.5992">
        <ele>452.6</ele>
        <time>2025-12-29T11:51:08Z</time>
      </trkpt>
      <trkpt lat="43.1504" lon="0.59915">
        <ele>453.6</ele>
        <time>2025-12-29T11:51:09Z</time>
      </trkpt>
      <trkpt lat="43.15038" lon="0.5991">
        <ele>453.8</ele>
        <time>2025-12-29T11:51:10Z</time>
      </trkpt>
      <trkpt lat="43.15036" lon="0.59905">
        <ele>453.8</ele>
        <time>2025-12-29T11:51:11Z</time>
      </trkpt>
      <trkpt lat="43.15034" lon="0.59901">
        <ele>453.8</ele>
        <time>2025-12-29T11:51:12Z</time>
      </trkpt>
      <trkpt lat="43.15033" lon="0.59896">
        <ele>453.8</ele>
        <time>2025-12-29T11:51:13Z</time>
      </trkpt>
      <trkpt lat="43.15031" lon="0.59891">
        <ele>454</ele>
        <time>2025-12-29T11:51:14Z</time>
      </trkpt>
      <trkpt lat="43.1503" lon="0.59886">
        <ele>454</ele>
        <time>2025-12-29T11:51:15Z</time>
      </trkpt>
      <trkpt lat="43.15028" lon="0.59881">
        <ele>454</ele>
        <time>2025-12-29T11:51:16Z</time>
      </trkpt>
      <trkpt lat="43.15027" lon="0.59877">
        <ele>454</ele>
        <time>2025-12-29T11:51:17Z</time>
      </trkpt>
      <trkpt lat="43.15026" lon="0.59872">
        <ele>453.6</ele>
        <time>2025-12-29T11:51:18Z</time>
      </trkpt>
      <trkpt lat="43.15024" lon="0.59867">
        <ele>453.6</ele>
        <time>2025-12-29T11:51:19Z</time>
      </trkpt>
      <trkpt lat="43.15023" lon="0.59862">
        <ele>453.6</ele>
        <time>2025-12-29T11:51:20Z</time>
      </trkpt>
      <trkpt lat="43.15022" lon="0.59856">
        <ele>454.4</ele>
        <time>2025-12-29T11:51:21Z</time>
      </trkpt>
      <trkpt lat="43.15021" lon="0.59851">
        <ele>454.8</ele>
        <time>2025-12-29T11:51:22Z</time>
      </trkpt>
      <trkpt lat="43.1502" lon="0.59846">
        <ele>454.8</ele>
        <time>2025-12-29T11:51:23Z</time>
      </trkpt>
      <trkpt lat="43.15018" lon="0.59841">
        <ele>454.8</ele>
        <time>2025-12-29T11:51:24Z</time>
      </trkpt>
      <trkpt lat="43.15017" lon="0.59836">
        <ele>454.4</ele>
        <time>2025-12-29T11:51:25Z</time>
      </trkpt>
      <trkpt lat="43.15016" lon="0.59831">
        <ele>454.6</ele>
        <time>2025-12-29T11:51:26Z</time>
      </trkpt>
      <trkpt lat="43.15015" lon="0.59826">
        <ele>454.6</ele>
        <time>2025-12-29T11:51:27Z</time>
      </trkpt>
      <trkpt lat="43.15014" lon="0.59821">
        <ele>454.6</ele>
        <time>2025-12-29T11:51:28Z</time>
      </trkpt>
      <trkpt lat="43.15012" lon="0.59815">
        <ele>454.6</ele>
        <time>2025-12-29T11:51:29Z</time>
      </trkpt>
      <trkpt lat="43.1501" lon="0.59811">
        <ele>454.6</ele>
        <time>2025-12-29T11:51:30Z</time>
      </trkpt>
      <trkpt lat="43.15008" lon="0.59805">
        <ele>454.6</ele>
        <time>2025-12-29T11:51:31Z</time>
      </trkpt>
      <trkpt lat="43.15006" lon="0.59801">
        <ele>454.6</ele>
        <time>2025-12-29T11:51:32Z</time>
      </trkpt>
      <trkpt lat="43.15004" lon="0.59796">
        <ele>454.2</ele>
        <time>2025-12-29T11:51:33Z</time>
      </trkpt>
      <trkpt lat="43.15001" lon="0.59792">
        <ele>454.4</ele>
        <time>2025-12-29T11:51:34Z</time>
      </trkpt>
      <trkpt lat="43.14999" lon="0.59787">
        <ele>454.4</ele>
        <time>2025-12-29T11:51:35Z</time>
      </trkpt>
      <trkpt lat="43.14996" lon="0.59783">
        <ele>454.4</ele>
        <time>2025-12-29T11:51:36Z</time>
      </trkpt>
      <trkpt lat="43.14994" lon="0.59778">
        <ele>454</ele>
        <time>2025-12-29T11:51:37Z</time>
      </trkpt>
      <trkpt lat="43.14992" lon="0.59773">
        <ele>453.8</ele>
        <time>2025-12-29T11:51:38Z</time>
      </trkpt>
      <trkpt lat="43.1499" lon="0.59769">
        <ele>453.8</ele>
        <time>2025-12-29T11:51:39Z</time>
      </trkpt>
      <trkpt lat="43.14988" lon="0.59764">
        <ele>453.8</ele>
        <time>2025-12-29T11:51:40Z</time>
      </trkpt>
      <trkpt lat="43.14987" lon="0.59759">
        <ele>453.8</ele>
        <time>2025-12-29T11:51:41Z</time>
      </trkpt>
      <trkpt lat="43.14985" lon="0.59754">
        <ele>454.2</ele>
        <time>2025-12-29T11:51:42Z</time>
      </trkpt>
      <trkpt lat="43.14984" lon="0.59749">
        <ele>454.2</ele>
        <time>2025-12-29T11:51:43Z</time>
      </trkpt>
      <trkpt lat="43.14982" lon="0.59744">
        <ele>454.2</ele>
        <time>2025-12-29T11:51:44Z</time>
      </trkpt>
      <trkpt lat="43.14981" lon="0.59739">
        <ele>455</ele>
        <time>2025-12-29T11:51:45Z</time>
      </trkpt>
      <trkpt lat="43.1498" lon="0.59734">
        <ele>454.4</ele>
        <time>2025-12-29T11:51:46Z</time>
      </trkpt>
      <trkpt lat="43.14979" lon="0.59729">
        <ele>454.4</ele>
        <time>2025-12-29T11:51:47Z</time>
      </trkpt>
      <trkpt lat="43.14979" lon="0.59724">
        <ele>454.4</ele>
        <time>2025-12-29T11:51:48Z</time>
      </trkpt>
      <trkpt lat="43.14978" lon="0.59719">
        <ele>455</ele>
        <time>2025-12-29T11:51:49Z</time>
      </trkpt>
      <trkpt lat="43.14977" lon="0.59714">
        <ele>455</ele>
        <time>2025-12-29T11:51:50Z</time>
      </trkpt>
      <trkpt lat="43.14976" lon="0.59709">
        <ele>455</ele>
        <time>2025-12-29T11:51:51Z</time>
      </trkpt>
      <trkpt lat="43.14975" lon="0.59704">
        <ele>455</ele>
        <time>2025-12-29T11:51:52Z</time>
      </trkpt>
      <trkpt lat="43.14974" lon="0.59699">
        <ele>455.8</ele>
        <time>2025-12-29T11:51:53Z</time>
      </trkpt>
      <trkpt lat="43.14973" lon="0.59695">
        <ele>456.2</ele>
        <time>2025-12-29T11:51:54Z</time>
      </trkpt>
      <trkpt lat="43.14972" lon="0.5969">
        <ele>456.2</ele>
        <time>2025-12-29T11:51:55Z</time>
      </trkpt>
      <trkpt lat="43.14971" lon="0.59685">
        <ele>456.2</ele>
        <time>2025-12-29T11:51:56Z</time>
      </trkpt>
      <trkpt lat="43.1497" lon="0.59679">
        <ele>455.2</ele>
        <time>2025-12-29T11:51:57Z</time>
      </trkpt>
      <trkpt lat="43.14969" lon="0.59674">
        <ele>454.8</ele>
        <time>2025-12-29T11:51:58Z</time>
      </trkpt>
      <trkpt lat="43.14968" lon="0.59669">
        <ele>454.8</ele>
        <time>2025-12-29T11:51:59Z</time>
      </trkpt>
      <trkpt lat="43.14967" lon="0.59664">
        <ele>454.8</ele>
        <time>2025-12-29T11:52:00Z</time>
      </trkpt>
      <trkpt lat="43.14966" lon="0.59658">
        <ele>454.8</ele>
        <time>2025-12-29T11:52:01Z</time>
      </trkpt>
      <trkpt lat="43.14965" lon="0.59653">
        <ele>455.2</ele>
        <time>2025-12-29T11:52:02Z</time>
      </trkpt>
      <trkpt lat="43.14964" lon="0.59647">
        <ele>455.2</ele>
        <time>2025-12-29T11:52:03Z</time>
      </trkpt>
      <trkpt lat="43.14963" lon="0.59642">
        <ele>455.2</ele>
        <time>2025-12-29T11:52:04Z</time>
      </trkpt>
      <trkpt lat="43.14962" lon="0.59636">
        <ele>455.2</ele>
        <time>2025-12-29T11:52:05Z</time>
      </trkpt>
      <trkpt lat="43.14962" lon="0.5963">
        <ele>455</ele>
        <time>2025-12-29T11:52:06Z</time>
      </trkpt>
      <trkpt lat="43.14961" lon="0.59625">
        <ele>455</ele>
        <time>2025-12-29T11:52:07Z</time>
      </trkpt>
      <trkpt lat="43.1496" lon="0.59619">
        <ele>455</ele>
        <time>2025-12-29T11:52:08Z</time>
      </trkpt>
      <trkpt lat="43.14959" lon="0.59613">
        <ele>455.6</ele>
        <time>2025-12-29T11:52:09Z</time>
      </trkpt>
      <trkpt lat="43.14958" lon="0.59608">
        <ele>455.4</ele>
        <time>2025-12-29T11:52:10Z</time>
      </trkpt>
      <trkpt lat="43.14958" lon="0.59602">
        <ele>455.4</ele>
        <time>2025-12-29T11:52:11Z</time>
      </trkpt>
      <trkpt lat="43.14957" lon="0.59596">
        <ele>455.4</ele>
        <time>2025-12-29T11:52:12Z</time>
      </trkpt>
      <trkpt lat="43.14956" lon="0.59591">
        <ele>455.4</ele>
        <time>2025-12-29T11:52:13Z</time>
      </trkpt>
      <trkpt lat="43.14956" lon="0.59585">
        <ele>455</ele>
        <time>2025-12-29T11:52:14Z</time>
      </trkpt>
      <trkpt lat="43.14955" lon="0.5958">
        <ele>455</ele>
        <time>2025-12-29T11:52:15Z</time>
      </trkpt>
      <trkpt lat="43.14955" lon="0.59575">
        <ele>455</ele>
        <time>2025-12-29T11:52:16Z</time>
      </trkpt>
      <trkpt lat="43.14954" lon="0.59569">
        <ele>455</ele>
        <time>2025-12-29T11:52:17Z</time>
      </trkpt>
      <trkpt lat="43.14953" lon="0.59564">
        <ele>456.8</ele>
        <time>2025-12-29T11:52:18Z</time>
      </trkpt>
      <trkpt lat="43.14953" lon="0.59558">
        <ele>456.8</ele>
        <time>2025-12-29T11:52:19Z</time>
      </trkpt>
      <trkpt lat="43.14953" lon="0.59553">
        <ele>456.8</ele>
        <time>2025-12-29T11:52:20Z</time>
      </trkpt>
      <trkpt lat="43.14952" lon="0.59548">
        <ele>456.2</ele>
        <time>2025-12-29T11:52:21Z</time>
      </trkpt>
      <trkpt lat="43.14952" lon="0.59543">
        <ele>456.4</ele>
        <time>2025-12-29T11:52:22Z</time>
      </trkpt>
      <trkpt lat="43.14951" lon="0.59538">
        <ele>456.4</ele>
        <time>2025-12-29T11:52:23Z</time>
      </trkpt>
      <trkpt lat="43.14951" lon="0.59533">
        <ele>456.4</ele>
        <time>2025-12-29T11:52:24Z</time>
      </trkpt>
      <trkpt lat="43.14951" lon="0.59528">
        <ele>456.4</ele>
        <time>2025-12-29T11:52:25Z</time>
      </trkpt>
      <trkpt lat="43.14951" lon="0.59523">
        <ele>456</ele>
        <time>2025-12-29T11:52:26Z</time>
      </trkpt>
      <trkpt lat="43.14951" lon="0.59518">
        <ele>456</ele>
        <time>2025-12-29T11:52:27Z</time>
      </trkpt>
      <trkpt lat="43.14951" lon="0.59514">
        <ele>456</ele>
        <time>2025-12-29T11:52:28Z</time>
      </trkpt>
      <trkpt lat="43.14951" lon="0.59509">
        <ele>457</ele>
        <time>2025-12-29T11:52:29Z</time>
      </trkpt>
      <trkpt lat="43.1495" lon="0.59504">
        <ele>457</ele>
        <time>2025-12-29T11:52:30Z</time>
      </trkpt>
      <trkpt lat="43.1495" lon="0.595">
        <ele>457</ele>
        <time>2025-12-29T11:52:31Z</time>
      </trkpt>
      <trkpt lat="43.1495" lon="0.59496">
        <ele>457</ele>
        <time>2025-12-29T11:52:32Z</time>
      </trkpt>
      <trkpt lat="43.14951" lon="0.59491">
        <ele>457</ele>
        <time>2025-12-29T11:52:33Z</time>
      </trkpt>
      <trkpt lat="43.14951" lon="0.59487">
        <ele>457</ele>
        <time>2025-12-29T11:52:34Z</time>
      </trkpt>
      <trkpt lat="43.1495" lon="0.59482">
        <ele>457</ele>
        <time>2025-12-29T11:52:35Z</time>
      </trkpt>
      <trkpt lat="43.1495" lon="0.59477">
        <ele>457</ele>
        <time>2025-12-29T11:52:36Z</time>
      </trkpt>
      <trkpt lat="43.1495" lon="0.59472">
        <ele>457</ele>
        <time>2025-12-29T11:52:37Z</time>
      </trkpt>
      <trkpt lat="43.14949" lon="0.59467">
        <ele>457</ele>
        <time>2025-12-29T11:52:38Z</time>
      </trkpt>
      <trkpt lat="43.14949" lon="0.59461">
        <ele>457</ele>
        <time>2025-12-29T11:52:39Z</time>
      </trkpt>
      <trkpt lat="43.14948" lon="0.59456">
        <ele>457</ele>
        <time>2025-12-29T11:52:40Z</time>
      </trkpt>
      <trkpt lat="43.14948" lon="0.5945">
        <ele>457</ele>
        <time>2025-12-29T11:52:41Z</time>
      </trkpt>
      <trkpt lat="43.14948" lon="0.59445">
        <ele>456.6</ele>
        <time>2025-12-29T11:52:42Z</time>
      </trkpt>
      <trkpt lat="43.14947" lon="0.59439">
        <ele>456.6</ele>
        <time>2025-12-29T11:52:43Z</time>
      </trkpt>
      <trkpt lat="43.14947" lon="0.59433">
        <ele>456.6</ele>
        <time>2025-12-29T11:52:44Z</time>
      </trkpt>
      <trkpt lat="43.14947" lon="0.59428">
        <ele>457.2</ele>
        <time>2025-12-29T11:52:45Z</time>
      </trkpt>
      <trkpt lat="43.14946" lon="0.59422">
        <ele>460.8</ele>
        <time>2025-12-29T11:52:46Z</time>
      </trkpt>
      <trkpt lat="43.14946" lon="0.59417">
        <ele>460.8</ele>
        <time>2025-12-29T11:52:47Z</time>
      </trkpt>
      <trkpt lat="43.14946" lon="0.59411">
        <ele>460.8</ele>
        <time>2025-12-29T11:52:48Z</time>
      </trkpt>
      <trkpt lat="43.14946" lon="0.59406">
        <ele>459.8</ele>
        <time>2025-12-29T11:52:49Z</time>
      </trkpt>
      <trkpt lat="43.14946" lon="0.59401">
        <ele>457</ele>
        <time>2025-12-29T11:52:50Z</time>
      </trkpt>
      <trkpt lat="43.14946" lon="0.59395">
        <ele>457</ele>
        <time>2025-12-29T11:52:51Z</time>
      </trkpt>
      <trkpt lat="43.14946" lon="0.5939">
        <ele>457</ele>
        <time>2025-12-29T11:52:52Z</time>
      </trkpt>
      <trkpt lat="43.14946" lon="0.59385">
        <ele>457</ele>
        <time>2025-12-29T11:52:53Z</time>
      </trkpt>
      <trkpt lat="43.14946" lon="0.5938">
        <ele>457.2</ele>
        <time>2025-12-29T11:52:54Z</time>
      </trkpt>
      <trkpt lat="43.14945" lon="0.59374">
        <ele>457.2</ele>
        <time>2025-12-29T11:52:55Z</time>
      </trkpt>
      <trkpt lat="43.14945" lon="0.59369">
        <ele>457.2</ele>
        <time>2025-12-29T11:52:56Z</time>
      </trkpt>
      <trkpt lat="43.14945" lon="0.59364">
        <ele>457.2</ele>
        <time>2025-12-29T11:52:57Z</time>
      </trkpt>
      <trkpt lat="43.14945" lon="0.59358">
        <ele>457</ele>
        <time>2025-12-29T11:52:58Z</time>
      </trkpt>
      <trkpt lat="43.14945" lon="0.59353">
        <ele>457</ele>
        <time>2025-12-29T11:52:59Z</time>
      </trkpt>
      <trkpt lat="43.14945" lon="0.59348">
        <ele>457</ele>
        <time>2025-12-29T11:53:00Z</time>
      </trkpt>
      <trkpt lat="43.14945" lon="0.59342">
        <ele>457</ele>
        <time>2025-12-29T11:53:01Z</time>
      </trkpt>
      <trkpt lat="43.14946" lon="0.59337">
        <ele>456.2</ele>
        <time>2025-12-29T11:53:02Z</time>
      </trkpt>
      <trkpt lat="43.14946" lon="0.5933">
        <ele>456.2</ele>
        <time>2025-12-29T11:53:03Z</time>
      </trkpt>
      <trkpt lat="43.14946" lon="0.59324">
        <ele>456.2</ele>
        <time>2025-12-29T11:53:04Z</time>
      </trkpt>
      <trkpt lat="43.14945" lon="0.59317">
        <ele>455.2</ele>
        <time>2025-12-29T11:53:05Z</time>
      </trkpt>
      <trkpt lat="43.14944" lon="0.5931">
        <ele>454.8</ele>
        <time>2025-12-29T11:53:06Z</time>
      </trkpt>
      <trkpt lat="43.14942" lon="0.59302">
        <ele>454.8</ele>
        <time>2025-12-29T11:53:07Z</time>
      </trkpt>
      <trkpt lat="43.1494" lon="0.59295">
        <ele>454.8</ele>
        <time>2025-12-29T11:53:08Z</time>
      </trkpt>
      <trkpt lat="43.14937" lon="0.59288">
        <ele>454.8</ele>
        <time>2025-12-29T11:53:09Z</time>
      </trkpt>
      <trkpt lat="43.14935" lon="0.59282">
        <ele>451.2</ele>
        <time>2025-12-29T11:53:10Z</time>
      </trkpt>
      <trkpt lat="43.14932" lon="0.59276">
        <ele>451.2</ele>
        <time>2025-12-29T11:53:11Z</time>
      </trkpt>
      <trkpt lat="43.1493" lon="0.5927">
        <ele>451.2</ele>
        <time>2025-12-29T11:53:12Z</time>
      </trkpt>
      <trkpt lat="43.14928" lon="0.59265">
        <ele>452.2</ele>
        <time>2025-12-29T11:53:13Z</time>
      </trkpt>
      <trkpt lat="43.14926" lon="0.59261">
        <ele>455</ele>
        <time>2025-12-29T11:53:14Z</time>
      </trkpt>
      <trkpt lat="43.14924" lon="0.59256">
        <ele>455</ele>
        <time>2025-12-29T11:53:15Z</time>
      </trkpt>
      <trkpt lat="43.14923" lon="0.5925">
        <ele>455</ele>
        <time>2025-12-29T11:53:16Z</time>
      </trkpt>
      <trkpt lat="43.14921" lon="0.59245">
        <ele>455.8</ele>
        <time>2025-12-29T11:53:17Z</time>
      </trkpt>
      <trkpt lat="43.1492" lon="0.5924">
        <ele>456</ele>
        <time>2025-12-29T11:53:18Z</time>
      </trkpt>
      <trkpt lat="43.14919" lon="0.59235">
        <ele>456</ele>
        <time>2025-12-29T11:53:19Z</time>
      </trkpt>
      <trkpt lat="43.14917" lon="0.59229">
        <ele>456</ele>
        <time>2025-12-29T11:53:20Z</time>
      </trkpt>
      <trkpt lat="43.14916" lon="0.59224">
        <ele>456</ele>
        <time>2025-12-29T11:53:21Z</time>
      </trkpt>
      <trkpt lat="43.14915" lon="0.59219">
        <ele>456.4</ele>
        <time>2025-12-29T11:53:22Z</time>
      </trkpt>
      <trkpt lat="43.14914" lon="0.59214">
        <ele>456.4</ele>
        <time>2025-12-29T11:53:23Z</time>
      </trkpt>
      <trkpt lat="43.14913" lon="0.59209">
        <ele>456.4</ele>
        <time>2025-12-29T11:53:24Z</time>
      </trkpt>
      <trkpt lat="43.14913" lon="0.59204">
        <ele>456.4</ele>
        <time>2025-12-29T11:53:25Z</time>
      </trkpt>
      <trkpt lat="43.14912" lon="0.59198">
        <ele>457</ele>
        <time>2025-12-29T11:53:26Z</time>
      </trkpt>
      <trkpt lat="43.14911" lon="0.59193">
        <ele>457</ele>
        <time>2025-12-29T11:53:27Z</time>
      </trkpt>
      <trkpt lat="43.1491" lon="0.59188">
        <ele>457</ele>
        <time>2025-12-29T11:53:28Z</time>
      </trkpt>
      <trkpt lat="43.14909" lon="0.59182">
        <ele>457</ele>
        <time>2025-12-29T11:53:29Z</time>
      </trkpt>
      <trkpt lat="43.14908" lon="0.59176">
        <ele>456.6</ele>
        <time>2025-12-29T11:53:30Z</time>
      </trkpt>
      <trkpt lat="43.14908" lon="0.59171">
        <ele>456.6</ele>
        <time>2025-12-29T11:53:31Z</time>
      </trkpt>
      <trkpt lat="43.14908" lon="0.59165">
        <ele>456.6</ele>
        <time>2025-12-29T11:53:32Z</time>
      </trkpt>
      <trkpt lat="43.14909" lon="0.59159">
        <ele>456.6</ele>
        <time>2025-12-29T11:53:33Z</time>
      </trkpt>
      <trkpt lat="43.14909" lon="0.59155">
        <ele>456.4</ele>
        <time>2025-12-29T11:53:34Z</time>
      </trkpt>
      <trkpt lat="43.1491" lon="0.59151">
        <ele>456.4</ele>
        <time>2025-12-29T11:53:35Z</time>
      </trkpt>
      <trkpt lat="43.1491" lon="0.59147">
        <ele>456.4</ele>
        <time>2025-12-29T11:53:36Z</time>
      </trkpt>
      <trkpt lat="43.1491" lon="0.59143">
        <ele>456.6</ele>
        <time>2025-12-29T11:53:37Z</time>
      </trkpt>
      <trkpt lat="43.14911" lon="0.59138">
        <ele>457.2</ele>
        <time>2025-12-29T11:53:38Z</time>
      </trkpt>
      <trkpt lat="43.14912" lon="0.59133">
        <ele>457.2</ele>
        <time>2025-12-29T11:53:39Z</time>
      </trkpt>
      <trkpt lat="43.14912" lon="0.59128">
        <ele>457.2</ele>
        <time>2025-12-29T11:53:40Z</time>
      </trkpt>
      <trkpt lat="43.14912" lon="0.59123">
        <ele>456.8</ele>
        <time>2025-12-29T11:53:41Z</time>
      </trkpt>
      <trkpt lat="43.14912" lon="0.59117">
        <ele>455.6</ele>
        <time>2025-12-29T11:53:42Z</time>
      </trkpt>
      <trkpt lat="43.14912" lon="0.59112">
        <ele>455.6</ele>
        <time>2025-12-29T11:53:43Z</time>
      </trkpt>
      <trkpt lat="43.14912" lon="0.59106">
        <ele>455.6</ele>
        <time>2025-12-29T11:53:44Z</time>
      </trkpt>
      <trkpt lat="43.14912" lon="0.59101">
        <ele>456.6</ele>
        <time>2025-12-29T11:53:45Z</time>
      </trkpt>
      <trkpt lat="43.14912" lon="0.59096">
        <ele>456.6</ele>
        <time>2025-12-29T11:53:46Z</time>
      </trkpt>
      <trkpt lat="43.14912" lon="0.59091">
        <ele>456.6</ele>
        <time>2025-12-29T11:53:47Z</time>
      </trkpt>
      <trkpt lat="43.14912" lon="0.59085">
        <ele>456.6</ele>
        <time>2025-12-29T11:53:48Z</time>
      </trkpt>
      <trkpt lat="43.14912" lon="0.5908">
        <ele>456.6</ele>
        <time>2025-12-29T11:53:49Z</time>
      </trkpt>
      <trkpt lat="43.14911" lon="0.59074">
        <ele>456.2</ele>
        <time>2025-12-29T11:53:50Z</time>
      </trkpt>
      <trkpt lat="43.1491" lon="0.59068">
        <ele>456.2</ele>
        <time>2025-12-29T11:53:51Z</time>
      </trkpt>
      <trkpt lat="43.14909" lon="0.59062">
        <ele>456.2</ele>
        <time>2025-12-29T11:53:52Z</time>
      </trkpt>
      <trkpt lat="43.14909" lon="0.59057">
        <ele>456.2</ele>
        <time>2025-12-29T11:53:53Z</time>
      </trkpt>
      <trkpt lat="43.14909" lon="0.59052">
        <ele>457.4</ele>
        <time>2025-12-29T11:53:54Z</time>
      </trkpt>
      <trkpt lat="43.14908" lon="0.59047">
        <ele>457.4</ele>
        <time>2025-12-29T11:53:55Z</time>
      </trkpt>
      <trkpt lat="43.14907" lon="0.59042">
        <ele>457.4</ele>
        <time>2025-12-29T11:53:56Z</time>
      </trkpt>
      <trkpt lat="43.14907" lon="0.59038">
        <ele>457.4</ele>
        <time>2025-12-29T11:53:57Z</time>
      </trkpt>
      <trkpt lat="43.14906" lon="0.59034">
        <ele>457</ele>
        <time>2025-12-29T11:53:58Z</time>
      </trkpt>
      <trkpt lat="43.14906" lon="0.5903">
        <ele>457</ele>
        <time>2025-12-29T11:53:59Z</time>
      </trkpt>
      <trkpt lat="43.14905" lon="0.59026">
        <ele>457</ele>
        <time>2025-12-29T11:54:00Z</time>
      </trkpt>
      <trkpt lat="43.14904" lon="0.59022">
        <ele>457.8</ele>
        <time>2025-12-29T11:54:01Z</time>
      </trkpt>
      <trkpt lat="43.14903" lon="0.59018">
        <ele>456.8</ele>
        <time>2025-12-29T11:54:02Z</time>
      </trkpt>
      <trkpt lat="43.14903" lon="0.59014">
        <ele>456.8</ele>
        <time>2025-12-29T11:54:03Z</time>
      </trkpt>
      <trkpt lat="43.14902" lon="0.5901">
        <ele>456.8</ele>
        <time>2025-12-29T11:54:04Z</time>
      </trkpt>
      <trkpt lat="43.14901" lon="0.59004">
        <ele>456.8</ele>
        <time>2025-12-29T11:54:05Z</time>
      </trkpt>
      <trkpt lat="43.149" lon="0.59">
        <ele>458.2</ele>
        <time>2025-12-29T11:54:06Z</time>
      </trkpt>
      <trkpt lat="43.14899" lon="0.58995">
        <ele>458.2</ele>
        <time>2025-12-29T11:54:07Z</time>
      </trkpt>
      <trkpt lat="43.14898" lon="0.5899">
        <ele>458.2</ele>
        <time>2025-12-29T11:54:08Z</time>
      </trkpt>
      <trkpt lat="43.14898" lon="0.58986">
        <ele>457.4</ele>
        <time>2025-12-29T11:54:09Z</time>
      </trkpt>
      <trkpt lat="43.14897" lon="0.58981">
        <ele>458.4</ele>
        <time>2025-12-29T11:54:10Z</time>
      </trkpt>
      <trkpt lat="43.14896" lon="0.58976">
        <ele>458.4</ele>
        <time>2025-12-29T11:54:11Z</time>
      </trkpt>
      <trkpt lat="43.14896" lon="0.58972">
        <ele>458.4</ele>
        <time>2025-12-29T11:54:12Z</time>
      </trkpt>
      <trkpt lat="43.14895" lon="0.58967">
        <ele>458.4</ele>
        <time>2025-12-29T11:54:13Z</time>
      </trkpt>
      <trkpt lat="43.14895" lon="0.58963">
        <ele>458.4</ele>
        <time>2025-12-29T11:54:14Z</time>
      </trkpt>
      <trkpt lat="43.14895" lon="0.5896">
        <ele>458.4</ele>
        <time>2025-12-29T11:54:15Z</time>
      </trkpt>
      <trkpt lat="43.14896" lon="0.58955">
        <ele>458.4</ele>
        <time>2025-12-29T11:54:16Z</time>
      </trkpt>
      <trkpt lat="43.14896" lon="0.58951">
        <ele>458.4</ele>
        <time>2025-12-29T11:54:17Z</time>
      </trkpt>
      <trkpt lat="43.14896" lon="0.58947">
        <ele>459.4</ele>
        <time>2025-12-29T11:54:18Z</time>
      </trkpt>
      <trkpt lat="43.14895" lon="0.58941">
        <ele>459.4</ele>
        <time>2025-12-29T11:54:19Z</time>
      </trkpt>
      <trkpt lat="43.14896" lon="0.58936">
        <ele>459.4</ele>
        <time>2025-12-29T11:54:20Z</time>
      </trkpt>
      <trkpt lat="43.14896" lon="0.58931">
        <ele>458.8</ele>
        <time>2025-12-29T11:54:21Z</time>
      </trkpt>
      <trkpt lat="43.14897" lon="0.58926">
        <ele>459.6</ele>
        <time>2025-12-29T11:54:22Z</time>
      </trkpt>
      <trkpt lat="43.14898" lon="0.58922">
        <ele>459.6</ele>
        <time>2025-12-29T11:54:23Z</time>
      </trkpt>
      <trkpt lat="43.14898" lon="0.58917">
        <ele>459.6</ele>
        <time>2025-12-29T11:54:24Z</time>
      </trkpt>
      <trkpt lat="43.14899" lon="0.58912">
        <ele>460</ele>
        <time>2025-12-29T11:54:25Z</time>
      </trkpt>
      <trkpt lat="43.14899" lon="0.58908">
        <ele>461.4</ele>
        <time>2025-12-29T11:54:26Z</time>
      </trkpt>
      <trkpt lat="43.149" lon="0.58904">
        <ele>461.4</ele>
        <time>2025-12-29T11:54:27Z</time>
      </trkpt>
      <trkpt lat="43.149" lon="0.58899">
        <ele>461.4</ele>
        <time>2025-12-29T11:54:28Z</time>
      </trkpt>
      <trkpt lat="43.14901" lon="0.58895">
        <ele>461</ele>
        <time>2025-12-29T11:54:29Z</time>
      </trkpt>
      <trkpt lat="43.14901" lon="0.58891">
        <ele>461.2</ele>
        <time>2025-12-29T11:54:30Z</time>
      </trkpt>
      <trkpt lat="43.14902" lon="0.58886">
        <ele>461.2</ele>
        <time>2025-12-29T11:54:31Z</time>
      </trkpt>
      <trkpt lat="43.14902" lon="0.58882">
        <ele>461.2</ele>
        <time>2025-12-29T11:54:32Z</time>
      </trkpt>
      <trkpt lat="43.14903" lon="0.58878">
        <ele>461</ele>
        <time>2025-12-29T11:54:33Z</time>
      </trkpt>
      <trkpt lat="43.14904" lon="0.58873">
        <ele>460.8</ele>
        <time>2025-12-29T11:54:34Z</time>
      </trkpt>
      <trkpt lat="43.14904" lon="0.58869">
        <ele>460.8</ele>
        <time>2025-12-29T11:54:35Z</time>
      </trkpt>
      <trkpt lat="43.14904" lon="0.58865">
        <ele>460.8</ele>
        <time>2025-12-29T11:54:36Z</time>
      </trkpt>
      <trkpt lat="43.14903" lon="0.58861">
        <ele>460.8</ele>
        <time>2025-12-29T11:54:37Z</time>
      </trkpt>
      <trkpt lat="43.14903" lon="0.58857">
        <ele>460.2</ele>
        <time>2025-12-29T11:54:38Z</time>
      </trkpt>
      <trkpt lat="43.14901" lon="0.58853">
        <ele>460.2</ele>
        <time>2025-12-29T11:54:39Z</time>
      </trkpt>
      <trkpt lat="43.149" lon="0.58849">
        <ele>460.2</ele>
        <time>2025-12-29T11:54:40Z</time>
      </trkpt>
      <trkpt lat="43.14899" lon="0.58846">
        <ele>460.8</ele>
        <time>2025-12-29T11:54:41Z</time>
      </trkpt>
      <trkpt lat="43.14897" lon="0.58842">
        <ele>461.6</ele>
        <time>2025-12-29T11:54:42Z</time>
      </trkpt>
      <trkpt lat="43.14896" lon="0.58839">
        <ele>461.6</ele>
        <time>2025-12-29T11:54:43Z</time>
      </trkpt>
      <trkpt lat="43.14894" lon="0.58836">
        <ele>461.6</ele>
        <time>2025-12-29T11:54:44Z</time>
      </trkpt>
      <trkpt lat="43.14892" lon="0.58832">
        <ele>461.6</ele>
        <time>2025-12-29T11:54:45Z</time>
      </trkpt>
      <trkpt lat="43.1489" lon="0.58829">
        <ele>462</ele>
        <time>2025-12-29T11:54:46Z</time>
      </trkpt>
      <trkpt lat="43.14889" lon="0.58825">
        <ele>462</ele>
        <time>2025-12-29T11:54:47Z</time>
      </trkpt>
      <trkpt lat="43.14887" lon="0.58822">
        <ele>462</ele>
        <time>2025-12-29T11:54:48Z</time>
      </trkpt>
      <trkpt lat="43.14886" lon="0.58818">
        <ele>462</ele>
        <time>2025-12-29T11:54:49Z</time>
      </trkpt>
      <trkpt lat="43.14884" lon="0.58815">
        <ele>463</ele>
        <time>2025-12-29T11:54:50Z</time>
      </trkpt>
      <trkpt lat="43.14882" lon="0.58813">
        <ele>463</ele>
        <time>2025-12-29T11:54:51Z</time>
      </trkpt>
      <trkpt lat="43.14881" lon="0.5881">
        <ele>463</ele>
        <time>2025-12-29T11:54:52Z</time>
      </trkpt>
      <trkpt lat="43.14879" lon="0.58808">
        <ele>463</ele>
        <time>2025-12-29T11:54:53Z</time>
      </trkpt>
      <trkpt lat="43.14877" lon="0.58805">
        <ele>462.4</ele>
        <time>2025-12-29T11:54:54Z</time>
      </trkpt>
      <trkpt lat="43.14876" lon="0.58802">
        <ele>462.4</ele>
        <time>2025-12-29T11:54:55Z</time>
      </trkpt>
      <trkpt lat="43.14874" lon="0.58798">
        <ele>462.4</ele>
        <time>2025-12-29T11:54:56Z</time>
      </trkpt>
      <trkpt lat="43.14872" lon="0.58795">
        <ele>462.4</ele>
        <time>2025-12-29T11:54:57Z</time>
      </trkpt>
      <trkpt lat="43.14871" lon="0.58792">
        <ele>462.2</ele>
        <time>2025-12-29T11:54:58Z</time>
      </trkpt>
      <trkpt lat="43.1487" lon="0.58789">
        <ele>462.2</ele>
        <time>2025-12-29T11:54:59Z</time>
      </trkpt>
      <trkpt lat="43.14868" lon="0.58786">
        <ele>462.2</ele>
        <time>2025-12-29T11:55:00Z</time>
      </trkpt>
      <trkpt lat="43.14867" lon="0.58783">
        <ele>462.4</ele>
        <time>2025-12-29T11:55:01Z</time>
      </trkpt>
      <trkpt lat="43.14866" lon="0.58779">
        <ele>462.4</ele>
        <time>2025-12-29T11:55:02Z</time>
      </trkpt>
      <trkpt lat="43.14865" lon="0.58776">
        <ele>462.4</ele>
        <time>2025-12-29T11:55:03Z</time>
      </trkpt>
      <trkpt lat="43.14864" lon="0.58774">
        <ele>462.4</ele>
        <time>2025-12-29T11:55:04Z</time>
      </trkpt>
      <trkpt lat="43.14862" lon="0.5877">
        <ele>462.4</ele>
        <time>2025-12-29T11:55:05Z</time>
      </trkpt>
      <trkpt lat="43.14861" lon="0.58768">
        <ele>461.8</ele>
        <time>2025-12-29T11:55:06Z</time>
      </trkpt>
      <trkpt lat="43.1486" lon="0.58765">
        <ele>461.8</ele>
        <time>2025-12-29T11:55:07Z</time>
      </trkpt>
      <trkpt lat="43.14859" lon="0.58762">
        <ele>461.8</ele>
        <time>2025-12-29T11:55:08Z</time>
      </trkpt>
      <trkpt lat="43.14859" lon="0.58759">
        <ele>462.2</ele>
        <time>2025-12-29T11:55:09Z</time>
      </trkpt>
      <trkpt lat="43.14858" lon="0.58757">
        <ele>462.6</ele>
        <time>2025-12-29T11:55:10Z</time>
      </trkpt>
      <trkpt lat="43.14857" lon="0.58754">
        <ele>462.6</ele>
        <time>2025-12-29T11:55:11Z</time>
      </trkpt>
      <trkpt lat="43.14856" lon="0.58752">
        <ele>462.6</ele>
        <time>2025-12-29T11:55:12Z</time>
      </trkpt>
      <trkpt lat="43.14855" lon="0.58751">
        <ele>462.6</ele>
        <time>2025-12-29T11:55:13Z</time>
      </trkpt>
      <trkpt lat="43.14854" lon="0.5875">
        <ele>462.8</ele>
        <time>2025-12-29T11:55:14Z</time>
      </trkpt>
      <trkpt lat="43.14854" lon="0.5875">
        <ele>462.8</ele>
        <time>2025-12-29T11:55:15Z</time>
      </trkpt>
      <trkpt lat="43.14853" lon="0.58744">
        <ele>463</ele>
        <time>2025-12-29T11:56:08Z</time>
      </trkpt>
      <trkpt lat="43.14852" lon="0.58741">
        <ele>463.2</ele>
        <time>2025-12-29T11:56:09Z</time>
      </trkpt>
      <trkpt lat="43.14852" lon="0.58738">
        <ele>462.8</ele>
        <time>2025-12-29T11:56:10Z</time>
      </trkpt>
      <trkpt lat="43.14851" lon="0.58735">
        <ele>462.8</ele>
        <time>2025-12-29T11:56:11Z</time>
      </trkpt>
      <trkpt lat="43.1485" lon="0.58731">
        <ele>462.8</ele>
        <time>2025-12-29T11:56:12Z</time>
      </trkpt>
      <trkpt lat="43.14849" lon="0.58727">
        <ele>462.8</ele>
        <time>2025-12-29T11:56:13Z</time>
      </trkpt>
      <trkpt lat="43.14848" lon="0.58723">
        <ele>463</ele>
        <time>2025-12-29T11:56:14Z</time>
      </trkpt>
      <trkpt lat="43.14847" lon="0.58719">
        <ele>463</ele>
        <time>2025-12-29T11:56:15Z</time>
      </trkpt>
      <trkpt lat="43.14846" lon="0.58715">
        <ele>463</ele>
        <time>2025-12-29T11:56:16Z</time>
      </trkpt>
      <trkpt lat="43.14845" lon="0.58711">
        <ele>463</ele>
        <time>2025-12-29T11:56:17Z</time>
      </trkpt>
      <trkpt lat="43.14844" lon="0.58707">
        <ele>463.6</ele>
        <time>2025-12-29T11:56:18Z</time>
      </trkpt>
      <trkpt lat="43.14843" lon="0.58703">
        <ele>463.6</ele>
        <time>2025-12-29T11:56:19Z</time>
      </trkpt>
      <trkpt lat="43.14842" lon="0.58699">
        <ele>463.6</ele>
        <time>2025-12-29T11:56:20Z</time>
      </trkpt>
      <trkpt lat="43.14841" lon="0.58695">
        <ele>463.6</ele>
        <time>2025-12-29T11:56:21Z</time>
      </trkpt>
      <trkpt lat="43.14839" lon="0.5869">
        <ele>463</ele>
        <time>2025-12-29T11:56:22Z</time>
      </trkpt>
      <trkpt lat="43.14838" lon="0.58686">
        <ele>463</ele>
        <time>2025-12-29T11:56:23Z</time>
      </trkpt>
      <trkpt lat="43.14837" lon="0.58682">
        <ele>463</ele>
        <time>2025-12-29T11:56:24Z</time>
      </trkpt>
      <trkpt lat="43.14836" lon="0.58677">
        <ele>463</ele>
        <time>2025-12-29T11:56:25Z</time>
      </trkpt>
      <trkpt lat="43.14834" lon="0.58673">
        <ele>463.4</ele>
        <time>2025-12-29T11:56:26Z</time>
      </trkpt>
      <trkpt lat="43.14833" lon="0.58669">
        <ele>463.4</ele>
        <time>2025-12-29T11:56:27Z</time>
      </trkpt>
      <trkpt lat="43.14832" lon="0.58664">
        <ele>463.4</ele>
        <time>2025-12-29T11:56:28Z</time>
      </trkpt>
      <trkpt lat="43.14831" lon="0.5866">
        <ele>463.4</ele>
        <time>2025-12-29T11:56:29Z</time>
      </trkpt>
      <trkpt lat="43.1483" lon="0.58656">
        <ele>463.4</ele>
        <time>2025-12-29T11:56:30Z</time>
      </trkpt>
      <trkpt lat="43.14829" lon="0.58651">
        <ele>463.4</ele>
        <time>2025-12-29T11:56:31Z</time>
      </trkpt>
      <trkpt lat="43.14828" lon="0.58647">
        <ele>463.4</ele>
        <time>2025-12-29T11:56:32Z</time>
      </trkpt>
      <trkpt lat="43.14826" lon="0.58642">
        <ele>463.4</ele>
        <time>2025-12-29T11:56:33Z</time>
      </trkpt>
      <trkpt lat="43.14825" lon="0.58638">
        <ele>464</ele>
        <time>2025-12-29T11:56:34Z</time>
      </trkpt>
      <trkpt lat="43.14824" lon="0.58633">
        <ele>464</ele>
        <time>2025-12-29T11:56:35Z</time>
      </trkpt>
      <trkpt lat="43.14823" lon="0.58628">
        <ele>464</ele>
        <time>2025-12-29T11:56:36Z</time>
      </trkpt>
      <trkpt lat="43.14821" lon="0.58623">
        <ele>463</ele>
        <time>2025-12-29T11:56:37Z</time>
      </trkpt>
      <trkpt lat="43.1482" lon="0.58618">
        <ele>463.2</ele>
        <time>2025-12-29T11:56:38Z</time>
      </trkpt>
      <trkpt lat="43.14819" lon="0.58614">
        <ele>463.2</ele>
        <time>2025-12-29T11:56:39Z</time>
      </trkpt>
      <trkpt lat="43.14817" lon="0.58609">
        <ele>463.2</ele>
        <time>2025-12-29T11:56:40Z</time>
      </trkpt>
      <trkpt lat="43.14816" lon="0.58604">
        <ele>463.6</ele>
        <time>2025-12-29T11:56:41Z</time>
      </trkpt>
      <trkpt lat="43.14815" lon="0.58599">
        <ele>463.8</ele>
        <time>2025-12-29T11:56:42Z</time>
      </trkpt>
      <trkpt lat="43.14814" lon="0.58594">
        <ele>463.8</ele>
        <time>2025-12-29T11:56:43Z</time>
      </trkpt>
      <trkpt lat="43.14812" lon="0.58589">
        <ele>463.8</ele>
        <time>2025-12-29T11:56:44Z</time>
      </trkpt>
      <trkpt lat="43.14811" lon="0.58584">
        <ele>463.8</ele>
        <time>2025-12-29T11:56:45Z</time>
      </trkpt>
      <trkpt lat="43.1481" lon="0.5858">
        <ele>464</ele>
        <time>2025-12-29T11:56:46Z</time>
      </trkpt>
      <trkpt lat="43.14809" lon="0.58575">
        <ele>464</ele>
        <time>2025-12-29T11:56:47Z</time>
      </trkpt>
      <trkpt lat="43.14808" lon="0.5857">
        <ele>464</ele>
        <time>2025-12-29T11:56:48Z</time>
      </trkpt>
      <trkpt lat="43.14807" lon="0.58565">
        <ele>463.4</ele>
        <time>2025-12-29T11:56:49Z</time>
      </trkpt>
      <trkpt lat="43.14806" lon="0.5856">
        <ele>463.8</ele>
        <time>2025-12-29T11:56:50Z</time>
      </trkpt>
      <trkpt lat="43.14804" lon="0.58556">
        <ele>463.8</ele>
        <time>2025-12-29T11:56:51Z</time>
      </trkpt>
      <trkpt lat="43.14803" lon="0.58551">
        <ele>463.8</ele>
        <time>2025-12-29T11:56:52Z</time>
      </trkpt>
      <trkpt lat="43.14802" lon="0.58546">
        <ele>463.8</ele>
        <time>2025-12-29T11:56:53Z</time>
      </trkpt>
      <trkpt lat="43.148" lon="0.58541">
        <ele>463.8</ele>
        <time>2025-12-29T11:56:54Z</time>
      </trkpt>
      <trkpt lat="43.14799" lon="0.58536">
        <ele>463.8</ele>
        <time>2025-12-29T11:56:55Z</time>
      </trkpt>
      <trkpt lat="43.14798" lon="0.58531">
        <ele>463.8</ele>
        <time>2025-12-29T11:56:56Z</time>
      </trkpt>
      <trkpt lat="43.14796" lon="0.58526">
        <ele>464.2</ele>
        <time>2025-12-29T11:56:57Z</time>
      </trkpt>
      <trkpt lat="43.14795" lon="0.58521">
        <ele>463.6</ele>
        <time>2025-12-29T11:56:58Z</time>
      </trkpt>
      <trkpt lat="43.14794" lon="0.58516">
        <ele>463.6</ele>
        <time>2025-12-29T11:56:59Z</time>
      </trkpt>
      <trkpt lat="43.14793" lon="0.58511">
        <ele>463.6</ele>
        <time>2025-12-29T11:57:00Z</time>
      </trkpt>
      <trkpt lat="43.14791" lon="0.58506">
        <ele>464.2</ele>
        <time>2025-12-29T11:57:01Z</time>
      </trkpt>
      <trkpt lat="43.1479" lon="0.58501">
        <ele>464.8</ele>
        <time>2025-12-29T11:57:02Z</time>
      </trkpt>
      <trkpt lat="43.14789" lon="0.58496">
        <ele>464.8</ele>
        <time>2025-12-29T11:57:03Z</time>
      </trkpt>
      <trkpt lat="43.14788" lon="0.58491">
        <ele>464.8</ele>
        <time>2025-12-29T11:57:04Z</time>
      </trkpt>
      <trkpt lat="43.14787" lon="0.58486">
        <ele>464.8</ele>
        <time>2025-12-29T11:57:05Z</time>
      </trkpt>
      <trkpt lat="43.14786" lon="0.58481">
        <ele>465.4</ele>
        <time>2025-12-29T11:57:06Z</time>
      </trkpt>
      <trkpt lat="43.14784" lon="0.58477">
        <ele>465.4</ele>
        <time>2025-12-29T11:57:07Z</time>
      </trkpt>
      <trkpt lat="43.14783" lon="0.58473">
        <ele>465.4</ele>
        <time>2025-12-29T11:57:08Z</time>
      </trkpt>
      <trkpt lat="43.14782" lon="0.58468">
        <ele>465.4</ele>
        <time>2025-12-29T11:57:09Z</time>
      </trkpt>
      <trkpt lat="43.14781" lon="0.58464">
        <ele>465</ele>
        <time>2025-12-29T11:57:10Z</time>
      </trkpt>
      <trkpt lat="43.1478" lon="0.5846">
        <ele>465</ele>
        <time>2025-12-29T11:57:11Z</time>
      </trkpt>
      <trkpt lat="43.1478" lon="0.58456">
        <ele>465</ele>
        <time>2025-12-29T11:57:12Z</time>
      </trkpt>
      <trkpt lat="43.14779" lon="0.58451">
        <ele>465</ele>
        <time>2025-12-29T11:57:13Z</time>
      </trkpt>
      <trkpt lat="43.14778" lon="0.58447">
        <ele>465.2</ele>
        <time>2025-12-29T11:57:14Z</time>
      </trkpt>
      <trkpt lat="43.14776" lon="0.58443">
        <ele>465.2</ele>
        <time>2025-12-29T11:57:15Z</time>
      </trkpt>
      <trkpt lat="43.14775" lon="0.58439">
        <ele>465.2</ele>
        <time>2025-12-29T11:57:16Z</time>
      </trkpt>
      <trkpt lat="43.14774" lon="0.58435">
        <ele>466.2</ele>
        <time>2025-12-29T11:57:17Z</time>
      </trkpt>
      <trkpt lat="43.14774" lon="0.5843">
        <ele>467</ele>
        <time>2025-12-29T11:57:18Z</time>
      </trkpt>
      <trkpt lat="43.14773" lon="0.58426">
        <ele>467</ele>
        <time>2025-12-29T11:57:19Z</time>
      </trkpt>
      <trkpt lat="43.14772" lon="0.58421">
        <ele>467</ele>
        <time>2025-12-29T11:57:20Z</time>
      </trkpt>
      <trkpt lat="43.14771" lon="0.58417">
        <ele>467</ele>
        <time>2025-12-29T11:57:21Z</time>
      </trkpt>
      <trkpt lat="43.1477" lon="0.58412">
        <ele>466.8</ele>
        <time>2025-12-29T11:57:22Z</time>
      </trkpt>
      <trkpt lat="43.14769" lon="0.58408">
        <ele>466.8</ele>
        <time>2025-12-29T11:57:23Z</time>
      </trkpt>
      <trkpt lat="43.14768" lon="0.58403">
        <ele>466.8</ele>
        <time>2025-12-29T11:57:24Z</time>
      </trkpt>
      <trkpt lat="43.14767" lon="0.58398">
        <ele>466.8</ele>
        <time>2025-12-29T11:57:25Z</time>
      </trkpt>
      <trkpt lat="43.14766" lon="0.58393">
        <ele>466.8</ele>
        <time>2025-12-29T11:57:26Z</time>
      </trkpt>
      <trkpt lat="43.14765" lon="0.58389">
        <ele>466.8</ele>
        <time>2025-12-29T11:57:27Z</time>
      </trkpt>
      <trkpt lat="43.14764" lon="0.58384">
        <ele>466.8</ele>
        <time>2025-12-29T11:57:28Z</time>
      </trkpt>
      <trkpt lat="43.14764" lon="0.58379">
        <ele>467.4</ele>
        <time>2025-12-29T11:57:29Z</time>
      </trkpt>
      <trkpt lat="43.14763" lon="0.58375">
        <ele>467.8</ele>
        <time>2025-12-29T11:57:30Z</time>
      </trkpt>
      <trkpt lat="43.14762" lon="0.5837">
        <ele>467.8</ele>
        <time>2025-12-29T11:57:31Z</time>
      </trkpt>
      <trkpt lat="43.14761" lon="0.58365">
        <ele>467.8</ele>
        <time>2025-12-29T11:57:32Z</time>
      </trkpt>
      <trkpt lat="43.14761" lon="0.5836">
        <ele>467.8</ele>
        <time>2025-12-29T11:57:33Z</time>
      </trkpt>
      <trkpt lat="43.14761" lon="0.58356">
        <ele>468</ele>
        <time>2025-12-29T11:57:34Z</time>
      </trkpt>
      <trkpt lat="43.1476" lon="0.58351">
        <ele>468</ele>
        <time>2025-12-29T11:57:35Z</time>
      </trkpt>
      <trkpt lat="43.1476" lon="0.58346">
        <ele>468</ele>
        <time>2025-12-29T11:57:36Z</time>
      </trkpt>
      <trkpt lat="43.1476" lon="0.58342">
        <ele>468.8</ele>
        <time>2025-12-29T11:57:37Z</time>
      </trkpt>
      <trkpt lat="43.1476" lon="0.58337">
        <ele>468.6</ele>
        <time>2025-12-29T11:57:38Z</time>
      </trkpt>
      <trkpt lat="43.1476" lon="0.58332">
        <ele>468.6</ele>
        <time>2025-12-29T11:57:39Z</time>
      </trkpt>
      <trkpt lat="43.1476" lon="0.58327">
        <ele>468.6</ele>
        <time>2025-12-29T11:57:40Z</time>
      </trkpt>
      <trkpt lat="43.1476" lon="0.58322">
        <ele>469.2</ele>
        <time>2025-12-29T11:57:41Z</time>
      </trkpt>
      <trkpt lat="43.1476" lon="0.58317">
        <ele>469.2</ele>
        <time>2025-12-29T11:57:42Z</time>
      </trkpt>
      <trkpt lat="43.1476" lon="0.58313">
        <ele>469.2</ele>
        <time>2025-12-29T11:57:43Z</time>
      </trkpt>
      <trkpt lat="43.1476" lon="0.58308">
        <ele>469.2</ele>
        <time>2025-12-29T11:57:44Z</time>
      </trkpt>
      <trkpt lat="43.1476" lon="0.58303">
        <ele>469.2</ele>
        <time>2025-12-29T11:57:45Z</time>
      </trkpt>
      <trkpt lat="43.1476" lon="0.58299">
        <ele>470</ele>
        <time>2025-12-29T11:57:46Z</time>
      </trkpt>
      <trkpt lat="43.1476" lon="0.58294">
        <ele>470</ele>
        <time>2025-12-29T11:57:47Z</time>
      </trkpt>
      <trkpt lat="43.14761" lon="0.5829">
        <ele>470</ele>
        <time>2025-12-29T11:57:48Z</time>
      </trkpt>
      <trkpt lat="43.14761" lon="0.58285">
        <ele>470</ele>
        <time>2025-12-29T11:57:49Z</time>
      </trkpt>
      <trkpt lat="43.14761" lon="0.58281">
        <ele>469.2</ele>
        <time>2025-12-29T11:57:50Z</time>
      </trkpt>
      <trkpt lat="43.14761" lon="0.58276">
        <ele>469.2</ele>
        <time>2025-12-29T11:57:51Z</time>
      </trkpt>
      <trkpt lat="43.14761" lon="0.58271">
        <ele>469.2</ele>
        <time>2025-12-29T11:57:52Z</time>
      </trkpt>
      <trkpt lat="43.14761" lon="0.58266">
        <ele>470.2</ele>
        <time>2025-12-29T11:57:53Z</time>
      </trkpt>
      <trkpt lat="43.1476" lon="0.58262">
        <ele>470.4</ele>
        <time>2025-12-29T11:57:54Z</time>
      </trkpt>
      <trkpt lat="43.1476" lon="0.58257">
        <ele>470.4</ele>
        <time>2025-12-29T11:57:55Z</time>
      </trkpt>
      <trkpt lat="43.1476" lon="0.58252">
        <ele>470.4</ele>
        <time>2025-12-29T11:57:56Z</time>
      </trkpt>
      <trkpt lat="43.1476" lon="0.58247">
        <ele>470.4</ele>
        <time>2025-12-29T11:57:57Z</time>
      </trkpt>
      <trkpt lat="43.14759" lon="0.58242">
        <ele>470.4</ele>
        <time>2025-12-29T11:57:58Z</time>
      </trkpt>
      <trkpt lat="43.14759" lon="0.58237">
        <ele>470.4</ele>
        <time>2025-12-29T11:57:59Z</time>
      </trkpt>
      <trkpt lat="43.14758" lon="0.58233">
        <ele>470.4</ele>
        <time>2025-12-29T11:58:00Z</time>
      </trkpt>
      <trkpt lat="43.14758" lon="0.58228">
        <ele>470.4</ele>
        <time>2025-12-29T11:58:01Z</time>
      </trkpt>
      <trkpt lat="43.14757" lon="0.58224">
        <ele>470.6</ele>
        <time>2025-12-29T11:58:02Z</time>
      </trkpt>
      <trkpt lat="43.14756" lon="0.58219">
        <ele>470.6</ele>
        <time>2025-12-29T11:58:03Z</time>
      </trkpt>
      <trkpt lat="43.14755" lon="0.58215">
        <ele>470.6</ele>
        <time>2025-12-29T11:58:04Z</time>
      </trkpt>
      <trkpt lat="43.14754" lon="0.58211">
        <ele>471.6</ele>
        <time>2025-12-29T11:58:05Z</time>
      </trkpt>
      <trkpt lat="43.14754" lon="0.58206">
        <ele>471.2</ele>
        <time>2025-12-29T11:58:06Z</time>
      </trkpt>
      <trkpt lat="43.14753" lon="0.58202">
        <ele>471.2</ele>
        <time>2025-12-29T11:58:07Z</time>
      </trkpt>
      <trkpt lat="43.14752" lon="0.58198">
        <ele>471.2</ele>
        <time>2025-12-29T11:58:08Z</time>
      </trkpt>
      <trkpt lat="43.14752" lon="0.58194">
        <ele>471.2</ele>
        <time>2025-12-29T11:58:09Z</time>
      </trkpt>
      <trkpt lat="43.14751" lon="0.5819">
        <ele>471.4</ele>
        <time>2025-12-29T11:58:10Z</time>
      </trkpt>
      <trkpt lat="43.1475" lon="0.58186">
        <ele>471.4</ele>
        <time>2025-12-29T11:58:11Z</time>
      </trkpt>
      <trkpt lat="43.14749" lon="0.58182">
        <ele>471.4</ele>
        <time>2025-12-29T11:58:12Z</time>
      </trkpt>
      <trkpt lat="43.14748" lon="0.58178">
        <ele>471.4</ele>
        <time>2025-12-29T11:58:13Z</time>
      </trkpt>
      <trkpt lat="43.14747" lon="0.58174">
        <ele>471.8</ele>
        <time>2025-12-29T11:58:14Z</time>
      </trkpt>
      <trkpt lat="43.14747" lon="0.5817">
        <ele>471.8</ele>
        <time>2025-12-29T11:58:15Z</time>
      </trkpt>
      <trkpt lat="43.14746" lon="0.58167">
        <ele>471.8</ele>
        <time>2025-12-29T11:58:16Z</time>
      </trkpt>
      <trkpt lat="43.14746" lon="0.58163">
        <ele>472.8</ele>
        <time>2025-12-29T11:58:17Z</time>
      </trkpt>
      <trkpt lat="43.14745" lon="0.58159">
        <ele>472.8</ele>
        <time>2025-12-29T11:58:18Z</time>
      </trkpt>
      <trkpt lat="43.14744" lon="0.58155">
        <ele>472.8</ele>
        <time>2025-12-29T11:58:19Z</time>
      </trkpt>
      <trkpt lat="43.14743" lon="0.58151">
        <ele>472.8</ele>
        <time>2025-12-29T11:58:20Z</time>
      </trkpt>
      <trkpt lat="43.14743" lon="0.58147">
        <ele>472.8</ele>
        <time>2025-12-29T11:58:21Z</time>
      </trkpt>
      <trkpt lat="43.14742" lon="0.58143">
        <ele>473</ele>
        <time>2025-12-29T11:58:22Z</time>
      </trkpt>
      <trkpt lat="43.14742" lon="0.5814">
        <ele>473</ele>
        <time>2025-12-29T11:58:23Z</time>
      </trkpt>
      <trkpt lat="43.14741" lon="0.58136">
        <ele>473</ele>
        <time>2025-12-29T11:58:24Z</time>
      </trkpt>
      <trkpt lat="43.14741" lon="0.58132">
        <ele>473</ele>
        <time>2025-12-29T11:58:25Z</time>
      </trkpt>
      <trkpt lat="43.1474" lon="0.58128">
        <ele>473</ele>
        <time>2025-12-29T11:58:26Z</time>
      </trkpt>
      <trkpt lat="43.1474" lon="0.58124">
        <ele>473</ele>
        <time>2025-12-29T11:58:27Z</time>
      </trkpt>
      <trkpt lat="43.14739" lon="0.58119">
        <ele>473</ele>
        <time>2025-12-29T11:58:28Z</time>
      </trkpt>
      <trkpt lat="43.14739" lon="0.58115">
        <ele>473</ele>
        <time>2025-12-29T11:58:29Z</time>
      </trkpt>
      <trkpt lat="43.14739" lon="0.58111">
        <ele>473.6</ele>
        <time>2025-12-29T11:58:30Z</time>
      </trkpt>
      <trkpt lat="43.14738" lon="0.58107">
        <ele>473.6</ele>
        <time>2025-12-29T11:58:31Z</time>
      </trkpt>
      <trkpt lat="43.14738" lon="0.58103">
        <ele>473.6</ele>
        <time>2025-12-29T11:58:32Z</time>
      </trkpt>
      <trkpt lat="43.14738" lon="0.58099">
        <ele>474.2</ele>
        <time>2025-12-29T11:58:33Z</time>
      </trkpt>
      <trkpt lat="43.14737" lon="0.58095">
        <ele>473.6</ele>
        <time>2025-12-29T11:58:34Z</time>
      </trkpt>
      <trkpt lat="43.14737" lon="0.58091">
        <ele>473.6</ele>
        <time>2025-12-29T11:58:35Z</time>
      </trkpt>
      <trkpt lat="43.14736" lon="0.58087">
        <ele>473.6</ele>
        <time>2025-12-29T11:58:36Z</time>
      </trkpt>
      <trkpt lat="43.14736" lon="0.58083">
        <ele>474.4</ele>
        <time>2025-12-29T11:58:37Z</time>
      </trkpt>
      <trkpt lat="43.14736" lon="0.58079">
        <ele>475</ele>
        <time>2025-12-29T11:58:38Z</time>
      </trkpt>
      <trkpt lat="43.14735" lon="0.58075">
        <ele>475</ele>
        <time>2025-12-29T11:58:39Z</time>
      </trkpt>
      <trkpt lat="43.14735" lon="0.58071">
        <ele>475</ele>
        <time>2025-12-29T11:58:40Z</time>
      </trkpt>
      <trkpt lat="43.14734" lon="0.58068">
        <ele>475</ele>
        <time>2025-12-29T11:58:41Z</time>
      </trkpt>
      <trkpt lat="43.14734" lon="0.58064">
        <ele>474.6</ele>
        <time>2025-12-29T11:58:42Z</time>
      </trkpt>
      <trkpt lat="43.14734" lon="0.5806">
        <ele>474.6</ele>
        <time>2025-12-29T11:58:43Z</time>
      </trkpt>
      <trkpt lat="43.14734" lon="0.58057">
        <ele>474.6</ele>
        <time>2025-12-29T11:58:44Z</time>
      </trkpt>
      <trkpt lat="43.14734" lon="0.58054">
        <ele>475.2</ele>
        <time>2025-12-29T11:58:45Z</time>
      </trkpt>
      <trkpt lat="43.14734" lon="0.5805">
        <ele>475.2</ele>
        <time>2025-12-29T11:58:46Z</time>
      </trkpt>
      <trkpt lat="43.14733" lon="0.58047">
        <ele>475.2</ele>
        <time>2025-12-29T11:58:47Z</time>
      </trkpt>
      <trkpt lat="43.14733" lon="0.58044">
        <ele>475.2</ele>
        <time>2025-12-29T11:58:48Z</time>
      </trkpt>
      <trkpt lat="43.14733" lon="0.5804">
        <ele>475.6</ele>
        <time>2025-12-29T11:58:49Z</time>
      </trkpt>
      <trkpt lat="43.14733" lon="0.58036">
        <ele>476.6</ele>
        <time>2025-12-29T11:58:50Z</time>
      </trkpt>
      <trkpt lat="43.14732" lon="0.58032">
        <ele>476.6</ele>
        <time>2025-12-29T11:58:51Z</time>
      </trkpt>
      <trkpt lat="43.14732" lon="0.58028">
        <ele>476.6</ele>
        <time>2025-12-29T11:58:52Z</time>
      </trkpt>
      <trkpt lat="43.14732" lon="0.58024">
        <ele>476.6</ele>
        <time>2025-12-29T11:58:53Z</time>
      </trkpt>
      <trkpt lat="43.14732" lon="0.5802">
        <ele>476.2</ele>
        <time>2025-12-29T11:58:54Z</time>
      </trkpt>
      <trkpt lat="43.14732" lon="0.58015">
        <ele>476.2</ele>
        <time>2025-12-29T11:58:55Z</time>
      </trkpt>
      <trkpt lat="43.14732" lon="0.58011">
        <ele>476.2</ele>
        <time>2025-12-29T11:58:56Z</time>
      </trkpt>
      <trkpt lat="43.14731" lon="0.58007">
        <ele>476.2</ele>
        <time>2025-12-29T11:58:57Z</time>
      </trkpt>
      <trkpt lat="43.14731" lon="0.58002">
        <ele>476.6</ele>
        <time>2025-12-29T11:58:58Z</time>
      </trkpt>
      <trkpt lat="43.1473" lon="0.57998">
        <ele>476.6</ele>
        <time>2025-12-29T11:58:59Z</time>
      </trkpt>
      <trkpt lat="43.1473" lon="0.57993">
        <ele>476.6</ele>
        <time>2025-12-29T11:59:00Z</time>
      </trkpt>
      <trkpt lat="43.14729" lon="0.57989">
        <ele>476.6</ele>
        <time>2025-12-29T11:59:01Z</time>
      </trkpt>
      <trkpt lat="43.14729" lon="0.57984">
        <ele>477.4</ele>
        <time>2025-12-29T11:59:02Z</time>
      </trkpt>
      <trkpt lat="43.14728" lon="0.5798">
        <ele>477.4</ele>
        <time>2025-12-29T11:59:03Z</time>
      </trkpt>
      <trkpt lat="43.14728" lon="0.57976">
        <ele>477.4</ele>
        <time>2025-12-29T11:59:04Z</time>
      </trkpt>
      <trkpt lat="43.14727" lon="0.57971">
        <ele>476.8</ele>
        <time>2025-12-29T11:59:05Z</time>
      </trkpt>
      <trkpt lat="43.14727" lon="0.57967">
        <ele>477.2</ele>
        <time>2025-12-29T11:59:06Z</time>
      </trkpt>
      <trkpt lat="43.14726" lon="0.57962">
        <ele>477.2</ele>
        <time>2025-12-29T11:59:07Z</time>
      </trkpt>
      <trkpt lat="43.14725" lon="0.57958">
        <ele>477.2</ele>
        <time>2025-12-29T11:59:08Z</time>
      </trkpt>
      <trkpt lat="43.14725" lon="0.57953">
        <ele>477</ele>
        <time>2025-12-29T11:59:09Z</time>
      </trkpt>
      <trkpt lat="43.14724" lon="0.57948">
        <ele>477.2</ele>
        <time>2025-12-29T11:59:10Z</time>
      </trkpt>
      <trkpt lat="43.14723" lon="0.57944">
        <ele>477.2</ele>
        <time>2025-12-29T11:59:11Z</time>
      </trkpt>
      <trkpt lat="43.14722" lon="0.57939">
        <ele>477.2</ele>
        <time>2025-12-29T11:59:12Z</time>
      </trkpt>
      <trkpt lat="43.14721" lon="0.57935">
        <ele>477.2</ele>
        <time>2025-12-29T11:59:13Z</time>
      </trkpt>
      <trkpt lat="43.1472" lon="0.57931">
        <ele>477.4</ele>
        <time>2025-12-29T11:59:14Z</time>
      </trkpt>
      <trkpt lat="43.1472" lon="0.57927">
        <ele>477.4</ele>
        <time>2025-12-29T11:59:15Z</time>
      </trkpt>
      <trkpt lat="43.14719" lon="0.57922">
        <ele>477.4</ele>
        <time>2025-12-29T11:59:16Z</time>
      </trkpt>
      <trkpt lat="43.14718" lon="0.57918">
        <ele>478.2</ele>
        <time>2025-12-29T11:59:17Z</time>
      </trkpt>
      <trkpt lat="43.14717" lon="0.57914">
        <ele>478.6</ele>
        <time>2025-12-29T11:59:18Z</time>
      </trkpt>
      <trkpt lat="43.14715" lon="0.5791">
        <ele>478.6</ele>
        <time>2025-12-29T11:59:19Z</time>
      </trkpt>
      <trkpt lat="43.14714" lon="0.57906">
        <ele>478.6</ele>
        <time>2025-12-29T11:59:20Z</time>
      </trkpt>
      <trkpt lat="43.14713" lon="0.57902">
        <ele>478.6</ele>
        <time>2025-12-29T11:59:21Z</time>
      </trkpt>
      <trkpt lat="43.14712" lon="0.57899">
        <ele>479</ele>
        <time>2025-12-29T11:59:22Z</time>
      </trkpt>
      <trkpt lat="43.14711" lon="0.57895">
        <ele>479</ele>
        <time>2025-12-29T11:59:23Z</time>
      </trkpt>
      <trkpt lat="43.14709" lon="0.57892">
        <ele>479</ele>
        <time>2025-12-29T11:59:24Z</time>
      </trkpt>
      <trkpt lat="43.14708" lon="0.57888">
        <ele>479</ele>
        <time>2025-12-29T11:59:25Z</time>
      </trkpt>
      <trkpt lat="43.14706" lon="0.57884">
        <ele>479</ele>
        <time>2025-12-29T11:59:26Z</time>
      </trkpt>
      <trkpt lat="43.14705" lon="0.57881">
        <ele>479</ele>
        <time>2025-12-29T11:59:27Z</time>
      </trkpt>
      <trkpt lat="43.14704" lon="0.57877">
        <ele>479</ele>
        <time>2025-12-29T11:59:28Z</time>
      </trkpt>
      <trkpt lat="43.14703" lon="0.57874">
        <ele>479.2</ele>
        <time>2025-12-29T11:59:29Z</time>
      </trkpt>
      <trkpt lat="43.14701" lon="0.57871">
        <ele>479</ele>
        <time>2025-12-29T11:59:30Z</time>
      </trkpt>
      <trkpt lat="43.147" lon="0.57867">
        <ele>479</ele>
        <time>2025-12-29T11:59:31Z</time>
      </trkpt>
      <trkpt lat="43.14698" lon="0.57863">
        <ele>479</ele>
        <time>2025-12-29T11:59:32Z</time>
      </trkpt>
      <trkpt lat="43.14697" lon="0.5786">
        <ele>480</ele>
        <time>2025-12-29T11:59:33Z</time>
      </trkpt>
      <trkpt lat="43.14695" lon="0.57856">
        <ele>479.4</ele>
        <time>2025-12-29T11:59:34Z</time>
      </trkpt>
      <trkpt lat="43.14693" lon="0.57853">
        <ele>479.4</ele>
        <time>2025-12-29T11:59:35Z</time>
      </trkpt>
      <trkpt lat="43.14692" lon="0.5785">
        <ele>479.4</ele>
        <time>2025-12-29T11:59:36Z</time>
      </trkpt>
      <trkpt lat="43.1469" lon="0.57847">
        <ele>479.8</ele>
        <time>2025-12-29T11:59:37Z</time>
      </trkpt>
      <trkpt lat="43.14689" lon="0.57844">
        <ele>480.2</ele>
        <time>2025-12-29T11:59:38Z</time>
      </trkpt>
      <trkpt lat="43.14687" lon="0.5784">
        <ele>480.2</ele>
        <time>2025-12-29T11:59:39Z</time>
      </trkpt>
      <trkpt lat="43.14685" lon="0.57837">
        <ele>480.2</ele>
        <time>2025-12-29T11:59:40Z</time>
      </trkpt>
      <trkpt lat="43.14684" lon="0.57834">
        <ele>480.6</ele>
        <time>2025-12-29T11:59:41Z</time>
      </trkpt>
      <trkpt lat="43.14682" lon="0.5783">
        <ele>481.2</ele>
        <time>2025-12-29T11:59:42Z</time>
      </trkpt>
      <trkpt lat="43.1468" lon="0.57827">
        <ele>481.2</ele>
        <time>2025-12-29T11:59:43Z</time>
      </trkpt>
      <trkpt lat="43.14678" lon="0.57824">
        <ele>481.2</ele>
        <time>2025-12-29T11:59:44Z</time>
      </trkpt>
      <trkpt lat="43.14676" lon="0.5782">
        <ele>481.2</ele>
        <time>2025-12-29T11:59:45Z</time>
      </trkpt>
      <trkpt lat="43.14674" lon="0.57816">
        <ele>480.8</ele>
        <time>2025-12-29T11:59:46Z</time>
      </trkpt>
      <trkpt lat="43.14673" lon="0.57813">
        <ele>480.8</ele>
        <time>2025-12-29T11:59:47Z</time>
      </trkpt>
      <trkpt lat="43.14671" lon="0.57809">
        <ele>480.8</ele>
        <time>2025-12-29T11:59:48Z</time>
      </trkpt>
      <trkpt lat="43.14669" lon="0.57805">
        <ele>481.2</ele>
        <time>2025-12-29T11:59:49Z</time>
      </trkpt>
      <trkpt lat="43.14667" lon="0.57802">
        <ele>482.2</ele>
        <time>2025-12-29T11:59:50Z</time>
      </trkpt>
      <trkpt lat="43.14666" lon="0.57799">
        <ele>482.2</ele>
        <time>2025-12-29T11:59:51Z</time>
      </trkpt>
      <trkpt lat="43.14664" lon="0.57795">
        <ele>482.2</ele>
        <time>2025-12-29T11:59:52Z</time>
      </trkpt>
      <trkpt lat="43.14662" lon="0.57792">
        <ele>482.2</ele>
        <time>2025-12-29T11:59:53Z</time>
      </trkpt>
      <trkpt lat="43.1466" lon="0.57788">
        <ele>482.4</ele>
        <time>2025-12-29T11:59:54Z</time>
      </trkpt>
      <trkpt lat="43.14658" lon="0.57784">
        <ele>482.4</ele>
        <time>2025-12-29T11:59:55Z</time>
      </trkpt>
      <trkpt lat="43.14656" lon="0.5778">
        <ele>482.4</ele>
        <time>2025-12-29T11:59:56Z</time>
      </trkpt>
      <trkpt lat="43.14655" lon="0.57776">
        <ele>481.4</ele>
        <time>2025-12-29T11:59:57Z</time>
      </trkpt>
      <trkpt lat="43.14653" lon="0.57772">
        <ele>481.6</ele>
        <time>2025-12-29T11:59:58Z</time>
      </trkpt>
      <trkpt lat="43.14651" lon="0.57769">
        <ele>481.6</ele>
        <time>2025-12-29T11:59:59Z</time>
      </trkpt>
      <trkpt lat="43.1465" lon="0.57765">
        <ele>481.6</ele>
        <time>2025-12-29T12:00:00Z</time>
      </trkpt>
      <trkpt lat="43.14648" lon="0.57761">
        <ele>482.2</ele>
        <time>2025-12-29T12:00:01Z</time>
      </trkpt>
      <trkpt lat="43.14646" lon="0.57758">
        <ele>482.2</ele>
        <time>2025-12-29T12:00:02Z</time>
      </trkpt>
      <trkpt lat="43.14645" lon="0.57754">
        <ele>482.2</ele>
        <time>2025-12-29T12:00:03Z</time>
      </trkpt>
      <trkpt lat="43.14643" lon="0.57751">
        <ele>482.2</ele>
        <time>2025-12-29T12:00:04Z</time>
      </trkpt>
      <trkpt lat="43.14642" lon="0.57747">
        <ele>482.2</ele>
        <time>2025-12-29T12:00:05Z</time>
      </trkpt>
      <trkpt lat="43.1464" lon="0.57743">
        <ele>482.2</ele>
        <time>2025-12-29T12:00:06Z</time>
      </trkpt>
      <trkpt lat="43.14638" lon="0.57739">
        <ele>482.2</ele>
        <time>2025-12-29T12:00:07Z</time>
      </trkpt>
      <trkpt lat="43.14637" lon="0.57735">
        <ele>482.2</ele>
        <time>2025-12-29T12:00:08Z</time>
      </trkpt>
      <trkpt lat="43.14636" lon="0.57732">
        <ele>482.8</ele>
        <time>2025-12-29T12:00:09Z</time>
      </trkpt>
      <trkpt lat="43.14635" lon="0.57728">
        <ele>482.8</ele>
        <time>2025-12-29T12:00:10Z</time>
      </trkpt>
      <trkpt lat="43.14634" lon="0.57723">
        <ele>482.8</ele>
        <time>2025-12-29T12:00:11Z</time>
      </trkpt>
      <trkpt lat="43.14632" lon="0.57719">
        <ele>482.8</ele>
        <time>2025-12-29T12:00:12Z</time>
      </trkpt>
      <trkpt lat="43.14631" lon="0.57714">
        <ele>481.8</ele>
        <time>2025-12-29T12:00:13Z</time>
      </trkpt>
      <trkpt lat="43.1463" lon="0.57709">
        <ele>481.8</ele>
        <time>2025-12-29T12:00:14Z</time>
      </trkpt>
      <trkpt lat="43.14629" lon="0.57704">
        <ele>481.8</ele>
        <time>2025-12-29T12:00:15Z</time>
      </trkpt>
      <trkpt lat="43.14627" lon="0.57699">
        <ele>481.8</ele>
        <time>2025-12-29T12:00:16Z</time>
      </trkpt>
      <trkpt lat="43.14626" lon="0.57693">
        <ele>481.2</ele>
        <time>2025-12-29T12:00:17Z</time>
      </trkpt>
      <trkpt lat="43.14625" lon="0.57688">
        <ele>480.4</ele>
        <time>2025-12-29T12:00:18Z</time>
      </trkpt>
      <trkpt lat="43.14624" lon="0.57682">
        <ele>480.4</ele>
        <time>2025-12-29T12:00:19Z</time>
      </trkpt>
      <trkpt lat="43.14623" lon="0.57676">
        <ele>480.4</ele>
        <time>2025-12-29T12:00:20Z</time>
      </trkpt>
      <trkpt lat="43.14621" lon="0.5767">
        <ele>480.4</ele>
        <time>2025-12-29T12:00:21Z</time>
      </trkpt>
      <trkpt lat="43.1462" lon="0.57664">
        <ele>480.8</ele>
        <time>2025-12-29T12:00:22Z</time>
      </trkpt>
      <trkpt lat="43.14619" lon="0.57658">
        <ele>480.8</ele>
        <time>2025-12-29T12:00:23Z</time>
      </trkpt>
      <trkpt lat="43.14617" lon="0.57652">
        <ele>480.8</ele>
        <time>2025-12-29T12:00:24Z</time>
      </trkpt>
      <trkpt lat="43.14616" lon="0.57646">
        <ele>480.8</ele>
        <time>2025-12-29T12:00:25Z</time>
      </trkpt>
      <trkpt lat="43.14615" lon="0.57641">
        <ele>480.6</ele>
        <time>2025-12-29T12:00:26Z</time>
      </trkpt>
      <trkpt lat="43.14614" lon="0.57635">
        <ele>480.6</ele>
        <time>2025-12-29T12:00:27Z</time>
      </trkpt>
      <trkpt lat="43.14612" lon="0.57629">
        <ele>480.6</ele>
        <time>2025-12-29T12:00:28Z</time>
      </trkpt>
      <trkpt lat="43.14611" lon="0.57623">
        <ele>480.6</ele>
        <time>2025-12-29T12:00:29Z</time>
      </trkpt>
      <trkpt lat="43.1461" lon="0.57616">
        <ele>479.6</ele>
        <time>2025-12-29T12:00:30Z</time>
      </trkpt>
      <trkpt lat="43.14608" lon="0.5761">
        <ele>479.6</ele>
        <time>2025-12-29T12:00:31Z</time>
      </trkpt>
      <trkpt lat="43.14607" lon="0.57604">
        <ele>479.6</ele>
        <time>2025-12-29T12:00:32Z</time>
      </trkpt>
      <trkpt lat="43.14605" lon="0.57597">
        <ele>479.6</ele>
        <time>2025-12-29T12:00:33Z</time>
      </trkpt>
      <trkpt lat="43.14604" lon="0.57591">
        <ele>480</ele>
        <time>2025-12-29T12:00:34Z</time>
      </trkpt>
      <trkpt lat="43.14603" lon="0.57585">
        <ele>480</ele>
        <time>2025-12-29T12:00:35Z</time>
      </trkpt>
      <trkpt lat="43.14601" lon="0.57579">
        <ele>480</ele>
        <time>2025-12-29T12:00:36Z</time>
      </trkpt>
      <trkpt lat="43.146" lon="0.57573">
        <ele>479.8</ele>
        <time>2025-12-29T12:00:37Z</time>
      </trkpt>
      <trkpt lat="43.14599" lon="0.57567">
        <ele>479.4</ele>
        <time>2025-12-29T12:00:38Z</time>
      </trkpt>
      <trkpt lat="43.14598" lon="0.57561">
        <ele>479.4</ele>
        <time>2025-12-29T12:00:39Z</time>
      </trkpt>
      <trkpt lat="43.14596" lon="0.57554">
        <ele>479.4</ele>
        <time>2025-12-29T12:00:40Z</time>
      </trkpt>
      <trkpt lat="43.14595" lon="0.57548">
        <ele>479.4</ele>
        <time>2025-12-29T12:00:41Z</time>
      </trkpt>
      <trkpt lat="43.14593" lon="0.57542">
        <ele>480.2</ele>
        <time>2025-12-29T12:00:42Z</time>
      </trkpt>
      <trkpt lat="43.14592" lon="0.57536">
        <ele>480.2</ele>
        <time>2025-12-29T12:00:43Z</time>
      </trkpt>
      <trkpt lat="43.14591" lon="0.57529">
        <ele>480.2</ele>
        <time>2025-12-29T12:00:44Z</time>
      </trkpt>
      <trkpt lat="43.14589" lon="0.57523">
        <ele>479.2</ele>
        <time>2025-12-29T12:00:45Z</time>
      </trkpt>
      <trkpt lat="43.14588" lon="0.57516">
        <ele>479.6</ele>
        <time>2025-12-29T12:00:46Z</time>
      </trkpt>
      <trkpt lat="43.14586" lon="0.5751">
        <ele>479.6</ele>
        <time>2025-12-29T12:00:47Z</time>
      </trkpt>
      <trkpt lat="43.14585" lon="0.57504">
        <ele>479.6</ele>
        <time>2025-12-29T12:00:48Z</time>
      </trkpt>
      <trkpt lat="43.14584" lon="0.57497">
        <ele>478.6</ele>
        <time>2025-12-29T12:00:49Z</time>
      </trkpt>
      <trkpt lat="43.14582" lon="0.5749">
        <ele>478.4</ele>
        <time>2025-12-29T12:00:50Z</time>
      </trkpt>
      <trkpt lat="43.14581" lon="0.57484">
        <ele>478.4</ele>
        <time>2025-12-29T12:00:51Z</time>
      </trkpt>
      <trkpt lat="43.1458" lon="0.57477">
        <ele>478.4</ele>
        <time>2025-12-29T12:00:52Z</time>
      </trkpt>
      <trkpt lat="43.14579" lon="0.5747">
        <ele>478.4</ele>
        <time>2025-12-29T12:00:53Z</time>
      </trkpt>
      <trkpt lat="43.14577" lon="0.57463">
        <ele>478.8</ele>
        <time>2025-12-29T12:00:54Z</time>
      </trkpt>
      <trkpt lat="43.14576" lon="0.57457">
        <ele>478.8</ele>
        <time>2025-12-29T12:00:55Z</time>
      </trkpt>
      <trkpt lat="43.14576" lon="0.5745">
        <ele>478.8</ele>
        <time>2025-12-29T12:00:56Z</time>
      </trkpt>
      <trkpt lat="43.14575" lon="0.57443">
        <ele>478.6</ele>
        <time>2025-12-29T12:00:57Z</time>
      </trkpt>
      <trkpt lat="43.14575" lon="0.57436">
        <ele>477.6</ele>
        <time>2025-12-29T12:00:58Z</time>
      </trkpt>
      <trkpt lat="43.14575" lon="0.5743">
        <ele>477.6</ele>
        <time>2025-12-29T12:00:59Z</time>
      </trkpt>
      <trkpt lat="43.14574" lon="0.57424">
        <ele>477.6</ele>
        <time>2025-12-29T12:01:00Z</time>
      </trkpt>
      <trkpt lat="43.14574" lon="0.57418">
        <ele>478.6</ele>
        <time>2025-12-29T12:01:01Z</time>
      </trkpt>
      <trkpt lat="43.14574" lon="0.57413">
        <ele>479.4</ele>
        <time>2025-12-29T12:01:02Z</time>
      </trkpt>
      <trkpt lat="43.14573" lon="0.57407">
        <ele>479.4</ele>
        <time>2025-12-29T12:01:03Z</time>
      </trkpt>
      <trkpt lat="43.14573" lon="0.57402">
        <ele>479.4</ele>
        <time>2025-12-29T12:01:04Z</time>
      </trkpt>
      <trkpt lat="43.14573" lon="0.57397">
        <ele>480.2</ele>
        <time>2025-12-29T12:01:05Z</time>
      </trkpt>
      <trkpt lat="43.14573" lon="0.57392">
        <ele>481.2</ele>
        <time>2025-12-29T12:01:06Z</time>
      </trkpt>
      <trkpt lat="43.14573" lon="0.57387">
        <ele>481.2</ele>
        <time>2025-12-29T12:01:07Z</time>
      </trkpt>
      <trkpt lat="43.14572" lon="0.57382">
        <ele>481.2</ele>
        <time>2025-12-29T12:01:08Z</time>
      </trkpt>
      <trkpt lat="43.14572" lon="0.57377">
        <ele>481</ele>
        <time>2025-12-29T12:01:09Z</time>
      </trkpt>
      <trkpt lat="43.14572" lon="0.57372">
        <ele>481</ele>
        <time>2025-12-29T12:01:10Z</time>
      </trkpt>
      <trkpt lat="43.14572" lon="0.57368">
        <ele>481</ele>
        <time>2025-12-29T12:01:11Z</time>
      </trkpt>
      <trkpt lat="43.14571" lon="0.57363">
        <ele>481</ele>
        <time>2025-12-29T12:01:12Z</time>
      </trkpt>
      <trkpt lat="43.14571" lon="0.57358">
        <ele>481</ele>
        <time>2025-12-29T12:01:13Z</time>
      </trkpt>
      <trkpt lat="43.14571" lon="0.57352">
        <ele>481.8</ele>
        <time>2025-12-29T12:01:14Z</time>
      </trkpt>
      <trkpt lat="43.14571" lon="0.57347">
        <ele>481.8</ele>
        <time>2025-12-29T12:01:15Z</time>
      </trkpt>
      <trkpt lat="43.14571" lon="0.57342">
        <ele>481.8</ele>
        <time>2025-12-29T12:01:16Z</time>
      </trkpt>
      <trkpt lat="43.14571" lon="0.57337">
        <ele>481.8</ele>
        <time>2025-12-29T12:01:17Z</time>
      </trkpt>
      <trkpt lat="43.14571" lon="0.57332">
        <ele>480.6</ele>
        <time>2025-12-29T12:01:18Z</time>
      </trkpt>
      <trkpt lat="43.14571" lon="0.57326">
        <ele>480.6</ele>
        <time>2025-12-29T12:01:19Z</time>
      </trkpt>
      <trkpt lat="43.1457" lon="0.57321">
        <ele>480.6</ele>
        <time>2025-12-29T12:01:20Z</time>
      </trkpt>
      <trkpt lat="43.14571" lon="0.57315">
        <ele>480.4</ele>
        <time>2025-12-29T12:01:21Z</time>
      </trkpt>
      <trkpt lat="43.14571" lon="0.5731">
        <ele>480.6</ele>
        <time>2025-12-29T12:01:22Z</time>
      </trkpt>
      <trkpt lat="43.1457" lon="0.57305">
        <ele>480.6</ele>
        <time>2025-12-29T12:01:23Z</time>
      </trkpt>
      <trkpt lat="43.1457" lon="0.573">
        <ele>480.6</ele>
        <time>2025-12-29T12:01:24Z</time>
      </trkpt>
      <trkpt lat="43.1457" lon="0.57295">
        <ele>480.6</ele>
        <time>2025-12-29T12:01:25Z</time>
      </trkpt>
      <trkpt lat="43.1457" lon="0.5729">
        <ele>481.2</ele>
        <time>2025-12-29T12:01:26Z</time>
      </trkpt>
      <trkpt lat="43.1457" lon="0.57285">
        <ele>481.2</ele>
        <time>2025-12-29T12:01:27Z</time>
      </trkpt>
      <trkpt lat="43.1457" lon="0.5728">
        <ele>481.2</ele>
        <time>2025-12-29T12:01:28Z</time>
      </trkpt>
      <trkpt lat="43.1457" lon="0.57275">
        <ele>480.4</ele>
        <time>2025-12-29T12:01:29Z</time>
      </trkpt>
      <trkpt lat="43.14569" lon="0.5727">
        <ele>480.6</ele>
        <time>2025-12-29T12:01:30Z</time>
      </trkpt>
      <trkpt lat="43.14568" lon="0.57264">
        <ele>480.6</ele>
        <time>2025-12-29T12:01:31Z</time>
      </trkpt>
      <trkpt lat="43.14567" lon="0.57259">
        <ele>480.6</ele>
        <time>2025-12-29T12:01:32Z</time>
      </trkpt>
      <trkpt lat="43.14566" lon="0.57253">
        <ele>480.6</ele>
        <time>2025-12-29T12:01:33Z</time>
      </trkpt>
      <trkpt lat="43.14565" lon="0.57247">
        <ele>480.6</ele>
        <time>2025-12-29T12:01:34Z</time>
      </trkpt>
      <trkpt lat="43.14564" lon="0.57241">
        <ele>480.6</ele>
        <time>2025-12-29T12:01:35Z</time>
      </trkpt>
      <trkpt lat="43.14563" lon="0.57235">
        <ele>480.6</ele>
        <time>2025-12-29T12:01:36Z</time>
      </trkpt>
      <trkpt lat="43.14562" lon="0.57229">
        <ele>480.2</ele>
        <time>2025-12-29T12:01:37Z</time>
      </trkpt>
      <trkpt lat="43.14561" lon="0.57223">
        <ele>480.8</ele>
        <time>2025-12-29T12:01:38Z</time>
      </trkpt>
      <trkpt lat="43.1456" lon="0.57217">
        <ele>480.8</ele>
        <time>2025-12-29T12:01:39Z</time>
      </trkpt>
      <trkpt lat="43.1456" lon="0.57211">
        <ele>480.8</ele>
        <time>2025-12-29T12:01:40Z</time>
      </trkpt>
      <trkpt lat="43.14559" lon="0.57205">
        <ele>480.4</ele>
        <time>2025-12-29T12:01:41Z</time>
      </trkpt>
      <trkpt lat="43.14558" lon="0.57199">
        <ele>480.8</ele>
        <time>2025-12-29T12:01:42Z</time>
      </trkpt>
      <trkpt lat="43.14558" lon="0.57193">
        <ele>480.8</ele>
        <time>2025-12-29T12:01:43Z</time>
      </trkpt>
      <trkpt lat="43.14558" lon="0.57186">
        <ele>480.8</ele>
        <time>2025-12-29T12:01:44Z</time>
      </trkpt>
      <trkpt lat="43.14558" lon="0.5718">
        <ele>480.6</ele>
        <time>2025-12-29T12:01:45Z</time>
      </trkpt>
      <trkpt lat="43.14558" lon="0.57174">
        <ele>480.6</ele>
        <time>2025-12-29T12:01:46Z</time>
      </trkpt>
      <trkpt lat="43.14558" lon="0.57169">
        <ele>480.6</ele>
        <time>2025-12-29T12:01:47Z</time>
      </trkpt>
      <trkpt lat="43.14559" lon="0.57163">
        <ele>480.6</ele>
        <time>2025-12-29T12:01:48Z</time>
      </trkpt>
      <trkpt lat="43.14559" lon="0.57157">
        <ele>480.6</ele>
        <time>2025-12-29T12:01:49Z</time>
      </trkpt>
      <trkpt lat="43.1456" lon="0.57152">
        <ele>480.6</ele>
        <time>2025-12-29T12:01:50Z</time>
      </trkpt>
      <trkpt lat="43.1456" lon="0.57147">
        <ele>480.6</ele>
        <time>2025-12-29T12:01:51Z</time>
      </trkpt>
      <trkpt lat="43.14561" lon="0.57141">
        <ele>480.6</ele>
        <time>2025-12-29T12:01:52Z</time>
      </trkpt>
      <trkpt lat="43.14563" lon="0.57136">
        <ele>481.6</ele>
        <time>2025-12-29T12:01:53Z</time>
      </trkpt>
      <trkpt lat="43.14564" lon="0.57131">
        <ele>481.2</ele>
        <time>2025-12-29T12:01:54Z</time>
      </trkpt>
      <trkpt lat="43.14565" lon="0.57126">
        <ele>481.2</ele>
        <time>2025-12-29T12:01:55Z</time>
      </trkpt>
      <trkpt lat="43.14566" lon="0.57121">
        <ele>481.2</ele>
        <time>2025-12-29T12:01:56Z</time>
      </trkpt>
      <trkpt lat="43.14568" lon="0.57117">
        <ele>482</ele>
        <time>2025-12-29T12:01:57Z</time>
      </trkpt>
      <trkpt lat="43.14569" lon="0.57112">
        <ele>482.8</ele>
        <time>2025-12-29T12:01:58Z</time>
      </trkpt>
      <trkpt lat="43.1457" lon="0.57107">
        <ele>482.8</ele>
        <time>2025-12-29T12:01:59Z</time>
      </trkpt>
      <trkpt lat="43.14571" lon="0.57103">
        <ele>482.8</ele>
        <time>2025-12-29T12:02:00Z</time>
      </trkpt>
      <trkpt lat="43.14571" lon="0.57099">
        <ele>482.8</ele>
        <time>2025-12-29T12:02:01Z</time>
      </trkpt>
      <trkpt lat="43.14572" lon="0.57094">
        <ele>482.8</ele>
        <time>2025-12-29T12:02:02Z</time>
      </trkpt>
      <trkpt lat="43.14573" lon="0.5709">
        <ele>482.8</ele>
        <time>2025-12-29T12:02:03Z</time>
      </trkpt>
      <trkpt lat="43.14573" lon="0.57086">
        <ele>482.8</ele>
        <time>2025-12-29T12:02:04Z</time>
      </trkpt>
      <trkpt lat="43.14574" lon="0.57081">
        <ele>482.8</ele>
        <time>2025-12-29T12:02:05Z</time>
      </trkpt>
      <trkpt lat="43.14574" lon="0.57077">
        <ele>484.2</ele>
        <time>2025-12-29T12:02:06Z</time>
      </trkpt>
      <trkpt lat="43.14574" lon="0.57073">
        <ele>484.2</ele>
        <time>2025-12-29T12:02:07Z</time>
      </trkpt>
      <trkpt lat="43.14574" lon="0.5707">
        <ele>484.2</ele>
        <time>2025-12-29T12:02:08Z</time>
      </trkpt>
      <trkpt lat="43.14574" lon="0.57066">
        <ele>484.2</ele>
        <time>2025-12-29T12:02:09Z</time>
      </trkpt>
      <trkpt lat="43.14574" lon="0.57062">
        <ele>484.4</ele>
        <time>2025-12-29T12:02:10Z</time>
      </trkpt>
      <trkpt lat="43.14574" lon="0.57058">
        <ele>484.4</ele>
        <time>2025-12-29T12:02:11Z</time>
      </trkpt>
      <trkpt lat="43.14574" lon="0.57055">
        <ele>484.4</ele>
        <time>2025-12-29T12:02:12Z</time>
      </trkpt>
      <trkpt lat="43.14573" lon="0.57053">
        <ele>484.2</ele>
        <time>2025-12-29T12:02:13Z</time>
      </trkpt>
      <trkpt lat="43.14573" lon="0.57051">
        <ele>484.8</ele>
        <time>2025-12-29T12:02:14Z</time>
      </trkpt>
      <trkpt lat="43.14573" lon="0.57049">
        <ele>484.8</ele>
        <time>2025-12-29T12:02:15Z</time>
      </trkpt>
      <trkpt lat="43.14573" lon="0.57049">
        <ele>484.8</ele>
        <time>2025-12-29T12:02:16Z</time>
      </trkpt>
      <trkpt lat="43.14573" lon="0.57049">
        <ele>484.8</ele>
        <time>2025-12-29T12:02:17Z</time>
      </trkpt>
      <trkpt lat="43.14567" lon="0.57047">
        <ele>485</ele>
        <time>2025-12-29T12:02:41Z</time>
      </trkpt>
      <trkpt lat="43.14564" lon="0.57048">
        <ele>484.8</ele>
        <time>2025-12-29T12:02:42Z</time>
      </trkpt>
      <trkpt lat="43.14562" lon="0.57049">
        <ele>484.8</ele>
        <time>2025-12-29T12:02:43Z</time>
      </trkpt>
      <trkpt lat="43.14559" lon="0.57051">
        <ele>484.8</ele>
        <time>2025-12-29T12:02:44Z</time>
      </trkpt>
      <trkpt lat="43.14555" lon="0.57053">
        <ele>484.8</ele>
        <time>2025-12-29T12:02:45Z</time>
      </trkpt>
      <trkpt lat="43.14552" lon="0.57055">
        <ele>484.2</ele>
        <time>2025-12-29T12:02:46Z</time>
      </trkpt>
      <trkpt lat="43.14549" lon="0.57057">
        <ele>484.2</ele>
        <time>2025-12-29T12:02:47Z</time>
      </trkpt>
      <trkpt lat="43.14545" lon="0.57059">
        <ele>484.2</ele>
        <time>2025-12-29T12:02:48Z</time>
      </trkpt>
      <trkpt lat="43.14542" lon="0.57061">
        <ele>484</ele>
        <time>2025-12-29T12:02:49Z</time>
      </trkpt>
      <trkpt lat="43.14538" lon="0.57063">
        <ele>484.2</ele>
        <time>2025-12-29T12:02:50Z</time>
      </trkpt>
      <trkpt lat="43.14534" lon="0.57065">
        <ele>484.2</ele>
        <time>2025-12-29T12:02:51Z</time>
      </trkpt>
      <trkpt lat="43.1453" lon="0.57067">
        <ele>484.2</ele>
        <time>2025-12-29T12:02:52Z</time>
      </trkpt>
      <trkpt lat="43.14526" lon="0.57068">
        <ele>483.2</ele>
        <time>2025-12-29T12:02:53Z</time>
      </trkpt>
      <trkpt lat="43.14522" lon="0.5707">
        <ele>482</ele>
        <time>2025-12-29T12:02:54Z</time>
      </trkpt>
      <trkpt lat="43.14518" lon="0.57071">
        <ele>482</ele>
        <time>2025-12-29T12:02:55Z</time>
      </trkpt>
      <trkpt lat="43.14514" lon="0.57071">
        <ele>482</ele>
        <time>2025-12-29T12:02:56Z</time>
      </trkpt>
      <trkpt lat="43.1451" lon="0.5707">
        <ele>482</ele>
        <time>2025-12-29T12:02:57Z</time>
      </trkpt>
      <trkpt lat="43.14505" lon="0.5707">
        <ele>481.6</ele>
        <time>2025-12-29T12:02:58Z</time>
      </trkpt>
      <trkpt lat="43.14501" lon="0.57069">
        <ele>481.6</ele>
        <time>2025-12-29T12:02:59Z</time>
      </trkpt>
      <trkpt lat="43.14496" lon="0.57069">
        <ele>481.6</ele>
        <time>2025-12-29T12:03:00Z</time>
      </trkpt>
      <trkpt lat="43.14492" lon="0.57068">
        <ele>481.6</ele>
        <time>2025-12-29T12:03:01Z</time>
      </trkpt>
      <trkpt lat="43.14487" lon="0.57067">
        <ele>480.8</ele>
        <time>2025-12-29T12:03:02Z</time>
      </trkpt>
      <trkpt lat="43.14483" lon="0.57065">
        <ele>480.8</ele>
        <time>2025-12-29T12:03:03Z</time>
      </trkpt>
      <trkpt lat="43.14479" lon="0.57062">
        <ele>480.8</ele>
        <time>2025-12-29T12:03:04Z</time>
      </trkpt>
      <trkpt lat="43.14476" lon="0.57057">
        <ele>480.8</ele>
        <time>2025-12-29T12:03:05Z</time>
      </trkpt>
      <trkpt lat="43.14473" lon="0.57053">
        <ele>481.2</ele>
        <time>2025-12-29T12:03:06Z</time>
      </trkpt>
      <trkpt lat="43.1447" lon="0.57049">
        <ele>481.2</ele>
        <time>2025-12-29T12:03:07Z</time>
      </trkpt>
      <trkpt lat="43.14467" lon="0.57045">
        <ele>481.2</ele>
        <time>2025-12-29T12:03:08Z</time>
      </trkpt>
      <trkpt lat="43.14464" lon="0.5704">
        <ele>481.6</ele>
        <time>2025-12-29T12:03:09Z</time>
      </trkpt>
      <trkpt lat="43.14461" lon="0.57036">
        <ele>481.8</ele>
        <time>2025-12-29T12:03:10Z</time>
      </trkpt>
      <trkpt lat="43.14459" lon="0.57031">
        <ele>481.8</ele>
        <time>2025-12-29T12:03:11Z</time>
      </trkpt>
      <trkpt lat="43.14456" lon="0.57026">
        <ele>481.8</ele>
        <time>2025-12-29T12:03:12Z</time>
      </trkpt>
      <trkpt lat="43.14453" lon="0.57021">
        <ele>481.4</ele>
        <time>2025-12-29T12:03:13Z</time>
      </trkpt>
      <trkpt lat="43.1445" lon="0.57017">
        <ele>482.2</ele>
        <time>2025-12-29T12:03:14Z</time>
      </trkpt>
      <trkpt lat="43.14447" lon="0.57013">
        <ele>482.2</ele>
        <time>2025-12-29T12:03:15Z</time>
      </trkpt>
      <trkpt lat="43.14444" lon="0.57009">
        <ele>482.2</ele>
        <time>2025-12-29T12:03:16Z</time>
      </trkpt>
      <trkpt lat="43.14441" lon="0.57005">
        <ele>482.2</ele>
        <time>2025-12-29T12:03:17Z</time>
      </trkpt>
      <trkpt lat="43.14439" lon="0.57001">
        <ele>482.2</ele>
        <time>2025-12-29T12:03:18Z</time>
      </trkpt>
      <trkpt lat="43.14436" lon="0.56997">
        <ele>482.2</ele>
        <time>2025-12-29T12:03:19Z</time>
      </trkpt>
      <trkpt lat="43.14433" lon="0.56993">
        <ele>482.2</ele>
        <time>2025-12-29T12:03:20Z</time>
      </trkpt>
      <trkpt lat="43.1443" lon="0.56989">
        <ele>482.4</ele>
        <time>2025-12-29T12:03:21Z</time>
      </trkpt>
      <trkpt lat="43.14427" lon="0.56985">
        <ele>482.8</ele>
        <time>2025-12-29T12:03:22Z</time>
      </trkpt>
      <trkpt lat="43.14424" lon="0.56982">
        <ele>482.8</ele>
        <time>2025-12-29T12:03:23Z</time>
      </trkpt>
      <trkpt lat="43.14421" lon="0.56978">
        <ele>482.8</ele>
        <time>2025-12-29T12:03:24Z</time>
      </trkpt>
      <trkpt lat="43.14418" lon="0.56975">
        <ele>482.6</ele>
        <time>2025-12-29T12:03:25Z</time>
      </trkpt>
      <trkpt lat="43.14415" lon="0.56971">
        <ele>482.8</ele>
        <time>2025-12-29T12:03:26Z</time>
      </trkpt>
      <trkpt lat="43.14412" lon="0.56968">
        <ele>482.8</ele>
        <time>2025-12-29T12:03:27Z</time>
      </trkpt>
      <trkpt lat="43.14409" lon="0.56965">
        <ele>482.8</ele>
        <time>2025-12-29T12:03:28Z</time>
      </trkpt>
      <trkpt lat="43.14405" lon="0.56962">
        <ele>482.6</ele>
        <time>2025-12-29T12:03:29Z</time>
      </trkpt>
      <trkpt lat="43.14402" lon="0.56959">
        <ele>481.8</ele>
        <time>2025-12-29T12:03:30Z</time>
      </trkpt>
      <trkpt lat="43.14398" lon="0.56956">
        <ele>481.8</ele>
        <time>2025-12-29T12:03:31Z</time>
      </trkpt>
      <trkpt lat="43.14395" lon="0.56953">
        <ele>481.8</ele>
        <time>2025-12-29T12:03:32Z</time>
      </trkpt>
      <trkpt lat="43.14391" lon="0.5695">
        <ele>482.2</ele>
        <time>2025-12-29T12:03:33Z</time>
      </trkpt>
      <trkpt lat="43.14387" lon="0.56947">
        <ele>481.8</ele>
        <time>2025-12-29T12:03:34Z</time>
      </trkpt>
      <trkpt lat="43.14383" lon="0.56944">
        <ele>481.8</ele>
        <time>2025-12-29T12:03:35Z</time>
      </trkpt>
      <trkpt lat="43.1438" lon="0.56941">
        <ele>481.8</ele>
        <time>2025-12-29T12:03:36Z</time>
      </trkpt>
      <trkpt lat="43.14376" lon="0.56938">
        <ele>481.8</ele>
        <time>2025-12-29T12:03:37Z</time>
      </trkpt>
      <trkpt lat="43.14373" lon="0.56936">
        <ele>482.2</ele>
        <time>2025-12-29T12:03:38Z</time>
      </trkpt>
      <trkpt lat="43.14369" lon="0.56933">
        <ele>482.2</ele>
        <time>2025-12-29T12:03:39Z</time>
      </trkpt>
      <trkpt lat="43.14366" lon="0.5693">
        <ele>482.2</ele>
        <time>2025-12-29T12:03:40Z</time>
      </trkpt>
      <trkpt lat="43.14362" lon="0.56927">
        <ele>482.2</ele>
        <time>2025-12-29T12:03:41Z</time>
      </trkpt>
      <trkpt lat="43.14358" lon="0.56924">
        <ele>481.2</ele>
        <time>2025-12-29T12:03:42Z</time>
      </trkpt>
      <trkpt lat="43.14354" lon="0.5692">
        <ele>481.2</ele>
        <time>2025-12-29T12:03:43Z</time>
      </trkpt>
      <trkpt lat="43.14351" lon="0.56916">
        <ele>481.2</ele>
        <time>2025-12-29T12:03:44Z</time>
      </trkpt>
      <trkpt lat="43.14347" lon="0.56913">
        <ele>481.2</ele>
        <time>2025-12-29T12:03:45Z</time>
      </trkpt>
      <trkpt lat="43.14344" lon="0.56909">
        <ele>480.6</ele>
        <time>2025-12-29T12:03:46Z</time>
      </trkpt>
      <trkpt lat="43.14341" lon="0.56905">
        <ele>480.6</ele>
        <time>2025-12-29T12:03:47Z</time>
      </trkpt>
      <trkpt lat="43.14338" lon="0.569">
        <ele>480.6</ele>
        <time>2025-12-29T12:03:48Z</time>
      </trkpt>
      <trkpt lat="43.14335" lon="0.56896">
        <ele>480.8</ele>
        <time>2025-12-29T12:03:49Z</time>
      </trkpt>
      <trkpt lat="43.14332" lon="0.56891">
        <ele>481</ele>
        <time>2025-12-29T12:03:50Z</time>
      </trkpt>
      <trkpt lat="43.14328" lon="0.56886">
        <ele>481</ele>
        <time>2025-12-29T12:03:51Z</time>
      </trkpt>
      <trkpt lat="43.14325" lon="0.56881">
        <ele>481</ele>
        <time>2025-12-29T12:03:52Z</time>
      </trkpt>
      <trkpt lat="43.14322" lon="0.56875">
        <ele>481</ele>
        <time>2025-12-29T12:03:53Z</time>
      </trkpt>
      <trkpt lat="43.14318" lon="0.5687">
        <ele>481.4</ele>
        <time>2025-12-29T12:03:54Z</time>
      </trkpt>
      <trkpt lat="43.14315" lon="0.56865">
        <ele>481.4</ele>
        <time>2025-12-29T12:03:55Z</time>
      </trkpt>
      <trkpt lat="43.14312" lon="0.56859">
        <ele>481.4</ele>
        <time>2025-12-29T12:03:56Z</time>
      </trkpt>
      <trkpt lat="43.14309" lon="0.56854">
        <ele>481</ele>
        <time>2025-12-29T12:03:57Z</time>
      </trkpt>
      <trkpt lat="43.14305" lon="0.56849">
        <ele>481.4</ele>
        <time>2025-12-29T12:03:58Z</time>
      </trkpt>
      <trkpt lat="43.14302" lon="0.56844">
        <ele>481.4</ele>
        <time>2025-12-29T12:03:59Z</time>
      </trkpt>
      <trkpt lat="43.143" lon="0.56839">
        <ele>481.4</ele>
        <time>2025-12-29T12:04:00Z</time>
      </trkpt>
      <trkpt lat="43.14297" lon="0.56834">
        <ele>482</ele>
        <time>2025-12-29T12:04:01Z</time>
      </trkpt>
      <trkpt lat="43.14294" lon="0.56829">
        <ele>482.2</ele>
        <time>2025-12-29T12:04:02Z</time>
      </trkpt>
      <trkpt lat="43.14291" lon="0.56824">
        <ele>482.2</ele>
        <time>2025-12-29T12:04:03Z</time>
      </trkpt>
      <trkpt lat="43.14289" lon="0.56819">
        <ele>482.2</ele>
        <time>2025-12-29T12:04:04Z</time>
      </trkpt>
      <trkpt lat="43.14287" lon="0.56813">
        <ele>482.2</ele>
        <time>2025-12-29T12:04:05Z</time>
      </trkpt>
      <trkpt lat="43.14284" lon="0.56808">
        <ele>483</ele>
        <time>2025-12-29T12:04:06Z</time>
      </trkpt>
      <trkpt lat="43.14282" lon="0.56803">
        <ele>483</ele>
        <time>2025-12-29T12:04:07Z</time>
      </trkpt>
      <trkpt lat="43.14279" lon="0.56798">
        <ele>483</ele>
        <time>2025-12-29T12:04:08Z</time>
      </trkpt>
      <trkpt lat="43.14277" lon="0.56793">
        <ele>482.8</ele>
        <time>2025-12-29T12:04:09Z</time>
      </trkpt>
      <trkpt lat="43.14275" lon="0.56788">
        <ele>482.8</ele>
        <time>2025-12-29T12:04:10Z</time>
      </trkpt>
      <trkpt lat="43.14273" lon="0.56783">
        <ele>482.8</ele>
        <time>2025-12-29T12:04:11Z</time>
      </trkpt>
      <trkpt lat="43.14271" lon="0.56779">
        <ele>482.8</ele>
        <time>2025-12-29T12:04:12Z</time>
      </trkpt>
      <trkpt lat="43.1427" lon="0.56774">
        <ele>482.8</ele>
        <time>2025-12-29T12:04:13Z</time>
      </trkpt>
      <trkpt lat="43.14268" lon="0.56769">
        <ele>483</ele>
        <time>2025-12-29T12:04:14Z</time>
      </trkpt>
      <trkpt lat="43.14266" lon="0.56764">
        <ele>483</ele>
        <time>2025-12-29T12:04:15Z</time>
      </trkpt>
      <trkpt lat="43.14265" lon="0.5676">
        <ele>483</ele>
        <time>2025-12-29T12:04:16Z</time>
      </trkpt>
      <trkpt lat="43.14263" lon="0.56755">
        <ele>483.2</ele>
        <time>2025-12-29T12:04:17Z</time>
      </trkpt>
      <trkpt lat="43.14263" lon="0.5675">
        <ele>484.2</ele>
        <time>2025-12-29T12:04:18Z</time>
      </trkpt>
      <trkpt lat="43.14261" lon="0.56745">
        <ele>484.2</ele>
        <time>2025-12-29T12:04:19Z</time>
      </trkpt>
      <trkpt lat="43.14259" lon="0.56741">
        <ele>484.2</ele>
        <time>2025-12-29T12:04:20Z</time>
      </trkpt>
      <trkpt lat="43.14257" lon="0.56736">
        <ele>483.8</ele>
        <time>2025-12-29T12:04:21Z</time>
      </trkpt>
      <trkpt lat="43.14255" lon="0.56731">
        <ele>483.4</ele>
        <time>2025-12-29T12:04:22Z</time>
      </trkpt>
      <trkpt lat="43.14254" lon="0.56727">
        <ele>483.4</ele>
        <time>2025-12-29T12:04:23Z</time>
      </trkpt>
      <trkpt lat="43.14252" lon="0.56722">
        <ele>483.4</ele>
        <time>2025-12-29T12:04:24Z</time>
      </trkpt>
      <trkpt lat="43.14251" lon="0.56717">
        <ele>484</ele>
        <time>2025-12-29T12:04:25Z</time>
      </trkpt>
      <trkpt lat="43.1425" lon="0.56713">
        <ele>483.6</ele>
        <time>2025-12-29T12:04:26Z</time>
      </trkpt>
      <trkpt lat="43.14248" lon="0.56708">
        <ele>483.6</ele>
        <time>2025-12-29T12:04:27Z</time>
      </trkpt>
      <trkpt lat="43.14246" lon="0.56704">
        <ele>483.6</ele>
        <time>2025-12-29T12:04:28Z</time>
      </trkpt>
      <trkpt lat="43.14244" lon="0.56699">
        <ele>483.6</ele>
        <time>2025-12-29T12:04:29Z</time>
      </trkpt>
      <trkpt lat="43.14242" lon="0.56695">
        <ele>484</ele>
        <time>2025-12-29T12:04:30Z</time>
      </trkpt>
      <trkpt lat="43.14241" lon="0.5669">
        <ele>484</ele>
        <time>2025-12-29T12:04:31Z</time>
      </trkpt>
      <trkpt lat="43.14239" lon="0.56685">
        <ele>484</ele>
        <time>2025-12-29T12:04:32Z</time>
      </trkpt>
      <trkpt lat="43.14237" lon="0.5668">
        <ele>485</ele>
        <time>2025-12-29T12:04:33Z</time>
      </trkpt>
      <trkpt lat="43.14236" lon="0.56676">
        <ele>484.6</ele>
        <time>2025-12-29T12:04:34Z</time>
      </trkpt>
      <trkpt lat="43.14234" lon="0.56672">
        <ele>484.6</ele>
        <time>2025-12-29T12:04:35Z</time>
      </trkpt>
      <trkpt lat="43.14232" lon="0.56668">
        <ele>484.6</ele>
        <time>2025-12-29T12:04:36Z</time>
      </trkpt>
      <trkpt lat="43.14231" lon="0.56664">
        <ele>485.2</ele>
        <time>2025-12-29T12:04:37Z</time>
      </trkpt>
      <trkpt lat="43.14229" lon="0.56659">
        <ele>485.4</ele>
        <time>2025-12-29T12:04:38Z</time>
      </trkpt>
      <trkpt lat="43.14227" lon="0.56655">
        <ele>485.4</ele>
        <time>2025-12-29T12:04:39Z</time>
      </trkpt>
      <trkpt lat="43.14225" lon="0.56651">
        <ele>485.4</ele>
        <time>2025-12-29T12:04:40Z</time>
      </trkpt>
      <trkpt lat="43.14224" lon="0.56646">
        <ele>485</ele>
        <time>2025-12-29T12:04:41Z</time>
      </trkpt>
      <trkpt lat="43.14222" lon="0.56642">
        <ele>485</ele>
        <time>2025-12-29T12:04:42Z</time>
      </trkpt>
      <trkpt lat="43.1422" lon="0.56638">
        <ele>485</ele>
        <time>2025-12-29T12:04:43Z</time>
      </trkpt>
      <trkpt lat="43.14219" lon="0.56633">
        <ele>485</ele>
        <time>2025-12-29T12:04:44Z</time>
      </trkpt>
      <trkpt lat="43.14217" lon="0.56629">
        <ele>485.4</ele>
        <time>2025-12-29T12:04:45Z</time>
      </trkpt>
      <trkpt lat="43.14216" lon="0.56625">
        <ele>485.4</ele>
        <time>2025-12-29T12:04:46Z</time>
      </trkpt>
      <trkpt lat="43.14214" lon="0.5662">
        <ele>485.4</ele>
        <time>2025-12-29T12:04:47Z</time>
      </trkpt>
      <trkpt lat="43.14212" lon="0.56616">
        <ele>485.4</ele>
        <time>2025-12-29T12:04:48Z</time>
      </trkpt>
      <trkpt lat="43.14211" lon="0.56612">
        <ele>485.4</ele>
        <time>2025-12-29T12:04:49Z</time>
      </trkpt>
      <trkpt lat="43.14209" lon="0.56607">
        <ele>485.2</ele>
        <time>2025-12-29T12:04:50Z</time>
      </trkpt>
      <trkpt lat="43.14208" lon="0.56603">
        <ele>485.2</ele>
        <time>2025-12-29T12:04:51Z</time>
      </trkpt>
      <trkpt lat="43.14207" lon="0.56598">
        <ele>485.2</ele>
        <time>2025-12-29T12:04:52Z</time>
      </trkpt>
      <trkpt lat="43.14205" lon="0.56594">
        <ele>485.8</ele>
        <time>2025-12-29T12:04:53Z</time>
      </trkpt>
      <trkpt lat="43.14204" lon="0.5659">
        <ele>486.6</ele>
        <time>2025-12-29T12:04:54Z</time>
      </trkpt>
      <trkpt lat="43.14202" lon="0.56586">
        <ele>486.6</ele>
        <time>2025-12-29T12:04:55Z</time>
      </trkpt>
      <trkpt lat="43.14201" lon="0.56582">
        <ele>486.6</ele>
        <time>2025-12-29T12:04:56Z</time>
      </trkpt>
      <trkpt lat="43.14199" lon="0.56578">
        <ele>486.6</ele>
        <time>2025-12-29T12:04:57Z</time>
      </trkpt>
      <trkpt lat="43.14198" lon="0.56574">
        <ele>486.8</ele>
        <time>2025-12-29T12:04:58Z</time>
      </trkpt>
      <trkpt lat="43.14197" lon="0.56571">
        <ele>486.8</ele>
        <time>2025-12-29T12:04:59Z</time>
      </trkpt>
      <trkpt lat="43.14195" lon="0.56568">
        <ele>486.8</ele>
        <time>2025-12-29T12:05:00Z</time>
      </trkpt>
      <trkpt lat="43.14194" lon="0.56564">
        <ele>487.8</ele>
        <time>2025-12-29T12:05:01Z</time>
      </trkpt>
      <trkpt lat="43.14192" lon="0.56561">
        <ele>487</ele>
        <time>2025-12-29T12:05:02Z</time>
      </trkpt>
      <trkpt lat="43.14191" lon="0.56559">
        <ele>487</ele>
        <time>2025-12-29T12:05:03Z</time>
      </trkpt>
      <trkpt lat="43.1419" lon="0.56556">
        <ele>487</ele>
        <time>2025-12-29T12:05:04Z</time>
      </trkpt>
      <trkpt lat="43.14188" lon="0.56553">
        <ele>488</ele>
        <time>2025-12-29T12:05:05Z</time>
      </trkpt>
      <trkpt lat="43.14187" lon="0.56549">
        <ele>488.2</ele>
        <time>2025-12-29T12:05:06Z</time>
      </trkpt>
      <trkpt lat="43.14185" lon="0.56545">
        <ele>488.2</ele>
        <time>2025-12-29T12:05:07Z</time>
      </trkpt>
      <trkpt lat="43.14183" lon="0.56541">
        <ele>488.2</ele>
        <time>2025-12-29T12:05:08Z</time>
      </trkpt>
      <trkpt lat="43.14181" lon="0.56538">
        <ele>488.2</ele>
        <time>2025-12-29T12:05:09Z</time>
      </trkpt>
      <trkpt lat="43.14179" lon="0.56535">
        <ele>488.2</ele>
        <time>2025-12-29T12:05:10Z</time>
      </trkpt>
      <trkpt lat="43.14178" lon="0.56531">
        <ele>488.2</ele>
        <time>2025-12-29T12:05:11Z</time>
      </trkpt>
      <trkpt lat="43.14176" lon="0.56526">
        <ele>488.2</ele>
        <time>2025-12-29T12:05:12Z</time>
      </trkpt>
      <trkpt lat="43.14174" lon="0.56522">
        <ele>488.2</ele>
        <time>2025-12-29T12:05:13Z</time>
      </trkpt>
      <trkpt lat="43.14171" lon="0.56518">
        <ele>488</ele>
        <time>2025-12-29T12:05:14Z</time>
      </trkpt>
      <trkpt lat="43.14169" lon="0.56513">
        <ele>488</ele>
        <time>2025-12-29T12:05:15Z</time>
      </trkpt>
      <trkpt lat="43.14167" lon="0.56508">
        <ele>488</ele>
        <time>2025-12-29T12:05:16Z</time>
      </trkpt>
      <trkpt lat="43.14165" lon="0.56504">
        <ele>488</ele>
        <time>2025-12-29T12:05:17Z</time>
      </trkpt>
      <trkpt lat="43.14163" lon="0.56499">
        <ele>487.8</ele>
        <time>2025-12-29T12:05:18Z</time>
      </trkpt>
      <trkpt lat="43.14161" lon="0.56495">
        <ele>487.8</ele>
        <time>2025-12-29T12:05:19Z</time>
      </trkpt>
      <trkpt lat="43.14159" lon="0.56491">
        <ele>487.8</ele>
        <time>2025-12-29T12:05:20Z</time>
      </trkpt>
      <trkpt lat="43.14157" lon="0.56487">
        <ele>488.8</ele>
        <time>2025-12-29T12:05:21Z</time>
      </trkpt>
      <trkpt lat="43.14155" lon="0.56482">
        <ele>489.4</ele>
        <time>2025-12-29T12:05:22Z</time>
      </trkpt>
      <trkpt lat="43.14153" lon="0.56478">
        <ele>489.4</ele>
        <time>2025-12-29T12:05:23Z</time>
      </trkpt>
      <trkpt lat="43.14151" lon="0.56474">
        <ele>489.4</ele>
        <time>2025-12-29T12:05:24Z</time>
      </trkpt>
      <trkpt lat="43.14149" lon="0.5647">
        <ele>489.4</ele>
        <time>2025-12-29T12:05:25Z</time>
      </trkpt>
      <trkpt lat="43.14146" lon="0.56467">
        <ele>490.2</ele>
        <time>2025-12-29T12:05:26Z</time>
      </trkpt>
      <trkpt lat="43.14144" lon="0.56463">
        <ele>490.2</ele>
        <time>2025-12-29T12:05:27Z</time>
      </trkpt>
      <trkpt lat="43.14143" lon="0.56459">
        <ele>490.2</ele>
        <time>2025-12-29T12:05:28Z</time>
      </trkpt>
      <trkpt lat="43.14141" lon="0.56455">
        <ele>490.2</ele>
        <time>2025-12-29T12:05:29Z</time>
      </trkpt>
      <trkpt lat="43.14139" lon="0.56451">
        <ele>491</ele>
        <time>2025-12-29T12:05:30Z</time>
      </trkpt>
      <trkpt lat="43.14137" lon="0.56448">
        <ele>491</ele>
        <time>2025-12-29T12:05:31Z</time>
      </trkpt>
      <trkpt lat="43.14135" lon="0.56444">
        <ele>491</ele>
        <time>2025-12-29T12:05:32Z</time>
      </trkpt>
      <trkpt lat="43.14134" lon="0.5644">
        <ele>491</ele>
        <time>2025-12-29T12:05:33Z</time>
      </trkpt>
      <trkpt lat="43.14133" lon="0.56437">
        <ele>491.8</ele>
        <time>2025-12-29T12:05:34Z</time>
      </trkpt>
      <trkpt lat="43.14131" lon="0.56433">
        <ele>491.8</ele>
        <time>2025-12-29T12:05:35Z</time>
      </trkpt>
      <trkpt lat="43.14129" lon="0.56429">
        <ele>491.8</ele>
        <time>2025-12-29T12:05:36Z</time>
      </trkpt>
      <trkpt lat="43.14128" lon="0.56425">
        <ele>491</ele>
        <time>2025-12-29T12:05:37Z</time>
      </trkpt>
      <trkpt lat="43.14126" lon="0.56421">
        <ele>491</ele>
        <time>2025-12-29T12:05:38Z</time>
      </trkpt>
      <trkpt lat="43.14124" lon="0.56417">
        <ele>491</ele>
        <time>2025-12-29T12:05:39Z</time>
      </trkpt>
      <trkpt lat="43.14123" lon="0.56412">
        <ele>491</ele>
        <time>2025-12-29T12:05:40Z</time>
      </trkpt>
      <trkpt lat="43.14121" lon="0.56408">
        <ele>491</ele>
        <time>2025-12-29T12:05:41Z</time>
      </trkpt>
      <trkpt lat="43.14119" lon="0.56404">
        <ele>490.6</ele>
        <time>2025-12-29T12:05:42Z</time>
      </trkpt>
      <trkpt lat="43.14117" lon="0.56399">
        <ele>490.6</ele>
        <time>2025-12-29T12:05:43Z</time>
      </trkpt>
      <trkpt lat="43.14115" lon="0.56394">
        <ele>490.6</ele>
        <time>2025-12-29T12:05:44Z</time>
      </trkpt>
      <trkpt lat="43.14113" lon="0.56389">
        <ele>490.6</ele>
        <time>2025-12-29T12:05:45Z</time>
      </trkpt>
      <trkpt lat="43.14111" lon="0.56384">
        <ele>491</ele>
        <time>2025-12-29T12:05:46Z</time>
      </trkpt>
      <trkpt lat="43.14109" lon="0.56379">
        <ele>491</ele>
        <time>2025-12-29T12:05:47Z</time>
      </trkpt>
      <trkpt lat="43.14107" lon="0.56373">
        <ele>491</ele>
        <time>2025-12-29T12:05:48Z</time>
      </trkpt>
      <trkpt lat="43.14106" lon="0.56369">
        <ele>490.4</ele>
        <time>2025-12-29T12:05:49Z</time>
      </trkpt>
      <trkpt lat="43.14104" lon="0.56364">
        <ele>491.2</ele>
        <time>2025-12-29T12:05:50Z</time>
      </trkpt>
      <trkpt lat="43.14102" lon="0.56359">
        <ele>491.2</ele>
        <time>2025-12-29T12:05:51Z</time>
      </trkpt>
      <trkpt lat="43.141" lon="0.56354">
        <ele>491.2</ele>
        <time>2025-12-29T12:05:52Z</time>
      </trkpt>
      <trkpt lat="43.14098" lon="0.56349">
        <ele>490.2</ele>
        <time>2025-12-29T12:05:53Z</time>
      </trkpt>
      <trkpt lat="43.14097" lon="0.56345">
        <ele>490.6</ele>
        <time>2025-12-29T12:05:54Z</time>
      </trkpt>
      <trkpt lat="43.14095" lon="0.5634">
        <ele>490.6</ele>
        <time>2025-12-29T12:05:55Z</time>
      </trkpt>
      <trkpt lat="43.14093" lon="0.56335">
        <ele>490.6</ele>
        <time>2025-12-29T12:05:56Z</time>
      </trkpt>
      <trkpt lat="43.14091" lon="0.5633">
        <ele>490.6</ele>
        <time>2025-12-29T12:05:57Z</time>
      </trkpt>
      <trkpt lat="43.1409" lon="0.56325">
        <ele>490.4</ele>
        <time>2025-12-29T12:05:58Z</time>
      </trkpt>
      <trkpt lat="43.14088" lon="0.5632">
        <ele>490.4</ele>
        <time>2025-12-29T12:05:59Z</time>
      </trkpt>
      <trkpt lat="43.14085" lon="0.56314">
        <ele>490.4</ele>
        <time>2025-12-29T12:06:00Z</time>
      </trkpt>
      <trkpt lat="43.14083" lon="0.56309">
        <ele>490.6</ele>
        <time>2025-12-29T12:06:01Z</time>
      </trkpt>
      <trkpt lat="43.14081" lon="0.56303">
        <ele>491</ele>
        <time>2025-12-29T12:06:02Z</time>
      </trkpt>
      <trkpt lat="43.14079" lon="0.56298">
        <ele>491</ele>
        <time>2025-12-29T12:06:03Z</time>
      </trkpt>
      <trkpt lat="43.14078" lon="0.56292">
        <ele>491</ele>
        <time>2025-12-29T12:06:04Z</time>
      </trkpt>
      <trkpt lat="43.14076" lon="0.56287">
        <ele>490</ele>
        <time>2025-12-29T12:06:05Z</time>
      </trkpt>
      <trkpt lat="43.14074" lon="0.56282">
        <ele>490</ele>
        <time>2025-12-29T12:06:06Z</time>
      </trkpt>
      <trkpt lat="43.14072" lon="0.56277">
        <ele>490</ele>
        <time>2025-12-29T12:06:07Z</time>
      </trkpt>
      <trkpt lat="43.1407" lon="0.56271">
        <ele>490</ele>
        <time>2025-12-29T12:06:08Z</time>
      </trkpt>
      <trkpt lat="43.14068" lon="0.56265">
        <ele>490</ele>
        <time>2025-12-29T12:06:09Z</time>
      </trkpt>
      <trkpt lat="43.14066" lon="0.5626">
        <ele>488.8</ele>
        <time>2025-12-29T12:06:10Z</time>
      </trkpt>
      <trkpt lat="43.14064" lon="0.56254">
        <ele>488.8</ele>
        <time>2025-12-29T12:06:11Z</time>
      </trkpt>
      <trkpt lat="43.14062" lon="0.56249">
        <ele>488.8</ele>
        <time>2025-12-29T12:06:12Z</time>
      </trkpt>
      <trkpt lat="43.1406" lon="0.56244">
        <ele>489.4</ele>
        <time>2025-12-29T12:06:13Z</time>
      </trkpt>
      <trkpt lat="43.14058" lon="0.56239">
        <ele>491.2</ele>
        <time>2025-12-29T12:06:14Z</time>
      </trkpt>
      <trkpt lat="43.14056" lon="0.56233">
        <ele>491.2</ele>
        <time>2025-12-29T12:06:15Z</time>
      </trkpt>
      <trkpt lat="43.14054" lon="0.56228">
        <ele>491.2</ele>
        <time>2025-12-29T12:06:16Z</time>
      </trkpt>
      <trkpt lat="43.14052" lon="0.56223">
        <ele>491.2</ele>
        <time>2025-12-29T12:06:17Z</time>
      </trkpt>
      <trkpt lat="43.1405" lon="0.56217">
        <ele>489.8</ele>
        <time>2025-12-29T12:06:18Z</time>
      </trkpt>
      <trkpt lat="43.14048" lon="0.56212">
        <ele>489.8</ele>
        <time>2025-12-29T12:06:19Z</time>
      </trkpt>
      <trkpt lat="43.14046" lon="0.56207">
        <ele>489.8</ele>
        <time>2025-12-29T12:06:20Z</time>
      </trkpt>
      <trkpt lat="43.14045" lon="0.56203">
        <ele>489.8</ele>
        <time>2025-12-29T12:06:21Z</time>
      </trkpt>
      <trkpt lat="43.14043" lon="0.56198">
        <ele>490.6</ele>
        <time>2025-12-29T12:06:22Z</time>
      </trkpt>
      <trkpt lat="43.14041" lon="0.56192">
        <ele>490.6</ele>
        <time>2025-12-29T12:06:23Z</time>
      </trkpt>
      <trkpt lat="43.1404" lon="0.56187">
        <ele>490.6</ele>
        <time>2025-12-29T12:06:24Z</time>
      </trkpt>
      <trkpt lat="43.14038" lon="0.56181">
        <ele>490.6</ele>
        <time>2025-12-29T12:06:25Z</time>
      </trkpt>
      <trkpt lat="43.14036" lon="0.56175">
        <ele>490.2</ele>
        <time>2025-12-29T12:06:26Z</time>
      </trkpt>
      <trkpt lat="43.14034" lon="0.5617">
        <ele>490.2</ele>
        <time>2025-12-29T12:06:27Z</time>
      </trkpt>
      <trkpt lat="43.14032" lon="0.56164">
        <ele>490.2</ele>
        <time>2025-12-29T12:06:28Z</time>
      </trkpt>
      <trkpt lat="43.14031" lon="0.56158">
        <ele>490.2</ele>
        <time>2025-12-29T12:06:29Z</time>
      </trkpt>
      <trkpt lat="43.14029" lon="0.56152">
        <ele>490.8</ele>
        <time>2025-12-29T12:06:30Z</time>
      </trkpt>
      <trkpt lat="43.14028" lon="0.56147">
        <ele>490.8</ele>
        <time>2025-12-29T12:06:31Z</time>
      </trkpt>
      <trkpt lat="43.14026" lon="0.56142">
        <ele>490.8</ele>
        <time>2025-12-29T12:06:32Z</time>
      </trkpt>
      <trkpt lat="43.14024" lon="0.56137">
        <ele>490.2</ele>
        <time>2025-12-29T12:06:33Z</time>
      </trkpt>
      <trkpt lat="43.14022" lon="0.56132">
        <ele>489.6</ele>
        <time>2025-12-29T12:06:34Z</time>
      </trkpt>
      <trkpt lat="43.1402" lon="0.56126">
        <ele>489.6</ele>
        <time>2025-12-29T12:06:35Z</time>
      </trkpt>
      <trkpt lat="43.14018" lon="0.56121">
        <ele>489.6</ele>
        <time>2025-12-29T12:06:36Z</time>
      </trkpt>
      <trkpt lat="43.14016" lon="0.56116">
        <ele>489.6</ele>
        <time>2025-12-29T12:06:37Z</time>
      </trkpt>
      <trkpt lat="43.14014" lon="0.5611">
        <ele>489.4</ele>
        <time>2025-12-29T12:06:38Z</time>
      </trkpt>
      <trkpt lat="43.14012" lon="0.56105">
        <ele>489.4</ele>
        <time>2025-12-29T12:06:39Z</time>
      </trkpt>
      <trkpt lat="43.1401" lon="0.561">
        <ele>489.4</ele>
        <time>2025-12-29T12:06:40Z</time>
      </trkpt>
      <trkpt lat="43.14008" lon="0.56095">
        <ele>489.4</ele>
        <time>2025-12-29T12:06:41Z</time>
      </trkpt>
      <trkpt lat="43.14006" lon="0.56091">
        <ele>490.6</ele>
        <time>2025-12-29T12:06:42Z</time>
      </trkpt>
      <trkpt lat="43.14004" lon="0.56086">
        <ele>490.6</ele>
        <time>2025-12-29T12:06:43Z</time>
      </trkpt>
      <trkpt lat="43.14002" lon="0.56081">
        <ele>490.6</ele>
        <time>2025-12-29T12:06:44Z</time>
      </trkpt>
      <trkpt lat="43.14001" lon="0.56076">
        <ele>491.2</ele>
        <time>2025-12-29T12:06:45Z</time>
      </trkpt>
      <trkpt lat="43.13999" lon="0.56072">
        <ele>491.2</ele>
        <time>2025-12-29T12:06:46Z</time>
      </trkpt>
      <trkpt lat="43.13997" lon="0.56067">
        <ele>491.2</ele>
        <time>2025-12-29T12:06:47Z</time>
      </trkpt>
      <trkpt lat="43.13995" lon="0.56062">
        <ele>491.2</ele>
        <time>2025-12-29T12:06:48Z</time>
      </trkpt>
      <trkpt lat="43.13993" lon="0.56058">
        <ele>491.2</ele>
        <time>2025-12-29T12:06:49Z</time>
      </trkpt>
      <trkpt lat="43.13992" lon="0.56053">
        <ele>491.2</ele>
        <time>2025-12-29T12:06:50Z</time>
      </trkpt>
      <trkpt lat="43.1399" lon="0.56048">
        <ele>491.2</ele>
        <time>2025-12-29T12:06:51Z</time>
      </trkpt>
      <trkpt lat="43.13988" lon="0.56043">
        <ele>491.2</ele>
        <time>2025-12-29T12:06:52Z</time>
      </trkpt>
      <trkpt lat="43.13987" lon="0.56037">
        <ele>491.2</ele>
        <time>2025-12-29T12:06:53Z</time>
      </trkpt>
      <trkpt lat="43.13985" lon="0.56032">
        <ele>489.8</ele>
        <time>2025-12-29T12:06:54Z</time>
      </trkpt>
      <trkpt lat="43.13982" lon="0.56027">
        <ele>489.8</ele>
        <time>2025-12-29T12:06:55Z</time>
      </trkpt>
      <trkpt lat="43.13981" lon="0.56021">
        <ele>489.8</ele>
        <time>2025-12-29T12:06:56Z</time>
      </trkpt>
      <trkpt lat="43.13979" lon="0.56016">
        <ele>490.8</ele>
        <time>2025-12-29T12:06:57Z</time>
      </trkpt>
      <trkpt lat="43.13977" lon="0.56011">
        <ele>491</ele>
        <time>2025-12-29T12:06:58Z</time>
      </trkpt>
      <trkpt lat="43.13975" lon="0.56006">
        <ele>491</ele>
        <time>2025-12-29T12:06:59Z</time>
      </trkpt>
      <trkpt lat="43.13973" lon="0.56">
        <ele>491</ele>
        <time>2025-12-29T12:07:00Z</time>
      </trkpt>
      <trkpt lat="43.13971" lon="0.55995">
        <ele>491</ele>
        <time>2025-12-29T12:07:01Z</time>
      </trkpt>
      <trkpt lat="43.13969" lon="0.5599">
        <ele>491.8</ele>
        <time>2025-12-29T12:07:02Z</time>
      </trkpt>
      <trkpt lat="43.13967" lon="0.55984">
        <ele>491.8</ele>
        <time>2025-12-29T12:07:03Z</time>
      </trkpt>
      <trkpt lat="43.13965" lon="0.55979">
        <ele>491.8</ele>
        <time>2025-12-29T12:07:04Z</time>
      </trkpt>
      <trkpt lat="43.13963" lon="0.55974">
        <ele>491.8</ele>
        <time>2025-12-29T12:07:05Z</time>
      </trkpt>
      <trkpt lat="43.1396" lon="0.55969">
        <ele>491.6</ele>
        <time>2025-12-29T12:07:06Z</time>
      </trkpt>
      <trkpt lat="43.13958" lon="0.55964">
        <ele>491.6</ele>
        <time>2025-12-29T12:07:07Z</time>
      </trkpt>
      <trkpt lat="43.13956" lon="0.55958">
        <ele>491.6</ele>
        <time>2025-12-29T12:07:08Z</time>
      </trkpt>
      <trkpt lat="43.13954" lon="0.55953">
        <ele>491.6</ele>
        <time>2025-12-29T12:07:09Z</time>
      </trkpt>
      <trkpt lat="43.13952" lon="0.55949">
        <ele>491.6</ele>
        <time>2025-12-29T12:07:10Z</time>
      </trkpt>
      <trkpt lat="43.1395" lon="0.55944">
        <ele>491.6</ele>
        <time>2025-12-29T12:07:11Z</time>
      </trkpt>
      <trkpt lat="43.13949" lon="0.55939">
        <ele>491.6</ele>
        <time>2025-12-29T12:07:12Z</time>
      </trkpt>
      <trkpt lat="43.13947" lon="0.55934">
        <ele>491.6</ele>
        <time>2025-12-29T12:07:13Z</time>
      </trkpt>
      <trkpt lat="43.13945" lon="0.55929">
        <ele>491.6</ele>
        <time>2025-12-29T12:07:14Z</time>
      </trkpt>
      <trkpt lat="43.13943" lon="0.55925">
        <ele>491.6</ele>
        <time>2025-12-29T12:07:15Z</time>
      </trkpt>
      <trkpt lat="43.13941" lon="0.5592">
        <ele>491.6</ele>
        <time>2025-12-29T12:07:16Z</time>
      </trkpt>
      <trkpt lat="43.1394" lon="0.55916">
        <ele>491.6</ele>
        <time>2025-12-29T12:07:17Z</time>
      </trkpt>
      <trkpt lat="43.13938" lon="0.55912">
        <ele>492.4</ele>
        <time>2025-12-29T12:07:18Z</time>
      </trkpt>
      <trkpt lat="43.13936" lon="0.55907">
        <ele>492.4</ele>
        <time>2025-12-29T12:07:19Z</time>
      </trkpt>
      <trkpt lat="43.13935" lon="0.55903">
        <ele>492.4</ele>
        <time>2025-12-29T12:07:20Z</time>
      </trkpt>
      <trkpt lat="43.13933" lon="0.55899">
        <ele>493.4</ele>
        <time>2025-12-29T12:07:21Z</time>
      </trkpt>
      <trkpt lat="43.13931" lon="0.55895">
        <ele>491.6</ele>
        <time>2025-12-29T12:07:22Z</time>
      </trkpt>
      <trkpt lat="43.1393" lon="0.55891">
        <ele>491.6</ele>
        <time>2025-12-29T12:07:23Z</time>
      </trkpt>
      <trkpt lat="43.13928" lon="0.55886">
        <ele>491.6</ele>
        <time>2025-12-29T12:07:24Z</time>
      </trkpt>
      <trkpt lat="43.13926" lon="0.55882">
        <ele>492.6</ele>
        <time>2025-12-29T12:07:25Z</time>
      </trkpt>
      <trkpt lat="43.13925" lon="0.55878">
        <ele>492.6</ele>
        <time>2025-12-29T12:07:26Z</time>
      </trkpt>
      <trkpt lat="43.13923" lon="0.55873">
        <ele>492.6</ele>
        <time>2025-12-29T12:07:27Z</time>
      </trkpt>
      <trkpt lat="43.13921" lon="0.55869">
        <ele>492.6</ele>
        <time>2025-12-29T12:07:28Z</time>
      </trkpt>
      <trkpt lat="43.1392" lon="0.55864">
        <ele>493.2</ele>
        <time>2025-12-29T12:07:29Z</time>
      </trkpt>
      <trkpt lat="43.13918" lon="0.55859">
        <ele>493.4</ele>
        <time>2025-12-29T12:07:30Z</time>
      </trkpt>
      <trkpt lat="43.13916" lon="0.55855">
        <ele>493.4</ele>
        <time>2025-12-29T12:07:31Z</time>
      </trkpt>
      <trkpt lat="43.13914" lon="0.5585">
        <ele>493.4</ele>
        <time>2025-12-29T12:07:32Z</time>
      </trkpt>
      <trkpt lat="43.13912" lon="0.55846">
        <ele>493.4</ele>
        <time>2025-12-29T12:07:33Z</time>
      </trkpt>
      <trkpt lat="43.13911" lon="0.55841">
        <ele>493.8</ele>
        <time>2025-12-29T12:07:34Z</time>
      </trkpt>
      <trkpt lat="43.13909" lon="0.55837">
        <ele>493.8</ele>
        <time>2025-12-29T12:07:35Z</time>
      </trkpt>
      <trkpt lat="43.13907" lon="0.55832">
        <ele>493.8</ele>
        <time>2025-12-29T12:07:36Z</time>
      </trkpt>
      <trkpt lat="43.13906" lon="0.55828">
        <ele>493</ele>
        <time>2025-12-29T12:07:37Z</time>
      </trkpt>
      <trkpt lat="43.13904" lon="0.55823">
        <ele>493.8</ele>
        <time>2025-12-29T12:07:38Z</time>
      </trkpt>
      <trkpt lat="43.13902" lon="0.55819">
        <ele>493.8</ele>
        <time>2025-12-29T12:07:39Z</time>
      </trkpt>
      <trkpt lat="43.139" lon="0.55814">
        <ele>493.8</ele>
        <time>2025-12-29T12:07:40Z</time>
      </trkpt>
      <trkpt lat="43.13899" lon="0.55809">
        <ele>493.8</ele>
        <time>2025-12-29T12:07:41Z</time>
      </trkpt>
      <trkpt lat="43.13897" lon="0.55804">
        <ele>494.4</ele>
        <time>2025-12-29T12:07:42Z</time>
      </trkpt>
      <trkpt lat="43.13896" lon="0.558">
        <ele>494.4</ele>
        <time>2025-12-29T12:07:43Z</time>
      </trkpt>
      <trkpt lat="43.13894" lon="0.55795">
        <ele>494.4</ele>
        <time>2025-12-29T12:07:44Z</time>
      </trkpt>
      <trkpt lat="43.13893" lon="0.5579">
        <ele>493.4</ele>
        <time>2025-12-29T12:07:45Z</time>
      </trkpt>
      <trkpt lat="43.13891" lon="0.55786">
        <ele>493.6</ele>
        <time>2025-12-29T12:07:46Z</time>
      </trkpt>
      <trkpt lat="43.1389" lon="0.55781">
        <ele>493.6</ele>
        <time>2025-12-29T12:07:47Z</time>
      </trkpt>
      <trkpt lat="43.13888" lon="0.55776">
        <ele>493.6</ele>
        <time>2025-12-29T12:07:48Z</time>
      </trkpt>
      <trkpt lat="43.13887" lon="0.55771">
        <ele>494.4</ele>
        <time>2025-12-29T12:07:49Z</time>
      </trkpt>
      <trkpt lat="43.13886" lon="0.55766">
        <ele>494.2</ele>
        <time>2025-12-29T12:07:50Z</time>
      </trkpt>
      <trkpt lat="43.13884" lon="0.55761">
        <ele>494.2</ele>
        <time>2025-12-29T12:07:51Z</time>
      </trkpt>
      <trkpt lat="43.13883" lon="0.55756">
        <ele>494.2</ele>
        <time>2025-12-29T12:07:52Z</time>
      </trkpt>
      <trkpt lat="43.13882" lon="0.55751">
        <ele>494.2</ele>
        <time>2025-12-29T12:07:53Z</time>
      </trkpt>
      <trkpt lat="43.1388" lon="0.55745">
        <ele>495</ele>
        <time>2025-12-29T12:07:54Z</time>
      </trkpt>
      <trkpt lat="43.13879" lon="0.5574">
        <ele>495</ele>
        <time>2025-12-29T12:07:55Z</time>
      </trkpt>
      <trkpt lat="43.13877" lon="0.55735">
        <ele>495</ele>
        <time>2025-12-29T12:07:56Z</time>
      </trkpt>
      <trkpt lat="43.13876" lon="0.5573">
        <ele>494.4</ele>
        <time>2025-12-29T12:07:57Z</time>
      </trkpt>
      <trkpt lat="43.13874" lon="0.55725">
        <ele>494</ele>
        <time>2025-12-29T12:07:58Z</time>
      </trkpt>
      <trkpt lat="43.13873" lon="0.55721">
        <ele>494</ele>
        <time>2025-12-29T12:07:59Z</time>
      </trkpt>
      <trkpt lat="43.13872" lon="0.55716">
        <ele>494</ele>
        <time>2025-12-29T12:08:00Z</time>
      </trkpt>
      <trkpt lat="43.1387" lon="0.55711">
        <ele>494.8</ele>
        <time>2025-12-29T12:08:01Z</time>
      </trkpt>
      <trkpt lat="43.13869" lon="0.55706">
        <ele>495</ele>
        <time>2025-12-29T12:08:02Z</time>
      </trkpt>
      <trkpt lat="43.13868" lon="0.55702">
        <ele>495</ele>
        <time>2025-12-29T12:08:03Z</time>
      </trkpt>
      <trkpt lat="43.13866" lon="0.55697">
        <ele>495</ele>
        <time>2025-12-29T12:08:04Z</time>
      </trkpt>
      <trkpt lat="43.13865" lon="0.55692">
        <ele>495</ele>
        <time>2025-12-29T12:08:05Z</time>
      </trkpt>
      <trkpt lat="43.13864" lon="0.55687">
        <ele>495</ele>
        <time>2025-12-29T12:08:06Z</time>
      </trkpt>
      <trkpt lat="43.13862" lon="0.55682">
        <ele>495</ele>
        <time>2025-12-29T12:08:07Z</time>
      </trkpt>
      <trkpt lat="43.13861" lon="0.55677">
        <ele>495</ele>
        <time>2025-12-29T12:08:08Z</time>
      </trkpt>
      <trkpt lat="43.13859" lon="0.55672">
        <ele>495.8</ele>
        <time>2025-12-29T12:08:09Z</time>
      </trkpt>
      <trkpt lat="43.13858" lon="0.55667">
        <ele>496</ele>
        <time>2025-12-29T12:08:10Z</time>
      </trkpt>
      <trkpt lat="43.13857" lon="0.55663">
        <ele>496</ele>
        <time>2025-12-29T12:08:11Z</time>
      </trkpt>
      <trkpt lat="43.13855" lon="0.55658">
        <ele>496</ele>
        <time>2025-12-29T12:08:12Z</time>
      </trkpt>
      <trkpt lat="43.13854" lon="0.55653">
        <ele>496</ele>
        <time>2025-12-29T12:08:13Z</time>
      </trkpt>
      <trkpt lat="43.13853" lon="0.55648">
        <ele>496.4</ele>
        <time>2025-12-29T12:08:14Z</time>
      </trkpt>
      <trkpt lat="43.13851" lon="0.55644">
        <ele>496.4</ele>
        <time>2025-12-29T12:08:15Z</time>
      </trkpt>
      <trkpt lat="43.1385" lon="0.55639">
        <ele>496.4</ele>
        <time>2025-12-29T12:08:16Z</time>
      </trkpt>
      <trkpt lat="43.13849" lon="0.55634">
        <ele>495.4</ele>
        <time>2025-12-29T12:08:17Z</time>
      </trkpt>
      <trkpt lat="43.13847" lon="0.55628">
        <ele>497</ele>
        <time>2025-12-29T12:08:18Z</time>
      </trkpt>
      <trkpt lat="43.13846" lon="0.55623">
        <ele>497</ele>
        <time>2025-12-29T12:08:19Z</time>
      </trkpt>
      <trkpt lat="43.13845" lon="0.55618">
        <ele>497</ele>
        <time>2025-12-29T12:08:20Z</time>
      </trkpt>
      <trkpt lat="43.13843" lon="0.55613">
        <ele>496</ele>
        <time>2025-12-29T12:08:21Z</time>
      </trkpt>
      <trkpt lat="43.13842" lon="0.55608">
        <ele>494.8</ele>
        <time>2025-12-29T12:08:22Z</time>
      </trkpt>
      <trkpt lat="43.1384" lon="0.55603">
        <ele>494.8</ele>
        <time>2025-12-29T12:08:23Z</time>
      </trkpt>
      <trkpt lat="43.13839" lon="0.55598">
        <ele>494.8</ele>
        <time>2025-12-29T12:08:24Z</time>
      </trkpt>
      <trkpt lat="43.13838" lon="0.55593">
        <ele>495.8</ele>
        <time>2025-12-29T12:08:25Z</time>
      </trkpt>
      <trkpt lat="43.13837" lon="0.55588">
        <ele>496.8</ele>
        <time>2025-12-29T12:08:26Z</time>
      </trkpt>
      <trkpt lat="43.13835" lon="0.55583">
        <ele>496.8</ele>
        <time>2025-12-29T12:08:27Z</time>
      </trkpt>
      <trkpt lat="43.13834" lon="0.55578">
        <ele>496.8</ele>
        <time>2025-12-29T12:08:28Z</time>
      </trkpt>
      <trkpt lat="43.13833" lon="0.55573">
        <ele>496.8</ele>
        <time>2025-12-29T12:08:29Z</time>
      </trkpt>
      <trkpt lat="43.13832" lon="0.55568">
        <ele>495.8</ele>
        <time>2025-12-29T12:08:30Z</time>
      </trkpt>
      <trkpt lat="43.1383" lon="0.55563">
        <ele>495.8</ele>
        <time>2025-12-29T12:08:31Z</time>
      </trkpt>
      <trkpt lat="43.13829" lon="0.55558">
        <ele>495.8</ele>
        <time>2025-12-29T12:08:32Z</time>
      </trkpt>
      <trkpt lat="43.13828" lon="0.55554">
        <ele>496.8</ele>
        <time>2025-12-29T12:08:33Z</time>
      </trkpt>
      <trkpt lat="43.13827" lon="0.55549">
        <ele>497.4</ele>
        <time>2025-12-29T12:08:34Z</time>
      </trkpt>
      <trkpt lat="43.13826" lon="0.55544">
        <ele>497.4</ele>
        <time>2025-12-29T12:08:35Z</time>
      </trkpt>
      <trkpt lat="43.13824" lon="0.55539">
        <ele>497.4</ele>
        <time>2025-12-29T12:08:36Z</time>
      </trkpt>
      <trkpt lat="43.13823" lon="0.55535">
        <ele>497.4</ele>
        <time>2025-12-29T12:08:37Z</time>
      </trkpt>
      <trkpt lat="43.13822" lon="0.5553">
        <ele>498.4</ele>
        <time>2025-12-29T12:08:38Z</time>
      </trkpt>
      <trkpt lat="43.13821" lon="0.55525">
        <ele>498.4</ele>
        <time>2025-12-29T12:08:39Z</time>
      </trkpt>
      <trkpt lat="43.1382" lon="0.5552">
        <ele>498.4</ele>
        <time>2025-12-29T12:08:40Z</time>
      </trkpt>
      <trkpt lat="43.13819" lon="0.55515">
        <ele>498.2</ele>
        <time>2025-12-29T12:08:41Z</time>
      </trkpt>
      <trkpt lat="43.13818" lon="0.55511">
        <ele>497.6</ele>
        <time>2025-12-29T12:08:42Z</time>
      </trkpt>
      <trkpt lat="43.13817" lon="0.55505">
        <ele>497.6</ele>
        <time>2025-12-29T12:08:43Z</time>
      </trkpt>
      <trkpt lat="43.13816" lon="0.555">
        <ele>497.6</ele>
        <time>2025-12-29T12:08:44Z</time>
      </trkpt>
      <trkpt lat="43.13815" lon="0.55495">
        <ele>498.2</ele>
        <time>2025-12-29T12:08:45Z</time>
      </trkpt>
      <trkpt lat="43.13814" lon="0.5549">
        <ele>498</ele>
        <time>2025-12-29T12:08:46Z</time>
      </trkpt>
      <trkpt lat="43.13813" lon="0.55484">
        <ele>498</ele>
        <time>2025-12-29T12:08:47Z</time>
      </trkpt>
      <trkpt lat="43.13812" lon="0.55479">
        <ele>498</ele>
        <time>2025-12-29T12:08:48Z</time>
      </trkpt>
      <trkpt lat="43.13811" lon="0.55474">
        <ele>498</ele>
        <time>2025-12-29T12:08:49Z</time>
      </trkpt>
      <trkpt lat="43.1381" lon="0.55469">
        <ele>499</ele>
        <time>2025-12-29T12:08:50Z</time>
      </trkpt>
      <trkpt lat="43.1381" lon="0.55463">
        <ele>499</ele>
        <time>2025-12-29T12:08:51Z</time>
      </trkpt>
      <trkpt lat="43.13809" lon="0.55459">
        <ele>499</ele>
        <time>2025-12-29T12:08:52Z</time>
      </trkpt>
      <trkpt lat="43.13809" lon="0.55454">
        <ele>498.4</ele>
        <time>2025-12-29T12:08:53Z</time>
      </trkpt>
      <trkpt lat="43.13808" lon="0.55449">
        <ele>497.8</ele>
        <time>2025-12-29T12:08:54Z</time>
      </trkpt>
      <trkpt lat="43.13807" lon="0.55444">
        <ele>497.8</ele>
        <time>2025-12-29T12:08:55Z</time>
      </trkpt>
      <trkpt lat="43.13806" lon="0.55439">
        <ele>497.8</ele>
        <time>2025-12-29T12:08:56Z</time>
      </trkpt>
      <trkpt lat="43.13806" lon="0.55434">
        <ele>497.8</ele>
        <time>2025-12-29T12:08:57Z</time>
      </trkpt>
      <trkpt lat="43.13805" lon="0.55429">
        <ele>497.8</ele>
        <time>2025-12-29T12:08:58Z</time>
      </trkpt>
      <trkpt lat="43.13805" lon="0.55424">
        <ele>497.8</ele>
        <time>2025-12-29T12:08:59Z</time>
      </trkpt>
      <trkpt lat="43.13804" lon="0.55419">
        <ele>497.8</ele>
        <time>2025-12-29T12:09:00Z</time>
      </trkpt>
      <trkpt lat="43.13804" lon="0.55414">
        <ele>498.2</ele>
        <time>2025-12-29T12:09:01Z</time>
      </trkpt>
      <trkpt lat="43.13804" lon="0.55409">
        <ele>498.2</ele>
        <time>2025-12-29T12:09:02Z</time>
      </trkpt>
      <trkpt lat="43.13803" lon="0.55404">
        <ele>498.2</ele>
        <time>2025-12-29T12:09:03Z</time>
      </trkpt>
      <trkpt lat="43.13803" lon="0.55399">
        <ele>498.2</ele>
        <time>2025-12-29T12:09:04Z</time>
      </trkpt>
      <trkpt lat="43.13803" lon="0.55394">
        <ele>498.2</ele>
        <time>2025-12-29T12:09:05Z</time>
      </trkpt>
      <trkpt lat="43.13802" lon="0.55389">
        <ele>498.6</ele>
        <time>2025-12-29T12:09:06Z</time>
      </trkpt>
      <trkpt lat="43.13802" lon="0.55384">
        <ele>498.6</ele>
        <time>2025-12-29T12:09:07Z</time>
      </trkpt>
      <trkpt lat="43.13802" lon="0.55379">
        <ele>498.6</ele>
        <time>2025-12-29T12:09:08Z</time>
      </trkpt>
      <trkpt lat="43.13801" lon="0.55373">
        <ele>498.6</ele>
        <time>2025-12-29T12:09:09Z</time>
      </trkpt>
      <trkpt lat="43.13801" lon="0.55368">
        <ele>499.2</ele>
        <time>2025-12-29T12:09:10Z</time>
      </trkpt>
      <trkpt lat="43.13801" lon="0.55363">
        <ele>499.2</ele>
        <time>2025-12-29T12:09:11Z</time>
      </trkpt>
      <trkpt lat="43.138" lon="0.55358">
        <ele>499.2</ele>
        <time>2025-12-29T12:09:12Z</time>
      </trkpt>
      <trkpt lat="43.138" lon="0.55353">
        <ele>499.2</ele>
        <time>2025-12-29T12:09:13Z</time>
      </trkpt>
      <trkpt lat="43.138" lon="0.55348">
        <ele>499.2</ele>
        <time>2025-12-29T12:09:14Z</time>
      </trkpt>
      <trkpt lat="43.138" lon="0.55343">
        <ele>499.2</ele>
        <time>2025-12-29T12:09:15Z</time>
      </trkpt>
      <trkpt lat="43.13799" lon="0.55337">
        <ele>499.2</ele>
        <time>2025-12-29T12:09:16Z</time>
      </trkpt>
      <trkpt lat="43.13799" lon="0.55332">
        <ele>500</ele>
        <time>2025-12-29T12:09:17Z</time>
      </trkpt>
      <trkpt lat="43.13799" lon="0.55326">
        <ele>500.6</ele>
        <time>2025-12-29T12:09:18Z</time>
      </trkpt>
      <trkpt lat="43.13798" lon="0.55321">
        <ele>500.6</ele>
        <time>2025-12-29T12:09:19Z</time>
      </trkpt>
      <trkpt lat="43.13797" lon="0.55315">
        <ele>500.6</ele>
        <time>2025-12-29T12:09:20Z</time>
      </trkpt>
      <trkpt lat="43.13797" lon="0.5531">
        <ele>500.6</ele>
        <time>2025-12-29T12:09:21Z</time>
      </trkpt>
      <trkpt lat="43.13796" lon="0.55305">
        <ele>501.4</ele>
        <time>2025-12-29T12:09:22Z</time>
      </trkpt>
      <trkpt lat="43.13795" lon="0.553">
        <ele>501.4</ele>
        <time>2025-12-29T12:09:23Z</time>
      </trkpt>
      <trkpt lat="43.13794" lon="0.55295">
        <ele>501.4</ele>
        <time>2025-12-29T12:09:24Z</time>
      </trkpt>
      <trkpt lat="43.13793" lon="0.5529">
        <ele>501.2</ele>
        <time>2025-12-29T12:09:25Z</time>
      </trkpt>
      <trkpt lat="43.13792" lon="0.55285">
        <ele>500.6</ele>
        <time>2025-12-29T12:09:26Z</time>
      </trkpt>
      <trkpt lat="43.13791" lon="0.5528">
        <ele>500.6</ele>
        <time>2025-12-29T12:09:27Z</time>
      </trkpt>
      <trkpt lat="43.1379" lon="0.55275">
        <ele>500.6</ele>
        <time>2025-12-29T12:09:28Z</time>
      </trkpt>
      <trkpt lat="43.13789" lon="0.5527">
        <ele>500.6</ele>
        <time>2025-12-29T12:09:29Z</time>
      </trkpt>
      <trkpt lat="43.13787" lon="0.55265">
        <ele>500.6</ele>
        <time>2025-12-29T12:09:30Z</time>
      </trkpt>
      <trkpt lat="43.13786" lon="0.55259">
        <ele>500.6</ele>
        <time>2025-12-29T12:09:31Z</time>
      </trkpt>
      <trkpt lat="43.13785" lon="0.55254">
        <ele>500.6</ele>
        <time>2025-12-29T12:09:32Z</time>
      </trkpt>
      <trkpt lat="43.13783" lon="0.55249">
        <ele>501.6</ele>
        <time>2025-12-29T12:09:33Z</time>
      </trkpt>
      <trkpt lat="43.13782" lon="0.55244">
        <ele>502</ele>
        <time>2025-12-29T12:09:34Z</time>
      </trkpt>
      <trkpt lat="43.13781" lon="0.55239">
        <ele>502</ele>
        <time>2025-12-29T12:09:35Z</time>
      </trkpt>
      <trkpt lat="43.13779" lon="0.55234">
        <ele>502</ele>
        <time>2025-12-29T12:09:36Z</time>
      </trkpt>
      <trkpt lat="43.13778" lon="0.55229">
        <ele>502</ele>
        <time>2025-12-29T12:09:37Z</time>
      </trkpt>
      <trkpt lat="43.13777" lon="0.55224">
        <ele>502.4</ele>
        <time>2025-12-29T12:09:38Z</time>
      </trkpt>
      <trkpt lat="43.13776" lon="0.55219">
        <ele>502.4</ele>
        <time>2025-12-29T12:09:39Z</time>
      </trkpt>
      <trkpt lat="43.13775" lon="0.55213">
        <ele>502.4</ele>
        <time>2025-12-29T12:09:40Z</time>
      </trkpt>
      <trkpt lat="43.13774" lon="0.55208">
        <ele>502</ele>
        <time>2025-12-29T12:09:41Z</time>
      </trkpt>
      <trkpt lat="43.13773" lon="0.55203">
        <ele>501.2</ele>
        <time>2025-12-29T12:09:42Z</time>
      </trkpt>
      <trkpt lat="43.13772" lon="0.55197">
        <ele>501.2</ele>
        <time>2025-12-29T12:09:43Z</time>
      </trkpt>
      <trkpt lat="43.1377" lon="0.55192">
        <ele>501.2</ele>
        <time>2025-12-29T12:09:44Z</time>
      </trkpt>
      <trkpt lat="43.1377" lon="0.55187">
        <ele>502.2</ele>
        <time>2025-12-29T12:09:45Z</time>
      </trkpt>
      <trkpt lat="43.13769" lon="0.55181">
        <ele>502</ele>
        <time>2025-12-29T12:09:46Z</time>
      </trkpt>
      <trkpt lat="43.13768" lon="0.55176">
        <ele>502</ele>
        <time>2025-12-29T12:09:47Z</time>
      </trkpt>
      <trkpt lat="43.13767" lon="0.5517">
        <ele>502</ele>
        <time>2025-12-29T12:09:48Z</time>
      </trkpt>
      <trkpt lat="43.13766" lon="0.55165">
        <ele>502</ele>
        <time>2025-12-29T12:09:49Z</time>
      </trkpt>
      <trkpt lat="43.13765" lon="0.55159">
        <ele>501.4</ele>
        <time>2025-12-29T12:09:50Z</time>
      </trkpt>
      <trkpt lat="43.13765" lon="0.55154">
        <ele>501.4</ele>
        <time>2025-12-29T12:09:51Z</time>
      </trkpt>
      <trkpt lat="43.13764" lon="0.55148">
        <ele>501.4</ele>
        <time>2025-12-29T12:09:52Z</time>
      </trkpt>
      <trkpt lat="43.13763" lon="0.55143">
        <ele>502.2</ele>
        <time>2025-12-29T12:09:53Z</time>
      </trkpt>
      <trkpt lat="43.13762" lon="0.55137">
        <ele>502.8</ele>
        <time>2025-12-29T12:09:54Z</time>
      </trkpt>
      <trkpt lat="43.13762" lon="0.55132">
        <ele>502.8</ele>
        <time>2025-12-29T12:09:55Z</time>
      </trkpt>
      <trkpt lat="43.13761" lon="0.55127">
        <ele>502.8</ele>
        <time>2025-12-29T12:09:56Z</time>
      </trkpt>
      <trkpt lat="43.1376" lon="0.55121">
        <ele>502.8</ele>
        <time>2025-12-29T12:09:57Z</time>
      </trkpt>
      <trkpt lat="43.13759" lon="0.55116">
        <ele>502</ele>
        <time>2025-12-29T12:09:58Z</time>
      </trkpt>
      <trkpt lat="43.13759" lon="0.55111">
        <ele>502</ele>
        <time>2025-12-29T12:09:59Z</time>
      </trkpt>
      <trkpt lat="43.13759" lon="0.55106">
        <ele>502</ele>
        <time>2025-12-29T12:10:00Z</time>
      </trkpt>
      <trkpt lat="43.13758" lon="0.55101">
        <ele>502</ele>
        <time>2025-12-29T12:10:01Z</time>
      </trkpt>
      <trkpt lat="43.13758" lon="0.55097">
        <ele>503.4</ele>
        <time>2025-12-29T12:10:02Z</time>
      </trkpt>
      <trkpt lat="43.13758" lon="0.55092">
        <ele>503.4</ele>
        <time>2025-12-29T12:10:03Z</time>
      </trkpt>
      <trkpt lat="43.13757" lon="0.55087">
        <ele>503.4</ele>
        <time>2025-12-29T12:10:04Z</time>
      </trkpt>
      <trkpt lat="43.13756" lon="0.55082">
        <ele>503.4</ele>
        <time>2025-12-29T12:10:05Z</time>
      </trkpt>
      <trkpt lat="43.13755" lon="0.55076">
        <ele>503.4</ele>
        <time>2025-12-29T12:10:06Z</time>
      </trkpt>
      <trkpt lat="43.13754" lon="0.55071">
        <ele>503.4</ele>
        <time>2025-12-29T12:10:07Z</time>
      </trkpt>
      <trkpt lat="43.13754" lon="0.55066">
        <ele>503.4</ele>
        <time>2025-12-29T12:10:08Z</time>
      </trkpt>
      <trkpt lat="43.13753" lon="0.55061">
        <ele>503.4</ele>
        <time>2025-12-29T12:10:09Z</time>
      </trkpt>
      <trkpt lat="43.13752" lon="0.55056">
        <ele>502.6</ele>
        <time>2025-12-29T12:10:10Z</time>
      </trkpt>
      <trkpt lat="43.13752" lon="0.5505">
        <ele>502.6</ele>
        <time>2025-12-29T12:10:11Z</time>
      </trkpt>
      <trkpt lat="43.13751" lon="0.55045">
        <ele>502.6</ele>
        <time>2025-12-29T12:10:12Z</time>
      </trkpt>
      <trkpt lat="43.13751" lon="0.5504">
        <ele>503.6</ele>
        <time>2025-12-29T12:10:13Z</time>
      </trkpt>
      <trkpt lat="43.1375" lon="0.55035">
        <ele>504</ele>
        <time>2025-12-29T12:10:14Z</time>
      </trkpt>
      <trkpt lat="43.1375" lon="0.55029">
        <ele>504</ele>
        <time>2025-12-29T12:10:15Z</time>
      </trkpt>
      <trkpt lat="43.13749" lon="0.55024">
        <ele>504</ele>
        <time>2025-12-29T12:10:16Z</time>
      </trkpt>
      <trkpt lat="43.13749" lon="0.55019">
        <ele>504</ele>
        <time>2025-12-29T12:10:17Z</time>
      </trkpt>
      <trkpt lat="43.13749" lon="0.55013">
        <ele>504.8</ele>
        <time>2025-12-29T12:10:18Z</time>
      </trkpt>
      <trkpt lat="43.13748" lon="0.55008">
        <ele>504.8</ele>
        <time>2025-12-29T12:10:19Z</time>
      </trkpt>
      <trkpt lat="43.13748" lon="0.55003">
        <ele>504.8</ele>
        <time>2025-12-29T12:10:20Z</time>
      </trkpt>
      <trkpt lat="43.13748" lon="0.54997">
        <ele>504.8</ele>
        <time>2025-12-29T12:10:21Z</time>
      </trkpt>
      <trkpt lat="43.13747" lon="0.54992">
        <ele>505.2</ele>
        <time>2025-12-29T12:10:22Z</time>
      </trkpt>
      <trkpt lat="43.13747" lon="0.54987">
        <ele>505.2</ele>
        <time>2025-12-29T12:10:23Z</time>
      </trkpt>
      <trkpt lat="43.13747" lon="0.54981">
        <ele>505.2</ele>
        <time>2025-12-29T12:10:24Z</time>
      </trkpt>
      <trkpt lat="43.13747" lon="0.54976">
        <ele>504.4</ele>
        <time>2025-12-29T12:10:25Z</time>
      </trkpt>
      <trkpt lat="43.13747" lon="0.5497">
        <ele>503.8</ele>
        <time>2025-12-29T12:10:26Z</time>
      </trkpt>
      <trkpt lat="43.13747" lon="0.54964">
        <ele>503.8</ele>
        <time>2025-12-29T12:10:27Z</time>
      </trkpt>
      <trkpt lat="43.13747" lon="0.54959">
        <ele>503.8</ele>
        <time>2025-12-29T12:10:28Z</time>
      </trkpt>
      <trkpt lat="43.13748" lon="0.54954">
        <ele>504.2</ele>
        <time>2025-12-29T12:10:29Z</time>
      </trkpt>
      <trkpt lat="43.13748" lon="0.54948">
        <ele>504.8</ele>
        <time>2025-12-29T12:10:30Z</time>
      </trkpt>
      <trkpt lat="43.13748" lon="0.54943">
        <ele>504.8</ele>
        <time>2025-12-29T12:10:31Z</time>
      </trkpt>
      <trkpt lat="43.13749" lon="0.54938">
        <ele>504.8</ele>
        <time>2025-12-29T12:10:32Z</time>
      </trkpt>
      <trkpt lat="43.13749" lon="0.54933">
        <ele>504.4</ele>
        <time>2025-12-29T12:10:33Z</time>
      </trkpt>
      <trkpt lat="43.13749" lon="0.54928">
        <ele>504.8</ele>
        <time>2025-12-29T12:10:34Z</time>
      </trkpt>
      <trkpt lat="43.13748" lon="0.54923">
        <ele>504.8</ele>
        <time>2025-12-29T12:10:35Z</time>
      </trkpt>
      <trkpt lat="43.13748" lon="0.54918">
        <ele>504.8</ele>
        <time>2025-12-29T12:10:36Z</time>
      </trkpt>
      <trkpt lat="43.13747" lon="0.54913">
        <ele>504.8</ele>
        <time>2025-12-29T12:10:37Z</time>
      </trkpt>
      <trkpt lat="43.13747" lon="0.54908">
        <ele>505.4</ele>
        <time>2025-12-29T12:10:38Z</time>
      </trkpt>
      <trkpt lat="43.13746" lon="0.54903">
        <ele>505.4</ele>
        <time>2025-12-29T12:10:39Z</time>
      </trkpt>
      <trkpt lat="43.13745" lon="0.54898">
        <ele>505.4</ele>
        <time>2025-12-29T12:10:40Z</time>
      </trkpt>
      <trkpt lat="43.13744" lon="0.54893">
        <ele>505.4</ele>
        <time>2025-12-29T12:10:41Z</time>
      </trkpt>
      <trkpt lat="43.13743" lon="0.54888">
        <ele>506.2</ele>
        <time>2025-12-29T12:10:42Z</time>
      </trkpt>
      <trkpt lat="43.13741" lon="0.54884">
        <ele>506.2</ele>
        <time>2025-12-29T12:10:43Z</time>
      </trkpt>
      <trkpt lat="43.1374" lon="0.54879">
        <ele>506.2</ele>
        <time>2025-12-29T12:10:44Z</time>
      </trkpt>
      <trkpt lat="43.13739" lon="0.54875">
        <ele>506.2</ele>
        <time>2025-12-29T12:10:45Z</time>
      </trkpt>
      <trkpt lat="43.13738" lon="0.5487">
        <ele>506.4</ele>
        <time>2025-12-29T12:10:46Z</time>
      </trkpt>
      <trkpt lat="43.13737" lon="0.54866">
        <ele>506.4</ele>
        <time>2025-12-29T12:10:47Z</time>
      </trkpt>
      <trkpt lat="43.13736" lon="0.54862">
        <ele>506.4</ele>
        <time>2025-12-29T12:10:48Z</time>
      </trkpt>
      <trkpt lat="43.13736" lon="0.54858">
        <ele>506.4</ele>
        <time>2025-12-29T12:10:49Z</time>
      </trkpt>
      <trkpt lat="43.13735" lon="0.54854">
        <ele>507.2</ele>
        <time>2025-12-29T12:10:50Z</time>
      </trkpt>
      <trkpt lat="43.13734" lon="0.54849">
        <ele>507.2</ele>
        <time>2025-12-29T12:10:51Z</time>
      </trkpt>
      <trkpt lat="43.13733" lon="0.54845">
        <ele>507.2</ele>
        <time>2025-12-29T12:10:52Z</time>
      </trkpt>
      <trkpt lat="43.13732" lon="0.5484">
        <ele>506.4</ele>
        <time>2025-12-29T12:10:53Z</time>
      </trkpt>
      <trkpt lat="43.13731" lon="0.54835">
        <ele>506.6</ele>
        <time>2025-12-29T12:10:54Z</time>
      </trkpt>
      <trkpt lat="43.1373" lon="0.5483">
        <ele>506.6</ele>
        <time>2025-12-29T12:10:55Z</time>
      </trkpt>
      <trkpt lat="43.13729" lon="0.54825">
        <ele>506.6</ele>
        <time>2025-12-29T12:10:56Z</time>
      </trkpt>
      <trkpt lat="43.13728" lon="0.5482">
        <ele>506.6</ele>
        <time>2025-12-29T12:10:57Z</time>
      </trkpt>
      <trkpt lat="43.13727" lon="0.54815">
        <ele>506.4</ele>
        <time>2025-12-29T12:10:58Z</time>
      </trkpt>
      <trkpt lat="43.13726" lon="0.54811">
        <ele>506.4</ele>
        <time>2025-12-29T12:10:59Z</time>
      </trkpt>
      <trkpt lat="43.13725" lon="0.54806">
        <ele>506.4</ele>
        <time>2025-12-29T12:11:00Z</time>
      </trkpt>
      <trkpt lat="43.13725" lon="0.54802">
        <ele>507.4</ele>
        <time>2025-12-29T12:11:01Z</time>
      </trkpt>
      <trkpt lat="43.13724" lon="0.54798">
        <ele>507</ele>
        <time>2025-12-29T12:11:02Z</time>
      </trkpt>
      <trkpt lat="43.13723" lon="0.54793">
        <ele>507</ele>
        <time>2025-12-29T12:11:03Z</time>
      </trkpt>
      <trkpt lat="43.13722" lon="0.54789">
        <ele>507</ele>
        <time>2025-12-29T12:11:04Z</time>
      </trkpt>
      <trkpt lat="43.1372" lon="0.54785">
        <ele>507.4</ele>
        <time>2025-12-29T12:11:05Z</time>
      </trkpt>
      <trkpt lat="43.13719" lon="0.5478">
        <ele>508</ele>
        <time>2025-12-29T12:11:06Z</time>
      </trkpt>
      <trkpt lat="43.13718" lon="0.54775">
        <ele>508</ele>
        <time>2025-12-29T12:11:07Z</time>
      </trkpt>
      <trkpt lat="43.13716" lon="0.5477">
        <ele>508</ele>
        <time>2025-12-29T12:11:08Z</time>
      </trkpt>
      <trkpt lat="43.13715" lon="0.54766">
        <ele>507</ele>
        <time>2025-12-29T12:11:09Z</time>
      </trkpt>
      <trkpt lat="43.13713" lon="0.54761">
        <ele>509</ele>
        <time>2025-12-29T12:11:10Z</time>
      </trkpt>
      <trkpt lat="43.13712" lon="0.54757">
        <ele>509</ele>
        <time>2025-12-29T12:11:11Z</time>
      </trkpt>
      <trkpt lat="43.1371" lon="0.54753">
        <ele>509</ele>
        <time>2025-12-29T12:11:12Z</time>
      </trkpt>
      <trkpt lat="43.13709" lon="0.54748">
        <ele>508.4</ele>
        <time>2025-12-29T12:11:13Z</time>
      </trkpt>
      <trkpt lat="43.13708" lon="0.54744">
        <ele>508.2</ele>
        <time>2025-12-29T12:11:14Z</time>
      </trkpt>
      <trkpt lat="43.13706" lon="0.54739">
        <ele>508.2</ele>
        <time>2025-12-29T12:11:15Z</time>
      </trkpt>
      <trkpt lat="43.13705" lon="0.54735">
        <ele>508.2</ele>
        <time>2025-12-29T12:11:16Z</time>
      </trkpt>
      <trkpt lat="43.13704" lon="0.5473">
        <ele>508.2</ele>
        <time>2025-12-29T12:11:17Z</time>
      </trkpt>
      <trkpt lat="43.13703" lon="0.54726">
        <ele>508.8</ele>
        <time>2025-12-29T12:11:18Z</time>
      </trkpt>
      <trkpt lat="43.13702" lon="0.54721">
        <ele>508.8</ele>
        <time>2025-12-29T12:11:19Z</time>
      </trkpt>
      <trkpt lat="43.13701" lon="0.54717">
        <ele>508.8</ele>
        <time>2025-12-29T12:11:20Z</time>
      </trkpt>
      <trkpt lat="43.13699" lon="0.54713">
        <ele>508.8</ele>
        <time>2025-12-29T12:11:21Z</time>
      </trkpt>
      <trkpt lat="43.13698" lon="0.54708">
        <ele>507.4</ele>
        <time>2025-12-29T12:11:22Z</time>
      </trkpt>
      <trkpt lat="43.13697" lon="0.54704">
        <ele>507.4</ele>
        <time>2025-12-29T12:11:23Z</time>
      </trkpt>
      <trkpt lat="43.13696" lon="0.54699">
        <ele>507.4</ele>
        <time>2025-12-29T12:11:24Z</time>
      </trkpt>
      <trkpt lat="43.13696" lon="0.54694">
        <ele>508</ele>
        <time>2025-12-29T12:11:25Z</time>
      </trkpt>
      <trkpt lat="43.13695" lon="0.5469">
        <ele>508.4</ele>
        <time>2025-12-29T12:11:26Z</time>
      </trkpt>
      <trkpt lat="43.13694" lon="0.54685">
        <ele>508.4</ele>
        <time>2025-12-29T12:11:27Z</time>
      </trkpt>
      <trkpt lat="43.13694" lon="0.5468">
        <ele>508.4</ele>
        <time>2025-12-29T12:11:28Z</time>
      </trkpt>
      <trkpt lat="43.13694" lon="0.54676">
        <ele>508.4</ele>
        <time>2025-12-29T12:11:29Z</time>
      </trkpt>
      <trkpt lat="43.13693" lon="0.54671">
        <ele>509</ele>
        <time>2025-12-29T12:11:30Z</time>
      </trkpt>
      <trkpt lat="43.13693" lon="0.54666">
        <ele>509</ele>
        <time>2025-12-29T12:11:31Z</time>
      </trkpt>
      <trkpt lat="43.13692" lon="0.54662">
        <ele>509</ele>
        <time>2025-12-29T12:11:32Z</time>
      </trkpt>
      <trkpt lat="43.13692" lon="0.54657">
        <ele>509</ele>
        <time>2025-12-29T12:11:33Z</time>
      </trkpt>
      <trkpt lat="43.13691" lon="0.54652">
        <ele>509.2</ele>
        <time>2025-12-29T12:11:34Z</time>
      </trkpt>
      <trkpt lat="43.13691" lon="0.54648">
        <ele>509.2</ele>
        <time>2025-12-29T12:11:35Z</time>
      </trkpt>
      <trkpt lat="43.13691" lon="0.54643">
        <ele>509.2</ele>
        <time>2025-12-29T12:11:36Z</time>
      </trkpt>
      <trkpt lat="43.1369" lon="0.54639">
        <ele>509</ele>
        <time>2025-12-29T12:11:37Z</time>
      </trkpt>
      <trkpt lat="43.1369" lon="0.54634">
        <ele>509.4</ele>
        <time>2025-12-29T12:11:38Z</time>
      </trkpt>
      <trkpt lat="43.1369" lon="0.5463">
        <ele>509.4</ele>
        <time>2025-12-29T12:11:39Z</time>
      </trkpt>
      <trkpt lat="43.1369" lon="0.54626">
        <ele>509.4</ele>
        <time>2025-12-29T12:11:40Z</time>
      </trkpt>
      <trkpt lat="43.1369" lon="0.54622">
        <ele>509.4</ele>
        <time>2025-12-29T12:11:41Z</time>
      </trkpt>
      <trkpt lat="43.1369" lon="0.54617">
        <ele>510</ele>
        <time>2025-12-29T12:11:42Z</time>
      </trkpt>
      <trkpt lat="43.13691" lon="0.54613">
        <ele>510</ele>
        <time>2025-12-29T12:11:43Z</time>
      </trkpt>
      <trkpt lat="43.13691" lon="0.54609">
        <ele>510</ele>
        <time>2025-12-29T12:11:44Z</time>
      </trkpt>
      <trkpt lat="43.13691" lon="0.54604">
        <ele>510</ele>
        <time>2025-12-29T12:11:45Z</time>
      </trkpt>
      <trkpt lat="43.13691" lon="0.54601">
        <ele>510.4</ele>
        <time>2025-12-29T12:11:46Z</time>
      </trkpt>
      <trkpt lat="43.13692" lon="0.54597">
        <ele>510.4</ele>
        <time>2025-12-29T12:11:47Z</time>
      </trkpt>
      <trkpt lat="43.13692" lon="0.54593">
        <ele>510.4</ele>
        <time>2025-12-29T12:11:48Z</time>
      </trkpt>
      <trkpt lat="43.13693" lon="0.54589">
        <ele>510.4</ele>
        <time>2025-12-29T12:11:49Z</time>
      </trkpt>
      <trkpt lat="43.13693" lon="0.54586">
        <ele>509.4</ele>
        <time>2025-12-29T12:11:50Z</time>
      </trkpt>
      <trkpt lat="43.13694" lon="0.54582">
        <ele>509.4</ele>
        <time>2025-12-29T12:11:51Z</time>
      </trkpt>
      <trkpt lat="43.13694" lon="0.54578">
        <ele>509.4</ele>
        <time>2025-12-29T12:11:52Z</time>
      </trkpt>
      <trkpt lat="43.13695" lon="0.54573">
        <ele>510.4</ele>
        <time>2025-12-29T12:11:53Z</time>
      </trkpt>
      <trkpt lat="43.13695" lon="0.54569">
        <ele>511</ele>
        <time>2025-12-29T12:11:54Z</time>
      </trkpt>
      <trkpt lat="43.13696" lon="0.54565">
        <ele>511</ele>
        <time>2025-12-29T12:11:55Z</time>
      </trkpt>
      <trkpt lat="43.13696" lon="0.54561">
        <ele>511</ele>
        <time>2025-12-29T12:11:56Z</time>
      </trkpt>
      <trkpt lat="43.13696" lon="0.54558">
        <ele>511</ele>
        <time>2025-12-29T12:11:57Z</time>
      </trkpt>
      <trkpt lat="43.13696" lon="0.54554">
        <ele>511.8</ele>
        <time>2025-12-29T12:11:58Z</time>
      </trkpt>
      <trkpt lat="43.13697" lon="0.54549">
        <ele>511.8</ele>
        <time>2025-12-29T12:11:59Z</time>
      </trkpt>
      <trkpt lat="43.13697" lon="0.54545">
        <ele>511.8</ele>
        <time>2025-12-29T12:12:00Z</time>
      </trkpt>
      <trkpt lat="43.13697" lon="0.54541">
        <ele>511.8</ele>
        <time>2025-12-29T12:12:01Z</time>
      </trkpt>
      <trkpt lat="43.13697" lon="0.54536">
        <ele>512.2</ele>
        <time>2025-12-29T12:12:02Z</time>
      </trkpt>
      <trkpt lat="43.13697" lon="0.54532">
        <ele>512.2</ele>
        <time>2025-12-29T12:12:03Z</time>
      </trkpt>
      <trkpt lat="43.13697" lon="0.54527">
        <ele>512.2</ele>
        <time>2025-12-29T12:12:04Z</time>
      </trkpt>
      <trkpt lat="43.13698" lon="0.54524">
        <ele>512.2</ele>
        <time>2025-12-29T12:12:05Z</time>
      </trkpt>
      <trkpt lat="43.13698" lon="0.5452">
        <ele>512.8</ele>
        <time>2025-12-29T12:12:06Z</time>
      </trkpt>
      <trkpt lat="43.13698" lon="0.54516">
        <ele>512.8</ele>
        <time>2025-12-29T12:12:07Z</time>
      </trkpt>
      <trkpt lat="43.13699" lon="0.54512">
        <ele>512.8</ele>
        <time>2025-12-29T12:12:08Z</time>
      </trkpt>
      <trkpt lat="43.13698" lon="0.54508">
        <ele>511.8</ele>
        <time>2025-12-29T12:12:09Z</time>
      </trkpt>
      <trkpt lat="43.13698" lon="0.54504">
        <ele>513</ele>
        <time>2025-12-29T12:12:10Z</time>
      </trkpt>
      <trkpt lat="43.13698" lon="0.545">
        <ele>513</ele>
        <time>2025-12-29T12:12:11Z</time>
      </trkpt>
      <trkpt lat="43.13698" lon="0.54495">
        <ele>513</ele>
        <time>2025-12-29T12:12:12Z</time>
      </trkpt>
      <trkpt lat="43.13698" lon="0.5449">
        <ele>513</ele>
        <time>2025-12-29T12:12:13Z</time>
      </trkpt>
      <trkpt lat="43.13698" lon="0.54486">
        <ele>512.8</ele>
        <time>2025-12-29T12:12:14Z</time>
      </trkpt>
      <trkpt lat="43.13698" lon="0.54481">
        <ele>512.8</ele>
        <time>2025-12-29T12:12:15Z</time>
      </trkpt>
      <trkpt lat="43.13697" lon="0.54476">
        <ele>512.8</ele>
        <time>2025-12-29T12:12:16Z</time>
      </trkpt>
      <trkpt lat="43.13698" lon="0.54471">
        <ele>512.8</ele>
        <time>2025-12-29T12:12:17Z</time>
      </trkpt>
      <trkpt lat="43.13697" lon="0.54466">
        <ele>513.2</ele>
        <time>2025-12-29T12:12:18Z</time>
      </trkpt>
      <trkpt lat="43.13697" lon="0.54461">
        <ele>513.2</ele>
        <time>2025-12-29T12:12:19Z</time>
      </trkpt>
      <trkpt lat="43.13697" lon="0.54457">
        <ele>513.2</ele>
        <time>2025-12-29T12:12:20Z</time>
      </trkpt>
      <trkpt lat="43.13697" lon="0.54452">
        <ele>513.2</ele>
        <time>2025-12-29T12:12:21Z</time>
      </trkpt>
      <trkpt lat="43.13697" lon="0.54447">
        <ele>513.2</ele>
        <time>2025-12-29T12:12:22Z</time>
      </trkpt>
      <trkpt lat="43.13697" lon="0.54443">
        <ele>513.2</ele>
        <time>2025-12-29T12:12:23Z</time>
      </trkpt>
      <trkpt lat="43.13697" lon="0.54438">
        <ele>513.2</ele>
        <time>2025-12-29T12:12:24Z</time>
      </trkpt>
      <trkpt lat="43.13697" lon="0.54434">
        <ele>513.2</ele>
        <time>2025-12-29T12:12:25Z</time>
      </trkpt>
      <trkpt lat="43.13697" lon="0.54429">
        <ele>514.2</ele>
        <time>2025-12-29T12:12:26Z</time>
      </trkpt>
      <trkpt lat="43.13696" lon="0.54425">
        <ele>514.2</ele>
        <time>2025-12-29T12:12:27Z</time>
      </trkpt>
      <trkpt lat="43.13696" lon="0.54421">
        <ele>514.2</ele>
        <time>2025-12-29T12:12:28Z</time>
      </trkpt>
      <trkpt lat="43.13696" lon="0.54416">
        <ele>514</ele>
        <time>2025-12-29T12:12:29Z</time>
      </trkpt>
      <trkpt lat="43.13696" lon="0.54412">
        <ele>514</ele>
        <time>2025-12-29T12:12:30Z</time>
      </trkpt>
      <trkpt lat="43.13696" lon="0.54407">
        <ele>514</ele>
        <time>2025-12-29T12:12:31Z</time>
      </trkpt>
      <trkpt lat="43.13696" lon="0.54403">
        <ele>514</ele>
        <time>2025-12-29T12:12:32Z</time>
      </trkpt>
      <trkpt lat="43.13696" lon="0.54398">
        <ele>514</ele>
        <time>2025-12-29T12:12:33Z</time>
      </trkpt>
      <trkpt lat="43.13696" lon="0.54394">
        <ele>514</ele>
        <time>2025-12-29T12:12:34Z</time>
      </trkpt>
      <trkpt lat="43.13696" lon="0.54389">
        <ele>514</ele>
        <time>2025-12-29T12:12:35Z</time>
      </trkpt>
      <trkpt lat="43.13696" lon="0.54384">
        <ele>514</ele>
        <time>2025-12-29T12:12:36Z</time>
      </trkpt>
      <trkpt lat="43.13696" lon="0.5438">
        <ele>514</ele>
        <time>2025-12-29T12:12:37Z</time>
      </trkpt>
      <trkpt lat="43.13696" lon="0.54375">
        <ele>514</ele>
        <time>2025-12-29T12:12:38Z</time>
      </trkpt>
      <trkpt lat="43.13696" lon="0.5437">
        <ele>514</ele>
        <time>2025-12-29T12:12:39Z</time>
      </trkpt>
      <trkpt lat="43.13696" lon="0.54365">
        <ele>514</ele>
        <time>2025-12-29T12:12:40Z</time>
      </trkpt>
      <trkpt lat="43.13697" lon="0.54361">
        <ele>514.4</ele>
        <time>2025-12-29T12:12:41Z</time>
      </trkpt>
      <trkpt lat="43.13697" lon="0.54356">
        <ele>515.2</ele>
        <time>2025-12-29T12:12:42Z</time>
      </trkpt>
      <trkpt lat="43.13697" lon="0.54352">
        <ele>515.2</ele>
        <time>2025-12-29T12:12:43Z</time>
      </trkpt>
      <trkpt lat="43.13697" lon="0.54347">
        <ele>515.2</ele>
        <time>2025-12-29T12:12:44Z</time>
      </trkpt>
      <trkpt lat="43.13697" lon="0.54342">
        <ele>515.2</ele>
        <time>2025-12-29T12:12:45Z</time>
      </trkpt>
      <trkpt lat="43.13698" lon="0.54338">
        <ele>515.4</ele>
        <time>2025-12-29T12:12:46Z</time>
      </trkpt>
      <trkpt lat="43.13698" lon="0.54334">
        <ele>515.4</ele>
        <time>2025-12-29T12:12:47Z</time>
      </trkpt>
      <trkpt lat="43.13698" lon="0.5433">
        <ele>515.4</ele>
        <time>2025-12-29T12:12:48Z</time>
      </trkpt>
      <trkpt lat="43.13699" lon="0.54326">
        <ele>515.4</ele>
        <time>2025-12-29T12:12:49Z</time>
      </trkpt>
      <trkpt lat="43.13699" lon="0.54321">
        <ele>515.6</ele>
        <time>2025-12-29T12:12:50Z</time>
      </trkpt>
      <trkpt lat="43.13699" lon="0.54317">
        <ele>515.6</ele>
        <time>2025-12-29T12:12:51Z</time>
      </trkpt>
      <trkpt lat="43.13699" lon="0.54312">
        <ele>515.6</ele>
        <time>2025-12-29T12:12:52Z</time>
      </trkpt>
      <trkpt lat="43.137" lon="0.54307">
        <ele>515.6</ele>
        <time>2025-12-29T12:12:53Z</time>
      </trkpt>
      <trkpt lat="43.137" lon="0.54303">
        <ele>515.2</ele>
        <time>2025-12-29T12:12:54Z</time>
      </trkpt>
      <trkpt lat="43.137" lon="0.54298">
        <ele>515.2</ele>
        <time>2025-12-29T12:12:55Z</time>
      </trkpt>
      <trkpt lat="43.13701" lon="0.54293">
        <ele>515.2</ele>
        <time>2025-12-29T12:12:56Z</time>
      </trkpt>
      <trkpt lat="43.13701" lon="0.54288">
        <ele>515.2</ele>
        <time>2025-12-29T12:12:57Z</time>
      </trkpt>
      <trkpt lat="43.13702" lon="0.54283">
        <ele>516.8</ele>
        <time>2025-12-29T12:12:58Z</time>
      </trkpt>
      <trkpt lat="43.13703" lon="0.54279">
        <ele>516.8</ele>
        <time>2025-12-29T12:12:59Z</time>
      </trkpt>
      <trkpt lat="43.13704" lon="0.54275">
        <ele>516.8</ele>
        <time>2025-12-29T12:13:00Z</time>
      </trkpt>
      <trkpt lat="43.13704" lon="0.54271">
        <ele>516.6</ele>
        <time>2025-12-29T12:13:01Z</time>
      </trkpt>
      <trkpt lat="43.13705" lon="0.54266">
        <ele>515</ele>
        <time>2025-12-29T12:13:02Z</time>
      </trkpt>
      <trkpt lat="43.13706" lon="0.54262">
        <ele>515</ele>
        <time>2025-12-29T12:13:03Z</time>
      </trkpt>
      <trkpt lat="43.13706" lon="0.54257">
        <ele>515</ele>
        <time>2025-12-29T12:13:04Z</time>
      </trkpt>
      <trkpt lat="43.13707" lon="0.54253">
        <ele>516</ele>
        <time>2025-12-29T12:13:05Z</time>
      </trkpt>
      <trkpt lat="43.13708" lon="0.54248">
        <ele>517.2</ele>
        <time>2025-12-29T12:13:06Z</time>
      </trkpt>
      <trkpt lat="43.13708" lon="0.54244">
        <ele>517.2</ele>
        <time>2025-12-29T12:13:07Z</time>
      </trkpt>
      <trkpt lat="43.13709" lon="0.54239">
        <ele>517.2</ele>
        <time>2025-12-29T12:13:08Z</time>
      </trkpt>
      <trkpt lat="43.1371" lon="0.54235">
        <ele>516.8</ele>
        <time>2025-12-29T12:13:09Z</time>
      </trkpt>
      <trkpt lat="43.13711" lon="0.5423">
        <ele>517</ele>
        <time>2025-12-29T12:13:10Z</time>
      </trkpt>
      <trkpt lat="43.13711" lon="0.54226">
        <ele>517</ele>
        <time>2025-12-29T12:13:11Z</time>
      </trkpt>
      <trkpt lat="43.13712" lon="0.54222">
        <ele>517</ele>
        <time>2025-12-29T12:13:12Z</time>
      </trkpt>
      <trkpt lat="43.13713" lon="0.54218">
        <ele>516.8</ele>
        <time>2025-12-29T12:13:13Z</time>
      </trkpt>
      <trkpt lat="43.13713" lon="0.54214">
        <ele>517.8</ele>
        <time>2025-12-29T12:13:14Z</time>
      </trkpt>
      <trkpt lat="43.13714" lon="0.5421">
        <ele>517.8</ele>
        <time>2025-12-29T12:13:15Z</time>
      </trkpt>
      <trkpt lat="43.13715" lon="0.54206">
        <ele>517.8</ele>
        <time>2025-12-29T12:13:16Z</time>
      </trkpt>
      <trkpt lat="43.13715" lon="0.54202">
        <ele>517.8</ele>
        <time>2025-12-29T12:13:17Z</time>
      </trkpt>
      <trkpt lat="43.13716" lon="0.54199">
        <ele>518</ele>
        <time>2025-12-29T12:13:18Z</time>
      </trkpt>
      <trkpt lat="43.13717" lon="0.54195">
        <ele>518</ele>
        <time>2025-12-29T12:13:19Z</time>
      </trkpt>
      <trkpt lat="43.13717" lon="0.54191">
        <ele>518</ele>
        <time>2025-12-29T12:13:20Z</time>
      </trkpt>
      <trkpt lat="43.13718" lon="0.54188">
        <ele>518</ele>
        <time>2025-12-29T12:13:21Z</time>
      </trkpt>
      <trkpt lat="43.13718" lon="0.54184">
        <ele>518.6</ele>
        <time>2025-12-29T12:13:22Z</time>
      </trkpt>
      <trkpt lat="43.13719" lon="0.54181">
        <ele>518.6</ele>
        <time>2025-12-29T12:13:23Z</time>
      </trkpt>
      <trkpt lat="43.1372" lon="0.54178">
        <ele>518.6</ele>
        <time>2025-12-29T12:13:24Z</time>
      </trkpt>
      <trkpt lat="43.13721" lon="0.54174">
        <ele>518.6</ele>
        <time>2025-12-29T12:13:25Z</time>
      </trkpt>
      <trkpt lat="43.13722" lon="0.54171">
        <ele>518.4</ele>
        <time>2025-12-29T12:13:26Z</time>
      </trkpt>
      <trkpt lat="43.13722" lon="0.54167">
        <ele>518.4</ele>
        <time>2025-12-29T12:13:27Z</time>
      </trkpt>
      <trkpt lat="43.13723" lon="0.54164">
        <ele>518.4</ele>
        <time>2025-12-29T12:13:28Z</time>
      </trkpt>
      <trkpt lat="43.13724" lon="0.5416">
        <ele>519.4</ele>
        <time>2025-12-29T12:13:29Z</time>
      </trkpt>
      <trkpt lat="43.13725" lon="0.54157">
        <ele>519.4</ele>
        <time>2025-12-29T12:13:30Z</time>
      </trkpt>
      <trkpt lat="43.13725" lon="0.54154">
        <ele>519.4</ele>
        <time>2025-12-29T12:13:31Z</time>
      </trkpt>
      <trkpt lat="43.13726" lon="0.54151">
        <ele>519.4</ele>
        <time>2025-12-29T12:13:32Z</time>
      </trkpt>
      <trkpt lat="43.13726" lon="0.54147">
        <ele>520</ele>
        <time>2025-12-29T12:13:33Z</time>
      </trkpt>
      <trkpt lat="43.13727" lon="0.54143">
        <ele>520</ele>
        <time>2025-12-29T12:13:34Z</time>
      </trkpt>
      <trkpt lat="43.13727" lon="0.5414">
        <ele>520</ele>
        <time>2025-12-29T12:13:35Z</time>
      </trkpt>
      <trkpt lat="43.13728" lon="0.54137">
        <ele>520</ele>
        <time>2025-12-29T12:13:36Z</time>
      </trkpt>
      <trkpt lat="43.13728" lon="0.54134">
        <ele>520</ele>
        <time>2025-12-29T12:13:37Z</time>
      </trkpt>
      <trkpt lat="43.13729" lon="0.5413">
        <ele>520.4</ele>
        <time>2025-12-29T12:13:38Z</time>
      </trkpt>
      <trkpt lat="43.13729" lon="0.54127">
        <ele>520.4</ele>
        <time>2025-12-29T12:13:39Z</time>
      </trkpt>
      <trkpt lat="43.13729" lon="0.54123">
        <ele>520.4</ele>
        <time>2025-12-29T12:13:40Z</time>
      </trkpt>
      <trkpt lat="43.1373" lon="0.5412">
        <ele>520.4</ele>
        <time>2025-12-29T12:13:41Z</time>
      </trkpt>
      <trkpt lat="43.1373" lon="0.54117">
        <ele>520.4</ele>
        <time>2025-12-29T12:13:42Z</time>
      </trkpt>
      <trkpt lat="43.13731" lon="0.54113">
        <ele>520.4</ele>
        <time>2025-12-29T12:13:43Z</time>
      </trkpt>
      <trkpt lat="43.13732" lon="0.54109">
        <ele>520.4</ele>
        <time>2025-12-29T12:13:44Z</time>
      </trkpt>
      <trkpt lat="43.13732" lon="0.54106">
        <ele>521.2</ele>
        <time>2025-12-29T12:13:45Z</time>
      </trkpt>
      <trkpt lat="43.13733" lon="0.54102">
        <ele>521.2</ele>
        <time>2025-12-29T12:13:46Z</time>
      </trkpt>
      <trkpt lat="43.13733" lon="0.54099">
        <ele>521.2</ele>
        <time>2025-12-29T12:13:47Z</time>
      </trkpt>
      <trkpt lat="43.13734" lon="0.54095">
        <ele>521.2</ele>
        <time>2025-12-29T12:13:48Z</time>
      </trkpt>
      <trkpt lat="43.13734" lon="0.54092">
        <ele>521.2</ele>
        <time>2025-12-29T12:13:49Z</time>
      </trkpt>
      <trkpt lat="43.13735" lon="0.54088">
        <ele>521.4</ele>
        <time>2025-12-29T12:13:50Z</time>
      </trkpt>
      <trkpt lat="43.13736" lon="0.54085">
        <ele>521.4</ele>
        <time>2025-12-29T12:13:51Z</time>
      </trkpt>
      <trkpt lat="43.13736" lon="0.54081">
        <ele>521.4</ele>
        <time>2025-12-29T12:13:52Z</time>
      </trkpt>
      <trkpt lat="43.13737" lon="0.54078">
        <ele>522.4</ele>
        <time>2025-12-29T12:13:53Z</time>
      </trkpt>
      <trkpt lat="43.13737" lon="0.54074">
        <ele>521.6</ele>
        <time>2025-12-29T12:13:54Z</time>
      </trkpt>
      <trkpt lat="43.13738" lon="0.54071">
        <ele>521.6</ele>
        <time>2025-12-29T12:13:55Z</time>
      </trkpt>
      <trkpt lat="43.13739" lon="0.54068">
        <ele>521.6</ele>
        <time>2025-12-29T12:13:56Z</time>
      </trkpt>
      <trkpt lat="43.13739" lon="0.54065">
        <ele>522.4</ele>
        <time>2025-12-29T12:13:57Z</time>
      </trkpt>
      <trkpt lat="43.1374" lon="0.54062">
        <ele>522.6</ele>
        <time>2025-12-29T12:13:58Z</time>
      </trkpt>
      <trkpt lat="43.1374" lon="0.54058">
        <ele>522.6</ele>
        <time>2025-12-29T12:13:59Z</time>
      </trkpt>
      <trkpt lat="43.13741" lon="0.54055">
        <ele>522.6</ele>
        <time>2025-12-29T12:14:00Z</time>
      </trkpt>
      <trkpt lat="43.13741" lon="0.54052">
        <ele>523.4</ele>
        <time>2025-12-29T12:14:01Z</time>
      </trkpt>
      <trkpt lat="43.13742" lon="0.54049">
        <ele>524</ele>
        <time>2025-12-29T12:14:02Z</time>
      </trkpt>
      <trkpt lat="43.13743" lon="0.54046">
        <ele>524</ele>
        <time>2025-12-29T12:14:03Z</time>
      </trkpt>
      <trkpt lat="43.13743" lon="0.54043">
        <ele>524</ele>
        <time>2025-12-29T12:14:04Z</time>
      </trkpt>
      <trkpt lat="43.13744" lon="0.54039">
        <ele>524</ele>
        <time>2025-12-29T12:14:05Z</time>
      </trkpt>
      <trkpt lat="43.13745" lon="0.54036">
        <ele>523.6</ele>
        <time>2025-12-29T12:14:06Z</time>
      </trkpt>
      <trkpt lat="43.13746" lon="0.54033">
        <ele>523.6</ele>
        <time>2025-12-29T12:14:07Z</time>
      </trkpt>
      <trkpt lat="43.13746" lon="0.5403">
        <ele>523.6</ele>
        <time>2025-12-29T12:14:08Z</time>
      </trkpt>
      <trkpt lat="43.13747" lon="0.54027">
        <ele>524.6</ele>
        <time>2025-12-29T12:14:09Z</time>
      </trkpt>
      <trkpt lat="43.13748" lon="0.54024">
        <ele>525.6</ele>
        <time>2025-12-29T12:14:10Z</time>
      </trkpt>
      <trkpt lat="43.13748" lon="0.54022">
        <ele>525.6</ele>
        <time>2025-12-29T12:14:11Z</time>
      </trkpt>
      <trkpt lat="43.13748" lon="0.54019">
        <ele>525.6</ele>
        <time>2025-12-29T12:14:12Z</time>
      </trkpt>
      <trkpt lat="43.13749" lon="0.54017">
        <ele>525.6</ele>
        <time>2025-12-29T12:14:13Z</time>
      </trkpt>
      <trkpt lat="43.1375" lon="0.54014">
        <ele>525.8</ele>
        <time>2025-12-29T12:14:14Z</time>
      </trkpt>
      <trkpt lat="43.1375" lon="0.54011">
        <ele>525.8</ele>
        <time>2025-12-29T12:14:15Z</time>
      </trkpt>
      <trkpt lat="43.13751" lon="0.54008">
        <ele>525.8</ele>
        <time>2025-12-29T12:14:16Z</time>
      </trkpt>
      <trkpt lat="43.13751" lon="0.54005">
        <ele>525.8</ele>
        <time>2025-12-29T12:14:17Z</time>
      </trkpt>
      <trkpt lat="43.13752" lon="0.54002">
        <ele>526.8</ele>
        <time>2025-12-29T12:14:18Z</time>
      </trkpt>
      <trkpt lat="43.13753" lon="0.53999">
        <ele>526.8</ele>
        <time>2025-12-29T12:14:19Z</time>
      </trkpt>
      <trkpt lat="43.13753" lon="0.53996">
        <ele>526.8</ele>
        <time>2025-12-29T12:14:20Z</time>
      </trkpt>
      <trkpt lat="43.13754" lon="0.53993">
        <ele>527</ele>
        <time>2025-12-29T12:14:21Z</time>
      </trkpt>
      <trkpt lat="43.13754" lon="0.5399">
        <ele>526.6</ele>
        <time>2025-12-29T12:14:22Z</time>
      </trkpt>
      <trkpt lat="43.13755" lon="0.53987">
        <ele>526.6</ele>
        <time>2025-12-29T12:14:23Z</time>
      </trkpt>
      <trkpt lat="43.13755" lon="0.53984">
        <ele>526.6</ele>
        <time>2025-12-29T12:14:24Z</time>
      </trkpt>
      <trkpt lat="43.13756" lon="0.53981">
        <ele>527.2</ele>
        <time>2025-12-29T12:14:25Z</time>
      </trkpt>
      <trkpt lat="43.13756" lon="0.53978">
        <ele>527.2</ele>
        <time>2025-12-29T12:14:26Z</time>
      </trkpt>
      <trkpt lat="43.13757" lon="0.53975">
        <ele>527.2</ele>
        <time>2025-12-29T12:14:27Z</time>
      </trkpt>
      <trkpt lat="43.13757" lon="0.53972">
        <ele>527.2</ele>
        <time>2025-12-29T12:14:28Z</time>
      </trkpt>
      <trkpt lat="43.13758" lon="0.53969">
        <ele>527.2</ele>
        <time>2025-12-29T12:14:29Z</time>
      </trkpt>
      <trkpt lat="43.13759" lon="0.53966">
        <ele>527.4</ele>
        <time>2025-12-29T12:14:30Z</time>
      </trkpt>
      <trkpt lat="43.1376" lon="0.53963">
        <ele>527.4</ele>
        <time>2025-12-29T12:14:31Z</time>
      </trkpt>
      <trkpt lat="43.1376" lon="0.5396">
        <ele>527.4</ele>
        <time>2025-12-29T12:14:32Z</time>
      </trkpt>
      <trkpt lat="43.13761" lon="0.53957">
        <ele>528.4</ele>
        <time>2025-12-29T12:14:33Z</time>
      </trkpt>
      <trkpt lat="43.13762" lon="0.53953">
        <ele>528.6</ele>
        <time>2025-12-29T12:14:34Z</time>
      </trkpt>
      <trkpt lat="43.13762" lon="0.5395">
        <ele>528.6</ele>
        <time>2025-12-29T12:14:35Z</time>
      </trkpt>
      <trkpt lat="43.13763" lon="0.53947">
        <ele>528.6</ele>
        <time>2025-12-29T12:14:36Z</time>
      </trkpt>
      <trkpt lat="43.13763" lon="0.53944">
        <ele>528.6</ele>
        <time>2025-12-29T12:14:37Z</time>
      </trkpt>
      <trkpt lat="43.13764" lon="0.53941">
        <ele>529.2</ele>
        <time>2025-12-29T12:14:38Z</time>
      </trkpt>
      <trkpt lat="43.13764" lon="0.53938">
        <ele>529.2</ele>
        <time>2025-12-29T12:14:39Z</time>
      </trkpt>
      <trkpt lat="43.13765" lon="0.53935">
        <ele>529.2</ele>
        <time>2025-12-29T12:14:40Z</time>
      </trkpt>
      <trkpt lat="43.13765" lon="0.53931">
        <ele>529.2</ele>
        <time>2025-12-29T12:14:41Z</time>
      </trkpt>
      <trkpt lat="43.13766" lon="0.53928">
        <ele>529.2</ele>
        <time>2025-12-29T12:14:42Z</time>
      </trkpt>
      <trkpt lat="43.13766" lon="0.53925">
        <ele>529.2</ele>
        <time>2025-12-29T12:14:43Z</time>
      </trkpt>
      <trkpt lat="43.13767" lon="0.53922">
        <ele>529.2</ele>
        <time>2025-12-29T12:14:44Z</time>
      </trkpt>
      <trkpt lat="43.13767" lon="0.53919">
        <ele>530</ele>
        <time>2025-12-29T12:14:45Z</time>
      </trkpt>
      <trkpt lat="43.13768" lon="0.53916">
        <ele>529.8</ele>
        <time>2025-12-29T12:14:46Z</time>
      </trkpt>
      <trkpt lat="43.13768" lon="0.53912">
        <ele>529.8</ele>
        <time>2025-12-29T12:14:47Z</time>
      </trkpt>
      <trkpt lat="43.13768" lon="0.53909">
        <ele>529.8</ele>
        <time>2025-12-29T12:14:48Z</time>
      </trkpt>
      <trkpt lat="43.13769" lon="0.53907">
        <ele>530.4</ele>
        <time>2025-12-29T12:14:49Z</time>
      </trkpt>
      <trkpt lat="43.13769" lon="0.53904">
        <ele>530.6</ele>
        <time>2025-12-29T12:14:50Z</time>
      </trkpt>
      <trkpt lat="43.1377" lon="0.53901">
        <ele>530.6</ele>
        <time>2025-12-29T12:14:51Z</time>
      </trkpt>
      <trkpt lat="43.1377" lon="0.53898">
        <ele>530.6</ele>
        <time>2025-12-29T12:14:52Z</time>
      </trkpt>
      <trkpt lat="43.13771" lon="0.53895">
        <ele>530.6</ele>
        <time>2025-12-29T12:14:53Z</time>
      </trkpt>
      <trkpt lat="43.13771" lon="0.53892">
        <ele>531</ele>
        <time>2025-12-29T12:14:54Z</time>
      </trkpt>
      <trkpt lat="43.13772" lon="0.5389">
        <ele>531</ele>
        <time>2025-12-29T12:14:55Z</time>
      </trkpt>
      <trkpt lat="43.13772" lon="0.53887">
        <ele>531</ele>
        <time>2025-12-29T12:14:56Z</time>
      </trkpt>
      <trkpt lat="43.13773" lon="0.53884">
        <ele>531.8</ele>
        <time>2025-12-29T12:14:57Z</time>
      </trkpt>
      <trkpt lat="43.13773" lon="0.53881">
        <ele>531.6</ele>
        <time>2025-12-29T12:14:58Z</time>
      </trkpt>
      <trkpt lat="43.13774" lon="0.53878">
        <ele>531.6</ele>
        <time>2025-12-29T12:14:59Z</time>
      </trkpt>
      <trkpt lat="43.13774" lon="0.53875">
        <ele>531.6</ele>
        <time>2025-12-29T12:15:00Z</time>
      </trkpt>
      <trkpt lat="43.13775" lon="0.53872">
        <ele>532.4</ele>
        <time>2025-12-29T12:15:01Z</time>
      </trkpt>
      <trkpt lat="43.13775" lon="0.53869">
        <ele>532.2</ele>
        <time>2025-12-29T12:15:02Z</time>
      </trkpt>
      <trkpt lat="43.13776" lon="0.53867">
        <ele>532.2</ele>
        <time>2025-12-29T12:15:03Z</time>
      </trkpt>
      <trkpt lat="43.13777" lon="0.53864">
        <ele>532.2</ele>
        <time>2025-12-29T12:15:04Z</time>
      </trkpt>
      <trkpt lat="43.13777" lon="0.53861">
        <ele>532.2</ele>
        <time>2025-12-29T12:15:05Z</time>
      </trkpt>
      <trkpt lat="43.13777" lon="0.53858">
        <ele>532.8</ele>
        <time>2025-12-29T12:15:06Z</time>
      </trkpt>
      <trkpt lat="43.13778" lon="0.53856">
        <ele>532.8</ele>
        <time>2025-12-29T12:15:07Z</time>
      </trkpt>
      <trkpt lat="43.13779" lon="0.53853">
        <ele>532.8</ele>
        <time>2025-12-29T12:15:08Z</time>
      </trkpt>
      <trkpt lat="43.1378" lon="0.5385">
        <ele>532.8</ele>
        <time>2025-12-29T12:15:09Z</time>
      </trkpt>
      <trkpt lat="43.1378" lon="0.53848">
        <ele>533.8</ele>
        <time>2025-12-29T12:15:10Z</time>
      </trkpt>
      <trkpt lat="43.1378" lon="0.53845">
        <ele>533.8</ele>
        <time>2025-12-29T12:15:11Z</time>
      </trkpt>
      <trkpt lat="43.13781" lon="0.53842">
        <ele>533.8</ele>
        <time>2025-12-29T12:15:12Z</time>
      </trkpt>
      <trkpt lat="43.13782" lon="0.53839">
        <ele>533.8</ele>
        <time>2025-12-29T12:15:13Z</time>
      </trkpt>
      <trkpt lat="43.13782" lon="0.53836">
        <ele>533.4</ele>
        <time>2025-12-29T12:15:14Z</time>
      </trkpt>
      <trkpt lat="43.13783" lon="0.53833">
        <ele>533.4</ele>
        <time>2025-12-29T12:15:15Z</time>
      </trkpt>
      <trkpt lat="43.13783" lon="0.5383">
        <ele>533.4</ele>
        <time>2025-12-29T12:15:16Z</time>
      </trkpt>
      <trkpt lat="43.13784" lon="0.53827">
        <ele>534.4</ele>
        <time>2025-12-29T12:15:17Z</time>
      </trkpt>
      <trkpt lat="43.13785" lon="0.53824">
        <ele>534.8</ele>
        <time>2025-12-29T12:15:18Z</time>
      </trkpt>
      <trkpt lat="43.13786" lon="0.53822">
        <ele>534.8</ele>
        <time>2025-12-29T12:15:19Z</time>
      </trkpt>
      <trkpt lat="43.13788" lon="0.5382">
        <ele>534.8</ele>
        <time>2025-12-29T12:15:20Z</time>
      </trkpt>
      <trkpt lat="43.13789" lon="0.53819">
        <ele>534.8</ele>
        <time>2025-12-29T12:15:21Z</time>
      </trkpt>
      <trkpt lat="43.1379" lon="0.53817">
        <ele>535.6</ele>
        <time>2025-12-29T12:15:22Z</time>
      </trkpt>
      <trkpt lat="43.13791" lon="0.53815">
        <ele>535.6</ele>
        <time>2025-12-29T12:15:23Z</time>
      </trkpt>
      <trkpt lat="43.13791" lon="0.53813">
        <ele>535.6</ele>
        <time>2025-12-29T12:15:24Z</time>
      </trkpt>
      <trkpt lat="43.13792" lon="0.53811">
        <ele>536.2</ele>
        <time>2025-12-29T12:15:25Z</time>
      </trkpt>
      <trkpt lat="43.13793" lon="0.53809">
        <ele>536.4</ele>
        <time>2025-12-29T12:15:26Z</time>
      </trkpt>
      <trkpt lat="43.13793" lon="0.53806">
        <ele>536.4</ele>
        <time>2025-12-29T12:15:27Z</time>
      </trkpt>
      <trkpt lat="43.13793" lon="0.53803">
        <ele>536.4</ele>
        <time>2025-12-29T12:15:28Z</time>
      </trkpt>
      <trkpt lat="43.13792" lon="0.538">
        <ele>536.4</ele>
        <time>2025-12-29T12:15:29Z</time>
      </trkpt>
      <trkpt lat="43.13791" lon="0.53797">
        <ele>536.2</ele>
        <time>2025-12-29T12:15:30Z</time>
      </trkpt>
      <trkpt lat="43.1379" lon="0.53794">
        <ele>536.2</ele>
        <time>2025-12-29T12:15:31Z</time>
      </trkpt>
      <trkpt lat="43.13789" lon="0.53791">
        <ele>536.2</ele>
        <time>2025-12-29T12:15:32Z</time>
      </trkpt>
      <trkpt lat="43.13788" lon="0.53788">
        <ele>536.2</ele>
        <time>2025-12-29T12:15:33Z</time>
      </trkpt>
      <trkpt lat="43.13787" lon="0.53784">
        <ele>536.8</ele>
        <time>2025-12-29T12:15:34Z</time>
      </trkpt>
      <trkpt lat="43.13787" lon="0.53781">
        <ele>536.8</ele>
        <time>2025-12-29T12:15:35Z</time>
      </trkpt>
      <trkpt lat="43.13786" lon="0.53778">
        <ele>536.8</ele>
        <time>2025-12-29T12:15:36Z</time>
      </trkpt>
      <trkpt lat="43.13785" lon="0.53775">
        <ele>536.8</ele>
        <time>2025-12-29T12:15:37Z</time>
      </trkpt>
      <trkpt lat="43.13784" lon="0.53772">
        <ele>536.8</ele>
        <time>2025-12-29T12:15:38Z</time>
      </trkpt>
      <trkpt lat="43.13783" lon="0.53769">
        <ele>536.8</ele>
        <time>2025-12-29T12:15:39Z</time>
      </trkpt>
      <trkpt lat="43.13782" lon="0.53766">
        <ele>536.8</ele>
        <time>2025-12-29T12:15:40Z</time>
      </trkpt>
      <trkpt lat="43.13781" lon="0.53763">
        <ele>536.8</ele>
        <time>2025-12-29T12:15:41Z</time>
      </trkpt>
      <trkpt lat="43.1378" lon="0.5376">
        <ele>536.6</ele>
        <time>2025-12-29T12:15:42Z</time>
      </trkpt>
      <trkpt lat="43.13779" lon="0.53758">
        <ele>536.6</ele>
        <time>2025-12-29T12:15:43Z</time>
      </trkpt>
      <trkpt lat="43.13778" lon="0.53755">
        <ele>536.6</ele>
        <time>2025-12-29T12:15:44Z</time>
      </trkpt>
      <trkpt lat="43.13777" lon="0.53752">
        <ele>537.2</ele>
        <time>2025-12-29T12:15:45Z</time>
      </trkpt>
      <trkpt lat="43.13776" lon="0.53749">
        <ele>537.6</ele>
        <time>2025-12-29T12:15:46Z</time>
      </trkpt>
      <trkpt lat="43.13775" lon="0.53746">
        <ele>537.6</ele>
        <time>2025-12-29T12:15:47Z</time>
      </trkpt>
      <trkpt lat="43.13773" lon="0.53743">
        <ele>537.6</ele>
        <time>2025-12-29T12:15:48Z</time>
      </trkpt>
      <trkpt lat="43.13772" lon="0.5374">
        <ele>537.6</ele>
        <time>2025-12-29T12:15:49Z</time>
      </trkpt>
      <trkpt lat="43.13771" lon="0.53737">
        <ele>537</ele>
        <time>2025-12-29T12:15:50Z</time>
      </trkpt>
      <trkpt lat="43.1377" lon="0.53734">
        <ele>537</ele>
        <time>2025-12-29T12:15:51Z</time>
      </trkpt>
      <trkpt lat="43.13769" lon="0.53732">
        <ele>537</ele>
        <time>2025-12-29T12:15:52Z</time>
      </trkpt>
      <trkpt lat="43.13768" lon="0.53729">
        <ele>538</ele>
        <time>2025-12-29T12:15:53Z</time>
      </trkpt>
      <trkpt lat="43.13767" lon="0.53726">
        <ele>537.6</ele>
        <time>2025-12-29T12:15:54Z</time>
      </trkpt>
      <trkpt lat="43.13765" lon="0.53723">
        <ele>537.6</ele>
        <time>2025-12-29T12:15:55Z</time>
      </trkpt>
      <trkpt lat="43.13764" lon="0.53721">
        <ele>537.6</ele>
        <time>2025-12-29T12:15:56Z</time>
      </trkpt>
      <trkpt lat="43.13763" lon="0.53718">
        <ele>537.6</ele>
        <time>2025-12-29T12:15:57Z</time>
      </trkpt>
      <trkpt lat="43.13762" lon="0.53715">
        <ele>538.6</ele>
        <time>2025-12-29T12:15:58Z</time>
      </trkpt>
      <trkpt lat="43.13761" lon="0.53712">
        <ele>538.6</ele>
        <time>2025-12-29T12:15:59Z</time>
      </trkpt>
      <trkpt lat="43.13759" lon="0.53709">
        <ele>538.6</ele>
        <time>2025-12-29T12:16:00Z</time>
      </trkpt>
      <trkpt lat="43.13758" lon="0.53707">
        <ele>538.6</ele>
        <time>2025-12-29T12:16:01Z</time>
      </trkpt>
      <trkpt lat="43.13757" lon="0.53704">
        <ele>539.4</ele>
        <time>2025-12-29T12:16:02Z</time>
      </trkpt>
      <trkpt lat="43.13756" lon="0.53701">
        <ele>539.4</ele>
        <time>2025-12-29T12:16:03Z</time>
      </trkpt>
      <trkpt lat="43.13755" lon="0.53698">
        <ele>539.4</ele>
        <time>2025-12-29T12:16:04Z</time>
      </trkpt>
      <trkpt lat="43.13754" lon="0.53695">
        <ele>539</ele>
        <time>2025-12-29T12:16:05Z</time>
      </trkpt>
      <trkpt lat="43.13753" lon="0.53692">
        <ele>539.4</ele>
        <time>2025-12-29T12:16:06Z</time>
      </trkpt>
      <trkpt lat="43.13752" lon="0.53689">
        <ele>539.4</ele>
        <time>2025-12-29T12:16:07Z</time>
      </trkpt>
      <trkpt lat="43.13751" lon="0.53686">
        <ele>539.4</ele>
        <time>2025-12-29T12:16:08Z</time>
      </trkpt>
      <trkpt lat="43.1375" lon="0.53683">
        <ele>539.4</ele>
        <time>2025-12-29T12:16:09Z</time>
      </trkpt>
      <trkpt lat="43.13749" lon="0.5368">
        <ele>539.2</ele>
        <time>2025-12-29T12:16:10Z</time>
      </trkpt>
      <trkpt lat="43.13748" lon="0.53677">
        <ele>539.2</ele>
        <time>2025-12-29T12:16:11Z</time>
      </trkpt>
      <trkpt lat="43.13746" lon="0.53674">
        <ele>539.2</ele>
        <time>2025-12-29T12:16:12Z</time>
      </trkpt>
      <trkpt lat="43.13745" lon="0.53671">
        <ele>540.2</ele>
        <time>2025-12-29T12:16:13Z</time>
      </trkpt>
      <trkpt lat="43.13744" lon="0.53668">
        <ele>540.6</ele>
        <time>2025-12-29T12:16:14Z</time>
      </trkpt>
      <trkpt lat="43.13743" lon="0.53665">
        <ele>540.6</ele>
        <time>2025-12-29T12:16:15Z</time>
      </trkpt>
      <trkpt lat="43.13742" lon="0.53662">
        <ele>540.6</ele>
        <time>2025-12-29T12:16:16Z</time>
      </trkpt>
      <trkpt lat="43.1374" lon="0.53659">
        <ele>540.6</ele>
        <time>2025-12-29T12:16:17Z</time>
      </trkpt>
      <trkpt lat="43.13739" lon="0.53656">
        <ele>540.8</ele>
        <time>2025-12-29T12:16:18Z</time>
      </trkpt>
      <trkpt lat="43.13738" lon="0.53653">
        <ele>540.8</ele>
        <time>2025-12-29T12:16:19Z</time>
      </trkpt>
      <trkpt lat="43.13737" lon="0.5365">
        <ele>540.8</ele>
        <time>2025-12-29T12:16:20Z</time>
      </trkpt>
      <trkpt lat="43.13735" lon="0.53646">
        <ele>540.8</ele>
        <time>2025-12-29T12:16:21Z</time>
      </trkpt>
      <trkpt lat="43.13734" lon="0.53643">
        <ele>541.4</ele>
        <time>2025-12-29T12:16:22Z</time>
      </trkpt>
      <trkpt lat="43.13733" lon="0.5364">
        <ele>541.4</ele>
        <time>2025-12-29T12:16:23Z</time>
      </trkpt>
      <trkpt lat="43.13732" lon="0.53637">
        <ele>541.4</ele>
        <time>2025-12-29T12:16:24Z</time>
      </trkpt>
      <trkpt lat="43.1373" lon="0.53634">
        <ele>541.4</ele>
        <time>2025-12-29T12:16:25Z</time>
      </trkpt>
      <trkpt lat="43.13729" lon="0.5363">
        <ele>541.8</ele>
        <time>2025-12-29T12:16:26Z</time>
      </trkpt>
      <trkpt lat="43.13728" lon="0.53627">
        <ele>541.8</ele>
        <time>2025-12-29T12:16:27Z</time>
      </trkpt>
      <trkpt lat="43.13727" lon="0.53624">
        <ele>541.8</ele>
        <time>2025-12-29T12:16:28Z</time>
      </trkpt>
      <trkpt lat="43.13725" lon="0.53621">
        <ele>541.8</ele>
        <time>2025-12-29T12:16:29Z</time>
      </trkpt>
      <trkpt lat="43.13724" lon="0.53618">
        <ele>542.2</ele>
        <time>2025-12-29T12:16:30Z</time>
      </trkpt>
      <trkpt lat="43.13723" lon="0.53614">
        <ele>542.2</ele>
        <time>2025-12-29T12:16:31Z</time>
      </trkpt>
      <trkpt lat="43.13721" lon="0.53611">
        <ele>542.2</ele>
        <time>2025-12-29T12:16:32Z</time>
      </trkpt>
      <trkpt lat="43.1372" lon="0.53608">
        <ele>542</ele>
        <time>2025-12-29T12:16:33Z</time>
      </trkpt>
      <trkpt lat="43.13718" lon="0.53604">
        <ele>541.6</ele>
        <time>2025-12-29T12:16:34Z</time>
      </trkpt>
      <trkpt lat="43.13717" lon="0.536">
        <ele>541.6</ele>
        <time>2025-12-29T12:16:35Z</time>
      </trkpt>
      <trkpt lat="43.13715" lon="0.53596">
        <ele>541.6</ele>
        <time>2025-12-29T12:16:36Z</time>
      </trkpt>
      <trkpt lat="43.13714" lon="0.53592">
        <ele>541.6</ele>
        <time>2025-12-29T12:16:37Z</time>
      </trkpt>
      <trkpt lat="43.13712" lon="0.53588">
        <ele>541.6</ele>
        <time>2025-12-29T12:16:38Z</time>
      </trkpt>
      <trkpt lat="43.1371" lon="0.53585">
        <ele>541.6</ele>
        <time>2025-12-29T12:16:39Z</time>
      </trkpt>
      <trkpt lat="43.13709" lon="0.53581">
        <ele>541.6</ele>
        <time>2025-12-29T12:16:40Z</time>
      </trkpt>
      <trkpt lat="43.13707" lon="0.53577">
        <ele>541.6</ele>
        <time>2025-12-29T12:16:41Z</time>
      </trkpt>
      <trkpt lat="43.13705" lon="0.53573">
        <ele>541.6</ele>
        <time>2025-12-29T12:16:42Z</time>
      </trkpt>
      <trkpt lat="43.13704" lon="0.53569">
        <ele>541.6</ele>
        <time>2025-12-29T12:16:43Z</time>
      </trkpt>
      <trkpt lat="43.13702" lon="0.53565">
        <ele>541.6</ele>
        <time>2025-12-29T12:16:44Z</time>
      </trkpt>
      <trkpt lat="43.137" lon="0.53561">
        <ele>541.6</ele>
        <time>2025-12-29T12:16:45Z</time>
      </trkpt>
      <trkpt lat="43.13699" lon="0.53556">
        <ele>540.6</ele>
        <time>2025-12-29T12:16:46Z</time>
      </trkpt>
      <trkpt lat="43.13697" lon="0.53552">
        <ele>540.6</ele>
        <time>2025-12-29T12:16:47Z</time>
      </trkpt>
      <trkpt lat="43.13695" lon="0.53547">
        <ele>540.6</ele>
        <time>2025-12-29T12:16:48Z</time>
      </trkpt>
      <trkpt lat="43.13693" lon="0.53543">
        <ele>540.6</ele>
        <time>2025-12-29T12:16:49Z</time>
      </trkpt>
      <trkpt lat="43.13691" lon="0.53538">
        <ele>540.8</ele>
        <time>2025-12-29T12:16:50Z</time>
      </trkpt>
      <trkpt lat="43.1369" lon="0.53533">
        <ele>540.8</ele>
        <time>2025-12-29T12:16:51Z</time>
      </trkpt>
      <trkpt lat="43.13688" lon="0.53528">
        <ele>540.8</ele>
        <time>2025-12-29T12:16:52Z</time>
      </trkpt>
      <trkpt lat="43.13687" lon="0.53523">
        <ele>540.8</ele>
        <time>2025-12-29T12:16:53Z</time>
      </trkpt>
      <trkpt lat="43.13685" lon="0.53518">
        <ele>540.8</ele>
        <time>2025-12-29T12:16:54Z</time>
      </trkpt>
      <trkpt lat="43.13684" lon="0.53513">
        <ele>540.8</ele>
        <time>2025-12-29T12:16:55Z</time>
      </trkpt>
      <trkpt lat="43.13682" lon="0.53509">
        <ele>540.8</ele>
        <time>2025-12-29T12:16:56Z</time>
      </trkpt>
      <trkpt lat="43.13681" lon="0.53504">
        <ele>540.8</ele>
        <time>2025-12-29T12:16:57Z</time>
      </trkpt>
      <trkpt lat="43.13679" lon="0.53499">
        <ele>540.8</ele>
        <time>2025-12-29T12:16:58Z</time>
      </trkpt>
      <trkpt lat="43.13677" lon="0.53494">
        <ele>540.8</ele>
        <time>2025-12-29T12:16:59Z</time>
      </trkpt>
      <trkpt lat="43.13676" lon="0.53489">
        <ele>540.8</ele>
        <time>2025-12-29T12:17:00Z</time>
      </trkpt>
      <trkpt lat="43.13674" lon="0.53484">
        <ele>540.8</ele>
        <time>2025-12-29T12:17:01Z</time>
      </trkpt>
      <trkpt lat="43.13672" lon="0.5348">
        <ele>540.8</ele>
        <time>2025-12-29T12:17:02Z</time>
      </trkpt>
      <trkpt lat="43.1367" lon="0.53475">
        <ele>540.8</ele>
        <time>2025-12-29T12:17:03Z</time>
      </trkpt>
      <trkpt lat="43.13669" lon="0.5347">
        <ele>540.8</ele>
        <time>2025-12-29T12:17:04Z</time>
      </trkpt>
      <trkpt lat="43.13667" lon="0.53465">
        <ele>540.8</ele>
        <time>2025-12-29T12:17:05Z</time>
      </trkpt>
      <trkpt lat="43.13665" lon="0.5346">
        <ele>540.4</ele>
        <time>2025-12-29T12:17:06Z</time>
      </trkpt>
      <trkpt lat="43.13664" lon="0.53455">
        <ele>540.4</ele>
        <time>2025-12-29T12:17:07Z</time>
      </trkpt>
      <trkpt lat="43.13662" lon="0.5345">
        <ele>540.4</ele>
        <time>2025-12-29T12:17:08Z</time>
      </trkpt>
      <trkpt lat="43.13661" lon="0.53445">
        <ele>540.4</ele>
        <time>2025-12-29T12:17:09Z</time>
      </trkpt>
      <trkpt lat="43.13659" lon="0.5344">
        <ele>541</ele>
        <time>2025-12-29T12:17:10Z</time>
      </trkpt>
      <trkpt lat="43.13657" lon="0.53435">
        <ele>541</ele>
        <time>2025-12-29T12:17:11Z</time>
      </trkpt>
      <trkpt lat="43.13656" lon="0.5343">
        <ele>541</ele>
        <time>2025-12-29T12:17:12Z</time>
      </trkpt>
      <trkpt lat="43.13654" lon="0.53425">
        <ele>540.4</ele>
        <time>2025-12-29T12:17:13Z</time>
      </trkpt>
      <trkpt lat="43.13652" lon="0.53421">
        <ele>541.2</ele>
        <time>2025-12-29T12:17:14Z</time>
      </trkpt>
      <trkpt lat="43.13651" lon="0.53416">
        <ele>541.2</ele>
        <time>2025-12-29T12:17:15Z</time>
      </trkpt>
      <trkpt lat="43.13649" lon="0.53412">
        <ele>541.2</ele>
        <time>2025-12-29T12:17:16Z</time>
      </trkpt>
      <trkpt lat="43.13648" lon="0.53407">
        <ele>541.2</ele>
        <time>2025-12-29T12:17:17Z</time>
      </trkpt>
      <trkpt lat="43.13646" lon="0.53403">
        <ele>541.2</ele>
        <time>2025-12-29T12:17:18Z</time>
      </trkpt>
      <trkpt lat="43.13645" lon="0.53398">
        <ele>541.2</ele>
        <time>2025-12-29T12:17:19Z</time>
      </trkpt>
      <trkpt lat="43.13643" lon="0.53394">
        <ele>541.2</ele>
        <time>2025-12-29T12:17:20Z</time>
      </trkpt>
      <trkpt lat="43.13641" lon="0.53389">
        <ele>542.2</ele>
        <time>2025-12-29T12:17:21Z</time>
      </trkpt>
      <trkpt lat="43.1364" lon="0.53384">
        <ele>542.2</ele>
        <time>2025-12-29T12:17:22Z</time>
      </trkpt>
      <trkpt lat="43.13639" lon="0.5338">
        <ele>542.2</ele>
        <time>2025-12-29T12:17:23Z</time>
      </trkpt>
      <trkpt lat="43.13637" lon="0.53375">
        <ele>542.2</ele>
        <time>2025-12-29T12:17:24Z</time>
      </trkpt>
      <trkpt lat="43.13636" lon="0.53371">
        <ele>542.2</ele>
        <time>2025-12-29T12:17:25Z</time>
      </trkpt>
      <trkpt lat="43.13634" lon="0.53366">
        <ele>542.4</ele>
        <time>2025-12-29T12:17:26Z</time>
      </trkpt>
      <trkpt lat="43.13633" lon="0.53362">
        <ele>542.4</ele>
        <time>2025-12-29T12:17:27Z</time>
      </trkpt>
      <trkpt lat="43.13631" lon="0.53357">
        <ele>542.4</ele>
        <time>2025-12-29T12:17:28Z</time>
      </trkpt>
      <trkpt lat="43.1363" lon="0.53353">
        <ele>542.4</ele>
        <time>2025-12-29T12:17:29Z</time>
      </trkpt>
      <trkpt lat="43.13628" lon="0.53348">
        <ele>542.2</ele>
        <time>2025-12-29T12:17:30Z</time>
      </trkpt>
      <trkpt lat="43.13626" lon="0.53343">
        <ele>542.2</ele>
        <time>2025-12-29T12:17:31Z</time>
      </trkpt>
      <trkpt lat="43.13625" lon="0.53339">
        <ele>542.2</ele>
        <time>2025-12-29T12:17:32Z</time>
      </trkpt>
      <trkpt lat="43.13624" lon="0.53334">
        <ele>542.2</ele>
        <time>2025-12-29T12:17:33Z</time>
      </trkpt>
      <trkpt lat="43.13622" lon="0.53329">
        <ele>541.8</ele>
        <time>2025-12-29T12:17:34Z</time>
      </trkpt>
      <trkpt lat="43.13621" lon="0.53325">
        <ele>541.8</ele>
        <time>2025-12-29T12:17:35Z</time>
      </trkpt>
      <trkpt lat="43.1362" lon="0.5332">
        <ele>541.8</ele>
        <time>2025-12-29T12:17:36Z</time>
      </trkpt>
      <trkpt lat="43.13619" lon="0.53316">
        <ele>542.8</ele>
        <time>2025-12-29T12:17:37Z</time>
      </trkpt>
      <trkpt lat="43.13617" lon="0.53312">
        <ele>543.4</ele>
        <time>2025-12-29T12:17:38Z</time>
      </trkpt>
      <trkpt lat="43.13616" lon="0.53308">
        <ele>543.4</ele>
        <time>2025-12-29T12:17:39Z</time>
      </trkpt>
      <trkpt lat="43.13615" lon="0.53304">
        <ele>543.4</ele>
        <time>2025-12-29T12:17:40Z</time>
      </trkpt>
      <trkpt lat="43.13614" lon="0.533">
        <ele>542.4</ele>
        <time>2025-12-29T12:17:41Z</time>
      </trkpt>
      <trkpt lat="43.13612" lon="0.53295">
        <ele>541.8</ele>
        <time>2025-12-29T12:17:42Z</time>
      </trkpt>
      <trkpt lat="43.13611" lon="0.53291">
        <ele>541.8</ele>
        <time>2025-12-29T12:17:43Z</time>
      </trkpt>
      <trkpt lat="43.13609" lon="0.53286">
        <ele>541.8</ele>
        <time>2025-12-29T12:17:44Z</time>
      </trkpt>
      <trkpt lat="43.13608" lon="0.53281">
        <ele>542.6</ele>
        <time>2025-12-29T12:17:45Z</time>
      </trkpt>
      <trkpt lat="43.13606" lon="0.53277">
        <ele>541.6</ele>
        <time>2025-12-29T12:17:46Z</time>
      </trkpt>
      <trkpt lat="43.13605" lon="0.53272">
        <ele>541.6</ele>
        <time>2025-12-29T12:17:47Z</time>
      </trkpt>
      <trkpt lat="43.13603" lon="0.53267">
        <ele>541.6</ele>
        <time>2025-12-29T12:17:48Z</time>
      </trkpt>
      <trkpt lat="43.13602" lon="0.53263">
        <ele>541.8</ele>
        <time>2025-12-29T12:17:49Z</time>
      </trkpt>
      <trkpt lat="43.136" lon="0.53258">
        <ele>542.2</ele>
        <time>2025-12-29T12:17:50Z</time>
      </trkpt>
      <trkpt lat="43.13598" lon="0.53254">
        <ele>542.2</ele>
        <time>2025-12-29T12:17:51Z</time>
      </trkpt>
      <trkpt lat="43.13597" lon="0.5325">
        <ele>542.2</ele>
        <time>2025-12-29T12:17:52Z</time>
      </trkpt>
      <trkpt lat="43.13595" lon="0.53246">
        <ele>542.6</ele>
        <time>2025-12-29T12:17:53Z</time>
      </trkpt>
      <trkpt lat="43.13594" lon="0.53241">
        <ele>541.6</ele>
        <time>2025-12-29T12:17:54Z</time>
      </trkpt>
      <trkpt lat="43.13592" lon="0.53237">
        <ele>541.6</ele>
        <time>2025-12-29T12:17:55Z</time>
      </trkpt>
      <trkpt lat="43.13591" lon="0.53232">
        <ele>541.6</ele>
        <time>2025-12-29T12:17:56Z</time>
      </trkpt>
      <trkpt lat="43.13589" lon="0.53227">
        <ele>542.6</ele>
        <time>2025-12-29T12:17:57Z</time>
      </trkpt>
      <trkpt lat="43.13587" lon="0.53222">
        <ele>542.2</ele>
        <time>2025-12-29T12:17:58Z</time>
      </trkpt>
      <trkpt lat="43.13585" lon="0.53217">
        <ele>542.2</ele>
        <time>2025-12-29T12:17:59Z</time>
      </trkpt>
      <trkpt lat="43.13583" lon="0.53212">
        <ele>542.2</ele>
        <time>2025-12-29T12:18:00Z</time>
      </trkpt>
      <trkpt lat="43.13581" lon="0.53207">
        <ele>542.2</ele>
        <time>2025-12-29T12:18:01Z</time>
      </trkpt>
      <trkpt lat="43.13579" lon="0.53202">
        <ele>541.8</ele>
        <time>2025-12-29T12:18:02Z</time>
      </trkpt>
      <trkpt lat="43.13578" lon="0.53197">
        <ele>541.8</ele>
        <time>2025-12-29T12:18:03Z</time>
      </trkpt>
      <trkpt lat="43.13576" lon="0.53192">
        <ele>541.8</ele>
        <time>2025-12-29T12:18:04Z</time>
      </trkpt>
      <trkpt lat="43.13574" lon="0.53187">
        <ele>541.8</ele>
        <time>2025-12-29T12:18:05Z</time>
      </trkpt>
      <trkpt lat="43.13572" lon="0.53182">
        <ele>541.4</ele>
        <time>2025-12-29T12:18:06Z</time>
      </trkpt>
      <trkpt lat="43.1357" lon="0.53177">
        <ele>541.4</ele>
        <time>2025-12-29T12:18:07Z</time>
      </trkpt>
      <trkpt lat="43.13569" lon="0.53173">
        <ele>541.4</ele>
        <time>2025-12-29T12:18:08Z</time>
      </trkpt>
      <trkpt lat="43.13568" lon="0.5317">
        <ele>541.4</ele>
        <time>2025-12-29T12:18:09Z</time>
      </trkpt>
      <trkpt lat="43.13567" lon="0.53168">
        <ele>541.8</ele>
        <time>2025-12-29T12:18:10Z</time>
      </trkpt>
      <trkpt lat="43.13567" lon="0.53165">
        <ele>541.8</ele>
        <time>2025-12-29T12:18:11Z</time>
      </trkpt>
      <trkpt lat="43.13566" lon="0.53163">
        <ele>541.8</ele>
        <time>2025-12-29T12:18:12Z</time>
      </trkpt>
      <trkpt lat="43.13566" lon="0.53161">
        <ele>541.8</ele>
        <time>2025-12-29T12:18:13Z</time>
      </trkpt>
      <trkpt lat="43.13565" lon="0.53159">
        <ele>541.6</ele>
        <time>2025-12-29T12:18:14Z</time>
      </trkpt>
      <trkpt lat="43.13563" lon="0.53157">
        <ele>541.6</ele>
        <time>2025-12-29T12:18:15Z</time>
      </trkpt>
      <trkpt lat="43.13562" lon="0.53154">
        <ele>541.6</ele>
        <time>2025-12-29T12:18:16Z</time>
      </trkpt>
      <trkpt lat="43.1356" lon="0.5315">
        <ele>541.6</ele>
        <time>2025-12-29T12:18:17Z</time>
      </trkpt>
      <trkpt lat="43.13558" lon="0.53146">
        <ele>541.6</ele>
        <time>2025-12-29T12:18:18Z</time>
      </trkpt>
      <trkpt lat="43.13557" lon="0.53142">
        <ele>541.6</ele>
        <time>2025-12-29T12:18:19Z</time>
      </trkpt>
      <trkpt lat="43.13556" lon="0.53138">
        <ele>541.6</ele>
        <time>2025-12-29T12:18:20Z</time>
      </trkpt>
      <trkpt lat="43.13554" lon="0.53133">
        <ele>541.6</ele>
        <time>2025-12-29T12:18:21Z</time>
      </trkpt>
      <trkpt lat="43.13552" lon="0.53129">
        <ele>540.8</ele>
        <time>2025-12-29T12:18:22Z</time>
      </trkpt>
      <trkpt lat="43.13551" lon="0.53124">
        <ele>540.8</ele>
        <time>2025-12-29T12:18:23Z</time>
      </trkpt>
      <trkpt lat="43.13549" lon="0.5312">
        <ele>540.8</ele>
        <time>2025-12-29T12:18:24Z</time>
      </trkpt>
      <trkpt lat="43.13548" lon="0.53115">
        <ele>541.8</ele>
        <time>2025-12-29T12:18:25Z</time>
      </trkpt>
      <trkpt lat="43.13546" lon="0.53111">
        <ele>542.2</ele>
        <time>2025-12-29T12:18:26Z</time>
      </trkpt>
      <trkpt lat="43.13544" lon="0.53106">
        <ele>542.2</ele>
        <time>2025-12-29T12:18:27Z</time>
      </trkpt>
      <trkpt lat="43.13543" lon="0.53102">
        <ele>542.2</ele>
        <time>2025-12-29T12:18:28Z</time>
      </trkpt>
      <trkpt lat="43.13541" lon="0.53097">
        <ele>542.2</ele>
        <time>2025-12-29T12:18:29Z</time>
      </trkpt>
      <trkpt lat="43.13539" lon="0.53093">
        <ele>542.2</ele>
        <time>2025-12-29T12:18:30Z</time>
      </trkpt>
      <trkpt lat="43.13537" lon="0.53088">
        <ele>542.2</ele>
        <time>2025-12-29T12:18:31Z</time>
      </trkpt>
      <trkpt lat="43.13535" lon="0.53083">
        <ele>542.2</ele>
        <time>2025-12-29T12:18:32Z</time>
      </trkpt>
      <trkpt lat="43.13534" lon="0.53078">
        <ele>542.2</ele>
        <time>2025-12-29T12:18:33Z</time>
      </trkpt>
      <trkpt lat="43.13533" lon="0.53074">
        <ele>542.8</ele>
        <time>2025-12-29T12:18:34Z</time>
      </trkpt>
      <trkpt lat="43.13531" lon="0.53069">
        <ele>542.8</ele>
        <time>2025-12-29T12:18:35Z</time>
      </trkpt>
      <trkpt lat="43.1353" lon="0.53065">
        <ele>542.8</ele>
        <time>2025-12-29T12:18:36Z</time>
      </trkpt>
      <trkpt lat="43.13529" lon="0.53061">
        <ele>542.8</ele>
        <time>2025-12-29T12:18:37Z</time>
      </trkpt>
      <trkpt lat="43.13528" lon="0.53057">
        <ele>542.4</ele>
        <time>2025-12-29T12:18:38Z</time>
      </trkpt>
      <trkpt lat="43.13527" lon="0.53053">
        <ele>542.4</ele>
        <time>2025-12-29T12:18:39Z</time>
      </trkpt>
      <trkpt lat="43.13525" lon="0.53049">
        <ele>542.4</ele>
        <time>2025-12-29T12:18:40Z</time>
      </trkpt>
      <trkpt lat="43.13524" lon="0.53045">
        <ele>543.4</ele>
        <time>2025-12-29T12:18:41Z</time>
      </trkpt>
      <trkpt lat="43.13523" lon="0.53041">
        <ele>543.4</ele>
        <time>2025-12-29T12:18:42Z</time>
      </trkpt>
      <trkpt lat="43.13521" lon="0.53037">
        <ele>543.4</ele>
        <time>2025-12-29T12:18:43Z</time>
      </trkpt>
      <trkpt lat="43.1352" lon="0.53033">
        <ele>543.4</ele>
        <time>2025-12-29T12:18:44Z</time>
      </trkpt>
      <trkpt lat="43.13519" lon="0.53029">
        <ele>543.4</ele>
        <time>2025-12-29T12:18:45Z</time>
      </trkpt>
      <trkpt lat="43.13517" lon="0.53026">
        <ele>543.2</ele>
        <time>2025-12-29T12:18:46Z</time>
      </trkpt>
      <trkpt lat="43.13516" lon="0.53022">
        <ele>543.2</ele>
        <time>2025-12-29T12:18:47Z</time>
      </trkpt>
      <trkpt lat="43.13515" lon="0.53018">
        <ele>543.2</ele>
        <time>2025-12-29T12:18:48Z</time>
      </trkpt>
      <trkpt lat="43.13514" lon="0.53014">
        <ele>543.2</ele>
        <time>2025-12-29T12:18:49Z</time>
      </trkpt>
      <trkpt lat="43.13512" lon="0.5301">
        <ele>544</ele>
        <time>2025-12-29T12:18:50Z</time>
      </trkpt>
      <trkpt lat="43.13511" lon="0.53006">
        <ele>544</ele>
        <time>2025-12-29T12:18:51Z</time>
      </trkpt>
      <trkpt lat="43.1351" lon="0.53002">
        <ele>544</ele>
        <time>2025-12-29T12:18:52Z</time>
      </trkpt>
      <trkpt lat="43.13508" lon="0.52997">
        <ele>544</ele>
        <time>2025-12-29T12:18:53Z</time>
      </trkpt>
      <trkpt lat="43.13506" lon="0.52993">
        <ele>543.4</ele>
        <time>2025-12-29T12:18:54Z</time>
      </trkpt>
      <trkpt lat="43.13505" lon="0.52989">
        <ele>543.4</ele>
        <time>2025-12-29T12:18:55Z</time>
      </trkpt>
      <trkpt lat="43.13504" lon="0.52984">
        <ele>543.4</ele>
        <time>2025-12-29T12:18:56Z</time>
      </trkpt>
      <trkpt lat="43.13502" lon="0.5298">
        <ele>543.4</ele>
        <time>2025-12-29T12:18:57Z</time>
      </trkpt>
      <trkpt lat="43.13501" lon="0.52975">
        <ele>543.2</ele>
        <time>2025-12-29T12:18:58Z</time>
      </trkpt>
      <trkpt lat="43.13499" lon="0.5297">
        <ele>543.2</ele>
        <time>2025-12-29T12:18:59Z</time>
      </trkpt>
      <trkpt lat="43.13498" lon="0.52966">
        <ele>543.2</ele>
        <time>2025-12-29T12:19:00Z</time>
      </trkpt>
      <trkpt lat="43.13496" lon="0.52961">
        <ele>544</ele>
        <time>2025-12-29T12:19:01Z</time>
      </trkpt>
      <trkpt lat="43.13495" lon="0.52957">
        <ele>544.4</ele>
        <time>2025-12-29T12:19:02Z</time>
      </trkpt>
      <trkpt lat="43.13493" lon="0.52952">
        <ele>544.4</ele>
        <time>2025-12-29T12:19:03Z</time>
      </trkpt>
      <trkpt lat="43.13492" lon="0.52947">
        <ele>544.4</ele>
        <time>2025-12-29T12:19:04Z</time>
      </trkpt>
      <trkpt lat="43.1349" lon="0.52942">
        <ele>544.4</ele>
        <time>2025-12-29T12:19:05Z</time>
      </trkpt>
      <trkpt lat="43.13489" lon="0.52937">
        <ele>544.6</ele>
        <time>2025-12-29T12:19:06Z</time>
      </trkpt>
      <trkpt lat="43.13488" lon="0.52932">
        <ele>544.6</ele>
        <time>2025-12-29T12:19:07Z</time>
      </trkpt>
      <trkpt lat="43.13487" lon="0.52927">
        <ele>544.6</ele>
        <time>2025-12-29T12:19:08Z</time>
      </trkpt>
      <trkpt lat="43.13485" lon="0.52923">
        <ele>544.6</ele>
        <time>2025-12-29T12:19:09Z</time>
      </trkpt>
      <trkpt lat="43.13484" lon="0.52918">
        <ele>544.6</ele>
        <time>2025-12-29T12:19:10Z</time>
      </trkpt>
      <trkpt lat="43.13483" lon="0.52913">
        <ele>544.6</ele>
        <time>2025-12-29T12:19:11Z</time>
      </trkpt>
      <trkpt lat="43.13481" lon="0.52908">
        <ele>544.6</ele>
        <time>2025-12-29T12:19:12Z</time>
      </trkpt>
      <trkpt lat="43.1348" lon="0.52903">
        <ele>544.8</ele>
        <time>2025-12-29T12:19:13Z</time>
      </trkpt>
      <trkpt lat="43.13478" lon="0.52898">
        <ele>545</ele>
        <time>2025-12-29T12:19:14Z</time>
      </trkpt>
      <trkpt lat="43.13477" lon="0.52893">
        <ele>545</ele>
        <time>2025-12-29T12:19:15Z</time>
      </trkpt>
      <trkpt lat="43.13476" lon="0.52888">
        <ele>545</ele>
        <time>2025-12-29T12:19:16Z</time>
      </trkpt>
      <trkpt lat="43.13474" lon="0.52883">
        <ele>545</ele>
        <time>2025-12-29T12:19:17Z</time>
      </trkpt>
      <trkpt lat="43.13473" lon="0.52878">
        <ele>545.2</ele>
        <time>2025-12-29T12:19:18Z</time>
      </trkpt>
      <trkpt lat="43.13472" lon="0.52873">
        <ele>545.2</ele>
        <time>2025-12-29T12:19:19Z</time>
      </trkpt>
      <trkpt lat="43.13471" lon="0.52868">
        <ele>545.2</ele>
        <time>2025-12-29T12:19:20Z</time>
      </trkpt>
      <trkpt lat="43.13469" lon="0.52863">
        <ele>545.6</ele>
        <time>2025-12-29T12:19:21Z</time>
      </trkpt>
      <trkpt lat="43.13468" lon="0.52858">
        <ele>545.6</ele>
        <time>2025-12-29T12:19:22Z</time>
      </trkpt>
      <trkpt lat="43.13468" lon="0.52854">
        <ele>545.6</ele>
        <time>2025-12-29T12:19:23Z</time>
      </trkpt>
      <trkpt lat="43.13467" lon="0.52849">
        <ele>545.6</ele>
        <time>2025-12-29T12:19:24Z</time>
      </trkpt>
      <trkpt lat="43.13465" lon="0.52844">
        <ele>545.6</ele>
        <time>2025-12-29T12:19:25Z</time>
      </trkpt>
      <trkpt lat="43.13464" lon="0.52839">
        <ele>546</ele>
        <time>2025-12-29T12:19:26Z</time>
      </trkpt>
      <trkpt lat="43.13463" lon="0.52835">
        <ele>546</ele>
        <time>2025-12-29T12:19:27Z</time>
      </trkpt>
      <trkpt lat="43.13461" lon="0.5283">
        <ele>546</ele>
        <time>2025-12-29T12:19:28Z</time>
      </trkpt>
      <trkpt lat="43.1346" lon="0.52826">
        <ele>546.6</ele>
        <time>2025-12-29T12:19:29Z</time>
      </trkpt>
      <trkpt lat="43.13459" lon="0.52821">
        <ele>546.8</ele>
        <time>2025-12-29T12:19:30Z</time>
      </trkpt>
      <trkpt lat="43.13458" lon="0.52816">
        <ele>546.8</ele>
        <time>2025-12-29T12:19:31Z</time>
      </trkpt>
      <trkpt lat="43.13457" lon="0.52812">
        <ele>546.8</ele>
        <time>2025-12-29T12:19:32Z</time>
      </trkpt>
      <trkpt lat="43.13456" lon="0.52807">
        <ele>546.8</ele>
        <time>2025-12-29T12:19:33Z</time>
      </trkpt>
      <trkpt lat="43.13455" lon="0.52803">
        <ele>547.4</ele>
        <time>2025-12-29T12:19:34Z</time>
      </trkpt>
      <trkpt lat="43.13454" lon="0.52798">
        <ele>547.4</ele>
        <time>2025-12-29T12:19:35Z</time>
      </trkpt>
      <trkpt lat="43.13453" lon="0.52794">
        <ele>547.4</ele>
        <time>2025-12-29T12:19:36Z</time>
      </trkpt>
      <trkpt lat="43.13452" lon="0.5279">
        <ele>547.4</ele>
        <time>2025-12-29T12:19:37Z</time>
      </trkpt>
      <trkpt lat="43.13451" lon="0.52786">
        <ele>547.8</ele>
        <time>2025-12-29T12:19:38Z</time>
      </trkpt>
      <trkpt lat="43.1345" lon="0.52781">
        <ele>547.8</ele>
        <time>2025-12-29T12:19:39Z</time>
      </trkpt>
      <trkpt lat="43.13449" lon="0.52777">
        <ele>547.8</ele>
        <time>2025-12-29T12:19:40Z</time>
      </trkpt>
      <trkpt lat="43.13448" lon="0.52772">
        <ele>548.6</ele>
        <time>2025-12-29T12:19:41Z</time>
      </trkpt>
      <trkpt lat="43.13447" lon="0.52768">
        <ele>548.2</ele>
        <time>2025-12-29T12:19:42Z</time>
      </trkpt>
      <trkpt lat="43.13446" lon="0.52764">
        <ele>548.2</ele>
        <time>2025-12-29T12:19:43Z</time>
      </trkpt>
      <trkpt lat="43.13445" lon="0.5276">
        <ele>548.2</ele>
        <time>2025-12-29T12:19:44Z</time>
      </trkpt>
      <trkpt lat="43.13444" lon="0.52756">
        <ele>549</ele>
        <time>2025-12-29T12:19:45Z</time>
      </trkpt>
      <trkpt lat="43.13443" lon="0.52752">
        <ele>549</ele>
        <time>2025-12-29T12:19:46Z</time>
      </trkpt>
      <trkpt lat="43.13442" lon="0.52749">
        <ele>549</ele>
        <time>2025-12-29T12:19:47Z</time>
      </trkpt>
      <trkpt lat="43.13441" lon="0.52745">
        <ele>549</ele>
        <time>2025-12-29T12:19:48Z</time>
      </trkpt>
      <trkpt lat="43.1344" lon="0.52741">
        <ele>549</ele>
        <time>2025-12-29T12:19:49Z</time>
      </trkpt>
      <trkpt lat="43.13439" lon="0.52737">
        <ele>549.8</ele>
        <time>2025-12-29T12:19:50Z</time>
      </trkpt>
      <trkpt lat="43.13438" lon="0.52733">
        <ele>549.8</ele>
        <time>2025-12-29T12:19:51Z</time>
      </trkpt>
      <trkpt lat="43.13437" lon="0.52729">
        <ele>549.8</ele>
        <time>2025-12-29T12:19:52Z</time>
      </trkpt>
      <trkpt lat="43.13436" lon="0.52725">
        <ele>549.8</ele>
        <time>2025-12-29T12:19:53Z</time>
      </trkpt>
      <trkpt lat="43.13435" lon="0.52721">
        <ele>549.8</ele>
        <time>2025-12-29T12:19:54Z</time>
      </trkpt>
      <trkpt lat="43.13434" lon="0.52718">
        <ele>549.8</ele>
        <time>2025-12-29T12:19:55Z</time>
      </trkpt>
      <trkpt lat="43.13433" lon="0.52714">
        <ele>549.8</ele>
        <time>2025-12-29T12:19:56Z</time>
      </trkpt>
      <trkpt lat="43.13432" lon="0.5271">
        <ele>550.6</ele>
        <time>2025-12-29T12:19:57Z</time>
      </trkpt>
      <trkpt lat="43.13431" lon="0.52707">
        <ele>550.4</ele>
        <time>2025-12-29T12:19:58Z</time>
      </trkpt>
      <trkpt lat="43.1343" lon="0.52703">
        <ele>550.4</ele>
        <time>2025-12-29T12:19:59Z</time>
      </trkpt>
      <trkpt lat="43.13429" lon="0.52699">
        <ele>550.4</ele>
        <time>2025-12-29T12:20:00Z</time>
      </trkpt>
      <trkpt lat="43.13428" lon="0.52696">
        <ele>551.2</ele>
        <time>2025-12-29T12:20:01Z</time>
      </trkpt>
      <trkpt lat="43.13427" lon="0.52692">
        <ele>551.4</ele>
        <time>2025-12-29T12:20:02Z</time>
      </trkpt>
      <trkpt lat="43.13426" lon="0.52689">
        <ele>551.4</ele>
        <time>2025-12-29T12:20:03Z</time>
      </trkpt>
      <trkpt lat="43.13425" lon="0.52686">
        <ele>551.4</ele>
        <time>2025-12-29T12:20:04Z</time>
      </trkpt>
      <trkpt lat="43.13423" lon="0.52682">
        <ele>551.4</ele>
        <time>2025-12-29T12:20:05Z</time>
      </trkpt>
      <trkpt lat="43.13422" lon="0.52679">
        <ele>552</ele>
        <time>2025-12-29T12:20:06Z</time>
      </trkpt>
      <trkpt lat="43.13421" lon="0.52676">
        <ele>552</ele>
        <time>2025-12-29T12:20:07Z</time>
      </trkpt>
      <trkpt lat="43.1342" lon="0.52672">
        <ele>552</ele>
        <time>2025-12-29T12:20:08Z</time>
      </trkpt>
      <trkpt lat="43.13419" lon="0.52669">
        <ele>552</ele>
        <time>2025-12-29T12:20:09Z</time>
      </trkpt>
      <trkpt lat="43.13418" lon="0.52665">
        <ele>552</ele>
        <time>2025-12-29T12:20:10Z</time>
      </trkpt>
      <trkpt lat="43.13417" lon="0.52662">
        <ele>552</ele>
        <time>2025-12-29T12:20:11Z</time>
      </trkpt>
      <trkpt lat="43.13415" lon="0.52658">
        <ele>552</ele>
        <time>2025-12-29T12:20:12Z</time>
      </trkpt>
      <trkpt lat="43.13414" lon="0.52655">
        <ele>552.6</ele>
        <time>2025-12-29T12:20:13Z</time>
      </trkpt>
      <trkpt lat="43.13413" lon="0.52651">
        <ele>553.4</ele>
        <time>2025-12-29T12:20:14Z</time>
      </trkpt>
      <trkpt lat="43.13412" lon="0.52648">
        <ele>553.4</ele>
        <time>2025-12-29T12:20:15Z</time>
      </trkpt>
      <trkpt lat="43.13412" lon="0.52644">
        <ele>553.4</ele>
        <time>2025-12-29T12:20:16Z</time>
      </trkpt>
      <trkpt lat="43.13411" lon="0.52641">
        <ele>553.4</ele>
        <time>2025-12-29T12:20:17Z</time>
      </trkpt>
      <trkpt lat="43.1341" lon="0.52637">
        <ele>553.6</ele>
        <time>2025-12-29T12:20:18Z</time>
      </trkpt>
      <trkpt lat="43.13409" lon="0.52634">
        <ele>553.6</ele>
        <time>2025-12-29T12:20:19Z</time>
      </trkpt>
      <trkpt lat="43.13408" lon="0.5263">
        <ele>553.6</ele>
        <time>2025-12-29T12:20:20Z</time>
      </trkpt>
      <trkpt lat="43.13407" lon="0.52626">
        <ele>553.6</ele>
        <time>2025-12-29T12:20:21Z</time>
      </trkpt>
      <trkpt lat="43.13406" lon="0.52623">
        <ele>553.8</ele>
        <time>2025-12-29T12:20:22Z</time>
      </trkpt>
      <trkpt lat="43.13405" lon="0.52619">
        <ele>553.8</ele>
        <time>2025-12-29T12:20:23Z</time>
      </trkpt>
      <trkpt lat="43.13404" lon="0.52616">
        <ele>553.8</ele>
        <time>2025-12-29T12:20:24Z</time>
      </trkpt>
      <trkpt lat="43.13403" lon="0.52612">
        <ele>553.8</ele>
        <time>2025-12-29T12:20:25Z</time>
      </trkpt>
      <trkpt lat="43.13402" lon="0.52608">
        <ele>554.4</ele>
        <time>2025-12-29T12:20:26Z</time>
      </trkpt>
      <trkpt lat="43.13401" lon="0.52605">
        <ele>554.4</ele>
        <time>2025-12-29T12:20:27Z</time>
      </trkpt>
      <trkpt lat="43.13399" lon="0.52601">
        <ele>554.4</ele>
        <time>2025-12-29T12:20:28Z</time>
      </trkpt>
      <trkpt lat="43.13398" lon="0.52597">
        <ele>554.4</ele>
        <time>2025-12-29T12:20:29Z</time>
      </trkpt>
      <trkpt lat="43.13397" lon="0.52593">
        <ele>554.6</ele>
        <time>2025-12-29T12:20:30Z</time>
      </trkpt>
      <trkpt lat="43.13396" lon="0.5259">
        <ele>554.6</ele>
        <time>2025-12-29T12:20:31Z</time>
      </trkpt>
      <trkpt lat="43.13395" lon="0.52586">
        <ele>554.6</ele>
        <time>2025-12-29T12:20:32Z</time>
      </trkpt>
      <trkpt lat="43.13394" lon="0.52582">
        <ele>554.6</ele>
        <time>2025-12-29T12:20:33Z</time>
      </trkpt>
      <trkpt lat="43.13393" lon="0.52579">
        <ele>555.4</ele>
        <time>2025-12-29T12:20:34Z</time>
      </trkpt>
      <trkpt lat="43.13391" lon="0.52575">
        <ele>555.8</ele>
        <time>2025-12-29T12:20:35Z</time>
      </trkpt>
      <trkpt lat="43.1339" lon="0.52571">
        <ele>555.8</ele>
        <time>2025-12-29T12:20:36Z</time>
      </trkpt>
      <trkpt lat="43.13389" lon="0.52567">
        <ele>555.8</ele>
        <time>2025-12-29T12:20:37Z</time>
      </trkpt>
      <trkpt lat="43.13387" lon="0.52564">
        <ele>555.8</ele>
        <time>2025-12-29T12:20:38Z</time>
      </trkpt>
      <trkpt lat="43.13386" lon="0.5256">
        <ele>556</ele>
        <time>2025-12-29T12:20:39Z</time>
      </trkpt>
      <trkpt lat="43.13384" lon="0.52556">
        <ele>556</ele>
        <time>2025-12-29T12:20:40Z</time>
      </trkpt>
      <trkpt lat="43.13383" lon="0.52552">
        <ele>556</ele>
        <time>2025-12-29T12:20:41Z</time>
      </trkpt>
      <trkpt lat="43.13381" lon="0.52549">
        <ele>556.6</ele>
        <time>2025-12-29T12:20:42Z</time>
      </trkpt>
      <trkpt lat="43.1338" lon="0.52545">
        <ele>556.2</ele>
        <time>2025-12-29T12:20:43Z</time>
      </trkpt>
      <trkpt lat="43.13379" lon="0.52541">
        <ele>556.2</ele>
        <time>2025-12-29T12:20:44Z</time>
      </trkpt>
      <trkpt lat="43.13378" lon="0.52537">
        <ele>556.2</ele>
        <time>2025-12-29T12:20:45Z</time>
      </trkpt>
      <trkpt lat="43.13377" lon="0.52533">
        <ele>556.2</ele>
        <time>2025-12-29T12:20:46Z</time>
      </trkpt>
      <trkpt lat="43.13376" lon="0.52529">
        <ele>556.8</ele>
        <time>2025-12-29T12:20:47Z</time>
      </trkpt>
      <trkpt lat="43.13374" lon="0.52525">
        <ele>556.8</ele>
        <time>2025-12-29T12:20:48Z</time>
      </trkpt>
      <trkpt lat="43.13373" lon="0.52521">
        <ele>556.8</ele>
        <time>2025-12-29T12:20:49Z</time>
      </trkpt>
      <trkpt lat="43.13372" lon="0.52517">
        <ele>556.8</ele>
        <time>2025-12-29T12:20:50Z</time>
      </trkpt>
      <trkpt lat="43.1337" lon="0.52514">
        <ele>557.4</ele>
        <time>2025-12-29T12:20:51Z</time>
      </trkpt>
      <trkpt lat="43.13369" lon="0.5251">
        <ele>557.4</ele>
        <time>2025-12-29T12:20:52Z</time>
      </trkpt>
      <trkpt lat="43.13368" lon="0.52507">
        <ele>557.4</ele>
        <time>2025-12-29T12:20:53Z</time>
      </trkpt>
      <trkpt lat="43.13367" lon="0.52503">
        <ele>557.8</ele>
        <time>2025-12-29T12:20:54Z</time>
      </trkpt>
      <trkpt lat="43.13366" lon="0.52499">
        <ele>557.6</ele>
        <time>2025-12-29T12:20:55Z</time>
      </trkpt>
      <trkpt lat="43.13365" lon="0.52495">
        <ele>557.6</ele>
        <time>2025-12-29T12:20:56Z</time>
      </trkpt>
      <trkpt lat="43.13363" lon="0.52492">
        <ele>557.6</ele>
        <time>2025-12-29T12:20:57Z</time>
      </trkpt>
      <trkpt lat="43.13362" lon="0.52488">
        <ele>557.6</ele>
        <time>2025-12-29T12:20:58Z</time>
      </trkpt>
      <trkpt lat="43.1336" lon="0.52484">
        <ele>557.8</ele>
        <time>2025-12-29T12:20:59Z</time>
      </trkpt>
      <trkpt lat="43.13359" lon="0.5248">
        <ele>557.8</ele>
        <time>2025-12-29T12:21:00Z</time>
      </trkpt>
      <trkpt lat="43.13358" lon="0.52476">
        <ele>557.8</ele>
        <time>2025-12-29T12:21:01Z</time>
      </trkpt>
      <trkpt lat="43.13357" lon="0.52472">
        <ele>557.8</ele>
        <time>2025-12-29T12:21:02Z</time>
      </trkpt>
      <trkpt lat="43.13355" lon="0.52469">
        <ele>558.2</ele>
        <time>2025-12-29T12:21:03Z</time>
      </trkpt>
      <trkpt lat="43.13354" lon="0.52465">
        <ele>558.2</ele>
        <time>2025-12-29T12:21:04Z</time>
      </trkpt>
      <trkpt lat="43.13353" lon="0.52461">
        <ele>558.2</ele>
        <time>2025-12-29T12:21:05Z</time>
      </trkpt>
      <trkpt lat="43.13351" lon="0.52457">
        <ele>557.6</ele>
        <time>2025-12-29T12:21:06Z</time>
      </trkpt>
      <trkpt lat="43.1335" lon="0.52453">
        <ele>558</ele>
        <time>2025-12-29T12:21:07Z</time>
      </trkpt>
      <trkpt lat="43.13349" lon="0.52449">
        <ele>558</ele>
        <time>2025-12-29T12:21:08Z</time>
      </trkpt>
      <trkpt lat="43.13347" lon="0.52445">
        <ele>558</ele>
        <time>2025-12-29T12:21:09Z</time>
      </trkpt>
      <trkpt lat="43.13346" lon="0.52441">
        <ele>558</ele>
        <time>2025-12-29T12:21:10Z</time>
      </trkpt>
      <trkpt lat="43.13344" lon="0.52436">
        <ele>557.8</ele>
        <time>2025-12-29T12:21:11Z</time>
      </trkpt>
      <trkpt lat="43.13343" lon="0.52433">
        <ele>557.8</ele>
        <time>2025-12-29T12:21:12Z</time>
      </trkpt>
      <trkpt lat="43.13342" lon="0.52429">
        <ele>557.8</ele>
        <time>2025-12-29T12:21:13Z</time>
      </trkpt>
      <trkpt lat="43.1334" lon="0.52425">
        <ele>558.4</ele>
        <time>2025-12-29T12:21:14Z</time>
      </trkpt>
      <trkpt lat="43.13339" lon="0.52421">
        <ele>558.4</ele>
        <time>2025-12-29T12:21:15Z</time>
      </trkpt>
      <trkpt lat="43.13338" lon="0.52417">
        <ele>558.4</ele>
        <time>2025-12-29T12:21:16Z</time>
      </trkpt>
      <trkpt lat="43.13336" lon="0.52413">
        <ele>558.4</ele>
        <time>2025-12-29T12:21:17Z</time>
      </trkpt>
      <trkpt lat="43.13335" lon="0.52409">
        <ele>558.4</ele>
        <time>2025-12-29T12:21:18Z</time>
      </trkpt>
      <trkpt lat="43.13333" lon="0.52405">
        <ele>558.8</ele>
        <time>2025-12-29T12:21:19Z</time>
      </trkpt>
      <trkpt lat="43.13332" lon="0.52401">
        <ele>558.8</ele>
        <time>2025-12-29T12:21:20Z</time>
      </trkpt>
      <trkpt lat="43.13331" lon="0.52397">
        <ele>558.8</ele>
        <time>2025-12-29T12:21:21Z</time>
      </trkpt>
      <trkpt lat="43.13329" lon="0.52393">
        <ele>559</ele>
        <time>2025-12-29T12:21:22Z</time>
      </trkpt>
      <trkpt lat="43.13328" lon="0.52389">
        <ele>558.8</ele>
        <time>2025-12-29T12:21:23Z</time>
      </trkpt>
      <trkpt lat="43.13326" lon="0.52385">
        <ele>558.8</ele>
        <time>2025-12-29T12:21:24Z</time>
      </trkpt>
      <trkpt lat="43.13325" lon="0.52381">
        <ele>558.8</ele>
        <time>2025-12-29T12:21:25Z</time>
      </trkpt>
      <trkpt lat="43.13323" lon="0.52376">
        <ele>559.2</ele>
        <time>2025-12-29T12:21:26Z</time>
      </trkpt>
      <trkpt lat="43.13322" lon="0.52372">
        <ele>560</ele>
        <time>2025-12-29T12:21:27Z</time>
      </trkpt>
      <trkpt lat="43.1332" lon="0.52368">
        <ele>560</ele>
        <time>2025-12-29T12:21:28Z</time>
      </trkpt>
      <trkpt lat="43.13319" lon="0.52364">
        <ele>560</ele>
        <time>2025-12-29T12:21:29Z</time>
      </trkpt>
      <trkpt lat="43.13317" lon="0.5236">
        <ele>560</ele>
        <time>2025-12-29T12:21:30Z</time>
      </trkpt>
      <trkpt lat="43.13316" lon="0.52355">
        <ele>559.6</ele>
        <time>2025-12-29T12:21:31Z</time>
      </trkpt>
      <trkpt lat="43.13315" lon="0.52351">
        <ele>559.6</ele>
        <time>2025-12-29T12:21:32Z</time>
      </trkpt>
      <trkpt lat="43.13313" lon="0.52347">
        <ele>559.6</ele>
        <time>2025-12-29T12:21:33Z</time>
      </trkpt>
      <trkpt lat="43.13312" lon="0.52342">
        <ele>559.6</ele>
        <time>2025-12-29T12:21:34Z</time>
      </trkpt>
      <trkpt lat="43.13311" lon="0.52338">
        <ele>559.8</ele>
        <time>2025-12-29T12:21:35Z</time>
      </trkpt>
      <trkpt lat="43.1331" lon="0.52334">
        <ele>559.8</ele>
        <time>2025-12-29T12:21:36Z</time>
      </trkpt>
      <trkpt lat="43.13309" lon="0.52331">
        <ele>559.8</ele>
        <time>2025-12-29T12:21:37Z</time>
      </trkpt>
      <trkpt lat="43.13308" lon="0.52327">
        <ele>559.8</ele>
        <time>2025-12-29T12:21:38Z</time>
      </trkpt>
      <trkpt lat="43.13308" lon="0.52324">
        <ele>560.4</ele>
        <time>2025-12-29T12:21:39Z</time>
      </trkpt>
      <trkpt lat="43.13308" lon="0.52321">
        <ele>560.4</ele>
        <time>2025-12-29T12:21:40Z</time>
      </trkpt>
      <trkpt lat="43.13308" lon="0.52318">
        <ele>560.4</ele>
        <time>2025-12-29T12:21:41Z</time>
      </trkpt>
      <trkpt lat="43.13307" lon="0.52315">
        <ele>559.8</ele>
        <time>2025-12-29T12:21:42Z</time>
      </trkpt>
      <trkpt lat="43.13307" lon="0.5231">
        <ele>560.4</ele>
        <time>2025-12-29T12:21:43Z</time>
      </trkpt>
      <trkpt lat="43.13306" lon="0.52306">
        <ele>560.4</ele>
        <time>2025-12-29T12:21:44Z</time>
      </trkpt>
      <trkpt lat="43.13305" lon="0.52302">
        <ele>560.4</ele>
        <time>2025-12-29T12:21:45Z</time>
      </trkpt>
      <trkpt lat="43.13305" lon="0.52297">
        <ele>560</ele>
        <time>2025-12-29T12:21:46Z</time>
      </trkpt>
      <trkpt lat="43.13304" lon="0.52292">
        <ele>560</ele>
        <time>2025-12-29T12:21:47Z</time>
      </trkpt>
      <trkpt lat="43.13304" lon="0.52287">
        <ele>560</ele>
        <time>2025-12-29T12:21:48Z</time>
      </trkpt>
      <trkpt lat="43.13303" lon="0.52283">
        <ele>560</ele>
        <time>2025-12-29T12:21:49Z</time>
      </trkpt>
      <trkpt lat="43.13303" lon="0.52278">
        <ele>560</ele>
        <time>2025-12-29T12:21:50Z</time>
      </trkpt>
      <trkpt lat="43.13302" lon="0.52273">
        <ele>560</ele>
        <time>2025-12-29T12:21:51Z</time>
      </trkpt>
      <trkpt lat="43.13301" lon="0.52269">
        <ele>560</ele>
        <time>2025-12-29T12:21:52Z</time>
      </trkpt>
      <trkpt lat="43.133" lon="0.52264">
        <ele>560</ele>
        <time>2025-12-29T12:21:53Z</time>
      </trkpt>
      <trkpt lat="43.133" lon="0.52259">
        <ele>560.6</ele>
        <time>2025-12-29T12:21:54Z</time>
      </trkpt>
      <trkpt lat="43.13299" lon="0.52254">
        <ele>560.8</ele>
        <time>2025-12-29T12:21:55Z</time>
      </trkpt>
      <trkpt lat="43.13298" lon="0.52249">
        <ele>560.8</ele>
        <time>2025-12-29T12:21:56Z</time>
      </trkpt>
      <trkpt lat="43.13298" lon="0.52245">
        <ele>560.8</ele>
        <time>2025-12-29T12:21:57Z</time>
      </trkpt>
      <trkpt lat="43.13297" lon="0.5224">
        <ele>560.2</ele>
        <time>2025-12-29T12:21:58Z</time>
      </trkpt>
      <trkpt lat="43.13297" lon="0.52235">
        <ele>560.2</ele>
        <time>2025-12-29T12:21:59Z</time>
      </trkpt>
      <trkpt lat="43.13296" lon="0.52231">
        <ele>560.2</ele>
        <time>2025-12-29T12:22:00Z</time>
      </trkpt>
      <trkpt lat="43.13296" lon="0.52226">
        <ele>560.2</ele>
        <time>2025-12-29T12:22:01Z</time>
      </trkpt>
      <trkpt lat="43.13295" lon="0.52222">
        <ele>560.2</ele>
        <time>2025-12-29T12:22:02Z</time>
      </trkpt>
      <trkpt lat="43.13295" lon="0.52217">
        <ele>560.4</ele>
        <time>2025-12-29T12:22:03Z</time>
      </trkpt>
      <trkpt lat="43.13294" lon="0.52212">
        <ele>560.4</ele>
        <time>2025-12-29T12:22:04Z</time>
      </trkpt>
      <trkpt lat="43.13294" lon="0.52207">
        <ele>560.4</ele>
        <time>2025-12-29T12:22:05Z</time>
      </trkpt>
      <trkpt lat="43.13293" lon="0.52203">
        <ele>560.8</ele>
        <time>2025-12-29T12:22:06Z</time>
      </trkpt>
      <trkpt lat="43.13292" lon="0.52198">
        <ele>560.4</ele>
        <time>2025-12-29T12:22:07Z</time>
      </trkpt>
      <trkpt lat="43.13292" lon="0.52193">
        <ele>560.4</ele>
        <time>2025-12-29T12:22:08Z</time>
      </trkpt>
      <trkpt lat="43.13291" lon="0.52188">
        <ele>560.4</ele>
        <time>2025-12-29T12:22:09Z</time>
      </trkpt>
      <trkpt lat="43.13291" lon="0.52184">
        <ele>560.8</ele>
        <time>2025-12-29T12:22:10Z</time>
      </trkpt>
      <trkpt lat="43.1329" lon="0.52179">
        <ele>560.6</ele>
        <time>2025-12-29T12:22:11Z</time>
      </trkpt>
      <trkpt lat="43.13289" lon="0.52174">
        <ele>560.6</ele>
        <time>2025-12-29T12:22:12Z</time>
      </trkpt>
      <trkpt lat="43.13289" lon="0.5217">
        <ele>560.6</ele>
        <time>2025-12-29T12:22:13Z</time>
      </trkpt>
      <trkpt lat="43.13288" lon="0.52165">
        <ele>560.6</ele>
        <time>2025-12-29T12:22:14Z</time>
      </trkpt>
      <trkpt lat="43.13288" lon="0.52161">
        <ele>560.6</ele>
        <time>2025-12-29T12:22:15Z</time>
      </trkpt>
      <trkpt lat="43.13288" lon="0.52156">
        <ele>560.6</ele>
        <time>2025-12-29T12:22:16Z</time>
      </trkpt>
      <trkpt lat="43.13287" lon="0.52152">
        <ele>560.6</ele>
        <time>2025-12-29T12:22:17Z</time>
      </trkpt>
      <trkpt lat="43.13287" lon="0.52147">
        <ele>561.4</ele>
        <time>2025-12-29T12:22:18Z</time>
      </trkpt>
      <trkpt lat="43.13286" lon="0.52142">
        <ele>561</ele>
        <time>2025-12-29T12:22:19Z</time>
      </trkpt>
      <trkpt lat="43.13285" lon="0.52137">
        <ele>561</ele>
        <time>2025-12-29T12:22:20Z</time>
      </trkpt>
      <trkpt lat="43.13284" lon="0.52132">
        <ele>561</ele>
        <time>2025-12-29T12:22:21Z</time>
      </trkpt>
      <trkpt lat="43.13283" lon="0.52128">
        <ele>561</ele>
        <time>2025-12-29T12:22:22Z</time>
      </trkpt>
      <trkpt lat="43.13283" lon="0.52123">
        <ele>561.6</ele>
        <time>2025-12-29T12:22:23Z</time>
      </trkpt>
      <trkpt lat="43.13282" lon="0.52118">
        <ele>561.6</ele>
        <time>2025-12-29T12:22:24Z</time>
      </trkpt>
      <trkpt lat="43.13282" lon="0.52113">
        <ele>561.6</ele>
        <time>2025-12-29T12:22:25Z</time>
      </trkpt>
      <trkpt lat="43.13281" lon="0.52108">
        <ele>561.6</ele>
        <time>2025-12-29T12:22:26Z</time>
      </trkpt>
      <trkpt lat="43.1328" lon="0.52104">
        <ele>562.2</ele>
        <time>2025-12-29T12:22:27Z</time>
      </trkpt>
      <trkpt lat="43.13279" lon="0.52099">
        <ele>562.2</ele>
        <time>2025-12-29T12:22:28Z</time>
      </trkpt>
      <trkpt lat="43.13279" lon="0.52094">
        <ele>562.2</ele>
        <time>2025-12-29T12:22:29Z</time>
      </trkpt>
      <trkpt lat="43.13279" lon="0.52089">
        <ele>561.8</ele>
        <time>2025-12-29T12:22:30Z</time>
      </trkpt>
      <trkpt lat="43.13279" lon="0.52085">
        <ele>562</ele>
        <time>2025-12-29T12:22:31Z</time>
      </trkpt>
      <trkpt lat="43.13279" lon="0.5208">
        <ele>562</ele>
        <time>2025-12-29T12:22:32Z</time>
      </trkpt>
      <trkpt lat="43.13278" lon="0.52075">
        <ele>562</ele>
        <time>2025-12-29T12:22:33Z</time>
      </trkpt>
      <trkpt lat="43.13278" lon="0.52071">
        <ele>562</ele>
        <time>2025-12-29T12:22:34Z</time>
      </trkpt>
      <trkpt lat="43.13278" lon="0.52066">
        <ele>562.2</ele>
        <time>2025-12-29T12:22:35Z</time>
      </trkpt>
      <trkpt lat="43.13277" lon="0.52062">
        <ele>562.2</ele>
        <time>2025-12-29T12:22:36Z</time>
      </trkpt>
      <trkpt lat="43.13277" lon="0.52058">
        <ele>562.2</ele>
        <time>2025-12-29T12:22:37Z</time>
      </trkpt>
      <trkpt lat="43.13276" lon="0.52053">
        <ele>562.2</ele>
        <time>2025-12-29T12:22:38Z</time>
      </trkpt>
      <trkpt lat="43.13276" lon="0.52049">
        <ele>562.4</ele>
        <time>2025-12-29T12:22:39Z</time>
      </trkpt>
      <trkpt lat="43.13276" lon="0.52045">
        <ele>562.4</ele>
        <time>2025-12-29T12:22:40Z</time>
      </trkpt>
      <trkpt lat="43.13275" lon="0.5204">
        <ele>562.4</ele>
        <time>2025-12-29T12:22:41Z</time>
      </trkpt>
      <trkpt lat="43.13275" lon="0.52036">
        <ele>562.4</ele>
        <time>2025-12-29T12:22:42Z</time>
      </trkpt>
      <trkpt lat="43.13275" lon="0.52031">
        <ele>562.4</ele>
        <time>2025-12-29T12:22:43Z</time>
      </trkpt>
      <trkpt lat="43.13275" lon="0.52027">
        <ele>562.4</ele>
        <time>2025-12-29T12:22:44Z</time>
      </trkpt>
      <trkpt lat="43.13274" lon="0.52022">
        <ele>562.4</ele>
        <time>2025-12-29T12:22:45Z</time>
      </trkpt>
      <trkpt lat="43.13273" lon="0.52017">
        <ele>562.4</ele>
        <time>2025-12-29T12:22:46Z</time>
      </trkpt>
      <trkpt lat="43.13273" lon="0.52012">
        <ele>562</ele>
        <time>2025-12-29T12:22:47Z</time>
      </trkpt>
      <trkpt lat="43.13273" lon="0.52007">
        <ele>562</ele>
        <time>2025-12-29T12:22:48Z</time>
      </trkpt>
      <trkpt lat="43.13272" lon="0.52002">
        <ele>562</ele>
        <time>2025-12-29T12:22:49Z</time>
      </trkpt>
      <trkpt lat="43.13272" lon="0.51997">
        <ele>562.8</ele>
        <time>2025-12-29T12:22:50Z</time>
      </trkpt>
      <trkpt lat="43.13271" lon="0.51993">
        <ele>563</ele>
        <time>2025-12-29T12:22:51Z</time>
      </trkpt>
      <trkpt lat="43.13271" lon="0.51988">
        <ele>563</ele>
        <time>2025-12-29T12:22:52Z</time>
      </trkpt>
      <trkpt lat="43.13271" lon="0.51983">
        <ele>563</ele>
        <time>2025-12-29T12:22:53Z</time>
      </trkpt>
      <trkpt lat="43.1327" lon="0.51979">
        <ele>563</ele>
        <time>2025-12-29T12:22:54Z</time>
      </trkpt>
      <trkpt lat="43.1327" lon="0.51974">
        <ele>562.8</ele>
        <time>2025-12-29T12:22:55Z</time>
      </trkpt>
      <trkpt lat="43.13269" lon="0.51969">
        <ele>562.8</ele>
        <time>2025-12-29T12:22:56Z</time>
      </trkpt>
      <trkpt lat="43.13269" lon="0.51964">
        <ele>562.8</ele>
        <time>2025-12-29T12:22:57Z</time>
      </trkpt>
      <trkpt lat="43.13268" lon="0.51959">
        <ele>563.4</ele>
        <time>2025-12-29T12:22:58Z</time>
      </trkpt>
      <trkpt lat="43.13268" lon="0.51955">
        <ele>564</ele>
        <time>2025-12-29T12:22:59Z</time>
      </trkpt>
      <trkpt lat="43.13267" lon="0.5195">
        <ele>564</ele>
        <time>2025-12-29T12:23:00Z</time>
      </trkpt>
      <trkpt lat="43.13267" lon="0.51945">
        <ele>564</ele>
        <time>2025-12-29T12:23:01Z</time>
      </trkpt>
      <trkpt lat="43.13266" lon="0.5194">
        <ele>563.2</ele>
        <time>2025-12-29T12:23:02Z</time>
      </trkpt>
      <trkpt lat="43.13266" lon="0.51936">
        <ele>563.6</ele>
        <time>2025-12-29T12:23:03Z</time>
      </trkpt>
      <trkpt lat="43.13266" lon="0.51931">
        <ele>563.6</ele>
        <time>2025-12-29T12:23:04Z</time>
      </trkpt>
      <trkpt lat="43.13265" lon="0.51926">
        <ele>563.6</ele>
        <time>2025-12-29T12:23:05Z</time>
      </trkpt>
      <trkpt lat="43.13265" lon="0.51921">
        <ele>563.2</ele>
        <time>2025-12-29T12:23:06Z</time>
      </trkpt>
      <trkpt lat="43.13264" lon="0.51916">
        <ele>562.8</ele>
        <time>2025-12-29T12:23:07Z</time>
      </trkpt>
      <trkpt lat="43.13264" lon="0.51912">
        <ele>562.8</ele>
        <time>2025-12-29T12:23:08Z</time>
      </trkpt>
      <trkpt lat="43.13263" lon="0.51907">
        <ele>562.8</ele>
        <time>2025-12-29T12:23:09Z</time>
      </trkpt>
      <trkpt lat="43.13263" lon="0.51903">
        <ele>562.8</ele>
        <time>2025-12-29T12:23:10Z</time>
      </trkpt>
      <trkpt lat="43.13262" lon="0.51898">
        <ele>563</ele>
        <time>2025-12-29T12:23:11Z</time>
      </trkpt>
      <trkpt lat="43.13262" lon="0.51893">
        <ele>563</ele>
        <time>2025-12-29T12:23:12Z</time>
      </trkpt>
      <trkpt lat="43.13262" lon="0.51889">
        <ele>563</ele>
        <time>2025-12-29T12:23:13Z</time>
      </trkpt>
      <trkpt lat="43.13262" lon="0.51884">
        <ele>563.2</ele>
        <time>2025-12-29T12:23:14Z</time>
      </trkpt>
      <trkpt lat="43.13262" lon="0.51879">
        <ele>563.6</ele>
        <time>2025-12-29T12:23:15Z</time>
      </trkpt>
      <trkpt lat="43.13261" lon="0.51875">
        <ele>563.6</ele>
        <time>2025-12-29T12:23:16Z</time>
      </trkpt>
      <trkpt lat="43.13261" lon="0.5187">
        <ele>563.6</ele>
        <time>2025-12-29T12:23:17Z</time>
      </trkpt>
      <trkpt lat="43.1326" lon="0.51865">
        <ele>563.6</ele>
        <time>2025-12-29T12:23:18Z</time>
      </trkpt>
      <trkpt lat="43.13259" lon="0.51859">
        <ele>563.6</ele>
        <time>2025-12-29T12:23:19Z</time>
      </trkpt>
      <trkpt lat="43.13259" lon="0.51855">
        <ele>563.6</ele>
        <time>2025-12-29T12:23:20Z</time>
      </trkpt>
      <trkpt lat="43.13259" lon="0.51849">
        <ele>563.6</ele>
        <time>2025-12-29T12:23:21Z</time>
      </trkpt>
      <trkpt lat="43.13258" lon="0.51845">
        <ele>563.6</ele>
        <time>2025-12-29T12:23:22Z</time>
      </trkpt>
      <trkpt lat="43.13258" lon="0.5184">
        <ele>563.6</ele>
        <time>2025-12-29T12:23:23Z</time>
      </trkpt>
      <trkpt lat="43.13258" lon="0.51835">
        <ele>563.6</ele>
        <time>2025-12-29T12:23:24Z</time>
      </trkpt>
      <trkpt lat="43.13257" lon="0.5183">
        <ele>563.6</ele>
        <time>2025-12-29T12:23:25Z</time>
      </trkpt>
      <trkpt lat="43.13257" lon="0.51825">
        <ele>564.2</ele>
        <time>2025-12-29T12:23:26Z</time>
      </trkpt>
      <trkpt lat="43.13256" lon="0.51819">
        <ele>565</ele>
        <time>2025-12-29T12:23:27Z</time>
      </trkpt>
      <trkpt lat="43.13256" lon="0.51814">
        <ele>565</ele>
        <time>2025-12-29T12:23:28Z</time>
      </trkpt>
      <trkpt lat="43.13255" lon="0.51809">
        <ele>565</ele>
        <time>2025-12-29T12:23:29Z</time>
      </trkpt>
      <trkpt lat="43.13255" lon="0.51804">
        <ele>564.4</ele>
        <time>2025-12-29T12:23:30Z</time>
      </trkpt>
      <trkpt lat="43.13254" lon="0.51799">
        <ele>564.4</ele>
        <time>2025-12-29T12:23:31Z</time>
      </trkpt>
      <trkpt lat="43.13254" lon="0.51794">
        <ele>564.4</ele>
        <time>2025-12-29T12:23:32Z</time>
      </trkpt>
      <trkpt lat="43.13253" lon="0.51789">
        <ele>564.4</ele>
        <time>2025-12-29T12:23:33Z</time>
      </trkpt>
      <trkpt lat="43.13253" lon="0.51784">
        <ele>565</ele>
        <time>2025-12-29T12:23:34Z</time>
      </trkpt>
      <trkpt lat="43.13253" lon="0.51779">
        <ele>564.6</ele>
        <time>2025-12-29T12:23:35Z</time>
      </trkpt>
      <trkpt lat="43.13253" lon="0.51774">
        <ele>564.6</ele>
        <time>2025-12-29T12:23:36Z</time>
      </trkpt>
      <trkpt lat="43.13253" lon="0.51769">
        <ele>564.6</ele>
        <time>2025-12-29T12:23:37Z</time>
      </trkpt>
      <trkpt lat="43.13252" lon="0.51764">
        <ele>564.6</ele>
        <time>2025-12-29T12:23:38Z</time>
      </trkpt>
      <trkpt lat="43.13252" lon="0.51759">
        <ele>564.8</ele>
        <time>2025-12-29T12:23:39Z</time>
      </trkpt>
      <trkpt lat="43.13251" lon="0.51754">
        <ele>564.8</ele>
        <time>2025-12-29T12:23:40Z</time>
      </trkpt>
      <trkpt lat="43.13251" lon="0.51749">
        <ele>564.8</ele>
        <time>2025-12-29T12:23:41Z</time>
      </trkpt>
      <trkpt lat="43.1325" lon="0.51743">
        <ele>564.8</ele>
        <time>2025-12-29T12:23:42Z</time>
      </trkpt>
      <trkpt lat="43.13249" lon="0.51738">
        <ele>564.6</ele>
        <time>2025-12-29T12:23:43Z</time>
      </trkpt>
      <trkpt lat="43.13248" lon="0.51732">
        <ele>564.6</ele>
        <time>2025-12-29T12:23:44Z</time>
      </trkpt>
      <trkpt lat="43.13248" lon="0.51726">
        <ele>564.6</ele>
        <time>2025-12-29T12:23:45Z</time>
      </trkpt>
      <trkpt lat="43.13247" lon="0.5172">
        <ele>564.6</ele>
        <time>2025-12-29T12:23:46Z</time>
      </trkpt>
      <trkpt lat="43.13247" lon="0.51714">
        <ele>564.6</ele>
        <time>2025-12-29T12:23:47Z</time>
      </trkpt>
      <trkpt lat="43.13246" lon="0.51709">
        <ele>564.6</ele>
        <time>2025-12-29T12:23:48Z</time>
      </trkpt>
      <trkpt lat="43.13246" lon="0.51703">
        <ele>564.6</ele>
        <time>2025-12-29T12:23:49Z</time>
      </trkpt>
      <trkpt lat="43.13246" lon="0.51697">
        <ele>564.6</ele>
        <time>2025-12-29T12:23:50Z</time>
      </trkpt>
      <trkpt lat="43.13245" lon="0.51691">
        <ele>564.8</ele>
        <time>2025-12-29T12:23:51Z</time>
      </trkpt>
      <trkpt lat="43.13245" lon="0.51685">
        <ele>564.8</ele>
        <time>2025-12-29T12:23:52Z</time>
      </trkpt>
      <trkpt lat="43.13245" lon="0.51679">
        <ele>564.8</ele>
        <time>2025-12-29T12:23:53Z</time>
      </trkpt>
      <trkpt lat="43.13244" lon="0.51673">
        <ele>564.6</ele>
        <time>2025-12-29T12:23:54Z</time>
      </trkpt>
      <trkpt lat="43.13244" lon="0.51667">
        <ele>564.8</ele>
        <time>2025-12-29T12:23:55Z</time>
      </trkpt>
      <trkpt lat="43.13244" lon="0.51661">
        <ele>564.8</ele>
        <time>2025-12-29T12:23:56Z</time>
      </trkpt>
      <trkpt lat="43.13243" lon="0.51654">
        <ele>564.8</ele>
        <time>2025-12-29T12:23:57Z</time>
      </trkpt>
      <trkpt lat="43.13242" lon="0.51648">
        <ele>564</ele>
        <time>2025-12-29T12:23:58Z</time>
      </trkpt>
      <trkpt lat="43.13242" lon="0.51641">
        <ele>564.4</ele>
        <time>2025-12-29T12:23:59Z</time>
      </trkpt>
      <trkpt lat="43.13241" lon="0.51635">
        <ele>564.4</ele>
        <time>2025-12-29T12:24:00Z</time>
      </trkpt>
      <trkpt lat="43.1324" lon="0.51629">
        <ele>564.4</ele>
        <time>2025-12-29T12:24:01Z</time>
      </trkpt>
      <trkpt lat="43.13239" lon="0.51622">
        <ele>564.4</ele>
        <time>2025-12-29T12:24:02Z</time>
      </trkpt>
      <trkpt lat="43.13239" lon="0.51616">
        <ele>563.8</ele>
        <time>2025-12-29T12:24:03Z</time>
      </trkpt>
      <trkpt lat="43.13238" lon="0.5161">
        <ele>563.8</ele>
        <time>2025-12-29T12:24:04Z</time>
      </trkpt>
      <trkpt lat="43.13237" lon="0.51603">
        <ele>563.8</ele>
        <time>2025-12-29T12:24:05Z</time>
      </trkpt>
      <trkpt lat="43.13236" lon="0.51597">
        <ele>563.8</ele>
        <time>2025-12-29T12:24:06Z</time>
      </trkpt>
      <trkpt lat="43.13236" lon="0.51591">
        <ele>564.6</ele>
        <time>2025-12-29T12:24:07Z</time>
      </trkpt>
      <trkpt lat="43.13235" lon="0.51584">
        <ele>564.6</ele>
        <time>2025-12-29T12:24:08Z</time>
      </trkpt>
      <trkpt lat="43.13234" lon="0.51578">
        <ele>564.6</ele>
        <time>2025-12-29T12:24:09Z</time>
      </trkpt>
      <trkpt lat="43.13234" lon="0.51571">
        <ele>564.4</ele>
        <time>2025-12-29T12:24:10Z</time>
      </trkpt>
      <trkpt lat="43.13233" lon="0.51565">
        <ele>564.4</ele>
        <time>2025-12-29T12:24:11Z</time>
      </trkpt>
      <trkpt lat="43.13233" lon="0.51559">
        <ele>564.4</ele>
        <time>2025-12-29T12:24:12Z</time>
      </trkpt>
      <trkpt lat="43.13232" lon="0.51552">
        <ele>564.4</ele>
        <time>2025-12-29T12:24:13Z</time>
      </trkpt>
      <trkpt lat="43.13231" lon="0.51546">
        <ele>564.4</ele>
        <time>2025-12-29T12:24:14Z</time>
      </trkpt>
      <trkpt lat="43.13231" lon="0.51539">
        <ele>563.8</ele>
        <time>2025-12-29T12:24:15Z</time>
      </trkpt>
      <trkpt lat="43.1323" lon="0.51533">
        <ele>563.8</ele>
        <time>2025-12-29T12:24:16Z</time>
      </trkpt>
      <trkpt lat="43.13229" lon="0.51526">
        <ele>563.8</ele>
        <time>2025-12-29T12:24:17Z</time>
      </trkpt>
      <trkpt lat="43.13228" lon="0.5152">
        <ele>564.8</ele>
        <time>2025-12-29T12:24:18Z</time>
      </trkpt>
      <trkpt lat="43.13228" lon="0.51514">
        <ele>565.6</ele>
        <time>2025-12-29T12:24:19Z</time>
      </trkpt>
      <trkpt lat="43.13227" lon="0.51508">
        <ele>565.6</ele>
        <time>2025-12-29T12:24:20Z</time>
      </trkpt>
      <trkpt lat="43.13227" lon="0.51501">
        <ele>565.6</ele>
        <time>2025-12-29T12:24:21Z</time>
      </trkpt>
      <trkpt lat="43.13226" lon="0.51495">
        <ele>565.6</ele>
        <time>2025-12-29T12:24:22Z</time>
      </trkpt>
      <trkpt lat="43.13226" lon="0.51489">
        <ele>564.8</ele>
        <time>2025-12-29T12:24:23Z</time>
      </trkpt>
      <trkpt lat="43.13225" lon="0.51482">
        <ele>564.8</ele>
        <time>2025-12-29T12:24:24Z</time>
      </trkpt>
      <trkpt lat="43.13225" lon="0.51476">
        <ele>564.8</ele>
        <time>2025-12-29T12:24:25Z</time>
      </trkpt>
      <trkpt lat="43.13224" lon="0.5147">
        <ele>565.2</ele>
        <time>2025-12-29T12:24:26Z</time>
      </trkpt>
      <trkpt lat="43.13223" lon="0.51464">
        <ele>565.2</ele>
        <time>2025-12-29T12:24:27Z</time>
      </trkpt>
      <trkpt lat="43.13223" lon="0.51458">
        <ele>565.2</ele>
        <time>2025-12-29T12:24:28Z</time>
      </trkpt>
      <trkpt lat="43.13222" lon="0.51453">
        <ele>565.2</ele>
        <time>2025-12-29T12:24:29Z</time>
      </trkpt>
      <trkpt lat="43.13222" lon="0.51447">
        <ele>566.2</ele>
        <time>2025-12-29T12:24:30Z</time>
      </trkpt>
      <trkpt lat="43.13222" lon="0.51442">
        <ele>565.6</ele>
        <time>2025-12-29T12:24:31Z</time>
      </trkpt>
      <trkpt lat="43.13221" lon="0.51436">
        <ele>565.6</ele>
        <time>2025-12-29T12:24:32Z</time>
      </trkpt>
      <trkpt lat="43.13221" lon="0.51431">
        <ele>565.6</ele>
        <time>2025-12-29T12:24:33Z</time>
      </trkpt>
      <trkpt lat="43.1322" lon="0.51425">
        <ele>565.6</ele>
        <time>2025-12-29T12:24:34Z</time>
      </trkpt>
      <trkpt lat="43.1322" lon="0.51419">
        <ele>565.6</ele>
        <time>2025-12-29T12:24:35Z</time>
      </trkpt>
      <trkpt lat="43.13219" lon="0.51414">
        <ele>565.6</ele>
        <time>2025-12-29T12:24:36Z</time>
      </trkpt>
      <trkpt lat="43.13219" lon="0.51408">
        <ele>565.6</ele>
        <time>2025-12-29T12:24:37Z</time>
      </trkpt>
      <trkpt lat="43.13219" lon="0.51402">
        <ele>565.6</ele>
        <time>2025-12-29T12:24:38Z</time>
      </trkpt>
      <trkpt lat="43.13218" lon="0.51396">
        <ele>566</ele>
        <time>2025-12-29T12:24:39Z</time>
      </trkpt>
      <trkpt lat="43.13218" lon="0.5139">
        <ele>566</ele>
        <time>2025-12-29T12:24:40Z</time>
      </trkpt>
      <trkpt lat="43.13218" lon="0.51384">
        <ele>566</ele>
        <time>2025-12-29T12:24:41Z</time>
      </trkpt>
      <trkpt lat="43.13217" lon="0.51378">
        <ele>566</ele>
        <time>2025-12-29T12:24:42Z</time>
      </trkpt>
      <trkpt lat="43.13217" lon="0.51372">
        <ele>566.8</ele>
        <time>2025-12-29T12:24:43Z</time>
      </trkpt>
      <trkpt lat="43.13216" lon="0.51367">
        <ele>566.8</ele>
        <time>2025-12-29T12:24:44Z</time>
      </trkpt>
      <trkpt lat="43.13215" lon="0.51361">
        <ele>566.8</ele>
        <time>2025-12-29T12:24:45Z</time>
      </trkpt>
      <trkpt lat="43.13215" lon="0.51355">
        <ele>566.4</ele>
        <time>2025-12-29T12:24:46Z</time>
      </trkpt>
      <trkpt lat="43.13214" lon="0.51349">
        <ele>566.6</ele>
        <time>2025-12-29T12:24:47Z</time>
      </trkpt>
      <trkpt lat="43.13214" lon="0.51343">
        <ele>566.6</ele>
        <time>2025-12-29T12:24:48Z</time>
      </trkpt>
      <trkpt lat="43.13213" lon="0.51337">
        <ele>566.6</ele>
        <time>2025-12-29T12:24:49Z</time>
      </trkpt>
      <trkpt lat="43.13213" lon="0.51331">
        <ele>566.6</ele>
        <time>2025-12-29T12:24:50Z</time>
      </trkpt>
      <trkpt lat="43.13212" lon="0.51325">
        <ele>566.2</ele>
        <time>2025-12-29T12:24:51Z</time>
      </trkpt>
      <trkpt lat="43.13212" lon="0.51319">
        <ele>566.2</ele>
        <time>2025-12-29T12:24:52Z</time>
      </trkpt>
      <trkpt lat="43.13211" lon="0.51313">
        <ele>566.2</ele>
        <time>2025-12-29T12:24:53Z</time>
      </trkpt>
      <trkpt lat="43.1321" lon="0.51307">
        <ele>566.6</ele>
        <time>2025-12-29T12:24:54Z</time>
      </trkpt>
      <trkpt lat="43.1321" lon="0.51301">
        <ele>566.8</ele>
        <time>2025-12-29T12:24:55Z</time>
      </trkpt>
      <trkpt lat="43.13209" lon="0.51295">
        <ele>566.8</ele>
        <time>2025-12-29T12:24:56Z</time>
      </trkpt>
      <trkpt lat="43.13209" lon="0.51289">
        <ele>566.8</ele>
        <time>2025-12-29T12:24:57Z</time>
      </trkpt>
      <trkpt lat="43.13208" lon="0.51283">
        <ele>566.2</ele>
        <time>2025-12-29T12:24:58Z</time>
      </trkpt>
      <trkpt lat="43.13208" lon="0.51277">
        <ele>566.2</ele>
        <time>2025-12-29T12:24:59Z</time>
      </trkpt>
      <trkpt lat="43.13207" lon="0.51271">
        <ele>566.2</ele>
        <time>2025-12-29T12:25:00Z</time>
      </trkpt>
      <trkpt lat="43.13206" lon="0.51265">
        <ele>566.2</ele>
        <time>2025-12-29T12:25:01Z</time>
      </trkpt>
      <trkpt lat="43.13206" lon="0.51259">
        <ele>566.6</ele>
        <time>2025-12-29T12:25:02Z</time>
      </trkpt>
      <trkpt lat="43.13205" lon="0.51253">
        <ele>566.2</ele>
        <time>2025-12-29T12:25:03Z</time>
      </trkpt>
      <trkpt lat="43.13205" lon="0.51247">
        <ele>566.2</ele>
        <time>2025-12-29T12:25:04Z</time>
      </trkpt>
      <trkpt lat="43.13204" lon="0.51241">
        <ele>566.2</ele>
        <time>2025-12-29T12:25:05Z</time>
      </trkpt>
      <trkpt lat="43.13204" lon="0.51235">
        <ele>566.2</ele>
        <time>2025-12-29T12:25:06Z</time>
      </trkpt>
      <trkpt lat="43.13203" lon="0.51229">
        <ele>566.4</ele>
        <time>2025-12-29T12:25:07Z</time>
      </trkpt>
      <trkpt lat="43.13203" lon="0.51224">
        <ele>566.4</ele>
        <time>2025-12-29T12:25:08Z</time>
      </trkpt>
      <trkpt lat="43.13203" lon="0.51218">
        <ele>566.4</ele>
        <time>2025-12-29T12:25:09Z</time>
      </trkpt>
      <trkpt lat="43.13203" lon="0.51212">
        <ele>566.4</ele>
        <time>2025-12-29T12:25:10Z</time>
      </trkpt>
      <trkpt lat="43.13202" lon="0.51206">
        <ele>567.2</ele>
        <time>2025-12-29T12:25:11Z</time>
      </trkpt>
      <trkpt lat="43.13202" lon="0.512">
        <ele>567.2</ele>
        <time>2025-12-29T12:25:12Z</time>
      </trkpt>
      <trkpt lat="43.13202" lon="0.51194">
        <ele>567.2</ele>
        <time>2025-12-29T12:25:13Z</time>
      </trkpt>
      <trkpt lat="43.13202" lon="0.51189">
        <ele>566.6</ele>
        <time>2025-12-29T12:25:14Z</time>
      </trkpt>
      <trkpt lat="43.13201" lon="0.51183">
        <ele>566.6</ele>
        <time>2025-12-29T12:25:15Z</time>
      </trkpt>
      <trkpt lat="43.13201" lon="0.51177">
        <ele>566.6</ele>
        <time>2025-12-29T12:25:16Z</time>
      </trkpt>
      <trkpt lat="43.13201" lon="0.51171">
        <ele>566.6</ele>
        <time>2025-12-29T12:25:17Z</time>
      </trkpt>
      <trkpt lat="43.13201" lon="0.51165">
        <ele>566.6</ele>
        <time>2025-12-29T12:25:18Z</time>
      </trkpt>
      <trkpt lat="43.13201" lon="0.51159">
        <ele>566.4</ele>
        <time>2025-12-29T12:25:19Z</time>
      </trkpt>
      <trkpt lat="43.13201" lon="0.51153">
        <ele>566.4</ele>
        <time>2025-12-29T12:25:20Z</time>
      </trkpt>
      <trkpt lat="43.132" lon="0.51147">
        <ele>566.4</ele>
        <time>2025-12-29T12:25:21Z</time>
      </trkpt>
      <trkpt lat="43.13201" lon="0.51141">
        <ele>566.6</ele>
        <time>2025-12-29T12:25:22Z</time>
      </trkpt>
      <trkpt lat="43.13201" lon="0.51135">
        <ele>567</ele>
        <time>2025-12-29T12:25:23Z</time>
      </trkpt>
      <trkpt lat="43.13201" lon="0.51129">
        <ele>567</ele>
        <time>2025-12-29T12:25:24Z</time>
      </trkpt>
      <trkpt lat="43.13201" lon="0.51123">
        <ele>567</ele>
        <time>2025-12-29T12:25:25Z</time>
      </trkpt>
      <trkpt lat="43.13201" lon="0.51118">
        <ele>567</ele>
        <time>2025-12-29T12:25:26Z</time>
      </trkpt>
      <trkpt lat="43.13201" lon="0.51112">
        <ele>567.6</ele>
        <time>2025-12-29T12:25:27Z</time>
      </trkpt>
      <trkpt lat="43.13201" lon="0.51106">
        <ele>567.6</ele>
        <time>2025-12-29T12:25:28Z</time>
      </trkpt>
      <trkpt lat="43.13201" lon="0.511">
        <ele>567.6</ele>
        <time>2025-12-29T12:25:29Z</time>
      </trkpt>
      <trkpt lat="43.13201" lon="0.51095">
        <ele>567.2</ele>
        <time>2025-12-29T12:25:30Z</time>
      </trkpt>
      <trkpt lat="43.13201" lon="0.51089">
        <ele>566.8</ele>
        <time>2025-12-29T12:25:31Z</time>
      </trkpt>
      <trkpt lat="43.13201" lon="0.51084">
        <ele>566.8</ele>
        <time>2025-12-29T12:25:32Z</time>
      </trkpt>
      <trkpt lat="43.13201" lon="0.51078">
        <ele>566.8</ele>
        <time>2025-12-29T12:25:33Z</time>
      </trkpt>
      <trkpt lat="43.13201" lon="0.51073">
        <ele>566.8</ele>
        <time>2025-12-29T12:25:34Z</time>
      </trkpt>
      <trkpt lat="43.13201" lon="0.51067">
        <ele>567</ele>
        <time>2025-12-29T12:25:35Z</time>
      </trkpt>
      <trkpt lat="43.13201" lon="0.51062">
        <ele>567</ele>
        <time>2025-12-29T12:25:36Z</time>
      </trkpt>
      <trkpt lat="43.13201" lon="0.51056">
        <ele>567</ele>
        <time>2025-12-29T12:25:37Z</time>
      </trkpt>
      <trkpt lat="43.13201" lon="0.5105">
        <ele>567</ele>
        <time>2025-12-29T12:25:38Z</time>
      </trkpt>
      <trkpt lat="43.13201" lon="0.51045">
        <ele>566.4</ele>
        <time>2025-12-29T12:25:39Z</time>
      </trkpt>
      <trkpt lat="43.13201" lon="0.51039">
        <ele>566.4</ele>
        <time>2025-12-29T12:25:40Z</time>
      </trkpt>
      <trkpt lat="43.13201" lon="0.51033">
        <ele>566.4</ele>
        <time>2025-12-29T12:25:41Z</time>
      </trkpt>
      <trkpt lat="43.13201" lon="0.51027">
        <ele>566.6</ele>
        <time>2025-12-29T12:25:42Z</time>
      </trkpt>
      <trkpt lat="43.13201" lon="0.51022">
        <ele>567</ele>
        <time>2025-12-29T12:25:43Z</time>
      </trkpt>
      <trkpt lat="43.13201" lon="0.51016">
        <ele>567</ele>
        <time>2025-12-29T12:25:44Z</time>
      </trkpt>
      <trkpt lat="43.13201" lon="0.51011">
        <ele>567</ele>
        <time>2025-12-29T12:25:45Z</time>
      </trkpt>
      <trkpt lat="43.13201" lon="0.51005">
        <ele>567.2</ele>
        <time>2025-12-29T12:25:46Z</time>
      </trkpt>
      <trkpt lat="43.13201" lon="0.51">
        <ele>567</ele>
        <time>2025-12-29T12:25:47Z</time>
      </trkpt>
      <trkpt lat="43.13201" lon="0.50994">
        <ele>567</ele>
        <time>2025-12-29T12:25:48Z</time>
      </trkpt>
      <trkpt lat="43.13201" lon="0.50989">
        <ele>567</ele>
        <time>2025-12-29T12:25:49Z</time>
      </trkpt>
      <trkpt lat="43.13201" lon="0.50983">
        <ele>567</ele>
        <time>2025-12-29T12:25:50Z</time>
      </trkpt>
      <trkpt lat="43.13201" lon="0.50977">
        <ele>567.2</ele>
        <time>2025-12-29T12:25:51Z</time>
      </trkpt>
      <trkpt lat="43.13201" lon="0.50971">
        <ele>567.2</ele>
        <time>2025-12-29T12:25:52Z</time>
      </trkpt>
      <trkpt lat="43.13201" lon="0.50965">
        <ele>567.2</ele>
        <time>2025-12-29T12:25:53Z</time>
      </trkpt>
      <trkpt lat="43.13201" lon="0.50958">
        <ele>567.2</ele>
        <time>2025-12-29T12:25:54Z</time>
      </trkpt>
      <trkpt lat="43.13201" lon="0.50952">
        <ele>568</ele>
        <time>2025-12-29T12:25:55Z</time>
      </trkpt>
      <trkpt lat="43.13201" lon="0.50946">
        <ele>568</ele>
        <time>2025-12-29T12:25:56Z</time>
      </trkpt>
      <trkpt lat="43.13201" lon="0.50939">
        <ele>568</ele>
        <time>2025-12-29T12:25:57Z</time>
      </trkpt>
      <trkpt lat="43.13201" lon="0.50933">
        <ele>568</ele>
        <time>2025-12-29T12:25:58Z</time>
      </trkpt>
      <trkpt lat="43.13201" lon="0.50926">
        <ele>567.6</ele>
        <time>2025-12-29T12:25:59Z</time>
      </trkpt>
      <trkpt lat="43.13201" lon="0.5092">
        <ele>567.6</ele>
        <time>2025-12-29T12:26:00Z</time>
      </trkpt>
      <trkpt lat="43.13201" lon="0.50913">
        <ele>567.6</ele>
        <time>2025-12-29T12:26:01Z</time>
      </trkpt>
      <trkpt lat="43.13201" lon="0.50907">
        <ele>568</ele>
        <time>2025-12-29T12:26:02Z</time>
      </trkpt>
      <trkpt lat="43.13201" lon="0.50901">
        <ele>568</ele>
        <time>2025-12-29T12:26:03Z</time>
      </trkpt>
      <trkpt lat="43.13202" lon="0.50895">
        <ele>568</ele>
        <time>2025-12-29T12:26:04Z</time>
      </trkpt>
      <trkpt lat="43.13202" lon="0.50889">
        <ele>568</ele>
        <time>2025-12-29T12:26:05Z</time>
      </trkpt>
      <trkpt lat="43.13202" lon="0.50882">
        <ele>568</ele>
        <time>2025-12-29T12:26:06Z</time>
      </trkpt>
      <trkpt lat="43.13202" lon="0.50875">
        <ele>568</ele>
        <time>2025-12-29T12:26:07Z</time>
      </trkpt>
      <trkpt lat="43.13202" lon="0.50869">
        <ele>568</ele>
        <time>2025-12-29T12:26:08Z</time>
      </trkpt>
      <trkpt lat="43.13203" lon="0.50862">
        <ele>568</ele>
        <time>2025-12-29T12:26:09Z</time>
      </trkpt>
      <trkpt lat="43.13202" lon="0.50855">
        <ele>568</ele>
        <time>2025-12-29T12:26:10Z</time>
      </trkpt>
      <trkpt lat="43.13202" lon="0.50848">
        <ele>568.2</ele>
        <time>2025-12-29T12:26:11Z</time>
      </trkpt>
      <trkpt lat="43.13202" lon="0.50841">
        <ele>568.2</ele>
        <time>2025-12-29T12:26:12Z</time>
      </trkpt>
      <trkpt lat="43.13202" lon="0.50834">
        <ele>568.2</ele>
        <time>2025-12-29T12:26:13Z</time>
      </trkpt>
      <trkpt lat="43.13203" lon="0.50827">
        <ele>568.2</ele>
        <time>2025-12-29T12:26:14Z</time>
      </trkpt>
      <trkpt lat="43.13202" lon="0.5082">
        <ele>567.4</ele>
        <time>2025-12-29T12:26:15Z</time>
      </trkpt>
      <trkpt lat="43.13202" lon="0.50814">
        <ele>567.4</ele>
        <time>2025-12-29T12:26:16Z</time>
      </trkpt>
      <trkpt lat="43.13203" lon="0.50807">
        <ele>567.4</ele>
        <time>2025-12-29T12:26:17Z</time>
      </trkpt>
      <trkpt lat="43.13203" lon="0.508">
        <ele>568.2</ele>
        <time>2025-12-29T12:26:18Z</time>
      </trkpt>
      <trkpt lat="43.13203" lon="0.50793">
        <ele>567.8</ele>
        <time>2025-12-29T12:26:19Z</time>
      </trkpt>
      <trkpt lat="43.13203" lon="0.50787">
        <ele>567.8</ele>
        <time>2025-12-29T12:26:20Z</time>
      </trkpt>
      <trkpt lat="43.13202" lon="0.5078">
        <ele>567.8</ele>
        <time>2025-12-29T12:26:21Z</time>
      </trkpt>
      <trkpt lat="43.13202" lon="0.50773">
        <ele>568.2</ele>
        <time>2025-12-29T12:26:22Z</time>
      </trkpt>
      <trkpt lat="43.13202" lon="0.50766">
        <ele>568.4</ele>
        <time>2025-12-29T12:26:23Z</time>
      </trkpt>
      <trkpt lat="43.13202" lon="0.50759">
        <ele>568.4</ele>
        <time>2025-12-29T12:26:24Z</time>
      </trkpt>
      <trkpt lat="43.13202" lon="0.50752">
        <ele>568.4</ele>
        <time>2025-12-29T12:26:25Z</time>
      </trkpt>
      <trkpt lat="43.13202" lon="0.50745">
        <ele>568.4</ele>
        <time>2025-12-29T12:26:26Z</time>
      </trkpt>
      <trkpt lat="43.13201" lon="0.50739">
        <ele>568.6</ele>
        <time>2025-12-29T12:26:27Z</time>
      </trkpt>
      <trkpt lat="43.13201" lon="0.50732">
        <ele>568.6</ele>
        <time>2025-12-29T12:26:28Z</time>
      </trkpt>
      <trkpt lat="43.13201" lon="0.50725">
        <ele>568.6</ele>
        <time>2025-12-29T12:26:29Z</time>
      </trkpt>
      <trkpt lat="43.132" lon="0.50718">
        <ele>568.6</ele>
        <time>2025-12-29T12:26:30Z</time>
      </trkpt>
      <trkpt lat="43.132" lon="0.50711">
        <ele>568.6</ele>
        <time>2025-12-29T12:26:31Z</time>
      </trkpt>
      <trkpt lat="43.132" lon="0.50704">
        <ele>568.6</ele>
        <time>2025-12-29T12:26:32Z</time>
      </trkpt>
      <trkpt lat="43.13199" lon="0.50698">
        <ele>568.6</ele>
        <time>2025-12-29T12:26:33Z</time>
      </trkpt>
      <trkpt lat="43.13199" lon="0.50691">
        <ele>568.2</ele>
        <time>2025-12-29T12:26:34Z</time>
      </trkpt>
      <trkpt lat="43.13198" lon="0.50684">
        <ele>568.2</ele>
        <time>2025-12-29T12:26:35Z</time>
      </trkpt>
      <trkpt lat="43.13198" lon="0.50677">
        <ele>568.2</ele>
        <time>2025-12-29T12:26:36Z</time>
      </trkpt>
      <trkpt lat="43.13198" lon="0.5067">
        <ele>568.2</ele>
        <time>2025-12-29T12:26:37Z</time>
      </trkpt>
      <trkpt lat="43.13197" lon="0.50664">
        <ele>569</ele>
        <time>2025-12-29T12:26:38Z</time>
      </trkpt>
      <trkpt lat="43.13197" lon="0.50657">
        <ele>568.2</ele>
        <time>2025-12-29T12:26:39Z</time>
      </trkpt>
      <trkpt lat="43.13197" lon="0.5065">
        <ele>568.2</ele>
        <time>2025-12-29T12:26:40Z</time>
      </trkpt>
      <trkpt lat="43.13196" lon="0.50644">
        <ele>568.2</ele>
        <time>2025-12-29T12:26:41Z</time>
      </trkpt>
      <trkpt lat="43.13196" lon="0.50637">
        <ele>569.2</ele>
        <time>2025-12-29T12:26:42Z</time>
      </trkpt>
      <trkpt lat="43.13196" lon="0.5063">
        <ele>569.4</ele>
        <time>2025-12-29T12:26:43Z</time>
      </trkpt>
      <trkpt lat="43.13196" lon="0.50623">
        <ele>569.4</ele>
        <time>2025-12-29T12:26:44Z</time>
      </trkpt>
      <trkpt lat="43.13195" lon="0.50617">
        <ele>569.4</ele>
        <time>2025-12-29T12:26:45Z</time>
      </trkpt>
      <trkpt lat="43.13195" lon="0.5061">
        <ele>569.2</ele>
        <time>2025-12-29T12:26:46Z</time>
      </trkpt>
      <trkpt lat="43.13195" lon="0.50603">
        <ele>569.2</ele>
        <time>2025-12-29T12:26:47Z</time>
      </trkpt>
      <trkpt lat="43.13195" lon="0.50596">
        <ele>569.2</ele>
        <time>2025-12-29T12:26:48Z</time>
      </trkpt>
      <trkpt lat="43.13195" lon="0.50589">
        <ele>569.2</ele>
        <time>2025-12-29T12:26:49Z</time>
      </trkpt>
      <trkpt lat="43.13194" lon="0.50582">
        <ele>569.2</ele>
        <time>2025-12-29T12:26:50Z</time>
      </trkpt>
      <trkpt lat="43.13194" lon="0.50575">
        <ele>568.8</ele>
        <time>2025-12-29T12:26:51Z</time>
      </trkpt>
      <trkpt lat="43.13194" lon="0.50568">
        <ele>568.8</ele>
        <time>2025-12-29T12:26:52Z</time>
      </trkpt>
      <trkpt lat="43.13193" lon="0.50561">
        <ele>568.8</ele>
        <time>2025-12-29T12:26:53Z</time>
      </trkpt>
      <trkpt lat="43.13193" lon="0.50554">
        <ele>568.8</ele>
        <time>2025-12-29T12:26:54Z</time>
      </trkpt>
      <trkpt lat="43.13193" lon="0.50547">
        <ele>568.4</ele>
        <time>2025-12-29T12:26:55Z</time>
      </trkpt>
      <trkpt lat="43.13193" lon="0.50541">
        <ele>568.4</ele>
        <time>2025-12-29T12:26:56Z</time>
      </trkpt>
      <trkpt lat="43.13193" lon="0.50534">
        <ele>568.4</ele>
        <time>2025-12-29T12:26:57Z</time>
      </trkpt>
      <trkpt lat="43.13192" lon="0.50528">
        <ele>569</ele>
        <time>2025-12-29T12:26:58Z</time>
      </trkpt>
      <trkpt lat="43.13192" lon="0.50521">
        <ele>569.8</ele>
        <time>2025-12-29T12:26:59Z</time>
      </trkpt>
      <trkpt lat="43.13191" lon="0.50514">
        <ele>569.8</ele>
        <time>2025-12-29T12:27:00Z</time>
      </trkpt>
      <trkpt lat="43.13191" lon="0.50507">
        <ele>569.8</ele>
        <time>2025-12-29T12:27:01Z</time>
      </trkpt>
      <trkpt lat="43.13191" lon="0.50501">
        <ele>569.8</ele>
        <time>2025-12-29T12:27:02Z</time>
      </trkpt>
      <trkpt lat="43.13191" lon="0.50495">
        <ele>569.4</ele>
        <time>2025-12-29T12:27:03Z</time>
      </trkpt>
      <trkpt lat="43.1319" lon="0.50488">
        <ele>569.4</ele>
        <time>2025-12-29T12:27:04Z</time>
      </trkpt>
      <trkpt lat="43.1319" lon="0.50482">
        <ele>569.4</ele>
        <time>2025-12-29T12:27:05Z</time>
      </trkpt>
      <trkpt lat="43.1319" lon="0.50475">
        <ele>569.4</ele>
        <time>2025-12-29T12:27:06Z</time>
      </trkpt>
      <trkpt lat="43.1319" lon="0.50468">
        <ele>570.4</ele>
        <time>2025-12-29T12:27:07Z</time>
      </trkpt>
      <trkpt lat="43.13189" lon="0.50461">
        <ele>570.4</ele>
        <time>2025-12-29T12:27:08Z</time>
      </trkpt>
      <trkpt lat="43.13189" lon="0.50454">
        <ele>570.4</ele>
        <time>2025-12-29T12:27:09Z</time>
      </trkpt>
      <trkpt lat="43.13189" lon="0.50447">
        <ele>569.4</ele>
        <time>2025-12-29T12:27:10Z</time>
      </trkpt>
      <trkpt lat="43.13189" lon="0.5044">
        <ele>570.2</ele>
        <time>2025-12-29T12:27:11Z</time>
      </trkpt>
      <trkpt lat="43.13188" lon="0.50434">
        <ele>570.2</ele>
        <time>2025-12-29T12:27:12Z</time>
      </trkpt>
      <trkpt lat="43.13188" lon="0.50427">
        <ele>570.2</ele>
        <time>2025-12-29T12:27:13Z</time>
      </trkpt>
      <trkpt lat="43.13187" lon="0.5042">
        <ele>570.2</ele>
        <time>2025-12-29T12:27:14Z</time>
      </trkpt>
      <trkpt lat="43.13187" lon="0.50414">
        <ele>570.2</ele>
        <time>2025-12-29T12:27:15Z</time>
      </trkpt>
      <trkpt lat="43.13187" lon="0.50408">
        <ele>570.2</ele>
        <time>2025-12-29T12:27:16Z</time>
      </trkpt>
      <trkpt lat="43.13188" lon="0.50401">
        <ele>570.2</ele>
        <time>2025-12-29T12:27:17Z</time>
      </trkpt>
      <trkpt lat="43.13187" lon="0.50395">
        <ele>570.2</ele>
        <time>2025-12-29T12:27:18Z</time>
      </trkpt>
      <trkpt lat="43.13187" lon="0.50389">
        <ele>571</ele>
        <time>2025-12-29T12:27:19Z</time>
      </trkpt>
      <trkpt lat="43.13186" lon="0.50383">
        <ele>571</ele>
        <time>2025-12-29T12:27:20Z</time>
      </trkpt>
      <trkpt lat="43.13185" lon="0.50377">
        <ele>571</ele>
        <time>2025-12-29T12:27:21Z</time>
      </trkpt>
      <trkpt lat="43.13185" lon="0.50371">
        <ele>571</ele>
        <time>2025-12-29T12:27:22Z</time>
      </trkpt>
      <trkpt lat="43.13184" lon="0.50364">
        <ele>570.4</ele>
        <time>2025-12-29T12:27:23Z</time>
      </trkpt>
      <trkpt lat="43.13184" lon="0.50358">
        <ele>570.4</ele>
        <time>2025-12-29T12:27:24Z</time>
      </trkpt>
      <trkpt lat="43.13184" lon="0.50352">
        <ele>570.4</ele>
        <time>2025-12-29T12:27:25Z</time>
      </trkpt>
      <trkpt lat="43.13183" lon="0.50346">
        <ele>571.4</ele>
        <time>2025-12-29T12:27:26Z</time>
      </trkpt>
      <trkpt lat="43.13183" lon="0.5034">
        <ele>572</ele>
        <time>2025-12-29T12:27:27Z</time>
      </trkpt>
      <trkpt lat="43.13182" lon="0.50334">
        <ele>572</ele>
        <time>2025-12-29T12:27:28Z</time>
      </trkpt>
      <trkpt lat="43.13181" lon="0.50327">
        <ele>572</ele>
        <time>2025-12-29T12:27:29Z</time>
      </trkpt>
      <trkpt lat="43.13181" lon="0.50321">
        <ele>572</ele>
        <time>2025-12-29T12:27:30Z</time>
      </trkpt>
      <trkpt lat="43.13181" lon="0.50315">
        <ele>571.4</ele>
        <time>2025-12-29T12:27:31Z</time>
      </trkpt>
      <trkpt lat="43.1318" lon="0.50309">
        <ele>571.4</ele>
        <time>2025-12-29T12:27:32Z</time>
      </trkpt>
      <trkpt lat="43.13179" lon="0.50303">
        <ele>571.4</ele>
        <time>2025-12-29T12:27:33Z</time>
      </trkpt>
      <trkpt lat="43.13179" lon="0.50297">
        <ele>571.8</ele>
        <time>2025-12-29T12:27:34Z</time>
      </trkpt>
      <trkpt lat="43.13178" lon="0.50291">
        <ele>572</ele>
        <time>2025-12-29T12:27:35Z</time>
      </trkpt>
      <trkpt lat="43.13177" lon="0.50285">
        <ele>572</ele>
        <time>2025-12-29T12:27:36Z</time>
      </trkpt>
      <trkpt lat="43.13177" lon="0.5028">
        <ele>572</ele>
        <time>2025-12-29T12:27:37Z</time>
      </trkpt>
      <trkpt lat="43.13176" lon="0.50274">
        <ele>571.8</ele>
        <time>2025-12-29T12:27:38Z</time>
      </trkpt>
      <trkpt lat="43.13175" lon="0.50268">
        <ele>571.6</ele>
        <time>2025-12-29T12:27:39Z</time>
      </trkpt>
      <trkpt lat="43.13175" lon="0.50262">
        <ele>571.6</ele>
        <time>2025-12-29T12:27:40Z</time>
      </trkpt>
      <trkpt lat="43.13175" lon="0.50256">
        <ele>571.6</ele>
        <time>2025-12-29T12:27:41Z</time>
      </trkpt>
      <trkpt lat="43.13174" lon="0.5025">
        <ele>571.8</ele>
        <time>2025-12-29T12:27:42Z</time>
      </trkpt>
      <trkpt lat="43.13174" lon="0.50244">
        <ele>572</ele>
        <time>2025-12-29T12:27:43Z</time>
      </trkpt>
      <trkpt lat="43.13174" lon="0.50238">
        <ele>572</ele>
        <time>2025-12-29T12:27:44Z</time>
      </trkpt>
      <trkpt lat="43.13174" lon="0.50232">
        <ele>572</ele>
        <time>2025-12-29T12:27:45Z</time>
      </trkpt>
      <trkpt lat="43.13173" lon="0.50225">
        <ele>572.4</ele>
        <time>2025-12-29T12:27:46Z</time>
      </trkpt>
      <trkpt lat="43.13172" lon="0.50219">
        <ele>571.8</ele>
        <time>2025-12-29T12:27:47Z</time>
      </trkpt>
      <trkpt lat="43.13171" lon="0.50213">
        <ele>571.8</ele>
        <time>2025-12-29T12:27:48Z</time>
      </trkpt>
      <trkpt lat="43.1317" lon="0.50207">
        <ele>571.8</ele>
        <time>2025-12-29T12:27:49Z</time>
      </trkpt>
      <trkpt lat="43.13169" lon="0.50201">
        <ele>572.4</ele>
        <time>2025-12-29T12:27:50Z</time>
      </trkpt>
      <trkpt lat="43.13168" lon="0.50194">
        <ele>572</ele>
        <time>2025-12-29T12:27:51Z</time>
      </trkpt>
      <trkpt lat="43.13167" lon="0.50187">
        <ele>572</ele>
        <time>2025-12-29T12:27:52Z</time>
      </trkpt>
      <trkpt lat="43.13165" lon="0.50181">
        <ele>572</ele>
        <time>2025-12-29T12:27:53Z</time>
      </trkpt>
      <trkpt lat="43.13164" lon="0.50175">
        <ele>572</ele>
        <time>2025-12-29T12:27:54Z</time>
      </trkpt>
      <trkpt lat="43.13162" lon="0.50168">
        <ele>572.2</ele>
        <time>2025-12-29T12:27:55Z</time>
      </trkpt>
      <trkpt lat="43.13161" lon="0.50163">
        <ele>572.2</ele>
        <time>2025-12-29T12:27:56Z</time>
      </trkpt>
      <trkpt lat="43.1316" lon="0.50157">
        <ele>572.2</ele>
        <time>2025-12-29T12:27:57Z</time>
      </trkpt>
      <trkpt lat="43.13159" lon="0.50152">
        <ele>572.2</ele>
        <time>2025-12-29T12:27:58Z</time>
      </trkpt>
      <trkpt lat="43.13159" lon="0.50147">
        <ele>572.4</ele>
        <time>2025-12-29T12:27:59Z</time>
      </trkpt>
      <trkpt lat="43.13158" lon="0.50142">
        <ele>572.4</ele>
        <time>2025-12-29T12:28:00Z</time>
      </trkpt>
      <trkpt lat="43.13157" lon="0.50136">
        <ele>572.4</ele>
        <time>2025-12-29T12:28:01Z</time>
      </trkpt>
      <trkpt lat="43.13155" lon="0.50131">
        <ele>573</ele>
        <time>2025-12-29T12:28:02Z</time>
      </trkpt>
      <trkpt lat="43.13154" lon="0.50127">
        <ele>573</ele>
        <time>2025-12-29T12:28:03Z</time>
      </trkpt>
      <trkpt lat="43.13152" lon="0.50121">
        <ele>573</ele>
        <time>2025-12-29T12:28:04Z</time>
      </trkpt>
      <trkpt lat="43.13151" lon="0.50116">
        <ele>573</ele>
        <time>2025-12-29T12:28:05Z</time>
      </trkpt>
      <trkpt lat="43.1315" lon="0.5011">
        <ele>573</ele>
        <time>2025-12-29T12:28:06Z</time>
      </trkpt>
      <trkpt lat="43.13149" lon="0.50103">
        <ele>572.4</ele>
        <time>2025-12-29T12:28:07Z</time>
      </trkpt>
      <trkpt lat="43.13148" lon="0.50097">
        <ele>572.4</ele>
        <time>2025-12-29T12:28:08Z</time>
      </trkpt>
      <trkpt lat="43.13147" lon="0.5009">
        <ele>572.4</ele>
        <time>2025-12-29T12:28:09Z</time>
      </trkpt>
      <trkpt lat="43.13145" lon="0.50084">
        <ele>572.4</ele>
        <time>2025-12-29T12:28:10Z</time>
      </trkpt>
      <trkpt lat="43.13144" lon="0.50077">
        <ele>572.4</ele>
        <time>2025-12-29T12:28:11Z</time>
      </trkpt>
      <trkpt lat="43.13143" lon="0.5007">
        <ele>572.4</ele>
        <time>2025-12-29T12:28:12Z</time>
      </trkpt>
      <trkpt lat="43.13142" lon="0.50064">
        <ele>572.4</ele>
        <time>2025-12-29T12:28:13Z</time>
      </trkpt>
      <trkpt lat="43.13141" lon="0.50057">
        <ele>572.4</ele>
        <time>2025-12-29T12:28:14Z</time>
      </trkpt>
      <trkpt lat="43.13139" lon="0.50051">
        <ele>572.4</ele>
        <time>2025-12-29T12:28:15Z</time>
      </trkpt>
      <trkpt lat="43.13138" lon="0.50044">
        <ele>572.4</ele>
        <time>2025-12-29T12:28:16Z</time>
      </trkpt>
      <trkpt lat="43.13137" lon="0.50038">
        <ele>572.4</ele>
        <time>2025-12-29T12:28:17Z</time>
      </trkpt>
      <trkpt lat="43.13136" lon="0.50031">
        <ele>572.4</ele>
        <time>2025-12-29T12:28:18Z</time>
      </trkpt>
      <trkpt lat="43.13134" lon="0.50024">
        <ele>573</ele>
        <time>2025-12-29T12:28:19Z</time>
      </trkpt>
      <trkpt lat="43.13132" lon="0.50018">
        <ele>573</ele>
        <time>2025-12-29T12:28:20Z</time>
      </trkpt>
      <trkpt lat="43.1313" lon="0.50012">
        <ele>573</ele>
        <time>2025-12-29T12:28:21Z</time>
      </trkpt>
      <trkpt lat="43.13127" lon="0.50006">
        <ele>572.2</ele>
        <time>2025-12-29T12:28:22Z</time>
      </trkpt>
      <trkpt lat="43.13125" lon="0.5">
        <ele>572.6</ele>
        <time>2025-12-29T12:28:23Z</time>
      </trkpt>
      <trkpt lat="43.13122" lon="0.49994">
        <ele>572.6</ele>
        <time>2025-12-29T12:28:24Z</time>
      </trkpt>
      <trkpt lat="43.1312" lon="0.49987">
        <ele>572.6</ele>
        <time>2025-12-29T12:28:25Z</time>
      </trkpt>
      <trkpt lat="43.13117" lon="0.49981">
        <ele>573</ele>
        <time>2025-12-29T12:28:26Z</time>
      </trkpt>
      <trkpt lat="43.13115" lon="0.49976">
        <ele>573.4</ele>
        <time>2025-12-29T12:28:27Z</time>
      </trkpt>
      <trkpt lat="43.13112" lon="0.4997">
        <ele>573.4</ele>
        <time>2025-12-29T12:28:28Z</time>
      </trkpt>
      <trkpt lat="43.13109" lon="0.49964">
        <ele>573.4</ele>
        <time>2025-12-29T12:28:29Z</time>
      </trkpt>
      <trkpt lat="43.13106" lon="0.49959">
        <ele>572.4</ele>
        <time>2025-12-29T12:28:30Z</time>
      </trkpt>
      <trkpt lat="43.13104" lon="0.49953">
        <ele>573</ele>
        <time>2025-12-29T12:28:31Z</time>
      </trkpt>
      <trkpt lat="43.13102" lon="0.49947">
        <ele>573</ele>
        <time>2025-12-29T12:28:32Z</time>
      </trkpt>
      <trkpt lat="43.13099" lon="0.49941">
        <ele>573</ele>
        <time>2025-12-29T12:28:33Z</time>
      </trkpt>
      <trkpt lat="43.13097" lon="0.49936">
        <ele>573</ele>
        <time>2025-12-29T12:28:34Z</time>
      </trkpt>
      <trkpt lat="43.13094" lon="0.4993">
        <ele>572.4</ele>
        <time>2025-12-29T12:28:35Z</time>
      </trkpt>
      <trkpt lat="43.13092" lon="0.49924">
        <ele>572.4</ele>
        <time>2025-12-29T12:28:36Z</time>
      </trkpt>
      <trkpt lat="43.13089" lon="0.49918">
        <ele>572.4</ele>
        <time>2025-12-29T12:28:37Z</time>
      </trkpt>
      <trkpt lat="43.13086" lon="0.49913">
        <ele>572.4</ele>
        <time>2025-12-29T12:28:38Z</time>
      </trkpt>
      <trkpt lat="43.13084" lon="0.49907">
        <ele>572.6</ele>
        <time>2025-12-29T12:28:39Z</time>
      </trkpt>
      <trkpt lat="43.13082" lon="0.49901">
        <ele>572.6</ele>
        <time>2025-12-29T12:28:40Z</time>
      </trkpt>
      <trkpt lat="43.13079" lon="0.49896">
        <ele>572.6</ele>
        <time>2025-12-29T12:28:41Z</time>
      </trkpt>
      <trkpt lat="43.13077" lon="0.4989">
        <ele>573.6</ele>
        <time>2025-12-29T12:28:42Z</time>
      </trkpt>
      <trkpt lat="43.13075" lon="0.49884">
        <ele>573.4</ele>
        <time>2025-12-29T12:28:43Z</time>
      </trkpt>
      <trkpt lat="43.13072" lon="0.49879">
        <ele>573.4</ele>
        <time>2025-12-29T12:28:44Z</time>
      </trkpt>
      <trkpt lat="43.1307" lon="0.49874">
        <ele>573.4</ele>
        <time>2025-12-29T12:28:45Z</time>
      </trkpt>
      <trkpt lat="43.13067" lon="0.49868">
        <ele>573.4</ele>
        <time>2025-12-29T12:28:46Z</time>
      </trkpt>
      <trkpt lat="43.13064" lon="0.49863">
        <ele>573.2</ele>
        <time>2025-12-29T12:28:47Z</time>
      </trkpt>
      <trkpt lat="43.13062" lon="0.49857">
        <ele>573.2</ele>
        <time>2025-12-29T12:28:48Z</time>
      </trkpt>
      <trkpt lat="43.13059" lon="0.49852">
        <ele>573.2</ele>
        <time>2025-12-29T12:28:49Z</time>
      </trkpt>
      <trkpt lat="43.13057" lon="0.49847">
        <ele>573.2</ele>
        <time>2025-12-29T12:28:50Z</time>
      </trkpt>
      <trkpt lat="43.13054" lon="0.49842">
        <ele>573.6</ele>
        <time>2025-12-29T12:28:51Z</time>
      </trkpt>
      <trkpt lat="43.13052" lon="0.49836">
        <ele>573.6</ele>
        <time>2025-12-29T12:28:52Z</time>
      </trkpt>
      <trkpt lat="43.1305" lon="0.4983">
        <ele>573.6</ele>
        <time>2025-12-29T12:28:53Z</time>
      </trkpt>
      <trkpt lat="43.13047" lon="0.49825">
        <ele>573.6</ele>
        <time>2025-12-29T12:28:54Z</time>
      </trkpt>
      <trkpt lat="43.13045" lon="0.49819">
        <ele>573.6</ele>
        <time>2025-12-29T12:28:55Z</time>
      </trkpt>
      <trkpt lat="43.13043" lon="0.49813">
        <ele>573.6</ele>
        <time>2025-12-29T12:28:56Z</time>
      </trkpt>
      <trkpt lat="43.1304" lon="0.49808">
        <ele>573.6</ele>
        <time>2025-12-29T12:28:57Z</time>
      </trkpt>
      <trkpt lat="43.13038" lon="0.49802">
        <ele>573.6</ele>
        <time>2025-12-29T12:28:58Z</time>
      </trkpt>
      <trkpt lat="43.13035" lon="0.49796">
        <ele>573.8</ele>
        <time>2025-12-29T12:28:59Z</time>
      </trkpt>
      <trkpt lat="43.13033" lon="0.49791">
        <ele>573.8</ele>
        <time>2025-12-29T12:29:00Z</time>
      </trkpt>
      <trkpt lat="43.13031" lon="0.49786">
        <ele>573.8</ele>
        <time>2025-12-29T12:29:01Z</time>
      </trkpt>
      <trkpt lat="43.13028" lon="0.4978">
        <ele>573.8</ele>
        <time>2025-12-29T12:29:02Z</time>
      </trkpt>
      <trkpt lat="43.13026" lon="0.49775">
        <ele>573.4</ele>
        <time>2025-12-29T12:29:03Z</time>
      </trkpt>
      <trkpt lat="43.13023" lon="0.49769">
        <ele>573.4</ele>
        <time>2025-12-29T12:29:04Z</time>
      </trkpt>
      <trkpt lat="43.13021" lon="0.49764">
        <ele>573.4</ele>
        <time>2025-12-29T12:29:05Z</time>
      </trkpt>
      <trkpt lat="43.13018" lon="0.49758">
        <ele>574</ele>
        <time>2025-12-29T12:29:06Z</time>
      </trkpt>
      <trkpt lat="43.13016" lon="0.49753">
        <ele>573.2</ele>
        <time>2025-12-29T12:29:07Z</time>
      </trkpt>
      <trkpt lat="43.13014" lon="0.49748">
        <ele>573.2</ele>
        <time>2025-12-29T12:29:08Z</time>
      </trkpt>
      <trkpt lat="43.13011" lon="0.49742">
        <ele>573.2</ele>
        <time>2025-12-29T12:29:09Z</time>
      </trkpt>
      <trkpt lat="43.13009" lon="0.49737">
        <ele>573.8</ele>
        <time>2025-12-29T12:29:10Z</time>
      </trkpt>
      <trkpt lat="43.13007" lon="0.49731">
        <ele>574</ele>
        <time>2025-12-29T12:29:11Z</time>
      </trkpt>
      <trkpt lat="43.13004" lon="0.49726">
        <ele>574</ele>
        <time>2025-12-29T12:29:12Z</time>
      </trkpt>
      <trkpt lat="43.13002" lon="0.49721">
        <ele>574</ele>
        <time>2025-12-29T12:29:13Z</time>
      </trkpt>
      <trkpt lat="43.12999" lon="0.49715">
        <ele>574</ele>
        <time>2025-12-29T12:29:14Z</time>
      </trkpt>
      <trkpt lat="43.12997" lon="0.4971">
        <ele>573.2</ele>
        <time>2025-12-29T12:29:15Z</time>
      </trkpt>
      <trkpt lat="43.12995" lon="0.49705">
        <ele>573.2</ele>
        <time>2025-12-29T12:29:16Z</time>
      </trkpt>
      <trkpt lat="43.12992" lon="0.49699">
        <ele>573.2</ele>
        <time>2025-12-29T12:29:17Z</time>
      </trkpt>
      <trkpt lat="43.1299" lon="0.49694">
        <ele>574.2</ele>
        <time>2025-12-29T12:29:18Z</time>
      </trkpt>
      <trkpt lat="43.12988" lon="0.49689">
        <ele>574</ele>
        <time>2025-12-29T12:29:19Z</time>
      </trkpt>
      <trkpt lat="43.12986" lon="0.49683">
        <ele>574</ele>
        <time>2025-12-29T12:29:20Z</time>
      </trkpt>
      <trkpt lat="43.12983" lon="0.49678">
        <ele>574</ele>
        <time>2025-12-29T12:29:21Z</time>
      </trkpt>
      <trkpt lat="43.12981" lon="0.49672">
        <ele>574</ele>
        <time>2025-12-29T12:29:22Z</time>
      </trkpt>
      <trkpt lat="43.12978" lon="0.49667">
        <ele>573.6</ele>
        <time>2025-12-29T12:29:23Z</time>
      </trkpt>
      <trkpt lat="43.12976" lon="0.49662">
        <ele>573.6</ele>
        <time>2025-12-29T12:29:24Z</time>
      </trkpt>
      <trkpt lat="43.12974" lon="0.49657">
        <ele>573.6</ele>
        <time>2025-12-29T12:29:25Z</time>
      </trkpt>
      <trkpt lat="43.12971" lon="0.49651">
        <ele>574</ele>
        <time>2025-12-29T12:29:26Z</time>
      </trkpt>
      <trkpt lat="43.12969" lon="0.49646">
        <ele>574.6</ele>
        <time>2025-12-29T12:29:27Z</time>
      </trkpt>
      <trkpt lat="43.12967" lon="0.49641">
        <ele>574.6</ele>
        <time>2025-12-29T12:29:28Z</time>
      </trkpt>
      <trkpt lat="43.12964" lon="0.49636">
        <ele>574.6</ele>
        <time>2025-12-29T12:29:29Z</time>
      </trkpt>
      <trkpt lat="43.12962" lon="0.49631">
        <ele>574.6</ele>
        <time>2025-12-29T12:29:30Z</time>
      </trkpt>
      <trkpt lat="43.1296" lon="0.49626">
        <ele>574.6</ele>
        <time>2025-12-29T12:29:31Z</time>
      </trkpt>
      <trkpt lat="43.12958" lon="0.49621">
        <ele>574.6</ele>
        <time>2025-12-29T12:29:32Z</time>
      </trkpt>
      <trkpt lat="43.12956" lon="0.49617">
        <ele>574.6</ele>
        <time>2025-12-29T12:29:33Z</time>
      </trkpt>
      <trkpt lat="43.12953" lon="0.49611">
        <ele>574.6</ele>
        <time>2025-12-29T12:29:34Z</time>
      </trkpt>
      <trkpt lat="43.12951" lon="0.49606">
        <ele>575.2</ele>
        <time>2025-12-29T12:29:35Z</time>
      </trkpt>
      <trkpt lat="43.12949" lon="0.49601">
        <ele>575.2</ele>
        <time>2025-12-29T12:29:36Z</time>
      </trkpt>
      <trkpt lat="43.12946" lon="0.49596">
        <ele>575.2</ele>
        <time>2025-12-29T12:29:37Z</time>
      </trkpt>
      <trkpt lat="43.12944" lon="0.49591">
        <ele>575.2</ele>
        <time>2025-12-29T12:29:38Z</time>
      </trkpt>
      <trkpt lat="43.12941" lon="0.49585">
        <ele>575.4</ele>
        <time>2025-12-29T12:29:39Z</time>
      </trkpt>
      <trkpt lat="43.12939" lon="0.4958">
        <ele>575.4</ele>
        <time>2025-12-29T12:29:40Z</time>
      </trkpt>
      <trkpt lat="43.12937" lon="0.49574">
        <ele>575.4</ele>
        <time>2025-12-29T12:29:41Z</time>
      </trkpt>
      <trkpt lat="43.12934" lon="0.49569">
        <ele>575.4</ele>
        <time>2025-12-29T12:29:42Z</time>
      </trkpt>
      <trkpt lat="43.12932" lon="0.49564">
        <ele>575.2</ele>
        <time>2025-12-29T12:29:43Z</time>
      </trkpt>
      <trkpt lat="43.1293" lon="0.49559">
        <ele>575.2</ele>
        <time>2025-12-29T12:29:44Z</time>
      </trkpt>
      <trkpt lat="43.12927" lon="0.49553">
        <ele>575.2</ele>
        <time>2025-12-29T12:29:45Z</time>
      </trkpt>
      <trkpt lat="43.12925" lon="0.49548">
        <ele>575.8</ele>
        <time>2025-12-29T12:29:46Z</time>
      </trkpt>
      <trkpt lat="43.12923" lon="0.49543">
        <ele>576.2</ele>
        <time>2025-12-29T12:29:47Z</time>
      </trkpt>
      <trkpt lat="43.1292" lon="0.49538">
        <ele>576.2</ele>
        <time>2025-12-29T12:29:48Z</time>
      </trkpt>
      <trkpt lat="43.12918" lon="0.49533">
        <ele>576.2</ele>
        <time>2025-12-29T12:29:49Z</time>
      </trkpt>
      <trkpt lat="43.12916" lon="0.49528">
        <ele>576.2</ele>
        <time>2025-12-29T12:29:50Z</time>
      </trkpt>
      <trkpt lat="43.12914" lon="0.49523">
        <ele>576</ele>
        <time>2025-12-29T12:29:51Z</time>
      </trkpt>
      <trkpt lat="43.12911" lon="0.49518">
        <ele>576</ele>
        <time>2025-12-29T12:29:52Z</time>
      </trkpt>
      <trkpt lat="43.12909" lon="0.49513">
        <ele>576</ele>
        <time>2025-12-29T12:29:53Z</time>
      </trkpt>
      <trkpt lat="43.12906" lon="0.49508">
        <ele>576</ele>
        <time>2025-12-29T12:29:54Z</time>
      </trkpt>
      <trkpt lat="43.12904" lon="0.49503">
        <ele>577.2</ele>
        <time>2025-12-29T12:29:55Z</time>
      </trkpt>
      <trkpt lat="43.12901" lon="0.49498">
        <ele>577.2</ele>
        <time>2025-12-29T12:29:56Z</time>
      </trkpt>
      <trkpt lat="43.12899" lon="0.49493">
        <ele>577.2</ele>
        <time>2025-12-29T12:29:57Z</time>
      </trkpt>
      <trkpt lat="43.12897" lon="0.49488">
        <ele>577.2</ele>
        <time>2025-12-29T12:29:58Z</time>
      </trkpt>
      <trkpt lat="43.12894" lon="0.49482">
        <ele>576.6</ele>
        <time>2025-12-29T12:29:59Z</time>
      </trkpt>
      <trkpt lat="43.12892" lon="0.49477">
        <ele>576.6</ele>
        <time>2025-12-29T12:30:00Z</time>
      </trkpt>
      <trkpt lat="43.1289" lon="0.49472">
        <ele>576.6</ele>
        <time>2025-12-29T12:30:01Z</time>
      </trkpt>
      <trkpt lat="43.12887" lon="0.49466">
        <ele>577.4</ele>
        <time>2025-12-29T12:30:02Z</time>
      </trkpt>
      <trkpt lat="43.12885" lon="0.49461">
        <ele>577.6</ele>
        <time>2025-12-29T12:30:03Z</time>
      </trkpt>
      <trkpt lat="43.12883" lon="0.49456">
        <ele>577.6</ele>
        <time>2025-12-29T12:30:04Z</time>
      </trkpt>
      <trkpt lat="43.12881" lon="0.49451">
        <ele>577.6</ele>
        <time>2025-12-29T12:30:05Z</time>
      </trkpt>
      <trkpt lat="43.12879" lon="0.49446">
        <ele>577.6</ele>
        <time>2025-12-29T12:30:06Z</time>
      </trkpt>
      <trkpt lat="43.12877" lon="0.49441">
        <ele>577.4</ele>
        <time>2025-12-29T12:30:07Z</time>
      </trkpt>
      <trkpt lat="43.12875" lon="0.49435">
        <ele>577.4</ele>
        <time>2025-12-29T12:30:08Z</time>
      </trkpt>
      <trkpt lat="43.12873" lon="0.4943">
        <ele>577.4</ele>
        <time>2025-12-29T12:30:09Z</time>
      </trkpt>
      <trkpt lat="43.12871" lon="0.49424">
        <ele>577.4</ele>
        <time>2025-12-29T12:30:10Z</time>
      </trkpt>
      <trkpt lat="43.12868" lon="0.49419">
        <ele>577.6</ele>
        <time>2025-12-29T12:30:11Z</time>
      </trkpt>
      <trkpt lat="43.12866" lon="0.49413">
        <ele>577.6</ele>
        <time>2025-12-29T12:30:12Z</time>
      </trkpt>
      <trkpt lat="43.12864" lon="0.49408">
        <ele>577.6</ele>
        <time>2025-12-29T12:30:13Z</time>
      </trkpt>
      <trkpt lat="43.12862" lon="0.49404">
        <ele>578.2</ele>
        <time>2025-12-29T12:30:14Z</time>
      </trkpt>
      <trkpt lat="43.1286" lon="0.49399">
        <ele>578.4</ele>
        <time>2025-12-29T12:30:15Z</time>
      </trkpt>
      <trkpt lat="43.12858" lon="0.49394">
        <ele>578.4</ele>
        <time>2025-12-29T12:30:16Z</time>
      </trkpt>
      <trkpt lat="43.12855" lon="0.49388">
        <ele>578.4</ele>
        <time>2025-12-29T12:30:17Z</time>
      </trkpt>
      <trkpt lat="43.12853" lon="0.49383">
        <ele>578.4</ele>
        <time>2025-12-29T12:30:18Z</time>
      </trkpt>
      <trkpt lat="43.12851" lon="0.49377">
        <ele>578</ele>
        <time>2025-12-29T12:30:19Z</time>
      </trkpt>
      <trkpt lat="43.12849" lon="0.49372">
        <ele>578</ele>
        <time>2025-12-29T12:30:20Z</time>
      </trkpt>
      <trkpt lat="43.12847" lon="0.49367">
        <ele>578</ele>
        <time>2025-12-29T12:30:21Z</time>
      </trkpt>
      <trkpt lat="43.12845" lon="0.49362">
        <ele>578.4</ele>
        <time>2025-12-29T12:30:22Z</time>
      </trkpt>
      <trkpt lat="43.12844" lon="0.49357">
        <ele>578</ele>
        <time>2025-12-29T12:30:23Z</time>
      </trkpt>
      <trkpt lat="43.12843" lon="0.49352">
        <ele>578</ele>
        <time>2025-12-29T12:30:24Z</time>
      </trkpt>
      <trkpt lat="43.12841" lon="0.49347">
        <ele>578</ele>
        <time>2025-12-29T12:30:25Z</time>
      </trkpt>
      <trkpt lat="43.12839" lon="0.49342">
        <ele>579</ele>
        <time>2025-12-29T12:30:26Z</time>
      </trkpt>
      <trkpt lat="43.12837" lon="0.49337">
        <ele>578.8</ele>
        <time>2025-12-29T12:30:27Z</time>
      </trkpt>
      <trkpt lat="43.12836" lon="0.49332">
        <ele>578.8</ele>
        <time>2025-12-29T12:30:28Z</time>
      </trkpt>
      <trkpt lat="43.12834" lon="0.49326">
        <ele>578.8</ele>
        <time>2025-12-29T12:30:29Z</time>
      </trkpt>
      <trkpt lat="43.12832" lon="0.49321">
        <ele>578.8</ele>
        <time>2025-12-29T12:30:30Z</time>
      </trkpt>
      <trkpt lat="43.1283" lon="0.49315">
        <ele>578.6</ele>
        <time>2025-12-29T12:30:31Z</time>
      </trkpt>
      <trkpt lat="43.12828" lon="0.4931">
        <ele>578.6</ele>
        <time>2025-12-29T12:30:32Z</time>
      </trkpt>
      <trkpt lat="43.12826" lon="0.49304">
        <ele>578.6</ele>
        <time>2025-12-29T12:30:33Z</time>
      </trkpt>
      <trkpt lat="43.12825" lon="0.49299">
        <ele>578.6</ele>
        <time>2025-12-29T12:30:34Z</time>
      </trkpt>
      <trkpt lat="43.12823" lon="0.49293">
        <ele>578.2</ele>
        <time>2025-12-29T12:30:35Z</time>
      </trkpt>
      <trkpt lat="43.12821" lon="0.49288">
        <ele>578.2</ele>
        <time>2025-12-29T12:30:36Z</time>
      </trkpt>
      <trkpt lat="43.12819" lon="0.49282">
        <ele>578.2</ele>
        <time>2025-12-29T12:30:37Z</time>
      </trkpt>
      <trkpt lat="43.12817" lon="0.49276">
        <ele>578.6</ele>
        <time>2025-12-29T12:30:38Z</time>
      </trkpt>
      <trkpt lat="43.12815" lon="0.4927">
        <ele>579.4</ele>
        <time>2025-12-29T12:30:39Z</time>
      </trkpt>
      <trkpt lat="43.12814" lon="0.49264">
        <ele>579.4</ele>
        <time>2025-12-29T12:30:40Z</time>
      </trkpt>
      <trkpt lat="43.12812" lon="0.49258">
        <ele>579.4</ele>
        <time>2025-12-29T12:30:41Z</time>
      </trkpt>
      <trkpt lat="43.12811" lon="0.49252">
        <ele>578.8</ele>
        <time>2025-12-29T12:30:42Z</time>
      </trkpt>
      <trkpt lat="43.12809" lon="0.49247">
        <ele>579.2</ele>
        <time>2025-12-29T12:30:43Z</time>
      </trkpt>
      <trkpt lat="43.12808" lon="0.49241">
        <ele>579.2</ele>
        <time>2025-12-29T12:30:44Z</time>
      </trkpt>
      <trkpt lat="43.12806" lon="0.49235">
        <ele>579.2</ele>
        <time>2025-12-29T12:30:45Z</time>
      </trkpt>
      <trkpt lat="43.12804" lon="0.4923">
        <ele>579.2</ele>
        <time>2025-12-29T12:30:46Z</time>
      </trkpt>
      <trkpt lat="43.12803" lon="0.49224">
        <ele>579.4</ele>
        <time>2025-12-29T12:30:47Z</time>
      </trkpt>
      <trkpt lat="43.12801" lon="0.49218">
        <ele>579.4</ele>
        <time>2025-12-29T12:30:48Z</time>
      </trkpt>
      <trkpt lat="43.12799" lon="0.49212">
        <ele>579.4</ele>
        <time>2025-12-29T12:30:49Z</time>
      </trkpt>
      <trkpt lat="43.12798" lon="0.49206">
        <ele>579.4</ele>
        <time>2025-12-29T12:30:50Z</time>
      </trkpt>
      <trkpt lat="43.12796" lon="0.492">
        <ele>579.2</ele>
        <time>2025-12-29T12:30:51Z</time>
      </trkpt>
      <trkpt lat="43.12795" lon="0.49194">
        <ele>579.2</ele>
        <time>2025-12-29T12:30:52Z</time>
      </trkpt>
      <trkpt lat="43.12793" lon="0.49189">
        <ele>579.2</ele>
        <time>2025-12-29T12:30:53Z</time>
      </trkpt>
      <trkpt lat="43.12792" lon="0.49183">
        <ele>579.2</ele>
        <time>2025-12-29T12:30:54Z</time>
      </trkpt>
      <trkpt lat="43.1279" lon="0.49177">
        <ele>579</ele>
        <time>2025-12-29T12:30:55Z</time>
      </trkpt>
      <trkpt lat="43.12788" lon="0.49171">
        <ele>579</ele>
        <time>2025-12-29T12:30:56Z</time>
      </trkpt>
      <trkpt lat="43.12787" lon="0.49165">
        <ele>579</ele>
        <time>2025-12-29T12:30:57Z</time>
      </trkpt>
      <trkpt lat="43.12785" lon="0.49159">
        <ele>579.8</ele>
        <time>2025-12-29T12:30:58Z</time>
      </trkpt>
      <trkpt lat="43.12783" lon="0.49153">
        <ele>579.8</ele>
        <time>2025-12-29T12:30:59Z</time>
      </trkpt>
      <trkpt lat="43.12782" lon="0.49147">
        <ele>579.8</ele>
        <time>2025-12-29T12:31:00Z</time>
      </trkpt>
      <trkpt lat="43.12781" lon="0.49141">
        <ele>579.8</ele>
        <time>2025-12-29T12:31:01Z</time>
      </trkpt>
      <trkpt lat="43.12779" lon="0.49134">
        <ele>579.4</ele>
        <time>2025-12-29T12:31:02Z</time>
      </trkpt>
      <trkpt lat="43.12777" lon="0.49127">
        <ele>579.6</ele>
        <time>2025-12-29T12:31:03Z</time>
      </trkpt>
      <trkpt lat="43.12775" lon="0.4912">
        <ele>579.6</ele>
        <time>2025-12-29T12:31:04Z</time>
      </trkpt>
      <trkpt lat="43.12773" lon="0.49114">
        <ele>579.6</ele>
        <time>2025-12-29T12:31:05Z</time>
      </trkpt>
      <trkpt lat="43.12771" lon="0.49107">
        <ele>579.6</ele>
        <time>2025-12-29T12:31:06Z</time>
      </trkpt>
      <trkpt lat="43.12769" lon="0.49101">
        <ele>579.4</ele>
        <time>2025-12-29T12:31:07Z</time>
      </trkpt>
      <trkpt lat="43.12767" lon="0.49095">
        <ele>579.4</ele>
        <time>2025-12-29T12:31:08Z</time>
      </trkpt>
      <trkpt lat="43.12766" lon="0.4909">
        <ele>579.4</ele>
        <time>2025-12-29T12:31:09Z</time>
      </trkpt>
      <trkpt lat="43.12764" lon="0.49084">
        <ele>579.4</ele>
        <time>2025-12-29T12:31:10Z</time>
      </trkpt>
      <trkpt lat="43.12762" lon="0.49078">
        <ele>579</ele>
        <time>2025-12-29T12:31:11Z</time>
      </trkpt>
      <trkpt lat="43.12761" lon="0.49073">
        <ele>579</ele>
        <time>2025-12-29T12:31:12Z</time>
      </trkpt>
      <trkpt lat="43.12759" lon="0.49067">
        <ele>579</ele>
        <time>2025-12-29T12:31:13Z</time>
      </trkpt>
      <trkpt lat="43.12758" lon="0.49061">
        <ele>579</ele>
        <time>2025-12-29T12:31:14Z</time>
      </trkpt>
      <trkpt lat="43.12756" lon="0.49056">
        <ele>579</ele>
        <time>2025-12-29T12:31:15Z</time>
      </trkpt>
      <trkpt lat="43.12755" lon="0.4905">
        <ele>579</ele>
        <time>2025-12-29T12:31:16Z</time>
      </trkpt>
      <trkpt lat="43.12753" lon="0.49044">
        <ele>579</ele>
        <time>2025-12-29T12:31:17Z</time>
      </trkpt>
      <trkpt lat="43.12752" lon="0.49039">
        <ele>580</ele>
        <time>2025-12-29T12:31:18Z</time>
      </trkpt>
      <trkpt lat="43.1275" lon="0.49033">
        <ele>579.6</ele>
        <time>2025-12-29T12:31:19Z</time>
      </trkpt>
      <trkpt lat="43.12749" lon="0.49028">
        <ele>579.6</ele>
        <time>2025-12-29T12:31:20Z</time>
      </trkpt>
      <trkpt lat="43.12747" lon="0.49022">
        <ele>579.6</ele>
        <time>2025-12-29T12:31:21Z</time>
      </trkpt>
      <trkpt lat="43.12746" lon="0.49016">
        <ele>579.6</ele>
        <time>2025-12-29T12:31:22Z</time>
      </trkpt>
      <trkpt lat="43.12744" lon="0.4901">
        <ele>579.2</ele>
        <time>2025-12-29T12:31:23Z</time>
      </trkpt>
      <trkpt lat="43.12742" lon="0.49003">
        <ele>579.2</ele>
        <time>2025-12-29T12:31:24Z</time>
      </trkpt>
      <trkpt lat="43.12741" lon="0.48997">
        <ele>579.2</ele>
        <time>2025-12-29T12:31:25Z</time>
      </trkpt>
      <trkpt lat="43.12739" lon="0.48991">
        <ele>580.2</ele>
        <time>2025-12-29T12:31:26Z</time>
      </trkpt>
      <trkpt lat="43.12737" lon="0.48985">
        <ele>580.6</ele>
        <time>2025-12-29T12:31:27Z</time>
      </trkpt>
      <trkpt lat="43.12736" lon="0.48979">
        <ele>580.6</ele>
        <time>2025-12-29T12:31:28Z</time>
      </trkpt>
      <trkpt lat="43.12734" lon="0.48973">
        <ele>580.6</ele>
        <time>2025-12-29T12:31:29Z</time>
      </trkpt>
      <trkpt lat="43.12732" lon="0.48966">
        <ele>579.8</ele>
        <time>2025-12-29T12:31:30Z</time>
      </trkpt>
      <trkpt lat="43.12731" lon="0.4896">
        <ele>580.4</ele>
        <time>2025-12-29T12:31:31Z</time>
      </trkpt>
      <trkpt lat="43.12729" lon="0.48954">
        <ele>580.4</ele>
        <time>2025-12-29T12:31:32Z</time>
      </trkpt>
      <trkpt lat="43.12728" lon="0.48948">
        <ele>580.4</ele>
        <time>2025-12-29T12:31:33Z</time>
      </trkpt>
      <trkpt lat="43.12726" lon="0.48942">
        <ele>580.2</ele>
        <time>2025-12-29T12:31:34Z</time>
      </trkpt>
      <trkpt lat="43.12724" lon="0.48935">
        <ele>580</ele>
        <time>2025-12-29T12:31:35Z</time>
      </trkpt>
      <trkpt lat="43.12723" lon="0.48929">
        <ele>580</ele>
        <time>2025-12-29T12:31:36Z</time>
      </trkpt>
      <trkpt lat="43.12721" lon="0.48923">
        <ele>580</ele>
        <time>2025-12-29T12:31:37Z</time>
      </trkpt>
      <trkpt lat="43.1272" lon="0.48917">
        <ele>579.6</ele>
        <time>2025-12-29T12:31:38Z</time>
      </trkpt>
      <trkpt lat="43.12718" lon="0.48911">
        <ele>580.6</ele>
        <time>2025-12-29T12:31:39Z</time>
      </trkpt>
      <trkpt lat="43.12716" lon="0.48905">
        <ele>580.6</ele>
        <time>2025-12-29T12:31:40Z</time>
      </trkpt>
      <trkpt lat="43.12714" lon="0.48898">
        <ele>580.6</ele>
        <time>2025-12-29T12:31:41Z</time>
      </trkpt>
      <trkpt lat="43.12713" lon="0.48892">
        <ele>580.6</ele>
        <time>2025-12-29T12:31:42Z</time>
      </trkpt>
      <trkpt lat="43.12711" lon="0.48886">
        <ele>580.6</ele>
        <time>2025-12-29T12:31:43Z</time>
      </trkpt>
      <trkpt lat="43.12709" lon="0.4888">
        <ele>580.6</ele>
        <time>2025-12-29T12:31:44Z</time>
      </trkpt>
      <trkpt lat="43.12708" lon="0.48874">
        <ele>580.6</ele>
        <time>2025-12-29T12:31:45Z</time>
      </trkpt>
      <trkpt lat="43.12706" lon="0.48868">
        <ele>580.6</ele>
        <time>2025-12-29T12:31:46Z</time>
      </trkpt>
      <trkpt lat="43.12704" lon="0.48862">
        <ele>580.8</ele>
        <time>2025-12-29T12:31:47Z</time>
      </trkpt>
      <trkpt lat="43.12703" lon="0.48856">
        <ele>580.8</ele>
        <time>2025-12-29T12:31:48Z</time>
      </trkpt>
      <trkpt lat="43.12701" lon="0.4885">
        <ele>580.8</ele>
        <time>2025-12-29T12:31:49Z</time>
      </trkpt>
      <trkpt lat="43.127" lon="0.48844">
        <ele>580.8</ele>
        <time>2025-12-29T12:31:50Z</time>
      </trkpt>
      <trkpt lat="43.12698" lon="0.48838">
        <ele>580.8</ele>
        <time>2025-12-29T12:31:51Z</time>
      </trkpt>
      <trkpt lat="43.12696" lon="0.48832">
        <ele>580.8</ele>
        <time>2025-12-29T12:31:52Z</time>
      </trkpt>
      <trkpt lat="43.12695" lon="0.48826">
        <ele>580.8</ele>
        <time>2025-12-29T12:31:53Z</time>
      </trkpt>
      <trkpt lat="43.12693" lon="0.4882">
        <ele>581.4</ele>
        <time>2025-12-29T12:31:54Z</time>
      </trkpt>
      <trkpt lat="43.12692" lon="0.48814">
        <ele>581.4</ele>
        <time>2025-12-29T12:31:55Z</time>
      </trkpt>
      <trkpt lat="43.1269" lon="0.48808">
        <ele>581.4</ele>
        <time>2025-12-29T12:31:56Z</time>
      </trkpt>
      <trkpt lat="43.12688" lon="0.48801">
        <ele>581.4</ele>
        <time>2025-12-29T12:31:57Z</time>
      </trkpt>
      <trkpt lat="43.12686" lon="0.48795">
        <ele>581</ele>
        <time>2025-12-29T12:31:58Z</time>
      </trkpt>
      <trkpt lat="43.12685" lon="0.48789">
        <ele>581.6</ele>
        <time>2025-12-29T12:31:59Z</time>
      </trkpt>
      <trkpt lat="43.12683" lon="0.48783">
        <ele>581.6</ele>
        <time>2025-12-29T12:32:00Z</time>
      </trkpt>
      <trkpt lat="43.12681" lon="0.48777">
        <ele>581.6</ele>
        <time>2025-12-29T12:32:01Z</time>
      </trkpt>
      <trkpt lat="43.12679" lon="0.48771">
        <ele>581.6</ele>
        <time>2025-12-29T12:32:02Z</time>
      </trkpt>
      <trkpt lat="43.12678" lon="0.48765">
        <ele>581</ele>
        <time>2025-12-29T12:32:03Z</time>
      </trkpt>
      <trkpt lat="43.12676" lon="0.48759">
        <ele>581</ele>
        <time>2025-12-29T12:32:04Z</time>
      </trkpt>
      <trkpt lat="43.12674" lon="0.48753">
        <ele>581</ele>
        <time>2025-12-29T12:32:05Z</time>
      </trkpt>
      <trkpt lat="43.12672" lon="0.48747">
        <ele>581</ele>
        <time>2025-12-29T12:32:06Z</time>
      </trkpt>
      <trkpt lat="43.12671" lon="0.48741">
        <ele>581.4</ele>
        <time>2025-12-29T12:32:07Z</time>
      </trkpt>
      <trkpt lat="43.12669" lon="0.48734">
        <ele>581.4</ele>
        <time>2025-12-29T12:32:08Z</time>
      </trkpt>
      <trkpt lat="43.12668" lon="0.48728">
        <ele>581.4</ele>
        <time>2025-12-29T12:32:09Z</time>
      </trkpt>
      <trkpt lat="43.12666" lon="0.48722">
        <ele>581.4</ele>
        <time>2025-12-29T12:32:10Z</time>
      </trkpt>
      <trkpt lat="43.12664" lon="0.48716">
        <ele>582.2</ele>
        <time>2025-12-29T12:32:11Z</time>
      </trkpt>
      <trkpt lat="43.12663" lon="0.4871">
        <ele>582.2</ele>
        <time>2025-12-29T12:32:12Z</time>
      </trkpt>
      <trkpt lat="43.12661" lon="0.48704">
        <ele>582.2</ele>
        <time>2025-12-29T12:32:13Z</time>
      </trkpt>
      <trkpt lat="43.12659" lon="0.48698">
        <ele>582.2</ele>
        <time>2025-12-29T12:32:14Z</time>
      </trkpt>
      <trkpt lat="43.12657" lon="0.48692">
        <ele>582</ele>
        <time>2025-12-29T12:32:15Z</time>
      </trkpt>
      <trkpt lat="43.12655" lon="0.48685">
        <ele>582</ele>
        <time>2025-12-29T12:32:16Z</time>
      </trkpt>
      <trkpt lat="43.12653" lon="0.48679">
        <ele>582</ele>
        <time>2025-12-29T12:32:17Z</time>
      </trkpt>
      <trkpt lat="43.12652" lon="0.48672">
        <ele>582</ele>
        <time>2025-12-29T12:32:18Z</time>
      </trkpt>
      <trkpt lat="43.1265" lon="0.48666">
        <ele>581.8</ele>
        <time>2025-12-29T12:32:19Z</time>
      </trkpt>
      <trkpt lat="43.12648" lon="0.4866">
        <ele>581.8</ele>
        <time>2025-12-29T12:32:20Z</time>
      </trkpt>
      <trkpt lat="43.12647" lon="0.48653">
        <ele>581.8</ele>
        <time>2025-12-29T12:32:21Z</time>
      </trkpt>
      <trkpt lat="43.12644" lon="0.48647">
        <ele>581.8</ele>
        <time>2025-12-29T12:32:22Z</time>
      </trkpt>
      <trkpt lat="43.12643" lon="0.48641">
        <ele>581.8</ele>
        <time>2025-12-29T12:32:23Z</time>
      </trkpt>
      <trkpt lat="43.12641" lon="0.48635">
        <ele>581.8</ele>
        <time>2025-12-29T12:32:24Z</time>
      </trkpt>
      <trkpt lat="43.12639" lon="0.48628">
        <ele>581.8</ele>
        <time>2025-12-29T12:32:25Z</time>
      </trkpt>
      <trkpt lat="43.12638" lon="0.48622">
        <ele>581.6</ele>
        <time>2025-12-29T12:32:26Z</time>
      </trkpt>
      <trkpt lat="43.12636" lon="0.48616">
        <ele>581.4</ele>
        <time>2025-12-29T12:32:27Z</time>
      </trkpt>
      <trkpt lat="43.12634" lon="0.48609">
        <ele>581.4</ele>
        <time>2025-12-29T12:32:28Z</time>
      </trkpt>
      <trkpt lat="43.12632" lon="0.48603">
        <ele>581.4</ele>
        <time>2025-12-29T12:32:29Z</time>
      </trkpt>
      <trkpt lat="43.1263" lon="0.48597">
        <ele>582</ele>
        <time>2025-12-29T12:32:30Z</time>
      </trkpt>
      <trkpt lat="43.12629" lon="0.4859">
        <ele>581.6</ele>
        <time>2025-12-29T12:32:31Z</time>
      </trkpt>
      <trkpt lat="43.12627" lon="0.48584">
        <ele>581.6</ele>
        <time>2025-12-29T12:32:32Z</time>
      </trkpt>
      <trkpt lat="43.12625" lon="0.48577">
        <ele>581.6</ele>
        <time>2025-12-29T12:32:33Z</time>
      </trkpt>
      <trkpt lat="43.12623" lon="0.4857">
        <ele>581.6</ele>
        <time>2025-12-29T12:32:34Z</time>
      </trkpt>
      <trkpt lat="43.12622" lon="0.48564">
        <ele>580.6</ele>
        <time>2025-12-29T12:32:35Z</time>
      </trkpt>
      <trkpt lat="43.1262" lon="0.48557">
        <ele>580.6</ele>
        <time>2025-12-29T12:32:36Z</time>
      </trkpt>
      <trkpt lat="43.12618" lon="0.48551">
        <ele>580.6</ele>
        <time>2025-12-29T12:32:37Z</time>
      </trkpt>
      <trkpt lat="43.12616" lon="0.48544">
        <ele>580.8</ele>
        <time>2025-12-29T12:32:38Z</time>
      </trkpt>
      <trkpt lat="43.12614" lon="0.48538">
        <ele>581</ele>
        <time>2025-12-29T12:32:39Z</time>
      </trkpt>
      <trkpt lat="43.12612" lon="0.48531">
        <ele>581</ele>
        <time>2025-12-29T12:32:40Z</time>
      </trkpt>
      <trkpt lat="43.12611" lon="0.48525">
        <ele>581</ele>
        <time>2025-12-29T12:32:41Z</time>
      </trkpt>
      <trkpt lat="43.12609" lon="0.48518">
        <ele>581.6</ele>
        <time>2025-12-29T12:32:42Z</time>
      </trkpt>
      <trkpt lat="43.12607" lon="0.48512">
        <ele>581.4</ele>
        <time>2025-12-29T12:32:43Z</time>
      </trkpt>
      <trkpt lat="43.12605" lon="0.48505">
        <ele>581.4</ele>
        <time>2025-12-29T12:32:44Z</time>
      </trkpt>
      <trkpt lat="43.12604" lon="0.48499">
        <ele>581.4</ele>
        <time>2025-12-29T12:32:45Z</time>
      </trkpt>
      <trkpt lat="43.12602" lon="0.48492">
        <ele>581.4</ele>
        <time>2025-12-29T12:32:46Z</time>
      </trkpt>
      <trkpt lat="43.126" lon="0.48486">
        <ele>581.6</ele>
        <time>2025-12-29T12:32:47Z</time>
      </trkpt>
      <trkpt lat="43.12599" lon="0.4848">
        <ele>581.6</ele>
        <time>2025-12-29T12:32:48Z</time>
      </trkpt>
      <trkpt lat="43.12597" lon="0.48473">
        <ele>581.6</ele>
        <time>2025-12-29T12:32:49Z</time>
      </trkpt>
      <trkpt lat="43.12595" lon="0.48467">
        <ele>581.6</ele>
        <time>2025-12-29T12:32:50Z</time>
      </trkpt>
      <trkpt lat="43.12594" lon="0.48461">
        <ele>581.8</ele>
        <time>2025-12-29T12:32:51Z</time>
      </trkpt>
      <trkpt lat="43.12592" lon="0.48454">
        <ele>581.8</ele>
        <time>2025-12-29T12:32:52Z</time>
      </trkpt>
      <trkpt lat="43.1259" lon="0.48448">
        <ele>581.8</ele>
        <time>2025-12-29T12:32:53Z</time>
      </trkpt>
      <trkpt lat="43.12589" lon="0.48442">
        <ele>582</ele>
        <time>2025-12-29T12:32:54Z</time>
      </trkpt>
      <trkpt lat="43.12587" lon="0.48435">
        <ele>581.4</ele>
        <time>2025-12-29T12:32:55Z</time>
      </trkpt>
      <trkpt lat="43.12585" lon="0.48429">
        <ele>581.4</ele>
        <time>2025-12-29T12:32:56Z</time>
      </trkpt>
      <trkpt lat="43.12583" lon="0.48423">
        <ele>581.4</ele>
        <time>2025-12-29T12:32:57Z</time>
      </trkpt>
      <trkpt lat="43.12582" lon="0.48417">
        <ele>581.4</ele>
        <time>2025-12-29T12:32:58Z</time>
      </trkpt>
      <trkpt lat="43.1258" lon="0.48411">
        <ele>581.6</ele>
        <time>2025-12-29T12:32:59Z</time>
      </trkpt>
      <trkpt lat="43.12578" lon="0.48405">
        <ele>581.6</ele>
        <time>2025-12-29T12:33:00Z</time>
      </trkpt>
      <trkpt lat="43.12576" lon="0.48399">
        <ele>581.6</ele>
        <time>2025-12-29T12:33:01Z</time>
      </trkpt>
      <trkpt lat="43.12574" lon="0.48393">
        <ele>581.6</ele>
        <time>2025-12-29T12:33:02Z</time>
      </trkpt>
      <trkpt lat="43.12573" lon="0.48387">
        <ele>582.4</ele>
        <time>2025-12-29T12:33:03Z</time>
      </trkpt>
      <trkpt lat="43.12571" lon="0.48381">
        <ele>582.4</ele>
        <time>2025-12-29T12:33:04Z</time>
      </trkpt>
      <trkpt lat="43.12569" lon="0.48375">
        <ele>582.4</ele>
        <time>2025-12-29T12:33:05Z</time>
      </trkpt>
      <trkpt lat="43.12567" lon="0.48369">
        <ele>582</ele>
        <time>2025-12-29T12:33:06Z</time>
      </trkpt>
      <trkpt lat="43.12565" lon="0.48363">
        <ele>582.8</ele>
        <time>2025-12-29T12:33:07Z</time>
      </trkpt>
      <trkpt lat="43.12563" lon="0.48357">
        <ele>582.8</ele>
        <time>2025-12-29T12:33:08Z</time>
      </trkpt>
      <trkpt lat="43.12561" lon="0.48351">
        <ele>582.8</ele>
        <time>2025-12-29T12:33:09Z</time>
      </trkpt>
      <trkpt lat="43.12559" lon="0.48345">
        <ele>582.2</ele>
        <time>2025-12-29T12:33:10Z</time>
      </trkpt>
      <trkpt lat="43.12557" lon="0.48339">
        <ele>581.4</ele>
        <time>2025-12-29T12:33:11Z</time>
      </trkpt>
      <trkpt lat="43.12555" lon="0.48334">
        <ele>581.4</ele>
        <time>2025-12-29T12:33:12Z</time>
      </trkpt>
      <trkpt lat="43.12553" lon="0.48328">
        <ele>581.4</ele>
        <time>2025-12-29T12:33:13Z</time>
      </trkpt>
      <trkpt lat="43.12551" lon="0.48322">
        <ele>582.4</ele>
        <time>2025-12-29T12:33:14Z</time>
      </trkpt>
      <trkpt lat="43.12549" lon="0.48317">
        <ele>583</ele>
        <time>2025-12-29T12:33:15Z</time>
      </trkpt>
      <trkpt lat="43.12547" lon="0.48311">
        <ele>583</ele>
        <time>2025-12-29T12:33:16Z</time>
      </trkpt>
      <trkpt lat="43.12545" lon="0.48306">
        <ele>583</ele>
        <time>2025-12-29T12:33:17Z</time>
      </trkpt>
      <trkpt lat="43.12544" lon="0.483">
        <ele>583</ele>
        <time>2025-12-29T12:33:18Z</time>
      </trkpt>
      <trkpt lat="43.12541" lon="0.48294">
        <ele>582.6</ele>
        <time>2025-12-29T12:33:19Z</time>
      </trkpt>
      <trkpt lat="43.12539" lon="0.48289">
        <ele>582.6</ele>
        <time>2025-12-29T12:33:20Z</time>
      </trkpt>
      <trkpt lat="43.12538" lon="0.48283">
        <ele>582.6</ele>
        <time>2025-12-29T12:33:21Z</time>
      </trkpt>
      <trkpt lat="43.12536" lon="0.48277">
        <ele>583.4</ele>
        <time>2025-12-29T12:33:22Z</time>
      </trkpt>
      <trkpt lat="43.12534" lon="0.48271">
        <ele>582.8</ele>
        <time>2025-12-29T12:33:23Z</time>
      </trkpt>
      <trkpt lat="43.12532" lon="0.48266">
        <ele>582.8</ele>
        <time>2025-12-29T12:33:24Z</time>
      </trkpt>
      <trkpt lat="43.1253" lon="0.4826">
        <ele>582.8</ele>
        <time>2025-12-29T12:33:25Z</time>
      </trkpt>
      <trkpt lat="43.12528" lon="0.48255">
        <ele>583.8</ele>
        <time>2025-12-29T12:33:26Z</time>
      </trkpt>
      <trkpt lat="43.12526" lon="0.48249">
        <ele>583.8</ele>
        <time>2025-12-29T12:33:27Z</time>
      </trkpt>
      <trkpt lat="43.12524" lon="0.48243">
        <ele>583.8</ele>
        <time>2025-12-29T12:33:28Z</time>
      </trkpt>
      <trkpt lat="43.12522" lon="0.48238">
        <ele>583.8</ele>
        <time>2025-12-29T12:33:29Z</time>
      </trkpt>
      <trkpt lat="43.1252" lon="0.48233">
        <ele>583.8</ele>
        <time>2025-12-29T12:33:30Z</time>
      </trkpt>
      <trkpt lat="43.12518" lon="0.48227">
        <ele>584</ele>
        <time>2025-12-29T12:33:31Z</time>
      </trkpt>
      <trkpt lat="43.12517" lon="0.48221">
        <ele>584</ele>
        <time>2025-12-29T12:33:32Z</time>
      </trkpt>
      <trkpt lat="43.12515" lon="0.48216">
        <ele>584</ele>
        <time>2025-12-29T12:33:33Z</time>
      </trkpt>
      <trkpt lat="43.12513" lon="0.4821">
        <ele>584.4</ele>
        <time>2025-12-29T12:33:34Z</time>
      </trkpt>
      <trkpt lat="43.12511" lon="0.48205">
        <ele>584.6</ele>
        <time>2025-12-29T12:33:35Z</time>
      </trkpt>
      <trkpt lat="43.12509" lon="0.48199">
        <ele>584.6</ele>
        <time>2025-12-29T12:33:36Z</time>
      </trkpt>
      <trkpt lat="43.12506" lon="0.48193">
        <ele>584.6</ele>
        <time>2025-12-29T12:33:37Z</time>
      </trkpt>
      <trkpt lat="43.12505" lon="0.48188">
        <ele>584.6</ele>
        <time>2025-12-29T12:33:38Z</time>
      </trkpt>
      <trkpt lat="43.12503" lon="0.48182">
        <ele>585</ele>
        <time>2025-12-29T12:33:39Z</time>
      </trkpt>
      <trkpt lat="43.12501" lon="0.48177">
        <ele>585</ele>
        <time>2025-12-29T12:33:40Z</time>
      </trkpt>
      <trkpt lat="43.12499" lon="0.48171">
        <ele>585</ele>
        <time>2025-12-29T12:33:41Z</time>
      </trkpt>
      <trkpt lat="43.12497" lon="0.48165">
        <ele>585</ele>
        <time>2025-12-29T12:33:42Z</time>
      </trkpt>
      <trkpt lat="43.12495" lon="0.48159">
        <ele>585.2</ele>
        <time>2025-12-29T12:33:43Z</time>
      </trkpt>
      <trkpt lat="43.12493" lon="0.48154">
        <ele>585.2</ele>
        <time>2025-12-29T12:33:44Z</time>
      </trkpt>
      <trkpt lat="43.12491" lon="0.48148">
        <ele>585.2</ele>
        <time>2025-12-29T12:33:45Z</time>
      </trkpt>
      <trkpt lat="43.12489" lon="0.48142">
        <ele>585</ele>
        <time>2025-12-29T12:33:46Z</time>
      </trkpt>
      <trkpt lat="43.12487" lon="0.48136">
        <ele>584.6</ele>
        <time>2025-12-29T12:33:47Z</time>
      </trkpt>
      <trkpt lat="43.12485" lon="0.4813">
        <ele>584.6</ele>
        <time>2025-12-29T12:33:48Z</time>
      </trkpt>
      <trkpt lat="43.12483" lon="0.48124">
        <ele>584.6</ele>
        <time>2025-12-29T12:33:49Z</time>
      </trkpt>
      <trkpt lat="43.12481" lon="0.48118">
        <ele>584.6</ele>
        <time>2025-12-29T12:33:50Z</time>
      </trkpt>
      <trkpt lat="43.12479" lon="0.48112">
        <ele>584.6</ele>
        <time>2025-12-29T12:33:51Z</time>
      </trkpt>
      <trkpt lat="43.12477" lon="0.48106">
        <ele>584.6</ele>
        <time>2025-12-29T12:33:52Z</time>
      </trkpt>
      <trkpt lat="43.12475" lon="0.48101">
        <ele>584.6</ele>
        <time>2025-12-29T12:33:53Z</time>
      </trkpt>
      <trkpt lat="43.12473" lon="0.48095">
        <ele>584.6</ele>
        <time>2025-12-29T12:33:54Z</time>
      </trkpt>
      <trkpt lat="43.12471" lon="0.4809">
        <ele>585</ele>
        <time>2025-12-29T12:33:55Z</time>
      </trkpt>
      <trkpt lat="43.12469" lon="0.48083">
        <ele>585</ele>
        <time>2025-12-29T12:33:56Z</time>
      </trkpt>
      <trkpt lat="43.12467" lon="0.48077">
        <ele>585</ele>
        <time>2025-12-29T12:33:57Z</time>
      </trkpt>
      <trkpt lat="43.12465" lon="0.4807">
        <ele>584.2</ele>
        <time>2025-12-29T12:33:58Z</time>
      </trkpt>
      <trkpt lat="43.12463" lon="0.48064">
        <ele>584.2</ele>
        <time>2025-12-29T12:33:59Z</time>
      </trkpt>
      <trkpt lat="43.12461" lon="0.48057">
        <ele>584.2</ele>
        <time>2025-12-29T12:34:00Z</time>
      </trkpt>
      <trkpt lat="43.12459" lon="0.48051">
        <ele>584.2</ele>
        <time>2025-12-29T12:34:01Z</time>
      </trkpt>
      <trkpt lat="43.12456" lon="0.48045">
        <ele>584.2</ele>
        <time>2025-12-29T12:34:02Z</time>
      </trkpt>
      <trkpt lat="43.12454" lon="0.48039">
        <ele>584.2</ele>
        <time>2025-12-29T12:34:03Z</time>
      </trkpt>
      <trkpt lat="43.12452" lon="0.48033">
        <ele>584.2</ele>
        <time>2025-12-29T12:34:04Z</time>
      </trkpt>
      <trkpt lat="43.12449" lon="0.48027">
        <ele>584.2</ele>
        <time>2025-12-29T12:34:05Z</time>
      </trkpt>
      <trkpt lat="43.12447" lon="0.4802">
        <ele>584.2</ele>
        <time>2025-12-29T12:34:06Z</time>
      </trkpt>
      <trkpt lat="43.12445" lon="0.48014">
        <ele>584.4</ele>
        <time>2025-12-29T12:34:07Z</time>
      </trkpt>
      <trkpt lat="43.12442" lon="0.48007">
        <ele>584.4</ele>
        <time>2025-12-29T12:34:08Z</time>
      </trkpt>
      <trkpt lat="43.1244" lon="0.48001">
        <ele>584.4</ele>
        <time>2025-12-29T12:34:09Z</time>
      </trkpt>
      <trkpt lat="43.12438" lon="0.47994">
        <ele>583.8</ele>
        <time>2025-12-29T12:34:10Z</time>
      </trkpt>
      <trkpt lat="43.12436" lon="0.47988">
        <ele>583.6</ele>
        <time>2025-12-29T12:34:11Z</time>
      </trkpt>
      <trkpt lat="43.12434" lon="0.47982">
        <ele>583.6</ele>
        <time>2025-12-29T12:34:12Z</time>
      </trkpt>
      <trkpt lat="43.12432" lon="0.47975">
        <ele>583.6</ele>
        <time>2025-12-29T12:34:13Z</time>
      </trkpt>
      <trkpt lat="43.1243" lon="0.47969">
        <ele>583.6</ele>
        <time>2025-12-29T12:34:14Z</time>
      </trkpt>
      <trkpt lat="43.12428" lon="0.47963">
        <ele>583.6</ele>
        <time>2025-12-29T12:34:15Z</time>
      </trkpt>
      <trkpt lat="43.12426" lon="0.47956">
        <ele>583.6</ele>
        <time>2025-12-29T12:34:16Z</time>
      </trkpt>
      <trkpt lat="43.12424" lon="0.4795">
        <ele>583.6</ele>
        <time>2025-12-29T12:34:17Z</time>
      </trkpt>
      <trkpt lat="43.12421" lon="0.47944">
        <ele>583.6</ele>
        <time>2025-12-29T12:34:18Z</time>
      </trkpt>
      <trkpt lat="43.12419" lon="0.47938">
        <ele>583.6</ele>
        <time>2025-12-29T12:34:19Z</time>
      </trkpt>
      <trkpt lat="43.12417" lon="0.47932">
        <ele>583.6</ele>
        <time>2025-12-29T12:34:20Z</time>
      </trkpt>
      <trkpt lat="43.12415" lon="0.47925">
        <ele>583.6</ele>
        <time>2025-12-29T12:34:21Z</time>
      </trkpt>
      <trkpt lat="43.12413" lon="0.47919">
        <ele>582.6</ele>
        <time>2025-12-29T12:34:22Z</time>
      </trkpt>
      <trkpt lat="43.1241" lon="0.47912">
        <ele>583</ele>
        <time>2025-12-29T12:34:23Z</time>
      </trkpt>
      <trkpt lat="43.12408" lon="0.47906">
        <ele>583</ele>
        <time>2025-12-29T12:34:24Z</time>
      </trkpt>
      <trkpt lat="43.12406" lon="0.47899">
        <ele>583</ele>
        <time>2025-12-29T12:34:25Z</time>
      </trkpt>
      <trkpt lat="43.12403" lon="0.47892">
        <ele>583.6</ele>
        <time>2025-12-29T12:34:26Z</time>
      </trkpt>
      <trkpt lat="43.12401" lon="0.47886">
        <ele>583.2</ele>
        <time>2025-12-29T12:34:27Z</time>
      </trkpt>
      <trkpt lat="43.12399" lon="0.47879">
        <ele>583.2</ele>
        <time>2025-12-29T12:34:28Z</time>
      </trkpt>
      <trkpt lat="43.12397" lon="0.47873">
        <ele>583.2</ele>
        <time>2025-12-29T12:34:29Z</time>
      </trkpt>
      <trkpt lat="43.12394" lon="0.47866">
        <ele>583.2</ele>
        <time>2025-12-29T12:34:30Z</time>
      </trkpt>
      <trkpt lat="43.12392" lon="0.4786">
        <ele>583.4</ele>
        <time>2025-12-29T12:34:31Z</time>
      </trkpt>
      <trkpt lat="43.1239" lon="0.47853">
        <ele>583.4</ele>
        <time>2025-12-29T12:34:32Z</time>
      </trkpt>
      <trkpt lat="43.12387" lon="0.47847">
        <ele>583.4</ele>
        <time>2025-12-29T12:34:33Z</time>
      </trkpt>
      <trkpt lat="43.12385" lon="0.47841">
        <ele>583.4</ele>
        <time>2025-12-29T12:34:34Z</time>
      </trkpt>
      <trkpt lat="43.12383" lon="0.47835">
        <ele>584.2</ele>
        <time>2025-12-29T12:34:35Z</time>
      </trkpt>
      <trkpt lat="43.12381" lon="0.47829">
        <ele>584.2</ele>
        <time>2025-12-29T12:34:36Z</time>
      </trkpt>
      <trkpt lat="43.12379" lon="0.47823">
        <ele>584.2</ele>
        <time>2025-12-29T12:34:37Z</time>
      </trkpt>
      <trkpt lat="43.12377" lon="0.47817">
        <ele>583.6</ele>
        <time>2025-12-29T12:34:38Z</time>
      </trkpt>
      <trkpt lat="43.12375" lon="0.47811">
        <ele>584</ele>
        <time>2025-12-29T12:34:39Z</time>
      </trkpt>
      <trkpt lat="43.12373" lon="0.47805">
        <ele>584</ele>
        <time>2025-12-29T12:34:40Z</time>
      </trkpt>
      <trkpt lat="43.12371" lon="0.47799">
        <ele>584</ele>
        <time>2025-12-29T12:34:41Z</time>
      </trkpt>
      <trkpt lat="43.12368" lon="0.47793">
        <ele>584</ele>
        <time>2025-12-29T12:34:42Z</time>
      </trkpt>
      <trkpt lat="43.12366" lon="0.47787">
        <ele>584.2</ele>
        <time>2025-12-29T12:34:43Z</time>
      </trkpt>
      <trkpt lat="43.12364" lon="0.47781">
        <ele>584.2</ele>
        <time>2025-12-29T12:34:44Z</time>
      </trkpt>
      <trkpt lat="43.12362" lon="0.47775">
        <ele>584.2</ele>
        <time>2025-12-29T12:34:45Z</time>
      </trkpt>
      <trkpt lat="43.1236" lon="0.47769">
        <ele>584.8</ele>
        <time>2025-12-29T12:34:46Z</time>
      </trkpt>
      <trkpt lat="43.12357" lon="0.47764">
        <ele>584.8</ele>
        <time>2025-12-29T12:34:47Z</time>
      </trkpt>
      <trkpt lat="43.12355" lon="0.47758">
        <ele>584.8</ele>
        <time>2025-12-29T12:34:48Z</time>
      </trkpt>
      <trkpt lat="43.12353" lon="0.47752">
        <ele>584.8</ele>
        <time>2025-12-29T12:34:49Z</time>
      </trkpt>
      <trkpt lat="43.12351" lon="0.47747">
        <ele>584.2</ele>
        <time>2025-12-29T12:34:50Z</time>
      </trkpt>
      <trkpt lat="43.12349" lon="0.47741">
        <ele>583.8</ele>
        <time>2025-12-29T12:34:51Z</time>
      </trkpt>
      <trkpt lat="43.12346" lon="0.47736">
        <ele>583.8</ele>
        <time>2025-12-29T12:34:52Z</time>
      </trkpt>
      <trkpt lat="43.12344" lon="0.4773">
        <ele>583.8</ele>
        <time>2025-12-29T12:34:53Z</time>
      </trkpt>
      <trkpt lat="43.12342" lon="0.47725">
        <ele>584.8</ele>
        <time>2025-12-29T12:34:54Z</time>
      </trkpt>
      <trkpt lat="43.12339" lon="0.4772">
        <ele>585.4</ele>
        <time>2025-12-29T12:34:55Z</time>
      </trkpt>
      <trkpt lat="43.12337" lon="0.47714">
        <ele>585.4</ele>
        <time>2025-12-29T12:34:56Z</time>
      </trkpt>
      <trkpt lat="43.12335" lon="0.47708">
        <ele>585.4</ele>
        <time>2025-12-29T12:34:57Z</time>
      </trkpt>
      <trkpt lat="43.12333" lon="0.47703">
        <ele>585.4</ele>
        <time>2025-12-29T12:34:58Z</time>
      </trkpt>
      <trkpt lat="43.12331" lon="0.47697">
        <ele>585.8</ele>
        <time>2025-12-29T12:34:59Z</time>
      </trkpt>
      <trkpt lat="43.12328" lon="0.47692">
        <ele>585.8</ele>
        <time>2025-12-29T12:35:00Z</time>
      </trkpt>
      <trkpt lat="43.12326" lon="0.47686">
        <ele>585.8</ele>
        <time>2025-12-29T12:35:01Z</time>
      </trkpt>
      <trkpt lat="43.12324" lon="0.47681">
        <ele>585.4</ele>
        <time>2025-12-29T12:35:02Z</time>
      </trkpt>
      <trkpt lat="43.12321" lon="0.47675">
        <ele>585.4</ele>
        <time>2025-12-29T12:35:03Z</time>
      </trkpt>
      <trkpt lat="43.12319" lon="0.4767">
        <ele>585.4</ele>
        <time>2025-12-29T12:35:04Z</time>
      </trkpt>
      <trkpt lat="43.12317" lon="0.47664">
        <ele>585.4</ele>
        <time>2025-12-29T12:35:05Z</time>
      </trkpt>
      <trkpt lat="43.12315" lon="0.47659">
        <ele>585.4</ele>
        <time>2025-12-29T12:35:06Z</time>
      </trkpt>
      <trkpt lat="43.12312" lon="0.47653">
        <ele>586.2</ele>
        <time>2025-12-29T12:35:07Z</time>
      </trkpt>
      <trkpt lat="43.1231" lon="0.47648">
        <ele>586.2</ele>
        <time>2025-12-29T12:35:08Z</time>
      </trkpt>
      <trkpt lat="43.12307" lon="0.47642">
        <ele>586.2</ele>
        <time>2025-12-29T12:35:09Z</time>
      </trkpt>
      <trkpt lat="43.12305" lon="0.47636">
        <ele>585.2</ele>
        <time>2025-12-29T12:35:10Z</time>
      </trkpt>
      <trkpt lat="43.12303" lon="0.47631">
        <ele>585.4</ele>
        <time>2025-12-29T12:35:11Z</time>
      </trkpt>
      <trkpt lat="43.12301" lon="0.47625">
        <ele>585.4</ele>
        <time>2025-12-29T12:35:12Z</time>
      </trkpt>
      <trkpt lat="43.12299" lon="0.47619">
        <ele>585.4</ele>
        <time>2025-12-29T12:35:13Z</time>
      </trkpt>
      <trkpt lat="43.12297" lon="0.47614">
        <ele>585.4</ele>
        <time>2025-12-29T12:35:14Z</time>
      </trkpt>
      <trkpt lat="43.12294" lon="0.47608">
        <ele>585.4</ele>
        <time>2025-12-29T12:35:15Z</time>
      </trkpt>
      <trkpt lat="43.12292" lon="0.47603">
        <ele>585.4</ele>
        <time>2025-12-29T12:35:16Z</time>
      </trkpt>
      <trkpt lat="43.1229" lon="0.47597">
        <ele>585.4</ele>
        <time>2025-12-29T12:35:17Z</time>
      </trkpt>
      <trkpt lat="43.12287" lon="0.47592">
        <ele>585.4</ele>
        <time>2025-12-29T12:35:18Z</time>
      </trkpt>
      <trkpt lat="43.12285" lon="0.47586">
        <ele>586.2</ele>
        <time>2025-12-29T12:35:19Z</time>
      </trkpt>
      <trkpt lat="43.12282" lon="0.47581">
        <ele>586.2</ele>
        <time>2025-12-29T12:35:20Z</time>
      </trkpt>
      <trkpt lat="43.1228" lon="0.47576">
        <ele>586.2</ele>
        <time>2025-12-29T12:35:21Z</time>
      </trkpt>
      <trkpt lat="43.12278" lon="0.47571">
        <ele>585.4</ele>
        <time>2025-12-29T12:35:22Z</time>
      </trkpt>
      <trkpt lat="43.12276" lon="0.47566">
        <ele>585.8</ele>
        <time>2025-12-29T12:35:23Z</time>
      </trkpt>
      <trkpt lat="43.12274" lon="0.47561">
        <ele>585.8</ele>
        <time>2025-12-29T12:35:24Z</time>
      </trkpt>
      <trkpt lat="43.12271" lon="0.47555">
        <ele>585.8</ele>
        <time>2025-12-29T12:35:25Z</time>
      </trkpt>
      <trkpt lat="43.12269" lon="0.4755">
        <ele>585.4</ele>
        <time>2025-12-29T12:35:26Z</time>
      </trkpt>
      <trkpt lat="43.12267" lon="0.47545">
        <ele>585</ele>
        <time>2025-12-29T12:35:27Z</time>
      </trkpt>
      <trkpt lat="43.12265" lon="0.47539">
        <ele>585</ele>
        <time>2025-12-29T12:35:28Z</time>
      </trkpt>
      <trkpt lat="43.12262" lon="0.47534">
        <ele>585</ele>
        <time>2025-12-29T12:35:29Z</time>
      </trkpt>
      <trkpt lat="43.1226" lon="0.47528">
        <ele>585.8</ele>
        <time>2025-12-29T12:35:30Z</time>
      </trkpt>
      <trkpt lat="43.12258" lon="0.47522">
        <ele>586</ele>
        <time>2025-12-29T12:35:31Z</time>
      </trkpt>
      <trkpt lat="43.12255" lon="0.47517">
        <ele>586</ele>
        <time>2025-12-29T12:35:32Z</time>
      </trkpt>
      <trkpt lat="43.12253" lon="0.47511">
        <ele>586</ele>
        <time>2025-12-29T12:35:33Z</time>
      </trkpt>
      <trkpt lat="43.12251" lon="0.47505">
        <ele>586</ele>
        <time>2025-12-29T12:35:34Z</time>
      </trkpt>
      <trkpt lat="43.12248" lon="0.475">
        <ele>586.8</ele>
        <time>2025-12-29T12:35:35Z</time>
      </trkpt>
      <trkpt lat="43.12246" lon="0.47494">
        <ele>586.8</ele>
        <time>2025-12-29T12:35:36Z</time>
      </trkpt>
      <trkpt lat="43.12244" lon="0.47489">
        <ele>586.8</ele>
        <time>2025-12-29T12:35:37Z</time>
      </trkpt>
      <trkpt lat="43.12242" lon="0.47484">
        <ele>586.6</ele>
        <time>2025-12-29T12:35:38Z</time>
      </trkpt>
      <trkpt lat="43.12239" lon="0.47478">
        <ele>586.2</ele>
        <time>2025-12-29T12:35:39Z</time>
      </trkpt>
      <trkpt lat="43.12237" lon="0.47473">
        <ele>586.2</ele>
        <time>2025-12-29T12:35:40Z</time>
      </trkpt>
      <trkpt lat="43.12235" lon="0.47467">
        <ele>586.2</ele>
        <time>2025-12-29T12:35:41Z</time>
      </trkpt>
      <trkpt lat="43.12232" lon="0.47462">
        <ele>586.6</ele>
        <time>2025-12-29T12:35:42Z</time>
      </trkpt>
      <trkpt lat="43.1223" lon="0.47456">
        <ele>586.6</ele>
        <time>2025-12-29T12:35:43Z</time>
      </trkpt>
      <trkpt lat="43.12228" lon="0.47451">
        <ele>586.6</ele>
        <time>2025-12-29T12:35:44Z</time>
      </trkpt>
      <trkpt lat="43.12226" lon="0.47446">
        <ele>586.6</ele>
        <time>2025-12-29T12:35:45Z</time>
      </trkpt>
      <trkpt lat="43.12224" lon="0.4744">
        <ele>587</ele>
        <time>2025-12-29T12:35:46Z</time>
      </trkpt>
      <trkpt lat="43.12222" lon="0.47435">
        <ele>587.6</ele>
        <time>2025-12-29T12:35:47Z</time>
      </trkpt>
      <trkpt lat="43.1222" lon="0.4743">
        <ele>587.6</ele>
        <time>2025-12-29T12:35:48Z</time>
      </trkpt>
      <trkpt lat="43.12218" lon="0.47425">
        <ele>587.6</ele>
        <time>2025-12-29T12:35:49Z</time>
      </trkpt>
      <trkpt lat="43.12215" lon="0.4742">
        <ele>587.6</ele>
        <time>2025-12-29T12:35:50Z</time>
      </trkpt>
      <trkpt lat="43.12213" lon="0.47414">
        <ele>587.6</ele>
        <time>2025-12-29T12:35:51Z</time>
      </trkpt>
      <trkpt lat="43.12211" lon="0.47409">
        <ele>587.6</ele>
        <time>2025-12-29T12:35:52Z</time>
      </trkpt>
      <trkpt lat="43.12209" lon="0.47403">
        <ele>587.6</ele>
        <time>2025-12-29T12:35:53Z</time>
      </trkpt>
      <trkpt lat="43.12206" lon="0.47398">
        <ele>587.4</ele>
        <time>2025-12-29T12:35:54Z</time>
      </trkpt>
      <trkpt lat="43.12204" lon="0.47393">
        <ele>587.6</ele>
        <time>2025-12-29T12:35:55Z</time>
      </trkpt>
      <trkpt lat="43.12201" lon="0.47387">
        <ele>587.6</ele>
        <time>2025-12-29T12:35:56Z</time>
      </trkpt>
      <trkpt lat="43.12199" lon="0.47382">
        <ele>587.6</ele>
        <time>2025-12-29T12:35:57Z</time>
      </trkpt>
      <trkpt lat="43.12197" lon="0.47376">
        <ele>588.2</ele>
        <time>2025-12-29T12:35:58Z</time>
      </trkpt>
      <trkpt lat="43.12195" lon="0.47371">
        <ele>588.6</ele>
        <time>2025-12-29T12:35:59Z</time>
      </trkpt>
      <trkpt lat="43.12193" lon="0.47366">
        <ele>588.6</ele>
        <time>2025-12-29T12:36:00Z</time>
      </trkpt>
      <trkpt lat="43.12191" lon="0.4736">
        <ele>588.6</ele>
        <time>2025-12-29T12:36:01Z</time>
      </trkpt>
      <trkpt lat="43.12188" lon="0.47355">
        <ele>587.6</ele>
        <time>2025-12-29T12:36:02Z</time>
      </trkpt>
      <trkpt lat="43.12186" lon="0.4735">
        <ele>587.6</ele>
        <time>2025-12-29T12:36:03Z</time>
      </trkpt>
      <trkpt lat="43.12184" lon="0.47344">
        <ele>587.6</ele>
        <time>2025-12-29T12:36:04Z</time>
      </trkpt>
      <trkpt lat="43.12182" lon="0.47339">
        <ele>587.6</ele>
        <time>2025-12-29T12:36:05Z</time>
      </trkpt>
      <trkpt lat="43.1218" lon="0.47334">
        <ele>588.2</ele>
        <time>2025-12-29T12:36:06Z</time>
      </trkpt>
      <trkpt lat="43.12177" lon="0.47328">
        <ele>588.4</ele>
        <time>2025-12-29T12:36:07Z</time>
      </trkpt>
      <trkpt lat="43.12175" lon="0.47323">
        <ele>588.4</ele>
        <time>2025-12-29T12:36:08Z</time>
      </trkpt>
      <trkpt lat="43.12173" lon="0.47318">
        <ele>588.4</ele>
        <time>2025-12-29T12:36:09Z</time>
      </trkpt>
      <trkpt lat="43.12171" lon="0.47312">
        <ele>587.8</ele>
        <time>2025-12-29T12:36:10Z</time>
      </trkpt>
      <trkpt lat="43.12169" lon="0.47307">
        <ele>588</ele>
        <time>2025-12-29T12:36:11Z</time>
      </trkpt>
      <trkpt lat="43.12166" lon="0.47302">
        <ele>588</ele>
        <time>2025-12-29T12:36:12Z</time>
      </trkpt>
      <trkpt lat="43.12164" lon="0.47296">
        <ele>588</ele>
        <time>2025-12-29T12:36:13Z</time>
      </trkpt>
      <trkpt lat="43.12162" lon="0.47291">
        <ele>588</ele>
        <time>2025-12-29T12:36:14Z</time>
      </trkpt>
      <trkpt lat="43.1216" lon="0.47286">
        <ele>588</ele>
        <time>2025-12-29T12:36:15Z</time>
      </trkpt>
      <trkpt lat="43.12158" lon="0.47281">
        <ele>588</ele>
        <time>2025-12-29T12:36:16Z</time>
      </trkpt>
      <trkpt lat="43.12155" lon="0.47276">
        <ele>588</ele>
        <time>2025-12-29T12:36:17Z</time>
      </trkpt>
      <trkpt lat="43.12153" lon="0.47271">
        <ele>588</ele>
        <time>2025-12-29T12:36:18Z</time>
      </trkpt>
      <trkpt lat="43.12151" lon="0.47266">
        <ele>588.2</ele>
        <time>2025-12-29T12:36:19Z</time>
      </trkpt>
      <trkpt lat="43.12149" lon="0.47261">
        <ele>588.2</ele>
        <time>2025-12-29T12:36:20Z</time>
      </trkpt>
      <trkpt lat="43.12147" lon="0.47256">
        <ele>588.2</ele>
        <time>2025-12-29T12:36:21Z</time>
      </trkpt>
      <trkpt lat="43.12145" lon="0.47252">
        <ele>588.6</ele>
        <time>2025-12-29T12:36:22Z</time>
      </trkpt>
      <trkpt lat="43.12143" lon="0.47247">
        <ele>588.6</ele>
        <time>2025-12-29T12:36:23Z</time>
      </trkpt>
      <trkpt lat="43.12141" lon="0.47242">
        <ele>588.6</ele>
        <time>2025-12-29T12:36:24Z</time>
      </trkpt>
      <trkpt lat="43.12139" lon="0.47237">
        <ele>588.6</ele>
        <time>2025-12-29T12:36:25Z</time>
      </trkpt>
      <trkpt lat="43.12137" lon="0.47232">
        <ele>588</ele>
        <time>2025-12-29T12:36:26Z</time>
      </trkpt>
      <trkpt lat="43.12135" lon="0.47227">
        <ele>588</ele>
        <time>2025-12-29T12:36:27Z</time>
      </trkpt>
      <trkpt lat="43.12133" lon="0.47222">
        <ele>588</ele>
        <time>2025-12-29T12:36:28Z</time>
      </trkpt>
      <trkpt lat="43.12131" lon="0.47217">
        <ele>588</ele>
        <time>2025-12-29T12:36:29Z</time>
      </trkpt>
      <trkpt lat="43.12129" lon="0.47212">
        <ele>588.4</ele>
        <time>2025-12-29T12:36:30Z</time>
      </trkpt>
      <trkpt lat="43.12126" lon="0.47207">
        <ele>588.8</ele>
        <time>2025-12-29T12:36:31Z</time>
      </trkpt>
      <trkpt lat="43.12124" lon="0.47202">
        <ele>588.8</ele>
        <time>2025-12-29T12:36:32Z</time>
      </trkpt>
      <trkpt lat="43.12122" lon="0.47196">
        <ele>588.8</ele>
        <time>2025-12-29T12:36:33Z</time>
      </trkpt>
      <trkpt lat="43.1212" lon="0.47191">
        <ele>588</ele>
        <time>2025-12-29T12:36:34Z</time>
      </trkpt>
      <trkpt lat="43.12118" lon="0.47186">
        <ele>588</ele>
        <time>2025-12-29T12:36:35Z</time>
      </trkpt>
      <trkpt lat="43.12116" lon="0.47182">
        <ele>588</ele>
        <time>2025-12-29T12:36:36Z</time>
      </trkpt>
      <trkpt lat="43.12114" lon="0.47177">
        <ele>588</ele>
        <time>2025-12-29T12:36:37Z</time>
      </trkpt>
      <trkpt lat="43.12112" lon="0.47172">
        <ele>588</ele>
        <time>2025-12-29T12:36:38Z</time>
      </trkpt>
      <trkpt lat="43.1211" lon="0.47168">
        <ele>587.6</ele>
        <time>2025-12-29T12:36:39Z</time>
      </trkpt>
      <trkpt lat="43.12108" lon="0.47163">
        <ele>587.6</ele>
        <time>2025-12-29T12:36:40Z</time>
      </trkpt>
      <trkpt lat="43.12106" lon="0.47158">
        <ele>587.6</ele>
        <time>2025-12-29T12:36:41Z</time>
      </trkpt>
      <trkpt lat="43.12104" lon="0.47153">
        <ele>588.6</ele>
        <time>2025-12-29T12:36:42Z</time>
      </trkpt>
      <trkpt lat="43.12102" lon="0.47148">
        <ele>588.4</ele>
        <time>2025-12-29T12:36:43Z</time>
      </trkpt>
      <trkpt lat="43.121" lon="0.47143">
        <ele>588.4</ele>
        <time>2025-12-29T12:36:44Z</time>
      </trkpt>
      <trkpt lat="43.12098" lon="0.47139">
        <ele>588.4</ele>
        <time>2025-12-29T12:36:45Z</time>
      </trkpt>
      <trkpt lat="43.12096" lon="0.47134">
        <ele>588</ele>
        <time>2025-12-29T12:36:46Z</time>
      </trkpt>
      <trkpt lat="43.12094" lon="0.47129">
        <ele>588.4</ele>
        <time>2025-12-29T12:36:47Z</time>
      </trkpt>
      <trkpt lat="43.12092" lon="0.47124">
        <ele>588.4</ele>
        <time>2025-12-29T12:36:48Z</time>
      </trkpt>
      <trkpt lat="43.1209" lon="0.47119">
        <ele>588.4</ele>
        <time>2025-12-29T12:36:49Z</time>
      </trkpt>
      <trkpt lat="43.12088" lon="0.47115">
        <ele>588.4</ele>
        <time>2025-12-29T12:36:50Z</time>
      </trkpt>
      <trkpt lat="43.12086" lon="0.4711">
        <ele>588.2</ele>
        <time>2025-12-29T12:36:51Z</time>
      </trkpt>
      <trkpt lat="43.12084" lon="0.47106">
        <ele>588.2</ele>
        <time>2025-12-29T12:36:52Z</time>
      </trkpt>
      <trkpt lat="43.12083" lon="0.47101">
        <ele>588.2</ele>
        <time>2025-12-29T12:36:53Z</time>
      </trkpt>
      <trkpt lat="43.12081" lon="0.47097">
        <ele>588.2</ele>
        <time>2025-12-29T12:36:54Z</time>
      </trkpt>
      <trkpt lat="43.12078" lon="0.47092">
        <ele>588.6</ele>
        <time>2025-12-29T12:36:55Z</time>
      </trkpt>
      <trkpt lat="43.12076" lon="0.47087">
        <ele>588.6</ele>
        <time>2025-12-29T12:36:56Z</time>
      </trkpt>
      <trkpt lat="43.12074" lon="0.47083">
        <ele>588.6</ele>
        <time>2025-12-29T12:36:57Z</time>
      </trkpt>
      <trkpt lat="43.12073" lon="0.47078">
        <ele>588.6</ele>
        <time>2025-12-29T12:36:58Z</time>
      </trkpt>
      <trkpt lat="43.12071" lon="0.47073">
        <ele>588.6</ele>
        <time>2025-12-29T12:36:59Z</time>
      </trkpt>
      <trkpt lat="43.12069" lon="0.47068">
        <ele>588.6</ele>
        <time>2025-12-29T12:37:00Z</time>
      </trkpt>
      <trkpt lat="43.12067" lon="0.47064">
        <ele>588.6</ele>
        <time>2025-12-29T12:37:01Z</time>
      </trkpt>
      <trkpt lat="43.12065" lon="0.47059">
        <ele>588.6</ele>
        <time>2025-12-29T12:37:02Z</time>
      </trkpt>
      <trkpt lat="43.12063" lon="0.47054">
        <ele>588.4</ele>
        <time>2025-12-29T12:37:03Z</time>
      </trkpt>
      <trkpt lat="43.12061" lon="0.47049">
        <ele>588.4</ele>
        <time>2025-12-29T12:37:04Z</time>
      </trkpt>
      <trkpt lat="43.12059" lon="0.47044">
        <ele>588.4</ele>
        <time>2025-12-29T12:37:05Z</time>
      </trkpt>
      <trkpt lat="43.12057" lon="0.47039">
        <ele>588.4</ele>
        <time>2025-12-29T12:37:06Z</time>
      </trkpt>
      <trkpt lat="43.12055" lon="0.47035">
        <ele>588.6</ele>
        <time>2025-12-29T12:37:07Z</time>
      </trkpt>
      <trkpt lat="43.12053" lon="0.4703">
        <ele>588.6</ele>
        <time>2025-12-29T12:37:08Z</time>
      </trkpt>
      <trkpt lat="43.1205" lon="0.47024">
        <ele>588.6</ele>
        <time>2025-12-29T12:37:09Z</time>
      </trkpt>
      <trkpt lat="43.12048" lon="0.47019">
        <ele>588.6</ele>
        <time>2025-12-29T12:37:10Z</time>
      </trkpt>
      <trkpt lat="43.12046" lon="0.47014">
        <ele>588.6</ele>
        <time>2025-12-29T12:37:11Z</time>
      </trkpt>
      <trkpt lat="43.12045" lon="0.47009">
        <ele>588.6</ele>
        <time>2025-12-29T12:37:12Z</time>
      </trkpt>
      <trkpt lat="43.12043" lon="0.47004">
        <ele>588.6</ele>
        <time>2025-12-29T12:37:13Z</time>
      </trkpt>
      <trkpt lat="43.1204" lon="0.46999">
        <ele>588.6</ele>
        <time>2025-12-29T12:37:14Z</time>
      </trkpt>
      <trkpt lat="43.12038" lon="0.46994">
        <ele>588.8</ele>
        <time>2025-12-29T12:37:15Z</time>
      </trkpt>
      <trkpt lat="43.12036" lon="0.46989">
        <ele>588.8</ele>
        <time>2025-12-29T12:37:16Z</time>
      </trkpt>
      <trkpt lat="43.12034" lon="0.46984">
        <ele>588.8</ele>
        <time>2025-12-29T12:37:17Z</time>
      </trkpt>
      <trkpt lat="43.12032" lon="0.46979">
        <ele>588.8</ele>
        <time>2025-12-29T12:37:18Z</time>
      </trkpt>
      <trkpt lat="43.1203" lon="0.46973">
        <ele>588.4</ele>
        <time>2025-12-29T12:37:19Z</time>
      </trkpt>
      <trkpt lat="43.12028" lon="0.46968">
        <ele>588.4</ele>
        <time>2025-12-29T12:37:20Z</time>
      </trkpt>
      <trkpt lat="43.12026" lon="0.46963">
        <ele>588.4</ele>
        <time>2025-12-29T12:37:21Z</time>
      </trkpt>
      <trkpt lat="43.12023" lon="0.46958">
        <ele>588.4</ele>
        <time>2025-12-29T12:37:22Z</time>
      </trkpt>
      <trkpt lat="43.12021" lon="0.46952">
        <ele>588.2</ele>
        <time>2025-12-29T12:37:23Z</time>
      </trkpt>
      <trkpt lat="43.12019" lon="0.46947">
        <ele>588.2</ele>
        <time>2025-12-29T12:37:24Z</time>
      </trkpt>
      <trkpt lat="43.12017" lon="0.46942">
        <ele>588.2</ele>
        <time>2025-12-29T12:37:25Z</time>
      </trkpt>
      <trkpt lat="43.12015" lon="0.46937">
        <ele>589.2</ele>
        <time>2025-12-29T12:37:26Z</time>
      </trkpt>
      <trkpt lat="43.12012" lon="0.46931">
        <ele>589.6</ele>
        <time>2025-12-29T12:37:27Z</time>
      </trkpt>
      <trkpt lat="43.1201" lon="0.46926">
        <ele>589.6</ele>
        <time>2025-12-29T12:37:28Z</time>
      </trkpt>
      <trkpt lat="43.12008" lon="0.46921">
        <ele>589.6</ele>
        <time>2025-12-29T12:37:29Z</time>
      </trkpt>
      <trkpt lat="43.12005" lon="0.46915">
        <ele>589.6</ele>
        <time>2025-12-29T12:37:30Z</time>
      </trkpt>
      <trkpt lat="43.12003" lon="0.4691">
        <ele>589</ele>
        <time>2025-12-29T12:37:31Z</time>
      </trkpt>
      <trkpt lat="43.12001" lon="0.46904">
        <ele>589</ele>
        <time>2025-12-29T12:37:32Z</time>
      </trkpt>
      <trkpt lat="43.11999" lon="0.46899">
        <ele>589</ele>
        <time>2025-12-29T12:37:33Z</time>
      </trkpt>
      <trkpt lat="43.11996" lon="0.46893">
        <ele>590</ele>
        <time>2025-12-29T12:37:34Z</time>
      </trkpt>
      <trkpt lat="43.11994" lon="0.46887">
        <ele>589.6</ele>
        <time>2025-12-29T12:37:35Z</time>
      </trkpt>
      <trkpt lat="43.11992" lon="0.46882">
        <ele>589.6</ele>
        <time>2025-12-29T12:37:36Z</time>
      </trkpt>
      <trkpt lat="43.1199" lon="0.46876">
        <ele>589.6</ele>
        <time>2025-12-29T12:37:37Z</time>
      </trkpt>
      <trkpt lat="43.11987" lon="0.4687">
        <ele>589.6</ele>
        <time>2025-12-29T12:37:38Z</time>
      </trkpt>
      <trkpt lat="43.11985" lon="0.46865">
        <ele>590.6</ele>
        <time>2025-12-29T12:37:39Z</time>
      </trkpt>
      <trkpt lat="43.11983" lon="0.46859">
        <ele>590.6</ele>
        <time>2025-12-29T12:37:40Z</time>
      </trkpt>
      <trkpt lat="43.11981" lon="0.46854">
        <ele>590.6</ele>
        <time>2025-12-29T12:37:41Z</time>
      </trkpt>
      <trkpt lat="43.11979" lon="0.46848">
        <ele>590.6</ele>
        <time>2025-12-29T12:37:42Z</time>
      </trkpt>
      <trkpt lat="43.11977" lon="0.46842">
        <ele>590.8</ele>
        <time>2025-12-29T12:37:43Z</time>
      </trkpt>
      <trkpt lat="43.11974" lon="0.46837">
        <ele>590.8</ele>
        <time>2025-12-29T12:37:44Z</time>
      </trkpt>
      <trkpt lat="43.11972" lon="0.46831">
        <ele>590.8</ele>
        <time>2025-12-29T12:37:45Z</time>
      </trkpt>
      <trkpt lat="43.1197" lon="0.46826">
        <ele>590.8</ele>
        <time>2025-12-29T12:37:46Z</time>
      </trkpt>
      <trkpt lat="43.11968" lon="0.46821">
        <ele>592</ele>
        <time>2025-12-29T12:37:47Z</time>
      </trkpt>
      <trkpt lat="43.11966" lon="0.46815">
        <ele>592</ele>
        <time>2025-12-29T12:37:48Z</time>
      </trkpt>
      <trkpt lat="43.11963" lon="0.4681">
        <ele>592</ele>
        <time>2025-12-29T12:37:49Z</time>
      </trkpt>
      <trkpt lat="43.11961" lon="0.46804">
        <ele>592</ele>
        <time>2025-12-29T12:37:50Z</time>
      </trkpt>
      <trkpt lat="43.11959" lon="0.46799">
        <ele>592</ele>
        <time>2025-12-29T12:37:51Z</time>
      </trkpt>
      <trkpt lat="43.11957" lon="0.46794">
        <ele>592</ele>
        <time>2025-12-29T12:37:52Z</time>
      </trkpt>
      <trkpt lat="43.11955" lon="0.46789">
        <ele>592</ele>
        <time>2025-12-29T12:37:53Z</time>
      </trkpt>
      <trkpt lat="43.11953" lon="0.46784">
        <ele>592</ele>
        <time>2025-12-29T12:37:54Z</time>
      </trkpt>
      <trkpt lat="43.1195" lon="0.46779">
        <ele>591.8</ele>
        <time>2025-12-29T12:37:55Z</time>
      </trkpt>
      <trkpt lat="43.11948" lon="0.46774">
        <ele>591.8</ele>
        <time>2025-12-29T12:37:56Z</time>
      </trkpt>
      <trkpt lat="43.11946" lon="0.46769">
        <ele>591.8</ele>
        <time>2025-12-29T12:37:57Z</time>
      </trkpt>
      <trkpt lat="43.11944" lon="0.46764">
        <ele>592.8</ele>
        <time>2025-12-29T12:37:58Z</time>
      </trkpt>
      <trkpt lat="43.11942" lon="0.46759">
        <ele>593</ele>
        <time>2025-12-29T12:37:59Z</time>
      </trkpt>
      <trkpt lat="43.11939" lon="0.46754">
        <ele>593</ele>
        <time>2025-12-29T12:38:00Z</time>
      </trkpt>
      <trkpt lat="43.11937" lon="0.46749">
        <ele>593</ele>
        <time>2025-12-29T12:38:01Z</time>
      </trkpt>
      <trkpt lat="43.11935" lon="0.46744">
        <ele>593</ele>
        <time>2025-12-29T12:38:02Z</time>
      </trkpt>
      <trkpt lat="43.11933" lon="0.46739">
        <ele>593.6</ele>
        <time>2025-12-29T12:38:03Z</time>
      </trkpt>
      <trkpt lat="43.11932" lon="0.46734">
        <ele>593.6</ele>
        <time>2025-12-29T12:38:04Z</time>
      </trkpt>
      <trkpt lat="43.1193" lon="0.46729">
        <ele>593.6</ele>
        <time>2025-12-29T12:38:05Z</time>
      </trkpt>
      <trkpt lat="43.11928" lon="0.46724">
        <ele>593.2</ele>
        <time>2025-12-29T12:38:06Z</time>
      </trkpt>
      <trkpt lat="43.11926" lon="0.4672">
        <ele>593.6</ele>
        <time>2025-12-29T12:38:07Z</time>
      </trkpt>
      <trkpt lat="43.11924" lon="0.46715">
        <ele>593.6</ele>
        <time>2025-12-29T12:38:08Z</time>
      </trkpt>
      <trkpt lat="43.11922" lon="0.46709">
        <ele>593.6</ele>
        <time>2025-12-29T12:38:09Z</time>
      </trkpt>
      <trkpt lat="43.1192" lon="0.46704">
        <ele>593.6</ele>
        <time>2025-12-29T12:38:10Z</time>
      </trkpt>
      <trkpt lat="43.11918" lon="0.46699">
        <ele>593.6</ele>
        <time>2025-12-29T12:38:11Z</time>
      </trkpt>
      <trkpt lat="43.11916" lon="0.46693">
        <ele>593.6</ele>
        <time>2025-12-29T12:38:12Z</time>
      </trkpt>
      <trkpt lat="43.11913" lon="0.46688">
        <ele>593.6</ele>
        <time>2025-12-29T12:38:13Z</time>
      </trkpt>
      <trkpt lat="43.11911" lon="0.46683">
        <ele>594</ele>
        <time>2025-12-29T12:38:14Z</time>
      </trkpt>
      <trkpt lat="43.11909" lon="0.46677">
        <ele>594.4</ele>
        <time>2025-12-29T12:38:15Z</time>
      </trkpt>
      <trkpt lat="43.11906" lon="0.46672">
        <ele>594.4</ele>
        <time>2025-12-29T12:38:16Z</time>
      </trkpt>
      <trkpt lat="43.11904" lon="0.46666">
        <ele>594.4</ele>
        <time>2025-12-29T12:38:17Z</time>
      </trkpt>
      <trkpt lat="43.11902" lon="0.46661">
        <ele>594</ele>
        <time>2025-12-29T12:38:18Z</time>
      </trkpt>
      <trkpt lat="43.119" lon="0.46655">
        <ele>594.2</ele>
        <time>2025-12-29T12:38:19Z</time>
      </trkpt>
      <trkpt lat="43.11898" lon="0.4665">
        <ele>594.2</ele>
        <time>2025-12-29T12:38:20Z</time>
      </trkpt>
      <trkpt lat="43.11896" lon="0.46644">
        <ele>594.2</ele>
        <time>2025-12-29T12:38:21Z</time>
      </trkpt>
      <trkpt lat="43.11893" lon="0.46639">
        <ele>594.2</ele>
        <time>2025-12-29T12:38:22Z</time>
      </trkpt>
      <trkpt lat="43.11891" lon="0.46634">
        <ele>594.4</ele>
        <time>2025-12-29T12:38:23Z</time>
      </trkpt>
      <trkpt lat="43.11889" lon="0.46629">
        <ele>594.4</ele>
        <time>2025-12-29T12:38:24Z</time>
      </trkpt>
      <trkpt lat="43.11887" lon="0.46623">
        <ele>594.4</ele>
        <time>2025-12-29T12:38:25Z</time>
      </trkpt>
      <trkpt lat="43.11885" lon="0.46618">
        <ele>594.4</ele>
        <time>2025-12-29T12:38:26Z</time>
      </trkpt>
      <trkpt lat="43.11883" lon="0.46613">
        <ele>594.4</ele>
        <time>2025-12-29T12:38:27Z</time>
      </trkpt>
      <trkpt lat="43.11881" lon="0.46608">
        <ele>594.4</ele>
        <time>2025-12-29T12:38:28Z</time>
      </trkpt>
      <trkpt lat="43.11879" lon="0.46603">
        <ele>594.4</ele>
        <time>2025-12-29T12:38:29Z</time>
      </trkpt>
      <trkpt lat="43.11876" lon="0.46598">
        <ele>594.4</ele>
        <time>2025-12-29T12:38:30Z</time>
      </trkpt>
      <trkpt lat="43.11874" lon="0.46593">
        <ele>594.8</ele>
        <time>2025-12-29T12:38:31Z</time>
      </trkpt>
      <trkpt lat="43.11872" lon="0.46587">
        <ele>594.8</ele>
        <time>2025-12-29T12:38:32Z</time>
      </trkpt>
      <trkpt lat="43.11869" lon="0.46582">
        <ele>594.8</ele>
        <time>2025-12-29T12:38:33Z</time>
      </trkpt>
      <trkpt lat="43.11867" lon="0.46577">
        <ele>594.8</ele>
        <time>2025-12-29T12:38:34Z</time>
      </trkpt>
      <trkpt lat="43.11865" lon="0.46572">
        <ele>594.4</ele>
        <time>2025-12-29T12:38:35Z</time>
      </trkpt>
      <trkpt lat="43.11863" lon="0.46567">
        <ele>594.4</ele>
        <time>2025-12-29T12:38:36Z</time>
      </trkpt>
      <trkpt lat="43.11861" lon="0.46562">
        <ele>594.4</ele>
        <time>2025-12-29T12:38:37Z</time>
      </trkpt>
      <trkpt lat="43.11859" lon="0.46557">
        <ele>594.4</ele>
        <time>2025-12-29T12:38:38Z</time>
      </trkpt>
      <trkpt lat="43.11857" lon="0.46552">
        <ele>594.6</ele>
        <time>2025-12-29T12:38:39Z</time>
      </trkpt>
      <trkpt lat="43.11855" lon="0.46547">
        <ele>594.6</ele>
        <time>2025-12-29T12:38:40Z</time>
      </trkpt>
      <trkpt lat="43.11853" lon="0.46542">
        <ele>594.6</ele>
        <time>2025-12-29T12:38:41Z</time>
      </trkpt>
      <trkpt lat="43.11851" lon="0.46537">
        <ele>595.2</ele>
        <time>2025-12-29T12:38:42Z</time>
      </trkpt>
      <trkpt lat="43.11849" lon="0.46532">
        <ele>595.2</ele>
        <time>2025-12-29T12:38:43Z</time>
      </trkpt>
      <trkpt lat="43.11846" lon="0.46527">
        <ele>595.2</ele>
        <time>2025-12-29T12:38:44Z</time>
      </trkpt>
      <trkpt lat="43.11844" lon="0.46522">
        <ele>595.2</ele>
        <time>2025-12-29T12:38:45Z</time>
      </trkpt>
      <trkpt lat="43.11842" lon="0.46518">
        <ele>595.2</ele>
        <time>2025-12-29T12:38:46Z</time>
      </trkpt>
      <trkpt lat="43.1184" lon="0.46513">
        <ele>595</ele>
        <time>2025-12-29T12:38:47Z</time>
      </trkpt>
      <trkpt lat="43.11838" lon="0.46509">
        <ele>595</ele>
        <time>2025-12-29T12:38:48Z</time>
      </trkpt>
      <trkpt lat="43.11836" lon="0.46504">
        <ele>595</ele>
        <time>2025-12-29T12:38:49Z</time>
      </trkpt>
      <trkpt lat="43.11834" lon="0.46499">
        <ele>595</ele>
        <time>2025-12-29T12:38:50Z</time>
      </trkpt>
      <trkpt lat="43.11832" lon="0.46495">
        <ele>595</ele>
        <time>2025-12-29T12:38:51Z</time>
      </trkpt>
      <trkpt lat="43.1183" lon="0.4649">
        <ele>595</ele>
        <time>2025-12-29T12:38:52Z</time>
      </trkpt>
      <trkpt lat="43.11828" lon="0.46485">
        <ele>595</ele>
        <time>2025-12-29T12:38:53Z</time>
      </trkpt>
      <trkpt lat="43.11826" lon="0.46481">
        <ele>595</ele>
        <time>2025-12-29T12:38:54Z</time>
      </trkpt>
      <trkpt lat="43.11824" lon="0.46476">
        <ele>595.2</ele>
        <time>2025-12-29T12:38:55Z</time>
      </trkpt>
      <trkpt lat="43.11822" lon="0.46472">
        <ele>595.2</ele>
        <time>2025-12-29T12:38:56Z</time>
      </trkpt>
      <trkpt lat="43.1182" lon="0.46467">
        <ele>595.2</ele>
        <time>2025-12-29T12:38:57Z</time>
      </trkpt>
      <trkpt lat="43.11818" lon="0.46463">
        <ele>595.2</ele>
        <time>2025-12-29T12:38:58Z</time>
      </trkpt>
      <trkpt lat="43.11816" lon="0.46458">
        <ele>595.4</ele>
        <time>2025-12-29T12:38:59Z</time>
      </trkpt>
      <trkpt lat="43.11813" lon="0.46454">
        <ele>595.4</ele>
        <time>2025-12-29T12:39:00Z</time>
      </trkpt>
      <trkpt lat="43.11811" lon="0.46449">
        <ele>595.4</ele>
        <time>2025-12-29T12:39:01Z</time>
      </trkpt>
      <trkpt lat="43.11809" lon="0.46444">
        <ele>595.6</ele>
        <time>2025-12-29T12:39:02Z</time>
      </trkpt>
      <trkpt lat="43.11806" lon="0.46439">
        <ele>595</ele>
        <time>2025-12-29T12:39:03Z</time>
      </trkpt>
      <trkpt lat="43.11804" lon="0.46434">
        <ele>595</ele>
        <time>2025-12-29T12:39:04Z</time>
      </trkpt>
      <trkpt lat="43.11802" lon="0.46429">
        <ele>595</ele>
        <time>2025-12-29T12:39:05Z</time>
      </trkpt>
      <trkpt lat="43.11799" lon="0.46425">
        <ele>595</ele>
        <time>2025-12-29T12:39:06Z</time>
      </trkpt>
      <trkpt lat="43.11797" lon="0.4642">
        <ele>594.4</ele>
        <time>2025-12-29T12:39:07Z</time>
      </trkpt>
      <trkpt lat="43.11794" lon="0.46415">
        <ele>594.4</ele>
        <time>2025-12-29T12:39:08Z</time>
      </trkpt>
      <trkpt lat="43.11792" lon="0.46411">
        <ele>594.4</ele>
        <time>2025-12-29T12:39:09Z</time>
      </trkpt>
      <trkpt lat="43.1179" lon="0.46406">
        <ele>594.4</ele>
        <time>2025-12-29T12:39:10Z</time>
      </trkpt>
      <trkpt lat="43.11787" lon="0.46401">
        <ele>594.8</ele>
        <time>2025-12-29T12:39:11Z</time>
      </trkpt>
      <trkpt lat="43.11785" lon="0.46395">
        <ele>594.8</ele>
        <time>2025-12-29T12:39:12Z</time>
      </trkpt>
      <trkpt lat="43.11782" lon="0.4639">
        <ele>594.8</ele>
        <time>2025-12-29T12:39:13Z</time>
      </trkpt>
      <trkpt lat="43.1178" lon="0.46385">
        <ele>594.8</ele>
        <time>2025-12-29T12:39:14Z</time>
      </trkpt>
      <trkpt lat="43.11777" lon="0.4638">
        <ele>593.8</ele>
        <time>2025-12-29T12:39:15Z</time>
      </trkpt>
      <trkpt lat="43.11775" lon="0.46375">
        <ele>593.8</ele>
        <time>2025-12-29T12:39:16Z</time>
      </trkpt>
      <trkpt lat="43.11772" lon="0.4637">
        <ele>593.8</ele>
        <time>2025-12-29T12:39:17Z</time>
      </trkpt>
      <trkpt lat="43.11769" lon="0.46365">
        <ele>594.4</ele>
        <time>2025-12-29T12:39:18Z</time>
      </trkpt>
      <trkpt lat="43.11767" lon="0.4636">
        <ele>594.2</ele>
        <time>2025-12-29T12:39:19Z</time>
      </trkpt>
      <trkpt lat="43.11765" lon="0.46356">
        <ele>594.2</ele>
        <time>2025-12-29T12:39:20Z</time>
      </trkpt>
      <trkpt lat="43.11762" lon="0.46351">
        <ele>594.2</ele>
        <time>2025-12-29T12:39:21Z</time>
      </trkpt>
      <trkpt lat="43.1176" lon="0.46346">
        <ele>594.2</ele>
        <time>2025-12-29T12:39:22Z</time>
      </trkpt>
      <trkpt lat="43.11758" lon="0.46342">
        <ele>594.4</ele>
        <time>2025-12-29T12:39:23Z</time>
      </trkpt>
      <trkpt lat="43.11756" lon="0.46337">
        <ele>594.4</ele>
        <time>2025-12-29T12:39:24Z</time>
      </trkpt>
      <trkpt lat="43.11753" lon="0.46332">
        <ele>594.4</ele>
        <time>2025-12-29T12:39:25Z</time>
      </trkpt>
      <trkpt lat="43.11751" lon="0.46328">
        <ele>594.4</ele>
        <time>2025-12-29T12:39:26Z</time>
      </trkpt>
      <trkpt lat="43.11748" lon="0.46323">
        <ele>594.2</ele>
        <time>2025-12-29T12:39:27Z</time>
      </trkpt>
      <trkpt lat="43.11746" lon="0.46319">
        <ele>594.2</ele>
        <time>2025-12-29T12:39:28Z</time>
      </trkpt>
      <trkpt lat="43.11744" lon="0.46314">
        <ele>594.2</ele>
        <time>2025-12-29T12:39:29Z</time>
      </trkpt>
      <trkpt lat="43.11742" lon="0.4631">
        <ele>595.2</ele>
        <time>2025-12-29T12:39:30Z</time>
      </trkpt>
      <trkpt lat="43.1174" lon="0.46305">
        <ele>594.2</ele>
        <time>2025-12-29T12:39:31Z</time>
      </trkpt>
      <trkpt lat="43.11737" lon="0.46301">
        <ele>594.2</ele>
        <time>2025-12-29T12:39:32Z</time>
      </trkpt>
      <trkpt lat="43.11735" lon="0.46297">
        <ele>594.2</ele>
        <time>2025-12-29T12:39:33Z</time>
      </trkpt>
      <trkpt lat="43.11734" lon="0.46293">
        <ele>595</ele>
        <time>2025-12-29T12:39:34Z</time>
      </trkpt>
      <trkpt lat="43.11731" lon="0.46289">
        <ele>594.4</ele>
        <time>2025-12-29T12:39:35Z</time>
      </trkpt>
      <trkpt lat="43.11729" lon="0.46285">
        <ele>594.4</ele>
        <time>2025-12-29T12:39:36Z</time>
      </trkpt>
      <trkpt lat="43.11727" lon="0.4628">
        <ele>594.4</ele>
        <time>2025-12-29T12:39:37Z</time>
      </trkpt>
      <trkpt lat="43.11725" lon="0.46276">
        <ele>595.4</ele>
        <time>2025-12-29T12:39:38Z</time>
      </trkpt>
      <trkpt lat="43.11724" lon="0.46272">
        <ele>595.6</ele>
        <time>2025-12-29T12:39:39Z</time>
      </trkpt>
      <trkpt lat="43.11722" lon="0.46268">
        <ele>595.6</ele>
        <time>2025-12-29T12:39:40Z</time>
      </trkpt>
      <trkpt lat="43.1172" lon="0.46264">
        <ele>595.6</ele>
        <time>2025-12-29T12:39:41Z</time>
      </trkpt>
      <trkpt lat="43.11717" lon="0.4626">
        <ele>595.6</ele>
        <time>2025-12-29T12:39:42Z</time>
      </trkpt>
      <trkpt lat="43.11715" lon="0.46255">
        <ele>596</ele>
        <time>2025-12-29T12:39:43Z</time>
      </trkpt>
      <trkpt lat="43.11713" lon="0.46251">
        <ele>596</ele>
        <time>2025-12-29T12:39:44Z</time>
      </trkpt>
      <trkpt lat="43.11711" lon="0.46247">
        <ele>596</ele>
        <time>2025-12-29T12:39:45Z</time>
      </trkpt>
      <trkpt lat="43.11709" lon="0.46243">
        <ele>596</ele>
        <time>2025-12-29T12:39:46Z</time>
      </trkpt>
      <trkpt lat="43.11707" lon="0.46239">
        <ele>596.4</ele>
        <time>2025-12-29T12:39:47Z</time>
      </trkpt>
      <trkpt lat="43.11704" lon="0.46235">
        <ele>596.4</ele>
        <time>2025-12-29T12:39:48Z</time>
      </trkpt>
      <trkpt lat="43.11702" lon="0.46231">
        <ele>596.4</ele>
        <time>2025-12-29T12:39:49Z</time>
      </trkpt>
      <trkpt lat="43.117" lon="0.46227">
        <ele>596.4</ele>
        <time>2025-12-29T12:39:50Z</time>
      </trkpt>
      <trkpt lat="43.11698" lon="0.46223">
        <ele>597</ele>
        <time>2025-12-29T12:39:51Z</time>
      </trkpt>
      <trkpt lat="43.11696" lon="0.46219">
        <ele>597</ele>
        <time>2025-12-29T12:39:52Z</time>
      </trkpt>
      <trkpt lat="43.11694" lon="0.46215">
        <ele>597</ele>
        <time>2025-12-29T12:39:53Z</time>
      </trkpt>
      <trkpt lat="43.11692" lon="0.46211">
        <ele>598</ele>
        <time>2025-12-29T12:39:54Z</time>
      </trkpt>
      <trkpt lat="43.1169" lon="0.46208">
        <ele>597.8</ele>
        <time>2025-12-29T12:39:55Z</time>
      </trkpt>
      <trkpt lat="43.11688" lon="0.46204">
        <ele>597.8</ele>
        <time>2025-12-29T12:39:56Z</time>
      </trkpt>
      <trkpt lat="43.11686" lon="0.462">
        <ele>597.8</ele>
        <time>2025-12-29T12:39:57Z</time>
      </trkpt>
      <trkpt lat="43.11684" lon="0.46196">
        <ele>597.8</ele>
        <time>2025-12-29T12:39:58Z</time>
      </trkpt>
      <trkpt lat="43.11682" lon="0.46192">
        <ele>598.4</ele>
        <time>2025-12-29T12:39:59Z</time>
      </trkpt>
      <trkpt lat="43.1168" lon="0.46188">
        <ele>598.4</ele>
        <time>2025-12-29T12:40:00Z</time>
      </trkpt>
      <trkpt lat="43.11678" lon="0.46184">
        <ele>598.4</ele>
        <time>2025-12-29T12:40:01Z</time>
      </trkpt>
      <trkpt lat="43.11676" lon="0.4618">
        <ele>598.4</ele>
        <time>2025-12-29T12:40:02Z</time>
      </trkpt>
      <trkpt lat="43.11674" lon="0.46176">
        <ele>598.4</ele>
        <time>2025-12-29T12:40:03Z</time>
      </trkpt>
      <trkpt lat="43.11672" lon="0.46172">
        <ele>598.4</ele>
        <time>2025-12-29T12:40:04Z</time>
      </trkpt>
      <trkpt lat="43.1167" lon="0.46168">
        <ele>598.4</ele>
        <time>2025-12-29T12:40:05Z</time>
      </trkpt>
      <trkpt lat="43.11668" lon="0.46164">
        <ele>599</ele>
        <time>2025-12-29T12:40:06Z</time>
      </trkpt>
      <trkpt lat="43.11666" lon="0.4616">
        <ele>598.6</ele>
        <time>2025-12-29T12:40:07Z</time>
      </trkpt>
      <trkpt lat="43.11664" lon="0.46156">
        <ele>598.6</ele>
        <time>2025-12-29T12:40:08Z</time>
      </trkpt>
      <trkpt lat="43.11661" lon="0.46151">
        <ele>598.6</ele>
        <time>2025-12-29T12:40:09Z</time>
      </trkpt>
      <trkpt lat="43.11659" lon="0.46147">
        <ele>599</ele>
        <time>2025-12-29T12:40:10Z</time>
      </trkpt>
      <trkpt lat="43.11657" lon="0.46143">
        <ele>599.4</ele>
        <time>2025-12-29T12:40:11Z</time>
      </trkpt>
      <trkpt lat="43.11655" lon="0.46139">
        <ele>599.4</ele>
        <time>2025-12-29T12:40:12Z</time>
      </trkpt>
      <trkpt lat="43.11653" lon="0.46134">
        <ele>599.4</ele>
        <time>2025-12-29T12:40:13Z</time>
      </trkpt>
      <trkpt lat="43.1165" lon="0.4613">
        <ele>598.6</ele>
        <time>2025-12-29T12:40:14Z</time>
      </trkpt>
      <trkpt lat="43.11648" lon="0.46126">
        <ele>599.6</ele>
        <time>2025-12-29T12:40:15Z</time>
      </trkpt>
      <trkpt lat="43.11646" lon="0.46122">
        <ele>599.6</ele>
        <time>2025-12-29T12:40:16Z</time>
      </trkpt>
      <trkpt lat="43.11644" lon="0.46118">
        <ele>599.6</ele>
        <time>2025-12-29T12:40:17Z</time>
      </trkpt>
      <trkpt lat="43.11641" lon="0.46113">
        <ele>599.6</ele>
        <time>2025-12-29T12:40:18Z</time>
      </trkpt>
      <trkpt lat="43.11639" lon="0.46109">
        <ele>599.2</ele>
        <time>2025-12-29T12:40:19Z</time>
      </trkpt>
      <trkpt lat="43.11637" lon="0.46105">
        <ele>599.2</ele>
        <time>2025-12-29T12:40:20Z</time>
      </trkpt>
      <trkpt lat="43.11634" lon="0.461">
        <ele>599.2</ele>
        <time>2025-12-29T12:40:21Z</time>
      </trkpt>
      <trkpt lat="43.11632" lon="0.46096">
        <ele>599.2</ele>
        <time>2025-12-29T12:40:22Z</time>
      </trkpt>
      <trkpt lat="43.1163" lon="0.46092">
        <ele>598</ele>
        <time>2025-12-29T12:40:23Z</time>
      </trkpt>
      <trkpt lat="43.11628" lon="0.46087">
        <ele>598</ele>
        <time>2025-12-29T12:40:24Z</time>
      </trkpt>
      <trkpt lat="43.11625" lon="0.46083">
        <ele>598</ele>
        <time>2025-12-29T12:40:25Z</time>
      </trkpt>
      <trkpt lat="43.11623" lon="0.46078">
        <ele>599</ele>
        <time>2025-12-29T12:40:26Z</time>
      </trkpt>
      <trkpt lat="43.11621" lon="0.46073">
        <ele>598.8</ele>
        <time>2025-12-29T12:40:27Z</time>
      </trkpt>
      <trkpt lat="43.11618" lon="0.46069">
        <ele>598.8</ele>
        <time>2025-12-29T12:40:28Z</time>
      </trkpt>
      <trkpt lat="43.11616" lon="0.46064">
        <ele>598.8</ele>
        <time>2025-12-29T12:40:29Z</time>
      </trkpt>
      <trkpt lat="43.11614" lon="0.4606">
        <ele>598.8</ele>
        <time>2025-12-29T12:40:30Z</time>
      </trkpt>
      <trkpt lat="43.11612" lon="0.46055">
        <ele>598.4</ele>
        <time>2025-12-29T12:40:31Z</time>
      </trkpt>
      <trkpt lat="43.11609" lon="0.4605">
        <ele>598.4</ele>
        <time>2025-12-29T12:40:32Z</time>
      </trkpt>
      <trkpt lat="43.11607" lon="0.46045">
        <ele>598.4</ele>
        <time>2025-12-29T12:40:33Z</time>
      </trkpt>
      <trkpt lat="43.11605" lon="0.4604">
        <ele>599.2</ele>
        <time>2025-12-29T12:40:34Z</time>
      </trkpt>
      <trkpt lat="43.11603" lon="0.46036">
        <ele>599.2</ele>
        <time>2025-12-29T12:40:35Z</time>
      </trkpt>
      <trkpt lat="43.116" lon="0.46031">
        <ele>599.2</ele>
        <time>2025-12-29T12:40:36Z</time>
      </trkpt>
      <trkpt lat="43.11598" lon="0.46026">
        <ele>599.2</ele>
        <time>2025-12-29T12:40:37Z</time>
      </trkpt>
      <trkpt lat="43.11595" lon="0.46021">
        <ele>599.2</ele>
        <time>2025-12-29T12:40:38Z</time>
      </trkpt>
      <trkpt lat="43.11593" lon="0.46016">
        <ele>599.6</ele>
        <time>2025-12-29T12:40:39Z</time>
      </trkpt>
      <trkpt lat="43.1159" lon="0.46011">
        <ele>599.6</ele>
        <time>2025-12-29T12:40:40Z</time>
      </trkpt>
      <trkpt lat="43.11588" lon="0.46006">
        <ele>599.6</ele>
        <time>2025-12-29T12:40:41Z</time>
      </trkpt>
      <trkpt lat="43.11585" lon="0.46001">
        <ele>599.6</ele>
        <time>2025-12-29T12:40:42Z</time>
      </trkpt>
      <trkpt lat="43.11583" lon="0.45995">
        <ele>598.6</ele>
        <time>2025-12-29T12:40:43Z</time>
      </trkpt>
      <trkpt lat="43.11581" lon="0.4599">
        <ele>598.6</ele>
        <time>2025-12-29T12:40:44Z</time>
      </trkpt>
      <trkpt lat="43.11578" lon="0.45985">
        <ele>598.6</ele>
        <time>2025-12-29T12:40:45Z</time>
      </trkpt>
      <trkpt lat="43.11576" lon="0.4598">
        <ele>598.6</ele>
        <time>2025-12-29T12:40:46Z</time>
      </trkpt>
      <trkpt lat="43.11574" lon="0.45974">
        <ele>598.4</ele>
        <time>2025-12-29T12:40:47Z</time>
      </trkpt>
      <trkpt lat="43.11571" lon="0.45969">
        <ele>598.4</ele>
        <time>2025-12-29T12:40:48Z</time>
      </trkpt>
      <trkpt lat="43.11569" lon="0.45964">
        <ele>598.4</ele>
        <time>2025-12-29T12:40:49Z</time>
      </trkpt>
      <trkpt lat="43.11567" lon="0.45959">
        <ele>598.4</ele>
        <time>2025-12-29T12:40:50Z</time>
      </trkpt>
      <trkpt lat="43.11564" lon="0.45954">
        <ele>599.2</ele>
        <time>2025-12-29T12:40:51Z</time>
      </trkpt>
      <trkpt lat="43.11562" lon="0.45949">
        <ele>599.2</ele>
        <time>2025-12-29T12:40:52Z</time>
      </trkpt>
      <trkpt lat="43.11559" lon="0.45944">
        <ele>599.2</ele>
        <time>2025-12-29T12:40:53Z</time>
      </trkpt>
      <trkpt lat="43.11557" lon="0.45939">
        <ele>599.2</ele>
        <time>2025-12-29T12:40:54Z</time>
      </trkpt>
      <trkpt lat="43.11555" lon="0.45934">
        <ele>600</ele>
        <time>2025-12-29T12:40:55Z</time>
      </trkpt>
      <trkpt lat="43.11552" lon="0.45929">
        <ele>600</ele>
        <time>2025-12-29T12:40:56Z</time>
      </trkpt>
      <trkpt lat="43.1155" lon="0.45924">
        <ele>600</ele>
        <time>2025-12-29T12:40:57Z</time>
      </trkpt>
      <trkpt lat="43.11548" lon="0.4592">
        <ele>600</ele>
        <time>2025-12-29T12:40:58Z</time>
      </trkpt>
      <trkpt lat="43.11546" lon="0.45915">
        <ele>599.8</ele>
        <time>2025-12-29T12:40:59Z</time>
      </trkpt>
      <trkpt lat="43.11544" lon="0.4591">
        <ele>599.8</ele>
        <time>2025-12-29T12:41:00Z</time>
      </trkpt>
      <trkpt lat="43.11541" lon="0.45905">
        <ele>599.8</ele>
        <time>2025-12-29T12:41:01Z</time>
      </trkpt>
      <trkpt lat="43.11539" lon="0.45901">
        <ele>599.8</ele>
        <time>2025-12-29T12:41:02Z</time>
      </trkpt>
      <trkpt lat="43.11537" lon="0.45896">
        <ele>601.2</ele>
        <time>2025-12-29T12:41:03Z</time>
      </trkpt>
      <trkpt lat="43.11534" lon="0.45891">
        <ele>601.2</ele>
        <time>2025-12-29T12:41:04Z</time>
      </trkpt>
      <trkpt lat="43.11532" lon="0.45886">
        <ele>601.2</ele>
        <time>2025-12-29T12:41:05Z</time>
      </trkpt>
      <trkpt lat="43.1153" lon="0.45881">
        <ele>600.4</ele>
        <time>2025-12-29T12:41:06Z</time>
      </trkpt>
      <trkpt lat="43.11527" lon="0.45877">
        <ele>600</ele>
        <time>2025-12-29T12:41:07Z</time>
      </trkpt>
      <trkpt lat="43.11525" lon="0.45872">
        <ele>600</ele>
        <time>2025-12-29T12:41:08Z</time>
      </trkpt>
      <trkpt lat="43.11523" lon="0.45867">
        <ele>600</ele>
        <time>2025-12-29T12:41:09Z</time>
      </trkpt>
      <trkpt lat="43.11521" lon="0.45862">
        <ele>600.8</ele>
        <time>2025-12-29T12:41:10Z</time>
      </trkpt>
      <trkpt lat="43.11518" lon="0.45857">
        <ele>600.6</ele>
        <time>2025-12-29T12:41:11Z</time>
      </trkpt>
      <trkpt lat="43.11516" lon="0.45852">
        <ele>600.6</ele>
        <time>2025-12-29T12:41:12Z</time>
      </trkpt>
      <trkpt lat="43.11514" lon="0.45847">
        <ele>600.6</ele>
        <time>2025-12-29T12:41:13Z</time>
      </trkpt>
      <trkpt lat="43.11512" lon="0.45842">
        <ele>600.6</ele>
        <time>2025-12-29T12:41:14Z</time>
      </trkpt>
      <trkpt lat="43.11509" lon="0.45838">
        <ele>601.2</ele>
        <time>2025-12-29T12:41:15Z</time>
      </trkpt>
      <trkpt lat="43.11507" lon="0.45833">
        <ele>601.2</ele>
        <time>2025-12-29T12:41:16Z</time>
      </trkpt>
      <trkpt lat="43.11505" lon="0.45828">
        <ele>601.2</ele>
        <time>2025-12-29T12:41:17Z</time>
      </trkpt>
      <trkpt lat="43.11502" lon="0.45823">
        <ele>601.2</ele>
        <time>2025-12-29T12:41:18Z</time>
      </trkpt>
      <trkpt lat="43.115" lon="0.45818">
        <ele>601</ele>
        <time>2025-12-29T12:41:19Z</time>
      </trkpt>
      <trkpt lat="43.11497" lon="0.45813">
        <ele>601</ele>
        <time>2025-12-29T12:41:20Z</time>
      </trkpt>
      <trkpt lat="43.11495" lon="0.45808">
        <ele>601</ele>
        <time>2025-12-29T12:41:21Z</time>
      </trkpt>
      <trkpt lat="43.11493" lon="0.45803">
        <ele>601</ele>
        <time>2025-12-29T12:41:22Z</time>
      </trkpt>
      <trkpt lat="43.1149" lon="0.45798">
        <ele>601.2</ele>
        <time>2025-12-29T12:41:23Z</time>
      </trkpt>
      <trkpt lat="43.11488" lon="0.45793">
        <ele>601.2</ele>
        <time>2025-12-29T12:41:24Z</time>
      </trkpt>
      <trkpt lat="43.11486" lon="0.45788">
        <ele>601.2</ele>
        <time>2025-12-29T12:41:25Z</time>
      </trkpt>
      <trkpt lat="43.11484" lon="0.45783">
        <ele>600.8</ele>
        <time>2025-12-29T12:41:26Z</time>
      </trkpt>
      <trkpt lat="43.11481" lon="0.45778">
        <ele>601.6</ele>
        <time>2025-12-29T12:41:27Z</time>
      </trkpt>
      <trkpt lat="43.11479" lon="0.45773">
        <ele>601.6</ele>
        <time>2025-12-29T12:41:28Z</time>
      </trkpt>
      <trkpt lat="43.11476" lon="0.45768">
        <ele>601.6</ele>
        <time>2025-12-29T12:41:29Z</time>
      </trkpt>
      <trkpt lat="43.11474" lon="0.45763">
        <ele>601.6</ele>
        <time>2025-12-29T12:41:30Z</time>
      </trkpt>
      <trkpt lat="43.11471" lon="0.45758">
        <ele>601.4</ele>
        <time>2025-12-29T12:41:31Z</time>
      </trkpt>
      <trkpt lat="43.11469" lon="0.45753">
        <ele>601.4</ele>
        <time>2025-12-29T12:41:32Z</time>
      </trkpt>
      <trkpt lat="43.11466" lon="0.45748">
        <ele>601.4</ele>
        <time>2025-12-29T12:41:33Z</time>
      </trkpt>
      <trkpt lat="43.11464" lon="0.45743">
        <ele>601.4</ele>
        <time>2025-12-29T12:41:34Z</time>
      </trkpt>
      <trkpt lat="43.11462" lon="0.45738">
        <ele>601.2</ele>
        <time>2025-12-29T12:41:35Z</time>
      </trkpt>
      <trkpt lat="43.1146" lon="0.45733">
        <ele>601.2</ele>
        <time>2025-12-29T12:41:36Z</time>
      </trkpt>
      <trkpt lat="43.11457" lon="0.45728">
        <ele>601.2</ele>
        <time>2025-12-29T12:41:37Z</time>
      </trkpt>
      <trkpt lat="43.11455" lon="0.45723">
        <ele>601.2</ele>
        <time>2025-12-29T12:41:38Z</time>
      </trkpt>
      <trkpt lat="43.11452" lon="0.45718">
        <ele>601.2</ele>
        <time>2025-12-29T12:41:39Z</time>
      </trkpt>
      <trkpt lat="43.1145" lon="0.45714">
        <ele>601.2</ele>
        <time>2025-12-29T12:41:40Z</time>
      </trkpt>
      <trkpt lat="43.11448" lon="0.45709">
        <ele>601.2</ele>
        <time>2025-12-29T12:41:41Z</time>
      </trkpt>
      <trkpt lat="43.11445" lon="0.45704">
        <ele>601.8</ele>
        <time>2025-12-29T12:41:42Z</time>
      </trkpt>
      <trkpt lat="43.11443" lon="0.45699">
        <ele>601.2</ele>
        <time>2025-12-29T12:41:43Z</time>
      </trkpt>
      <trkpt lat="43.11441" lon="0.45695">
        <ele>601.2</ele>
        <time>2025-12-29T12:41:44Z</time>
      </trkpt>
      <trkpt lat="43.11439" lon="0.4569">
        <ele>601.2</ele>
        <time>2025-12-29T12:41:45Z</time>
      </trkpt>
      <trkpt lat="43.11436" lon="0.45685">
        <ele>601.6</ele>
        <time>2025-12-29T12:41:46Z</time>
      </trkpt>
      <trkpt lat="43.11434" lon="0.4568">
        <ele>602</ele>
        <time>2025-12-29T12:41:47Z</time>
      </trkpt>
      <trkpt lat="43.11432" lon="0.45675">
        <ele>602</ele>
        <time>2025-12-29T12:41:48Z</time>
      </trkpt>
      <trkpt lat="43.1143" lon="0.45671">
        <ele>602</ele>
        <time>2025-12-29T12:41:49Z</time>
      </trkpt>
      <trkpt lat="43.11428" lon="0.45666">
        <ele>602</ele>
        <time>2025-12-29T12:41:50Z</time>
      </trkpt>
      <trkpt lat="43.11425" lon="0.45661">
        <ele>602.2</ele>
        <time>2025-12-29T12:41:51Z</time>
      </trkpt>
      <trkpt lat="43.11423" lon="0.45656">
        <ele>602.2</ele>
        <time>2025-12-29T12:41:52Z</time>
      </trkpt>
      <trkpt lat="43.11421" lon="0.45651">
        <ele>602.2</ele>
        <time>2025-12-29T12:41:53Z</time>
      </trkpt>
      <trkpt lat="43.11419" lon="0.45646">
        <ele>601.2</ele>
        <time>2025-12-29T12:41:54Z</time>
      </trkpt>
      <trkpt lat="43.11417" lon="0.45641">
        <ele>601.4</ele>
        <time>2025-12-29T12:41:55Z</time>
      </trkpt>
      <trkpt lat="43.11414" lon="0.45636">
        <ele>601.4</ele>
        <time>2025-12-29T12:41:56Z</time>
      </trkpt>
      <trkpt lat="43.11412" lon="0.4563">
        <ele>601.4</ele>
        <time>2025-12-29T12:41:57Z</time>
      </trkpt>
      <trkpt lat="43.1141" lon="0.45625">
        <ele>601.4</ele>
        <time>2025-12-29T12:41:58Z</time>
      </trkpt>
      <trkpt lat="43.11408" lon="0.4562">
        <ele>602</ele>
        <time>2025-12-29T12:41:59Z</time>
      </trkpt>
      <trkpt lat="43.11405" lon="0.45615">
        <ele>602</ele>
        <time>2025-12-29T12:42:00Z</time>
      </trkpt>
      <trkpt lat="43.11403" lon="0.45609">
        <ele>602</ele>
        <time>2025-12-29T12:42:01Z</time>
      </trkpt>
      <trkpt lat="43.11401" lon="0.45604">
        <ele>601.6</ele>
        <time>2025-12-29T12:42:02Z</time>
      </trkpt>
      <trkpt lat="43.11399" lon="0.45599">
        <ele>601.8</ele>
        <time>2025-12-29T12:42:03Z</time>
      </trkpt>
      <trkpt lat="43.11396" lon="0.45594">
        <ele>601.8</ele>
        <time>2025-12-29T12:42:04Z</time>
      </trkpt>
      <trkpt lat="43.11394" lon="0.45589">
        <ele>601.8</ele>
        <time>2025-12-29T12:42:05Z</time>
      </trkpt>
      <trkpt lat="43.11391" lon="0.45584">
        <ele>601.2</ele>
        <time>2025-12-29T12:42:06Z</time>
      </trkpt>
      <trkpt lat="43.11389" lon="0.4558">
        <ele>601</ele>
        <time>2025-12-29T12:42:07Z</time>
      </trkpt>
      <trkpt lat="43.11387" lon="0.45575">
        <ele>601</ele>
        <time>2025-12-29T12:42:08Z</time>
      </trkpt>
      <trkpt lat="43.11385" lon="0.4557">
        <ele>601</ele>
        <time>2025-12-29T12:42:09Z</time>
      </trkpt>
      <trkpt lat="43.11382" lon="0.45565">
        <ele>602</ele>
        <time>2025-12-29T12:42:10Z</time>
      </trkpt>
      <trkpt lat="43.1138" lon="0.4556">
        <ele>601.8</ele>
        <time>2025-12-29T12:42:11Z</time>
      </trkpt>
      <trkpt lat="43.11377" lon="0.45554">
        <ele>601.8</ele>
        <time>2025-12-29T12:42:12Z</time>
      </trkpt>
      <trkpt lat="43.11375" lon="0.45549">
        <ele>601.8</ele>
        <time>2025-12-29T12:42:13Z</time>
      </trkpt>
      <trkpt lat="43.11373" lon="0.45544">
        <ele>601.8</ele>
        <time>2025-12-29T12:42:14Z</time>
      </trkpt>
      <trkpt lat="43.1137" lon="0.45539">
        <ele>601.8</ele>
        <time>2025-12-29T12:42:15Z</time>
      </trkpt>
      <trkpt lat="43.11368" lon="0.45534">
        <ele>601.8</ele>
        <time>2025-12-29T12:42:16Z</time>
      </trkpt>
      <trkpt lat="43.11365" lon="0.45529">
        <ele>601.8</ele>
        <time>2025-12-29T12:42:17Z</time>
      </trkpt>
      <trkpt lat="43.11363" lon="0.45524">
        <ele>601.6</ele>
        <time>2025-12-29T12:42:18Z</time>
      </trkpt>
      <trkpt lat="43.11361" lon="0.45519">
        <ele>601.2</ele>
        <time>2025-12-29T12:42:19Z</time>
      </trkpt>
      <trkpt lat="43.11358" lon="0.45514">
        <ele>601.2</ele>
        <time>2025-12-29T12:42:20Z</time>
      </trkpt>
      <trkpt lat="43.11356" lon="0.45509">
        <ele>601.2</ele>
        <time>2025-12-29T12:42:21Z</time>
      </trkpt>
      <trkpt lat="43.11353" lon="0.45504">
        <ele>601.2</ele>
        <time>2025-12-29T12:42:22Z</time>
      </trkpt>
      <trkpt lat="43.11351" lon="0.45499">
        <ele>600.8</ele>
        <time>2025-12-29T12:42:23Z</time>
      </trkpt>
      <trkpt lat="43.11349" lon="0.45494">
        <ele>600.8</ele>
        <time>2025-12-29T12:42:24Z</time>
      </trkpt>
      <trkpt lat="43.11346" lon="0.45489">
        <ele>600.8</ele>
        <time>2025-12-29T12:42:25Z</time>
      </trkpt>
      <trkpt lat="43.11344" lon="0.45484">
        <ele>601.8</ele>
        <time>2025-12-29T12:42:26Z</time>
      </trkpt>
      <trkpt lat="43.11341" lon="0.45479">
        <ele>601.4</ele>
        <time>2025-12-29T12:42:27Z</time>
      </trkpt>
      <trkpt lat="43.11339" lon="0.45474">
        <ele>601.4</ele>
        <time>2025-12-29T12:42:28Z</time>
      </trkpt>
      <trkpt lat="43.11336" lon="0.45469">
        <ele>601.4</ele>
        <time>2025-12-29T12:42:29Z</time>
      </trkpt>
      <trkpt lat="43.11334" lon="0.45464">
        <ele>602.2</ele>
        <time>2025-12-29T12:42:30Z</time>
      </trkpt>
      <trkpt lat="43.11332" lon="0.45459">
        <ele>602</ele>
        <time>2025-12-29T12:42:31Z</time>
      </trkpt>
      <trkpt lat="43.1133" lon="0.45455">
        <ele>602</ele>
        <time>2025-12-29T12:42:32Z</time>
      </trkpt>
      <trkpt lat="43.11328" lon="0.4545">
        <ele>602</ele>
        <time>2025-12-29T12:42:33Z</time>
      </trkpt>
      <trkpt lat="43.11326" lon="0.45445">
        <ele>602</ele>
        <time>2025-12-29T12:42:34Z</time>
      </trkpt>
      <trkpt lat="43.11323" lon="0.4544">
        <ele>602.6</ele>
        <time>2025-12-29T12:42:35Z</time>
      </trkpt>
      <trkpt lat="43.11321" lon="0.45436">
        <ele>602.6</ele>
        <time>2025-12-29T12:42:36Z</time>
      </trkpt>
      <trkpt lat="43.11319" lon="0.45431">
        <ele>602.6</ele>
        <time>2025-12-29T12:42:37Z</time>
      </trkpt>
      <trkpt lat="43.11317" lon="0.45426">
        <ele>603.2</ele>
        <time>2025-12-29T12:42:38Z</time>
      </trkpt>
      <trkpt lat="43.11314" lon="0.45421">
        <ele>603.2</ele>
        <time>2025-12-29T12:42:39Z</time>
      </trkpt>
      <trkpt lat="43.11312" lon="0.45416">
        <ele>603.2</ele>
        <time>2025-12-29T12:42:40Z</time>
      </trkpt>
      <trkpt lat="43.1131" lon="0.4541">
        <ele>603.2</ele>
        <time>2025-12-29T12:42:41Z</time>
      </trkpt>
      <trkpt lat="43.11308" lon="0.45405">
        <ele>603.2</ele>
        <time>2025-12-29T12:42:42Z</time>
      </trkpt>
      <trkpt lat="43.11306" lon="0.45401">
        <ele>602.6</ele>
        <time>2025-12-29T12:42:43Z</time>
      </trkpt>
      <trkpt lat="43.11304" lon="0.45396">
        <ele>602.6</ele>
        <time>2025-12-29T12:42:44Z</time>
      </trkpt>
      <trkpt lat="43.11302" lon="0.45392">
        <ele>602.6</ele>
        <time>2025-12-29T12:42:45Z</time>
      </trkpt>
      <trkpt lat="43.11299" lon="0.45387">
        <ele>602.6</ele>
        <time>2025-12-29T12:42:46Z</time>
      </trkpt>
      <trkpt lat="43.11297" lon="0.45383">
        <ele>602.6</ele>
        <time>2025-12-29T12:42:47Z</time>
      </trkpt>
      <trkpt lat="43.11295" lon="0.45379">
        <ele>602.6</ele>
        <time>2025-12-29T12:42:48Z</time>
      </trkpt>
      <trkpt lat="43.11293" lon="0.45374">
        <ele>602.6</ele>
        <time>2025-12-29T12:42:49Z</time>
      </trkpt>
      <trkpt lat="43.11291" lon="0.4537">
        <ele>602.6</ele>
        <time>2025-12-29T12:42:50Z</time>
      </trkpt>
      <trkpt lat="43.11289" lon="0.45366">
        <ele>603</ele>
        <time>2025-12-29T12:42:51Z</time>
      </trkpt>
      <trkpt lat="43.11287" lon="0.45362">
        <ele>603</ele>
        <time>2025-12-29T12:42:52Z</time>
      </trkpt>
      <trkpt lat="43.11285" lon="0.45357">
        <ele>603</ele>
        <time>2025-12-29T12:42:53Z</time>
      </trkpt>
      <trkpt lat="43.11282" lon="0.45353">
        <ele>603.2</ele>
        <time>2025-12-29T12:42:54Z</time>
      </trkpt>
      <trkpt lat="43.1128" lon="0.45349">
        <ele>602.8</ele>
        <time>2025-12-29T12:42:55Z</time>
      </trkpt>
      <trkpt lat="43.11278" lon="0.45344">
        <ele>602.8</ele>
        <time>2025-12-29T12:42:56Z</time>
      </trkpt>
      <trkpt lat="43.11276" lon="0.4534">
        <ele>602.8</ele>
        <time>2025-12-29T12:42:57Z</time>
      </trkpt>
      <trkpt lat="43.11274" lon="0.45335">
        <ele>603</ele>
        <time>2025-12-29T12:42:58Z</time>
      </trkpt>
      <trkpt lat="43.11272" lon="0.45331">
        <ele>603.8</ele>
        <time>2025-12-29T12:42:59Z</time>
      </trkpt>
      <trkpt lat="43.1127" lon="0.45326">
        <ele>603.8</ele>
        <time>2025-12-29T12:43:00Z</time>
      </trkpt>
      <trkpt lat="43.11268" lon="0.45321">
        <ele>603.8</ele>
        <time>2025-12-29T12:43:01Z</time>
      </trkpt>
      <trkpt lat="43.11266" lon="0.45317">
        <ele>603.8</ele>
        <time>2025-12-29T12:43:02Z</time>
      </trkpt>
      <trkpt lat="43.11264" lon="0.45312">
        <ele>603.6</ele>
        <time>2025-12-29T12:43:03Z</time>
      </trkpt>
      <trkpt lat="43.11262" lon="0.45307">
        <ele>603.6</ele>
        <time>2025-12-29T12:43:04Z</time>
      </trkpt>
      <trkpt lat="43.1126" lon="0.45303">
        <ele>603.6</ele>
        <time>2025-12-29T12:43:05Z</time>
      </trkpt>
      <trkpt lat="43.11257" lon="0.45298">
        <ele>604.6</ele>
        <time>2025-12-29T12:43:06Z</time>
      </trkpt>
      <trkpt lat="43.11255" lon="0.45293">
        <ele>603.6</ele>
        <time>2025-12-29T12:43:07Z</time>
      </trkpt>
      <trkpt lat="43.11253" lon="0.45289">
        <ele>603.6</ele>
        <time>2025-12-29T12:43:08Z</time>
      </trkpt>
      <trkpt lat="43.11251" lon="0.45284">
        <ele>603.6</ele>
        <time>2025-12-29T12:43:09Z</time>
      </trkpt>
      <trkpt lat="43.11249" lon="0.45279">
        <ele>603.6</ele>
        <time>2025-12-29T12:43:10Z</time>
      </trkpt>
      <trkpt lat="43.11247" lon="0.45274">
        <ele>604.6</ele>
        <time>2025-12-29T12:43:11Z</time>
      </trkpt>
      <trkpt lat="43.11245" lon="0.4527">
        <ele>604.6</ele>
        <time>2025-12-29T12:43:12Z</time>
      </trkpt>
      <trkpt lat="43.11243" lon="0.45265">
        <ele>604.6</ele>
        <time>2025-12-29T12:43:13Z</time>
      </trkpt>
      <trkpt lat="43.1124" lon="0.45261">
        <ele>605.6</ele>
        <time>2025-12-29T12:43:14Z</time>
      </trkpt>
      <trkpt lat="43.11238" lon="0.45256">
        <ele>605</ele>
        <time>2025-12-29T12:43:15Z</time>
      </trkpt>
      <trkpt lat="43.11236" lon="0.45252">
        <ele>605</ele>
        <time>2025-12-29T12:43:16Z</time>
      </trkpt>
      <trkpt lat="43.11234" lon="0.45247">
        <ele>605</ele>
        <time>2025-12-29T12:43:17Z</time>
      </trkpt>
      <trkpt lat="43.11232" lon="0.45242">
        <ele>605.6</ele>
        <time>2025-12-29T12:43:18Z</time>
      </trkpt>
      <trkpt lat="43.11229" lon="0.45238">
        <ele>606.2</ele>
        <time>2025-12-29T12:43:19Z</time>
      </trkpt>
      <trkpt lat="43.11227" lon="0.45233">
        <ele>606.2</ele>
        <time>2025-12-29T12:43:20Z</time>
      </trkpt>
      <trkpt lat="43.11225" lon="0.45229">
        <ele>606.2</ele>
        <time>2025-12-29T12:43:21Z</time>
      </trkpt>
      <trkpt lat="43.11223" lon="0.45225">
        <ele>606.2</ele>
        <time>2025-12-29T12:43:22Z</time>
      </trkpt>
      <trkpt lat="43.11221" lon="0.4522">
        <ele>606.2</ele>
        <time>2025-12-29T12:43:23Z</time>
      </trkpt>
      <trkpt lat="43.11218" lon="0.45215">
        <ele>606.2</ele>
        <time>2025-12-29T12:43:24Z</time>
      </trkpt>
      <trkpt lat="43.11216" lon="0.45211">
        <ele>606.2</ele>
        <time>2025-12-29T12:43:25Z</time>
      </trkpt>
      <trkpt lat="43.11214" lon="0.45206">
        <ele>606.2</ele>
        <time>2025-12-29T12:43:26Z</time>
      </trkpt>
      <trkpt lat="43.11212" lon="0.45201">
        <ele>606.6</ele>
        <time>2025-12-29T12:43:27Z</time>
      </trkpt>
      <trkpt lat="43.1121" lon="0.45197">
        <ele>606.6</ele>
        <time>2025-12-29T12:43:28Z</time>
      </trkpt>
      <trkpt lat="43.11208" lon="0.45192">
        <ele>606.6</ele>
        <time>2025-12-29T12:43:29Z</time>
      </trkpt>
      <trkpt lat="43.11207" lon="0.45188">
        <ele>606.6</ele>
        <time>2025-12-29T12:43:30Z</time>
      </trkpt>
      <trkpt lat="43.11204" lon="0.45183">
        <ele>606.8</ele>
        <time>2025-12-29T12:43:31Z</time>
      </trkpt>
      <trkpt lat="43.11202" lon="0.45179">
        <ele>606.8</ele>
        <time>2025-12-29T12:43:32Z</time>
      </trkpt>
      <trkpt lat="43.112" lon="0.45174">
        <ele>606.8</ele>
        <time>2025-12-29T12:43:33Z</time>
      </trkpt>
      <trkpt lat="43.11198" lon="0.4517">
        <ele>607.6</ele>
        <time>2025-12-29T12:43:34Z</time>
      </trkpt>
      <trkpt lat="43.11196" lon="0.45165">
        <ele>606.6</ele>
        <time>2025-12-29T12:43:35Z</time>
      </trkpt>
      <trkpt lat="43.11194" lon="0.45161">
        <ele>606.6</ele>
        <time>2025-12-29T12:43:36Z</time>
      </trkpt>
      <trkpt lat="43.11192" lon="0.45156">
        <ele>606.6</ele>
        <time>2025-12-29T12:43:37Z</time>
      </trkpt>
      <trkpt lat="43.11189" lon="0.45151">
        <ele>606.6</ele>
        <time>2025-12-29T12:43:38Z</time>
      </trkpt>
      <trkpt lat="43.11187" lon="0.45147">
        <ele>606.8</ele>
        <time>2025-12-29T12:43:39Z</time>
      </trkpt>
      <trkpt lat="43.11185" lon="0.45142">
        <ele>606.8</ele>
        <time>2025-12-29T12:43:40Z</time>
      </trkpt>
      <trkpt lat="43.11183" lon="0.45137">
        <ele>606.8</ele>
        <time>2025-12-29T12:43:41Z</time>
      </trkpt>
      <trkpt lat="43.1118" lon="0.45133">
        <ele>606.8</ele>
        <time>2025-12-29T12:43:42Z</time>
      </trkpt>
      <trkpt lat="43.11178" lon="0.45128">
        <ele>607.6</ele>
        <time>2025-12-29T12:43:43Z</time>
      </trkpt>
      <trkpt lat="43.11176" lon="0.45123">
        <ele>607.6</ele>
        <time>2025-12-29T12:43:44Z</time>
      </trkpt>
      <trkpt lat="43.11174" lon="0.45118">
        <ele>607.6</ele>
        <time>2025-12-29T12:43:45Z</time>
      </trkpt>
      <trkpt lat="43.11172" lon="0.45113">
        <ele>607</ele>
        <time>2025-12-29T12:43:46Z</time>
      </trkpt>
      <trkpt lat="43.1117" lon="0.45108">
        <ele>607.2</ele>
        <time>2025-12-29T12:43:47Z</time>
      </trkpt>
      <trkpt lat="43.11168" lon="0.45103">
        <ele>607.2</ele>
        <time>2025-12-29T12:43:48Z</time>
      </trkpt>
      <trkpt lat="43.11166" lon="0.45097">
        <ele>607.2</ele>
        <time>2025-12-29T12:43:49Z</time>
      </trkpt>
      <trkpt lat="43.11164" lon="0.45092">
        <ele>607.2</ele>
        <time>2025-12-29T12:43:50Z</time>
      </trkpt>
      <trkpt lat="43.11162" lon="0.45087">
        <ele>607.8</ele>
        <time>2025-12-29T12:43:51Z</time>
      </trkpt>
      <trkpt lat="43.1116" lon="0.45082">
        <ele>607.8</ele>
        <time>2025-12-29T12:43:52Z</time>
      </trkpt>
      <trkpt lat="43.11158" lon="0.45077">
        <ele>607.8</ele>
        <time>2025-12-29T12:43:53Z</time>
      </trkpt>
      <trkpt lat="43.11156" lon="0.45072">
        <ele>606.8</ele>
        <time>2025-12-29T12:43:54Z</time>
      </trkpt>
      <trkpt lat="43.11154" lon="0.45067">
        <ele>607.2</ele>
        <time>2025-12-29T12:43:55Z</time>
      </trkpt>
      <trkpt lat="43.11152" lon="0.45062">
        <ele>607.2</ele>
        <time>2025-12-29T12:43:56Z</time>
      </trkpt>
      <trkpt lat="43.1115" lon="0.45057">
        <ele>607.2</ele>
        <time>2025-12-29T12:43:57Z</time>
      </trkpt>
      <trkpt lat="43.11148" lon="0.45051">
        <ele>607.2</ele>
        <time>2025-12-29T12:43:58Z</time>
      </trkpt>
      <trkpt lat="43.11146" lon="0.45046">
        <ele>607.4</ele>
        <time>2025-12-29T12:43:59Z</time>
      </trkpt>
      <trkpt lat="43.11144" lon="0.45041">
        <ele>607.4</ele>
        <time>2025-12-29T12:44:00Z</time>
      </trkpt>
      <trkpt lat="43.11142" lon="0.45036">
        <ele>607.4</ele>
        <time>2025-12-29T12:44:01Z</time>
      </trkpt>
      <trkpt lat="43.1114" lon="0.45031">
        <ele>607.4</ele>
        <time>2025-12-29T12:44:02Z</time>
      </trkpt>
      <trkpt lat="43.11138" lon="0.45025">
        <ele>607.4</ele>
        <time>2025-12-29T12:44:03Z</time>
      </trkpt>
      <trkpt lat="43.11137" lon="0.4502">
        <ele>607.4</ele>
        <time>2025-12-29T12:44:04Z</time>
      </trkpt>
      <trkpt lat="43.11135" lon="0.45014">
        <ele>607.4</ele>
        <time>2025-12-29T12:44:05Z</time>
      </trkpt>
      <trkpt lat="43.11133" lon="0.45009">
        <ele>607.4</ele>
        <time>2025-12-29T12:44:06Z</time>
      </trkpt>
      <trkpt lat="43.11132" lon="0.45003">
        <ele>606.4</ele>
        <time>2025-12-29T12:44:07Z</time>
      </trkpt>
      <trkpt lat="43.1113" lon="0.44998">
        <ele>606.4</ele>
        <time>2025-12-29T12:44:08Z</time>
      </trkpt>
      <trkpt lat="43.11128" lon="0.44992">
        <ele>606.4</ele>
        <time>2025-12-29T12:44:09Z</time>
      </trkpt>
      <trkpt lat="43.11126" lon="0.44987">
        <ele>607.4</ele>
        <time>2025-12-29T12:44:10Z</time>
      </trkpt>
      <trkpt lat="43.11124" lon="0.44982">
        <ele>607.4</ele>
        <time>2025-12-29T12:44:11Z</time>
      </trkpt>
      <trkpt lat="43.11123" lon="0.44977">
        <ele>607.4</ele>
        <time>2025-12-29T12:44:12Z</time>
      </trkpt>
      <trkpt lat="43.11121" lon="0.44972">
        <ele>607.4</ele>
        <time>2025-12-29T12:44:13Z</time>
      </trkpt>
      <trkpt lat="43.11119" lon="0.44967">
        <ele>606.6</ele>
        <time>2025-12-29T12:44:14Z</time>
      </trkpt>
      <trkpt lat="43.11117" lon="0.44961">
        <ele>606.2</ele>
        <time>2025-12-29T12:44:15Z</time>
      </trkpt>
      <trkpt lat="43.11115" lon="0.44956">
        <ele>606.2</ele>
        <time>2025-12-29T12:44:16Z</time>
      </trkpt>
      <trkpt lat="43.11113" lon="0.44951">
        <ele>606.2</ele>
        <time>2025-12-29T12:44:17Z</time>
      </trkpt>
      <trkpt lat="43.11111" lon="0.44946">
        <ele>607.2</ele>
        <time>2025-12-29T12:44:18Z</time>
      </trkpt>
      <trkpt lat="43.1111" lon="0.44941">
        <ele>607.8</ele>
        <time>2025-12-29T12:44:19Z</time>
      </trkpt>
      <trkpt lat="43.11108" lon="0.44937">
        <ele>607.8</ele>
        <time>2025-12-29T12:44:20Z</time>
      </trkpt>
      <trkpt lat="43.11106" lon="0.44932">
        <ele>607.8</ele>
        <time>2025-12-29T12:44:21Z</time>
      </trkpt>
      <trkpt lat="43.11104" lon="0.44927">
        <ele>607.8</ele>
        <time>2025-12-29T12:44:22Z</time>
      </trkpt>
      <trkpt lat="43.11103" lon="0.44922">
        <ele>608.4</ele>
        <time>2025-12-29T12:44:23Z</time>
      </trkpt>
      <trkpt lat="43.11101" lon="0.44917">
        <ele>608.4</ele>
        <time>2025-12-29T12:44:24Z</time>
      </trkpt>
      <trkpt lat="43.11099" lon="0.44912">
        <ele>608.4</ele>
        <time>2025-12-29T12:44:25Z</time>
      </trkpt>
      <trkpt lat="43.11098" lon="0.44907">
        <ele>608.4</ele>
        <time>2025-12-29T12:44:26Z</time>
      </trkpt>
      <trkpt lat="43.11096" lon="0.44902">
        <ele>608.6</ele>
        <time>2025-12-29T12:44:27Z</time>
      </trkpt>
      <trkpt lat="43.11094" lon="0.44898">
        <ele>608.6</ele>
        <time>2025-12-29T12:44:28Z</time>
      </trkpt>
      <trkpt lat="43.11092" lon="0.44893">
        <ele>608.6</ele>
        <time>2025-12-29T12:44:29Z</time>
      </trkpt>
      <trkpt lat="43.1109" lon="0.44888">
        <ele>608.6</ele>
        <time>2025-12-29T12:44:30Z</time>
      </trkpt>
      <trkpt lat="43.11088" lon="0.44883">
        <ele>608</ele>
        <time>2025-12-29T12:44:31Z</time>
      </trkpt>
      <trkpt lat="43.11086" lon="0.44878">
        <ele>608</ele>
        <time>2025-12-29T12:44:32Z</time>
      </trkpt>
      <trkpt lat="43.11084" lon="0.44873">
        <ele>608</ele>
        <time>2025-12-29T12:44:33Z</time>
      </trkpt>
      <trkpt lat="43.11082" lon="0.44868">
        <ele>608.2</ele>
        <time>2025-12-29T12:44:34Z</time>
      </trkpt>
      <trkpt lat="43.11081" lon="0.44863">
        <ele>609</ele>
        <time>2025-12-29T12:44:35Z</time>
      </trkpt>
      <trkpt lat="43.11079" lon="0.44858">
        <ele>609</ele>
        <time>2025-12-29T12:44:36Z</time>
      </trkpt>
      <trkpt lat="43.11077" lon="0.44853">
        <ele>609</ele>
        <time>2025-12-29T12:44:37Z</time>
      </trkpt>
      <trkpt lat="43.11075" lon="0.44848">
        <ele>608.4</ele>
        <time>2025-12-29T12:44:38Z</time>
      </trkpt>
      <trkpt lat="43.11074" lon="0.44843">
        <ele>610.4</ele>
        <time>2025-12-29T12:44:39Z</time>
      </trkpt>
      <trkpt lat="43.11072" lon="0.44838">
        <ele>610.4</ele>
        <time>2025-12-29T12:44:40Z</time>
      </trkpt>
      <trkpt lat="43.1107" lon="0.44833">
        <ele>610.4</ele>
        <time>2025-12-29T12:44:41Z</time>
      </trkpt>
      <trkpt lat="43.11068" lon="0.44828">
        <ele>609.4</ele>
        <time>2025-12-29T12:44:42Z</time>
      </trkpt>
      <trkpt lat="43.11067" lon="0.44823">
        <ele>608.8</ele>
        <time>2025-12-29T12:44:43Z</time>
      </trkpt>
      <trkpt lat="43.11065" lon="0.44819">
        <ele>608.8</ele>
        <time>2025-12-29T12:44:44Z</time>
      </trkpt>
      <trkpt lat="43.11063" lon="0.44814">
        <ele>608.8</ele>
        <time>2025-12-29T12:44:45Z</time>
      </trkpt>
      <trkpt lat="43.11062" lon="0.44809">
        <ele>608.8</ele>
        <time>2025-12-29T12:44:46Z</time>
      </trkpt>
      <trkpt lat="43.1106" lon="0.44805">
        <ele>609.4</ele>
        <time>2025-12-29T12:44:47Z</time>
      </trkpt>
      <trkpt lat="43.11058" lon="0.448">
        <ele>609.4</ele>
        <time>2025-12-29T12:44:48Z</time>
      </trkpt>
      <trkpt lat="43.11057" lon="0.44796">
        <ele>609.4</ele>
        <time>2025-12-29T12:44:49Z</time>
      </trkpt>
      <trkpt lat="43.11055" lon="0.44792">
        <ele>609.4</ele>
        <time>2025-12-29T12:44:50Z</time>
      </trkpt>
      <trkpt lat="43.11054" lon="0.44787">
        <ele>610.4</ele>
        <time>2025-12-29T12:44:51Z</time>
      </trkpt>
      <trkpt lat="43.11052" lon="0.44783">
        <ele>610.4</ele>
        <time>2025-12-29T12:44:52Z</time>
      </trkpt>
      <trkpt lat="43.11051" lon="0.44778">
        <ele>610.4</ele>
        <time>2025-12-29T12:44:53Z</time>
      </trkpt>
      <trkpt lat="43.11049" lon="0.44773">
        <ele>610.4</ele>
        <time>2025-12-29T12:44:54Z</time>
      </trkpt>
      <trkpt lat="43.11048" lon="0.44769">
        <ele>610.4</ele>
        <time>2025-12-29T12:44:55Z</time>
      </trkpt>
      <trkpt lat="43.11046" lon="0.44764">
        <ele>610.4</ele>
        <time>2025-12-29T12:44:56Z</time>
      </trkpt>
      <trkpt lat="43.11045" lon="0.44759">
        <ele>610.4</ele>
        <time>2025-12-29T12:44:57Z</time>
      </trkpt>
      <trkpt lat="43.11043" lon="0.44755">
        <ele>611.4</ele>
        <time>2025-12-29T12:44:58Z</time>
      </trkpt>
      <trkpt lat="43.11041" lon="0.4475">
        <ele>612.2</ele>
        <time>2025-12-29T12:44:59Z</time>
      </trkpt>
      <trkpt lat="43.1104" lon="0.44745">
        <ele>612.2</ele>
        <time>2025-12-29T12:45:00Z</time>
      </trkpt>
      <trkpt lat="43.11038" lon="0.4474">
        <ele>612.2</ele>
        <time>2025-12-29T12:45:01Z</time>
      </trkpt>
      <trkpt lat="43.11037" lon="0.44735">
        <ele>612</ele>
        <time>2025-12-29T12:45:02Z</time>
      </trkpt>
      <trkpt lat="43.11035" lon="0.4473">
        <ele>611.4</ele>
        <time>2025-12-29T12:45:03Z</time>
      </trkpt>
      <trkpt lat="43.11034" lon="0.44726">
        <ele>611.4</ele>
        <time>2025-12-29T12:45:04Z</time>
      </trkpt>
      <trkpt lat="43.11032" lon="0.44721">
        <ele>611.4</ele>
        <time>2025-12-29T12:45:05Z</time>
      </trkpt>
      <trkpt lat="43.11031" lon="0.44716">
        <ele>612.2</ele>
        <time>2025-12-29T12:45:06Z</time>
      </trkpt>
      <trkpt lat="43.11029" lon="0.44711">
        <ele>611.8</ele>
        <time>2025-12-29T12:45:07Z</time>
      </trkpt>
      <trkpt lat="43.11028" lon="0.44706">
        <ele>611.8</ele>
        <time>2025-12-29T12:45:08Z</time>
      </trkpt>
      <trkpt lat="43.11026" lon="0.44701">
        <ele>611.8</ele>
        <time>2025-12-29T12:45:09Z</time>
      </trkpt>
      <trkpt lat="43.11024" lon="0.44696">
        <ele>611.8</ele>
        <time>2025-12-29T12:45:10Z</time>
      </trkpt>
      <trkpt lat="43.11023" lon="0.4469">
        <ele>611</ele>
        <time>2025-12-29T12:45:11Z</time>
      </trkpt>
      <trkpt lat="43.11021" lon="0.44685">
        <ele>611</ele>
        <time>2025-12-29T12:45:12Z</time>
      </trkpt>
      <trkpt lat="43.1102" lon="0.4468">
        <ele>611</ele>
        <time>2025-12-29T12:45:13Z</time>
      </trkpt>
      <trkpt lat="43.11018" lon="0.44675">
        <ele>611</ele>
        <time>2025-12-29T12:45:14Z</time>
      </trkpt>
      <trkpt lat="43.11016" lon="0.4467">
        <ele>611</ele>
        <time>2025-12-29T12:45:15Z</time>
      </trkpt>
      <trkpt lat="43.11015" lon="0.44664">
        <ele>611</ele>
        <time>2025-12-29T12:45:16Z</time>
      </trkpt>
      <trkpt lat="43.11013" lon="0.44659">
        <ele>611</ele>
        <time>2025-12-29T12:45:17Z</time>
      </trkpt>
      <trkpt lat="43.11012" lon="0.44654">
        <ele>611</ele>
        <time>2025-12-29T12:45:18Z</time>
      </trkpt>
      <trkpt lat="43.1101" lon="0.44648">
        <ele>610.8</ele>
        <time>2025-12-29T12:45:19Z</time>
      </trkpt>
      <trkpt lat="43.11009" lon="0.44643">
        <ele>610.8</ele>
        <time>2025-12-29T12:45:20Z</time>
      </trkpt>
      <trkpt lat="43.11007" lon="0.44637">
        <ele>610.8</ele>
        <time>2025-12-29T12:45:21Z</time>
      </trkpt>
      <trkpt lat="43.11006" lon="0.44632">
        <ele>611.2</ele>
        <time>2025-12-29T12:45:22Z</time>
      </trkpt>
      <trkpt lat="43.11004" lon="0.44627">
        <ele>610.2</ele>
        <time>2025-12-29T12:45:23Z</time>
      </trkpt>
      <trkpt lat="43.11003" lon="0.44621">
        <ele>610.2</ele>
        <time>2025-12-29T12:45:24Z</time>
      </trkpt>
      <trkpt lat="43.11001" lon="0.44616">
        <ele>610.2</ele>
        <time>2025-12-29T12:45:25Z</time>
      </trkpt>
      <trkpt lat="43.10999" lon="0.44611">
        <ele>610.2</ele>
        <time>2025-12-29T12:45:26Z</time>
      </trkpt>
      <trkpt lat="43.10998" lon="0.44605">
        <ele>611</ele>
        <time>2025-12-29T12:45:27Z</time>
      </trkpt>
      <trkpt lat="43.10996" lon="0.446">
        <ele>611</ele>
        <time>2025-12-29T12:45:28Z</time>
      </trkpt>
      <trkpt lat="43.10995" lon="0.44595">
        <ele>611</ele>
        <time>2025-12-29T12:45:29Z</time>
      </trkpt>
      <trkpt lat="43.10994" lon="0.4459">
        <ele>611</ele>
        <time>2025-12-29T12:45:30Z</time>
      </trkpt>
      <trkpt lat="43.10992" lon="0.44585">
        <ele>609.8</ele>
        <time>2025-12-29T12:45:31Z</time>
      </trkpt>
      <trkpt lat="43.10991" lon="0.44579">
        <ele>609.8</ele>
        <time>2025-12-29T12:45:32Z</time>
      </trkpt>
      <trkpt lat="43.10989" lon="0.44574">
        <ele>609.8</ele>
        <time>2025-12-29T12:45:33Z</time>
      </trkpt>
      <trkpt lat="43.10987" lon="0.44569">
        <ele>609.8</ele>
        <time>2025-12-29T12:45:34Z</time>
      </trkpt>
      <trkpt lat="43.10986" lon="0.44564">
        <ele>609.8</ele>
        <time>2025-12-29T12:45:35Z</time>
      </trkpt>
      <trkpt lat="43.10984" lon="0.44558">
        <ele>609.8</ele>
        <time>2025-12-29T12:45:36Z</time>
      </trkpt>
      <trkpt lat="43.10983" lon="0.44554">
        <ele>609.8</ele>
        <time>2025-12-29T12:45:37Z</time>
      </trkpt>
      <trkpt lat="43.10982" lon="0.44549">
        <ele>609.8</ele>
        <time>2025-12-29T12:45:38Z</time>
      </trkpt>
      <trkpt lat="43.1098" lon="0.44545">
        <ele>610.8</ele>
        <time>2025-12-29T12:45:39Z</time>
      </trkpt>
      <trkpt lat="43.10979" lon="0.4454">
        <ele>610.8</ele>
        <time>2025-12-29T12:45:40Z</time>
      </trkpt>
      <trkpt lat="43.10978" lon="0.44535">
        <ele>610.8</ele>
        <time>2025-12-29T12:45:41Z</time>
      </trkpt>
      <trkpt lat="43.10977" lon="0.4453">
        <ele>610.8</ele>
        <time>2025-12-29T12:45:42Z</time>
      </trkpt>
      <trkpt lat="43.10975" lon="0.44525">
        <ele>610.6</ele>
        <time>2025-12-29T12:45:43Z</time>
      </trkpt>
      <trkpt lat="43.10974" lon="0.4452">
        <ele>610.6</ele>
        <time>2025-12-29T12:45:44Z</time>
      </trkpt>
      <trkpt lat="43.10973" lon="0.44515">
        <ele>610.6</ele>
        <time>2025-12-29T12:45:45Z</time>
      </trkpt>
      <trkpt lat="43.10971" lon="0.4451">
        <ele>610</ele>
        <time>2025-12-29T12:45:46Z</time>
      </trkpt>
      <trkpt lat="43.1097" lon="0.44504">
        <ele>611</ele>
        <time>2025-12-29T12:45:47Z</time>
      </trkpt>
      <trkpt lat="43.10969" lon="0.44499">
        <ele>611</ele>
        <time>2025-12-29T12:45:48Z</time>
      </trkpt>
      <trkpt lat="43.10967" lon="0.44495">
        <ele>611</ele>
        <time>2025-12-29T12:45:49Z</time>
      </trkpt>
      <trkpt lat="43.10966" lon="0.4449">
        <ele>610</ele>
        <time>2025-12-29T12:45:50Z</time>
      </trkpt>
      <trkpt lat="43.10965" lon="0.44486">
        <ele>611</ele>
        <time>2025-12-29T12:45:51Z</time>
      </trkpt>
      <trkpt lat="43.10963" lon="0.44481">
        <ele>611</ele>
        <time>2025-12-29T12:45:52Z</time>
      </trkpt>
      <trkpt lat="43.10962" lon="0.44477">
        <ele>611</ele>
        <time>2025-12-29T12:45:53Z</time>
      </trkpt>
      <trkpt lat="43.10961" lon="0.44473">
        <ele>611</ele>
        <time>2025-12-29T12:45:54Z</time>
      </trkpt>
      <trkpt lat="43.1096" lon="0.44468">
        <ele>611.8</ele>
        <time>2025-12-29T12:45:55Z</time>
      </trkpt>
      <trkpt lat="43.10959" lon="0.44464">
        <ele>611.8</ele>
        <time>2025-12-29T12:45:56Z</time>
      </trkpt>
      <trkpt lat="43.10957" lon="0.4446">
        <ele>611.8</ele>
        <time>2025-12-29T12:45:57Z</time>
      </trkpt>
      <trkpt lat="43.10956" lon="0.44455">
        <ele>611.8</ele>
        <time>2025-12-29T12:45:58Z</time>
      </trkpt>
      <trkpt lat="43.10955" lon="0.44451">
        <ele>611.4</ele>
        <time>2025-12-29T12:45:59Z</time>
      </trkpt>
      <trkpt lat="43.10953" lon="0.44447">
        <ele>611.4</ele>
        <time>2025-12-29T12:46:00Z</time>
      </trkpt>
      <trkpt lat="43.10952" lon="0.44443">
        <ele>611.4</ele>
        <time>2025-12-29T12:46:01Z</time>
      </trkpt>
      <trkpt lat="43.10951" lon="0.4444">
        <ele>611.4</ele>
        <time>2025-12-29T12:46:02Z</time>
      </trkpt>
      <trkpt lat="43.1095" lon="0.44437">
        <ele>612.6</ele>
        <time>2025-12-29T12:46:03Z</time>
      </trkpt>
      <trkpt lat="43.10949" lon="0.44435">
        <ele>612.6</ele>
        <time>2025-12-29T12:46:04Z</time>
      </trkpt>
      <trkpt lat="43.10948" lon="0.44433">
        <ele>612.6</ele>
        <time>2025-12-29T12:46:05Z</time>
      </trkpt>
      <trkpt lat="43.10947" lon="0.44431">
        <ele>612.6</ele>
        <time>2025-12-29T12:46:06Z</time>
      </trkpt>
      <trkpt lat="43.10946" lon="0.4443">
        <ele>613.2</ele>
        <time>2025-12-29T12:46:07Z</time>
      </trkpt>
      <trkpt lat="43.10945" lon="0.44429">
        <ele>613.2</ele>
        <time>2025-12-29T12:46:08Z</time>
      </trkpt>
      <trkpt lat="43.10945" lon="0.44429">
        <ele>613.2</ele>
        <time>2025-12-29T12:46:09Z</time>
      </trkpt>
      <trkpt lat="43.10945" lon="0.44429">
        <ele>613.2</ele>
        <time>2025-12-29T12:46:10Z</time>
      </trkpt>
      <trkpt lat="43.10944" lon="0.44428">
        <ele>613.8</ele>
        <time>2025-12-29T12:46:11Z</time>
      </trkpt>
      <trkpt lat="43.10942" lon="0.44427">
        <ele>613.8</ele>
        <time>2025-12-29T12:46:12Z</time>
      </trkpt>
      <trkpt lat="43.10941" lon="0.44426">
        <ele>613.8</ele>
        <time>2025-12-29T12:46:13Z</time>
      </trkpt>
      <trkpt lat="43.1094" lon="0.44425">
        <ele>613.8</ele>
        <time>2025-12-29T12:46:14Z</time>
      </trkpt>
      <trkpt lat="43.10938" lon="0.44423">
        <ele>613.6</ele>
        <time>2025-12-29T12:46:15Z</time>
      </trkpt>
      <trkpt lat="43.10936" lon="0.44422">
        <ele>613.6</ele>
        <time>2025-12-29T12:46:16Z</time>
      </trkpt>
      <trkpt lat="43.10934" lon="0.44419">
        <ele>613.6</ele>
        <time>2025-12-29T12:46:17Z</time>
      </trkpt>
      <trkpt lat="43.10932" lon="0.44415">
        <ele>613.6</ele>
        <time>2025-12-29T12:46:18Z</time>
      </trkpt>
      <trkpt lat="43.10931" lon="0.44411">
        <ele>612.4</ele>
        <time>2025-12-29T12:46:19Z</time>
      </trkpt>
      <trkpt lat="43.10929" lon="0.44407">
        <ele>612.4</ele>
        <time>2025-12-29T12:46:20Z</time>
      </trkpt>
      <trkpt lat="43.10927" lon="0.44403">
        <ele>612.4</ele>
        <time>2025-12-29T12:46:21Z</time>
      </trkpt>
      <trkpt lat="43.10925" lon="0.44398">
        <ele>612.6</ele>
        <time>2025-12-29T12:46:22Z</time>
      </trkpt>
      <trkpt lat="43.10923" lon="0.44394">
        <ele>612.8</ele>
        <time>2025-12-29T12:46:23Z</time>
      </trkpt>
      <trkpt lat="43.10922" lon="0.44389">
        <ele>612.8</ele>
        <time>2025-12-29T12:46:24Z</time>
      </trkpt>
      <trkpt lat="43.1092" lon="0.44385">
        <ele>612.8</ele>
        <time>2025-12-29T12:46:25Z</time>
      </trkpt>
      <trkpt lat="43.10918" lon="0.44379">
        <ele>612</ele>
        <time>2025-12-29T12:46:26Z</time>
      </trkpt>
      <trkpt lat="43.10916" lon="0.44374">
        <ele>613</ele>
        <time>2025-12-29T12:46:27Z</time>
      </trkpt>
      <trkpt lat="43.10914" lon="0.44369">
        <ele>613</ele>
        <time>2025-12-29T12:46:28Z</time>
      </trkpt>
      <trkpt lat="43.10913" lon="0.44364">
        <ele>613</ele>
        <time>2025-12-29T12:46:29Z</time>
      </trkpt>
      <trkpt lat="43.10911" lon="0.44359">
        <ele>612</ele>
        <time>2025-12-29T12:46:30Z</time>
      </trkpt>
      <trkpt lat="43.10909" lon="0.44354">
        <ele>612.6</ele>
        <time>2025-12-29T12:46:31Z</time>
      </trkpt>
      <trkpt lat="43.10908" lon="0.44349">
        <ele>612.6</ele>
        <time>2025-12-29T12:46:32Z</time>
      </trkpt>
      <trkpt lat="43.10906" lon="0.44345">
        <ele>612.6</ele>
        <time>2025-12-29T12:46:33Z</time>
      </trkpt>
      <trkpt lat="43.10905" lon="0.4434">
        <ele>612.6</ele>
        <time>2025-12-29T12:46:34Z</time>
      </trkpt>
      <trkpt lat="43.10903" lon="0.44335">
        <ele>612.6</ele>
        <time>2025-12-29T12:46:35Z</time>
      </trkpt>
      <trkpt lat="43.10902" lon="0.4433">
        <ele>612.6</ele>
        <time>2025-12-29T12:46:36Z</time>
      </trkpt>
      <trkpt lat="43.10901" lon="0.44326">
        <ele>612.6</ele>
        <time>2025-12-29T12:46:37Z</time>
      </trkpt>
      <trkpt lat="43.10899" lon="0.44321">
        <ele>612.6</ele>
        <time>2025-12-29T12:46:38Z</time>
      </trkpt>
      <trkpt lat="43.10897" lon="0.44316">
        <ele>613</ele>
        <time>2025-12-29T12:46:39Z</time>
      </trkpt>
      <trkpt lat="43.10895" lon="0.44311">
        <ele>613</ele>
        <time>2025-12-29T12:46:40Z</time>
      </trkpt>
      <trkpt lat="43.10894" lon="0.44306">
        <ele>613</ele>
        <time>2025-12-29T12:46:41Z</time>
      </trkpt>
      <trkpt lat="43.10892" lon="0.44301">
        <ele>613.4</ele>
        <time>2025-12-29T12:46:42Z</time>
      </trkpt>
      <trkpt lat="43.1089" lon="0.44296">
        <ele>613.4</ele>
        <time>2025-12-29T12:46:43Z</time>
      </trkpt>
      <trkpt lat="43.10888" lon="0.44291">
        <ele>613.4</ele>
        <time>2025-12-29T12:46:44Z</time>
      </trkpt>
      <trkpt lat="43.10886" lon="0.44286">
        <ele>613.4</ele>
        <time>2025-12-29T12:46:45Z</time>
      </trkpt>
      <trkpt lat="43.10885" lon="0.44281">
        <ele>613.4</ele>
        <time>2025-12-29T12:46:46Z</time>
      </trkpt>
      <trkpt lat="43.10883" lon="0.44276">
        <ele>613.8</ele>
        <time>2025-12-29T12:46:47Z</time>
      </trkpt>
      <trkpt lat="43.10881" lon="0.44271">
        <ele>613.8</ele>
        <time>2025-12-29T12:46:48Z</time>
      </trkpt>
      <trkpt lat="43.1088" lon="0.44266">
        <ele>613.8</ele>
        <time>2025-12-29T12:46:49Z</time>
      </trkpt>
      <trkpt lat="43.10878" lon="0.44261">
        <ele>613.8</ele>
        <time>2025-12-29T12:46:50Z</time>
      </trkpt>
      <trkpt lat="43.10876" lon="0.44256">
        <ele>614</ele>
        <time>2025-12-29T12:46:51Z</time>
      </trkpt>
      <trkpt lat="43.10875" lon="0.44251">
        <ele>614</ele>
        <time>2025-12-29T12:46:52Z</time>
      </trkpt>
      <trkpt lat="43.10873" lon="0.44247">
        <ele>614</ele>
        <time>2025-12-29T12:46:53Z</time>
      </trkpt>
      <trkpt lat="43.10871" lon="0.44242">
        <ele>614</ele>
        <time>2025-12-29T12:46:54Z</time>
      </trkpt>
      <trkpt lat="43.10869" lon="0.44238">
        <ele>614.4</ele>
        <time>2025-12-29T12:46:55Z</time>
      </trkpt>
      <trkpt lat="43.10868" lon="0.44233">
        <ele>614.4</ele>
        <time>2025-12-29T12:46:56Z</time>
      </trkpt>
      <trkpt lat="43.10866" lon="0.44228">
        <ele>614.4</ele>
        <time>2025-12-29T12:46:57Z</time>
      </trkpt>
      <trkpt lat="43.10864" lon="0.44223">
        <ele>614.4</ele>
        <time>2025-12-29T12:46:58Z</time>
      </trkpt>
      <trkpt lat="43.10863" lon="0.44218">
        <ele>614.8</ele>
        <time>2025-12-29T12:46:59Z</time>
      </trkpt>
      <trkpt lat="43.10861" lon="0.44213">
        <ele>614.8</ele>
        <time>2025-12-29T12:47:00Z</time>
      </trkpt>
      <trkpt lat="43.10859" lon="0.44208">
        <ele>614.8</ele>
        <time>2025-12-29T12:47:01Z</time>
      </trkpt>
      <trkpt lat="43.10857" lon="0.44202">
        <ele>614.8</ele>
        <time>2025-12-29T12:47:02Z</time>
      </trkpt>
      <trkpt lat="43.10856" lon="0.44197">
        <ele>615.6</ele>
        <time>2025-12-29T12:47:03Z</time>
      </trkpt>
      <trkpt lat="43.10854" lon="0.44192">
        <ele>615.6</ele>
        <time>2025-12-29T12:47:04Z</time>
      </trkpt>
      <trkpt lat="43.10853" lon="0.44187">
        <ele>615.6</ele>
        <time>2025-12-29T12:47:05Z</time>
      </trkpt>
      <trkpt lat="43.10851" lon="0.44182">
        <ele>614.8</ele>
        <time>2025-12-29T12:47:06Z</time>
      </trkpt>
      <trkpt lat="43.10849" lon="0.44177">
        <ele>615.8</ele>
        <time>2025-12-29T12:47:07Z</time>
      </trkpt>
      <trkpt lat="43.10848" lon="0.44172">
        <ele>615.8</ele>
        <time>2025-12-29T12:47:08Z</time>
      </trkpt>
      <trkpt lat="43.10846" lon="0.44167">
        <ele>615.8</ele>
        <time>2025-12-29T12:47:09Z</time>
      </trkpt>
      <trkpt lat="43.10845" lon="0.44162">
        <ele>615.8</ele>
        <time>2025-12-29T12:47:10Z</time>
      </trkpt>
      <trkpt lat="43.10843" lon="0.44157">
        <ele>615.2</ele>
        <time>2025-12-29T12:47:11Z</time>
      </trkpt>
      <trkpt lat="43.10841" lon="0.44152">
        <ele>615.2</ele>
        <time>2025-12-29T12:47:12Z</time>
      </trkpt>
      <trkpt lat="43.1084" lon="0.44147">
        <ele>615.2</ele>
        <time>2025-12-29T12:47:13Z</time>
      </trkpt>
      <trkpt lat="43.10838" lon="0.44142">
        <ele>615.6</ele>
        <time>2025-12-29T12:47:14Z</time>
      </trkpt>
      <trkpt lat="43.10836" lon="0.44137">
        <ele>615.6</ele>
        <time>2025-12-29T12:47:15Z</time>
      </trkpt>
      <trkpt lat="43.10834" lon="0.44132">
        <ele>615.6</ele>
        <time>2025-12-29T12:47:16Z</time>
      </trkpt>
      <trkpt lat="43.10833" lon="0.44127">
        <ele>615.6</ele>
        <time>2025-12-29T12:47:17Z</time>
      </trkpt>
      <trkpt lat="43.10831" lon="0.44122">
        <ele>615.6</ele>
        <time>2025-12-29T12:47:18Z</time>
      </trkpt>
      <trkpt lat="43.10829" lon="0.44118">
        <ele>616</ele>
        <time>2025-12-29T12:47:19Z</time>
      </trkpt>
      <trkpt lat="43.10828" lon="0.44113">
        <ele>616</ele>
        <time>2025-12-29T12:47:20Z</time>
      </trkpt>
      <trkpt lat="43.10825" lon="0.44108">
        <ele>616</ele>
        <time>2025-12-29T12:47:21Z</time>
      </trkpt>
      <trkpt lat="43.10823" lon="0.44103">
        <ele>616</ele>
        <time>2025-12-29T12:47:22Z</time>
      </trkpt>
      <trkpt lat="43.10821" lon="0.44098">
        <ele>615.6</ele>
        <time>2025-12-29T12:47:23Z</time>
      </trkpt>
      <trkpt lat="43.1082" lon="0.44093">
        <ele>615.6</ele>
        <time>2025-12-29T12:47:24Z</time>
      </trkpt>
      <trkpt lat="43.10818" lon="0.44088">
        <ele>615.6</ele>
        <time>2025-12-29T12:47:25Z</time>
      </trkpt>
      <trkpt lat="43.10816" lon="0.44083">
        <ele>615</ele>
        <time>2025-12-29T12:47:26Z</time>
      </trkpt>
      <trkpt lat="43.10814" lon="0.44078">
        <ele>616.4</ele>
        <time>2025-12-29T12:47:27Z</time>
      </trkpt>
      <trkpt lat="43.10812" lon="0.44073">
        <ele>616.4</ele>
        <time>2025-12-29T12:47:28Z</time>
      </trkpt>
      <trkpt lat="43.1081" lon="0.44068">
        <ele>616.4</ele>
        <time>2025-12-29T12:47:29Z</time>
      </trkpt>
      <trkpt lat="43.10808" lon="0.44063">
        <ele>615.8</ele>
        <time>2025-12-29T12:47:30Z</time>
      </trkpt>
      <trkpt lat="43.10806" lon="0.44058">
        <ele>615.8</ele>
        <time>2025-12-29T12:47:31Z</time>
      </trkpt>
      <trkpt lat="43.10804" lon="0.44053">
        <ele>615.8</ele>
        <time>2025-12-29T12:47:32Z</time>
      </trkpt>
      <trkpt lat="43.10802" lon="0.44048">
        <ele>615.8</ele>
        <time>2025-12-29T12:47:33Z</time>
      </trkpt>
      <trkpt lat="43.108" lon="0.44044">
        <ele>616</ele>
        <time>2025-12-29T12:47:34Z</time>
      </trkpt>
      <trkpt lat="43.10799" lon="0.44039">
        <ele>616</ele>
        <time>2025-12-29T12:47:35Z</time>
      </trkpt>
      <trkpt lat="43.10797" lon="0.44034">
        <ele>616</ele>
        <time>2025-12-29T12:47:36Z</time>
      </trkpt>
      <trkpt lat="43.10795" lon="0.4403">
        <ele>616</ele>
        <time>2025-12-29T12:47:37Z</time>
      </trkpt>
      <trkpt lat="43.10793" lon="0.44026">
        <ele>616</ele>
        <time>2025-12-29T12:47:38Z</time>
      </trkpt>
      <trkpt lat="43.10791" lon="0.44024">
        <ele>616.4</ele>
        <time>2025-12-29T12:47:39Z</time>
      </trkpt>
      <trkpt lat="43.10789" lon="0.44022">
        <ele>616.4</ele>
        <time>2025-12-29T12:47:40Z</time>
      </trkpt>
      <trkpt lat="43.10787" lon="0.4402">
        <ele>616.4</ele>
        <time>2025-12-29T12:47:41Z</time>
      </trkpt>
      <trkpt lat="43.10786" lon="0.44019">
        <ele>616.4</ele>
        <time>2025-12-29T12:47:42Z</time>
      </trkpt>
      <trkpt lat="43.10784" lon="0.44018">
        <ele>616.4</ele>
        <time>2025-12-29T12:47:43Z</time>
      </trkpt>
      <trkpt lat="43.10782" lon="0.44018">
        <ele>616.4</ele>
        <time>2025-12-29T12:47:44Z</time>
      </trkpt>
      <trkpt lat="43.1078" lon="0.44018">
        <ele>616.4</ele>
        <time>2025-12-29T12:47:45Z</time>
      </trkpt>
      <trkpt lat="43.10777" lon="0.44019">
        <ele>616.4</ele>
        <time>2025-12-29T12:47:46Z</time>
      </trkpt>
      <trkpt lat="43.10774" lon="0.44021">
        <ele>616.8</ele>
        <time>2025-12-29T12:47:47Z</time>
      </trkpt>
      <trkpt lat="43.10771" lon="0.44022">
        <ele>616.8</ele>
        <time>2025-12-29T12:47:48Z</time>
      </trkpt>
      <trkpt lat="43.10769" lon="0.44024">
        <ele>616.8</ele>
        <time>2025-12-29T12:47:49Z</time>
      </trkpt>
      <trkpt lat="43.10766" lon="0.44025">
        <ele>616.8</ele>
        <time>2025-12-29T12:47:50Z</time>
      </trkpt>
      <trkpt lat="43.10763" lon="0.44026">
        <ele>617.4</ele>
        <time>2025-12-29T12:47:51Z</time>
      </trkpt>
      <trkpt lat="43.1076" lon="0.44027">
        <ele>617.4</ele>
        <time>2025-12-29T12:47:52Z</time>
      </trkpt>
      <trkpt lat="43.10757" lon="0.44028">
        <ele>617.4</ele>
        <time>2025-12-29T12:47:53Z</time>
      </trkpt>
      <trkpt lat="43.10754" lon="0.4403">
        <ele>617.4</ele>
        <time>2025-12-29T12:47:54Z</time>
      </trkpt>
      <trkpt lat="43.10752" lon="0.44031">
        <ele>617.6</ele>
        <time>2025-12-29T12:47:55Z</time>
      </trkpt>
      <trkpt lat="43.10749" lon="0.44032">
        <ele>617.6</ele>
        <time>2025-12-29T12:47:56Z</time>
      </trkpt>
      <trkpt lat="43.10746" lon="0.44033">
        <ele>617.6</ele>
        <time>2025-12-29T12:47:57Z</time>
      </trkpt>
      <trkpt lat="43.10744" lon="0.44034">
        <ele>617.8</ele>
        <time>2025-12-29T12:47:58Z</time>
      </trkpt>
      <trkpt lat="43.10741" lon="0.44035">
        <ele>618.4</ele>
        <time>2025-12-29T12:47:59Z</time>
      </trkpt>
      <trkpt lat="43.10738" lon="0.44035">
        <ele>618.4</ele>
        <time>2025-12-29T12:48:00Z</time>
      </trkpt>
      <trkpt lat="43.10736" lon="0.44036">
        <ele>618.4</ele>
        <time>2025-12-29T12:48:01Z</time>
      </trkpt>
      <trkpt lat="43.10733" lon="0.44037">
        <ele>618.4</ele>
        <time>2025-12-29T12:48:02Z</time>
      </trkpt>
      <trkpt lat="43.1073" lon="0.44038">
        <ele>619.4</ele>
        <time>2025-12-29T12:48:03Z</time>
      </trkpt>
      <trkpt lat="43.10727" lon="0.44039">
        <ele>619.4</ele>
        <time>2025-12-29T12:48:04Z</time>
      </trkpt>
      <trkpt lat="43.10725" lon="0.4404">
        <ele>619.4</ele>
        <time>2025-12-29T12:48:05Z</time>
      </trkpt>
      <trkpt lat="43.10722" lon="0.44041">
        <ele>619.4</ele>
        <time>2025-12-29T12:48:06Z</time>
      </trkpt>
      <trkpt lat="43.10719" lon="0.44041">
        <ele>620</ele>
        <time>2025-12-29T12:48:07Z</time>
      </trkpt>
      <trkpt lat="43.10716" lon="0.44042">
        <ele>620</ele>
        <time>2025-12-29T12:48:08Z</time>
      </trkpt>
      <trkpt lat="43.10714" lon="0.44043">
        <ele>620</ele>
        <time>2025-12-29T12:48:09Z</time>
      </trkpt>
      <trkpt lat="43.10711" lon="0.44043">
        <ele>620.8</ele>
        <time>2025-12-29T12:48:10Z</time>
      </trkpt>
      <trkpt lat="43.10708" lon="0.44044">
        <ele>620.8</ele>
        <time>2025-12-29T12:48:11Z</time>
      </trkpt>
      <trkpt lat="43.10705" lon="0.44045">
        <ele>620.8</ele>
        <time>2025-12-29T12:48:12Z</time>
      </trkpt>
      <trkpt lat="43.10702" lon="0.44045">
        <ele>620.8</ele>
        <time>2025-12-29T12:48:13Z</time>
      </trkpt>
      <trkpt lat="43.10699" lon="0.44046">
        <ele>621.6</ele>
        <time>2025-12-29T12:48:14Z</time>
      </trkpt>
      <trkpt lat="43.10696" lon="0.44047">
        <ele>622</ele>
        <time>2025-12-29T12:48:15Z</time>
      </trkpt>
      <trkpt lat="43.10693" lon="0.44047">
        <ele>622</ele>
        <time>2025-12-29T12:48:16Z</time>
      </trkpt>
      <trkpt lat="43.1069" lon="0.44048">
        <ele>622</ele>
        <time>2025-12-29T12:48:17Z</time>
      </trkpt>
      <trkpt lat="43.10687" lon="0.44049">
        <ele>622</ele>
        <time>2025-12-29T12:48:18Z</time>
      </trkpt>
      <trkpt lat="43.10684" lon="0.44049">
        <ele>622.2</ele>
        <time>2025-12-29T12:48:19Z</time>
      </trkpt>
      <trkpt lat="43.1068" lon="0.4405">
        <ele>622.2</ele>
        <time>2025-12-29T12:48:20Z</time>
      </trkpt>
      <trkpt lat="43.10677" lon="0.44051">
        <ele>622.2</ele>
        <time>2025-12-29T12:48:21Z</time>
      </trkpt>
      <trkpt lat="43.10674" lon="0.44051">
        <ele>622.2</ele>
        <time>2025-12-29T12:48:22Z</time>
      </trkpt>
      <trkpt lat="43.1067" lon="0.44052">
        <ele>623.2</ele>
        <time>2025-12-29T12:48:23Z</time>
      </trkpt>
      <trkpt lat="43.10667" lon="0.44052">
        <ele>623.2</ele>
        <time>2025-12-29T12:48:24Z</time>
      </trkpt>
      <trkpt lat="43.10664" lon="0.44053">
        <ele>623.2</ele>
        <time>2025-12-29T12:48:25Z</time>
      </trkpt>
      <trkpt lat="43.10661" lon="0.44054">
        <ele>623.2</ele>
        <time>2025-12-29T12:48:26Z</time>
      </trkpt>
      <trkpt lat="43.10657" lon="0.44055">
        <ele>622.6</ele>
        <time>2025-12-29T12:48:27Z</time>
      </trkpt>
      <trkpt lat="43.10654" lon="0.44055">
        <ele>622.6</ele>
        <time>2025-12-29T12:48:28Z</time>
      </trkpt>
      <trkpt lat="43.10651" lon="0.44056">
        <ele>622.6</ele>
        <time>2025-12-29T12:48:29Z</time>
      </trkpt>
      <trkpt lat="43.10648" lon="0.44057">
        <ele>623.4</ele>
        <time>2025-12-29T12:48:30Z</time>
      </trkpt>
      <trkpt lat="43.10644" lon="0.44057">
        <ele>623.4</ele>
        <time>2025-12-29T12:48:31Z</time>
      </trkpt>
      <trkpt lat="43.10641" lon="0.44058">
        <ele>623.4</ele>
        <time>2025-12-29T12:48:32Z</time>
      </trkpt>
      <trkpt lat="43.10638" lon="0.44059">
        <ele>623.4</ele>
        <time>2025-12-29T12:48:33Z</time>
      </trkpt>
      <trkpt lat="43.10634" lon="0.44059">
        <ele>623.4</ele>
        <time>2025-12-29T12:48:34Z</time>
      </trkpt>
      <trkpt lat="43.10631" lon="0.4406">
        <ele>623.6</ele>
        <time>2025-12-29T12:48:35Z</time>
      </trkpt>
      <trkpt lat="43.10628" lon="0.44061">
        <ele>623.6</ele>
        <time>2025-12-29T12:48:36Z</time>
      </trkpt>
      <trkpt lat="43.10625" lon="0.44061">
        <ele>623.6</ele>
        <time>2025-12-29T12:48:37Z</time>
      </trkpt>
      <trkpt lat="43.10622" lon="0.44061">
        <ele>623.6</ele>
        <time>2025-12-29T12:48:38Z</time>
      </trkpt>
      <trkpt lat="43.1062" lon="0.44062">
        <ele>623</ele>
        <time>2025-12-29T12:48:39Z</time>
      </trkpt>
      <trkpt lat="43.10618" lon="0.44063">
        <ele>623</ele>
        <time>2025-12-29T12:48:40Z</time>
      </trkpt>
      <trkpt lat="43.10617" lon="0.44062">
        <ele>623</ele>
        <time>2025-12-29T12:48:41Z</time>
      </trkpt>
      <trkpt lat="43.10617" lon="0.44063">
        <ele>624</ele>
        <time>2025-12-29T12:48:42Z</time>
      </trkpt>
      <trkpt lat="43.10617" lon="0.44063">
        <ele>623.8</ele>
        <time>2025-12-29T12:48:43Z</time>
      </trkpt>
      <trkpt lat="43.10617" lon="0.44063">
        <ele>623.8</ele>
        <time>2025-12-29T12:48:44Z</time>
      </trkpt>
      <trkpt lat="43.10617" lon="0.44063">
        <ele>623.8</ele>
        <time>2025-12-29T12:48:45Z</time>
      </trkpt>
      <trkpt lat="43.10607" lon="0.44065">
        <ele>624.4</ele>
        <time>2025-12-29T12:49:45Z</time>
      </trkpt>
      <trkpt lat="43.10606" lon="0.44065">
        <ele>624.4</ele>
        <time>2025-12-29T12:49:46Z</time>
      </trkpt>
      <trkpt lat="43.10604" lon="0.44066">
        <ele>624</ele>
        <time>2025-12-29T12:49:47Z</time>
      </trkpt>
      <trkpt lat="43.10601" lon="0.44066">
        <ele>624</ele>
        <time>2025-12-29T12:49:48Z</time>
      </trkpt>
      <trkpt lat="43.10599" lon="0.44067">
        <ele>624</ele>
        <time>2025-12-29T12:49:49Z</time>
      </trkpt>
      <trkpt lat="43.10596" lon="0.44067">
        <ele>624</ele>
        <time>2025-12-29T12:49:50Z</time>
      </trkpt>
      <trkpt lat="43.10593" lon="0.44067">
        <ele>623.2</ele>
        <time>2025-12-29T12:49:51Z</time>
      </trkpt>
      <trkpt lat="43.1059" lon="0.44067">
        <ele>623.2</ele>
        <time>2025-12-29T12:49:52Z</time>
      </trkpt>
      <trkpt lat="43.10587" lon="0.44068">
        <ele>623.2</ele>
        <time>2025-12-29T12:49:53Z</time>
      </trkpt>
      <trkpt lat="43.10584" lon="0.44069">
        <ele>623.2</ele>
        <time>2025-12-29T12:49:54Z</time>
      </trkpt>
      <trkpt lat="43.1058" lon="0.4407">
        <ele>622.2</ele>
        <time>2025-12-29T12:49:55Z</time>
      </trkpt>
      <trkpt lat="43.10576" lon="0.44071">
        <ele>622.2</ele>
        <time>2025-12-29T12:49:56Z</time>
      </trkpt>
      <trkpt lat="43.10572" lon="0.44072">
        <ele>622.2</ele>
        <time>2025-12-29T12:49:57Z</time>
      </trkpt>
      <trkpt lat="43.10567" lon="0.44073">
        <ele>622.8</ele>
        <time>2025-12-29T12:49:58Z</time>
      </trkpt>
      <trkpt lat="43.10563" lon="0.44073">
        <ele>622.2</ele>
        <time>2025-12-29T12:49:59Z</time>
      </trkpt>
      <trkpt lat="43.10558" lon="0.44074">
        <ele>622.2</ele>
        <time>2025-12-29T12:50:00Z</time>
      </trkpt>
      <trkpt lat="43.10554" lon="0.44076">
        <ele>622.2</ele>
        <time>2025-12-29T12:50:01Z</time>
      </trkpt>
      <trkpt lat="43.10549" lon="0.44076">
        <ele>622.2</ele>
        <time>2025-12-29T12:50:02Z</time>
      </trkpt>
      <trkpt lat="43.10543" lon="0.44078">
        <ele>620.8</ele>
        <time>2025-12-29T12:50:03Z</time>
      </trkpt>
      <trkpt lat="43.10538" lon="0.44079">
        <ele>620.8</ele>
        <time>2025-12-29T12:50:04Z</time>
      </trkpt>
      <trkpt lat="43.10533" lon="0.4408">
        <ele>620.8</ele>
        <time>2025-12-29T12:50:05Z</time>
      </trkpt>
      <trkpt lat="43.10527" lon="0.44081">
        <ele>620.8</ele>
        <time>2025-12-29T12:50:06Z</time>
      </trkpt>
      <trkpt lat="43.10521" lon="0.44082">
        <ele>619.8</ele>
        <time>2025-12-29T12:50:07Z</time>
      </trkpt>
      <trkpt lat="43.10514" lon="0.44084">
        <ele>619.8</ele>
        <time>2025-12-29T12:50:08Z</time>
      </trkpt>
      <trkpt lat="43.10507" lon="0.44085">
        <ele>619.8</ele>
        <time>2025-12-29T12:50:09Z</time>
      </trkpt>
      <trkpt lat="43.105" lon="0.44086">
        <ele>618.8</ele>
        <time>2025-12-29T12:50:10Z</time>
      </trkpt>
      <trkpt lat="43.10492" lon="0.44087">
        <ele>617</ele>
        <time>2025-12-29T12:50:11Z</time>
      </trkpt>
      <trkpt lat="43.10484" lon="0.44088">
        <ele>617</ele>
        <time>2025-12-29T12:50:12Z</time>
      </trkpt>
      <trkpt lat="43.10476" lon="0.4409">
        <ele>617</ele>
        <time>2025-12-29T12:50:13Z</time>
      </trkpt>
      <trkpt lat="43.10467" lon="0.44091">
        <ele>617</ele>
        <time>2025-12-29T12:50:14Z</time>
      </trkpt>
      <trkpt lat="43.10459" lon="0.44093">
        <ele>614.2</ele>
        <time>2025-12-29T12:50:15Z</time>
      </trkpt>
      <trkpt lat="43.10451" lon="0.44095">
        <ele>614.2</ele>
        <time>2025-12-29T12:50:16Z</time>
      </trkpt>
      <trkpt lat="43.10442" lon="0.44096">
        <ele>614.2</ele>
        <time>2025-12-29T12:50:17Z</time>
      </trkpt>
      <trkpt lat="43.10434" lon="0.44098">
        <ele>614</ele>
        <time>2025-12-29T12:50:18Z</time>
      </trkpt>
      <trkpt lat="43.10426" lon="0.44099">
        <ele>613.6</ele>
        <time>2025-12-29T12:50:19Z</time>
      </trkpt>
      <trkpt lat="43.10418" lon="0.44101">
        <ele>613.6</ele>
        <time>2025-12-29T12:50:20Z</time>
      </trkpt>
      <trkpt lat="43.1041" lon="0.44103">
        <ele>613.6</ele>
        <time>2025-12-29T12:50:21Z</time>
      </trkpt>
      <trkpt lat="43.10402" lon="0.44106">
        <ele>613.6</ele>
        <time>2025-12-29T12:50:22Z</time>
      </trkpt>
      <trkpt lat="43.10394" lon="0.44108">
        <ele>612.4</ele>
        <time>2025-12-29T12:50:23Z</time>
      </trkpt>
      <trkpt lat="43.10386" lon="0.44109">
        <ele>612.4</ele>
        <time>2025-12-29T12:50:24Z</time>
      </trkpt>
      <trkpt lat="43.10378" lon="0.44111">
        <ele>612.4</ele>
        <time>2025-12-29T12:50:25Z</time>
      </trkpt>
      <trkpt lat="43.1037" lon="0.44112">
        <ele>612.4</ele>
        <time>2025-12-29T12:50:26Z</time>
      </trkpt>
      <trkpt lat="43.10362" lon="0.44114">
        <ele>610.8</ele>
        <time>2025-12-29T12:50:27Z</time>
      </trkpt>
      <trkpt lat="43.10354" lon="0.44115">
        <ele>610.8</ele>
        <time>2025-12-29T12:50:28Z</time>
      </trkpt>
      <trkpt lat="43.10346" lon="0.44117">
        <ele>610.8</ele>
        <time>2025-12-29T12:50:29Z</time>
      </trkpt>
      <trkpt lat="43.10338" lon="0.44119">
        <ele>610.4</ele>
        <time>2025-12-29T12:50:30Z</time>
      </trkpt>
      <trkpt lat="43.1033" lon="0.4412">
        <ele>610.4</ele>
        <time>2025-12-29T12:50:31Z</time>
      </trkpt>
      <trkpt lat="43.10321" lon="0.44122">
        <ele>610.4</ele>
        <time>2025-12-29T12:50:32Z</time>
      </trkpt>
      <trkpt lat="43.10313" lon="0.44124">
        <ele>610.4</ele>
        <time>2025-12-29T12:50:33Z</time>
      </trkpt>
      <trkpt lat="43.10305" lon="0.44126">
        <ele>609.4</ele>
        <time>2025-12-29T12:50:34Z</time>
      </trkpt>
      <trkpt lat="43.10297" lon="0.44128">
        <ele>608.8</ele>
        <time>2025-12-29T12:50:35Z</time>
      </trkpt>
      <trkpt lat="43.10288" lon="0.44129">
        <ele>608.8</ele>
        <time>2025-12-29T12:50:36Z</time>
      </trkpt>
      <trkpt lat="43.1028" lon="0.44131">
        <ele>608.8</ele>
        <time>2025-12-29T12:50:37Z</time>
      </trkpt>
      <trkpt lat="43.10272" lon="0.44132">
        <ele>607.8</ele>
        <time>2025-12-29T12:50:38Z</time>
      </trkpt>
      <trkpt lat="43.10265" lon="0.44133">
        <ele>607.4</ele>
        <time>2025-12-29T12:50:39Z</time>
      </trkpt>
      <trkpt lat="43.1026" lon="0.44134">
        <ele>607.4</ele>
        <time>2025-12-29T12:50:40Z</time>
      </trkpt>
      <trkpt lat="43.10255" lon="0.44136">
        <ele>607.4</ele>
        <time>2025-12-29T12:50:41Z</time>
      </trkpt>
      <trkpt lat="43.1025" lon="0.44137">
        <ele>608.4</ele>
        <time>2025-12-29T12:50:42Z</time>
      </trkpt>
      <trkpt lat="43.10245" lon="0.44138">
        <ele>606.2</ele>
        <time>2025-12-29T12:50:43Z</time>
      </trkpt>
      <trkpt lat="43.10241" lon="0.44139">
        <ele>606.2</ele>
        <time>2025-12-29T12:50:44Z</time>
      </trkpt>
      <trkpt lat="43.10236" lon="0.4414">
        <ele>606.2</ele>
        <time>2025-12-29T12:50:45Z</time>
      </trkpt>
      <trkpt lat="43.10231" lon="0.44141">
        <ele>607.2</ele>
        <time>2025-12-29T12:50:46Z</time>
      </trkpt>
      <trkpt lat="43.10226" lon="0.44142">
        <ele>607.6</ele>
        <time>2025-12-29T12:50:47Z</time>
      </trkpt>
      <trkpt lat="43.10221" lon="0.44142">
        <ele>607.6</ele>
        <time>2025-12-29T12:50:48Z</time>
      </trkpt>
      <trkpt lat="43.10217" lon="0.44143">
        <ele>607.6</ele>
        <time>2025-12-29T12:50:49Z</time>
      </trkpt>
      <trkpt lat="43.10212" lon="0.44144">
        <ele>607.6</ele>
        <time>2025-12-29T12:50:50Z</time>
      </trkpt>
      <trkpt lat="43.10208" lon="0.44145">
        <ele>608.2</ele>
        <time>2025-12-29T12:50:51Z</time>
      </trkpt>
      <trkpt lat="43.10203" lon="0.44145">
        <ele>608.2</ele>
        <time>2025-12-29T12:50:52Z</time>
      </trkpt>
      <trkpt lat="43.10199" lon="0.44145">
        <ele>608.2</ele>
        <time>2025-12-29T12:50:53Z</time>
      </trkpt>
      <trkpt lat="43.10194" lon="0.44145">
        <ele>607.4</ele>
        <time>2025-12-29T12:50:54Z</time>
      </trkpt>
      <trkpt lat="43.1019" lon="0.44146">
        <ele>605.8</ele>
        <time>2025-12-29T12:50:55Z</time>
      </trkpt>
      <trkpt lat="43.10186" lon="0.44146">
        <ele>605.8</ele>
        <time>2025-12-29T12:50:56Z</time>
      </trkpt>
      <trkpt lat="43.10181" lon="0.44148">
        <ele>605.8</ele>
        <time>2025-12-29T12:50:57Z</time>
      </trkpt>
      <trkpt lat="43.10177" lon="0.4415">
        <ele>606.8</ele>
        <time>2025-12-29T12:50:58Z</time>
      </trkpt>
      <trkpt lat="43.10173" lon="0.44152">
        <ele>607</ele>
        <time>2025-12-29T12:50:59Z</time>
      </trkpt>
      <trkpt lat="43.10169" lon="0.44154">
        <ele>607</ele>
        <time>2025-12-29T12:51:00Z</time>
      </trkpt>
      <trkpt lat="43.10165" lon="0.44155">
        <ele>607</ele>
        <time>2025-12-29T12:51:01Z</time>
      </trkpt>
      <trkpt lat="43.1016" lon="0.44156">
        <ele>607</ele>
        <time>2025-12-29T12:51:02Z</time>
      </trkpt>
      <trkpt lat="43.10156" lon="0.44158">
        <ele>607.4</ele>
        <time>2025-12-29T12:51:03Z</time>
      </trkpt>
      <trkpt lat="43.10152" lon="0.44158">
        <ele>607.4</ele>
        <time>2025-12-29T12:51:04Z</time>
      </trkpt>
      <trkpt lat="43.10148" lon="0.44159">
        <ele>607.4</ele>
        <time>2025-12-29T12:51:05Z</time>
      </trkpt>
      <trkpt lat="43.10143" lon="0.4416">
        <ele>606.4</ele>
        <time>2025-12-29T12:51:06Z</time>
      </trkpt>
      <trkpt lat="43.10139" lon="0.44161">
        <ele>607.2</ele>
        <time>2025-12-29T12:51:07Z</time>
      </trkpt>
      <trkpt lat="43.10135" lon="0.44162">
        <ele>607.2</ele>
        <time>2025-12-29T12:51:08Z</time>
      </trkpt>
      <trkpt lat="43.10131" lon="0.44163">
        <ele>607.2</ele>
        <time>2025-12-29T12:51:09Z</time>
      </trkpt>
      <trkpt lat="43.10127" lon="0.44163">
        <ele>606.6</ele>
        <time>2025-12-29T12:51:10Z</time>
      </trkpt>
      <trkpt lat="43.10123" lon="0.44164">
        <ele>607</ele>
        <time>2025-12-29T12:51:11Z</time>
      </trkpt>
      <trkpt lat="43.1012" lon="0.44164">
        <ele>607</ele>
        <time>2025-12-29T12:51:12Z</time>
      </trkpt>
      <trkpt lat="43.10116" lon="0.44165">
        <ele>607</ele>
        <time>2025-12-29T12:51:13Z</time>
      </trkpt>
      <trkpt lat="43.10113" lon="0.44166">
        <ele>607</ele>
        <time>2025-12-29T12:51:14Z</time>
      </trkpt>
      <trkpt lat="43.1011" lon="0.44165">
        <ele>606.6</ele>
        <time>2025-12-29T12:51:15Z</time>
      </trkpt>
      <trkpt lat="43.10106" lon="0.44166">
        <ele>606.6</ele>
        <time>2025-12-29T12:51:16Z</time>
      </trkpt>
      <trkpt lat="43.10103" lon="0.44166">
        <ele>606.6</ele>
        <time>2025-12-29T12:51:17Z</time>
      </trkpt>
      <trkpt lat="43.101" lon="0.44166">
        <ele>607.6</ele>
        <time>2025-12-29T12:51:18Z</time>
      </trkpt>
      <trkpt lat="43.10096" lon="0.44167">
        <ele>607.4</ele>
        <time>2025-12-29T12:51:19Z</time>
      </trkpt>
      <trkpt lat="43.10093" lon="0.44167">
        <ele>607.4</ele>
        <time>2025-12-29T12:51:20Z</time>
      </trkpt>
      <trkpt lat="43.10089" lon="0.44168">
        <ele>607.4</ele>
        <time>2025-12-29T12:51:21Z</time>
      </trkpt>
      <trkpt lat="43.10085" lon="0.44168">
        <ele>607.4</ele>
        <time>2025-12-29T12:51:22Z</time>
      </trkpt>
      <trkpt lat="43.10081" lon="0.44168">
        <ele>606.4</ele>
        <time>2025-12-29T12:51:23Z</time>
      </trkpt>
      <trkpt lat="43.10076" lon="0.44168">
        <ele>606.4</ele>
        <time>2025-12-29T12:51:24Z</time>
      </trkpt>
      <trkpt lat="43.10072" lon="0.44168">
        <ele>606.4</ele>
        <time>2025-12-29T12:51:25Z</time>
      </trkpt>
      <trkpt lat="43.10067" lon="0.44168">
        <ele>606.4</ele>
        <time>2025-12-29T12:51:26Z</time>
      </trkpt>
      <trkpt lat="43.10062" lon="0.44169">
        <ele>605</ele>
        <time>2025-12-29T12:51:27Z</time>
      </trkpt>
      <trkpt lat="43.10056" lon="0.44171">
        <ele>605</ele>
        <time>2025-12-29T12:51:28Z</time>
      </trkpt>
      <trkpt lat="43.10051" lon="0.44172">
        <ele>605</ele>
        <time>2025-12-29T12:51:29Z</time>
      </trkpt>
      <trkpt lat="43.10045" lon="0.44173">
        <ele>605</ele>
        <time>2025-12-29T12:51:30Z</time>
      </trkpt>
      <trkpt lat="43.1004" lon="0.44174">
        <ele>604.2</ele>
        <time>2025-12-29T12:51:31Z</time>
      </trkpt>
      <trkpt lat="43.10033" lon="0.44175">
        <ele>604.2</ele>
        <time>2025-12-29T12:51:32Z</time>
      </trkpt>
      <trkpt lat="43.10027" lon="0.44176">
        <ele>604.2</ele>
        <time>2025-12-29T12:51:33Z</time>
      </trkpt>
      <trkpt lat="43.1002" lon="0.44175">
        <ele>604.2</ele>
        <time>2025-12-29T12:51:34Z</time>
      </trkpt>
      <trkpt lat="43.10014" lon="0.44174">
        <ele>603.6</ele>
        <time>2025-12-29T12:51:35Z</time>
      </trkpt>
      <trkpt lat="43.10006" lon="0.44172">
        <ele>603.6</ele>
        <time>2025-12-29T12:51:36Z</time>
      </trkpt>
      <trkpt lat="43.1" lon="0.44168">
        <ele>603.6</ele>
        <time>2025-12-29T12:51:37Z</time>
      </trkpt>
      <trkpt lat="43.09993" lon="0.44163">
        <ele>602.6</ele>
        <time>2025-12-29T12:51:38Z</time>
      </trkpt>
      <trkpt lat="43.09987" lon="0.44156">
        <ele>600</ele>
        <time>2025-12-29T12:51:39Z</time>
      </trkpt>
      <trkpt lat="43.09981" lon="0.44149">
        <ele>600</ele>
        <time>2025-12-29T12:51:40Z</time>
      </trkpt>
      <trkpt lat="43.09977" lon="0.4414">
        <ele>600</ele>
        <time>2025-12-29T12:51:41Z</time>
      </trkpt>
      <trkpt lat="43.09973" lon="0.44131">
        <ele>599</ele>
        <time>2025-12-29T12:51:42Z</time>
      </trkpt>
      <trkpt lat="43.09971" lon="0.44121">
        <ele>597.8</ele>
        <time>2025-12-29T12:51:43Z</time>
      </trkpt>
      <trkpt lat="43.09969" lon="0.4411">
        <ele>597.8</ele>
        <time>2025-12-29T12:51:44Z</time>
      </trkpt>
      <trkpt lat="43.09968" lon="0.441">
        <ele>597.8</ele>
        <time>2025-12-29T12:51:45Z</time>
      </trkpt>
      <trkpt lat="43.09968" lon="0.4409">
        <ele>596.8</ele>
        <time>2025-12-29T12:51:46Z</time>
      </trkpt>
      <trkpt lat="43.09968" lon="0.4408">
        <ele>597</ele>
        <time>2025-12-29T12:51:47Z</time>
      </trkpt>
      <trkpt lat="43.09968" lon="0.44071">
        <ele>597</ele>
        <time>2025-12-29T12:51:48Z</time>
      </trkpt>
      <trkpt lat="43.09968" lon="0.44061">
        <ele>597</ele>
        <time>2025-12-29T12:51:49Z</time>
      </trkpt>
      <trkpt lat="43.09967" lon="0.44053">
        <ele>597</ele>
        <time>2025-12-29T12:51:50Z</time>
      </trkpt>
      <trkpt lat="43.09966" lon="0.44044">
        <ele>597</ele>
        <time>2025-12-29T12:51:51Z</time>
      </trkpt>
      <trkpt lat="43.09965" lon="0.44036">
        <ele>597</ele>
        <time>2025-12-29T12:51:52Z</time>
      </trkpt>
      <trkpt lat="43.09962" lon="0.44028">
        <ele>597</ele>
        <time>2025-12-29T12:51:53Z</time>
      </trkpt>
      <trkpt lat="43.0996" lon="0.44022">
        <ele>597</ele>
        <time>2025-12-29T12:51:54Z</time>
      </trkpt>
      <trkpt lat="43.09956" lon="0.44015">
        <ele>597.8</ele>
        <time>2025-12-29T12:51:55Z</time>
      </trkpt>
      <trkpt lat="43.09953" lon="0.4401">
        <ele>597.8</ele>
        <time>2025-12-29T12:51:56Z</time>
      </trkpt>
      <trkpt lat="43.0995" lon="0.44005">
        <ele>597.8</ele>
        <time>2025-12-29T12:51:57Z</time>
      </trkpt>
      <trkpt lat="43.09947" lon="0.44">
        <ele>597.8</ele>
        <time>2025-12-29T12:51:58Z</time>
      </trkpt>
      <trkpt lat="43.09944" lon="0.43995">
        <ele>597.4</ele>
        <time>2025-12-29T12:51:59Z</time>
      </trkpt>
      <trkpt lat="43.09941" lon="0.43989">
        <ele>597.4</ele>
        <time>2025-12-29T12:52:00Z</time>
      </trkpt>
      <trkpt lat="43.09938" lon="0.43983">
        <ele>597.4</ele>
        <time>2025-12-29T12:52:01Z</time>
      </trkpt>
      <trkpt lat="43.09935" lon="0.43976">
        <ele>596.4</ele>
        <time>2025-12-29T12:52:02Z</time>
      </trkpt>
      <trkpt lat="43.09932" lon="0.43969">
        <ele>594.4</ele>
        <time>2025-12-29T12:52:03Z</time>
      </trkpt>
      <trkpt lat="43.09929" lon="0.43961">
        <ele>594.4</ele>
        <time>2025-12-29T12:52:04Z</time>
      </trkpt>
      <trkpt lat="43.09926" lon="0.43953">
        <ele>594.4</ele>
        <time>2025-12-29T12:52:05Z</time>
      </trkpt>
      <trkpt lat="43.09924" lon="0.43944">
        <ele>594.4</ele>
        <time>2025-12-29T12:52:06Z</time>
      </trkpt>
      <trkpt lat="43.09922" lon="0.43935">
        <ele>592.8</ele>
        <time>2025-12-29T12:52:07Z</time>
      </trkpt>
      <trkpt lat="43.0992" lon="0.43926">
        <ele>592.8</ele>
        <time>2025-12-29T12:52:08Z</time>
      </trkpt>
      <trkpt lat="43.09918" lon="0.43916">
        <ele>592.8</ele>
        <time>2025-12-29T12:52:09Z</time>
      </trkpt>
      <trkpt lat="43.09916" lon="0.43907">
        <ele>592.8</ele>
        <time>2025-12-29T12:52:10Z</time>
      </trkpt>
      <trkpt lat="43.09914" lon="0.43897">
        <ele>590.6</ele>
        <time>2025-12-29T12:52:11Z</time>
      </trkpt>
      <trkpt lat="43.09913" lon="0.43887">
        <ele>590.6</ele>
        <time>2025-12-29T12:52:12Z</time>
      </trkpt>
      <trkpt lat="43.09911" lon="0.43877">
        <ele>590.6</ele>
        <time>2025-12-29T12:52:13Z</time>
      </trkpt>
      <trkpt lat="43.09909" lon="0.43867">
        <ele>589.6</ele>
        <time>2025-12-29T12:52:14Z</time>
      </trkpt>
      <trkpt lat="43.09906" lon="0.43857">
        <ele>588.8</ele>
        <time>2025-12-29T12:52:15Z</time>
      </trkpt>
      <trkpt lat="43.09902" lon="0.43848">
        <ele>588.8</ele>
        <time>2025-12-29T12:52:16Z</time>
      </trkpt>
      <trkpt lat="43.09896" lon="0.43841">
        <ele>588.8</ele>
        <time>2025-12-29T12:52:17Z</time>
      </trkpt>
      <trkpt lat="43.09889" lon="0.43835">
        <ele>588.8</ele>
        <time>2025-12-29T12:52:18Z</time>
      </trkpt>
      <trkpt lat="43.09882" lon="0.43832">
        <ele>587.6</ele>
        <time>2025-12-29T12:52:19Z</time>
      </trkpt>
      <trkpt lat="43.09874" lon="0.43832">
        <ele>587.6</ele>
        <time>2025-12-29T12:52:20Z</time>
      </trkpt>
      <trkpt lat="43.09867" lon="0.43834">
        <ele>587.6</ele>
        <time>2025-12-29T12:52:21Z</time>
      </trkpt>
      <trkpt lat="43.0986" lon="0.43838">
        <ele>586.6</ele>
        <time>2025-12-29T12:52:22Z</time>
      </trkpt>
      <trkpt lat="43.09854" lon="0.43845">
        <ele>586.2</ele>
        <time>2025-12-29T12:52:23Z</time>
      </trkpt>
      <trkpt lat="43.09849" lon="0.43854">
        <ele>586.2</ele>
        <time>2025-12-29T12:52:24Z</time>
      </trkpt>
      <trkpt lat="43.09846" lon="0.43863">
        <ele>586.2</ele>
        <time>2025-12-29T12:52:25Z</time>
      </trkpt>
      <trkpt lat="43.09844" lon="0.43873">
        <ele>585.2</ele>
        <time>2025-12-29T12:52:26Z</time>
      </trkpt>
      <trkpt lat="43.09844" lon="0.43884">
        <ele>583.8</ele>
        <time>2025-12-29T12:52:27Z</time>
      </trkpt>
      <trkpt lat="43.09845" lon="0.43895">
        <ele>583.8</ele>
        <time>2025-12-29T12:52:28Z</time>
      </trkpt>
      <trkpt lat="43.09847" lon="0.43907">
        <ele>583.8</ele>
        <time>2025-12-29T12:52:29Z</time>
      </trkpt>
      <trkpt lat="43.0985" lon="0.43919">
        <ele>582.8</ele>
        <time>2025-12-29T12:52:30Z</time>
      </trkpt>
      <trkpt lat="43.09852" lon="0.4393">
        <ele>581.4</ele>
        <time>2025-12-29T12:52:31Z</time>
      </trkpt>
      <trkpt lat="43.09854" lon="0.43942">
        <ele>581.4</ele>
        <time>2025-12-29T12:52:32Z</time>
      </trkpt>
      <trkpt lat="43.09856" lon="0.43954">
        <ele>581.4</ele>
        <time>2025-12-29T12:52:33Z</time>
      </trkpt>
      <trkpt lat="43.09858" lon="0.43966">
        <ele>580.4</ele>
        <time>2025-12-29T12:52:34Z</time>
      </trkpt>
      <trkpt lat="43.09861" lon="0.43978">
        <ele>578.6</ele>
        <time>2025-12-29T12:52:35Z</time>
      </trkpt>
      <trkpt lat="43.09863" lon="0.43991">
        <ele>578.6</ele>
        <time>2025-12-29T12:52:36Z</time>
      </trkpt>
      <trkpt lat="43.09864" lon="0.44005">
        <ele>578.6</ele>
        <time>2025-12-29T12:52:37Z</time>
      </trkpt>
      <trkpt lat="43.09866" lon="0.44017">
        <ele>577.6</ele>
        <time>2025-12-29T12:52:38Z</time>
      </trkpt>
      <trkpt lat="43.09868" lon="0.4403">
        <ele>575.6</ele>
        <time>2025-12-29T12:52:39Z</time>
      </trkpt>
      <trkpt lat="43.09869" lon="0.44042">
        <ele>575.6</ele>
        <time>2025-12-29T12:52:40Z</time>
      </trkpt>
      <trkpt lat="43.09868" lon="0.44055">
        <ele>575.6</ele>
        <time>2025-12-29T12:52:41Z</time>
      </trkpt>
      <trkpt lat="43.09867" lon="0.44068">
        <ele>574.6</ele>
        <time>2025-12-29T12:52:42Z</time>
      </trkpt>
      <trkpt lat="43.09866" lon="0.44081">
        <ele>573</ele>
        <time>2025-12-29T12:52:43Z</time>
      </trkpt>
      <trkpt lat="43.09863" lon="0.44094">
        <ele>573</ele>
        <time>2025-12-29T12:52:44Z</time>
      </trkpt>
      <trkpt lat="43.09861" lon="0.44107">
        <ele>573</ele>
        <time>2025-12-29T12:52:45Z</time>
      </trkpt>
      <trkpt lat="43.09858" lon="0.44119">
        <ele>572</ele>
        <time>2025-12-29T12:52:46Z</time>
      </trkpt>
      <trkpt lat="43.09855" lon="0.4413">
        <ele>571.4</ele>
        <time>2025-12-29T12:52:47Z</time>
      </trkpt>
      <trkpt lat="43.09851" lon="0.44141">
        <ele>571.4</ele>
        <time>2025-12-29T12:52:48Z</time>
      </trkpt>
      <trkpt lat="43.09847" lon="0.4415">
        <ele>571.4</ele>
        <time>2025-12-29T12:52:49Z</time>
      </trkpt>
      <trkpt lat="43.09842" lon="0.44157">
        <ele>570.4</ele>
        <time>2025-12-29T12:52:50Z</time>
      </trkpt>
      <trkpt lat="43.09836" lon="0.44163">
        <ele>567.4</ele>
        <time>2025-12-29T12:52:51Z</time>
      </trkpt>
      <trkpt lat="43.09828" lon="0.44167">
        <ele>567.4</ele>
        <time>2025-12-29T12:52:52Z</time>
      </trkpt>
      <trkpt lat="43.0982" lon="0.4417">
        <ele>567.4</ele>
        <time>2025-12-29T12:52:53Z</time>
      </trkpt>
      <trkpt lat="43.09812" lon="0.4417">
        <ele>566.4</ele>
        <time>2025-12-29T12:52:54Z</time>
      </trkpt>
      <trkpt lat="43.09804" lon="0.44168">
        <ele>564.8</ele>
        <time>2025-12-29T12:52:55Z</time>
      </trkpt>
      <trkpt lat="43.09797" lon="0.44164">
        <ele>564.8</ele>
        <time>2025-12-29T12:52:56Z</time>
      </trkpt>
      <trkpt lat="43.0979" lon="0.4416">
        <ele>564.8</ele>
        <time>2025-12-29T12:52:57Z</time>
      </trkpt>
      <trkpt lat="43.09782" lon="0.44154">
        <ele>563.8</ele>
        <time>2025-12-29T12:52:58Z</time>
      </trkpt>
      <trkpt lat="43.09773" lon="0.4415">
        <ele>562.4</ele>
        <time>2025-12-29T12:52:59Z</time>
      </trkpt>
      <trkpt lat="43.09765" lon="0.44145">
        <ele>562.4</ele>
        <time>2025-12-29T12:53:00Z</time>
      </trkpt>
      <trkpt lat="43.09756" lon="0.44141">
        <ele>562.4</ele>
        <time>2025-12-29T12:53:01Z</time>
      </trkpt>
      <trkpt lat="43.09747" lon="0.44136">
        <ele>561.4</ele>
        <time>2025-12-29T12:53:02Z</time>
      </trkpt>
      <trkpt lat="43.09738" lon="0.44131">
        <ele>559.4</ele>
        <time>2025-12-29T12:53:03Z</time>
      </trkpt>
      <trkpt lat="43.09729" lon="0.44126">
        <ele>559.4</ele>
        <time>2025-12-29T12:53:04Z</time>
      </trkpt>
      <trkpt lat="43.0972" lon="0.44123">
        <ele>559.4</ele>
        <time>2025-12-29T12:53:05Z</time>
      </trkpt>
      <trkpt lat="43.09711" lon="0.44119">
        <ele>559</ele>
        <time>2025-12-29T12:53:06Z</time>
      </trkpt>
      <trkpt lat="43.09702" lon="0.44116">
        <ele>557.8</ele>
        <time>2025-12-29T12:53:07Z</time>
      </trkpt>
      <trkpt lat="43.09694" lon="0.44114">
        <ele>557.8</ele>
        <time>2025-12-29T12:53:08Z</time>
      </trkpt>
      <trkpt lat="43.09685" lon="0.44113">
        <ele>557.8</ele>
        <time>2025-12-29T12:53:09Z</time>
      </trkpt>
      <trkpt lat="43.09676" lon="0.44112">
        <ele>557.8</ele>
        <time>2025-12-29T12:53:10Z</time>
      </trkpt>
      <trkpt lat="43.09669" lon="0.4411">
        <ele>557.6</ele>
        <time>2025-12-29T12:53:11Z</time>
      </trkpt>
      <trkpt lat="43.09661" lon="0.44108">
        <ele>557.6</ele>
        <time>2025-12-29T12:53:12Z</time>
      </trkpt>
      <trkpt lat="43.09654" lon="0.44106">
        <ele>557.6</ele>
        <time>2025-12-29T12:53:13Z</time>
      </trkpt>
      <trkpt lat="43.09646" lon="0.44105">
        <ele>558.6</ele>
        <time>2025-12-29T12:53:14Z</time>
      </trkpt>
      <trkpt lat="43.09639" lon="0.44104">
        <ele>558.6</ele>
        <time>2025-12-29T12:53:15Z</time>
      </trkpt>
      <trkpt lat="43.09632" lon="0.44104">
        <ele>558.6</ele>
        <time>2025-12-29T12:53:16Z</time>
      </trkpt>
      <trkpt lat="43.09625" lon="0.44102">
        <ele>558.6</ele>
        <time>2025-12-29T12:53:17Z</time>
      </trkpt>
      <trkpt lat="43.09619" lon="0.44101">
        <ele>557.8</ele>
        <time>2025-12-29T12:53:18Z</time>
      </trkpt>
      <trkpt lat="43.09612" lon="0.44101">
        <ele>557.8</ele>
        <time>2025-12-29T12:53:19Z</time>
      </trkpt>
      <trkpt lat="43.09606" lon="0.44101">
        <ele>557.8</ele>
        <time>2025-12-29T12:53:20Z</time>
      </trkpt>
      <trkpt lat="43.09599" lon="0.44101">
        <ele>557.8</ele>
        <time>2025-12-29T12:53:21Z</time>
      </trkpt>
      <trkpt lat="43.09593" lon="0.44101">
        <ele>557.8</ele>
        <time>2025-12-29T12:53:22Z</time>
      </trkpt>
      <trkpt lat="43.09586" lon="0.441">
        <ele>559.6</ele>
        <time>2025-12-29T12:53:23Z</time>
      </trkpt>
      <trkpt lat="43.09581" lon="0.44099">
        <ele>559.6</ele>
        <time>2025-12-29T12:53:24Z</time>
      </trkpt>
      <trkpt lat="43.09575" lon="0.44099">
        <ele>559.6</ele>
        <time>2025-12-29T12:53:25Z</time>
      </trkpt>
      <trkpt lat="43.09569" lon="0.441">
        <ele>558.6</ele>
        <time>2025-12-29T12:53:26Z</time>
      </trkpt>
      <trkpt lat="43.09563" lon="0.441">
        <ele>559.2</ele>
        <time>2025-12-29T12:53:27Z</time>
      </trkpt>
      <trkpt lat="43.09558" lon="0.441">
        <ele>559.2</ele>
        <time>2025-12-29T12:53:28Z</time>
      </trkpt>
      <trkpt lat="43.09552" lon="0.441">
        <ele>559.2</ele>
        <time>2025-12-29T12:53:29Z</time>
      </trkpt>
      <trkpt lat="43.09546" lon="0.441">
        <ele>559.8</ele>
        <time>2025-12-29T12:53:30Z</time>
      </trkpt>
      <trkpt lat="43.0954" lon="0.44099">
        <ele>559.2</ele>
        <time>2025-12-29T12:53:31Z</time>
      </trkpt>
      <trkpt lat="43.09534" lon="0.44098">
        <ele>559.2</ele>
        <time>2025-12-29T12:53:32Z</time>
      </trkpt>
      <trkpt lat="43.09528" lon="0.44098">
        <ele>559.2</ele>
        <time>2025-12-29T12:53:33Z</time>
      </trkpt>
      <trkpt lat="43.09522" lon="0.44097">
        <ele>559.2</ele>
        <time>2025-12-29T12:53:34Z</time>
      </trkpt>
      <trkpt lat="43.09516" lon="0.44095">
        <ele>558.6</ele>
        <time>2025-12-29T12:53:35Z</time>
      </trkpt>
      <trkpt lat="43.0951" lon="0.44095">
        <ele>558.6</ele>
        <time>2025-12-29T12:53:36Z</time>
      </trkpt>
      <trkpt lat="43.09504" lon="0.44095">
        <ele>558.6</ele>
        <time>2025-12-29T12:53:37Z</time>
      </trkpt>
      <trkpt lat="43.09497" lon="0.44094">
        <ele>558.6</ele>
        <time>2025-12-29T12:53:38Z</time>
      </trkpt>
      <trkpt lat="43.09491" lon="0.44094">
        <ele>558.6</ele>
        <time>2025-12-29T12:53:39Z</time>
      </trkpt>
      <trkpt lat="43.09485" lon="0.44093">
        <ele>558.6</ele>
        <time>2025-12-29T12:53:40Z</time>
      </trkpt>
      <trkpt lat="43.09478" lon="0.44092">
        <ele>558.6</ele>
        <time>2025-12-29T12:53:41Z</time>
      </trkpt>
      <trkpt lat="43.09472" lon="0.44092">
        <ele>558.6</ele>
        <time>2025-12-29T12:53:42Z</time>
      </trkpt>
      <trkpt lat="43.09466" lon="0.44091">
        <ele>558.2</ele>
        <time>2025-12-29T12:53:43Z</time>
      </trkpt>
      <trkpt lat="43.09459" lon="0.4409">
        <ele>558.2</ele>
        <time>2025-12-29T12:53:44Z</time>
      </trkpt>
      <trkpt lat="43.09453" lon="0.4409">
        <ele>558.2</ele>
        <time>2025-12-29T12:53:45Z</time>
      </trkpt>
      <trkpt lat="43.09446" lon="0.4409">
        <ele>558.2</ele>
        <time>2025-12-29T12:53:46Z</time>
      </trkpt>
      <trkpt lat="43.0944" lon="0.44089">
        <ele>558.4</ele>
        <time>2025-12-29T12:53:47Z</time>
      </trkpt>
      <trkpt lat="43.09434" lon="0.44088">
        <ele>558.4</ele>
        <time>2025-12-29T12:53:48Z</time>
      </trkpt>
      <trkpt lat="43.09427" lon="0.44088">
        <ele>558.4</ele>
        <time>2025-12-29T12:53:49Z</time>
      </trkpt>
      <trkpt lat="43.09421" lon="0.44088">
        <ele>558.4</ele>
        <time>2025-12-29T12:53:50Z</time>
      </trkpt>
      <trkpt lat="43.09414" lon="0.44087">
        <ele>559.4</ele>
        <time>2025-12-29T12:53:51Z</time>
      </trkpt>
      <trkpt lat="43.09408" lon="0.44087">
        <ele>559.4</ele>
        <time>2025-12-29T12:53:52Z</time>
      </trkpt>
      <trkpt lat="43.09402" lon="0.44086">
        <ele>559.4</ele>
        <time>2025-12-29T12:53:53Z</time>
      </trkpt>
      <trkpt lat="43.09395" lon="0.44085">
        <ele>559.4</ele>
        <time>2025-12-29T12:53:54Z</time>
      </trkpt>
      <trkpt lat="43.09389" lon="0.44085">
        <ele>559.4</ele>
        <time>2025-12-29T12:53:55Z</time>
      </trkpt>
      <trkpt lat="43.09383" lon="0.44084">
        <ele>559.4</ele>
        <time>2025-12-29T12:53:56Z</time>
      </trkpt>
      <trkpt lat="43.09377" lon="0.44084">
        <ele>559.4</ele>
        <time>2025-12-29T12:53:57Z</time>
      </trkpt>
      <trkpt lat="43.09372" lon="0.44083">
        <ele>560</ele>
        <time>2025-12-29T12:53:58Z</time>
      </trkpt>
      <trkpt lat="43.09365" lon="0.44083">
        <ele>560.6</ele>
        <time>2025-12-29T12:53:59Z</time>
      </trkpt>
      <trkpt lat="43.09359" lon="0.44082">
        <ele>560.6</ele>
        <time>2025-12-29T12:54:00Z</time>
      </trkpt>
      <trkpt lat="43.09353" lon="0.44081">
        <ele>560.6</ele>
        <time>2025-12-29T12:54:01Z</time>
      </trkpt>
      <trkpt lat="43.09347" lon="0.4408">
        <ele>560.6</ele>
        <time>2025-12-29T12:54:02Z</time>
      </trkpt>
      <trkpt lat="43.09341" lon="0.44079">
        <ele>560.4</ele>
        <time>2025-12-29T12:54:03Z</time>
      </trkpt>
      <trkpt lat="43.09335" lon="0.44079">
        <ele>560.4</ele>
        <time>2025-12-29T12:54:04Z</time>
      </trkpt>
      <trkpt lat="43.09329" lon="0.44078">
        <ele>560.4</ele>
        <time>2025-12-29T12:54:05Z</time>
      </trkpt>
      <trkpt lat="43.09324" lon="0.44077">
        <ele>561</ele>
        <time>2025-12-29T12:54:06Z</time>
      </trkpt>
      <trkpt lat="43.09318" lon="0.44077">
        <ele>561</ele>
        <time>2025-12-29T12:54:07Z</time>
      </trkpt>
      <trkpt lat="43.09313" lon="0.44076">
        <ele>561</ele>
        <time>2025-12-29T12:54:08Z</time>
      </trkpt>
      <trkpt lat="43.09308" lon="0.44075">
        <ele>561</ele>
        <time>2025-12-29T12:54:09Z</time>
      </trkpt>
      <trkpt lat="43.09303" lon="0.44075">
        <ele>561</ele>
        <time>2025-12-29T12:54:10Z</time>
      </trkpt>
      <trkpt lat="43.09298" lon="0.44074">
        <ele>561.2</ele>
        <time>2025-12-29T12:54:11Z</time>
      </trkpt>
      <trkpt lat="43.09293" lon="0.44073">
        <ele>561.2</ele>
        <time>2025-12-29T12:54:12Z</time>
      </trkpt>
      <trkpt lat="43.09288" lon="0.44073">
        <ele>561.2</ele>
        <time>2025-12-29T12:54:13Z</time>
      </trkpt>
      <trkpt lat="43.09283" lon="0.44073">
        <ele>561.2</ele>
        <time>2025-12-29T12:54:14Z</time>
      </trkpt>
      <trkpt lat="43.09278" lon="0.44072">
        <ele>562</ele>
        <time>2025-12-29T12:54:15Z</time>
      </trkpt>
      <trkpt lat="43.09273" lon="0.44071">
        <ele>562</ele>
        <time>2025-12-29T12:54:16Z</time>
      </trkpt>
      <trkpt lat="43.09268" lon="0.44071">
        <ele>562</ele>
        <time>2025-12-29T12:54:17Z</time>
      </trkpt>
      <trkpt lat="43.09264" lon="0.44071">
        <ele>562</ele>
        <time>2025-12-29T12:54:18Z</time>
      </trkpt>
      <trkpt lat="43.09259" lon="0.4407">
        <ele>561.8</ele>
        <time>2025-12-29T12:54:19Z</time>
      </trkpt>
      <trkpt lat="43.09254" lon="0.4407">
        <ele>561.8</ele>
        <time>2025-12-29T12:54:20Z</time>
      </trkpt>
      <trkpt lat="43.09249" lon="0.4407">
        <ele>561.8</ele>
        <time>2025-12-29T12:54:21Z</time>
      </trkpt>
      <trkpt lat="43.09245" lon="0.4407">
        <ele>561.8</ele>
        <time>2025-12-29T12:54:22Z</time>
      </trkpt>
      <trkpt lat="43.0924" lon="0.4407">
        <ele>562</ele>
        <time>2025-12-29T12:54:23Z</time>
      </trkpt>
      <trkpt lat="43.09235" lon="0.44069">
        <ele>562</ele>
        <time>2025-12-29T12:54:24Z</time>
      </trkpt>
      <trkpt lat="43.09231" lon="0.44069">
        <ele>562</ele>
        <time>2025-12-29T12:54:25Z</time>
      </trkpt>
      <trkpt lat="43.09226" lon="0.44069">
        <ele>562</ele>
        <time>2025-12-29T12:54:26Z</time>
      </trkpt>
      <trkpt lat="43.09222" lon="0.44068">
        <ele>561.8</ele>
        <time>2025-12-29T12:54:27Z</time>
      </trkpt>
      <trkpt lat="43.09217" lon="0.44067">
        <ele>561.8</ele>
        <time>2025-12-29T12:54:28Z</time>
      </trkpt>
      <trkpt lat="43.09212" lon="0.44067">
        <ele>561.8</ele>
        <time>2025-12-29T12:54:29Z</time>
      </trkpt>
      <trkpt lat="43.09208" lon="0.44066">
        <ele>561.8</ele>
        <time>2025-12-29T12:54:30Z</time>
      </trkpt>
      <trkpt lat="43.09203" lon="0.44065">
        <ele>561.4</ele>
        <time>2025-12-29T12:54:31Z</time>
      </trkpt>
      <trkpt lat="43.09198" lon="0.44065">
        <ele>561.4</ele>
        <time>2025-12-29T12:54:32Z</time>
      </trkpt>
      <trkpt lat="43.09193" lon="0.44064">
        <ele>561.4</ele>
        <time>2025-12-29T12:54:33Z</time>
      </trkpt>
      <trkpt lat="43.09188" lon="0.44064">
        <ele>561.4</ele>
        <time>2025-12-29T12:54:34Z</time>
      </trkpt>
      <trkpt lat="43.09183" lon="0.44063">
        <ele>561.4</ele>
        <time>2025-12-29T12:54:35Z</time>
      </trkpt>
      <trkpt lat="43.09178" lon="0.44063">
        <ele>561.4</ele>
        <time>2025-12-29T12:54:36Z</time>
      </trkpt>
      <trkpt lat="43.09173" lon="0.44062">
        <ele>561.4</ele>
        <time>2025-12-29T12:54:37Z</time>
      </trkpt>
      <trkpt lat="43.09168" lon="0.44061">
        <ele>562</ele>
        <time>2025-12-29T12:54:38Z</time>
      </trkpt>
      <trkpt lat="43.09162" lon="0.44061">
        <ele>561.4</ele>
        <time>2025-12-29T12:54:39Z</time>
      </trkpt>
      <trkpt lat="43.09157" lon="0.4406">
        <ele>561.4</ele>
        <time>2025-12-29T12:54:40Z</time>
      </trkpt>
      <trkpt lat="43.09152" lon="0.44059">
        <ele>561.4</ele>
        <time>2025-12-29T12:54:41Z</time>
      </trkpt>
      <trkpt lat="43.09146" lon="0.44058">
        <ele>561.4</ele>
        <time>2025-12-29T12:54:42Z</time>
      </trkpt>
      <trkpt lat="43.0914" lon="0.44058">
        <ele>560.4</ele>
        <time>2025-12-29T12:54:43Z</time>
      </trkpt>
      <trkpt lat="43.09135" lon="0.44057">
        <ele>560.4</ele>
        <time>2025-12-29T12:54:44Z</time>
      </trkpt>
      <trkpt lat="43.09129" lon="0.44056">
        <ele>560.4</ele>
        <time>2025-12-29T12:54:45Z</time>
      </trkpt>
      <trkpt lat="43.09123" lon="0.44055">
        <ele>560.2</ele>
        <time>2025-12-29T12:54:46Z</time>
      </trkpt>
      <trkpt lat="43.09117" lon="0.44055">
        <ele>560</ele>
        <time>2025-12-29T12:54:47Z</time>
      </trkpt>
      <trkpt lat="43.09112" lon="0.44054">
        <ele>560</ele>
        <time>2025-12-29T12:54:48Z</time>
      </trkpt>
      <trkpt lat="43.09106" lon="0.44054">
        <ele>560</ele>
        <time>2025-12-29T12:54:49Z</time>
      </trkpt>
      <trkpt lat="43.091" lon="0.44053">
        <ele>560</ele>
        <time>2025-12-29T12:54:50Z</time>
      </trkpt>
      <trkpt lat="43.09094" lon="0.44052">
        <ele>559.2</ele>
        <time>2025-12-29T12:54:51Z</time>
      </trkpt>
      <trkpt lat="43.09088" lon="0.44051">
        <ele>559.2</ele>
        <time>2025-12-29T12:54:52Z</time>
      </trkpt>
      <trkpt lat="43.09083" lon="0.44051">
        <ele>559.2</ele>
        <time>2025-12-29T12:54:53Z</time>
      </trkpt>
      <trkpt lat="43.09077" lon="0.4405">
        <ele>559.2</ele>
        <time>2025-12-29T12:54:54Z</time>
      </trkpt>
      <trkpt lat="43.09071" lon="0.44049">
        <ele>559</ele>
        <time>2025-12-29T12:54:55Z</time>
      </trkpt>
      <trkpt lat="43.09065" lon="0.44048">
        <ele>559</ele>
        <time>2025-12-29T12:54:56Z</time>
      </trkpt>
      <trkpt lat="43.09059" lon="0.44047">
        <ele>559</ele>
        <time>2025-12-29T12:54:57Z</time>
      </trkpt>
      <trkpt lat="43.09053" lon="0.44046">
        <ele>559</ele>
        <time>2025-12-29T12:54:58Z</time>
      </trkpt>
      <trkpt lat="43.09047" lon="0.44046">
        <ele>558.4</ele>
        <time>2025-12-29T12:54:59Z</time>
      </trkpt>
      <trkpt lat="43.09041" lon="0.44045">
        <ele>558.4</ele>
        <time>2025-12-29T12:55:00Z</time>
      </trkpt>
      <trkpt lat="43.09035" lon="0.44044">
        <ele>558.4</ele>
        <time>2025-12-29T12:55:01Z</time>
      </trkpt>
      <trkpt lat="43.09029" lon="0.44043">
        <ele>558.4</ele>
        <time>2025-12-29T12:55:02Z</time>
      </trkpt>
      <trkpt lat="43.09023" lon="0.44043">
        <ele>558.2</ele>
        <time>2025-12-29T12:55:03Z</time>
      </trkpt>
      <trkpt lat="43.09016" lon="0.44042">
        <ele>558.2</ele>
        <time>2025-12-29T12:55:04Z</time>
      </trkpt>
      <trkpt lat="43.0901" lon="0.44041">
        <ele>558.2</ele>
        <time>2025-12-29T12:55:05Z</time>
      </trkpt>
      <trkpt lat="43.09004" lon="0.4404">
        <ele>557.2</ele>
        <time>2025-12-29T12:55:06Z</time>
      </trkpt>
      <trkpt lat="43.08998" lon="0.4404">
        <ele>558</ele>
        <time>2025-12-29T12:55:07Z</time>
      </trkpt>
      <trkpt lat="43.08993" lon="0.44039">
        <ele>558</ele>
        <time>2025-12-29T12:55:08Z</time>
      </trkpt>
      <trkpt lat="43.08987" lon="0.44038">
        <ele>558</ele>
        <time>2025-12-29T12:55:09Z</time>
      </trkpt>
      <trkpt lat="43.0898" lon="0.44038">
        <ele>557</ele>
        <time>2025-12-29T12:55:10Z</time>
      </trkpt>
      <trkpt lat="43.08974" lon="0.44037">
        <ele>556</ele>
        <time>2025-12-29T12:55:11Z</time>
      </trkpt>
      <trkpt lat="43.08969" lon="0.44037">
        <ele>556</ele>
        <time>2025-12-29T12:55:12Z</time>
      </trkpt>
      <trkpt lat="43.08962" lon="0.44036">
        <ele>556</ele>
        <time>2025-12-29T12:55:13Z</time>
      </trkpt>
      <trkpt lat="43.08956" lon="0.44035">
        <ele>556</ele>
        <time>2025-12-29T12:55:14Z</time>
      </trkpt>
      <trkpt lat="43.0895" lon="0.44034">
        <ele>555.8</ele>
        <time>2025-12-29T12:55:15Z</time>
      </trkpt>
      <trkpt lat="43.08943" lon="0.44034">
        <ele>555.8</ele>
        <time>2025-12-29T12:55:16Z</time>
      </trkpt>
      <trkpt lat="43.08936" lon="0.44033">
        <ele>555.8</ele>
        <time>2025-12-29T12:55:17Z</time>
      </trkpt>
      <trkpt lat="43.0893" lon="0.44032">
        <ele>555.8</ele>
        <time>2025-12-29T12:55:18Z</time>
      </trkpt>
      <trkpt lat="43.08923" lon="0.44031">
        <ele>555.8</ele>
        <time>2025-12-29T12:55:19Z</time>
      </trkpt>
      <trkpt lat="43.08916" lon="0.44031">
        <ele>555.8</ele>
        <time>2025-12-29T12:55:20Z</time>
      </trkpt>
      <trkpt lat="43.0891" lon="0.4403">
        <ele>555.8</ele>
        <time>2025-12-29T12:55:21Z</time>
      </trkpt>
      <trkpt lat="43.08903" lon="0.44029">
        <ele>555.8</ele>
        <time>2025-12-29T12:55:22Z</time>
      </trkpt>
      <trkpt lat="43.08896" lon="0.44028">
        <ele>554</ele>
        <time>2025-12-29T12:55:23Z</time>
      </trkpt>
      <trkpt lat="43.08888" lon="0.44027">
        <ele>554</ele>
        <time>2025-12-29T12:55:24Z</time>
      </trkpt>
      <trkpt lat="43.08881" lon="0.44026">
        <ele>554</ele>
        <time>2025-12-29T12:55:25Z</time>
      </trkpt>
      <trkpt lat="43.08874" lon="0.44025">
        <ele>554</ele>
        <time>2025-12-29T12:55:26Z</time>
      </trkpt>
      <trkpt lat="43.08867" lon="0.44024">
        <ele>553</ele>
        <time>2025-12-29T12:55:27Z</time>
      </trkpt>
      <trkpt lat="43.0886" lon="0.44023">
        <ele>553</ele>
        <time>2025-12-29T12:55:28Z</time>
      </trkpt>
      <trkpt lat="43.08853" lon="0.44023">
        <ele>553</ele>
        <time>2025-12-29T12:55:29Z</time>
      </trkpt>
      <trkpt lat="43.08846" lon="0.44022">
        <ele>553</ele>
        <time>2025-12-29T12:55:30Z</time>
      </trkpt>
      <trkpt lat="43.08839" lon="0.44021">
        <ele>553</ele>
        <time>2025-12-29T12:55:31Z</time>
      </trkpt>
      <trkpt lat="43.08832" lon="0.4402">
        <ele>553</ele>
        <time>2025-12-29T12:55:32Z</time>
      </trkpt>
      <trkpt lat="43.08825" lon="0.44019">
        <ele>553</ele>
        <time>2025-12-29T12:55:33Z</time>
      </trkpt>
      <trkpt lat="43.08818" lon="0.44018">
        <ele>554</ele>
        <time>2025-12-29T12:55:34Z</time>
      </trkpt>
      <trkpt lat="43.08812" lon="0.44017">
        <ele>554.4</ele>
        <time>2025-12-29T12:55:35Z</time>
      </trkpt>
      <trkpt lat="43.08806" lon="0.44017">
        <ele>554.4</ele>
        <time>2025-12-29T12:55:36Z</time>
      </trkpt>
      <trkpt lat="43.088" lon="0.44016">
        <ele>554.4</ele>
        <time>2025-12-29T12:55:37Z</time>
      </trkpt>
      <trkpt lat="43.08794" lon="0.44015">
        <ele>554</ele>
        <time>2025-12-29T12:55:38Z</time>
      </trkpt>
      <trkpt lat="43.08789" lon="0.44014">
        <ele>554</ele>
        <time>2025-12-29T12:55:39Z</time>
      </trkpt>
      <trkpt lat="43.08783" lon="0.44014">
        <ele>554</ele>
        <time>2025-12-29T12:55:40Z</time>
      </trkpt>
      <trkpt lat="43.08778" lon="0.44013">
        <ele>554</ele>
        <time>2025-12-29T12:55:41Z</time>
      </trkpt>
      <trkpt lat="43.08772" lon="0.44013">
        <ele>554.6</ele>
        <time>2025-12-29T12:55:42Z</time>
      </trkpt>
      <trkpt lat="43.08767" lon="0.44012">
        <ele>554.2</ele>
        <time>2025-12-29T12:55:43Z</time>
      </trkpt>
      <trkpt lat="43.08761" lon="0.44011">
        <ele>554.2</ele>
        <time>2025-12-29T12:55:44Z</time>
      </trkpt>
      <trkpt lat="43.08756" lon="0.44011">
        <ele>554.2</ele>
        <time>2025-12-29T12:55:45Z</time>
      </trkpt>
      <trkpt lat="43.0875" lon="0.4401">
        <ele>554.2</ele>
        <time>2025-12-29T12:55:46Z</time>
      </trkpt>
      <trkpt lat="43.08745" lon="0.4401">
        <ele>555</ele>
        <time>2025-12-29T12:55:47Z</time>
      </trkpt>
      <trkpt lat="43.08739" lon="0.44009">
        <ele>555</ele>
        <time>2025-12-29T12:55:48Z</time>
      </trkpt>
      <trkpt lat="43.08734" lon="0.44008">
        <ele>555</ele>
        <time>2025-12-29T12:55:49Z</time>
      </trkpt>
      <trkpt lat="43.08728" lon="0.44008">
        <ele>556</ele>
        <time>2025-12-29T12:55:50Z</time>
      </trkpt>
      <trkpt lat="43.08723" lon="0.44007">
        <ele>556.6</ele>
        <time>2025-12-29T12:55:51Z</time>
      </trkpt>
      <trkpt lat="43.08717" lon="0.44007">
        <ele>556.6</ele>
        <time>2025-12-29T12:55:52Z</time>
      </trkpt>
      <trkpt lat="43.08712" lon="0.44006">
        <ele>556.6</ele>
        <time>2025-12-29T12:55:53Z</time>
      </trkpt>
      <trkpt lat="43.08706" lon="0.44005">
        <ele>556.6</ele>
        <time>2025-12-29T12:55:54Z</time>
      </trkpt>
      <trkpt lat="43.08701" lon="0.44004">
        <ele>557.2</ele>
        <time>2025-12-29T12:55:55Z</time>
      </trkpt>
      <trkpt lat="43.08695" lon="0.44004">
        <ele>557.2</ele>
        <time>2025-12-29T12:55:56Z</time>
      </trkpt>
      <trkpt lat="43.0869" lon="0.44003">
        <ele>557.2</ele>
        <time>2025-12-29T12:55:57Z</time>
      </trkpt>
      <trkpt lat="43.08684" lon="0.44002">
        <ele>557</ele>
        <time>2025-12-29T12:55:58Z</time>
      </trkpt>
      <trkpt lat="43.08679" lon="0.44001">
        <ele>557.4</ele>
        <time>2025-12-29T12:55:59Z</time>
      </trkpt>
      <trkpt lat="43.08674" lon="0.44001">
        <ele>557.4</ele>
        <time>2025-12-29T12:56:00Z</time>
      </trkpt>
      <trkpt lat="43.08668" lon="0.44">
        <ele>557.4</ele>
        <time>2025-12-29T12:56:01Z</time>
      </trkpt>
      <trkpt lat="43.08663" lon="0.43999">
        <ele>557.4</ele>
        <time>2025-12-29T12:56:02Z</time>
      </trkpt>
      <trkpt lat="43.08658" lon="0.43998">
        <ele>558.6</ele>
        <time>2025-12-29T12:56:03Z</time>
      </trkpt>
      <trkpt lat="43.08653" lon="0.43997">
        <ele>558.6</ele>
        <time>2025-12-29T12:56:04Z</time>
      </trkpt>
      <trkpt lat="43.08648" lon="0.43996">
        <ele>558.6</ele>
        <time>2025-12-29T12:56:05Z</time>
      </trkpt>
      <trkpt lat="43.08642" lon="0.43996">
        <ele>558.6</ele>
        <time>2025-12-29T12:56:06Z</time>
      </trkpt>
      <trkpt lat="43.08637" lon="0.43996">
        <ele>558.8</ele>
        <time>2025-12-29T12:56:07Z</time>
      </trkpt>
      <trkpt lat="43.08632" lon="0.43996">
        <ele>558.8</ele>
        <time>2025-12-29T12:56:08Z</time>
      </trkpt>
      <trkpt lat="43.08627" lon="0.43995">
        <ele>558.8</ele>
        <time>2025-12-29T12:56:09Z</time>
      </trkpt>
      <trkpt lat="43.08622" lon="0.43994">
        <ele>558.8</ele>
        <time>2025-12-29T12:56:10Z</time>
      </trkpt>
      <trkpt lat="43.08616" lon="0.43994">
        <ele>558.4</ele>
        <time>2025-12-29T12:56:11Z</time>
      </trkpt>
      <trkpt lat="43.08611" lon="0.43993">
        <ele>558.4</ele>
        <time>2025-12-29T12:56:12Z</time>
      </trkpt>
      <trkpt lat="43.08605" lon="0.43992">
        <ele>558.4</ele>
        <time>2025-12-29T12:56:13Z</time>
      </trkpt>
      <trkpt lat="43.086" lon="0.43991">
        <ele>558.4</ele>
        <time>2025-12-29T12:56:14Z</time>
      </trkpt>
      <trkpt lat="43.08594" lon="0.43991">
        <ele>558.8</ele>
        <time>2025-12-29T12:56:15Z</time>
      </trkpt>
      <trkpt lat="43.08589" lon="0.4399">
        <ele>558.8</ele>
        <time>2025-12-29T12:56:16Z</time>
      </trkpt>
      <trkpt lat="43.08583" lon="0.4399">
        <ele>558.8</ele>
        <time>2025-12-29T12:56:17Z</time>
      </trkpt>
      <trkpt lat="43.08577" lon="0.43989">
        <ele>558.8</ele>
        <time>2025-12-29T12:56:18Z</time>
      </trkpt>
      <trkpt lat="43.08572" lon="0.43989">
        <ele>558.6</ele>
        <time>2025-12-29T12:56:19Z</time>
      </trkpt>
      <trkpt lat="43.08566" lon="0.43988">
        <ele>558.6</ele>
        <time>2025-12-29T12:56:20Z</time>
      </trkpt>
      <trkpt lat="43.0856" lon="0.43987">
        <ele>558.6</ele>
        <time>2025-12-29T12:56:21Z</time>
      </trkpt>
      <trkpt lat="43.08553" lon="0.43987">
        <ele>558.6</ele>
        <time>2025-12-29T12:56:22Z</time>
      </trkpt>
      <trkpt lat="43.08547" lon="0.43986">
        <ele>557.8</ele>
        <time>2025-12-29T12:56:23Z</time>
      </trkpt>
      <trkpt lat="43.08541" lon="0.43985">
        <ele>557.8</ele>
        <time>2025-12-29T12:56:24Z</time>
      </trkpt>
      <trkpt lat="43.08535" lon="0.43985">
        <ele>557.8</ele>
        <time>2025-12-29T12:56:25Z</time>
      </trkpt>
      <trkpt lat="43.08528" lon="0.43984">
        <ele>557.6</ele>
        <time>2025-12-29T12:56:26Z</time>
      </trkpt>
      <trkpt lat="43.08522" lon="0.43984">
        <ele>557.4</ele>
        <time>2025-12-29T12:56:27Z</time>
      </trkpt>
      <trkpt lat="43.08516" lon="0.43983">
        <ele>557.4</ele>
        <time>2025-12-29T12:56:28Z</time>
      </trkpt>
      <trkpt lat="43.08509" lon="0.43982">
        <ele>557.4</ele>
        <time>2025-12-29T12:56:29Z</time>
      </trkpt>
      <trkpt lat="43.08503" lon="0.43982">
        <ele>557.4</ele>
        <time>2025-12-29T12:56:30Z</time>
      </trkpt>
      <trkpt lat="43.08496" lon="0.43981">
        <ele>557.4</ele>
        <time>2025-12-29T12:56:31Z</time>
      </trkpt>
      <trkpt lat="43.0849" lon="0.4398">
        <ele>557.4</ele>
        <time>2025-12-29T12:56:32Z</time>
      </trkpt>
      <trkpt lat="43.08484" lon="0.43979">
        <ele>557.4</ele>
        <time>2025-12-29T12:56:33Z</time>
      </trkpt>
      <trkpt lat="43.08477" lon="0.43979">
        <ele>557.4</ele>
        <time>2025-12-29T12:56:34Z</time>
      </trkpt>
      <trkpt lat="43.08471" lon="0.43978">
        <ele>558</ele>
        <time>2025-12-29T12:56:35Z</time>
      </trkpt>
      <trkpt lat="43.08465" lon="0.43977">
        <ele>558</ele>
        <time>2025-12-29T12:56:36Z</time>
      </trkpt>
      <trkpt lat="43.08458" lon="0.43977">
        <ele>558</ele>
        <time>2025-12-29T12:56:37Z</time>
      </trkpt>
      <trkpt lat="43.08452" lon="0.43976">
        <ele>558.4</ele>
        <time>2025-12-29T12:56:38Z</time>
      </trkpt>
      <trkpt lat="43.08446" lon="0.43976">
        <ele>558.2</ele>
        <time>2025-12-29T12:56:39Z</time>
      </trkpt>
      <trkpt lat="43.0844" lon="0.43976">
        <ele>558.2</ele>
        <time>2025-12-29T12:56:40Z</time>
      </trkpt>
      <trkpt lat="43.08434" lon="0.43975">
        <ele>558.2</ele>
        <time>2025-12-29T12:56:41Z</time>
      </trkpt>
      <trkpt lat="43.08428" lon="0.43975">
        <ele>559.2</ele>
        <time>2025-12-29T12:56:42Z</time>
      </trkpt>
      <trkpt lat="43.08423" lon="0.43974">
        <ele>560.8</ele>
        <time>2025-12-29T12:56:43Z</time>
      </trkpt>
      <trkpt lat="43.08417" lon="0.43974">
        <ele>560.8</ele>
        <time>2025-12-29T12:56:44Z</time>
      </trkpt>
      <trkpt lat="43.08412" lon="0.43973">
        <ele>560.8</ele>
        <time>2025-12-29T12:56:45Z</time>
      </trkpt>
      <trkpt lat="43.08406" lon="0.43973">
        <ele>560.8</ele>
        <time>2025-12-29T12:56:46Z</time>
      </trkpt>
      <trkpt lat="43.08401" lon="0.43972">
        <ele>561</ele>
        <time>2025-12-29T12:56:47Z</time>
      </trkpt>
      <trkpt lat="43.08396" lon="0.43972">
        <ele>561</ele>
        <time>2025-12-29T12:56:48Z</time>
      </trkpt>
      <trkpt lat="43.0839" lon="0.43971">
        <ele>561</ele>
        <time>2025-12-29T12:56:49Z</time>
      </trkpt>
      <trkpt lat="43.08385" lon="0.43971">
        <ele>561.8</ele>
        <time>2025-12-29T12:56:50Z</time>
      </trkpt>
      <trkpt lat="43.0838" lon="0.43971">
        <ele>561.4</ele>
        <time>2025-12-29T12:56:51Z</time>
      </trkpt>
      <trkpt lat="43.08374" lon="0.4397">
        <ele>561.4</ele>
        <time>2025-12-29T12:56:52Z</time>
      </trkpt>
      <trkpt lat="43.08369" lon="0.4397">
        <ele>561.4</ele>
        <time>2025-12-29T12:56:53Z</time>
      </trkpt>
      <trkpt lat="43.08363" lon="0.43969">
        <ele>561.4</ele>
        <time>2025-12-29T12:56:54Z</time>
      </trkpt>
      <trkpt lat="43.08358" lon="0.43969">
        <ele>562.2</ele>
        <time>2025-12-29T12:56:55Z</time>
      </trkpt>
      <trkpt lat="43.08352" lon="0.43968">
        <ele>562.2</ele>
        <time>2025-12-29T12:56:56Z</time>
      </trkpt>
      <trkpt lat="43.08347" lon="0.43968">
        <ele>562.2</ele>
        <time>2025-12-29T12:56:57Z</time>
      </trkpt>
      <trkpt lat="43.08342" lon="0.43967">
        <ele>562.2</ele>
        <time>2025-12-29T12:56:58Z</time>
      </trkpt>
      <trkpt lat="43.08336" lon="0.43966">
        <ele>562.8</ele>
        <time>2025-12-29T12:56:59Z</time>
      </trkpt>
      <trkpt lat="43.0833" lon="0.43966">
        <ele>562.8</ele>
        <time>2025-12-29T12:57:00Z</time>
      </trkpt>
      <trkpt lat="43.08325" lon="0.43965">
        <ele>562.8</ele>
        <time>2025-12-29T12:57:01Z</time>
      </trkpt>
      <trkpt lat="43.08319" lon="0.43965">
        <ele>562.8</ele>
        <time>2025-12-29T12:57:02Z</time>
      </trkpt>
      <trkpt lat="43.08314" lon="0.43964">
        <ele>563.2</ele>
        <time>2025-12-29T12:57:03Z</time>
      </trkpt>
      <trkpt lat="43.08308" lon="0.43963">
        <ele>563.2</ele>
        <time>2025-12-29T12:57:04Z</time>
      </trkpt>
      <trkpt lat="43.08302" lon="0.43963">
        <ele>563.2</ele>
        <time>2025-12-29T12:57:05Z</time>
      </trkpt>
      <trkpt lat="43.08297" lon="0.43963">
        <ele>562.2</ele>
        <time>2025-12-29T12:57:06Z</time>
      </trkpt>
      <trkpt lat="43.08292" lon="0.43963">
        <ele>562.6</ele>
        <time>2025-12-29T12:57:07Z</time>
      </trkpt>
      <trkpt lat="43.08286" lon="0.43962">
        <ele>562.6</ele>
        <time>2025-12-29T12:57:08Z</time>
      </trkpt>
      <trkpt lat="43.08281" lon="0.43962">
        <ele>562.6</ele>
        <time>2025-12-29T12:57:09Z</time>
      </trkpt>
      <trkpt lat="43.08276" lon="0.43961">
        <ele>563.6</ele>
        <time>2025-12-29T12:57:10Z</time>
      </trkpt>
      <trkpt lat="43.08271" lon="0.4396">
        <ele>562.6</ele>
        <time>2025-12-29T12:57:11Z</time>
      </trkpt>
      <trkpt lat="43.08266" lon="0.4396">
        <ele>562.6</ele>
        <time>2025-12-29T12:57:12Z</time>
      </trkpt>
      <trkpt lat="43.08262" lon="0.43959">
        <ele>562.6</ele>
        <time>2025-12-29T12:57:13Z</time>
      </trkpt>
      <trkpt lat="43.08257" lon="0.43958">
        <ele>563.6</ele>
        <time>2025-12-29T12:57:14Z</time>
      </trkpt>
      <trkpt lat="43.08252" lon="0.43957">
        <ele>562.8</ele>
        <time>2025-12-29T12:57:15Z</time>
      </trkpt>
      <trkpt lat="43.08248" lon="0.43957">
        <ele>562.8</ele>
        <time>2025-12-29T12:57:16Z</time>
      </trkpt>
      <trkpt lat="43.08243" lon="0.43956">
        <ele>562.8</ele>
        <time>2025-12-29T12:57:17Z</time>
      </trkpt>
      <trkpt lat="43.08238" lon="0.43955">
        <ele>563.8</ele>
        <time>2025-12-29T12:57:18Z</time>
      </trkpt>
      <trkpt lat="43.08234" lon="0.43954">
        <ele>564.2</ele>
        <time>2025-12-29T12:57:19Z</time>
      </trkpt>
      <trkpt lat="43.0823" lon="0.43954">
        <ele>564.2</ele>
        <time>2025-12-29T12:57:20Z</time>
      </trkpt>
      <trkpt lat="43.08226" lon="0.43953">
        <ele>564.2</ele>
        <time>2025-12-29T12:57:21Z</time>
      </trkpt>
      <trkpt lat="43.08222" lon="0.43953">
        <ele>564.2</ele>
        <time>2025-12-29T12:57:22Z</time>
      </trkpt>
      <trkpt lat="43.08218" lon="0.43952">
        <ele>563.8</ele>
        <time>2025-12-29T12:57:23Z</time>
      </trkpt>
      <trkpt lat="43.08214" lon="0.43951">
        <ele>563.8</ele>
        <time>2025-12-29T12:57:24Z</time>
      </trkpt>
      <trkpt lat="43.0821" lon="0.4395">
        <ele>563.8</ele>
        <time>2025-12-29T12:57:25Z</time>
      </trkpt>
      <trkpt lat="43.08207" lon="0.4395">
        <ele>564.4</ele>
        <time>2025-12-29T12:57:26Z</time>
      </trkpt>
      <trkpt lat="43.08203" lon="0.43949">
        <ele>564.6</ele>
        <time>2025-12-29T12:57:27Z</time>
      </trkpt>
      <trkpt lat="43.082" lon="0.43948">
        <ele>564.6</ele>
        <time>2025-12-29T12:57:28Z</time>
      </trkpt>
      <trkpt lat="43.08196" lon="0.43947">
        <ele>564.6</ele>
        <time>2025-12-29T12:57:29Z</time>
      </trkpt>
      <trkpt lat="43.08193" lon="0.43946">
        <ele>564.6</ele>
        <time>2025-12-29T12:57:30Z</time>
      </trkpt>
      <trkpt lat="43.0819" lon="0.43945">
        <ele>563.8</ele>
        <time>2025-12-29T12:57:31Z</time>
      </trkpt>
      <trkpt lat="43.08187" lon="0.43944">
        <ele>563.8</ele>
        <time>2025-12-29T12:57:32Z</time>
      </trkpt>
      <trkpt lat="43.08184" lon="0.43943">
        <ele>563.8</ele>
        <time>2025-12-29T12:57:33Z</time>
      </trkpt>
      <trkpt lat="43.0818" lon="0.43943">
        <ele>564.4</ele>
        <time>2025-12-29T12:57:34Z</time>
      </trkpt>
      <trkpt lat="43.08177" lon="0.43942">
        <ele>564.4</ele>
        <time>2025-12-29T12:57:35Z</time>
      </trkpt>
      <trkpt lat="43.08174" lon="0.43941">
        <ele>564.4</ele>
        <time>2025-12-29T12:57:36Z</time>
      </trkpt>
      <trkpt lat="43.0817" lon="0.43941">
        <ele>564.4</ele>
        <time>2025-12-29T12:57:37Z</time>
      </trkpt>
      <trkpt lat="43.08166" lon="0.4394">
        <ele>563.4</ele>
        <time>2025-12-29T12:57:38Z</time>
      </trkpt>
      <trkpt lat="43.08163" lon="0.43939">
        <ele>564.6</ele>
        <time>2025-12-29T12:57:39Z</time>
      </trkpt>
      <trkpt lat="43.08159" lon="0.43937">
        <ele>564.6</ele>
        <time>2025-12-29T12:57:40Z</time>
      </trkpt>
      <trkpt lat="43.08155" lon="0.43936">
        <ele>564.6</ele>
        <time>2025-12-29T12:57:41Z</time>
      </trkpt>
      <trkpt lat="43.08152" lon="0.43936">
        <ele>563.6</ele>
        <time>2025-12-29T12:57:42Z</time>
      </trkpt>
      <trkpt lat="43.08148" lon="0.43935">
        <ele>563.4</ele>
        <time>2025-12-29T12:57:43Z</time>
      </trkpt>
      <trkpt lat="43.08144" lon="0.43934">
        <ele>563.4</ele>
        <time>2025-12-29T12:57:44Z</time>
      </trkpt>
      <trkpt lat="43.08141" lon="0.43933">
        <ele>563.4</ele>
        <time>2025-12-29T12:57:45Z</time>
      </trkpt>
      <trkpt lat="43.08137" lon="0.43932">
        <ele>563.4</ele>
        <time>2025-12-29T12:57:46Z</time>
      </trkpt>
      <trkpt lat="43.08134" lon="0.43931">
        <ele>563.6</ele>
        <time>2025-12-29T12:57:47Z</time>
      </trkpt>
      <trkpt lat="43.0813" lon="0.4393">
        <ele>563.6</ele>
        <time>2025-12-29T12:57:48Z</time>
      </trkpt>
      <trkpt lat="43.08127" lon="0.43929">
        <ele>563.6</ele>
        <time>2025-12-29T12:57:49Z</time>
      </trkpt>
      <trkpt lat="43.08124" lon="0.43929">
        <ele>563.8</ele>
        <time>2025-12-29T12:57:50Z</time>
      </trkpt>
      <trkpt lat="43.0812" lon="0.43928">
        <ele>564.2</ele>
        <time>2025-12-29T12:57:51Z</time>
      </trkpt>
      <trkpt lat="43.08116" lon="0.43927">
        <ele>564.2</ele>
        <time>2025-12-29T12:57:52Z</time>
      </trkpt>
      <trkpt lat="43.08111" lon="0.43926">
        <ele>564.2</ele>
        <time>2025-12-29T12:57:53Z</time>
      </trkpt>
      <trkpt lat="43.08107" lon="0.43925">
        <ele>564.2</ele>
        <time>2025-12-29T12:57:54Z</time>
      </trkpt>
      <trkpt lat="43.08102" lon="0.43924">
        <ele>562.2</ele>
        <time>2025-12-29T12:57:55Z</time>
      </trkpt>
      <trkpt lat="43.08097" lon="0.43923">
        <ele>562.2</ele>
        <time>2025-12-29T12:57:56Z</time>
      </trkpt>
      <trkpt lat="43.08092" lon="0.43922">
        <ele>562.2</ele>
        <time>2025-12-29T12:57:57Z</time>
      </trkpt>
      <trkpt lat="43.08087" lon="0.4392">
        <ele>563</ele>
        <time>2025-12-29T12:57:58Z</time>
      </trkpt>
      <trkpt lat="43.08082" lon="0.43919">
        <ele>563.2</ele>
        <time>2025-12-29T12:57:59Z</time>
      </trkpt>
      <trkpt lat="43.08077" lon="0.43917">
        <ele>563.2</ele>
        <time>2025-12-29T12:58:00Z</time>
      </trkpt>
      <trkpt lat="43.08072" lon="0.43916">
        <ele>563.2</ele>
        <time>2025-12-29T12:58:01Z</time>
      </trkpt>
      <trkpt lat="43.08067" lon="0.43914">
        <ele>562.8</ele>
        <time>2025-12-29T12:58:02Z</time>
      </trkpt>
      <trkpt lat="43.08062" lon="0.43913">
        <ele>563.8</ele>
        <time>2025-12-29T12:58:03Z</time>
      </trkpt>
      <trkpt lat="43.08057" lon="0.43912">
        <ele>563.8</ele>
        <time>2025-12-29T12:58:04Z</time>
      </trkpt>
      <trkpt lat="43.08052" lon="0.4391">
        <ele>563.8</ele>
        <time>2025-12-29T12:58:05Z</time>
      </trkpt>
      <trkpt lat="43.08047" lon="0.43909">
        <ele>562.8</ele>
        <time>2025-12-29T12:58:06Z</time>
      </trkpt>
      <trkpt lat="43.08042" lon="0.43908">
        <ele>563</ele>
        <time>2025-12-29T12:58:07Z</time>
      </trkpt>
      <trkpt lat="43.08038" lon="0.43906">
        <ele>563</ele>
        <time>2025-12-29T12:58:08Z</time>
      </trkpt>
      <trkpt lat="43.08033" lon="0.43905">
        <ele>563</ele>
        <time>2025-12-29T12:58:09Z</time>
      </trkpt>
      <trkpt lat="43.08028" lon="0.43903">
        <ele>563</ele>
        <time>2025-12-29T12:58:10Z</time>
      </trkpt>
      <trkpt lat="43.08023" lon="0.43903">
        <ele>561.4</ele>
        <time>2025-12-29T12:58:11Z</time>
      </trkpt>
      <trkpt lat="43.08018" lon="0.43901">
        <ele>561.4</ele>
        <time>2025-12-29T12:58:12Z</time>
      </trkpt>
      <trkpt lat="43.08013" lon="0.439">
        <ele>561.4</ele>
        <time>2025-12-29T12:58:13Z</time>
      </trkpt>
      <trkpt lat="43.08008" lon="0.43899">
        <ele>562.4</ele>
        <time>2025-12-29T12:58:14Z</time>
      </trkpt>
      <trkpt lat="43.08002" lon="0.43898">
        <ele>561.4</ele>
        <time>2025-12-29T12:58:15Z</time>
      </trkpt>
      <trkpt lat="43.07997" lon="0.43897">
        <ele>561.4</ele>
        <time>2025-12-29T12:58:16Z</time>
      </trkpt>
      <trkpt lat="43.07992" lon="0.43896">
        <ele>561.4</ele>
        <time>2025-12-29T12:58:17Z</time>
      </trkpt>
      <trkpt lat="43.07988" lon="0.43894">
        <ele>562.4</ele>
        <time>2025-12-29T12:58:18Z</time>
      </trkpt>
      <trkpt lat="43.07983" lon="0.43893">
        <ele>562.2</ele>
        <time>2025-12-29T12:58:19Z</time>
      </trkpt>
      <trkpt lat="43.07978" lon="0.43892">
        <ele>562.2</ele>
        <time>2025-12-29T12:58:20Z</time>
      </trkpt>
      <trkpt lat="43.07972" lon="0.43891">
        <ele>562.2</ele>
        <time>2025-12-29T12:58:21Z</time>
      </trkpt>
      <trkpt lat="43.07967" lon="0.43889">
        <ele>562.2</ele>
        <time>2025-12-29T12:58:22Z</time>
      </trkpt>
      <trkpt lat="43.07962" lon="0.43887">
        <ele>561.2</ele>
        <time>2025-12-29T12:58:23Z</time>
      </trkpt>
      <trkpt lat="43.07956" lon="0.43885">
        <ele>561.2</ele>
        <time>2025-12-29T12:58:24Z</time>
      </trkpt>
      <trkpt lat="43.07951" lon="0.43882">
        <ele>561.2</ele>
        <time>2025-12-29T12:58:25Z</time>
      </trkpt>
      <trkpt lat="43.07945" lon="0.43878">
        <ele>560.2</ele>
        <time>2025-12-29T12:58:26Z</time>
      </trkpt>
      <trkpt lat="43.07939" lon="0.43874">
        <ele>559.8</ele>
        <time>2025-12-29T12:58:27Z</time>
      </trkpt>
      <trkpt lat="43.07934" lon="0.43869">
        <ele>559.8</ele>
        <time>2025-12-29T12:58:28Z</time>
      </trkpt>
      <trkpt lat="43.07928" lon="0.43862">
        <ele>559.8</ele>
        <time>2025-12-29T12:58:29Z</time>
      </trkpt>
      <trkpt lat="43.07923" lon="0.43857">
        <ele>558.8</ele>
        <time>2025-12-29T12:58:30Z</time>
      </trkpt>
      <trkpt lat="43.07917" lon="0.43851">
        <ele>558</ele>
        <time>2025-12-29T12:58:31Z</time>
      </trkpt>
      <trkpt lat="43.07911" lon="0.43845">
        <ele>558</ele>
        <time>2025-12-29T12:58:32Z</time>
      </trkpt>
      <trkpt lat="43.07906" lon="0.43838">
        <ele>558</ele>
        <time>2025-12-29T12:58:33Z</time>
      </trkpt>
      <trkpt lat="43.079" lon="0.43832">
        <ele>557</ele>
        <time>2025-12-29T12:58:34Z</time>
      </trkpt>
      <trkpt lat="43.07895" lon="0.43826">
        <ele>554.6</ele>
        <time>2025-12-29T12:58:35Z</time>
      </trkpt>
      <trkpt lat="43.07888" lon="0.43821">
        <ele>554.6</ele>
        <time>2025-12-29T12:58:36Z</time>
      </trkpt>
      <trkpt lat="43.07882" lon="0.43819">
        <ele>554.6</ele>
        <time>2025-12-29T12:58:37Z</time>
      </trkpt>
      <trkpt lat="43.07876" lon="0.43819">
        <ele>555.6</ele>
        <time>2025-12-29T12:58:38Z</time>
      </trkpt>
      <trkpt lat="43.0787" lon="0.43822">
        <ele>556.6</ele>
        <time>2025-12-29T12:58:39Z</time>
      </trkpt>
      <trkpt lat="43.07864" lon="0.43827">
        <ele>556.6</ele>
        <time>2025-12-29T12:58:40Z</time>
      </trkpt>
      <trkpt lat="43.0786" lon="0.43833">
        <ele>556.6</ele>
        <time>2025-12-29T12:58:41Z</time>
      </trkpt>
      <trkpt lat="43.07855" lon="0.43838">
        <ele>556.6</ele>
        <time>2025-12-29T12:58:42Z</time>
      </trkpt>
      <trkpt lat="43.07849" lon="0.43843">
        <ele>556.4</ele>
        <time>2025-12-29T12:58:43Z</time>
      </trkpt>
      <trkpt lat="43.07843" lon="0.43846">
        <ele>556.4</ele>
        <time>2025-12-29T12:58:44Z</time>
      </trkpt>
      <trkpt lat="43.07837" lon="0.43847">
        <ele>556.4</ele>
        <time>2025-12-29T12:58:45Z</time>
      </trkpt>
      <trkpt lat="43.0783" lon="0.43848">
        <ele>555.6</ele>
        <time>2025-12-29T12:58:46Z</time>
      </trkpt>
      <trkpt lat="43.07824" lon="0.43848">
        <ele>555.6</ele>
        <time>2025-12-29T12:58:47Z</time>
      </trkpt>
      <trkpt lat="43.07818" lon="0.43848">
        <ele>555.6</ele>
        <time>2025-12-29T12:58:48Z</time>
      </trkpt>
      <trkpt lat="43.07812" lon="0.43848">
        <ele>555.6</ele>
        <time>2025-12-29T12:58:49Z</time>
      </trkpt>
      <trkpt lat="43.07806" lon="0.43847">
        <ele>554.6</ele>
        <time>2025-12-29T12:58:50Z</time>
      </trkpt>
      <trkpt lat="43.078" lon="0.43847">
        <ele>556</ele>
        <time>2025-12-29T12:58:51Z</time>
      </trkpt>
      <trkpt lat="43.07795" lon="0.43845">
        <ele>556</ele>
        <time>2025-12-29T12:58:52Z</time>
      </trkpt>
      <trkpt lat="43.07789" lon="0.43843">
        <ele>556</ele>
        <time>2025-12-29T12:58:53Z</time>
      </trkpt>
      <trkpt lat="43.07783" lon="0.43841">
        <ele>556</ele>
        <time>2025-12-29T12:58:54Z</time>
      </trkpt>
      <trkpt lat="43.07777" lon="0.43838">
        <ele>554.4</ele>
        <time>2025-12-29T12:58:55Z</time>
      </trkpt>
      <trkpt lat="43.07771" lon="0.43834">
        <ele>554.4</ele>
        <time>2025-12-29T12:58:56Z</time>
      </trkpt>
      <trkpt lat="43.07765" lon="0.43829">
        <ele>554.4</ele>
        <time>2025-12-29T12:58:57Z</time>
      </trkpt>
      <trkpt lat="43.07759" lon="0.43824">
        <ele>553.4</ele>
        <time>2025-12-29T12:58:58Z</time>
      </trkpt>
      <trkpt lat="43.07753" lon="0.43818">
        <ele>551.2</ele>
        <time>2025-12-29T12:58:59Z</time>
      </trkpt>
      <trkpt lat="43.07747" lon="0.43812">
        <ele>551.2</ele>
        <time>2025-12-29T12:59:00Z</time>
      </trkpt>
      <trkpt lat="43.07741" lon="0.43805">
        <ele>551.2</ele>
        <time>2025-12-29T12:59:01Z</time>
      </trkpt>
      <trkpt lat="43.07734" lon="0.43799">
        <ele>550.2</ele>
        <time>2025-12-29T12:59:02Z</time>
      </trkpt>
      <trkpt lat="43.07729" lon="0.43793">
        <ele>547.6</ele>
        <time>2025-12-29T12:59:03Z</time>
      </trkpt>
      <trkpt lat="43.07723" lon="0.43786">
        <ele>547.6</ele>
        <time>2025-12-29T12:59:04Z</time>
      </trkpt>
      <trkpt lat="43.07717" lon="0.43779">
        <ele>547.6</ele>
        <time>2025-12-29T12:59:05Z</time>
      </trkpt>
      <trkpt lat="43.07713" lon="0.43772">
        <ele>546.6</ele>
        <time>2025-12-29T12:59:06Z</time>
      </trkpt>
      <trkpt lat="43.07709" lon="0.43765">
        <ele>545.2</ele>
        <time>2025-12-29T12:59:07Z</time>
      </trkpt>
      <trkpt lat="43.07705" lon="0.43756">
        <ele>545.2</ele>
        <time>2025-12-29T12:59:08Z</time>
      </trkpt>
      <trkpt lat="43.07703" lon="0.43746">
        <ele>545.2</ele>
        <time>2025-12-29T12:59:09Z</time>
      </trkpt>
      <trkpt lat="43.077" lon="0.43736">
        <ele>544.2</ele>
        <time>2025-12-29T12:59:10Z</time>
      </trkpt>
      <trkpt lat="43.07697" lon="0.43726">
        <ele>542</ele>
        <time>2025-12-29T12:59:11Z</time>
      </trkpt>
      <trkpt lat="43.07695" lon="0.43716">
        <ele>542</ele>
        <time>2025-12-29T12:59:12Z</time>
      </trkpt>
      <trkpt lat="43.07694" lon="0.43705">
        <ele>542</ele>
        <time>2025-12-29T12:59:13Z</time>
      </trkpt>
      <trkpt lat="43.07693" lon="0.43693">
        <ele>542</ele>
        <time>2025-12-29T12:59:14Z</time>
      </trkpt>
      <trkpt lat="43.07692" lon="0.43683">
        <ele>541</ele>
        <time>2025-12-29T12:59:15Z</time>
      </trkpt>
      <trkpt lat="43.07692" lon="0.43672">
        <ele>541</ele>
        <time>2025-12-29T12:59:16Z</time>
      </trkpt>
      <trkpt lat="43.07691" lon="0.43661">
        <ele>541</ele>
        <time>2025-12-29T12:59:17Z</time>
      </trkpt>
      <trkpt lat="43.0769" lon="0.43649">
        <ele>540</ele>
        <time>2025-12-29T12:59:18Z</time>
      </trkpt>
      <trkpt lat="43.07688" lon="0.43637">
        <ele>537.6</ele>
        <time>2025-12-29T12:59:19Z</time>
      </trkpt>
      <trkpt lat="43.07684" lon="0.43626">
        <ele>537.6</ele>
        <time>2025-12-29T12:59:20Z</time>
      </trkpt>
      <trkpt lat="43.07681" lon="0.43616">
        <ele>537.6</ele>
        <time>2025-12-29T12:59:21Z</time>
      </trkpt>
      <trkpt lat="43.07678" lon="0.43606">
        <ele>536.6</ele>
        <time>2025-12-29T12:59:22Z</time>
      </trkpt>
      <trkpt lat="43.07673" lon="0.43594">
        <ele>533</ele>
        <time>2025-12-29T12:59:23Z</time>
      </trkpt>
      <trkpt lat="43.07669" lon="0.43583">
        <ele>533</ele>
        <time>2025-12-29T12:59:24Z</time>
      </trkpt>
      <trkpt lat="43.07666" lon="0.43573">
        <ele>533</ele>
        <time>2025-12-29T12:59:25Z</time>
      </trkpt>
      <trkpt lat="43.07662" lon="0.43562">
        <ele>532</ele>
        <time>2025-12-29T12:59:26Z</time>
      </trkpt>
      <trkpt lat="43.07659" lon="0.43552">
        <ele>532.2</ele>
        <time>2025-12-29T12:59:27Z</time>
      </trkpt>
      <trkpt lat="43.07656" lon="0.43542">
        <ele>532.2</ele>
        <time>2025-12-29T12:59:28Z</time>
      </trkpt>
      <trkpt lat="43.07654" lon="0.43533">
        <ele>532.2</ele>
        <time>2025-12-29T12:59:29Z</time>
      </trkpt>
      <trkpt lat="43.07652" lon="0.43525">
        <ele>531.2</ele>
        <time>2025-12-29T12:59:30Z</time>
      </trkpt>
      <trkpt lat="43.0765" lon="0.43518">
        <ele>530.6</ele>
        <time>2025-12-29T12:59:31Z</time>
      </trkpt>
      <trkpt lat="43.07648" lon="0.43512">
        <ele>530.6</ele>
        <time>2025-12-29T12:59:32Z</time>
      </trkpt>
      <trkpt lat="43.07646" lon="0.43506">
        <ele>530.6</ele>
        <time>2025-12-29T12:59:33Z</time>
      </trkpt>
      <trkpt lat="43.07645" lon="0.435">
        <ele>529.6</ele>
        <time>2025-12-29T12:59:34Z</time>
      </trkpt>
      <trkpt lat="43.07643" lon="0.43496">
        <ele>529.8</ele>
        <time>2025-12-29T12:59:35Z</time>
      </trkpt>
      <trkpt lat="43.07641" lon="0.43493">
        <ele>529.8</ele>
        <time>2025-12-29T12:59:36Z</time>
      </trkpt>
      <trkpt lat="43.07639" lon="0.4349">
        <ele>529.8</ele>
        <time>2025-12-29T12:59:37Z</time>
      </trkpt>
      <trkpt lat="43.07636" lon="0.43488">
        <ele>529.8</ele>
        <time>2025-12-29T12:59:38Z</time>
      </trkpt>
      <trkpt lat="43.07633" lon="0.43489">
        <ele>529</ele>
        <time>2025-12-29T12:59:39Z</time>
      </trkpt>
      <trkpt lat="43.0763" lon="0.43492">
        <ele>529</ele>
        <time>2025-12-29T12:59:40Z</time>
      </trkpt>
      <trkpt lat="43.07627" lon="0.43497">
        <ele>529</ele>
        <time>2025-12-29T12:59:41Z</time>
      </trkpt>
      <trkpt lat="43.07626" lon="0.43502">
        <ele>528</ele>
        <time>2025-12-29T12:59:42Z</time>
      </trkpt>
      <trkpt lat="43.07624" lon="0.43509">
        <ele>527.6</ele>
        <time>2025-12-29T12:59:43Z</time>
      </trkpt>
      <trkpt lat="43.07622" lon="0.43516">
        <ele>527.6</ele>
        <time>2025-12-29T12:59:44Z</time>
      </trkpt>
      <trkpt lat="43.0762" lon="0.43523">
        <ele>527.6</ele>
        <time>2025-12-29T12:59:45Z</time>
      </trkpt>
      <trkpt lat="43.07618" lon="0.43531">
        <ele>526.6</ele>
        <time>2025-12-29T12:59:46Z</time>
      </trkpt>
      <trkpt lat="43.07616" lon="0.43539">
        <ele>524.4</ele>
        <time>2025-12-29T12:59:47Z</time>
      </trkpt>
      <trkpt lat="43.07614" lon="0.43547">
        <ele>524.4</ele>
        <time>2025-12-29T12:59:48Z</time>
      </trkpt>
      <trkpt lat="43.07612" lon="0.43556">
        <ele>524.4</ele>
        <time>2025-12-29T12:59:49Z</time>
      </trkpt>
      <trkpt lat="43.07609" lon="0.43565">
        <ele>524.4</ele>
        <time>2025-12-29T12:59:50Z</time>
      </trkpt>
      <trkpt lat="43.07606" lon="0.43574">
        <ele>522.8</ele>
        <time>2025-12-29T12:59:51Z</time>
      </trkpt>
      <trkpt lat="43.07604" lon="0.43583">
        <ele>522.8</ele>
        <time>2025-12-29T12:59:52Z</time>
      </trkpt>
      <trkpt lat="43.07602" lon="0.43593">
        <ele>522.8</ele>
        <time>2025-12-29T12:59:53Z</time>
      </trkpt>
      <trkpt lat="43.076" lon="0.43602">
        <ele>521.8</ele>
        <time>2025-12-29T12:59:54Z</time>
      </trkpt>
      <trkpt lat="43.07597" lon="0.43612">
        <ele>521.2</ele>
        <time>2025-12-29T12:59:55Z</time>
      </trkpt>
      <trkpt lat="43.07595" lon="0.43622">
        <ele>521.2</ele>
        <time>2025-12-29T12:59:56Z</time>
      </trkpt>
      <trkpt lat="43.07593" lon="0.43632">
        <ele>521.2</ele>
        <time>2025-12-29T12:59:57Z</time>
      </trkpt>
      <trkpt lat="43.07591" lon="0.43642">
        <ele>521.2</ele>
        <time>2025-12-29T12:59:58Z</time>
      </trkpt>
      <trkpt lat="43.07588" lon="0.43652">
        <ele>519.2</ele>
        <time>2025-12-29T12:59:59Z</time>
      </trkpt>
      <trkpt lat="43.07586" lon="0.43662">
        <ele>519.2</ele>
        <time>2025-12-29T13:00:00Z</time>
      </trkpt>
      <trkpt lat="43.07584" lon="0.43672">
        <ele>519.2</ele>
        <time>2025-12-29T13:00:01Z</time>
      </trkpt>
      <trkpt lat="43.07582" lon="0.43683">
        <ele>518.4</ele>
        <time>2025-12-29T13:00:02Z</time>
      </trkpt>
      <trkpt lat="43.0758" lon="0.43693">
        <ele>517.4</ele>
        <time>2025-12-29T13:00:03Z</time>
      </trkpt>
      <trkpt lat="43.07577" lon="0.43704">
        <ele>517.4</ele>
        <time>2025-12-29T13:00:04Z</time>
      </trkpt>
      <trkpt lat="43.07575" lon="0.43715">
        <ele>517.4</ele>
        <time>2025-12-29T13:00:05Z</time>
      </trkpt>
      <trkpt lat="43.07574" lon="0.43725">
        <ele>517.4</ele>
        <time>2025-12-29T13:00:06Z</time>
      </trkpt>
      <trkpt lat="43.07572" lon="0.43736">
        <ele>515.8</ele>
        <time>2025-12-29T13:00:07Z</time>
      </trkpt>
      <trkpt lat="43.07569" lon="0.43747">
        <ele>515.8</ele>
        <time>2025-12-29T13:00:08Z</time>
      </trkpt>
      <trkpt lat="43.07566" lon="0.43757">
        <ele>515.8</ele>
        <time>2025-12-29T13:00:09Z</time>
      </trkpt>
      <trkpt lat="43.07563" lon="0.43768">
        <ele>515.8</ele>
        <time>2025-12-29T13:00:10Z</time>
      </trkpt>
      <trkpt lat="43.07561" lon="0.43779">
        <ele>515</ele>
        <time>2025-12-29T13:00:11Z</time>
      </trkpt>
      <trkpt lat="43.07559" lon="0.43789">
        <ele>515</ele>
        <time>2025-12-29T13:00:12Z</time>
      </trkpt>
      <trkpt lat="43.07557" lon="0.438">
        <ele>515</ele>
        <time>2025-12-29T13:00:13Z</time>
      </trkpt>
      <trkpt lat="43.07555" lon="0.4381">
        <ele>515</ele>
        <time>2025-12-29T13:00:14Z</time>
      </trkpt>
      <trkpt lat="43.07554" lon="0.4382">
        <ele>514.8</ele>
        <time>2025-12-29T13:00:15Z</time>
      </trkpt>
      <trkpt lat="43.07552" lon="0.4383">
        <ele>514.8</ele>
        <time>2025-12-29T13:00:16Z</time>
      </trkpt>
      <trkpt lat="43.07551" lon="0.43839">
        <ele>514.8</ele>
        <time>2025-12-29T13:00:17Z</time>
      </trkpt>
      <trkpt lat="43.07548" lon="0.43848">
        <ele>514.8</ele>
        <time>2025-12-29T13:00:18Z</time>
      </trkpt>
      <trkpt lat="43.07544" lon="0.43856">
        <ele>514</ele>
        <time>2025-12-29T13:00:19Z</time>
      </trkpt>
      <trkpt lat="43.0754" lon="0.43864">
        <ele>514</ele>
        <time>2025-12-29T13:00:20Z</time>
      </trkpt>
      <trkpt lat="43.07537" lon="0.43872">
        <ele>514</ele>
        <time>2025-12-29T13:00:21Z</time>
      </trkpt>
      <trkpt lat="43.07533" lon="0.4388">
        <ele>514.8</ele>
        <time>2025-12-29T13:00:22Z</time>
      </trkpt>
      <trkpt lat="43.0753" lon="0.43887">
        <ele>514.6</ele>
        <time>2025-12-29T13:00:23Z</time>
      </trkpt>
      <trkpt lat="43.07527" lon="0.43895">
        <ele>514.6</ele>
        <time>2025-12-29T13:00:24Z</time>
      </trkpt>
      <trkpt lat="43.07523" lon="0.43902">
        <ele>514.6</ele>
        <time>2025-12-29T13:00:25Z</time>
      </trkpt>
      <trkpt lat="43.0752" lon="0.4391">
        <ele>515.4</ele>
        <time>2025-12-29T13:00:26Z</time>
      </trkpt>
      <trkpt lat="43.07517" lon="0.43917">
        <ele>514.8</ele>
        <time>2025-12-29T13:00:27Z</time>
      </trkpt>
      <trkpt lat="43.07513" lon="0.43924">
        <ele>514.8</ele>
        <time>2025-12-29T13:00:28Z</time>
      </trkpt>
      <trkpt lat="43.0751" lon="0.43931">
        <ele>514.8</ele>
        <time>2025-12-29T13:00:29Z</time>
      </trkpt>
      <trkpt lat="43.07506" lon="0.43938">
        <ele>514.8</ele>
        <time>2025-12-29T13:00:30Z</time>
      </trkpt>
      <trkpt lat="43.07502" lon="0.43945">
        <ele>514.4</ele>
        <time>2025-12-29T13:00:31Z</time>
      </trkpt>
      <trkpt lat="43.07498" lon="0.43951">
        <ele>514.4</ele>
        <time>2025-12-29T13:00:32Z</time>
      </trkpt>
      <trkpt lat="43.07494" lon="0.43958">
        <ele>514.4</ele>
        <time>2025-12-29T13:00:33Z</time>
      </trkpt>
      <trkpt lat="43.0749" lon="0.43964">
        <ele>514.4</ele>
        <time>2025-12-29T13:00:34Z</time>
      </trkpt>
      <trkpt lat="43.07486" lon="0.43971">
        <ele>514</ele>
        <time>2025-12-29T13:00:35Z</time>
      </trkpt>
      <trkpt lat="43.07481" lon="0.43977">
        <ele>514</ele>
        <time>2025-12-29T13:00:36Z</time>
      </trkpt>
      <trkpt lat="43.07477" lon="0.43984">
        <ele>514</ele>
        <time>2025-12-29T13:00:37Z</time>
      </trkpt>
      <trkpt lat="43.07472" lon="0.43989">
        <ele>513.6</ele>
        <time>2025-12-29T13:00:38Z</time>
      </trkpt>
      <trkpt lat="43.07467" lon="0.43995">
        <ele>513</ele>
        <time>2025-12-29T13:00:39Z</time>
      </trkpt>
      <trkpt lat="43.07462" lon="0.43999">
        <ele>513</ele>
        <time>2025-12-29T13:00:40Z</time>
      </trkpt>
      <trkpt lat="43.07457" lon="0.44004">
        <ele>513</ele>
        <time>2025-12-29T13:00:41Z</time>
      </trkpt>
      <trkpt lat="43.07451" lon="0.44009">
        <ele>513.2</ele>
        <time>2025-12-29T13:00:42Z</time>
      </trkpt>
      <trkpt lat="43.07445" lon="0.44013">
        <ele>512.4</ele>
        <time>2025-12-29T13:00:43Z</time>
      </trkpt>
      <trkpt lat="43.07439" lon="0.44016">
        <ele>512.4</ele>
        <time>2025-12-29T13:00:44Z</time>
      </trkpt>
      <trkpt lat="43.07433" lon="0.44017">
        <ele>512.4</ele>
        <time>2025-12-29T13:00:45Z</time>
      </trkpt>
      <trkpt lat="43.07426" lon="0.44017">
        <ele>512.4</ele>
        <time>2025-12-29T13:00:46Z</time>
      </trkpt>
      <trkpt lat="43.0742" lon="0.44017">
        <ele>512</ele>
        <time>2025-12-29T13:00:47Z</time>
      </trkpt>
      <trkpt lat="43.07414" lon="0.44017">
        <ele>512</ele>
        <time>2025-12-29T13:00:48Z</time>
      </trkpt>
      <trkpt lat="43.07407" lon="0.44017">
        <ele>512</ele>
        <time>2025-12-29T13:00:49Z</time>
      </trkpt>
      <trkpt lat="43.07401" lon="0.44017">
        <ele>512</ele>
        <time>2025-12-29T13:00:50Z</time>
      </trkpt>
      <trkpt lat="43.07394" lon="0.44017">
        <ele>511.6</ele>
        <time>2025-12-29T13:00:51Z</time>
      </trkpt>
      <trkpt lat="43.07388" lon="0.44017">
        <ele>511.6</ele>
        <time>2025-12-29T13:00:52Z</time>
      </trkpt>
      <trkpt lat="43.07381" lon="0.44017">
        <ele>511.6</ele>
        <time>2025-12-29T13:00:53Z</time>
      </trkpt>
      <trkpt lat="43.07375" lon="0.44016">
        <ele>511.6</ele>
        <time>2025-12-29T13:00:54Z</time>
      </trkpt>
      <trkpt lat="43.07368" lon="0.44016">
        <ele>511.2</ele>
        <time>2025-12-29T13:00:55Z</time>
      </trkpt>
      <trkpt lat="43.07362" lon="0.44015">
        <ele>511.2</ele>
        <time>2025-12-29T13:00:56Z</time>
      </trkpt>
      <trkpt lat="43.07355" lon="0.44013">
        <ele>511.2</ele>
        <time>2025-12-29T13:00:57Z</time>
      </trkpt>
      <trkpt lat="43.07349" lon="0.44012">
        <ele>510.2</ele>
        <time>2025-12-29T13:00:58Z</time>
      </trkpt>
      <trkpt lat="43.07342" lon="0.4401">
        <ele>509.6</ele>
        <time>2025-12-29T13:00:59Z</time>
      </trkpt>
      <trkpt lat="43.07335" lon="0.44008">
        <ele>509.6</ele>
        <time>2025-12-29T13:01:00Z</time>
      </trkpt>
      <trkpt lat="43.07329" lon="0.44007">
        <ele>509.6</ele>
        <time>2025-12-29T13:01:01Z</time>
      </trkpt>
      <trkpt lat="43.07322" lon="0.44006">
        <ele>509.6</ele>
        <time>2025-12-29T13:01:02Z</time>
      </trkpt>
      <trkpt lat="43.07316" lon="0.44004">
        <ele>511</ele>
        <time>2025-12-29T13:01:03Z</time>
      </trkpt>
      <trkpt lat="43.0731" lon="0.44002">
        <ele>511</ele>
        <time>2025-12-29T13:01:04Z</time>
      </trkpt>
      <trkpt lat="43.07304" lon="0.44001">
        <ele>511</ele>
        <time>2025-12-29T13:01:05Z</time>
      </trkpt>
      <trkpt lat="43.07298" lon="0.44">
        <ele>510</ele>
        <time>2025-12-29T13:01:06Z</time>
      </trkpt>
      <trkpt lat="43.07291" lon="0.44">
        <ele>510.2</ele>
        <time>2025-12-29T13:01:07Z</time>
      </trkpt>
      <trkpt lat="43.07285" lon="0.44001">
        <ele>510.2</ele>
        <time>2025-12-29T13:01:08Z</time>
      </trkpt>
      <trkpt lat="43.07278" lon="0.44002">
        <ele>510.2</ele>
        <time>2025-12-29T13:01:09Z</time>
      </trkpt>
      <trkpt lat="43.07272" lon="0.44004">
        <ele>509.2</ele>
        <time>2025-12-29T13:01:10Z</time>
      </trkpt>
      <trkpt lat="43.07266" lon="0.44007">
        <ele>508.6</ele>
        <time>2025-12-29T13:01:11Z</time>
      </trkpt>
      <trkpt lat="43.07259" lon="0.44009">
        <ele>508.6</ele>
        <time>2025-12-29T13:01:12Z</time>
      </trkpt>
      <trkpt lat="43.07253" lon="0.44012">
        <ele>508.6</ele>
        <time>2025-12-29T13:01:13Z</time>
      </trkpt>
      <trkpt lat="43.07246" lon="0.44015">
        <ele>509.6</ele>
        <time>2025-12-29T13:01:14Z</time>
      </trkpt>
      <trkpt lat="43.0724" lon="0.44018">
        <ele>509.8</ele>
        <time>2025-12-29T13:01:15Z</time>
      </trkpt>
      <trkpt lat="43.07233" lon="0.44021">
        <ele>509.8</ele>
        <time>2025-12-29T13:01:16Z</time>
      </trkpt>
      <trkpt lat="43.07227" lon="0.44024">
        <ele>509.8</ele>
        <time>2025-12-29T13:01:17Z</time>
      </trkpt>
      <trkpt lat="43.0722" lon="0.44027">
        <ele>509.8</ele>
        <time>2025-12-29T13:01:18Z</time>
      </trkpt>
      <trkpt lat="43.07214" lon="0.4403">
        <ele>509.6</ele>
        <time>2025-12-29T13:01:19Z</time>
      </trkpt>
      <trkpt lat="43.07207" lon="0.44033">
        <ele>509.6</ele>
        <time>2025-12-29T13:01:20Z</time>
      </trkpt>
      <trkpt lat="43.072" lon="0.44036">
        <ele>509.6</ele>
        <time>2025-12-29T13:01:21Z</time>
      </trkpt>
      <trkpt lat="43.07194" lon="0.44039">
        <ele>508.6</ele>
        <time>2025-12-29T13:01:22Z</time>
      </trkpt>
      <trkpt lat="43.07187" lon="0.44042">
        <ele>509.2</ele>
        <time>2025-12-29T13:01:23Z</time>
      </trkpt>
      <trkpt lat="43.0718" lon="0.44044">
        <ele>509.2</ele>
        <time>2025-12-29T13:01:24Z</time>
      </trkpt>
      <trkpt lat="43.07173" lon="0.44047">
        <ele>509.2</ele>
        <time>2025-12-29T13:01:25Z</time>
      </trkpt>
      <trkpt lat="43.07167" lon="0.4405">
        <ele>508.8</ele>
        <time>2025-12-29T13:01:26Z</time>
      </trkpt>
      <trkpt lat="43.07161" lon="0.44053">
        <ele>507.6</ele>
        <time>2025-12-29T13:01:27Z</time>
      </trkpt>
      <trkpt lat="43.07155" lon="0.44056">
        <ele>507.6</ele>
        <time>2025-12-29T13:01:28Z</time>
      </trkpt>
      <trkpt lat="43.07149" lon="0.44058">
        <ele>507.6</ele>
        <time>2025-12-29T13:01:29Z</time>
      </trkpt>
      <trkpt lat="43.07144" lon="0.4406">
        <ele>508.6</ele>
        <time>2025-12-29T13:01:30Z</time>
      </trkpt>
      <trkpt lat="43.07139" lon="0.44063">
        <ele>512</ele>
        <time>2025-12-29T13:01:31Z</time>
      </trkpt>
      <trkpt lat="43.07133" lon="0.44065">
        <ele>512</ele>
        <time>2025-12-29T13:01:32Z</time>
      </trkpt>
      <trkpt lat="43.07128" lon="0.44067">
        <ele>512</ele>
        <time>2025-12-29T13:01:33Z</time>
      </trkpt>
      <trkpt lat="43.07122" lon="0.44069">
        <ele>512</ele>
        <time>2025-12-29T13:01:34Z</time>
      </trkpt>
      <trkpt lat="43.07117" lon="0.44071">
        <ele>512.2</ele>
        <time>2025-12-29T13:01:35Z</time>
      </trkpt>
      <trkpt lat="43.07112" lon="0.44073">
        <ele>512.2</ele>
        <time>2025-12-29T13:01:36Z</time>
      </trkpt>
      <trkpt lat="43.07106" lon="0.44075">
        <ele>512.2</ele>
        <time>2025-12-29T13:01:37Z</time>
      </trkpt>
      <trkpt lat="43.071" lon="0.44077">
        <ele>512.2</ele>
        <time>2025-12-29T13:01:38Z</time>
      </trkpt>
      <trkpt lat="43.07095" lon="0.44079">
        <ele>511.6</ele>
        <time>2025-12-29T13:01:39Z</time>
      </trkpt>
      <trkpt lat="43.07089" lon="0.44081">
        <ele>511.6</ele>
        <time>2025-12-29T13:01:40Z</time>
      </trkpt>
      <trkpt lat="43.07083" lon="0.44084">
        <ele>511.6</ele>
        <time>2025-12-29T13:01:41Z</time>
      </trkpt>
      <trkpt lat="43.07078" lon="0.44087">
        <ele>511</ele>
        <time>2025-12-29T13:01:42Z</time>
      </trkpt>
      <trkpt lat="43.07072" lon="0.44091">
        <ele>510</ele>
        <time>2025-12-29T13:01:43Z</time>
      </trkpt>
      <trkpt lat="43.07066" lon="0.44095">
        <ele>510</ele>
        <time>2025-12-29T13:01:44Z</time>
      </trkpt>
      <trkpt lat="43.0706" lon="0.44098">
        <ele>510</ele>
        <time>2025-12-29T13:01:45Z</time>
      </trkpt>
      <trkpt lat="43.07054" lon="0.44102">
        <ele>510</ele>
        <time>2025-12-29T13:01:46Z</time>
      </trkpt>
      <trkpt lat="43.07049" lon="0.44107">
        <ele>509</ele>
        <time>2025-12-29T13:01:47Z</time>
      </trkpt>
      <trkpt lat="43.07044" lon="0.44111">
        <ele>509</ele>
        <time>2025-12-29T13:01:48Z</time>
      </trkpt>
      <trkpt lat="43.07039" lon="0.44116">
        <ele>509</ele>
        <time>2025-12-29T13:01:49Z</time>
      </trkpt>
      <trkpt lat="43.07033" lon="0.44121">
        <ele>509</ele>
        <time>2025-12-29T13:01:50Z</time>
      </trkpt>
      <trkpt lat="43.07028" lon="0.44126">
        <ele>509</ele>
        <time>2025-12-29T13:01:51Z</time>
      </trkpt>
      <trkpt lat="43.07023" lon="0.44131">
        <ele>509</ele>
        <time>2025-12-29T13:01:52Z</time>
      </trkpt>
      <trkpt lat="43.07018" lon="0.44136">
        <ele>509</ele>
        <time>2025-12-29T13:01:53Z</time>
      </trkpt>
      <trkpt lat="43.07013" lon="0.44141">
        <ele>508.4</ele>
        <time>2025-12-29T13:01:54Z</time>
      </trkpt>
      <trkpt lat="43.07008" lon="0.44146">
        <ele>509.6</ele>
        <time>2025-12-29T13:01:55Z</time>
      </trkpt>
      <trkpt lat="43.07003" lon="0.44151">
        <ele>509.6</ele>
        <time>2025-12-29T13:01:56Z</time>
      </trkpt>
      <trkpt lat="43.06998" lon="0.44156">
        <ele>509.6</ele>
        <time>2025-12-29T13:01:57Z</time>
      </trkpt>
      <trkpt lat="43.06993" lon="0.44162">
        <ele>508.6</ele>
        <time>2025-12-29T13:01:58Z</time>
      </trkpt>
      <trkpt lat="43.06989" lon="0.44167">
        <ele>509</ele>
        <time>2025-12-29T13:01:59Z</time>
      </trkpt>
      <trkpt lat="43.06984" lon="0.44172">
        <ele>509</ele>
        <time>2025-12-29T13:02:00Z</time>
      </trkpt>
      <trkpt lat="43.06979" lon="0.44176">
        <ele>509</ele>
        <time>2025-12-29T13:02:01Z</time>
      </trkpt>
      <trkpt lat="43.06975" lon="0.44181">
        <ele>508.4</ele>
        <time>2025-12-29T13:02:02Z</time>
      </trkpt>
      <trkpt lat="43.0697" lon="0.44185">
        <ele>507.8</ele>
        <time>2025-12-29T13:02:03Z</time>
      </trkpt>
      <trkpt lat="43.06966" lon="0.4419">
        <ele>507.8</ele>
        <time>2025-12-29T13:02:04Z</time>
      </trkpt>
      <trkpt lat="43.06961" lon="0.44195">
        <ele>507.8</ele>
        <time>2025-12-29T13:02:05Z</time>
      </trkpt>
      <trkpt lat="43.06957" lon="0.44199">
        <ele>507.8</ele>
        <time>2025-12-29T13:02:06Z</time>
      </trkpt>
      <trkpt lat="43.06953" lon="0.44203">
        <ele>507.4</ele>
        <time>2025-12-29T13:02:07Z</time>
      </trkpt>
      <trkpt lat="43.06947" lon="0.44207">
        <ele>507.4</ele>
        <time>2025-12-29T13:02:08Z</time>
      </trkpt>
      <trkpt lat="43.06942" lon="0.44209">
        <ele>507.4</ele>
        <time>2025-12-29T13:02:09Z</time>
      </trkpt>
      <trkpt lat="43.06936" lon="0.44208">
        <ele>508.2</ele>
        <time>2025-12-29T13:02:10Z</time>
      </trkpt>
      <trkpt lat="43.06931" lon="0.44206">
        <ele>507.6</ele>
        <time>2025-12-29T13:02:11Z</time>
      </trkpt>
      <trkpt lat="43.06925" lon="0.44204">
        <ele>507.6</ele>
        <time>2025-12-29T13:02:12Z</time>
      </trkpt>
      <trkpt lat="43.0692" lon="0.44202">
        <ele>507.6</ele>
        <time>2025-12-29T13:02:13Z</time>
      </trkpt>
      <trkpt lat="43.06914" lon="0.442">
        <ele>507.8</ele>
        <time>2025-12-29T13:02:14Z</time>
      </trkpt>
      <trkpt lat="43.06908" lon="0.442">
        <ele>508</ele>
        <time>2025-12-29T13:02:15Z</time>
      </trkpt>
      <trkpt lat="43.06903" lon="0.442">
        <ele>508</ele>
        <time>2025-12-29T13:02:16Z</time>
      </trkpt>
      <trkpt lat="43.06898" lon="0.44202">
        <ele>508</ele>
        <time>2025-12-29T13:02:17Z</time>
      </trkpt>
      <trkpt lat="43.06893" lon="0.44205">
        <ele>508</ele>
        <time>2025-12-29T13:02:18Z</time>
      </trkpt>
      <trkpt lat="43.06888" lon="0.44208">
        <ele>508.2</ele>
        <time>2025-12-29T13:02:19Z</time>
      </trkpt>
      <trkpt lat="43.06883" lon="0.4421">
        <ele>508.2</ele>
        <time>2025-12-29T13:02:20Z</time>
      </trkpt>
      <trkpt lat="43.06877" lon="0.44209">
        <ele>508.2</ele>
        <time>2025-12-29T13:02:21Z</time>
      </trkpt>
      <trkpt lat="43.06872" lon="0.44208">
        <ele>508.2</ele>
        <time>2025-12-29T13:02:22Z</time>
      </trkpt>
      <trkpt lat="43.06866" lon="0.44206">
        <ele>507.6</ele>
        <time>2025-12-29T13:02:23Z</time>
      </trkpt>
      <trkpt lat="43.06861" lon="0.44205">
        <ele>507.6</ele>
        <time>2025-12-29T13:02:24Z</time>
      </trkpt>
      <trkpt lat="43.06855" lon="0.44204">
        <ele>507.6</ele>
        <time>2025-12-29T13:02:25Z</time>
      </trkpt>
      <trkpt lat="43.0685" lon="0.44203">
        <ele>507.8</ele>
        <time>2025-12-29T13:02:26Z</time>
      </trkpt>
      <trkpt lat="43.06844" lon="0.44203">
        <ele>507.8</ele>
        <time>2025-12-29T13:02:27Z</time>
      </trkpt>
      <trkpt lat="43.06839" lon="0.44203">
        <ele>507.8</ele>
        <time>2025-12-29T13:02:28Z</time>
      </trkpt>
      <trkpt lat="43.06833" lon="0.44202">
        <ele>507.8</ele>
        <time>2025-12-29T13:02:29Z</time>
      </trkpt>
      <trkpt lat="43.06828" lon="0.44202">
        <ele>507.8</ele>
        <time>2025-12-29T13:02:30Z</time>
      </trkpt>
      <trkpt lat="43.06823" lon="0.44201">
        <ele>507.2</ele>
        <time>2025-12-29T13:02:31Z</time>
      </trkpt>
      <trkpt lat="43.06818" lon="0.44199">
        <ele>507.2</ele>
        <time>2025-12-29T13:02:32Z</time>
      </trkpt>
      <trkpt lat="43.06812" lon="0.44196">
        <ele>507.2</ele>
        <time>2025-12-29T13:02:33Z</time>
      </trkpt>
      <trkpt lat="43.06807" lon="0.44194">
        <ele>507.2</ele>
        <time>2025-12-29T13:02:34Z</time>
      </trkpt>
      <trkpt lat="43.06802" lon="0.44192">
        <ele>508.4</ele>
        <time>2025-12-29T13:02:35Z</time>
      </trkpt>
      <trkpt lat="43.06797" lon="0.44189">
        <ele>508.4</ele>
        <time>2025-12-29T13:02:36Z</time>
      </trkpt>
      <trkpt lat="43.06793" lon="0.44186">
        <ele>508.4</ele>
        <time>2025-12-29T13:02:37Z</time>
      </trkpt>
      <trkpt lat="43.06788" lon="0.44182">
        <ele>508.4</ele>
        <time>2025-12-29T13:02:38Z</time>
      </trkpt>
      <trkpt lat="43.06784" lon="0.44178">
        <ele>508.4</ele>
        <time>2025-12-29T13:02:39Z</time>
      </trkpt>
      <trkpt lat="43.0678" lon="0.44174">
        <ele>508.4</ele>
        <time>2025-12-29T13:02:40Z</time>
      </trkpt>
      <trkpt lat="43.06777" lon="0.44169">
        <ele>508.4</ele>
        <time>2025-12-29T13:02:41Z</time>
      </trkpt>
      <trkpt lat="43.06773" lon="0.44165">
        <ele>508.4</ele>
        <time>2025-12-29T13:02:42Z</time>
      </trkpt>
      <trkpt lat="43.0677" lon="0.44162">
        <ele>508.4</ele>
        <time>2025-12-29T13:02:43Z</time>
      </trkpt>
      <trkpt lat="43.06767" lon="0.44158">
        <ele>508.4</ele>
        <time>2025-12-29T13:02:44Z</time>
      </trkpt>
      <trkpt lat="43.06764" lon="0.44154">
        <ele>508.4</ele>
        <time>2025-12-29T13:02:45Z</time>
      </trkpt>
      <trkpt lat="43.0676" lon="0.4415">
        <ele>509</ele>
        <time>2025-12-29T13:02:46Z</time>
      </trkpt>
      <trkpt lat="43.06757" lon="0.44146">
        <ele>508.4</ele>
        <time>2025-12-29T13:02:47Z</time>
      </trkpt>
      <trkpt lat="43.06753" lon="0.44141">
        <ele>508.4</ele>
        <time>2025-12-29T13:02:48Z</time>
      </trkpt>
      <trkpt lat="43.06749" lon="0.44137">
        <ele>508.4</ele>
        <time>2025-12-29T13:02:49Z</time>
      </trkpt>
      <trkpt lat="43.06746" lon="0.44132">
        <ele>508.4</ele>
        <time>2025-12-29T13:02:50Z</time>
      </trkpt>
      <trkpt lat="43.06742" lon="0.44127">
        <ele>508</ele>
        <time>2025-12-29T13:02:51Z</time>
      </trkpt>
      <trkpt lat="43.06738" lon="0.44122">
        <ele>508</ele>
        <time>2025-12-29T13:02:52Z</time>
      </trkpt>
      <trkpt lat="43.06734" lon="0.44117">
        <ele>508</ele>
        <time>2025-12-29T13:02:53Z</time>
      </trkpt>
      <trkpt lat="43.06731" lon="0.44111">
        <ele>508</ele>
        <time>2025-12-29T13:02:54Z</time>
      </trkpt>
      <trkpt lat="43.06727" lon="0.44106">
        <ele>508</ele>
        <time>2025-12-29T13:02:55Z</time>
      </trkpt>
      <trkpt lat="43.06723" lon="0.441">
        <ele>508</ele>
        <time>2025-12-29T13:02:56Z</time>
      </trkpt>
      <trkpt lat="43.06719" lon="0.44095">
        <ele>508</ele>
        <time>2025-12-29T13:02:57Z</time>
      </trkpt>
      <trkpt lat="43.06715" lon="0.44091">
        <ele>507.6</ele>
        <time>2025-12-29T13:02:58Z</time>
      </trkpt>
      <trkpt lat="43.0671" lon="0.44086">
        <ele>508</ele>
        <time>2025-12-29T13:02:59Z</time>
      </trkpt>
      <trkpt lat="43.06706" lon="0.44082">
        <ele>508</ele>
        <time>2025-12-29T13:03:00Z</time>
      </trkpt>
      <trkpt lat="43.06702" lon="0.44078">
        <ele>508</ele>
        <time>2025-12-29T13:03:01Z</time>
      </trkpt>
      <trkpt lat="43.06697" lon="0.44075">
        <ele>508</ele>
        <time>2025-12-29T13:03:02Z</time>
      </trkpt>
      <trkpt lat="43.06692" lon="0.44071">
        <ele>509.4</ele>
        <time>2025-12-29T13:03:03Z</time>
      </trkpt>
      <trkpt lat="43.06687" lon="0.44068">
        <ele>509.4</ele>
        <time>2025-12-29T13:03:04Z</time>
      </trkpt>
      <trkpt lat="43.06683" lon="0.44065">
        <ele>509.4</ele>
        <time>2025-12-29T13:03:05Z</time>
      </trkpt>
      <trkpt lat="43.06678" lon="0.44062">
        <ele>509</ele>
        <time>2025-12-29T13:03:06Z</time>
      </trkpt>
      <trkpt lat="43.06673" lon="0.44059">
        <ele>509.4</ele>
        <time>2025-12-29T13:03:07Z</time>
      </trkpt>
      <trkpt lat="43.06669" lon="0.44056">
        <ele>509.4</ele>
        <time>2025-12-29T13:03:08Z</time>
      </trkpt>
      <trkpt lat="43.06664" lon="0.44053">
        <ele>509.4</ele>
        <time>2025-12-29T13:03:09Z</time>
      </trkpt>
      <trkpt lat="43.06659" lon="0.44051">
        <ele>508.8</ele>
        <time>2025-12-29T13:03:10Z</time>
      </trkpt>
      <trkpt lat="43.06655" lon="0.44048">
        <ele>510.4</ele>
        <time>2025-12-29T13:03:11Z</time>
      </trkpt>
      <trkpt lat="43.06652" lon="0.44045">
        <ele>510.4</ele>
        <time>2025-12-29T13:03:12Z</time>
      </trkpt>
      <trkpt lat="43.06648" lon="0.44042">
        <ele>510.4</ele>
        <time>2025-12-29T13:03:13Z</time>
      </trkpt>
      <trkpt lat="43.06646" lon="0.44038">
        <ele>509.4</ele>
        <time>2025-12-29T13:03:14Z</time>
      </trkpt>
      <trkpt lat="43.06646" lon="0.44033">
        <ele>509.6</ele>
        <time>2025-12-29T13:03:15Z</time>
      </trkpt>
      <trkpt lat="43.06646" lon="0.44028">
        <ele>509.6</ele>
        <time>2025-12-29T13:03:16Z</time>
      </trkpt>
      <trkpt lat="43.06647" lon="0.44024">
        <ele>509.6</ele>
        <time>2025-12-29T13:03:17Z</time>
      </trkpt>
      <trkpt lat="43.06648" lon="0.4402">
        <ele>509.6</ele>
        <time>2025-12-29T13:03:18Z</time>
      </trkpt>
      <trkpt lat="43.0665" lon="0.44015">
        <ele>509.8</ele>
        <time>2025-12-29T13:03:19Z</time>
      </trkpt>
      <trkpt lat="43.06651" lon="0.4401">
        <ele>509.8</ele>
        <time>2025-12-29T13:03:20Z</time>
      </trkpt>
      <trkpt lat="43.06652" lon="0.44006">
        <ele>509.8</ele>
        <time>2025-12-29T13:03:21Z</time>
      </trkpt>
      <trkpt lat="43.06654" lon="0.44001">
        <ele>509</ele>
        <time>2025-12-29T13:03:22Z</time>
      </trkpt>
      <trkpt lat="43.06655" lon="0.43997">
        <ele>509.8</ele>
        <time>2025-12-29T13:03:23Z</time>
      </trkpt>
      <trkpt lat="43.06656" lon="0.43992">
        <ele>509.8</ele>
        <time>2025-12-29T13:03:24Z</time>
      </trkpt>
      <trkpt lat="43.06657" lon="0.43989">
        <ele>509.8</ele>
        <time>2025-12-29T13:03:25Z</time>
      </trkpt>
      <trkpt lat="43.06658" lon="0.43985">
        <ele>509.8</ele>
        <time>2025-12-29T13:03:26Z</time>
      </trkpt>
      <trkpt lat="43.06659" lon="0.43983">
        <ele>510.2</ele>
        <time>2025-12-29T13:03:27Z</time>
      </trkpt>
      <trkpt lat="43.06661" lon="0.43982">
        <ele>510.2</ele>
        <time>2025-12-29T13:03:28Z</time>
      </trkpt>
      <trkpt lat="43.06663" lon="0.4398">
        <ele>510.2</ele>
        <time>2025-12-29T13:03:29Z</time>
      </trkpt>
      <trkpt lat="43.06664" lon="0.4398">
        <ele>510.4</ele>
        <time>2025-12-29T13:03:30Z</time>
      </trkpt>
      <trkpt lat="43.06666" lon="0.43979">
        <ele>510</ele>
        <time>2025-12-29T13:03:31Z</time>
      </trkpt>
      <trkpt lat="43.06667" lon="0.43979">
        <ele>510</ele>
        <time>2025-12-29T13:03:32Z</time>
      </trkpt>
      <trkpt lat="43.06667" lon="0.43979">
        <ele>510</ele>
        <time>2025-12-29T13:03:33Z</time>
      </trkpt>
      <trkpt lat="43.06667" lon="0.43979">
        <ele>510.6</ele>
        <time>2025-12-29T13:03:34Z</time>
      </trkpt>
      <trkpt lat="43.06667" lon="0.43979">
        <ele>510.2</ele>
        <time>2025-12-29T13:03:35Z</time>
      </trkpt>
    </trkseg>
  </trk>
</gpx>